<?xml version="1.0" encoding="UTF-8" standalone="no" ?>
<gpx xmlns="http://www.topografix.com/GPX/1/1" xmlns:xsi="http://www.w3.org/2001/XMLSchema-instance" xsi:schemaLocation="http://www.topografix.com/GPX/1/1 http://www.topografix.com/GPX/1/1/gpx.xsd" version="1.1" creator="VisuGPX - https://www.visugpx.com">
  <metadata>
    <name>Bouchemaine Angers</name>
    <desc><![CDATA[ballade en velo super]]></desc>
  </metadata>
  <trk>
    <name><![CDATA[Bouchemaine Angers_1]]></name>
    <trkseg>
      <trkpt lat="47.41885" lon="-0.61052">
        <ele>22</ele>
        <time>2011-09-01T14:33:49Z</time>
      </trkpt>
      <trkpt lat="47.41909" lon="-0.61033">
        <ele>22</ele>
        <time>2011-09-01T14:34:01Z</time>
      </trkpt>
      <trkpt lat="47.4191" lon="-0.61032">
        <ele>22</ele>
        <time>2011-09-01T14:34:02Z</time>
      </trkpt>
      <trkpt lat="47.41913" lon="-0.6103">
        <ele>22</ele>
        <time>2011-09-01T14:34:04Z</time>
      </trkpt>
      <trkpt lat="47.41914" lon="-0.61029">
        <ele>22</ele>
        <time>2011-09-01T14:34:05Z</time>
      </trkpt>
      <trkpt lat="47.41916" lon="-0.61027">
        <ele>22</ele>
        <time>2011-09-01T14:34:06Z</time>
      </trkpt>
      <trkpt lat="47.41918" lon="-0.61026">
        <ele>22</ele>
        <time>2011-09-01T14:34:07Z</time>
      </trkpt>
      <trkpt lat="47.4192" lon="-0.61024">
        <ele>22</ele>
        <time>2011-09-01T14:34:08Z</time>
      </trkpt>
      <trkpt lat="47.41922" lon="-0.61023">
        <ele>22</ele>
        <time>2011-09-01T14:34:09Z</time>
      </trkpt>
      <trkpt lat="47.41924" lon="-0.61022">
        <ele>22</ele>
        <time>2011-09-01T14:34:10Z</time>
      </trkpt>
      <trkpt lat="47.41926" lon="-0.61021">
        <ele>22</ele>
        <time>2011-09-01T14:34:11Z</time>
      </trkpt>
      <trkpt lat="47.41928" lon="-0.6102">
        <ele>22</ele>
        <time>2011-09-01T14:34:12Z</time>
      </trkpt>
      <trkpt lat="47.4193" lon="-0.61019">
        <ele>22</ele>
        <time>2011-09-01T14:34:13Z</time>
      </trkpt>
      <trkpt lat="47.41931" lon="-0.61018">
        <ele>22</ele>
        <time>2011-09-01T14:34:14Z</time>
      </trkpt>
      <trkpt lat="47.41933" lon="-0.61016">
        <ele>22</ele>
        <time>2011-09-01T14:34:15Z</time>
      </trkpt>
      <trkpt lat="47.41935" lon="-0.61015">
        <ele>22</ele>
        <time>2011-09-01T14:34:16Z</time>
      </trkpt>
      <trkpt lat="47.41937" lon="-0.61014">
        <ele>22</ele>
        <time>2011-09-01T14:34:17Z</time>
      </trkpt>
      <trkpt lat="47.41939" lon="-0.61013">
        <ele>22</ele>
        <time>2011-09-01T14:34:18Z</time>
      </trkpt>
      <trkpt lat="47.41941" lon="-0.61012">
        <ele>22</ele>
        <time>2011-09-01T14:34:19Z</time>
      </trkpt>
      <trkpt lat="47.41944" lon="-0.61011">
        <ele>22</ele>
        <time>2011-09-01T14:34:20Z</time>
      </trkpt>
      <trkpt lat="47.41946" lon="-0.6101">
        <ele>22</ele>
        <time>2011-09-01T14:34:21Z</time>
      </trkpt>
      <trkpt lat="47.41948" lon="-0.6101">
        <ele>22</ele>
        <time>2011-09-01T14:34:22Z</time>
      </trkpt>
      <trkpt lat="47.4195" lon="-0.61008">
        <ele>22</ele>
        <time>2011-09-01T14:34:23Z</time>
      </trkpt>
      <trkpt lat="47.41953" lon="-0.61007">
        <ele>22</ele>
        <time>2011-09-01T14:34:24Z</time>
      </trkpt>
      <trkpt lat="47.41955" lon="-0.61006">
        <ele>22</ele>
        <time>2011-09-01T14:34:25Z</time>
      </trkpt>
      <trkpt lat="47.41957" lon="-0.61005">
        <ele>22</ele>
        <time>2011-09-01T14:34:26Z</time>
      </trkpt>
      <trkpt lat="47.41959" lon="-0.61004">
        <ele>22</ele>
        <time>2011-09-01T14:34:27Z</time>
      </trkpt>
      <trkpt lat="47.41961" lon="-0.61003">
        <ele>22</ele>
        <time>2011-09-01T14:34:28Z</time>
      </trkpt>
      <trkpt lat="47.41963" lon="-0.61001">
        <ele>22</ele>
        <time>2011-09-01T14:34:29Z</time>
      </trkpt>
      <trkpt lat="47.41965" lon="-0.61">
        <ele>22</ele>
        <time>2011-09-01T14:34:30Z</time>
      </trkpt>
      <trkpt lat="47.41967" lon="-0.60999">
        <ele>22</ele>
        <time>2011-09-01T14:34:31Z</time>
      </trkpt>
      <trkpt lat="47.41969" lon="-0.60998">
        <ele>22</ele>
        <time>2011-09-01T14:34:32Z</time>
      </trkpt>
      <trkpt lat="47.41971" lon="-0.60997">
        <ele>22</ele>
        <time>2011-09-01T14:34:33Z</time>
      </trkpt>
      <trkpt lat="47.41973" lon="-0.60996">
        <ele>22</ele>
        <time>2011-09-01T14:34:34Z</time>
      </trkpt>
      <trkpt lat="47.41976" lon="-0.60994">
        <ele>21</ele>
        <time>2011-09-01T14:34:35Z</time>
      </trkpt>
      <trkpt lat="47.41978" lon="-0.60993">
        <ele>21</ele>
        <time>2011-09-01T14:34:36Z</time>
      </trkpt>
      <trkpt lat="47.4198" lon="-0.60992">
        <ele>21</ele>
        <time>2011-09-01T14:34:37Z</time>
      </trkpt>
      <trkpt lat="47.41983" lon="-0.60991">
        <ele>21</ele>
        <time>2011-09-01T14:34:38Z</time>
      </trkpt>
      <trkpt lat="47.41985" lon="-0.60989">
        <ele>20</ele>
        <time>2011-09-01T14:34:39Z</time>
      </trkpt>
      <trkpt lat="47.41988" lon="-0.60988">
        <ele>20</ele>
        <time>2011-09-01T14:34:40Z</time>
      </trkpt>
      <trkpt lat="47.4199" lon="-0.60987">
        <ele>20</ele>
        <time>2011-09-01T14:34:41Z</time>
      </trkpt>
      <trkpt lat="47.41992" lon="-0.60985">
        <ele>20</ele>
        <time>2011-09-01T14:34:42Z</time>
      </trkpt>
      <trkpt lat="47.41994" lon="-0.60984">
        <ele>19</ele>
        <time>2011-09-01T14:34:43Z</time>
      </trkpt>
      <trkpt lat="47.41996" lon="-0.60983">
        <ele>19</ele>
        <time>2011-09-01T14:34:44Z</time>
      </trkpt>
      <trkpt lat="47.41999" lon="-0.60982">
        <ele>18</ele>
        <time>2011-09-01T14:34:45Z</time>
      </trkpt>
      <trkpt lat="47.42001" lon="-0.6098">
        <ele>18</ele>
        <time>2011-09-01T14:34:46Z</time>
      </trkpt>
      <trkpt lat="47.42004" lon="-0.60979">
        <ele>18</ele>
        <time>2011-09-01T14:34:47Z</time>
      </trkpt>
      <trkpt lat="47.42007" lon="-0.60978">
        <ele>17</ele>
        <time>2011-09-01T14:34:48Z</time>
      </trkpt>
      <trkpt lat="47.4201" lon="-0.60977">
        <ele>17</ele>
        <time>2011-09-01T14:34:49Z</time>
      </trkpt>
      <trkpt lat="47.42013" lon="-0.60976">
        <ele>17</ele>
        <time>2011-09-01T14:34:50Z</time>
      </trkpt>
      <trkpt lat="47.42015" lon="-0.60975">
        <ele>17</ele>
        <time>2011-09-01T14:34:51Z</time>
      </trkpt>
      <trkpt lat="47.42018" lon="-0.60974">
        <ele>16</ele>
        <time>2011-09-01T14:34:52Z</time>
      </trkpt>
      <trkpt lat="47.4202" lon="-0.60973">
        <ele>16</ele>
        <time>2011-09-01T14:34:53Z</time>
      </trkpt>
      <trkpt lat="47.42023" lon="-0.60972">
        <ele>16</ele>
        <time>2011-09-01T14:34:54Z</time>
      </trkpt>
      <trkpt lat="47.42025" lon="-0.60971">
        <ele>16</ele>
        <time>2011-09-01T14:34:55Z</time>
      </trkpt>
      <trkpt lat="47.42028" lon="-0.6097">
        <ele>16</ele>
        <time>2011-09-01T14:34:56Z</time>
      </trkpt>
      <trkpt lat="47.4203" lon="-0.60968">
        <ele>16</ele>
        <time>2011-09-01T14:34:57Z</time>
      </trkpt>
      <trkpt lat="47.42033" lon="-0.60967">
        <ele>16</ele>
        <time>2011-09-01T14:34:58Z</time>
      </trkpt>
      <trkpt lat="47.42035" lon="-0.60966">
        <ele>16</ele>
        <time>2011-09-01T14:34:59Z</time>
      </trkpt>
      <trkpt lat="47.42036" lon="-0.60965">
        <ele>16</ele>
        <time>2011-09-01T14:35:00Z</time>
      </trkpt>
      <trkpt lat="47.42039" lon="-0.60963">
        <ele>16</ele>
        <time>2011-09-01T14:35:01Z</time>
      </trkpt>
      <trkpt lat="47.42041" lon="-0.60962">
        <ele>16</ele>
        <time>2011-09-01T14:35:02Z</time>
      </trkpt>
      <trkpt lat="47.42044" lon="-0.60961">
        <ele>16</ele>
        <time>2011-09-01T14:35:03Z</time>
      </trkpt>
      <trkpt lat="47.42047" lon="-0.60959">
        <ele>16</ele>
        <time>2011-09-01T14:35:04Z</time>
      </trkpt>
      <trkpt lat="47.4205" lon="-0.60957">
        <ele>15</ele>
        <time>2011-09-01T14:35:05Z</time>
      </trkpt>
      <trkpt lat="47.42053" lon="-0.60955">
        <ele>15</ele>
        <time>2011-09-01T14:35:06Z</time>
      </trkpt>
      <trkpt lat="47.42056" lon="-0.60953">
        <ele>14</ele>
        <time>2011-09-01T14:35:07Z</time>
      </trkpt>
      <trkpt lat="47.42058" lon="-0.6095">
        <ele>14</ele>
        <time>2011-09-01T14:35:08Z</time>
      </trkpt>
      <trkpt lat="47.42061" lon="-0.60948">
        <ele>13</ele>
        <time>2011-09-01T14:35:09Z</time>
      </trkpt>
      <trkpt lat="47.42064" lon="-0.60946">
        <ele>13</ele>
        <time>2011-09-01T14:35:10Z</time>
      </trkpt>
      <trkpt lat="47.42067" lon="-0.60944">
        <ele>13</ele>
        <time>2011-09-01T14:35:11Z</time>
      </trkpt>
      <trkpt lat="47.4207" lon="-0.60942">
        <ele>13</ele>
        <time>2011-09-01T14:35:12Z</time>
      </trkpt>
      <trkpt lat="47.42071" lon="-0.60941">
        <ele>13</ele>
        <time>2011-09-01T14:35:13Z</time>
      </trkpt>
      <trkpt lat="47.42073" lon="-0.6094">
        <ele>13</ele>
        <time>2011-09-01T14:35:14Z</time>
      </trkpt>
      <trkpt lat="47.42075" lon="-0.60939">
        <ele>13</ele>
        <time>2011-09-01T14:35:15Z</time>
      </trkpt>
      <trkpt lat="47.42076" lon="-0.60937">
        <ele>13</ele>
        <time>2011-09-01T14:35:16Z</time>
      </trkpt>
      <trkpt lat="47.42077" lon="-0.60936">
        <ele>13</ele>
        <time>2011-09-01T14:35:17Z</time>
      </trkpt>
      <trkpt lat="47.42078" lon="-0.60935">
        <ele>13</ele>
        <time>2011-09-01T14:35:18Z</time>
      </trkpt>
      <trkpt lat="47.42081" lon="-0.60934">
        <ele>14</ele>
        <time>2011-09-01T14:35:20Z</time>
      </trkpt>
      <trkpt lat="47.42084" lon="-0.60933">
        <ele>15</ele>
        <time>2011-09-01T14:35:21Z</time>
      </trkpt>
      <trkpt lat="47.42086" lon="-0.60932">
        <ele>15</ele>
        <time>2011-09-01T14:35:22Z</time>
      </trkpt>
      <trkpt lat="47.42089" lon="-0.60931">
        <ele>16</ele>
        <time>2011-09-01T14:35:23Z</time>
      </trkpt>
      <trkpt lat="47.42091" lon="-0.6093">
        <ele>16</ele>
        <time>2011-09-01T14:35:24Z</time>
      </trkpt>
      <trkpt lat="47.42094" lon="-0.60929">
        <ele>16</ele>
        <time>2011-09-01T14:35:25Z</time>
      </trkpt>
      <trkpt lat="47.42096" lon="-0.60928">
        <ele>16</ele>
        <time>2011-09-01T14:35:26Z</time>
      </trkpt>
      <trkpt lat="47.42098" lon="-0.60928">
        <ele>16</ele>
        <time>2011-09-01T14:35:27Z</time>
      </trkpt>
      <trkpt lat="47.421" lon="-0.60927">
        <ele>16</ele>
        <time>2011-09-01T14:35:28Z</time>
      </trkpt>
      <trkpt lat="47.42103" lon="-0.60926">
        <ele>16</ele>
        <time>2011-09-01T14:35:29Z</time>
      </trkpt>
      <trkpt lat="47.42104" lon="-0.60926">
        <ele>16</ele>
        <time>2011-09-01T14:35:30Z</time>
      </trkpt>
      <trkpt lat="47.42107" lon="-0.60925">
        <ele>16</ele>
        <time>2011-09-01T14:35:31Z</time>
      </trkpt>
      <trkpt lat="47.42108" lon="-0.60923">
        <ele>16</ele>
        <time>2011-09-01T14:35:32Z</time>
      </trkpt>
      <trkpt lat="47.4211" lon="-0.60921">
        <ele>16</ele>
        <time>2011-09-01T14:35:33Z</time>
      </trkpt>
      <trkpt lat="47.42111" lon="-0.60919">
        <ele>16</ele>
        <time>2011-09-01T14:35:34Z</time>
      </trkpt>
      <trkpt lat="47.42112" lon="-0.60917">
        <ele>16</ele>
        <time>2011-09-01T14:35:35Z</time>
      </trkpt>
      <trkpt lat="47.42113" lon="-0.60915">
        <ele>16</ele>
        <time>2011-09-01T14:35:36Z</time>
      </trkpt>
      <trkpt lat="47.42115" lon="-0.60913">
        <ele>16</ele>
        <time>2011-09-01T14:35:37Z</time>
      </trkpt>
      <trkpt lat="47.42116" lon="-0.60911">
        <ele>16</ele>
        <time>2011-09-01T14:35:38Z</time>
      </trkpt>
      <trkpt lat="47.42118" lon="-0.60909">
        <ele>16</ele>
        <time>2011-09-01T14:35:39Z</time>
      </trkpt>
      <trkpt lat="47.42119" lon="-0.60906">
        <ele>16</ele>
        <time>2011-09-01T14:35:40Z</time>
      </trkpt>
      <trkpt lat="47.42121" lon="-0.60904">
        <ele>16</ele>
        <time>2011-09-01T14:35:41Z</time>
      </trkpt>
      <trkpt lat="47.42123" lon="-0.60901">
        <ele>16</ele>
        <time>2011-09-01T14:35:42Z</time>
      </trkpt>
      <trkpt lat="47.42125" lon="-0.60898">
        <ele>16</ele>
        <time>2011-09-01T14:35:43Z</time>
      </trkpt>
      <trkpt lat="47.42126" lon="-0.60896">
        <ele>16</ele>
        <time>2011-09-01T14:35:44Z</time>
      </trkpt>
      <trkpt lat="47.42128" lon="-0.60892">
        <ele>16</ele>
        <time>2011-09-01T14:35:45Z</time>
      </trkpt>
      <trkpt lat="47.4213" lon="-0.6089">
        <ele>16</ele>
        <time>2011-09-01T14:35:46Z</time>
      </trkpt>
      <trkpt lat="47.42132" lon="-0.60886">
        <ele>16</ele>
        <time>2011-09-01T14:35:47Z</time>
      </trkpt>
      <trkpt lat="47.42135" lon="-0.60883">
        <ele>16</ele>
        <time>2011-09-01T14:35:48Z</time>
      </trkpt>
      <trkpt lat="47.42137" lon="-0.60879">
        <ele>16</ele>
        <time>2011-09-01T14:35:49Z</time>
      </trkpt>
      <trkpt lat="47.42139" lon="-0.60877">
        <ele>16</ele>
        <time>2011-09-01T14:35:50Z</time>
      </trkpt>
      <trkpt lat="47.42141" lon="-0.60874">
        <ele>16</ele>
        <time>2011-09-01T14:35:51Z</time>
      </trkpt>
      <trkpt lat="47.42142" lon="-0.60871">
        <ele>16</ele>
        <time>2011-09-01T14:35:52Z</time>
      </trkpt>
      <trkpt lat="47.42144" lon="-0.60869">
        <ele>16</ele>
        <time>2011-09-01T14:35:53Z</time>
      </trkpt>
      <trkpt lat="47.42146" lon="-0.60866">
        <ele>16</ele>
        <time>2011-09-01T14:35:54Z</time>
      </trkpt>
      <trkpt lat="47.42148" lon="-0.60863">
        <ele>16</ele>
        <time>2011-09-01T14:35:55Z</time>
      </trkpt>
      <trkpt lat="47.4215" lon="-0.6086">
        <ele>16</ele>
        <time>2011-09-01T14:35:56Z</time>
      </trkpt>
      <trkpt lat="47.42152" lon="-0.60858">
        <ele>16</ele>
        <time>2011-09-01T14:35:57Z</time>
      </trkpt>
      <trkpt lat="47.42154" lon="-0.60855">
        <ele>16</ele>
        <time>2011-09-01T14:35:58Z</time>
      </trkpt>
      <trkpt lat="47.42155" lon="-0.60853">
        <ele>16</ele>
        <time>2011-09-01T14:35:59Z</time>
      </trkpt>
      <trkpt lat="47.42157" lon="-0.6085">
        <ele>16</ele>
        <time>2011-09-01T14:36:00Z</time>
      </trkpt>
      <trkpt lat="47.42159" lon="-0.60848">
        <ele>16</ele>
        <time>2011-09-01T14:36:01Z</time>
      </trkpt>
      <trkpt lat="47.42161" lon="-0.60845">
        <ele>16</ele>
        <time>2011-09-01T14:36:02Z</time>
      </trkpt>
      <trkpt lat="47.42163" lon="-0.60842">
        <ele>16</ele>
        <time>2011-09-01T14:36:03Z</time>
      </trkpt>
      <trkpt lat="47.42165" lon="-0.60839">
        <ele>16</ele>
        <time>2011-09-01T14:36:04Z</time>
      </trkpt>
      <trkpt lat="47.42167" lon="-0.60835">
        <ele>16</ele>
        <time>2011-09-01T14:36:05Z</time>
      </trkpt>
      <trkpt lat="47.4217" lon="-0.60832">
        <ele>16</ele>
        <time>2011-09-01T14:36:06Z</time>
      </trkpt>
      <trkpt lat="47.42171" lon="-0.60829">
        <ele>16</ele>
        <time>2011-09-01T14:36:07Z</time>
      </trkpt>
      <trkpt lat="47.42173" lon="-0.60826">
        <ele>16</ele>
        <time>2011-09-01T14:36:08Z</time>
      </trkpt>
      <trkpt lat="47.42175" lon="-0.60825">
        <ele>16</ele>
        <time>2011-09-01T14:36:09Z</time>
      </trkpt>
      <trkpt lat="47.42177" lon="-0.60824">
        <ele>16</ele>
        <time>2011-09-01T14:36:10Z</time>
      </trkpt>
      <trkpt lat="47.42179" lon="-0.60823">
        <ele>16</ele>
        <time>2011-09-01T14:36:11Z</time>
      </trkpt>
      <trkpt lat="47.4218" lon="-0.60824">
        <ele>16</ele>
        <time>2011-09-01T14:36:12Z</time>
      </trkpt>
      <trkpt lat="47.42181" lon="-0.60824">
        <ele>16</ele>
        <time>2011-09-01T14:36:13Z</time>
      </trkpt>
      <trkpt lat="47.42183" lon="-0.60825">
        <ele>16</ele>
        <time>2011-09-01T14:36:14Z</time>
      </trkpt>
      <trkpt lat="47.42184" lon="-0.60825">
        <ele>16</ele>
        <time>2011-09-01T14:36:15Z</time>
      </trkpt>
      <trkpt lat="47.42186" lon="-0.60822">
        <ele>16</ele>
        <time>2011-09-01T14:36:17Z</time>
      </trkpt>
      <trkpt lat="47.42186" lon="-0.6082">
        <ele>16</ele>
        <time>2011-09-01T14:36:18Z</time>
      </trkpt>
      <trkpt lat="47.42188" lon="-0.60818">
        <ele>16</ele>
        <time>2011-09-01T14:36:19Z</time>
      </trkpt>
      <trkpt lat="47.42188" lon="-0.60815">
        <ele>16</ele>
        <time>2011-09-01T14:36:20Z</time>
      </trkpt>
      <trkpt lat="47.4219" lon="-0.60812">
        <ele>16</ele>
        <time>2011-09-01T14:36:21Z</time>
      </trkpt>
      <trkpt lat="47.42191" lon="-0.60809">
        <ele>16</ele>
        <time>2011-09-01T14:36:22Z</time>
      </trkpt>
      <trkpt lat="47.42192" lon="-0.60806">
        <ele>16</ele>
        <time>2011-09-01T14:36:23Z</time>
      </trkpt>
      <trkpt lat="47.42194" lon="-0.60803">
        <ele>16</ele>
        <time>2011-09-01T14:36:24Z</time>
      </trkpt>
      <trkpt lat="47.42195" lon="-0.608">
        <ele>16</ele>
        <time>2011-09-01T14:36:25Z</time>
      </trkpt>
      <trkpt lat="47.42196" lon="-0.60797">
        <ele>16</ele>
        <time>2011-09-01T14:36:26Z</time>
      </trkpt>
      <trkpt lat="47.42197" lon="-0.60794">
        <ele>16</ele>
        <time>2011-09-01T14:36:27Z</time>
      </trkpt>
      <trkpt lat="47.42199" lon="-0.60791">
        <ele>16</ele>
        <time>2011-09-01T14:36:28Z</time>
      </trkpt>
      <trkpt lat="47.422" lon="-0.60788">
        <ele>16</ele>
        <time>2011-09-01T14:36:29Z</time>
      </trkpt>
      <trkpt lat="47.42202" lon="-0.60785">
        <ele>16</ele>
        <time>2011-09-01T14:36:30Z</time>
      </trkpt>
      <trkpt lat="47.42204" lon="-0.60782">
        <ele>16</ele>
        <time>2011-09-01T14:36:31Z</time>
      </trkpt>
      <trkpt lat="47.42205" lon="-0.60779">
        <ele>16</ele>
        <time>2011-09-01T14:36:32Z</time>
      </trkpt>
      <trkpt lat="47.42207" lon="-0.60776">
        <ele>16</ele>
        <time>2011-09-01T14:36:33Z</time>
      </trkpt>
      <trkpt lat="47.42209" lon="-0.60773">
        <ele>16</ele>
        <time>2011-09-01T14:36:34Z</time>
      </trkpt>
      <trkpt lat="47.42211" lon="-0.6077">
        <ele>16</ele>
        <time>2011-09-01T14:36:35Z</time>
      </trkpt>
      <trkpt lat="47.42214" lon="-0.60768">
        <ele>16</ele>
        <time>2011-09-01T14:36:36Z</time>
      </trkpt>
      <trkpt lat="47.42216" lon="-0.60765">
        <ele>16</ele>
        <time>2011-09-01T14:36:37Z</time>
      </trkpt>
      <trkpt lat="47.42219" lon="-0.60762">
        <ele>16</ele>
        <time>2011-09-01T14:36:38Z</time>
      </trkpt>
      <trkpt lat="47.42221" lon="-0.6076">
        <ele>16</ele>
        <time>2011-09-01T14:36:39Z</time>
      </trkpt>
      <trkpt lat="47.42224" lon="-0.60757">
        <ele>16</ele>
        <time>2011-09-01T14:36:40Z</time>
      </trkpt>
      <trkpt lat="47.42226" lon="-0.60755">
        <ele>16</ele>
        <time>2011-09-01T14:36:41Z</time>
      </trkpt>
      <trkpt lat="47.42229" lon="-0.60753">
        <ele>15</ele>
        <time>2011-09-01T14:36:42Z</time>
      </trkpt>
      <trkpt lat="47.42231" lon="-0.60751">
        <ele>15</ele>
        <time>2011-09-01T14:36:43Z</time>
      </trkpt>
      <trkpt lat="47.42233" lon="-0.60748">
        <ele>15</ele>
        <time>2011-09-01T14:36:44Z</time>
      </trkpt>
      <trkpt lat="47.42235" lon="-0.60746">
        <ele>15</ele>
        <time>2011-09-01T14:36:45Z</time>
      </trkpt>
      <trkpt lat="47.42237" lon="-0.60743">
        <ele>14</ele>
        <time>2011-09-01T14:36:46Z</time>
      </trkpt>
      <trkpt lat="47.42239" lon="-0.6074">
        <ele>14</ele>
        <time>2011-09-01T14:36:47Z</time>
      </trkpt>
      <trkpt lat="47.42242" lon="-0.60738">
        <ele>14</ele>
        <time>2011-09-01T14:36:48Z</time>
      </trkpt>
      <trkpt lat="47.42244" lon="-0.60735">
        <ele>14</ele>
        <time>2011-09-01T14:36:49Z</time>
      </trkpt>
      <trkpt lat="47.42245" lon="-0.60733">
        <ele>14</ele>
        <time>2011-09-01T14:36:50Z</time>
      </trkpt>
      <trkpt lat="47.42248" lon="-0.6073">
        <ele>14</ele>
        <time>2011-09-01T14:36:51Z</time>
      </trkpt>
      <trkpt lat="47.42251" lon="-0.60728">
        <ele>14</ele>
        <time>2011-09-01T14:36:52Z</time>
      </trkpt>
      <trkpt lat="47.42255" lon="-0.60726">
        <ele>14</ele>
        <time>2011-09-01T14:36:53Z</time>
      </trkpt>
      <trkpt lat="47.42259" lon="-0.60724">
        <ele>14</ele>
        <time>2011-09-01T14:36:54Z</time>
      </trkpt>
      <trkpt lat="47.42262" lon="-0.60721">
        <ele>14</ele>
        <time>2011-09-01T14:36:55Z</time>
      </trkpt>
      <trkpt lat="47.42265" lon="-0.6072">
        <ele>14</ele>
        <time>2011-09-01T14:36:56Z</time>
      </trkpt>
      <trkpt lat="47.42268" lon="-0.60718">
        <ele>14</ele>
        <time>2011-09-01T14:36:57Z</time>
      </trkpt>
      <trkpt lat="47.42271" lon="-0.60716">
        <ele>14</ele>
        <time>2011-09-01T14:36:58Z</time>
      </trkpt>
      <trkpt lat="47.42275" lon="-0.60713">
        <ele>14</ele>
        <time>2011-09-01T14:36:59Z</time>
      </trkpt>
      <trkpt lat="47.42278" lon="-0.60711">
        <ele>14</ele>
        <time>2011-09-01T14:37:00Z</time>
      </trkpt>
      <trkpt lat="47.4228" lon="-0.60709">
        <ele>14</ele>
        <time>2011-09-01T14:37:01Z</time>
      </trkpt>
      <trkpt lat="47.42283" lon="-0.60707">
        <ele>14</ele>
        <time>2011-09-01T14:37:02Z</time>
      </trkpt>
      <trkpt lat="47.42286" lon="-0.60705">
        <ele>14</ele>
        <time>2011-09-01T14:37:03Z</time>
      </trkpt>
      <trkpt lat="47.42289" lon="-0.60703">
        <ele>14</ele>
        <time>2011-09-01T14:37:04Z</time>
      </trkpt>
      <trkpt lat="47.42292" lon="-0.60701">
        <ele>14</ele>
        <time>2011-09-01T14:37:05Z</time>
      </trkpt>
      <trkpt lat="47.42295" lon="-0.60698">
        <ele>14</ele>
        <time>2011-09-01T14:37:06Z</time>
      </trkpt>
      <trkpt lat="47.42298" lon="-0.60696">
        <ele>14</ele>
        <time>2011-09-01T14:37:07Z</time>
      </trkpt>
      <trkpt lat="47.423" lon="-0.60694">
        <ele>14</ele>
        <time>2011-09-01T14:37:08Z</time>
      </trkpt>
      <trkpt lat="47.42303" lon="-0.60693">
        <ele>14</ele>
        <time>2011-09-01T14:37:09Z</time>
      </trkpt>
      <trkpt lat="47.42306" lon="-0.60691">
        <ele>14</ele>
        <time>2011-09-01T14:37:10Z</time>
      </trkpt>
      <trkpt lat="47.42308" lon="-0.60689">
        <ele>14</ele>
        <time>2011-09-01T14:37:11Z</time>
      </trkpt>
      <trkpt lat="47.42311" lon="-0.60688">
        <ele>14</ele>
        <time>2011-09-01T14:37:12Z</time>
      </trkpt>
      <trkpt lat="47.42313" lon="-0.60686">
        <ele>14</ele>
        <time>2011-09-01T14:37:13Z</time>
      </trkpt>
      <trkpt lat="47.42316" lon="-0.60685">
        <ele>14</ele>
        <time>2011-09-01T14:37:14Z</time>
      </trkpt>
      <trkpt lat="47.42318" lon="-0.60684">
        <ele>14</ele>
        <time>2011-09-01T14:37:15Z</time>
      </trkpt>
      <trkpt lat="47.42321" lon="-0.60682">
        <ele>14</ele>
        <time>2011-09-01T14:37:16Z</time>
      </trkpt>
      <trkpt lat="47.42323" lon="-0.6068">
        <ele>14</ele>
        <time>2011-09-01T14:37:17Z</time>
      </trkpt>
      <trkpt lat="47.42326" lon="-0.60678">
        <ele>14</ele>
        <time>2011-09-01T14:37:18Z</time>
      </trkpt>
      <trkpt lat="47.42329" lon="-0.60676">
        <ele>14</ele>
        <time>2011-09-01T14:37:19Z</time>
      </trkpt>
      <trkpt lat="47.42332" lon="-0.60673">
        <ele>14</ele>
        <time>2011-09-01T14:37:20Z</time>
      </trkpt>
      <trkpt lat="47.42335" lon="-0.60672">
        <ele>14</ele>
        <time>2011-09-01T14:37:21Z</time>
      </trkpt>
      <trkpt lat="47.42338" lon="-0.60669">
        <ele>14</ele>
        <time>2011-09-01T14:37:22Z</time>
      </trkpt>
      <trkpt lat="47.42341" lon="-0.60667">
        <ele>14</ele>
        <time>2011-09-01T14:37:23Z</time>
      </trkpt>
      <trkpt lat="47.42345" lon="-0.60665">
        <ele>14</ele>
        <time>2011-09-01T14:37:24Z</time>
      </trkpt>
      <trkpt lat="47.42348" lon="-0.60663">
        <ele>14</ele>
        <time>2011-09-01T14:37:25Z</time>
      </trkpt>
      <trkpt lat="47.42351" lon="-0.60662">
        <ele>14</ele>
        <time>2011-09-01T14:37:26Z</time>
      </trkpt>
      <trkpt lat="47.42354" lon="-0.6066">
        <ele>14</ele>
        <time>2011-09-01T14:37:27Z</time>
      </trkpt>
      <trkpt lat="47.42357" lon="-0.60658">
        <ele>14</ele>
        <time>2011-09-01T14:37:28Z</time>
      </trkpt>
      <trkpt lat="47.4236" lon="-0.60656">
        <ele>14</ele>
        <time>2011-09-01T14:37:29Z</time>
      </trkpt>
      <trkpt lat="47.42363" lon="-0.60654">
        <ele>15</ele>
        <time>2011-09-01T14:37:30Z</time>
      </trkpt>
      <trkpt lat="47.42366" lon="-0.60652">
        <ele>15</ele>
        <time>2011-09-01T14:37:31Z</time>
      </trkpt>
      <trkpt lat="47.42368" lon="-0.6065">
        <ele>15</ele>
        <time>2011-09-01T14:37:32Z</time>
      </trkpt>
      <trkpt lat="47.42371" lon="-0.60648">
        <ele>16</ele>
        <time>2011-09-01T14:37:33Z</time>
      </trkpt>
      <trkpt lat="47.42374" lon="-0.60646">
        <ele>16</ele>
        <time>2011-09-01T14:37:34Z</time>
      </trkpt>
      <trkpt lat="47.42376" lon="-0.60643">
        <ele>16</ele>
        <time>2011-09-01T14:37:35Z</time>
      </trkpt>
      <trkpt lat="47.42379" lon="-0.60641">
        <ele>17</ele>
        <time>2011-09-01T14:37:36Z</time>
      </trkpt>
      <trkpt lat="47.42381" lon="-0.60638">
        <ele>17</ele>
        <time>2011-09-01T14:37:37Z</time>
      </trkpt>
      <trkpt lat="47.42384" lon="-0.60635">
        <ele>17</ele>
        <time>2011-09-01T14:37:38Z</time>
      </trkpt>
      <trkpt lat="47.42386" lon="-0.60632">
        <ele>17</ele>
        <time>2011-09-01T14:37:39Z</time>
      </trkpt>
      <trkpt lat="47.42388" lon="-0.60629">
        <ele>17</ele>
        <time>2011-09-01T14:37:40Z</time>
      </trkpt>
      <trkpt lat="47.4239" lon="-0.60627">
        <ele>17</ele>
        <time>2011-09-01T14:37:41Z</time>
      </trkpt>
      <trkpt lat="47.42393" lon="-0.60623">
        <ele>17</ele>
        <time>2011-09-01T14:37:42Z</time>
      </trkpt>
      <trkpt lat="47.42395" lon="-0.6062">
        <ele>17</ele>
        <time>2011-09-01T14:37:43Z</time>
      </trkpt>
      <trkpt lat="47.42398" lon="-0.60616">
        <ele>17</ele>
        <time>2011-09-01T14:37:44Z</time>
      </trkpt>
      <trkpt lat="47.42401" lon="-0.60613">
        <ele>17</ele>
        <time>2011-09-01T14:37:45Z</time>
      </trkpt>
      <trkpt lat="47.42403" lon="-0.6061">
        <ele>17</ele>
        <time>2011-09-01T14:37:46Z</time>
      </trkpt>
      <trkpt lat="47.42406" lon="-0.60607">
        <ele>17</ele>
        <time>2011-09-01T14:37:47Z</time>
      </trkpt>
      <trkpt lat="47.42409" lon="-0.60604">
        <ele>17</ele>
        <time>2011-09-01T14:37:48Z</time>
      </trkpt>
      <trkpt lat="47.42413" lon="-0.60601">
        <ele>17</ele>
        <time>2011-09-01T14:37:49Z</time>
      </trkpt>
      <trkpt lat="47.42416" lon="-0.60598">
        <ele>17</ele>
        <time>2011-09-01T14:37:50Z</time>
      </trkpt>
      <trkpt lat="47.42419" lon="-0.60595">
        <ele>17</ele>
        <time>2011-09-01T14:37:51Z</time>
      </trkpt>
      <trkpt lat="47.42421" lon="-0.60592">
        <ele>16</ele>
        <time>2011-09-01T14:37:52Z</time>
      </trkpt>
      <trkpt lat="47.42424" lon="-0.60589">
        <ele>15</ele>
        <time>2011-09-01T14:37:53Z</time>
      </trkpt>
      <trkpt lat="47.42426" lon="-0.60587">
        <ele>15</ele>
        <time>2011-09-01T14:37:54Z</time>
      </trkpt>
      <trkpt lat="47.42429" lon="-0.60584">
        <ele>15</ele>
        <time>2011-09-01T14:37:55Z</time>
      </trkpt>
      <trkpt lat="47.42431" lon="-0.60582">
        <ele>15</ele>
        <time>2011-09-01T14:37:56Z</time>
      </trkpt>
      <trkpt lat="47.42433" lon="-0.60579">
        <ele>15</ele>
        <time>2011-09-01T14:37:57Z</time>
      </trkpt>
      <trkpt lat="47.42435" lon="-0.60577">
        <ele>15</ele>
        <time>2011-09-01T14:37:58Z</time>
      </trkpt>
      <trkpt lat="47.42438" lon="-0.60574">
        <ele>15</ele>
        <time>2011-09-01T14:37:59Z</time>
      </trkpt>
      <trkpt lat="47.4244" lon="-0.60572">
        <ele>15</ele>
        <time>2011-09-01T14:38:00Z</time>
      </trkpt>
      <trkpt lat="47.42443" lon="-0.60569">
        <ele>15</ele>
        <time>2011-09-01T14:38:01Z</time>
      </trkpt>
      <trkpt lat="47.42446" lon="-0.60567">
        <ele>15</ele>
        <time>2011-09-01T14:38:02Z</time>
      </trkpt>
      <trkpt lat="47.42449" lon="-0.60566">
        <ele>15</ele>
        <time>2011-09-01T14:38:03Z</time>
      </trkpt>
      <trkpt lat="47.42452" lon="-0.60564">
        <ele>15</ele>
        <time>2011-09-01T14:38:04Z</time>
      </trkpt>
      <trkpt lat="47.42455" lon="-0.60563">
        <ele>15</ele>
        <time>2011-09-01T14:38:05Z</time>
      </trkpt>
      <trkpt lat="47.42458" lon="-0.60561">
        <ele>15</ele>
        <time>2011-09-01T14:38:06Z</time>
      </trkpt>
      <trkpt lat="47.42461" lon="-0.60559">
        <ele>15</ele>
        <time>2011-09-01T14:38:07Z</time>
      </trkpt>
      <trkpt lat="47.42464" lon="-0.60558">
        <ele>15</ele>
        <time>2011-09-01T14:38:08Z</time>
      </trkpt>
      <trkpt lat="47.42467" lon="-0.60557">
        <ele>15</ele>
        <time>2011-09-01T14:38:09Z</time>
      </trkpt>
      <trkpt lat="47.4247" lon="-0.60555">
        <ele>15</ele>
        <time>2011-09-01T14:38:10Z</time>
      </trkpt>
      <trkpt lat="47.42473" lon="-0.60554">
        <ele>15</ele>
        <time>2011-09-01T14:38:11Z</time>
      </trkpt>
      <trkpt lat="47.42476" lon="-0.60553">
        <ele>15</ele>
        <time>2011-09-01T14:38:12Z</time>
      </trkpt>
      <trkpt lat="47.42479" lon="-0.60552">
        <ele>15</ele>
        <time>2011-09-01T14:38:13Z</time>
      </trkpt>
      <trkpt lat="47.42482" lon="-0.6055">
        <ele>15</ele>
        <time>2011-09-01T14:38:14Z</time>
      </trkpt>
      <trkpt lat="47.42485" lon="-0.60549">
        <ele>15</ele>
        <time>2011-09-01T14:38:15Z</time>
      </trkpt>
      <trkpt lat="47.42487" lon="-0.60548">
        <ele>15</ele>
        <time>2011-09-01T14:38:16Z</time>
      </trkpt>
      <trkpt lat="47.4249" lon="-0.60546">
        <ele>15</ele>
        <time>2011-09-01T14:38:17Z</time>
      </trkpt>
      <trkpt lat="47.42493" lon="-0.60545">
        <ele>15</ele>
        <time>2011-09-01T14:38:18Z</time>
      </trkpt>
      <trkpt lat="47.42496" lon="-0.60544">
        <ele>15</ele>
        <time>2011-09-01T14:38:19Z</time>
      </trkpt>
      <trkpt lat="47.42499" lon="-0.60543">
        <ele>15</ele>
        <time>2011-09-01T14:38:20Z</time>
      </trkpt>
      <trkpt lat="47.42502" lon="-0.60541">
        <ele>15</ele>
        <time>2011-09-01T14:38:21Z</time>
      </trkpt>
      <trkpt lat="47.42506" lon="-0.6054">
        <ele>15</ele>
        <time>2011-09-01T14:38:22Z</time>
      </trkpt>
      <trkpt lat="47.42509" lon="-0.60538">
        <ele>15</ele>
        <time>2011-09-01T14:38:23Z</time>
      </trkpt>
      <trkpt lat="47.42512" lon="-0.60536">
        <ele>15</ele>
        <time>2011-09-01T14:38:24Z</time>
      </trkpt>
      <trkpt lat="47.42515" lon="-0.60535">
        <ele>15</ele>
        <time>2011-09-01T14:38:25Z</time>
      </trkpt>
      <trkpt lat="47.42518" lon="-0.60533">
        <ele>15</ele>
        <time>2011-09-01T14:38:26Z</time>
      </trkpt>
      <trkpt lat="47.42521" lon="-0.60532">
        <ele>15</ele>
        <time>2011-09-01T14:38:27Z</time>
      </trkpt>
      <trkpt lat="47.42524" lon="-0.6053">
        <ele>15</ele>
        <time>2011-09-01T14:38:28Z</time>
      </trkpt>
      <trkpt lat="47.42527" lon="-0.60528">
        <ele>15</ele>
        <time>2011-09-01T14:38:29Z</time>
      </trkpt>
      <trkpt lat="47.4253" lon="-0.60527">
        <ele>15</ele>
        <time>2011-09-01T14:38:30Z</time>
      </trkpt>
      <trkpt lat="47.42533" lon="-0.60524">
        <ele>15</ele>
        <time>2011-09-01T14:38:31Z</time>
      </trkpt>
      <trkpt lat="47.42536" lon="-0.60522">
        <ele>15</ele>
        <time>2011-09-01T14:38:32Z</time>
      </trkpt>
      <trkpt lat="47.42538" lon="-0.6052">
        <ele>15</ele>
        <time>2011-09-01T14:38:33Z</time>
      </trkpt>
      <trkpt lat="47.42541" lon="-0.60518">
        <ele>15</ele>
        <time>2011-09-01T14:38:34Z</time>
      </trkpt>
      <trkpt lat="47.42544" lon="-0.60517">
        <ele>15</ele>
        <time>2011-09-01T14:38:35Z</time>
      </trkpt>
      <trkpt lat="47.42546" lon="-0.60515">
        <ele>15</ele>
        <time>2011-09-01T14:38:36Z</time>
      </trkpt>
      <trkpt lat="47.42549" lon="-0.60513">
        <ele>15</ele>
        <time>2011-09-01T14:38:37Z</time>
      </trkpt>
      <trkpt lat="47.42551" lon="-0.60512">
        <ele>15</ele>
        <time>2011-09-01T14:38:38Z</time>
      </trkpt>
      <trkpt lat="47.42554" lon="-0.60512">
        <ele>15</ele>
        <time>2011-09-01T14:38:39Z</time>
      </trkpt>
      <trkpt lat="47.42556" lon="-0.60512">
        <ele>15</ele>
        <time>2011-09-01T14:38:40Z</time>
      </trkpt>
      <trkpt lat="47.42558" lon="-0.60512">
        <ele>15</ele>
        <time>2011-09-01T14:38:41Z</time>
      </trkpt>
      <trkpt lat="47.42561" lon="-0.60513">
        <ele>15</ele>
        <time>2011-09-01T14:38:42Z</time>
      </trkpt>
      <trkpt lat="47.42563" lon="-0.60512">
        <ele>15</ele>
        <time>2011-09-01T14:38:43Z</time>
      </trkpt>
      <trkpt lat="47.42565" lon="-0.60512">
        <ele>15</ele>
        <time>2011-09-01T14:38:44Z</time>
      </trkpt>
      <trkpt lat="47.42568" lon="-0.60512">
        <ele>15</ele>
        <time>2011-09-01T14:38:45Z</time>
      </trkpt>
      <trkpt lat="47.42571" lon="-0.60511">
        <ele>15</ele>
        <time>2011-09-01T14:38:46Z</time>
      </trkpt>
      <trkpt lat="47.42574" lon="-0.60509">
        <ele>15</ele>
        <time>2011-09-01T14:38:47Z</time>
      </trkpt>
      <trkpt lat="47.42576" lon="-0.60509">
        <ele>15</ele>
        <time>2011-09-01T14:38:48Z</time>
      </trkpt>
      <trkpt lat="47.42579" lon="-0.60509">
        <ele>15</ele>
        <time>2011-09-01T14:38:49Z</time>
      </trkpt>
      <trkpt lat="47.42582" lon="-0.60507">
        <ele>15</ele>
        <time>2011-09-01T14:38:50Z</time>
      </trkpt>
      <trkpt lat="47.42584" lon="-0.60505">
        <ele>15</ele>
        <time>2011-09-01T14:38:51Z</time>
      </trkpt>
      <trkpt lat="47.42585" lon="-0.60501">
        <ele>16</ele>
        <time>2011-09-01T14:38:52Z</time>
      </trkpt>
      <trkpt lat="47.42587" lon="-0.60498">
        <ele>16</ele>
        <time>2011-09-01T14:38:53Z</time>
      </trkpt>
      <trkpt lat="47.42588" lon="-0.60496">
        <ele>16</ele>
        <time>2011-09-01T14:38:54Z</time>
      </trkpt>
      <trkpt lat="47.4259" lon="-0.60494">
        <ele>16</ele>
        <time>2011-09-01T14:38:55Z</time>
      </trkpt>
      <trkpt lat="47.42591" lon="-0.60492">
        <ele>16</ele>
        <time>2011-09-01T14:38:56Z</time>
      </trkpt>
      <trkpt lat="47.42594" lon="-0.6049">
        <ele>16</ele>
        <time>2011-09-01T14:38:57Z</time>
      </trkpt>
      <trkpt lat="47.42596" lon="-0.60487">
        <ele>16</ele>
        <time>2011-09-01T14:38:58Z</time>
      </trkpt>
      <trkpt lat="47.426" lon="-0.60483">
        <ele>16</ele>
        <time>2011-09-01T14:38:59Z</time>
      </trkpt>
      <trkpt lat="47.42604" lon="-0.60481">
        <ele>16</ele>
        <time>2011-09-01T14:39:00Z</time>
      </trkpt>
      <trkpt lat="47.42608" lon="-0.6048">
        <ele>16</ele>
        <time>2011-09-01T14:39:01Z</time>
      </trkpt>
      <trkpt lat="47.42613" lon="-0.60478">
        <ele>16</ele>
        <time>2011-09-01T14:39:02Z</time>
      </trkpt>
      <trkpt lat="47.42617" lon="-0.60477">
        <ele>16</ele>
        <time>2011-09-01T14:39:03Z</time>
      </trkpt>
      <trkpt lat="47.42621" lon="-0.60475">
        <ele>16</ele>
        <time>2011-09-01T14:39:04Z</time>
      </trkpt>
      <trkpt lat="47.42625" lon="-0.60474">
        <ele>16</ele>
        <time>2011-09-01T14:39:05Z</time>
      </trkpt>
      <trkpt lat="47.42628" lon="-0.60472">
        <ele>16</ele>
        <time>2011-09-01T14:39:06Z</time>
      </trkpt>
      <trkpt lat="47.42632" lon="-0.60471">
        <ele>16</ele>
        <time>2011-09-01T14:39:07Z</time>
      </trkpt>
      <trkpt lat="47.42637" lon="-0.60469">
        <ele>16</ele>
        <time>2011-09-01T14:39:08Z</time>
      </trkpt>
      <trkpt lat="47.42642" lon="-0.60466">
        <ele>16</ele>
        <time>2011-09-01T14:39:09Z</time>
      </trkpt>
      <trkpt lat="47.42645" lon="-0.60463">
        <ele>16</ele>
        <time>2011-09-01T14:39:10Z</time>
      </trkpt>
      <trkpt lat="47.42647" lon="-0.60462">
        <ele>16</ele>
        <time>2011-09-01T14:39:11Z</time>
      </trkpt>
      <trkpt lat="47.4265" lon="-0.60461">
        <ele>16</ele>
        <time>2011-09-01T14:39:12Z</time>
      </trkpt>
      <trkpt lat="47.42652" lon="-0.60461">
        <ele>16</ele>
        <time>2011-09-01T14:39:13Z</time>
      </trkpt>
      <trkpt lat="47.42655" lon="-0.6046">
        <ele>16</ele>
        <time>2011-09-01T14:39:14Z</time>
      </trkpt>
      <trkpt lat="47.42658" lon="-0.6046">
        <ele>16</ele>
        <time>2011-09-01T14:39:15Z</time>
      </trkpt>
      <trkpt lat="47.42661" lon="-0.60461">
        <ele>16</ele>
        <time>2011-09-01T14:39:16Z</time>
      </trkpt>
      <trkpt lat="47.42664" lon="-0.60461">
        <ele>16</ele>
        <time>2011-09-01T14:39:17Z</time>
      </trkpt>
      <trkpt lat="47.42665" lon="-0.6046">
        <ele>16</ele>
        <time>2011-09-01T14:39:18Z</time>
      </trkpt>
      <trkpt lat="47.42667" lon="-0.6046">
        <ele>17</ele>
        <time>2011-09-01T14:39:19Z</time>
      </trkpt>
      <trkpt lat="47.42669" lon="-0.6046">
        <ele>17</ele>
        <time>2011-09-01T14:39:20Z</time>
      </trkpt>
      <trkpt lat="47.42673" lon="-0.60461">
        <ele>18</ele>
        <time>2011-09-01T14:39:21Z</time>
      </trkpt>
      <trkpt lat="47.42677" lon="-0.60462">
        <ele>18</ele>
        <time>2011-09-01T14:39:22Z</time>
      </trkpt>
      <trkpt lat="47.42682" lon="-0.60462">
        <ele>18</ele>
        <time>2011-09-01T14:39:23Z</time>
      </trkpt>
      <trkpt lat="47.42685" lon="-0.60463">
        <ele>18</ele>
        <time>2011-09-01T14:39:24Z</time>
      </trkpt>
      <trkpt lat="47.4269" lon="-0.60464">
        <ele>18</ele>
        <time>2011-09-01T14:39:25Z</time>
      </trkpt>
      <trkpt lat="47.42694" lon="-0.60464">
        <ele>18</ele>
        <time>2011-09-01T14:39:26Z</time>
      </trkpt>
      <trkpt lat="47.42699" lon="-0.60464">
        <ele>18</ele>
        <time>2011-09-01T14:39:27Z</time>
      </trkpt>
      <trkpt lat="47.42702" lon="-0.60465">
        <ele>18</ele>
        <time>2011-09-01T14:39:28Z</time>
      </trkpt>
      <trkpt lat="47.42705" lon="-0.60465">
        <ele>18</ele>
        <time>2011-09-01T14:39:29Z</time>
      </trkpt>
      <trkpt lat="47.42709" lon="-0.60465">
        <ele>18</ele>
        <time>2011-09-01T14:39:30Z</time>
      </trkpt>
      <trkpt lat="47.42712" lon="-0.60464">
        <ele>18</ele>
        <time>2011-09-01T14:39:31Z</time>
      </trkpt>
      <trkpt lat="47.42715" lon="-0.60463">
        <ele>18</ele>
        <time>2011-09-01T14:39:32Z</time>
      </trkpt>
      <trkpt lat="47.42718" lon="-0.60462">
        <ele>18</ele>
        <time>2011-09-01T14:39:33Z</time>
      </trkpt>
      <trkpt lat="47.42722" lon="-0.60462">
        <ele>18</ele>
        <time>2011-09-01T14:39:34Z</time>
      </trkpt>
      <trkpt lat="47.42726" lon="-0.60462">
        <ele>18</ele>
        <time>2011-09-01T14:39:35Z</time>
      </trkpt>
      <trkpt lat="47.4273" lon="-0.60462">
        <ele>18</ele>
        <time>2011-09-01T14:39:36Z</time>
      </trkpt>
      <trkpt lat="47.42733" lon="-0.60462">
        <ele>18</ele>
        <time>2011-09-01T14:39:37Z</time>
      </trkpt>
      <trkpt lat="47.42736" lon="-0.60462">
        <ele>18</ele>
        <time>2011-09-01T14:39:38Z</time>
      </trkpt>
      <trkpt lat="47.42739" lon="-0.60461">
        <ele>18</ele>
        <time>2011-09-01T14:39:39Z</time>
      </trkpt>
      <trkpt lat="47.42742" lon="-0.60461">
        <ele>18</ele>
        <time>2011-09-01T14:39:40Z</time>
      </trkpt>
      <trkpt lat="47.42746" lon="-0.60461">
        <ele>18</ele>
        <time>2011-09-01T14:39:41Z</time>
      </trkpt>
      <trkpt lat="47.42749" lon="-0.60461">
        <ele>18</ele>
        <time>2011-09-01T14:39:42Z</time>
      </trkpt>
      <trkpt lat="47.42752" lon="-0.60461">
        <ele>18</ele>
        <time>2011-09-01T14:39:43Z</time>
      </trkpt>
      <trkpt lat="47.42755" lon="-0.60461">
        <ele>17</ele>
        <time>2011-09-01T14:39:44Z</time>
      </trkpt>
      <trkpt lat="47.42758" lon="-0.60461">
        <ele>16</ele>
        <time>2011-09-01T14:39:45Z</time>
      </trkpt>
      <trkpt lat="47.42761" lon="-0.60461">
        <ele>16</ele>
        <time>2011-09-01T14:39:46Z</time>
      </trkpt>
      <trkpt lat="47.42764" lon="-0.60462">
        <ele>15</ele>
        <time>2011-09-01T14:39:47Z</time>
      </trkpt>
      <trkpt lat="47.42767" lon="-0.60462">
        <ele>15</ele>
        <time>2011-09-01T14:39:48Z</time>
      </trkpt>
      <trkpt lat="47.42769" lon="-0.60462">
        <ele>14</ele>
        <time>2011-09-01T14:39:49Z</time>
      </trkpt>
      <trkpt lat="47.42771" lon="-0.60462">
        <ele>14</ele>
        <time>2011-09-01T14:39:50Z</time>
      </trkpt>
      <trkpt lat="47.42773" lon="-0.60461">
        <ele>14</ele>
        <time>2011-09-01T14:39:51Z</time>
      </trkpt>
      <trkpt lat="47.42776" lon="-0.60461">
        <ele>14</ele>
        <time>2011-09-01T14:39:52Z</time>
      </trkpt>
      <trkpt lat="47.42778" lon="-0.60461">
        <ele>14</ele>
        <time>2011-09-01T14:39:53Z</time>
      </trkpt>
      <trkpt lat="47.42781" lon="-0.60462">
        <ele>14</ele>
        <time>2011-09-01T14:39:54Z</time>
      </trkpt>
      <trkpt lat="47.42784" lon="-0.60461">
        <ele>14</ele>
        <time>2011-09-01T14:39:55Z</time>
      </trkpt>
      <trkpt lat="47.42786" lon="-0.60461">
        <ele>14</ele>
        <time>2011-09-01T14:39:56Z</time>
      </trkpt>
      <trkpt lat="47.42789" lon="-0.60462">
        <ele>14</ele>
        <time>2011-09-01T14:39:57Z</time>
      </trkpt>
      <trkpt lat="47.42794" lon="-0.60463">
        <ele>14</ele>
        <time>2011-09-01T14:39:58Z</time>
      </trkpt>
      <trkpt lat="47.42798" lon="-0.60465">
        <ele>14</ele>
        <time>2011-09-01T14:39:59Z</time>
      </trkpt>
      <trkpt lat="47.42802" lon="-0.60466">
        <ele>14</ele>
        <time>2011-09-01T14:40:00Z</time>
      </trkpt>
      <trkpt lat="47.42806" lon="-0.60468">
        <ele>14</ele>
        <time>2011-09-01T14:40:01Z</time>
      </trkpt>
      <trkpt lat="47.4281" lon="-0.6047">
        <ele>14</ele>
        <time>2011-09-01T14:40:02Z</time>
      </trkpt>
      <trkpt lat="47.42813" lon="-0.60471">
        <ele>14</ele>
        <time>2011-09-01T14:40:03Z</time>
      </trkpt>
      <trkpt lat="47.42816" lon="-0.60473">
        <ele>14</ele>
        <time>2011-09-01T14:40:04Z</time>
      </trkpt>
      <trkpt lat="47.42818" lon="-0.60474">
        <ele>14</ele>
        <time>2011-09-01T14:40:05Z</time>
      </trkpt>
      <trkpt lat="47.42821" lon="-0.60475">
        <ele>14</ele>
        <time>2011-09-01T14:40:06Z</time>
      </trkpt>
      <trkpt lat="47.42824" lon="-0.60476">
        <ele>14</ele>
        <time>2011-09-01T14:40:07Z</time>
      </trkpt>
      <trkpt lat="47.42828" lon="-0.60477">
        <ele>14</ele>
        <time>2011-09-01T14:40:08Z</time>
      </trkpt>
      <trkpt lat="47.42831" lon="-0.60477">
        <ele>14</ele>
        <time>2011-09-01T14:40:09Z</time>
      </trkpt>
      <trkpt lat="47.42833" lon="-0.60478">
        <ele>14</ele>
        <time>2011-09-01T14:40:10Z</time>
      </trkpt>
      <trkpt lat="47.42835" lon="-0.60479">
        <ele>14</ele>
        <time>2011-09-01T14:40:11Z</time>
      </trkpt>
      <trkpt lat="47.42837" lon="-0.60481">
        <ele>14</ele>
        <time>2011-09-01T14:40:12Z</time>
      </trkpt>
      <trkpt lat="47.42839" lon="-0.60481">
        <ele>14</ele>
        <time>2011-09-01T14:40:13Z</time>
      </trkpt>
      <trkpt lat="47.42842" lon="-0.60481">
        <ele>14</ele>
        <time>2011-09-01T14:40:14Z</time>
      </trkpt>
      <trkpt lat="47.42846" lon="-0.60482">
        <ele>14</ele>
        <time>2011-09-01T14:40:15Z</time>
      </trkpt>
      <trkpt lat="47.42849" lon="-0.60482">
        <ele>15</ele>
        <time>2011-09-01T14:40:16Z</time>
      </trkpt>
      <trkpt lat="47.42852" lon="-0.60482">
        <ele>16</ele>
        <time>2011-09-01T14:40:17Z</time>
      </trkpt>
      <trkpt lat="47.42855" lon="-0.60483">
        <ele>16</ele>
        <time>2011-09-01T14:40:18Z</time>
      </trkpt>
      <trkpt lat="47.42859" lon="-0.60483">
        <ele>17</ele>
        <time>2011-09-01T14:40:19Z</time>
      </trkpt>
      <trkpt lat="47.42862" lon="-0.60484">
        <ele>18</ele>
        <time>2011-09-01T14:40:20Z</time>
      </trkpt>
      <trkpt lat="47.42866" lon="-0.60486">
        <ele>18</ele>
        <time>2011-09-01T14:40:21Z</time>
      </trkpt>
      <trkpt lat="47.4287" lon="-0.60487">
        <ele>18</ele>
        <time>2011-09-01T14:40:22Z</time>
      </trkpt>
      <trkpt lat="47.42874" lon="-0.60489">
        <ele>18</ele>
        <time>2011-09-01T14:40:23Z</time>
      </trkpt>
      <trkpt lat="47.42877" lon="-0.6049">
        <ele>18</ele>
        <time>2011-09-01T14:40:24Z</time>
      </trkpt>
      <trkpt lat="47.4288" lon="-0.60491">
        <ele>18</ele>
        <time>2011-09-01T14:40:25Z</time>
      </trkpt>
      <trkpt lat="47.42882" lon="-0.60492">
        <ele>18</ele>
        <time>2011-09-01T14:40:26Z</time>
      </trkpt>
      <trkpt lat="47.42884" lon="-0.60492">
        <ele>19</ele>
        <time>2011-09-01T14:40:27Z</time>
      </trkpt>
      <trkpt lat="47.42887" lon="-0.60494">
        <ele>19</ele>
        <time>2011-09-01T14:40:28Z</time>
      </trkpt>
      <trkpt lat="47.4289" lon="-0.60495">
        <ele>19</ele>
        <time>2011-09-01T14:40:29Z</time>
      </trkpt>
      <trkpt lat="47.42893" lon="-0.60495">
        <ele>19</ele>
        <time>2011-09-01T14:40:30Z</time>
      </trkpt>
      <trkpt lat="47.42895" lon="-0.60497">
        <ele>19</ele>
        <time>2011-09-01T14:40:31Z</time>
      </trkpt>
      <trkpt lat="47.42898" lon="-0.60498">
        <ele>19</ele>
        <time>2011-09-01T14:40:32Z</time>
      </trkpt>
      <trkpt lat="47.429" lon="-0.60498">
        <ele>19</ele>
        <time>2011-09-01T14:40:33Z</time>
      </trkpt>
      <trkpt lat="47.42903" lon="-0.60499">
        <ele>19</ele>
        <time>2011-09-01T14:40:34Z</time>
      </trkpt>
      <trkpt lat="47.42906" lon="-0.605">
        <ele>19</ele>
        <time>2011-09-01T14:40:35Z</time>
      </trkpt>
      <trkpt lat="47.42909" lon="-0.605">
        <ele>19</ele>
        <time>2011-09-01T14:40:36Z</time>
      </trkpt>
      <trkpt lat="47.42912" lon="-0.60501">
        <ele>19</ele>
        <time>2011-09-01T14:40:37Z</time>
      </trkpt>
      <trkpt lat="47.42915" lon="-0.60502">
        <ele>19</ele>
        <time>2011-09-01T14:40:38Z</time>
      </trkpt>
      <trkpt lat="47.42919" lon="-0.60502">
        <ele>19</ele>
        <time>2011-09-01T14:40:39Z</time>
      </trkpt>
      <trkpt lat="47.42921" lon="-0.60502">
        <ele>19</ele>
        <time>2011-09-01T14:40:40Z</time>
      </trkpt>
      <trkpt lat="47.42924" lon="-0.60503">
        <ele>20</ele>
        <time>2011-09-01T14:40:41Z</time>
      </trkpt>
      <trkpt lat="47.42927" lon="-0.60504">
        <ele>20</ele>
        <time>2011-09-01T14:40:42Z</time>
      </trkpt>
      <trkpt lat="47.4293" lon="-0.60505">
        <ele>20</ele>
        <time>2011-09-01T14:40:43Z</time>
      </trkpt>
      <trkpt lat="47.42933" lon="-0.60507">
        <ele>20</ele>
        <time>2011-09-01T14:40:44Z</time>
      </trkpt>
      <trkpt lat="47.42936" lon="-0.60508">
        <ele>20</ele>
        <time>2011-09-01T14:40:45Z</time>
      </trkpt>
      <trkpt lat="47.42939" lon="-0.60509">
        <ele>20</ele>
        <time>2011-09-01T14:40:46Z</time>
      </trkpt>
      <trkpt lat="47.42943" lon="-0.6051">
        <ele>20</ele>
        <time>2011-09-01T14:40:47Z</time>
      </trkpt>
      <trkpt lat="47.42946" lon="-0.60511">
        <ele>20</ele>
        <time>2011-09-01T14:40:48Z</time>
      </trkpt>
      <trkpt lat="47.42949" lon="-0.60513">
        <ele>20</ele>
        <time>2011-09-01T14:40:49Z</time>
      </trkpt>
      <trkpt lat="47.42952" lon="-0.60514">
        <ele>20</ele>
        <time>2011-09-01T14:40:50Z</time>
      </trkpt>
      <trkpt lat="47.42955" lon="-0.60515">
        <ele>20</ele>
        <time>2011-09-01T14:40:51Z</time>
      </trkpt>
      <trkpt lat="47.42957" lon="-0.60515">
        <ele>20</ele>
        <time>2011-09-01T14:40:52Z</time>
      </trkpt>
      <trkpt lat="47.42959" lon="-0.60514">
        <ele>20</ele>
        <time>2011-09-01T14:40:53Z</time>
      </trkpt>
      <trkpt lat="47.42962" lon="-0.60514">
        <ele>20</ele>
        <time>2011-09-01T14:40:54Z</time>
      </trkpt>
      <trkpt lat="47.42965" lon="-0.60514">
        <ele>20</ele>
        <time>2011-09-01T14:40:55Z</time>
      </trkpt>
      <trkpt lat="47.42968" lon="-0.60514">
        <ele>21</ele>
        <time>2011-09-01T14:40:56Z</time>
      </trkpt>
      <trkpt lat="47.42971" lon="-0.60514">
        <ele>21</ele>
        <time>2011-09-01T14:40:57Z</time>
      </trkpt>
      <trkpt lat="47.42975" lon="-0.60514">
        <ele>22</ele>
        <time>2011-09-01T14:40:58Z</time>
      </trkpt>
      <trkpt lat="47.42979" lon="-0.60514">
        <ele>22</ele>
        <time>2011-09-01T14:40:59Z</time>
      </trkpt>
      <trkpt lat="47.42982" lon="-0.60512">
        <ele>23</ele>
        <time>2011-09-01T14:41:00Z</time>
      </trkpt>
      <trkpt lat="47.42986" lon="-0.60512">
        <ele>23</ele>
        <time>2011-09-01T14:41:01Z</time>
      </trkpt>
      <trkpt lat="47.42989" lon="-0.60511">
        <ele>23</ele>
        <time>2011-09-01T14:41:02Z</time>
      </trkpt>
      <trkpt lat="47.42992" lon="-0.60511">
        <ele>24</ele>
        <time>2011-09-01T14:41:03Z</time>
      </trkpt>
      <trkpt lat="47.42995" lon="-0.60512">
        <ele>24</ele>
        <time>2011-09-01T14:41:04Z</time>
      </trkpt>
      <trkpt lat="47.42998" lon="-0.60512">
        <ele>24</ele>
        <time>2011-09-01T14:41:05Z</time>
      </trkpt>
      <trkpt lat="47.43001" lon="-0.60512">
        <ele>24</ele>
        <time>2011-09-01T14:41:06Z</time>
      </trkpt>
      <trkpt lat="47.43004" lon="-0.60511">
        <ele>24</ele>
        <time>2011-09-01T14:41:07Z</time>
      </trkpt>
      <trkpt lat="47.43008" lon="-0.60511">
        <ele>24</ele>
        <time>2011-09-01T14:41:08Z</time>
      </trkpt>
      <trkpt lat="47.43011" lon="-0.60511">
        <ele>24</ele>
        <time>2011-09-01T14:41:09Z</time>
      </trkpt>
      <trkpt lat="47.43015" lon="-0.60511">
        <ele>24</ele>
        <time>2011-09-01T14:41:10Z</time>
      </trkpt>
      <trkpt lat="47.43018" lon="-0.60511">
        <ele>24</ele>
        <time>2011-09-01T14:41:11Z</time>
      </trkpt>
      <trkpt lat="47.43021" lon="-0.60511">
        <ele>24</ele>
        <time>2011-09-01T14:41:12Z</time>
      </trkpt>
      <trkpt lat="47.43024" lon="-0.60512">
        <ele>24</ele>
        <time>2011-09-01T14:41:13Z</time>
      </trkpt>
      <trkpt lat="47.43027" lon="-0.60513">
        <ele>24</ele>
        <time>2011-09-01T14:41:14Z</time>
      </trkpt>
      <trkpt lat="47.43031" lon="-0.60513">
        <ele>24</ele>
        <time>2011-09-01T14:41:15Z</time>
      </trkpt>
      <trkpt lat="47.43034" lon="-0.60512">
        <ele>24</ele>
        <time>2011-09-01T14:41:16Z</time>
      </trkpt>
      <trkpt lat="47.43038" lon="-0.60511">
        <ele>24</ele>
        <time>2011-09-01T14:41:17Z</time>
      </trkpt>
      <trkpt lat="47.43042" lon="-0.6051">
        <ele>24</ele>
        <time>2011-09-01T14:41:18Z</time>
      </trkpt>
      <trkpt lat="47.43045" lon="-0.6051">
        <ele>24</ele>
        <time>2011-09-01T14:41:19Z</time>
      </trkpt>
      <trkpt lat="47.43048" lon="-0.6051">
        <ele>24</ele>
        <time>2011-09-01T14:41:20Z</time>
      </trkpt>
      <trkpt lat="47.43052" lon="-0.60509">
        <ele>24</ele>
        <time>2011-09-01T14:41:21Z</time>
      </trkpt>
      <trkpt lat="47.43055" lon="-0.60508">
        <ele>24</ele>
        <time>2011-09-01T14:41:22Z</time>
      </trkpt>
      <trkpt lat="47.43058" lon="-0.60508">
        <ele>24</ele>
        <time>2011-09-01T14:41:23Z</time>
      </trkpt>
      <trkpt lat="47.4306" lon="-0.60508">
        <ele>24</ele>
        <time>2011-09-01T14:41:24Z</time>
      </trkpt>
      <trkpt lat="47.43062" lon="-0.60507">
        <ele>24</ele>
        <time>2011-09-01T14:41:25Z</time>
      </trkpt>
      <trkpt lat="47.43065" lon="-0.60506">
        <ele>25</ele>
        <time>2011-09-01T14:41:26Z</time>
      </trkpt>
      <trkpt lat="47.43067" lon="-0.60505">
        <ele>25</ele>
        <time>2011-09-01T14:41:27Z</time>
      </trkpt>
      <trkpt lat="47.4307" lon="-0.60503">
        <ele>26</ele>
        <time>2011-09-01T14:41:28Z</time>
      </trkpt>
      <trkpt lat="47.43073" lon="-0.60502">
        <ele>27</ele>
        <time>2011-09-01T14:41:29Z</time>
      </trkpt>
      <trkpt lat="47.43075" lon="-0.60501">
        <ele>28</ele>
        <time>2011-09-01T14:41:30Z</time>
      </trkpt>
      <trkpt lat="47.4308" lon="-0.605">
        <ele>28</ele>
        <time>2011-09-01T14:41:31Z</time>
      </trkpt>
      <trkpt lat="47.43084" lon="-0.60501">
        <ele>28</ele>
        <time>2011-09-01T14:41:32Z</time>
      </trkpt>
      <trkpt lat="47.43087" lon="-0.60501">
        <ele>28</ele>
        <time>2011-09-01T14:41:33Z</time>
      </trkpt>
      <trkpt lat="47.4309" lon="-0.605">
        <ele>28</ele>
        <time>2011-09-01T14:41:34Z</time>
      </trkpt>
      <trkpt lat="47.43093" lon="-0.605">
        <ele>28</ele>
        <time>2011-09-01T14:41:35Z</time>
      </trkpt>
      <trkpt lat="47.43095" lon="-0.605">
        <ele>28</ele>
        <time>2011-09-01T14:41:36Z</time>
      </trkpt>
      <trkpt lat="47.43098" lon="-0.60501">
        <ele>28</ele>
        <time>2011-09-01T14:41:37Z</time>
      </trkpt>
      <trkpt lat="47.431" lon="-0.60501">
        <ele>28</ele>
        <time>2011-09-01T14:41:38Z</time>
      </trkpt>
      <trkpt lat="47.43103" lon="-0.60501">
        <ele>28</ele>
        <time>2011-09-01T14:41:39Z</time>
      </trkpt>
      <trkpt lat="47.43105" lon="-0.60501">
        <ele>28</ele>
        <time>2011-09-01T14:41:40Z</time>
      </trkpt>
      <trkpt lat="47.43108" lon="-0.605">
        <ele>28</ele>
        <time>2011-09-01T14:41:41Z</time>
      </trkpt>
      <trkpt lat="47.43111" lon="-0.60498">
        <ele>28</ele>
        <time>2011-09-01T14:41:42Z</time>
      </trkpt>
      <trkpt lat="47.43115" lon="-0.60498">
        <ele>28</ele>
        <time>2011-09-01T14:41:43Z</time>
      </trkpt>
      <trkpt lat="47.43118" lon="-0.60496">
        <ele>28</ele>
        <time>2011-09-01T14:41:44Z</time>
      </trkpt>
      <trkpt lat="47.43121" lon="-0.60496">
        <ele>28</ele>
        <time>2011-09-01T14:41:45Z</time>
      </trkpt>
      <trkpt lat="47.43125" lon="-0.60494">
        <ele>28</ele>
        <time>2011-09-01T14:41:46Z</time>
      </trkpt>
      <trkpt lat="47.43128" lon="-0.60493">
        <ele>28</ele>
        <time>2011-09-01T14:41:47Z</time>
      </trkpt>
      <trkpt lat="47.43132" lon="-0.60493">
        <ele>28</ele>
        <time>2011-09-01T14:41:48Z</time>
      </trkpt>
      <trkpt lat="47.43135" lon="-0.60493">
        <ele>28</ele>
        <time>2011-09-01T14:41:49Z</time>
      </trkpt>
      <trkpt lat="47.43139" lon="-0.60494">
        <ele>28</ele>
        <time>2011-09-01T14:41:50Z</time>
      </trkpt>
      <trkpt lat="47.43142" lon="-0.60493">
        <ele>27</ele>
        <time>2011-09-01T14:41:51Z</time>
      </trkpt>
      <trkpt lat="47.43146" lon="-0.60493">
        <ele>26</ele>
        <time>2011-09-01T14:41:52Z</time>
      </trkpt>
      <trkpt lat="47.4315" lon="-0.60493">
        <ele>25</ele>
        <time>2011-09-01T14:41:53Z</time>
      </trkpt>
      <trkpt lat="47.43153" lon="-0.60492">
        <ele>24</ele>
        <time>2011-09-01T14:41:54Z</time>
      </trkpt>
      <trkpt lat="47.43156" lon="-0.60492">
        <ele>23</ele>
        <time>2011-09-01T14:41:55Z</time>
      </trkpt>
      <trkpt lat="47.43159" lon="-0.60492">
        <ele>22</ele>
        <time>2011-09-01T14:41:56Z</time>
      </trkpt>
      <trkpt lat="47.43162" lon="-0.60492">
        <ele>21</ele>
        <time>2011-09-01T14:41:57Z</time>
      </trkpt>
      <trkpt lat="47.43165" lon="-0.60492">
        <ele>20</ele>
        <time>2011-09-01T14:41:58Z</time>
      </trkpt>
      <trkpt lat="47.43167" lon="-0.60492">
        <ele>19</ele>
        <time>2011-09-01T14:41:59Z</time>
      </trkpt>
      <trkpt lat="47.43171" lon="-0.60491">
        <ele>18</ele>
        <time>2011-09-01T14:42:00Z</time>
      </trkpt>
      <trkpt lat="47.43174" lon="-0.60491">
        <ele>18</ele>
        <time>2011-09-01T14:42:01Z</time>
      </trkpt>
      <trkpt lat="47.43176" lon="-0.60491">
        <ele>18</ele>
        <time>2011-09-01T14:42:02Z</time>
      </trkpt>
      <trkpt lat="47.43179" lon="-0.6049">
        <ele>18</ele>
        <time>2011-09-01T14:42:03Z</time>
      </trkpt>
      <trkpt lat="47.43182" lon="-0.60489">
        <ele>18</ele>
        <time>2011-09-01T14:42:04Z</time>
      </trkpt>
      <trkpt lat="47.43185" lon="-0.60489">
        <ele>18</ele>
        <time>2011-09-01T14:42:05Z</time>
      </trkpt>
      <trkpt lat="47.43187" lon="-0.60489">
        <ele>18</ele>
        <time>2011-09-01T14:42:06Z</time>
      </trkpt>
      <trkpt lat="47.4319" lon="-0.60489">
        <ele>18</ele>
        <time>2011-09-01T14:42:07Z</time>
      </trkpt>
      <trkpt lat="47.43193" lon="-0.6049">
        <ele>18</ele>
        <time>2011-09-01T14:42:08Z</time>
      </trkpt>
      <trkpt lat="47.43195" lon="-0.60491">
        <ele>18</ele>
        <time>2011-09-01T14:42:09Z</time>
      </trkpt>
      <trkpt lat="47.43197" lon="-0.60492">
        <ele>18</ele>
        <time>2011-09-01T14:42:10Z</time>
      </trkpt>
      <trkpt lat="47.432" lon="-0.60492">
        <ele>18</ele>
        <time>2011-09-01T14:42:11Z</time>
      </trkpt>
      <trkpt lat="47.43203" lon="-0.60492">
        <ele>18</ele>
        <time>2011-09-01T14:42:12Z</time>
      </trkpt>
      <trkpt lat="47.43206" lon="-0.60493">
        <ele>18</ele>
        <time>2011-09-01T14:42:13Z</time>
      </trkpt>
      <trkpt lat="47.43209" lon="-0.60494">
        <ele>18</ele>
        <time>2011-09-01T14:42:14Z</time>
      </trkpt>
      <trkpt lat="47.43211" lon="-0.60495">
        <ele>18</ele>
        <time>2011-09-01T14:42:15Z</time>
      </trkpt>
      <trkpt lat="47.43213" lon="-0.60495">
        <ele>18</ele>
        <time>2011-09-01T14:42:16Z</time>
      </trkpt>
      <trkpt lat="47.43216" lon="-0.60496">
        <ele>18</ele>
        <time>2011-09-01T14:42:17Z</time>
      </trkpt>
      <trkpt lat="47.43219" lon="-0.60497">
        <ele>18</ele>
        <time>2011-09-01T14:42:18Z</time>
      </trkpt>
      <trkpt lat="47.43222" lon="-0.60497">
        <ele>18</ele>
        <time>2011-09-01T14:42:19Z</time>
      </trkpt>
      <trkpt lat="47.43224" lon="-0.60498">
        <ele>18</ele>
        <time>2011-09-01T14:42:20Z</time>
      </trkpt>
      <trkpt lat="47.43228" lon="-0.60499">
        <ele>18</ele>
        <time>2011-09-01T14:42:21Z</time>
      </trkpt>
      <trkpt lat="47.43231" lon="-0.605">
        <ele>18</ele>
        <time>2011-09-01T14:42:22Z</time>
      </trkpt>
      <trkpt lat="47.43234" lon="-0.605">
        <ele>18</ele>
        <time>2011-09-01T14:42:23Z</time>
      </trkpt>
      <trkpt lat="47.43237" lon="-0.60501">
        <ele>17</ele>
        <time>2011-09-01T14:42:24Z</time>
      </trkpt>
      <trkpt lat="47.4324" lon="-0.60503">
        <ele>16</ele>
        <time>2011-09-01T14:42:25Z</time>
      </trkpt>
      <trkpt lat="47.43243" lon="-0.60504">
        <ele>16</ele>
        <time>2011-09-01T14:42:26Z</time>
      </trkpt>
      <trkpt lat="47.43245" lon="-0.60504">
        <ele>16</ele>
        <time>2011-09-01T14:42:27Z</time>
      </trkpt>
      <trkpt lat="47.43248" lon="-0.60505">
        <ele>16</ele>
        <time>2011-09-01T14:42:28Z</time>
      </trkpt>
      <trkpt lat="47.4325" lon="-0.60505">
        <ele>16</ele>
        <time>2011-09-01T14:42:29Z</time>
      </trkpt>
      <trkpt lat="47.43252" lon="-0.60505">
        <ele>16</ele>
        <time>2011-09-01T14:42:30Z</time>
      </trkpt>
      <trkpt lat="47.43255" lon="-0.60506">
        <ele>16</ele>
        <time>2011-09-01T14:42:31Z</time>
      </trkpt>
      <trkpt lat="47.43258" lon="-0.60507">
        <ele>16</ele>
        <time>2011-09-01T14:42:32Z</time>
      </trkpt>
      <trkpt lat="47.4326" lon="-0.60508">
        <ele>16</ele>
        <time>2011-09-01T14:42:33Z</time>
      </trkpt>
      <trkpt lat="47.43263" lon="-0.60509">
        <ele>16</ele>
        <time>2011-09-01T14:42:34Z</time>
      </trkpt>
      <trkpt lat="47.43266" lon="-0.60511">
        <ele>16</ele>
        <time>2011-09-01T14:42:35Z</time>
      </trkpt>
      <trkpt lat="47.4327" lon="-0.60513">
        <ele>16</ele>
        <time>2011-09-01T14:42:36Z</time>
      </trkpt>
      <trkpt lat="47.43274" lon="-0.60514">
        <ele>16</ele>
        <time>2011-09-01T14:42:37Z</time>
      </trkpt>
      <trkpt lat="47.43277" lon="-0.60514">
        <ele>16</ele>
        <time>2011-09-01T14:42:38Z</time>
      </trkpt>
      <trkpt lat="47.4328" lon="-0.60514">
        <ele>16</ele>
        <time>2011-09-01T14:42:39Z</time>
      </trkpt>
      <trkpt lat="47.43282" lon="-0.60513">
        <ele>16</ele>
        <time>2011-09-01T14:42:40Z</time>
      </trkpt>
      <trkpt lat="47.43284" lon="-0.60514">
        <ele>16</ele>
        <time>2011-09-01T14:42:41Z</time>
      </trkpt>
      <trkpt lat="47.43288" lon="-0.60513">
        <ele>16</ele>
        <time>2011-09-01T14:42:42Z</time>
      </trkpt>
      <trkpt lat="47.43292" lon="-0.60511">
        <ele>17</ele>
        <time>2011-09-01T14:42:43Z</time>
      </trkpt>
      <trkpt lat="47.43295" lon="-0.60511">
        <ele>18</ele>
        <time>2011-09-01T14:42:44Z</time>
      </trkpt>
      <trkpt lat="47.43298" lon="-0.6051">
        <ele>18</ele>
        <time>2011-09-01T14:42:45Z</time>
      </trkpt>
      <trkpt lat="47.43301" lon="-0.6051">
        <ele>19</ele>
        <time>2011-09-01T14:42:46Z</time>
      </trkpt>
      <trkpt lat="47.43304" lon="-0.6051">
        <ele>19</ele>
        <time>2011-09-01T14:42:47Z</time>
      </trkpt>
      <trkpt lat="47.43306" lon="-0.6051">
        <ele>19</ele>
        <time>2011-09-01T14:42:48Z</time>
      </trkpt>
      <trkpt lat="47.4331" lon="-0.6051">
        <ele>19</ele>
        <time>2011-09-01T14:42:49Z</time>
      </trkpt>
      <trkpt lat="47.43312" lon="-0.60511">
        <ele>19</ele>
        <time>2011-09-01T14:42:50Z</time>
      </trkpt>
      <trkpt lat="47.43316" lon="-0.60512">
        <ele>19</ele>
        <time>2011-09-01T14:42:51Z</time>
      </trkpt>
      <trkpt lat="47.43318" lon="-0.60513">
        <ele>19</ele>
        <time>2011-09-01T14:42:52Z</time>
      </trkpt>
      <trkpt lat="47.43322" lon="-0.60513">
        <ele>19</ele>
        <time>2011-09-01T14:42:53Z</time>
      </trkpt>
      <trkpt lat="47.43326" lon="-0.60513">
        <ele>19</ele>
        <time>2011-09-01T14:42:54Z</time>
      </trkpt>
      <trkpt lat="47.4333" lon="-0.60513">
        <ele>19</ele>
        <time>2011-09-01T14:42:55Z</time>
      </trkpt>
      <trkpt lat="47.43334" lon="-0.60512">
        <ele>19</ele>
        <time>2011-09-01T14:42:56Z</time>
      </trkpt>
      <trkpt lat="47.43338" lon="-0.60511">
        <ele>19</ele>
        <time>2011-09-01T14:42:57Z</time>
      </trkpt>
      <trkpt lat="47.43343" lon="-0.60511">
        <ele>19</ele>
        <time>2011-09-01T14:42:58Z</time>
      </trkpt>
      <trkpt lat="47.43346" lon="-0.60511">
        <ele>19</ele>
        <time>2011-09-01T14:42:59Z</time>
      </trkpt>
      <trkpt lat="47.43348" lon="-0.6051">
        <ele>19</ele>
        <time>2011-09-01T14:43:00Z</time>
      </trkpt>
      <trkpt lat="47.43352" lon="-0.6051">
        <ele>19</ele>
        <time>2011-09-01T14:43:01Z</time>
      </trkpt>
      <trkpt lat="47.43355" lon="-0.60509">
        <ele>19</ele>
        <time>2011-09-01T14:43:02Z</time>
      </trkpt>
      <trkpt lat="47.43357" lon="-0.6051">
        <ele>19</ele>
        <time>2011-09-01T14:43:03Z</time>
      </trkpt>
      <trkpt lat="47.43361" lon="-0.6051">
        <ele>19</ele>
        <time>2011-09-01T14:43:04Z</time>
      </trkpt>
      <trkpt lat="47.43364" lon="-0.6051">
        <ele>19</ele>
        <time>2011-09-01T14:43:05Z</time>
      </trkpt>
      <trkpt lat="47.43366" lon="-0.6051">
        <ele>19</ele>
        <time>2011-09-01T14:43:06Z</time>
      </trkpt>
      <trkpt lat="47.4337" lon="-0.6051">
        <ele>19</ele>
        <time>2011-09-01T14:43:07Z</time>
      </trkpt>
      <trkpt lat="47.43373" lon="-0.6051">
        <ele>19</ele>
        <time>2011-09-01T14:43:08Z</time>
      </trkpt>
      <trkpt lat="47.43375" lon="-0.60511">
        <ele>19</ele>
        <time>2011-09-01T14:43:09Z</time>
      </trkpt>
      <trkpt lat="47.43378" lon="-0.60512">
        <ele>19</ele>
        <time>2011-09-01T14:43:10Z</time>
      </trkpt>
      <trkpt lat="47.43381" lon="-0.60513">
        <ele>19</ele>
        <time>2011-09-01T14:43:11Z</time>
      </trkpt>
      <trkpt lat="47.43384" lon="-0.60514">
        <ele>19</ele>
        <time>2011-09-01T14:43:12Z</time>
      </trkpt>
      <trkpt lat="47.43387" lon="-0.60515">
        <ele>19</ele>
        <time>2011-09-01T14:43:13Z</time>
      </trkpt>
      <trkpt lat="47.43389" lon="-0.60516">
        <ele>19</ele>
        <time>2011-09-01T14:43:14Z</time>
      </trkpt>
      <trkpt lat="47.43391" lon="-0.60518">
        <ele>19</ele>
        <time>2011-09-01T14:43:15Z</time>
      </trkpt>
      <trkpt lat="47.43393" lon="-0.60518">
        <ele>19</ele>
        <time>2011-09-01T14:43:16Z</time>
      </trkpt>
      <trkpt lat="47.43395" lon="-0.60518">
        <ele>18</ele>
        <time>2011-09-01T14:43:17Z</time>
      </trkpt>
      <trkpt lat="47.43398" lon="-0.60518">
        <ele>18</ele>
        <time>2011-09-01T14:43:18Z</time>
      </trkpt>
      <trkpt lat="47.43401" lon="-0.60518">
        <ele>18</ele>
        <time>2011-09-01T14:43:19Z</time>
      </trkpt>
      <trkpt lat="47.43404" lon="-0.60518">
        <ele>17</ele>
        <time>2011-09-01T14:43:20Z</time>
      </trkpt>
      <trkpt lat="47.43406" lon="-0.60517">
        <ele>17</ele>
        <time>2011-09-01T14:43:21Z</time>
      </trkpt>
      <trkpt lat="47.43409" lon="-0.60517">
        <ele>17</ele>
        <time>2011-09-01T14:43:22Z</time>
      </trkpt>
      <trkpt lat="47.43412" lon="-0.60517">
        <ele>17</ele>
        <time>2011-09-01T14:43:23Z</time>
      </trkpt>
      <trkpt lat="47.43415" lon="-0.60515">
        <ele>17</ele>
        <time>2011-09-01T14:43:24Z</time>
      </trkpt>
      <trkpt lat="47.43418" lon="-0.60515">
        <ele>17</ele>
        <time>2011-09-01T14:43:25Z</time>
      </trkpt>
      <trkpt lat="47.4342" lon="-0.60514">
        <ele>17</ele>
        <time>2011-09-01T14:43:26Z</time>
      </trkpt>
      <trkpt lat="47.43423" lon="-0.60512">
        <ele>17</ele>
        <time>2011-09-01T14:43:27Z</time>
      </trkpt>
      <trkpt lat="47.43427" lon="-0.60509">
        <ele>17</ele>
        <time>2011-09-01T14:43:28Z</time>
      </trkpt>
      <trkpt lat="47.4343" lon="-0.60506">
        <ele>17</ele>
        <time>2011-09-01T14:43:29Z</time>
      </trkpt>
      <trkpt lat="47.43433" lon="-0.60504">
        <ele>17</ele>
        <time>2011-09-01T14:43:30Z</time>
      </trkpt>
      <trkpt lat="47.43437" lon="-0.60503">
        <ele>17</ele>
        <time>2011-09-01T14:43:31Z</time>
      </trkpt>
      <trkpt lat="47.4344" lon="-0.60501">
        <ele>17</ele>
        <time>2011-09-01T14:43:32Z</time>
      </trkpt>
      <trkpt lat="47.43443" lon="-0.605">
        <ele>17</ele>
        <time>2011-09-01T14:43:33Z</time>
      </trkpt>
      <trkpt lat="47.43447" lon="-0.60496">
        <ele>17</ele>
        <time>2011-09-01T14:43:34Z</time>
      </trkpt>
      <trkpt lat="47.43451" lon="-0.60494">
        <ele>16</ele>
        <time>2011-09-01T14:43:35Z</time>
      </trkpt>
      <trkpt lat="47.43454" lon="-0.60493">
        <ele>16</ele>
        <time>2011-09-01T14:43:36Z</time>
      </trkpt>
      <trkpt lat="47.43458" lon="-0.60492">
        <ele>16</ele>
        <time>2011-09-01T14:43:37Z</time>
      </trkpt>
      <trkpt lat="47.43461" lon="-0.60491">
        <ele>15</ele>
        <time>2011-09-01T14:43:38Z</time>
      </trkpt>
      <trkpt lat="47.43465" lon="-0.60489">
        <ele>15</ele>
        <time>2011-09-01T14:43:39Z</time>
      </trkpt>
      <trkpt lat="47.43468" lon="-0.60488">
        <ele>15</ele>
        <time>2011-09-01T14:43:40Z</time>
      </trkpt>
      <trkpt lat="47.43472" lon="-0.60486">
        <ele>15</ele>
        <time>2011-09-01T14:43:41Z</time>
      </trkpt>
      <trkpt lat="47.43474" lon="-0.60484">
        <ele>15</ele>
        <time>2011-09-01T14:43:42Z</time>
      </trkpt>
      <trkpt lat="47.43477" lon="-0.60482">
        <ele>15</ele>
        <time>2011-09-01T14:43:43Z</time>
      </trkpt>
      <trkpt lat="47.43481" lon="-0.6048">
        <ele>15</ele>
        <time>2011-09-01T14:43:44Z</time>
      </trkpt>
      <trkpt lat="47.43486" lon="-0.60478">
        <ele>15</ele>
        <time>2011-09-01T14:43:45Z</time>
      </trkpt>
      <trkpt lat="47.43488" lon="-0.60476">
        <ele>15</ele>
        <time>2011-09-01T14:43:46Z</time>
      </trkpt>
      <trkpt lat="47.43492" lon="-0.60474">
        <ele>15</ele>
        <time>2011-09-01T14:43:47Z</time>
      </trkpt>
      <trkpt lat="47.43495" lon="-0.60473">
        <ele>15</ele>
        <time>2011-09-01T14:43:48Z</time>
      </trkpt>
      <trkpt lat="47.43498" lon="-0.60473">
        <ele>15</ele>
        <time>2011-09-01T14:43:49Z</time>
      </trkpt>
      <trkpt lat="47.435" lon="-0.60473">
        <ele>15</ele>
        <time>2011-09-01T14:43:50Z</time>
      </trkpt>
      <trkpt lat="47.43504" lon="-0.60473">
        <ele>15</ele>
        <time>2011-09-01T14:43:51Z</time>
      </trkpt>
      <trkpt lat="47.43507" lon="-0.60474">
        <ele>15</ele>
        <time>2011-09-01T14:43:52Z</time>
      </trkpt>
      <trkpt lat="47.43512" lon="-0.60474">
        <ele>15</ele>
        <time>2011-09-01T14:43:53Z</time>
      </trkpt>
      <trkpt lat="47.43516" lon="-0.60475">
        <ele>15</ele>
        <time>2011-09-01T14:43:54Z</time>
      </trkpt>
      <trkpt lat="47.43519" lon="-0.60476">
        <ele>15</ele>
        <time>2011-09-01T14:43:55Z</time>
      </trkpt>
      <trkpt lat="47.43523" lon="-0.60477">
        <ele>14</ele>
        <time>2011-09-01T14:43:56Z</time>
      </trkpt>
      <trkpt lat="47.43526" lon="-0.60475">
        <ele>14</ele>
        <time>2011-09-01T14:43:57Z</time>
      </trkpt>
      <trkpt lat="47.4353" lon="-0.60474">
        <ele>13</ele>
        <time>2011-09-01T14:43:58Z</time>
      </trkpt>
      <trkpt lat="47.43532" lon="-0.60473">
        <ele>13</ele>
        <time>2011-09-01T14:43:59Z</time>
      </trkpt>
      <trkpt lat="47.43535" lon="-0.60472">
        <ele>13</ele>
        <time>2011-09-01T14:44:00Z</time>
      </trkpt>
      <trkpt lat="47.43538" lon="-0.6047">
        <ele>13</ele>
        <time>2011-09-01T14:44:01Z</time>
      </trkpt>
      <trkpt lat="47.43542" lon="-0.60466">
        <ele>13</ele>
        <time>2011-09-01T14:44:02Z</time>
      </trkpt>
      <trkpt lat="47.43545" lon="-0.60463">
        <ele>13</ele>
        <time>2011-09-01T14:44:03Z</time>
      </trkpt>
      <trkpt lat="47.43548" lon="-0.60459">
        <ele>13</ele>
        <time>2011-09-01T14:44:04Z</time>
      </trkpt>
      <trkpt lat="47.43551" lon="-0.60455">
        <ele>13</ele>
        <time>2011-09-01T14:44:05Z</time>
      </trkpt>
      <trkpt lat="47.43554" lon="-0.60451">
        <ele>13</ele>
        <time>2011-09-01T14:44:06Z</time>
      </trkpt>
      <trkpt lat="47.43557" lon="-0.60448">
        <ele>13</ele>
        <time>2011-09-01T14:44:07Z</time>
      </trkpt>
      <trkpt lat="47.4356" lon="-0.60445">
        <ele>13</ele>
        <time>2011-09-01T14:44:08Z</time>
      </trkpt>
      <trkpt lat="47.43563" lon="-0.60443">
        <ele>13</ele>
        <time>2011-09-01T14:44:09Z</time>
      </trkpt>
      <trkpt lat="47.43567" lon="-0.6044">
        <ele>13</ele>
        <time>2011-09-01T14:44:10Z</time>
      </trkpt>
      <trkpt lat="47.4357" lon="-0.60437">
        <ele>13</ele>
        <time>2011-09-01T14:44:11Z</time>
      </trkpt>
      <trkpt lat="47.43573" lon="-0.60434">
        <ele>13</ele>
        <time>2011-09-01T14:44:12Z</time>
      </trkpt>
      <trkpt lat="47.43576" lon="-0.60431">
        <ele>13</ele>
        <time>2011-09-01T14:44:13Z</time>
      </trkpt>
      <trkpt lat="47.4358" lon="-0.60429">
        <ele>13</ele>
        <time>2011-09-01T14:44:14Z</time>
      </trkpt>
      <trkpt lat="47.43584" lon="-0.60426">
        <ele>13</ele>
        <time>2011-09-01T14:44:15Z</time>
      </trkpt>
      <trkpt lat="47.43587" lon="-0.60424">
        <ele>13</ele>
        <time>2011-09-01T14:44:16Z</time>
      </trkpt>
      <trkpt lat="47.4359" lon="-0.60421">
        <ele>13</ele>
        <time>2011-09-01T14:44:17Z</time>
      </trkpt>
      <trkpt lat="47.43594" lon="-0.60419">
        <ele>13</ele>
        <time>2011-09-01T14:44:18Z</time>
      </trkpt>
      <trkpt lat="47.43597" lon="-0.60417">
        <ele>13</ele>
        <time>2011-09-01T14:44:19Z</time>
      </trkpt>
      <trkpt lat="47.436" lon="-0.60415">
        <ele>13</ele>
        <time>2011-09-01T14:44:20Z</time>
      </trkpt>
      <trkpt lat="47.43603" lon="-0.60413">
        <ele>13</ele>
        <time>2011-09-01T14:44:21Z</time>
      </trkpt>
      <trkpt lat="47.43606" lon="-0.60411">
        <ele>13</ele>
        <time>2011-09-01T14:44:22Z</time>
      </trkpt>
      <trkpt lat="47.43609" lon="-0.60409">
        <ele>13</ele>
        <time>2011-09-01T14:44:23Z</time>
      </trkpt>
      <trkpt lat="47.43611" lon="-0.60406">
        <ele>13</ele>
        <time>2011-09-01T14:44:24Z</time>
      </trkpt>
      <trkpt lat="47.43615" lon="-0.60404">
        <ele>13</ele>
        <time>2011-09-01T14:44:25Z</time>
      </trkpt>
      <trkpt lat="47.43619" lon="-0.60401">
        <ele>13</ele>
        <time>2011-09-01T14:44:26Z</time>
      </trkpt>
      <trkpt lat="47.43623" lon="-0.60399">
        <ele>13</ele>
        <time>2011-09-01T14:44:27Z</time>
      </trkpt>
      <trkpt lat="47.43627" lon="-0.60398">
        <ele>13</ele>
        <time>2011-09-01T14:44:28Z</time>
      </trkpt>
      <trkpt lat="47.4363" lon="-0.60397">
        <ele>13</ele>
        <time>2011-09-01T14:44:29Z</time>
      </trkpt>
      <trkpt lat="47.43634" lon="-0.60397">
        <ele>13</ele>
        <time>2011-09-01T14:44:30Z</time>
      </trkpt>
      <trkpt lat="47.43637" lon="-0.60396">
        <ele>13</ele>
        <time>2011-09-01T14:44:31Z</time>
      </trkpt>
      <trkpt lat="47.43641" lon="-0.60396">
        <ele>13</ele>
        <time>2011-09-01T14:44:32Z</time>
      </trkpt>
      <trkpt lat="47.43644" lon="-0.60396">
        <ele>13</ele>
        <time>2011-09-01T14:44:33Z</time>
      </trkpt>
      <trkpt lat="47.43647" lon="-0.60396">
        <ele>13</ele>
        <time>2011-09-01T14:44:34Z</time>
      </trkpt>
      <trkpt lat="47.4365" lon="-0.60395">
        <ele>13</ele>
        <time>2011-09-01T14:44:35Z</time>
      </trkpt>
      <trkpt lat="47.43653" lon="-0.60395">
        <ele>13</ele>
        <time>2011-09-01T14:44:36Z</time>
      </trkpt>
      <trkpt lat="47.43656" lon="-0.60394">
        <ele>13</ele>
        <time>2011-09-01T14:44:37Z</time>
      </trkpt>
      <trkpt lat="47.43658" lon="-0.60394">
        <ele>13</ele>
        <time>2011-09-01T14:44:38Z</time>
      </trkpt>
      <trkpt lat="47.43662" lon="-0.60392">
        <ele>14</ele>
        <time>2011-09-01T14:44:39Z</time>
      </trkpt>
      <trkpt lat="47.43665" lon="-0.6039">
        <ele>14</ele>
        <time>2011-09-01T14:44:40Z</time>
      </trkpt>
      <trkpt lat="47.43669" lon="-0.60388">
        <ele>15</ele>
        <time>2011-09-01T14:44:41Z</time>
      </trkpt>
      <trkpt lat="47.43673" lon="-0.60385">
        <ele>15</ele>
        <time>2011-09-01T14:44:42Z</time>
      </trkpt>
      <trkpt lat="47.43676" lon="-0.60384">
        <ele>16</ele>
        <time>2011-09-01T14:44:43Z</time>
      </trkpt>
      <trkpt lat="47.4368" lon="-0.60382">
        <ele>16</ele>
        <time>2011-09-01T14:44:44Z</time>
      </trkpt>
      <trkpt lat="47.43682" lon="-0.60381">
        <ele>16</ele>
        <time>2011-09-01T14:44:45Z</time>
      </trkpt>
      <trkpt lat="47.43685" lon="-0.60379">
        <ele>17</ele>
        <time>2011-09-01T14:44:46Z</time>
      </trkpt>
      <trkpt lat="47.43688" lon="-0.60377">
        <ele>17</ele>
        <time>2011-09-01T14:44:47Z</time>
      </trkpt>
      <trkpt lat="47.43691" lon="-0.60374">
        <ele>17</ele>
        <time>2011-09-01T14:44:48Z</time>
      </trkpt>
      <trkpt lat="47.43695" lon="-0.6037">
        <ele>17</ele>
        <time>2011-09-01T14:44:49Z</time>
      </trkpt>
      <trkpt lat="47.43698" lon="-0.60367">
        <ele>17</ele>
        <time>2011-09-01T14:44:50Z</time>
      </trkpt>
      <trkpt lat="47.43702" lon="-0.60365">
        <ele>17</ele>
        <time>2011-09-01T14:44:51Z</time>
      </trkpt>
      <trkpt lat="47.43705" lon="-0.60362">
        <ele>17</ele>
        <time>2011-09-01T14:44:52Z</time>
      </trkpt>
      <trkpt lat="47.43708" lon="-0.6036">
        <ele>17</ele>
        <time>2011-09-01T14:44:53Z</time>
      </trkpt>
      <trkpt lat="47.43711" lon="-0.60357">
        <ele>17</ele>
        <time>2011-09-01T14:44:54Z</time>
      </trkpt>
      <trkpt lat="47.43715" lon="-0.60355">
        <ele>17</ele>
        <time>2011-09-01T14:44:55Z</time>
      </trkpt>
      <trkpt lat="47.43718" lon="-0.60353">
        <ele>17</ele>
        <time>2011-09-01T14:44:56Z</time>
      </trkpt>
      <trkpt lat="47.43721" lon="-0.6035">
        <ele>17</ele>
        <time>2011-09-01T14:44:57Z</time>
      </trkpt>
      <trkpt lat="47.43724" lon="-0.60347">
        <ele>17</ele>
        <time>2011-09-01T14:44:58Z</time>
      </trkpt>
      <trkpt lat="47.43727" lon="-0.60344">
        <ele>17</ele>
        <time>2011-09-01T14:44:59Z</time>
      </trkpt>
      <trkpt lat="47.4373" lon="-0.60342">
        <ele>17</ele>
        <time>2011-09-01T14:45:00Z</time>
      </trkpt>
      <trkpt lat="47.43732" lon="-0.6034">
        <ele>17</ele>
        <time>2011-09-01T14:45:01Z</time>
      </trkpt>
      <trkpt lat="47.43736" lon="-0.60338">
        <ele>17</ele>
        <time>2011-09-01T14:45:02Z</time>
      </trkpt>
      <trkpt lat="47.43739" lon="-0.60335">
        <ele>17</ele>
        <time>2011-09-01T14:45:03Z</time>
      </trkpt>
      <trkpt lat="47.43742" lon="-0.60332">
        <ele>17</ele>
        <time>2011-09-01T14:45:04Z</time>
      </trkpt>
      <trkpt lat="47.43745" lon="-0.6033">
        <ele>17</ele>
        <time>2011-09-01T14:45:05Z</time>
      </trkpt>
      <trkpt lat="47.43748" lon="-0.60328">
        <ele>16</ele>
        <time>2011-09-01T14:45:06Z</time>
      </trkpt>
      <trkpt lat="47.43751" lon="-0.60326">
        <ele>16</ele>
        <time>2011-09-01T14:45:07Z</time>
      </trkpt>
      <trkpt lat="47.43754" lon="-0.60324">
        <ele>16</ele>
        <time>2011-09-01T14:45:08Z</time>
      </trkpt>
      <trkpt lat="47.43756" lon="-0.60321">
        <ele>16</ele>
        <time>2011-09-01T14:45:09Z</time>
      </trkpt>
      <trkpt lat="47.43759" lon="-0.60319">
        <ele>16</ele>
        <time>2011-09-01T14:45:10Z</time>
      </trkpt>
      <trkpt lat="47.43762" lon="-0.60316">
        <ele>16</ele>
        <time>2011-09-01T14:45:11Z</time>
      </trkpt>
      <trkpt lat="47.43765" lon="-0.60314">
        <ele>16</ele>
        <time>2011-09-01T14:45:12Z</time>
      </trkpt>
      <trkpt lat="47.43767" lon="-0.60313">
        <ele>16</ele>
        <time>2011-09-01T14:45:13Z</time>
      </trkpt>
      <trkpt lat="47.4377" lon="-0.60311">
        <ele>16</ele>
        <time>2011-09-01T14:45:14Z</time>
      </trkpt>
      <trkpt lat="47.43773" lon="-0.60309">
        <ele>16</ele>
        <time>2011-09-01T14:45:15Z</time>
      </trkpt>
      <trkpt lat="47.43775" lon="-0.60307">
        <ele>16</ele>
        <time>2011-09-01T14:45:16Z</time>
      </trkpt>
      <trkpt lat="47.43777" lon="-0.60305">
        <ele>16</ele>
        <time>2011-09-01T14:45:17Z</time>
      </trkpt>
      <trkpt lat="47.4378" lon="-0.60303">
        <ele>16</ele>
        <time>2011-09-01T14:45:18Z</time>
      </trkpt>
      <trkpt lat="47.43782" lon="-0.60301">
        <ele>16</ele>
        <time>2011-09-01T14:45:19Z</time>
      </trkpt>
      <trkpt lat="47.43785" lon="-0.60299">
        <ele>16</ele>
        <time>2011-09-01T14:45:20Z</time>
      </trkpt>
      <trkpt lat="47.43787" lon="-0.60297">
        <ele>16</ele>
        <time>2011-09-01T14:45:21Z</time>
      </trkpt>
      <trkpt lat="47.43789" lon="-0.60295">
        <ele>16</ele>
        <time>2011-09-01T14:45:22Z</time>
      </trkpt>
      <trkpt lat="47.43792" lon="-0.60293">
        <ele>16</ele>
        <time>2011-09-01T14:45:23Z</time>
      </trkpt>
      <trkpt lat="47.43795" lon="-0.6029">
        <ele>16</ele>
        <time>2011-09-01T14:45:24Z</time>
      </trkpt>
      <trkpt lat="47.43798" lon="-0.60288">
        <ele>16</ele>
        <time>2011-09-01T14:45:25Z</time>
      </trkpt>
      <trkpt lat="47.43801" lon="-0.60286">
        <ele>16</ele>
        <time>2011-09-01T14:45:26Z</time>
      </trkpt>
      <trkpt lat="47.43804" lon="-0.60284">
        <ele>16</ele>
        <time>2011-09-01T14:45:27Z</time>
      </trkpt>
      <trkpt lat="47.43807" lon="-0.60281">
        <ele>16</ele>
        <time>2011-09-01T14:45:28Z</time>
      </trkpt>
      <trkpt lat="47.43811" lon="-0.60279">
        <ele>16</ele>
        <time>2011-09-01T14:45:29Z</time>
      </trkpt>
      <trkpt lat="47.43814" lon="-0.60277">
        <ele>16</ele>
        <time>2011-09-01T14:45:30Z</time>
      </trkpt>
      <trkpt lat="47.43816" lon="-0.60276">
        <ele>16</ele>
        <time>2011-09-01T14:45:31Z</time>
      </trkpt>
      <trkpt lat="47.43819" lon="-0.60274">
        <ele>16</ele>
        <time>2011-09-01T14:45:32Z</time>
      </trkpt>
      <trkpt lat="47.43821" lon="-0.60272">
        <ele>16</ele>
        <time>2011-09-01T14:45:33Z</time>
      </trkpt>
      <trkpt lat="47.43824" lon="-0.6027">
        <ele>16</ele>
        <time>2011-09-01T14:45:34Z</time>
      </trkpt>
      <trkpt lat="47.43827" lon="-0.60268">
        <ele>16</ele>
        <time>2011-09-01T14:45:35Z</time>
      </trkpt>
      <trkpt lat="47.43829" lon="-0.60267">
        <ele>16</ele>
        <time>2011-09-01T14:45:36Z</time>
      </trkpt>
      <trkpt lat="47.4383" lon="-0.60265">
        <ele>16</ele>
        <time>2011-09-01T14:45:37Z</time>
      </trkpt>
      <trkpt lat="47.43832" lon="-0.60264">
        <ele>16</ele>
        <time>2011-09-01T14:45:38Z</time>
      </trkpt>
      <trkpt lat="47.43834" lon="-0.60262">
        <ele>16</ele>
        <time>2011-09-01T14:45:39Z</time>
      </trkpt>
      <trkpt lat="47.43837" lon="-0.6026">
        <ele>16</ele>
        <time>2011-09-01T14:45:40Z</time>
      </trkpt>
      <trkpt lat="47.43839" lon="-0.60258">
        <ele>16</ele>
        <time>2011-09-01T14:45:41Z</time>
      </trkpt>
      <trkpt lat="47.43841" lon="-0.60256">
        <ele>16</ele>
        <time>2011-09-01T14:45:42Z</time>
      </trkpt>
      <trkpt lat="47.43843" lon="-0.60255">
        <ele>16</ele>
        <time>2011-09-01T14:45:43Z</time>
      </trkpt>
      <trkpt lat="47.43846" lon="-0.60253">
        <ele>16</ele>
        <time>2011-09-01T14:45:44Z</time>
      </trkpt>
      <trkpt lat="47.43848" lon="-0.60251">
        <ele>16</ele>
        <time>2011-09-01T14:45:45Z</time>
      </trkpt>
      <trkpt lat="47.43851" lon="-0.6025">
        <ele>16</ele>
        <time>2011-09-01T14:45:46Z</time>
      </trkpt>
      <trkpt lat="47.43853" lon="-0.60248">
        <ele>16</ele>
        <time>2011-09-01T14:45:47Z</time>
      </trkpt>
      <trkpt lat="47.43856" lon="-0.60247">
        <ele>16</ele>
        <time>2011-09-01T14:45:48Z</time>
      </trkpt>
      <trkpt lat="47.43858" lon="-0.60245">
        <ele>16</ele>
        <time>2011-09-01T14:45:49Z</time>
      </trkpt>
      <trkpt lat="47.43861" lon="-0.60243">
        <ele>16</ele>
        <time>2011-09-01T14:45:50Z</time>
      </trkpt>
      <trkpt lat="47.43863" lon="-0.60242">
        <ele>16</ele>
        <time>2011-09-01T14:45:51Z</time>
      </trkpt>
      <trkpt lat="47.43866" lon="-0.6024">
        <ele>16</ele>
        <time>2011-09-01T14:45:52Z</time>
      </trkpt>
      <trkpt lat="47.43868" lon="-0.60238">
        <ele>16</ele>
        <time>2011-09-01T14:45:53Z</time>
      </trkpt>
      <trkpt lat="47.43871" lon="-0.60236">
        <ele>16</ele>
        <time>2011-09-01T14:45:54Z</time>
      </trkpt>
      <trkpt lat="47.43873" lon="-0.60233">
        <ele>16</ele>
        <time>2011-09-01T14:45:55Z</time>
      </trkpt>
      <trkpt lat="47.43876" lon="-0.60231">
        <ele>16</ele>
        <time>2011-09-01T14:45:56Z</time>
      </trkpt>
      <trkpt lat="47.43879" lon="-0.60229">
        <ele>16</ele>
        <time>2011-09-01T14:45:57Z</time>
      </trkpt>
      <trkpt lat="47.43881" lon="-0.60227">
        <ele>16</ele>
        <time>2011-09-01T14:45:58Z</time>
      </trkpt>
      <trkpt lat="47.43884" lon="-0.60225">
        <ele>16</ele>
        <time>2011-09-01T14:45:59Z</time>
      </trkpt>
      <trkpt lat="47.43886" lon="-0.60224">
        <ele>16</ele>
        <time>2011-09-01T14:46:00Z</time>
      </trkpt>
      <trkpt lat="47.43889" lon="-0.60222">
        <ele>16</ele>
        <time>2011-09-01T14:46:01Z</time>
      </trkpt>
      <trkpt lat="47.43893" lon="-0.6022">
        <ele>16</ele>
        <time>2011-09-01T14:46:02Z</time>
      </trkpt>
      <trkpt lat="47.43896" lon="-0.60218">
        <ele>16</ele>
        <time>2011-09-01T14:46:03Z</time>
      </trkpt>
      <trkpt lat="47.439" lon="-0.60216">
        <ele>16</ele>
        <time>2011-09-01T14:46:04Z</time>
      </trkpt>
      <trkpt lat="47.43903" lon="-0.60214">
        <ele>16</ele>
        <time>2011-09-01T14:46:05Z</time>
      </trkpt>
      <trkpt lat="47.43905" lon="-0.60212">
        <ele>16</ele>
        <time>2011-09-01T14:46:06Z</time>
      </trkpt>
      <trkpt lat="47.43908" lon="-0.6021">
        <ele>16</ele>
        <time>2011-09-01T14:46:07Z</time>
      </trkpt>
      <trkpt lat="47.4391" lon="-0.60208">
        <ele>16</ele>
        <time>2011-09-01T14:46:08Z</time>
      </trkpt>
      <trkpt lat="47.43913" lon="-0.60206">
        <ele>16</ele>
        <time>2011-09-01T14:46:09Z</time>
      </trkpt>
      <trkpt lat="47.43915" lon="-0.60204">
        <ele>16</ele>
        <time>2011-09-01T14:46:10Z</time>
      </trkpt>
      <trkpt lat="47.43917" lon="-0.60202">
        <ele>16</ele>
        <time>2011-09-01T14:46:11Z</time>
      </trkpt>
      <trkpt lat="47.4392" lon="-0.60199">
        <ele>16</ele>
        <time>2011-09-01T14:46:12Z</time>
      </trkpt>
      <trkpt lat="47.43921" lon="-0.60198">
        <ele>16</ele>
        <time>2011-09-01T14:46:13Z</time>
      </trkpt>
      <trkpt lat="47.43924" lon="-0.60196">
        <ele>16</ele>
        <time>2011-09-01T14:46:14Z</time>
      </trkpt>
      <trkpt lat="47.43926" lon="-0.60194">
        <ele>16</ele>
        <time>2011-09-01T14:46:15Z</time>
      </trkpt>
      <trkpt lat="47.43928" lon="-0.60193">
        <ele>16</ele>
        <time>2011-09-01T14:46:16Z</time>
      </trkpt>
      <trkpt lat="47.4393" lon="-0.60191">
        <ele>16</ele>
        <time>2011-09-01T14:46:17Z</time>
      </trkpt>
      <trkpt lat="47.43932" lon="-0.6019">
        <ele>16</ele>
        <time>2011-09-01T14:46:18Z</time>
      </trkpt>
      <trkpt lat="47.43933" lon="-0.60189">
        <ele>16</ele>
        <time>2011-09-01T14:46:19Z</time>
      </trkpt>
      <trkpt lat="47.43934" lon="-0.60188">
        <ele>16</ele>
        <time>2011-09-01T14:46:20Z</time>
      </trkpt>
      <trkpt lat="47.43936" lon="-0.60186">
        <ele>16</ele>
        <time>2011-09-01T14:46:21Z</time>
      </trkpt>
      <trkpt lat="47.43938" lon="-0.60185">
        <ele>16</ele>
        <time>2011-09-01T14:46:22Z</time>
      </trkpt>
      <trkpt lat="47.43941" lon="-0.60183">
        <ele>16</ele>
        <time>2011-09-01T14:46:23Z</time>
      </trkpt>
      <trkpt lat="47.43943" lon="-0.60181">
        <ele>16</ele>
        <time>2011-09-01T14:46:24Z</time>
      </trkpt>
      <trkpt lat="47.43945" lon="-0.60179">
        <ele>16</ele>
        <time>2011-09-01T14:46:25Z</time>
      </trkpt>
      <trkpt lat="47.43948" lon="-0.60177">
        <ele>16</ele>
        <time>2011-09-01T14:46:26Z</time>
      </trkpt>
      <trkpt lat="47.43951" lon="-0.60175">
        <ele>16</ele>
        <time>2011-09-01T14:46:27Z</time>
      </trkpt>
      <trkpt lat="47.43953" lon="-0.60172">
        <ele>16</ele>
        <time>2011-09-01T14:46:28Z</time>
      </trkpt>
      <trkpt lat="47.43956" lon="-0.6017">
        <ele>16</ele>
        <time>2011-09-01T14:46:29Z</time>
      </trkpt>
      <trkpt lat="47.43959" lon="-0.60168">
        <ele>16</ele>
        <time>2011-09-01T14:46:30Z</time>
      </trkpt>
      <trkpt lat="47.43962" lon="-0.60166">
        <ele>16</ele>
        <time>2011-09-01T14:46:31Z</time>
      </trkpt>
      <trkpt lat="47.43964" lon="-0.60163">
        <ele>16</ele>
        <time>2011-09-01T14:46:32Z</time>
      </trkpt>
      <trkpt lat="47.43967" lon="-0.60162">
        <ele>16</ele>
        <time>2011-09-01T14:46:33Z</time>
      </trkpt>
      <trkpt lat="47.43969" lon="-0.6016">
        <ele>16</ele>
        <time>2011-09-01T14:46:34Z</time>
      </trkpt>
      <trkpt lat="47.43971" lon="-0.60158">
        <ele>16</ele>
        <time>2011-09-01T14:46:35Z</time>
      </trkpt>
      <trkpt lat="47.43973" lon="-0.60156">
        <ele>16</ele>
        <time>2011-09-01T14:46:36Z</time>
      </trkpt>
      <trkpt lat="47.43976" lon="-0.60153">
        <ele>16</ele>
        <time>2011-09-01T14:46:37Z</time>
      </trkpt>
      <trkpt lat="47.43979" lon="-0.60151">
        <ele>16</ele>
        <time>2011-09-01T14:46:38Z</time>
      </trkpt>
      <trkpt lat="47.43981" lon="-0.60149">
        <ele>16</ele>
        <time>2011-09-01T14:46:39Z</time>
      </trkpt>
      <trkpt lat="47.43984" lon="-0.60147">
        <ele>16</ele>
        <time>2011-09-01T14:46:40Z</time>
      </trkpt>
      <trkpt lat="47.43987" lon="-0.60145">
        <ele>16</ele>
        <time>2011-09-01T14:46:41Z</time>
      </trkpt>
      <trkpt lat="47.43988" lon="-0.60144">
        <ele>16</ele>
        <time>2011-09-01T14:46:42Z</time>
      </trkpt>
      <trkpt lat="47.4399" lon="-0.60142">
        <ele>16</ele>
        <time>2011-09-01T14:46:43Z</time>
      </trkpt>
      <trkpt lat="47.43993" lon="-0.60141">
        <ele>16</ele>
        <time>2011-09-01T14:46:44Z</time>
      </trkpt>
      <trkpt lat="47.43995" lon="-0.60139">
        <ele>16</ele>
        <time>2011-09-01T14:46:45Z</time>
      </trkpt>
      <trkpt lat="47.43996" lon="-0.60137">
        <ele>16</ele>
        <time>2011-09-01T14:46:46Z</time>
      </trkpt>
      <trkpt lat="47.43998" lon="-0.60136">
        <ele>16</ele>
        <time>2011-09-01T14:46:47Z</time>
      </trkpt>
      <trkpt lat="47.44001" lon="-0.60134">
        <ele>16</ele>
        <time>2011-09-01T14:46:48Z</time>
      </trkpt>
      <trkpt lat="47.44003" lon="-0.60132">
        <ele>16</ele>
        <time>2011-09-01T14:46:49Z</time>
      </trkpt>
      <trkpt lat="47.44006" lon="-0.6013">
        <ele>16</ele>
        <time>2011-09-01T14:46:50Z</time>
      </trkpt>
      <trkpt lat="47.44009" lon="-0.60127">
        <ele>16</ele>
        <time>2011-09-01T14:46:51Z</time>
      </trkpt>
      <trkpt lat="47.44012" lon="-0.60124">
        <ele>16</ele>
        <time>2011-09-01T14:46:52Z</time>
      </trkpt>
      <trkpt lat="47.44015" lon="-0.60121">
        <ele>16</ele>
        <time>2011-09-01T14:46:53Z</time>
      </trkpt>
      <trkpt lat="47.44018" lon="-0.60119">
        <ele>16</ele>
        <time>2011-09-01T14:46:54Z</time>
      </trkpt>
      <trkpt lat="47.44022" lon="-0.60116">
        <ele>16</ele>
        <time>2011-09-01T14:46:55Z</time>
      </trkpt>
      <trkpt lat="47.44024" lon="-0.60114">
        <ele>16</ele>
        <time>2011-09-01T14:46:56Z</time>
      </trkpt>
      <trkpt lat="47.44027" lon="-0.60111">
        <ele>16</ele>
        <time>2011-09-01T14:46:57Z</time>
      </trkpt>
      <trkpt lat="47.44028" lon="-0.60109">
        <ele>16</ele>
        <time>2011-09-01T14:46:58Z</time>
      </trkpt>
      <trkpt lat="47.4403" lon="-0.60107">
        <ele>16</ele>
        <time>2011-09-01T14:46:59Z</time>
      </trkpt>
      <trkpt lat="47.44033" lon="-0.60106">
        <ele>16</ele>
        <time>2011-09-01T14:47:00Z</time>
      </trkpt>
      <trkpt lat="47.44035" lon="-0.60104">
        <ele>16</ele>
        <time>2011-09-01T14:47:01Z</time>
      </trkpt>
      <trkpt lat="47.44038" lon="-0.60103">
        <ele>16</ele>
        <time>2011-09-01T14:47:02Z</time>
      </trkpt>
      <trkpt lat="47.44039" lon="-0.60101">
        <ele>16</ele>
        <time>2011-09-01T14:47:03Z</time>
      </trkpt>
      <trkpt lat="47.44041" lon="-0.60099">
        <ele>16</ele>
        <time>2011-09-01T14:47:04Z</time>
      </trkpt>
      <trkpt lat="47.44044" lon="-0.60097">
        <ele>16</ele>
        <time>2011-09-01T14:47:05Z</time>
      </trkpt>
      <trkpt lat="47.44048" lon="-0.60093">
        <ele>16</ele>
        <time>2011-09-01T14:47:06Z</time>
      </trkpt>
      <trkpt lat="47.44052" lon="-0.6009">
        <ele>16</ele>
        <time>2011-09-01T14:47:07Z</time>
      </trkpt>
      <trkpt lat="47.44056" lon="-0.60087">
        <ele>16</ele>
        <time>2011-09-01T14:47:08Z</time>
      </trkpt>
      <trkpt lat="47.44058" lon="-0.60084">
        <ele>16</ele>
        <time>2011-09-01T14:47:09Z</time>
      </trkpt>
      <trkpt lat="47.44061" lon="-0.60082">
        <ele>16</ele>
        <time>2011-09-01T14:47:10Z</time>
      </trkpt>
      <trkpt lat="47.44063" lon="-0.6008">
        <ele>15</ele>
        <time>2011-09-01T14:47:11Z</time>
      </trkpt>
      <trkpt lat="47.44065" lon="-0.60078">
        <ele>15</ele>
        <time>2011-09-01T14:47:12Z</time>
      </trkpt>
      <trkpt lat="47.44067" lon="-0.60075">
        <ele>15</ele>
        <time>2011-09-01T14:47:13Z</time>
      </trkpt>
      <trkpt lat="47.4407" lon="-0.60073">
        <ele>15</ele>
        <time>2011-09-01T14:47:14Z</time>
      </trkpt>
      <trkpt lat="47.44072" lon="-0.60071">
        <ele>15</ele>
        <time>2011-09-01T14:47:15Z</time>
      </trkpt>
      <trkpt lat="47.44074" lon="-0.60069">
        <ele>15</ele>
        <time>2011-09-01T14:47:16Z</time>
      </trkpt>
      <trkpt lat="47.44076" lon="-0.60067">
        <ele>15</ele>
        <time>2011-09-01T14:47:17Z</time>
      </trkpt>
      <trkpt lat="47.44078" lon="-0.60065">
        <ele>15</ele>
        <time>2011-09-01T14:47:18Z</time>
      </trkpt>
      <trkpt lat="47.44081" lon="-0.60063">
        <ele>14</ele>
        <time>2011-09-01T14:47:19Z</time>
      </trkpt>
      <trkpt lat="47.44083" lon="-0.60061">
        <ele>14</ele>
        <time>2011-09-01T14:47:20Z</time>
      </trkpt>
      <trkpt lat="47.44086" lon="-0.60059">
        <ele>14</ele>
        <time>2011-09-01T14:47:21Z</time>
      </trkpt>
      <trkpt lat="47.44088" lon="-0.60057">
        <ele>14</ele>
        <time>2011-09-01T14:47:22Z</time>
      </trkpt>
      <trkpt lat="47.44089" lon="-0.60055">
        <ele>14</ele>
        <time>2011-09-01T14:47:23Z</time>
      </trkpt>
      <trkpt lat="47.4409" lon="-0.60054">
        <ele>14</ele>
        <time>2011-09-01T14:47:24Z</time>
      </trkpt>
      <trkpt lat="47.44092" lon="-0.60052">
        <ele>14</ele>
        <time>2011-09-01T14:47:25Z</time>
      </trkpt>
      <trkpt lat="47.44093" lon="-0.6005">
        <ele>14</ele>
        <time>2011-09-01T14:47:26Z</time>
      </trkpt>
      <trkpt lat="47.44096" lon="-0.60048">
        <ele>14</ele>
        <time>2011-09-01T14:47:27Z</time>
      </trkpt>
      <trkpt lat="47.44097" lon="-0.60046">
        <ele>14</ele>
        <time>2011-09-01T14:47:28Z</time>
      </trkpt>
      <trkpt lat="47.44098" lon="-0.60044">
        <ele>14</ele>
        <time>2011-09-01T14:47:29Z</time>
      </trkpt>
      <trkpt lat="47.441" lon="-0.60043">
        <ele>14</ele>
        <time>2011-09-01T14:47:30Z</time>
      </trkpt>
      <trkpt lat="47.44102" lon="-0.60041">
        <ele>14</ele>
        <time>2011-09-01T14:47:31Z</time>
      </trkpt>
      <trkpt lat="47.44104" lon="-0.60039">
        <ele>14</ele>
        <time>2011-09-01T14:47:32Z</time>
      </trkpt>
      <trkpt lat="47.44106" lon="-0.60037">
        <ele>14</ele>
        <time>2011-09-01T14:47:33Z</time>
      </trkpt>
      <trkpt lat="47.44107" lon="-0.60035">
        <ele>14</ele>
        <time>2011-09-01T14:47:34Z</time>
      </trkpt>
      <trkpt lat="47.44109" lon="-0.60033">
        <ele>14</ele>
        <time>2011-09-01T14:47:35Z</time>
      </trkpt>
      <trkpt lat="47.44112" lon="-0.6003">
        <ele>14</ele>
        <time>2011-09-01T14:47:36Z</time>
      </trkpt>
      <trkpt lat="47.44115" lon="-0.60027">
        <ele>14</ele>
        <time>2011-09-01T14:47:37Z</time>
      </trkpt>
      <trkpt lat="47.44118" lon="-0.60024">
        <ele>14</ele>
        <time>2011-09-01T14:47:38Z</time>
      </trkpt>
      <trkpt lat="47.4412" lon="-0.60021">
        <ele>14</ele>
        <time>2011-09-01T14:47:39Z</time>
      </trkpt>
      <trkpt lat="47.44122" lon="-0.60019">
        <ele>14</ele>
        <time>2011-09-01T14:47:40Z</time>
      </trkpt>
      <trkpt lat="47.44125" lon="-0.60017">
        <ele>14</ele>
        <time>2011-09-01T14:47:41Z</time>
      </trkpt>
      <trkpt lat="47.44127" lon="-0.60015">
        <ele>14</ele>
        <time>2011-09-01T14:47:42Z</time>
      </trkpt>
      <trkpt lat="47.44128" lon="-0.60014">
        <ele>14</ele>
        <time>2011-09-01T14:47:43Z</time>
      </trkpt>
      <trkpt lat="47.44131" lon="-0.60011">
        <ele>14</ele>
        <time>2011-09-01T14:47:44Z</time>
      </trkpt>
      <trkpt lat="47.44133" lon="-0.60009">
        <ele>14</ele>
        <time>2011-09-01T14:47:45Z</time>
      </trkpt>
      <trkpt lat="47.44137" lon="-0.60004">
        <ele>14</ele>
        <time>2011-09-01T14:47:46Z</time>
      </trkpt>
      <trkpt lat="47.4414" lon="-0.60001">
        <ele>14</ele>
        <time>2011-09-01T14:47:47Z</time>
      </trkpt>
      <trkpt lat="47.44143" lon="-0.59998">
        <ele>14</ele>
        <time>2011-09-01T14:47:48Z</time>
      </trkpt>
      <trkpt lat="47.44146" lon="-0.59995">
        <ele>14</ele>
        <time>2011-09-01T14:47:49Z</time>
      </trkpt>
      <trkpt lat="47.44149" lon="-0.59993">
        <ele>14</ele>
        <time>2011-09-01T14:47:50Z</time>
      </trkpt>
      <trkpt lat="47.44151" lon="-0.59991">
        <ele>14</ele>
        <time>2011-09-01T14:47:51Z</time>
      </trkpt>
      <trkpt lat="47.44153" lon="-0.59989">
        <ele>14</ele>
        <time>2011-09-01T14:47:52Z</time>
      </trkpt>
      <trkpt lat="47.44156" lon="-0.59987">
        <ele>14</ele>
        <time>2011-09-01T14:47:53Z</time>
      </trkpt>
      <trkpt lat="47.44158" lon="-0.59984">
        <ele>14</ele>
        <time>2011-09-01T14:47:54Z</time>
      </trkpt>
      <trkpt lat="47.44161" lon="-0.59982">
        <ele>14</ele>
        <time>2011-09-01T14:47:55Z</time>
      </trkpt>
      <trkpt lat="47.44164" lon="-0.5998">
        <ele>14</ele>
        <time>2011-09-01T14:47:56Z</time>
      </trkpt>
      <trkpt lat="47.44167" lon="-0.59977">
        <ele>13</ele>
        <time>2011-09-01T14:47:57Z</time>
      </trkpt>
      <trkpt lat="47.4417" lon="-0.59974">
        <ele>13</ele>
        <time>2011-09-01T14:47:58Z</time>
      </trkpt>
      <trkpt lat="47.44172" lon="-0.59972">
        <ele>13</ele>
        <time>2011-09-01T14:47:59Z</time>
      </trkpt>
      <trkpt lat="47.44174" lon="-0.5997">
        <ele>13</ele>
        <time>2011-09-01T14:48:00Z</time>
      </trkpt>
      <trkpt lat="47.44176" lon="-0.59968">
        <ele>12</ele>
        <time>2011-09-01T14:48:01Z</time>
      </trkpt>
      <trkpt lat="47.44179" lon="-0.59966">
        <ele>12</ele>
        <time>2011-09-01T14:48:02Z</time>
      </trkpt>
      <trkpt lat="47.44181" lon="-0.59964">
        <ele>12</ele>
        <time>2011-09-01T14:48:03Z</time>
      </trkpt>
      <trkpt lat="47.44183" lon="-0.59963">
        <ele>12</ele>
        <time>2011-09-01T14:48:04Z</time>
      </trkpt>
      <trkpt lat="47.44185" lon="-0.59961">
        <ele>12</ele>
        <time>2011-09-01T14:48:05Z</time>
      </trkpt>
      <trkpt lat="47.44188" lon="-0.59959">
        <ele>12</ele>
        <time>2011-09-01T14:48:06Z</time>
      </trkpt>
      <trkpt lat="47.4419" lon="-0.59957">
        <ele>12</ele>
        <time>2011-09-01T14:48:07Z</time>
      </trkpt>
      <trkpt lat="47.44192" lon="-0.59955">
        <ele>12</ele>
        <time>2011-09-01T14:48:08Z</time>
      </trkpt>
      <trkpt lat="47.44194" lon="-0.59952">
        <ele>12</ele>
        <time>2011-09-01T14:48:09Z</time>
      </trkpt>
      <trkpt lat="47.44197" lon="-0.59949">
        <ele>12</ele>
        <time>2011-09-01T14:48:10Z</time>
      </trkpt>
      <trkpt lat="47.442" lon="-0.59946">
        <ele>12</ele>
        <time>2011-09-01T14:48:11Z</time>
      </trkpt>
      <trkpt lat="47.44202" lon="-0.59944">
        <ele>12</ele>
        <time>2011-09-01T14:48:12Z</time>
      </trkpt>
      <trkpt lat="47.44205" lon="-0.59942">
        <ele>12</ele>
        <time>2011-09-01T14:48:13Z</time>
      </trkpt>
      <trkpt lat="47.44208" lon="-0.59939">
        <ele>12</ele>
        <time>2011-09-01T14:48:14Z</time>
      </trkpt>
      <trkpt lat="47.4421" lon="-0.59936">
        <ele>12</ele>
        <time>2011-09-01T14:48:15Z</time>
      </trkpt>
      <trkpt lat="47.44214" lon="-0.59933">
        <ele>11</ele>
        <time>2011-09-01T14:48:16Z</time>
      </trkpt>
      <trkpt lat="47.44216" lon="-0.59931">
        <ele>11</ele>
        <time>2011-09-01T14:48:17Z</time>
      </trkpt>
      <trkpt lat="47.4422" lon="-0.59927">
        <ele>11</ele>
        <time>2011-09-01T14:48:18Z</time>
      </trkpt>
      <trkpt lat="47.44224" lon="-0.59924">
        <ele>10</ele>
        <time>2011-09-01T14:48:19Z</time>
      </trkpt>
      <trkpt lat="47.44227" lon="-0.59922">
        <ele>10</ele>
        <time>2011-09-01T14:48:20Z</time>
      </trkpt>
      <trkpt lat="47.44229" lon="-0.59919">
        <ele>9</ele>
        <time>2011-09-01T14:48:21Z</time>
      </trkpt>
      <trkpt lat="47.44232" lon="-0.59917">
        <ele>9</ele>
        <time>2011-09-01T14:48:22Z</time>
      </trkpt>
      <trkpt lat="47.44235" lon="-0.59914">
        <ele>9</ele>
        <time>2011-09-01T14:48:23Z</time>
      </trkpt>
      <trkpt lat="47.44238" lon="-0.59911">
        <ele>8</ele>
        <time>2011-09-01T14:48:24Z</time>
      </trkpt>
      <trkpt lat="47.44241" lon="-0.59908">
        <ele>8</ele>
        <time>2011-09-01T14:48:25Z</time>
      </trkpt>
      <trkpt lat="47.44244" lon="-0.59905">
        <ele>8</ele>
        <time>2011-09-01T14:48:26Z</time>
      </trkpt>
      <trkpt lat="47.44247" lon="-0.59903">
        <ele>8</ele>
        <time>2011-09-01T14:48:27Z</time>
      </trkpt>
      <trkpt lat="47.4425" lon="-0.599">
        <ele>8</ele>
        <time>2011-09-01T14:48:28Z</time>
      </trkpt>
      <trkpt lat="47.44252" lon="-0.59898">
        <ele>8</ele>
        <time>2011-09-01T14:48:29Z</time>
      </trkpt>
      <trkpt lat="47.44255" lon="-0.59895">
        <ele>8</ele>
        <time>2011-09-01T14:48:30Z</time>
      </trkpt>
      <trkpt lat="47.44257" lon="-0.59893">
        <ele>8</ele>
        <time>2011-09-01T14:48:31Z</time>
      </trkpt>
      <trkpt lat="47.4426" lon="-0.5989">
        <ele>8</ele>
        <time>2011-09-01T14:48:32Z</time>
      </trkpt>
      <trkpt lat="47.44261" lon="-0.59888">
        <ele>8</ele>
        <time>2011-09-01T14:48:33Z</time>
      </trkpt>
      <trkpt lat="47.44263" lon="-0.59886">
        <ele>8</ele>
        <time>2011-09-01T14:48:34Z</time>
      </trkpt>
      <trkpt lat="47.44266" lon="-0.59883">
        <ele>8</ele>
        <time>2011-09-01T14:48:35Z</time>
      </trkpt>
      <trkpt lat="47.44269" lon="-0.5988">
        <ele>8</ele>
        <time>2011-09-01T14:48:36Z</time>
      </trkpt>
      <trkpt lat="47.44271" lon="-0.59877">
        <ele>8</ele>
        <time>2011-09-01T14:48:37Z</time>
      </trkpt>
      <trkpt lat="47.44275" lon="-0.59874">
        <ele>8</ele>
        <time>2011-09-01T14:48:38Z</time>
      </trkpt>
      <trkpt lat="47.44277" lon="-0.59871">
        <ele>8</ele>
        <time>2011-09-01T14:48:39Z</time>
      </trkpt>
      <trkpt lat="47.44279" lon="-0.59869">
        <ele>8</ele>
        <time>2011-09-01T14:48:40Z</time>
      </trkpt>
      <trkpt lat="47.44281" lon="-0.59866">
        <ele>8</ele>
        <time>2011-09-01T14:48:41Z</time>
      </trkpt>
      <trkpt lat="47.44283" lon="-0.59864">
        <ele>8</ele>
        <time>2011-09-01T14:48:42Z</time>
      </trkpt>
      <trkpt lat="47.44286" lon="-0.59862">
        <ele>8</ele>
        <time>2011-09-01T14:48:43Z</time>
      </trkpt>
      <trkpt lat="47.44289" lon="-0.5986">
        <ele>8</ele>
        <time>2011-09-01T14:48:44Z</time>
      </trkpt>
      <trkpt lat="47.44292" lon="-0.59858">
        <ele>8</ele>
        <time>2011-09-01T14:48:45Z</time>
      </trkpt>
      <trkpt lat="47.44294" lon="-0.59856">
        <ele>8</ele>
        <time>2011-09-01T14:48:46Z</time>
      </trkpt>
      <trkpt lat="47.44296" lon="-0.59854">
        <ele>8</ele>
        <time>2011-09-01T14:48:47Z</time>
      </trkpt>
      <trkpt lat="47.44298" lon="-0.59851">
        <ele>8</ele>
        <time>2011-09-01T14:48:48Z</time>
      </trkpt>
      <trkpt lat="47.44301" lon="-0.59849">
        <ele>8</ele>
        <time>2011-09-01T14:48:49Z</time>
      </trkpt>
      <trkpt lat="47.44303" lon="-0.59846">
        <ele>8</ele>
        <time>2011-09-01T14:48:50Z</time>
      </trkpt>
      <trkpt lat="47.44306" lon="-0.59844">
        <ele>8</ele>
        <time>2011-09-01T14:48:51Z</time>
      </trkpt>
      <trkpt lat="47.44308" lon="-0.59842">
        <ele>8</ele>
        <time>2011-09-01T14:48:52Z</time>
      </trkpt>
      <trkpt lat="47.4431" lon="-0.59839">
        <ele>8</ele>
        <time>2011-09-01T14:48:53Z</time>
      </trkpt>
      <trkpt lat="47.44313" lon="-0.59837">
        <ele>8</ele>
        <time>2011-09-01T14:48:54Z</time>
      </trkpt>
      <trkpt lat="47.44316" lon="-0.59833">
        <ele>8</ele>
        <time>2011-09-01T14:48:55Z</time>
      </trkpt>
      <trkpt lat="47.44319" lon="-0.59831">
        <ele>8</ele>
        <time>2011-09-01T14:48:56Z</time>
      </trkpt>
      <trkpt lat="47.44322" lon="-0.59828">
        <ele>8</ele>
        <time>2011-09-01T14:48:57Z</time>
      </trkpt>
      <trkpt lat="47.44325" lon="-0.59825">
        <ele>8</ele>
        <time>2011-09-01T14:48:58Z</time>
      </trkpt>
      <trkpt lat="47.44328" lon="-0.59822">
        <ele>8</ele>
        <time>2011-09-01T14:48:59Z</time>
      </trkpt>
      <trkpt lat="47.4433" lon="-0.5982">
        <ele>8</ele>
        <time>2011-09-01T14:49:00Z</time>
      </trkpt>
      <trkpt lat="47.44333" lon="-0.59817">
        <ele>8</ele>
        <time>2011-09-01T14:49:01Z</time>
      </trkpt>
      <trkpt lat="47.44336" lon="-0.59814">
        <ele>8</ele>
        <time>2011-09-01T14:49:02Z</time>
      </trkpt>
      <trkpt lat="47.44339" lon="-0.59812">
        <ele>8</ele>
        <time>2011-09-01T14:49:03Z</time>
      </trkpt>
      <trkpt lat="47.44341" lon="-0.59809">
        <ele>8</ele>
        <time>2011-09-01T14:49:04Z</time>
      </trkpt>
      <trkpt lat="47.44344" lon="-0.59807">
        <ele>8</ele>
        <time>2011-09-01T14:49:05Z</time>
      </trkpt>
      <trkpt lat="47.44346" lon="-0.59804">
        <ele>8</ele>
        <time>2011-09-01T14:49:06Z</time>
      </trkpt>
      <trkpt lat="47.44349" lon="-0.59802">
        <ele>8</ele>
        <time>2011-09-01T14:49:07Z</time>
      </trkpt>
      <trkpt lat="47.44351" lon="-0.598">
        <ele>8</ele>
        <time>2011-09-01T14:49:08Z</time>
      </trkpt>
      <trkpt lat="47.44354" lon="-0.59798">
        <ele>8</ele>
        <time>2011-09-01T14:49:09Z</time>
      </trkpt>
      <trkpt lat="47.44356" lon="-0.59796">
        <ele>8</ele>
        <time>2011-09-01T14:49:10Z</time>
      </trkpt>
      <trkpt lat="47.44358" lon="-0.59795">
        <ele>8</ele>
        <time>2011-09-01T14:49:11Z</time>
      </trkpt>
      <trkpt lat="47.4436" lon="-0.59793">
        <ele>8</ele>
        <time>2011-09-01T14:49:12Z</time>
      </trkpt>
      <trkpt lat="47.44362" lon="-0.5979">
        <ele>8</ele>
        <time>2011-09-01T14:49:13Z</time>
      </trkpt>
      <trkpt lat="47.44365" lon="-0.59787">
        <ele>8</ele>
        <time>2011-09-01T14:49:14Z</time>
      </trkpt>
      <trkpt lat="47.44368" lon="-0.59784">
        <ele>8</ele>
        <time>2011-09-01T14:49:15Z</time>
      </trkpt>
      <trkpt lat="47.44371" lon="-0.59782">
        <ele>8</ele>
        <time>2011-09-01T14:49:16Z</time>
      </trkpt>
      <trkpt lat="47.44373" lon="-0.59779">
        <ele>8</ele>
        <time>2011-09-01T14:49:17Z</time>
      </trkpt>
      <trkpt lat="47.44375" lon="-0.59777">
        <ele>8</ele>
        <time>2011-09-01T14:49:18Z</time>
      </trkpt>
      <trkpt lat="47.44378" lon="-0.59775">
        <ele>8</ele>
        <time>2011-09-01T14:49:19Z</time>
      </trkpt>
      <trkpt lat="47.44381" lon="-0.59772">
        <ele>8</ele>
        <time>2011-09-01T14:49:20Z</time>
      </trkpt>
      <trkpt lat="47.44385" lon="-0.59768">
        <ele>8</ele>
        <time>2011-09-01T14:49:21Z</time>
      </trkpt>
      <trkpt lat="47.44388" lon="-0.59765">
        <ele>8</ele>
        <time>2011-09-01T14:49:22Z</time>
      </trkpt>
      <trkpt lat="47.44391" lon="-0.59762">
        <ele>8</ele>
        <time>2011-09-01T14:49:23Z</time>
      </trkpt>
      <trkpt lat="47.44394" lon="-0.5976">
        <ele>8</ele>
        <time>2011-09-01T14:49:24Z</time>
      </trkpt>
      <trkpt lat="47.44397" lon="-0.59758">
        <ele>8</ele>
        <time>2011-09-01T14:49:25Z</time>
      </trkpt>
      <trkpt lat="47.44399" lon="-0.59756">
        <ele>8</ele>
        <time>2011-09-01T14:49:26Z</time>
      </trkpt>
      <trkpt lat="47.44401" lon="-0.59754">
        <ele>8</ele>
        <time>2011-09-01T14:49:27Z</time>
      </trkpt>
      <trkpt lat="47.44404" lon="-0.59753">
        <ele>8</ele>
        <time>2011-09-01T14:49:28Z</time>
      </trkpt>
      <trkpt lat="47.44407" lon="-0.5975">
        <ele>8</ele>
        <time>2011-09-01T14:49:29Z</time>
      </trkpt>
      <trkpt lat="47.44409" lon="-0.59748">
        <ele>8</ele>
        <time>2011-09-01T14:49:30Z</time>
      </trkpt>
      <trkpt lat="47.44411" lon="-0.59745">
        <ele>8</ele>
        <time>2011-09-01T14:49:31Z</time>
      </trkpt>
      <trkpt lat="47.44414" lon="-0.59743">
        <ele>8</ele>
        <time>2011-09-01T14:49:32Z</time>
      </trkpt>
      <trkpt lat="47.44416" lon="-0.59741">
        <ele>8</ele>
        <time>2011-09-01T14:49:33Z</time>
      </trkpt>
      <trkpt lat="47.44418" lon="-0.5974">
        <ele>8</ele>
        <time>2011-09-01T14:49:34Z</time>
      </trkpt>
      <trkpt lat="47.44419" lon="-0.59739">
        <ele>8</ele>
        <time>2011-09-01T14:49:35Z</time>
      </trkpt>
      <trkpt lat="47.44421" lon="-0.59738">
        <ele>8</ele>
        <time>2011-09-01T14:49:36Z</time>
      </trkpt>
      <trkpt lat="47.44423" lon="-0.59737">
        <ele>8</ele>
        <time>2011-09-01T14:49:37Z</time>
      </trkpt>
      <trkpt lat="47.44424" lon="-0.59736">
        <ele>8</ele>
        <time>2011-09-01T14:49:38Z</time>
      </trkpt>
      <trkpt lat="47.44426" lon="-0.59734">
        <ele>8</ele>
        <time>2011-09-01T14:49:39Z</time>
      </trkpt>
      <trkpt lat="47.44428" lon="-0.59733">
        <ele>8</ele>
        <time>2011-09-01T14:49:40Z</time>
      </trkpt>
      <trkpt lat="47.44431" lon="-0.59732">
        <ele>8</ele>
        <time>2011-09-01T14:49:41Z</time>
      </trkpt>
      <trkpt lat="47.44433" lon="-0.5973">
        <ele>8</ele>
        <time>2011-09-01T14:49:42Z</time>
      </trkpt>
      <trkpt lat="47.44434" lon="-0.59728">
        <ele>8</ele>
        <time>2011-09-01T14:49:43Z</time>
      </trkpt>
      <trkpt lat="47.44436" lon="-0.59726">
        <ele>8</ele>
        <time>2011-09-01T14:49:44Z</time>
      </trkpt>
      <trkpt lat="47.44438" lon="-0.59723">
        <ele>8</ele>
        <time>2011-09-01T14:49:45Z</time>
      </trkpt>
      <trkpt lat="47.44439" lon="-0.59721">
        <ele>8</ele>
        <time>2011-09-01T14:49:46Z</time>
      </trkpt>
      <trkpt lat="47.44442" lon="-0.59718">
        <ele>8</ele>
        <time>2011-09-01T14:49:47Z</time>
      </trkpt>
      <trkpt lat="47.44444" lon="-0.59716">
        <ele>8</ele>
        <time>2011-09-01T14:49:48Z</time>
      </trkpt>
      <trkpt lat="47.44447" lon="-0.59713">
        <ele>8</ele>
        <time>2011-09-01T14:49:49Z</time>
      </trkpt>
      <trkpt lat="47.4445" lon="-0.59712">
        <ele>8</ele>
        <time>2011-09-01T14:49:50Z</time>
      </trkpt>
      <trkpt lat="47.44452" lon="-0.59712">
        <ele>8</ele>
        <time>2011-09-01T14:49:51Z</time>
      </trkpt>
      <trkpt lat="47.44455" lon="-0.59712">
        <ele>8</ele>
        <time>2011-09-01T14:49:52Z</time>
      </trkpt>
      <trkpt lat="47.44458" lon="-0.59712">
        <ele>8</ele>
        <time>2011-09-01T14:49:53Z</time>
      </trkpt>
      <trkpt lat="47.4446" lon="-0.59712">
        <ele>8</ele>
        <time>2011-09-01T14:49:54Z</time>
      </trkpt>
      <trkpt lat="47.44462" lon="-0.59711">
        <ele>8</ele>
        <time>2011-09-01T14:49:55Z</time>
      </trkpt>
      <trkpt lat="47.44464" lon="-0.59708">
        <ele>8</ele>
        <time>2011-09-01T14:49:56Z</time>
      </trkpt>
      <trkpt lat="47.44465" lon="-0.59707">
        <ele>8</ele>
        <time>2011-09-01T14:49:57Z</time>
      </trkpt>
      <trkpt lat="47.44467" lon="-0.59706">
        <ele>8</ele>
        <time>2011-09-01T14:49:58Z</time>
      </trkpt>
      <trkpt lat="47.44469" lon="-0.59705">
        <ele>8</ele>
        <time>2011-09-01T14:49:59Z</time>
      </trkpt>
      <trkpt lat="47.44471" lon="-0.59703">
        <ele>8</ele>
        <time>2011-09-01T14:50:00Z</time>
      </trkpt>
      <trkpt lat="47.44472" lon="-0.59701">
        <ele>8</ele>
        <time>2011-09-01T14:50:01Z</time>
      </trkpt>
      <trkpt lat="47.44475" lon="-0.59698">
        <ele>8</ele>
        <time>2011-09-01T14:50:02Z</time>
      </trkpt>
      <trkpt lat="47.44478" lon="-0.59697">
        <ele>9</ele>
        <time>2011-09-01T14:50:03Z</time>
      </trkpt>
      <trkpt lat="47.4448" lon="-0.59695">
        <ele>9</ele>
        <time>2011-09-01T14:50:04Z</time>
      </trkpt>
      <trkpt lat="47.44483" lon="-0.59693">
        <ele>9</ele>
        <time>2011-09-01T14:50:05Z</time>
      </trkpt>
      <trkpt lat="47.44486" lon="-0.59691">
        <ele>9</ele>
        <time>2011-09-01T14:50:06Z</time>
      </trkpt>
      <trkpt lat="47.44488" lon="-0.59689">
        <ele>9</ele>
        <time>2011-09-01T14:50:07Z</time>
      </trkpt>
      <trkpt lat="47.4449" lon="-0.59688">
        <ele>9</ele>
        <time>2011-09-01T14:50:08Z</time>
      </trkpt>
      <trkpt lat="47.44491" lon="-0.59686">
        <ele>9</ele>
        <time>2011-09-01T14:50:09Z</time>
      </trkpt>
      <trkpt lat="47.44493" lon="-0.59685">
        <ele>9</ele>
        <time>2011-09-01T14:50:10Z</time>
      </trkpt>
      <trkpt lat="47.44494" lon="-0.59683">
        <ele>9</ele>
        <time>2011-09-01T14:50:11Z</time>
      </trkpt>
      <trkpt lat="47.44496" lon="-0.59681">
        <ele>10</ele>
        <time>2011-09-01T14:50:12Z</time>
      </trkpt>
      <trkpt lat="47.44498" lon="-0.59679">
        <ele>10</ele>
        <time>2011-09-01T14:50:13Z</time>
      </trkpt>
      <trkpt lat="47.44501" lon="-0.59677">
        <ele>10</ele>
        <time>2011-09-01T14:50:14Z</time>
      </trkpt>
      <trkpt lat="47.44503" lon="-0.59675">
        <ele>10</ele>
        <time>2011-09-01T14:50:15Z</time>
      </trkpt>
      <trkpt lat="47.44506" lon="-0.59672">
        <ele>11</ele>
        <time>2011-09-01T14:50:16Z</time>
      </trkpt>
      <trkpt lat="47.4451" lon="-0.59669">
        <ele>11</ele>
        <time>2011-09-01T14:50:17Z</time>
      </trkpt>
      <trkpt lat="47.44513" lon="-0.59667">
        <ele>11</ele>
        <time>2011-09-01T14:50:18Z</time>
      </trkpt>
      <trkpt lat="47.44516" lon="-0.59664">
        <ele>11</ele>
        <time>2011-09-01T14:50:19Z</time>
      </trkpt>
      <trkpt lat="47.44519" lon="-0.59661">
        <ele>11</ele>
        <time>2011-09-01T14:50:20Z</time>
      </trkpt>
      <trkpt lat="47.44522" lon="-0.59659">
        <ele>11</ele>
        <time>2011-09-01T14:50:21Z</time>
      </trkpt>
      <trkpt lat="47.44526" lon="-0.59657">
        <ele>11</ele>
        <time>2011-09-01T14:50:22Z</time>
      </trkpt>
      <trkpt lat="47.44528" lon="-0.59655">
        <ele>11</ele>
        <time>2011-09-01T14:50:23Z</time>
      </trkpt>
      <trkpt lat="47.44531" lon="-0.59652">
        <ele>11</ele>
        <time>2011-09-01T14:50:24Z</time>
      </trkpt>
      <trkpt lat="47.44534" lon="-0.59649">
        <ele>11</ele>
        <time>2011-09-01T14:50:25Z</time>
      </trkpt>
      <trkpt lat="47.44537" lon="-0.59646">
        <ele>11</ele>
        <time>2011-09-01T14:50:26Z</time>
      </trkpt>
      <trkpt lat="47.44541" lon="-0.59643">
        <ele>11</ele>
        <time>2011-09-01T14:50:27Z</time>
      </trkpt>
      <trkpt lat="47.44545" lon="-0.5964">
        <ele>10</ele>
        <time>2011-09-01T14:50:28Z</time>
      </trkpt>
      <trkpt lat="47.44548" lon="-0.59637">
        <ele>9</ele>
        <time>2011-09-01T14:50:29Z</time>
      </trkpt>
      <trkpt lat="47.44551" lon="-0.59634">
        <ele>9</ele>
        <time>2011-09-01T14:50:30Z</time>
      </trkpt>
      <trkpt lat="47.44555" lon="-0.59632">
        <ele>8</ele>
        <time>2011-09-01T14:50:31Z</time>
      </trkpt>
      <trkpt lat="47.44558" lon="-0.5963">
        <ele>7</ele>
        <time>2011-09-01T14:50:32Z</time>
      </trkpt>
      <trkpt lat="47.44561" lon="-0.59628">
        <ele>7</ele>
        <time>2011-09-01T14:50:33Z</time>
      </trkpt>
      <trkpt lat="47.44564" lon="-0.59626">
        <ele>6</ele>
        <time>2011-09-01T14:50:34Z</time>
      </trkpt>
      <trkpt lat="47.44567" lon="-0.59624">
        <ele>6</ele>
        <time>2011-09-01T14:50:35Z</time>
      </trkpt>
      <trkpt lat="47.4457" lon="-0.59622">
        <ele>5</ele>
        <time>2011-09-01T14:50:36Z</time>
      </trkpt>
      <trkpt lat="47.44574" lon="-0.5962">
        <ele>5</ele>
        <time>2011-09-01T14:50:37Z</time>
      </trkpt>
      <trkpt lat="47.44577" lon="-0.59618">
        <ele>4</ele>
        <time>2011-09-01T14:50:38Z</time>
      </trkpt>
      <trkpt lat="47.44581" lon="-0.59615">
        <ele>4</ele>
        <time>2011-09-01T14:50:39Z</time>
      </trkpt>
      <trkpt lat="47.44584" lon="-0.59613">
        <ele>4</ele>
        <time>2011-09-01T14:50:40Z</time>
      </trkpt>
      <trkpt lat="47.44588" lon="-0.59611">
        <ele>4</ele>
        <time>2011-09-01T14:50:41Z</time>
      </trkpt>
      <trkpt lat="47.44592" lon="-0.59609">
        <ele>4</ele>
        <time>2011-09-01T14:50:42Z</time>
      </trkpt>
      <trkpt lat="47.44596" lon="-0.59607">
        <ele>4</ele>
        <time>2011-09-01T14:50:43Z</time>
      </trkpt>
      <trkpt lat="47.446" lon="-0.59604">
        <ele>4</ele>
        <time>2011-09-01T14:50:44Z</time>
      </trkpt>
      <trkpt lat="47.44604" lon="-0.59602">
        <ele>4</ele>
        <time>2011-09-01T14:50:45Z</time>
      </trkpt>
      <trkpt lat="47.44607" lon="-0.596">
        <ele>4</ele>
        <time>2011-09-01T14:50:46Z</time>
      </trkpt>
      <trkpt lat="47.44611" lon="-0.59599">
        <ele>4</ele>
        <time>2011-09-01T14:50:47Z</time>
      </trkpt>
      <trkpt lat="47.44614" lon="-0.59597">
        <ele>4</ele>
        <time>2011-09-01T14:50:48Z</time>
      </trkpt>
      <trkpt lat="47.44617" lon="-0.59596">
        <ele>4</ele>
        <time>2011-09-01T14:50:49Z</time>
      </trkpt>
      <trkpt lat="47.44622" lon="-0.59593">
        <ele>4</ele>
        <time>2011-09-01T14:50:50Z</time>
      </trkpt>
      <trkpt lat="47.44625" lon="-0.59592">
        <ele>4</ele>
        <time>2011-09-01T14:50:51Z</time>
      </trkpt>
      <trkpt lat="47.44628" lon="-0.59591">
        <ele>4</ele>
        <time>2011-09-01T14:50:52Z</time>
      </trkpt>
      <trkpt lat="47.4463" lon="-0.5959">
        <ele>4</ele>
        <time>2011-09-01T14:50:53Z</time>
      </trkpt>
      <trkpt lat="47.44633" lon="-0.59589">
        <ele>4</ele>
        <time>2011-09-01T14:50:54Z</time>
      </trkpt>
      <trkpt lat="47.44636" lon="-0.59588">
        <ele>4</ele>
        <time>2011-09-01T14:50:55Z</time>
      </trkpt>
      <trkpt lat="47.44638" lon="-0.59587">
        <ele>4</ele>
        <time>2011-09-01T14:50:56Z</time>
      </trkpt>
      <trkpt lat="47.4464" lon="-0.59586">
        <ele>4</ele>
        <time>2011-09-01T14:50:57Z</time>
      </trkpt>
      <trkpt lat="47.44642" lon="-0.59586">
        <ele>4</ele>
        <time>2011-09-01T14:50:58Z</time>
      </trkpt>
      <trkpt lat="47.44645" lon="-0.59585">
        <ele>4</ele>
        <time>2011-09-01T14:50:59Z</time>
      </trkpt>
      <trkpt lat="47.44648" lon="-0.59584">
        <ele>4</ele>
        <time>2011-09-01T14:51:00Z</time>
      </trkpt>
      <trkpt lat="47.44651" lon="-0.59583">
        <ele>4</ele>
        <time>2011-09-01T14:51:01Z</time>
      </trkpt>
      <trkpt lat="47.44655" lon="-0.59582">
        <ele>4</ele>
        <time>2011-09-01T14:51:02Z</time>
      </trkpt>
      <trkpt lat="47.44659" lon="-0.5958">
        <ele>4</ele>
        <time>2011-09-01T14:51:03Z</time>
      </trkpt>
      <trkpt lat="47.44662" lon="-0.59579">
        <ele>4</ele>
        <time>2011-09-01T14:51:04Z</time>
      </trkpt>
      <trkpt lat="47.44665" lon="-0.59578">
        <ele>4</ele>
        <time>2011-09-01T14:51:05Z</time>
      </trkpt>
      <trkpt lat="47.44668" lon="-0.59576">
        <ele>4</ele>
        <time>2011-09-01T14:51:06Z</time>
      </trkpt>
      <trkpt lat="47.44671" lon="-0.59576">
        <ele>4</ele>
        <time>2011-09-01T14:51:07Z</time>
      </trkpt>
      <trkpt lat="47.44674" lon="-0.59575">
        <ele>4</ele>
        <time>2011-09-01T14:51:08Z</time>
      </trkpt>
      <trkpt lat="47.44678" lon="-0.59573">
        <ele>4</ele>
        <time>2011-09-01T14:51:09Z</time>
      </trkpt>
      <trkpt lat="47.44683" lon="-0.59571">
        <ele>4</ele>
        <time>2011-09-01T14:51:10Z</time>
      </trkpt>
      <trkpt lat="47.44687" lon="-0.5957">
        <ele>4</ele>
        <time>2011-09-01T14:51:11Z</time>
      </trkpt>
      <trkpt lat="47.44691" lon="-0.59568">
        <ele>4</ele>
        <time>2011-09-01T14:51:12Z</time>
      </trkpt>
      <trkpt lat="47.44695" lon="-0.59567">
        <ele>4</ele>
        <time>2011-09-01T14:51:13Z</time>
      </trkpt>
      <trkpt lat="47.44699" lon="-0.59565">
        <ele>4</ele>
        <time>2011-09-01T14:51:14Z</time>
      </trkpt>
      <trkpt lat="47.44703" lon="-0.59563">
        <ele>4</ele>
        <time>2011-09-01T14:51:15Z</time>
      </trkpt>
      <trkpt lat="47.44707" lon="-0.59562">
        <ele>4</ele>
        <time>2011-09-01T14:51:16Z</time>
      </trkpt>
      <trkpt lat="47.4471" lon="-0.59561">
        <ele>4</ele>
        <time>2011-09-01T14:51:17Z</time>
      </trkpt>
      <trkpt lat="47.44714" lon="-0.5956">
        <ele>4</ele>
        <time>2011-09-01T14:51:18Z</time>
      </trkpt>
      <trkpt lat="47.44717" lon="-0.59558">
        <ele>4</ele>
        <time>2011-09-01T14:51:19Z</time>
      </trkpt>
      <trkpt lat="47.4472" lon="-0.59556">
        <ele>4</ele>
        <time>2011-09-01T14:51:20Z</time>
      </trkpt>
      <trkpt lat="47.44724" lon="-0.59554">
        <ele>4</ele>
        <time>2011-09-01T14:51:21Z</time>
      </trkpt>
      <trkpt lat="47.44728" lon="-0.59554">
        <ele>4</ele>
        <time>2011-09-01T14:51:22Z</time>
      </trkpt>
      <trkpt lat="47.44731" lon="-0.59553">
        <ele>4</ele>
        <time>2011-09-01T14:51:23Z</time>
      </trkpt>
      <trkpt lat="47.44735" lon="-0.59552">
        <ele>4</ele>
        <time>2011-09-01T14:51:24Z</time>
      </trkpt>
      <trkpt lat="47.44738" lon="-0.59551">
        <ele>4</ele>
        <time>2011-09-01T14:51:25Z</time>
      </trkpt>
      <trkpt lat="47.44742" lon="-0.59549">
        <ele>4</ele>
        <time>2011-09-01T14:51:26Z</time>
      </trkpt>
      <trkpt lat="47.44746" lon="-0.59547">
        <ele>4</ele>
        <time>2011-09-01T14:51:27Z</time>
      </trkpt>
      <trkpt lat="47.4475" lon="-0.59546">
        <ele>4</ele>
        <time>2011-09-01T14:51:28Z</time>
      </trkpt>
      <trkpt lat="47.44754" lon="-0.59544">
        <ele>4</ele>
        <time>2011-09-01T14:51:29Z</time>
      </trkpt>
      <trkpt lat="47.44756" lon="-0.59543">
        <ele>4</ele>
        <time>2011-09-01T14:51:30Z</time>
      </trkpt>
      <trkpt lat="47.4476" lon="-0.59541">
        <ele>4</ele>
        <time>2011-09-01T14:51:31Z</time>
      </trkpt>
      <trkpt lat="47.44764" lon="-0.59539">
        <ele>4</ele>
        <time>2011-09-01T14:51:32Z</time>
      </trkpt>
      <trkpt lat="47.44767" lon="-0.59538">
        <ele>4</ele>
        <time>2011-09-01T14:51:33Z</time>
      </trkpt>
      <trkpt lat="47.4477" lon="-0.59536">
        <ele>4</ele>
        <time>2011-09-01T14:51:34Z</time>
      </trkpt>
      <trkpt lat="47.44774" lon="-0.59535">
        <ele>4</ele>
        <time>2011-09-01T14:51:35Z</time>
      </trkpt>
      <trkpt lat="47.44778" lon="-0.59534">
        <ele>4</ele>
        <time>2011-09-01T14:51:36Z</time>
      </trkpt>
      <trkpt lat="47.44781" lon="-0.59533">
        <ele>4</ele>
        <time>2011-09-01T14:51:37Z</time>
      </trkpt>
      <trkpt lat="47.44785" lon="-0.59532">
        <ele>4</ele>
        <time>2011-09-01T14:51:38Z</time>
      </trkpt>
      <trkpt lat="47.44788" lon="-0.59531">
        <ele>4</ele>
        <time>2011-09-01T14:51:39Z</time>
      </trkpt>
      <trkpt lat="47.44791" lon="-0.59529">
        <ele>4</ele>
        <time>2011-09-01T14:51:40Z</time>
      </trkpt>
      <trkpt lat="47.44794" lon="-0.59528">
        <ele>4</ele>
        <time>2011-09-01T14:51:41Z</time>
      </trkpt>
      <trkpt lat="47.44797" lon="-0.59527">
        <ele>4</ele>
        <time>2011-09-01T14:51:42Z</time>
      </trkpt>
      <trkpt lat="47.44799" lon="-0.59526">
        <ele>4</ele>
        <time>2011-09-01T14:51:43Z</time>
      </trkpt>
      <trkpt lat="47.44803" lon="-0.59524">
        <ele>4</ele>
        <time>2011-09-01T14:51:44Z</time>
      </trkpt>
      <trkpt lat="47.44806" lon="-0.59523">
        <ele>4</ele>
        <time>2011-09-01T14:51:45Z</time>
      </trkpt>
      <trkpt lat="47.44809" lon="-0.59521">
        <ele>4</ele>
        <time>2011-09-01T14:51:46Z</time>
      </trkpt>
      <trkpt lat="47.44813" lon="-0.59519">
        <ele>4</ele>
        <time>2011-09-01T14:51:47Z</time>
      </trkpt>
      <trkpt lat="47.44816" lon="-0.59517">
        <ele>4</ele>
        <time>2011-09-01T14:51:48Z</time>
      </trkpt>
      <trkpt lat="47.44819" lon="-0.59516">
        <ele>4</ele>
        <time>2011-09-01T14:51:49Z</time>
      </trkpt>
      <trkpt lat="47.44822" lon="-0.59515">
        <ele>4</ele>
        <time>2011-09-01T14:51:50Z</time>
      </trkpt>
      <trkpt lat="47.44825" lon="-0.59514">
        <ele>4</ele>
        <time>2011-09-01T14:51:51Z</time>
      </trkpt>
      <trkpt lat="47.44828" lon="-0.59513">
        <ele>4</ele>
        <time>2011-09-01T14:51:52Z</time>
      </trkpt>
      <trkpt lat="47.44832" lon="-0.59512">
        <ele>4</ele>
        <time>2011-09-01T14:51:53Z</time>
      </trkpt>
      <trkpt lat="47.44836" lon="-0.59511">
        <ele>4</ele>
        <time>2011-09-01T14:51:54Z</time>
      </trkpt>
      <trkpt lat="47.44839" lon="-0.59509">
        <ele>4</ele>
        <time>2011-09-01T14:51:55Z</time>
      </trkpt>
      <trkpt lat="47.44842" lon="-0.59508">
        <ele>4</ele>
        <time>2011-09-01T14:51:56Z</time>
      </trkpt>
      <trkpt lat="47.44846" lon="-0.59506">
        <ele>4</ele>
        <time>2011-09-01T14:51:57Z</time>
      </trkpt>
      <trkpt lat="47.44849" lon="-0.59505">
        <ele>4</ele>
        <time>2011-09-01T14:51:58Z</time>
      </trkpt>
      <trkpt lat="47.44852" lon="-0.59504">
        <ele>4</ele>
        <time>2011-09-01T14:51:59Z</time>
      </trkpt>
      <trkpt lat="47.44855" lon="-0.59502">
        <ele>4</ele>
        <time>2011-09-01T14:52:00Z</time>
      </trkpt>
      <trkpt lat="47.44859" lon="-0.59501">
        <ele>4</ele>
        <time>2011-09-01T14:52:01Z</time>
      </trkpt>
      <trkpt lat="47.44862" lon="-0.595">
        <ele>4</ele>
        <time>2011-09-01T14:52:02Z</time>
      </trkpt>
      <trkpt lat="47.44864" lon="-0.59499">
        <ele>4</ele>
        <time>2011-09-01T14:52:03Z</time>
      </trkpt>
      <trkpt lat="47.44867" lon="-0.59498">
        <ele>4</ele>
        <time>2011-09-01T14:52:04Z</time>
      </trkpt>
      <trkpt lat="47.4487" lon="-0.59497">
        <ele>4</ele>
        <time>2011-09-01T14:52:05Z</time>
      </trkpt>
      <trkpt lat="47.44873" lon="-0.59495">
        <ele>4</ele>
        <time>2011-09-01T14:52:06Z</time>
      </trkpt>
      <trkpt lat="47.44876" lon="-0.59493">
        <ele>4</ele>
        <time>2011-09-01T14:52:07Z</time>
      </trkpt>
      <trkpt lat="47.44879" lon="-0.59491">
        <ele>4</ele>
        <time>2011-09-01T14:52:08Z</time>
      </trkpt>
      <trkpt lat="47.44882" lon="-0.59489">
        <ele>4</ele>
        <time>2011-09-01T14:52:09Z</time>
      </trkpt>
      <trkpt lat="47.44885" lon="-0.59487">
        <ele>4</ele>
        <time>2011-09-01T14:52:10Z</time>
      </trkpt>
      <trkpt lat="47.44888" lon="-0.59486">
        <ele>4</ele>
        <time>2011-09-01T14:52:11Z</time>
      </trkpt>
      <trkpt lat="47.44891" lon="-0.59484">
        <ele>4</ele>
        <time>2011-09-01T14:52:12Z</time>
      </trkpt>
      <trkpt lat="47.44894" lon="-0.59482">
        <ele>4</ele>
        <time>2011-09-01T14:52:13Z</time>
      </trkpt>
      <trkpt lat="47.44897" lon="-0.5948">
        <ele>4</ele>
        <time>2011-09-01T14:52:14Z</time>
      </trkpt>
      <trkpt lat="47.449" lon="-0.59478">
        <ele>5</ele>
        <time>2011-09-01T14:52:15Z</time>
      </trkpt>
      <trkpt lat="47.44902" lon="-0.59476">
        <ele>5</ele>
        <time>2011-09-01T14:52:16Z</time>
      </trkpt>
      <trkpt lat="47.44905" lon="-0.59474">
        <ele>6</ele>
        <time>2011-09-01T14:52:17Z</time>
      </trkpt>
      <trkpt lat="47.44907" lon="-0.59472">
        <ele>6</ele>
        <time>2011-09-01T14:52:18Z</time>
      </trkpt>
      <trkpt lat="47.4491" lon="-0.59469">
        <ele>7</ele>
        <time>2011-09-01T14:52:19Z</time>
      </trkpt>
      <trkpt lat="47.44912" lon="-0.59467">
        <ele>7</ele>
        <time>2011-09-01T14:52:20Z</time>
      </trkpt>
      <trkpt lat="47.44915" lon="-0.59465">
        <ele>8</ele>
        <time>2011-09-01T14:52:21Z</time>
      </trkpt>
      <trkpt lat="47.44917" lon="-0.59463">
        <ele>8</ele>
        <time>2011-09-01T14:52:22Z</time>
      </trkpt>
      <trkpt lat="47.44919" lon="-0.5946">
        <ele>8</ele>
        <time>2011-09-01T14:52:23Z</time>
      </trkpt>
      <trkpt lat="47.44922" lon="-0.59457">
        <ele>8</ele>
        <time>2011-09-01T14:52:24Z</time>
      </trkpt>
      <trkpt lat="47.44925" lon="-0.59453">
        <ele>9</ele>
        <time>2011-09-01T14:52:25Z</time>
      </trkpt>
      <trkpt lat="47.44927" lon="-0.5945">
        <ele>9</ele>
        <time>2011-09-01T14:52:26Z</time>
      </trkpt>
      <trkpt lat="47.4493" lon="-0.59447">
        <ele>9</ele>
        <time>2011-09-01T14:52:27Z</time>
      </trkpt>
      <trkpt lat="47.44932" lon="-0.59444">
        <ele>9</ele>
        <time>2011-09-01T14:52:28Z</time>
      </trkpt>
      <trkpt lat="47.44936" lon="-0.5944">
        <ele>9</ele>
        <time>2011-09-01T14:52:29Z</time>
      </trkpt>
      <trkpt lat="47.4494" lon="-0.59436">
        <ele>9</ele>
        <time>2011-09-01T14:52:30Z</time>
      </trkpt>
      <trkpt lat="47.44942" lon="-0.59433">
        <ele>9</ele>
        <time>2011-09-01T14:52:31Z</time>
      </trkpt>
      <trkpt lat="47.44944" lon="-0.5943">
        <ele>9</ele>
        <time>2011-09-01T14:52:32Z</time>
      </trkpt>
      <trkpt lat="47.44947" lon="-0.59426">
        <ele>9</ele>
        <time>2011-09-01T14:52:33Z</time>
      </trkpt>
      <trkpt lat="47.4495" lon="-0.59423">
        <ele>9</ele>
        <time>2011-09-01T14:52:34Z</time>
      </trkpt>
      <trkpt lat="47.44953" lon="-0.59419">
        <ele>9</ele>
        <time>2011-09-01T14:52:35Z</time>
      </trkpt>
      <trkpt lat="47.44956" lon="-0.59415">
        <ele>9</ele>
        <time>2011-09-01T14:52:36Z</time>
      </trkpt>
      <trkpt lat="47.44958" lon="-0.59411">
        <ele>9</ele>
        <time>2011-09-01T14:52:37Z</time>
      </trkpt>
      <trkpt lat="47.4496" lon="-0.59407">
        <ele>9</ele>
        <time>2011-09-01T14:52:38Z</time>
      </trkpt>
      <trkpt lat="47.44962" lon="-0.59403">
        <ele>9</ele>
        <time>2011-09-01T14:52:39Z</time>
      </trkpt>
      <trkpt lat="47.44964" lon="-0.59399">
        <ele>9</ele>
        <time>2011-09-01T14:52:40Z</time>
      </trkpt>
      <trkpt lat="47.44967" lon="-0.59396">
        <ele>9</ele>
        <time>2011-09-01T14:52:41Z</time>
      </trkpt>
      <trkpt lat="47.44969" lon="-0.59393">
        <ele>9</ele>
        <time>2011-09-01T14:52:42Z</time>
      </trkpt>
      <trkpt lat="47.44972" lon="-0.5939">
        <ele>9</ele>
        <time>2011-09-01T14:52:43Z</time>
      </trkpt>
      <trkpt lat="47.44974" lon="-0.59386">
        <ele>9</ele>
        <time>2011-09-01T14:52:44Z</time>
      </trkpt>
      <trkpt lat="47.44975" lon="-0.59382">
        <ele>9</ele>
        <time>2011-09-01T14:52:45Z</time>
      </trkpt>
      <trkpt lat="47.44975" lon="-0.59379">
        <ele>9</ele>
        <time>2011-09-01T14:52:46Z</time>
      </trkpt>
      <trkpt lat="47.44976" lon="-0.59376">
        <ele>9</ele>
        <time>2011-09-01T14:52:47Z</time>
      </trkpt>
      <trkpt lat="47.44976" lon="-0.59373">
        <ele>9</ele>
        <time>2011-09-01T14:52:48Z</time>
      </trkpt>
      <trkpt lat="47.44977" lon="-0.5937">
        <ele>9</ele>
        <time>2011-09-01T14:52:49Z</time>
      </trkpt>
      <trkpt lat="47.44978" lon="-0.59367">
        <ele>9</ele>
        <time>2011-09-01T14:52:50Z</time>
      </trkpt>
      <trkpt lat="47.44981" lon="-0.59361">
        <ele>9</ele>
        <time>2011-09-01T14:52:51Z</time>
      </trkpt>
      <trkpt lat="47.44982" lon="-0.59358">
        <ele>10</ele>
        <time>2011-09-01T14:52:52Z</time>
      </trkpt>
      <trkpt lat="47.44983" lon="-0.59355">
        <ele>10</ele>
        <time>2011-09-01T14:52:53Z</time>
      </trkpt>
      <trkpt lat="47.44984" lon="-0.59351">
        <ele>11</ele>
        <time>2011-09-01T14:52:54Z</time>
      </trkpt>
      <trkpt lat="47.44985" lon="-0.59347">
        <ele>11</ele>
        <time>2011-09-01T14:52:55Z</time>
      </trkpt>
      <trkpt lat="47.44987" lon="-0.59344">
        <ele>12</ele>
        <time>2011-09-01T14:52:56Z</time>
      </trkpt>
      <trkpt lat="47.44989" lon="-0.59341">
        <ele>13</ele>
        <time>2011-09-01T14:52:57Z</time>
      </trkpt>
      <trkpt lat="47.44992" lon="-0.59336">
        <ele>13</ele>
        <time>2011-09-01T14:52:58Z</time>
      </trkpt>
      <trkpt lat="47.44995" lon="-0.59333">
        <ele>14</ele>
        <time>2011-09-01T14:52:59Z</time>
      </trkpt>
      <trkpt lat="47.44996" lon="-0.5933">
        <ele>14</ele>
        <time>2011-09-01T14:53:00Z</time>
      </trkpt>
      <trkpt lat="47.44998" lon="-0.59326">
        <ele>14</ele>
        <time>2011-09-01T14:53:01Z</time>
      </trkpt>
      <trkpt lat="47.44999" lon="-0.59323">
        <ele>14</ele>
        <time>2011-09-01T14:53:02Z</time>
      </trkpt>
      <trkpt lat="47.45001" lon="-0.5932">
        <ele>14</ele>
        <time>2011-09-01T14:53:03Z</time>
      </trkpt>
      <trkpt lat="47.45002" lon="-0.59316">
        <ele>14</ele>
        <time>2011-09-01T14:53:04Z</time>
      </trkpt>
      <trkpt lat="47.45004" lon="-0.59313">
        <ele>14</ele>
        <time>2011-09-01T14:53:05Z</time>
      </trkpt>
      <trkpt lat="47.45007" lon="-0.59309">
        <ele>14</ele>
        <time>2011-09-01T14:53:06Z</time>
      </trkpt>
      <trkpt lat="47.45009" lon="-0.59305">
        <ele>14</ele>
        <time>2011-09-01T14:53:07Z</time>
      </trkpt>
      <trkpt lat="47.45011" lon="-0.59302">
        <ele>14</ele>
        <time>2011-09-01T14:53:08Z</time>
      </trkpt>
      <trkpt lat="47.45013" lon="-0.59298">
        <ele>14</ele>
        <time>2011-09-01T14:53:09Z</time>
      </trkpt>
      <trkpt lat="47.45015" lon="-0.59294">
        <ele>14</ele>
        <time>2011-09-01T14:53:10Z</time>
      </trkpt>
      <trkpt lat="47.45017" lon="-0.59291">
        <ele>13</ele>
        <time>2011-09-01T14:53:11Z</time>
      </trkpt>
      <trkpt lat="47.4502" lon="-0.59287">
        <ele>13</ele>
        <time>2011-09-01T14:53:12Z</time>
      </trkpt>
      <trkpt lat="47.45021" lon="-0.59284">
        <ele>13</ele>
        <time>2011-09-01T14:53:13Z</time>
      </trkpt>
      <trkpt lat="47.45022" lon="-0.59281">
        <ele>13</ele>
        <time>2011-09-01T14:53:14Z</time>
      </trkpt>
      <trkpt lat="47.45024" lon="-0.59279">
        <ele>13</ele>
        <time>2011-09-01T14:53:15Z</time>
      </trkpt>
      <trkpt lat="47.45025" lon="-0.59276">
        <ele>13</ele>
        <time>2011-09-01T14:53:16Z</time>
      </trkpt>
      <trkpt lat="47.45026" lon="-0.59273">
        <ele>13</ele>
        <time>2011-09-01T14:53:17Z</time>
      </trkpt>
      <trkpt lat="47.45027" lon="-0.5927">
        <ele>13</ele>
        <time>2011-09-01T14:53:18Z</time>
      </trkpt>
      <trkpt lat="47.45029" lon="-0.59266">
        <ele>13</ele>
        <time>2011-09-01T14:53:19Z</time>
      </trkpt>
      <trkpt lat="47.45031" lon="-0.59262">
        <ele>13</ele>
        <time>2011-09-01T14:53:20Z</time>
      </trkpt>
      <trkpt lat="47.45033" lon="-0.59258">
        <ele>13</ele>
        <time>2011-09-01T14:53:21Z</time>
      </trkpt>
      <trkpt lat="47.45035" lon="-0.59254">
        <ele>13</ele>
        <time>2011-09-01T14:53:22Z</time>
      </trkpt>
      <trkpt lat="47.45036" lon="-0.5925">
        <ele>13</ele>
        <time>2011-09-01T14:53:23Z</time>
      </trkpt>
      <trkpt lat="47.45037" lon="-0.59247">
        <ele>13</ele>
        <time>2011-09-01T14:53:24Z</time>
      </trkpt>
      <trkpt lat="47.45038" lon="-0.59243">
        <ele>13</ele>
        <time>2011-09-01T14:53:25Z</time>
      </trkpt>
      <trkpt lat="47.4504" lon="-0.59239">
        <ele>13</ele>
        <time>2011-09-01T14:53:26Z</time>
      </trkpt>
      <trkpt lat="47.45042" lon="-0.59236">
        <ele>13</ele>
        <time>2011-09-01T14:53:27Z</time>
      </trkpt>
      <trkpt lat="47.45044" lon="-0.59232">
        <ele>13</ele>
        <time>2011-09-01T14:53:28Z</time>
      </trkpt>
      <trkpt lat="47.45046" lon="-0.59228">
        <ele>13</ele>
        <time>2011-09-01T14:53:29Z</time>
      </trkpt>
      <trkpt lat="47.45048" lon="-0.59225">
        <ele>13</ele>
        <time>2011-09-01T14:53:30Z</time>
      </trkpt>
      <trkpt lat="47.45048" lon="-0.59222">
        <ele>14</ele>
        <time>2011-09-01T14:53:31Z</time>
      </trkpt>
      <trkpt lat="47.45049" lon="-0.59219">
        <ele>14</ele>
        <time>2011-09-01T14:53:32Z</time>
      </trkpt>
      <trkpt lat="47.45051" lon="-0.59215">
        <ele>15</ele>
        <time>2011-09-01T14:53:33Z</time>
      </trkpt>
      <trkpt lat="47.45053" lon="-0.59212">
        <ele>15</ele>
        <time>2011-09-01T14:53:34Z</time>
      </trkpt>
      <trkpt lat="47.45055" lon="-0.5921">
        <ele>15</ele>
        <time>2011-09-01T14:53:35Z</time>
      </trkpt>
      <trkpt lat="47.45057" lon="-0.59207">
        <ele>15</ele>
        <time>2011-09-01T14:53:36Z</time>
      </trkpt>
      <trkpt lat="47.45059" lon="-0.59204">
        <ele>16</ele>
        <time>2011-09-01T14:53:37Z</time>
      </trkpt>
      <trkpt lat="47.4506" lon="-0.59201">
        <ele>16</ele>
        <time>2011-09-01T14:53:38Z</time>
      </trkpt>
      <trkpt lat="47.45062" lon="-0.59198">
        <ele>16</ele>
        <time>2011-09-01T14:53:39Z</time>
      </trkpt>
      <trkpt lat="47.45063" lon="-0.59195">
        <ele>16</ele>
        <time>2011-09-01T14:53:40Z</time>
      </trkpt>
      <trkpt lat="47.45064" lon="-0.59191">
        <ele>17</ele>
        <time>2011-09-01T14:53:41Z</time>
      </trkpt>
      <trkpt lat="47.45065" lon="-0.59188">
        <ele>17</ele>
        <time>2011-09-01T14:53:42Z</time>
      </trkpt>
      <trkpt lat="47.45066" lon="-0.59185">
        <ele>17</ele>
        <time>2011-09-01T14:53:43Z</time>
      </trkpt>
      <trkpt lat="47.45067" lon="-0.59183">
        <ele>17</ele>
        <time>2011-09-01T14:53:44Z</time>
      </trkpt>
      <trkpt lat="47.45069" lon="-0.59179">
        <ele>17</ele>
        <time>2011-09-01T14:53:45Z</time>
      </trkpt>
      <trkpt lat="47.45071" lon="-0.59175">
        <ele>18</ele>
        <time>2011-09-01T14:53:46Z</time>
      </trkpt>
      <trkpt lat="47.45072" lon="-0.59172">
        <ele>18</ele>
        <time>2011-09-01T14:53:47Z</time>
      </trkpt>
      <trkpt lat="47.45075" lon="-0.59167">
        <ele>18</ele>
        <time>2011-09-01T14:53:48Z</time>
      </trkpt>
      <trkpt lat="47.45078" lon="-0.59162">
        <ele>19</ele>
        <time>2011-09-01T14:53:49Z</time>
      </trkpt>
      <trkpt lat="47.45081" lon="-0.59157">
        <ele>19</ele>
        <time>2011-09-01T14:53:50Z</time>
      </trkpt>
      <trkpt lat="47.45085" lon="-0.59152">
        <ele>19</ele>
        <time>2011-09-01T14:53:51Z</time>
      </trkpt>
      <trkpt lat="47.45088" lon="-0.59148">
        <ele>19</ele>
        <time>2011-09-01T14:53:52Z</time>
      </trkpt>
      <trkpt lat="47.45092" lon="-0.59143">
        <ele>19</ele>
        <time>2011-09-01T14:53:53Z</time>
      </trkpt>
      <trkpt lat="47.45094" lon="-0.59138">
        <ele>19</ele>
        <time>2011-09-01T14:53:54Z</time>
      </trkpt>
      <trkpt lat="47.45095" lon="-0.59134">
        <ele>19</ele>
        <time>2011-09-01T14:53:55Z</time>
      </trkpt>
      <trkpt lat="47.45098" lon="-0.59128">
        <ele>19</ele>
        <time>2011-09-01T14:53:56Z</time>
      </trkpt>
      <trkpt lat="47.45101" lon="-0.59124">
        <ele>19</ele>
        <time>2011-09-01T14:53:57Z</time>
      </trkpt>
      <trkpt lat="47.45103" lon="-0.5912">
        <ele>19</ele>
        <time>2011-09-01T14:53:58Z</time>
      </trkpt>
      <trkpt lat="47.45105" lon="-0.59116">
        <ele>19</ele>
        <time>2011-09-01T14:53:59Z</time>
      </trkpt>
      <trkpt lat="47.45107" lon="-0.59112">
        <ele>19</ele>
        <time>2011-09-01T14:54:00Z</time>
      </trkpt>
      <trkpt lat="47.45109" lon="-0.59109">
        <ele>19</ele>
        <time>2011-09-01T14:54:01Z</time>
      </trkpt>
      <trkpt lat="47.4511" lon="-0.59105">
        <ele>19</ele>
        <time>2011-09-01T14:54:02Z</time>
      </trkpt>
      <trkpt lat="47.45112" lon="-0.59101">
        <ele>19</ele>
        <time>2011-09-01T14:54:03Z</time>
      </trkpt>
      <trkpt lat="47.45113" lon="-0.59097">
        <ele>19</ele>
        <time>2011-09-01T14:54:04Z</time>
      </trkpt>
      <trkpt lat="47.45113" lon="-0.59094">
        <ele>19</ele>
        <time>2011-09-01T14:54:05Z</time>
      </trkpt>
      <trkpt lat="47.45114" lon="-0.59091">
        <ele>19</ele>
        <time>2011-09-01T14:54:06Z</time>
      </trkpt>
      <trkpt lat="47.45115" lon="-0.59088">
        <ele>19</ele>
        <time>2011-09-01T14:54:07Z</time>
      </trkpt>
      <trkpt lat="47.45116" lon="-0.59086">
        <ele>19</ele>
        <time>2011-09-01T14:54:08Z</time>
      </trkpt>
      <trkpt lat="47.45116" lon="-0.59083">
        <ele>19</ele>
        <time>2011-09-01T14:54:09Z</time>
      </trkpt>
      <trkpt lat="47.45118" lon="-0.59081">
        <ele>19</ele>
        <time>2011-09-01T14:54:10Z</time>
      </trkpt>
      <trkpt lat="47.45118" lon="-0.59077">
        <ele>19</ele>
        <time>2011-09-01T14:54:11Z</time>
      </trkpt>
      <trkpt lat="47.45119" lon="-0.59075">
        <ele>19</ele>
        <time>2011-09-01T14:54:12Z</time>
      </trkpt>
      <trkpt lat="47.45121" lon="-0.59072">
        <ele>19</ele>
        <time>2011-09-01T14:54:13Z</time>
      </trkpt>
      <trkpt lat="47.45122" lon="-0.5907">
        <ele>19</ele>
        <time>2011-09-01T14:54:14Z</time>
      </trkpt>
      <trkpt lat="47.45124" lon="-0.59068">
        <ele>19</ele>
        <time>2011-09-01T14:54:15Z</time>
      </trkpt>
      <trkpt lat="47.45125" lon="-0.59065">
        <ele>19</ele>
        <time>2011-09-01T14:54:16Z</time>
      </trkpt>
      <trkpt lat="47.45126" lon="-0.59062">
        <ele>19</ele>
        <time>2011-09-01T14:54:17Z</time>
      </trkpt>
      <trkpt lat="47.45127" lon="-0.59059">
        <ele>19</ele>
        <time>2011-09-01T14:54:18Z</time>
      </trkpt>
      <trkpt lat="47.45128" lon="-0.59057">
        <ele>19</ele>
        <time>2011-09-01T14:54:19Z</time>
      </trkpt>
      <trkpt lat="47.45129" lon="-0.59056">
        <ele>19</ele>
        <time>2011-09-01T14:54:20Z</time>
      </trkpt>
      <trkpt lat="47.45128" lon="-0.59054">
        <ele>19</ele>
        <time>2011-09-01T14:54:21Z</time>
      </trkpt>
      <trkpt lat="47.45129" lon="-0.59051">
        <ele>20</ele>
        <time>2011-09-01T14:54:22Z</time>
      </trkpt>
      <trkpt lat="47.45131" lon="-0.59048">
        <ele>20</ele>
        <time>2011-09-01T14:54:23Z</time>
      </trkpt>
      <trkpt lat="47.45132" lon="-0.59044">
        <ele>21</ele>
        <time>2011-09-01T14:54:24Z</time>
      </trkpt>
      <trkpt lat="47.45133" lon="-0.5904">
        <ele>21</ele>
        <time>2011-09-01T14:54:25Z</time>
      </trkpt>
      <trkpt lat="47.45134" lon="-0.59037">
        <ele>22</ele>
        <time>2011-09-01T14:54:26Z</time>
      </trkpt>
      <trkpt lat="47.45135" lon="-0.59033">
        <ele>22</ele>
        <time>2011-09-01T14:54:27Z</time>
      </trkpt>
      <trkpt lat="47.45136" lon="-0.5903">
        <ele>23</ele>
        <time>2011-09-01T14:54:28Z</time>
      </trkpt>
      <trkpt lat="47.45137" lon="-0.59026">
        <ele>23</ele>
        <time>2011-09-01T14:54:29Z</time>
      </trkpt>
      <trkpt lat="47.45139" lon="-0.59022">
        <ele>24</ele>
        <time>2011-09-01T14:54:30Z</time>
      </trkpt>
      <trkpt lat="47.45139" lon="-0.5902">
        <ele>25</ele>
        <time>2011-09-01T14:54:31Z</time>
      </trkpt>
      <trkpt lat="47.4514" lon="-0.59017">
        <ele>26</ele>
        <time>2011-09-01T14:54:32Z</time>
      </trkpt>
      <trkpt lat="47.4514" lon="-0.59014">
        <ele>27</ele>
        <time>2011-09-01T14:54:33Z</time>
      </trkpt>
      <trkpt lat="47.45141" lon="-0.5901">
        <ele>28</ele>
        <time>2011-09-01T14:54:34Z</time>
      </trkpt>
      <trkpt lat="47.45144" lon="-0.59005">
        <ele>29</ele>
        <time>2011-09-01T14:54:35Z</time>
      </trkpt>
      <trkpt lat="47.45146" lon="-0.59001">
        <ele>29</ele>
        <time>2011-09-01T14:54:36Z</time>
      </trkpt>
      <trkpt lat="47.45147" lon="-0.58998">
        <ele>29</ele>
        <time>2011-09-01T14:54:37Z</time>
      </trkpt>
      <trkpt lat="47.45148" lon="-0.58995">
        <ele>30</ele>
        <time>2011-09-01T14:54:38Z</time>
      </trkpt>
      <trkpt lat="47.4515" lon="-0.58991">
        <ele>30</ele>
        <time>2011-09-01T14:54:39Z</time>
      </trkpt>
      <trkpt lat="47.45151" lon="-0.58988">
        <ele>30</ele>
        <time>2011-09-01T14:54:40Z</time>
      </trkpt>
      <trkpt lat="47.45152" lon="-0.58987">
        <ele>30</ele>
        <time>2011-09-01T14:54:41Z</time>
      </trkpt>
      <trkpt lat="47.45152" lon="-0.58984">
        <ele>30</ele>
        <time>2011-09-01T14:54:43Z</time>
      </trkpt>
      <trkpt lat="47.45152" lon="-0.58983">
        <ele>30</ele>
        <time>2011-09-01T14:54:46Z</time>
      </trkpt>
      <trkpt lat="47.45154" lon="-0.58981">
        <ele>29</ele>
        <time>2011-09-01T14:54:47Z</time>
      </trkpt>
      <trkpt lat="47.45155" lon="-0.58979">
        <ele>28</ele>
        <time>2011-09-01T14:54:48Z</time>
      </trkpt>
      <trkpt lat="47.45159" lon="-0.58976">
        <ele>22</ele>
        <time>2011-09-01T14:54:54Z</time>
      </trkpt>
      <trkpt lat="47.4516" lon="-0.58974">
        <ele>20</ele>
        <time>2011-09-01T14:54:56Z</time>
      </trkpt>
      <trkpt lat="47.45162" lon="-0.58973">
        <ele>17</ele>
        <time>2011-09-01T14:54:59Z</time>
      </trkpt>
      <trkpt lat="47.45163" lon="-0.58971">
        <ele>16</ele>
        <time>2011-09-01T14:55:01Z</time>
      </trkpt>
      <trkpt lat="47.45165" lon="-0.58969">
        <ele>16</ele>
        <time>2011-09-01T14:55:03Z</time>
      </trkpt>
      <trkpt lat="47.45166" lon="-0.58966">
        <ele>16</ele>
        <time>2011-09-01T14:55:04Z</time>
      </trkpt>
      <trkpt lat="47.45166" lon="-0.58965">
        <ele>16</ele>
        <time>2011-09-01T14:55:05Z</time>
      </trkpt>
      <trkpt lat="47.45167" lon="-0.58963">
        <ele>16</ele>
        <time>2011-09-01T14:55:06Z</time>
      </trkpt>
      <trkpt lat="47.45168" lon="-0.5896">
        <ele>16</ele>
        <time>2011-09-01T14:55:07Z</time>
      </trkpt>
      <trkpt lat="47.45169" lon="-0.58956">
        <ele>16</ele>
        <time>2011-09-01T14:55:08Z</time>
      </trkpt>
      <trkpt lat="47.4517" lon="-0.58952">
        <ele>16</ele>
        <time>2011-09-01T14:55:09Z</time>
      </trkpt>
      <trkpt lat="47.45171" lon="-0.58948">
        <ele>16</ele>
        <time>2011-09-01T14:55:10Z</time>
      </trkpt>
      <trkpt lat="47.45171" lon="-0.58946">
        <ele>16</ele>
        <time>2011-09-01T14:55:11Z</time>
      </trkpt>
      <trkpt lat="47.45173" lon="-0.58942">
        <ele>16</ele>
        <time>2011-09-01T14:55:12Z</time>
      </trkpt>
      <trkpt lat="47.45174" lon="-0.58938">
        <ele>16</ele>
        <time>2011-09-01T14:55:13Z</time>
      </trkpt>
      <trkpt lat="47.45177" lon="-0.58934">
        <ele>16</ele>
        <time>2011-09-01T14:55:14Z</time>
      </trkpt>
      <trkpt lat="47.45178" lon="-0.5893">
        <ele>16</ele>
        <time>2011-09-01T14:55:15Z</time>
      </trkpt>
      <trkpt lat="47.45179" lon="-0.58925">
        <ele>16</ele>
        <time>2011-09-01T14:55:16Z</time>
      </trkpt>
      <trkpt lat="47.45181" lon="-0.58922">
        <ele>16</ele>
        <time>2011-09-01T14:55:17Z</time>
      </trkpt>
      <trkpt lat="47.45182" lon="-0.58917">
        <ele>16</ele>
        <time>2011-09-01T14:55:18Z</time>
      </trkpt>
      <trkpt lat="47.45184" lon="-0.58913">
        <ele>16</ele>
        <time>2011-09-01T14:55:19Z</time>
      </trkpt>
      <trkpt lat="47.45185" lon="-0.58908">
        <ele>17</ele>
        <time>2011-09-01T14:55:20Z</time>
      </trkpt>
      <trkpt lat="47.45187" lon="-0.58903">
        <ele>18</ele>
        <time>2011-09-01T14:55:21Z</time>
      </trkpt>
      <trkpt lat="47.45188" lon="-0.58898">
        <ele>19</ele>
        <time>2011-09-01T14:55:22Z</time>
      </trkpt>
      <trkpt lat="47.4519" lon="-0.58893">
        <ele>20</ele>
        <time>2011-09-01T14:55:23Z</time>
      </trkpt>
      <trkpt lat="47.45191" lon="-0.58889">
        <ele>21</ele>
        <time>2011-09-01T14:55:24Z</time>
      </trkpt>
      <trkpt lat="47.45192" lon="-0.58885">
        <ele>22</ele>
        <time>2011-09-01T14:55:25Z</time>
      </trkpt>
      <trkpt lat="47.45194" lon="-0.5888">
        <ele>23</ele>
        <time>2011-09-01T14:55:26Z</time>
      </trkpt>
      <trkpt lat="47.45196" lon="-0.58875">
        <ele>23</ele>
        <time>2011-09-01T14:55:27Z</time>
      </trkpt>
      <trkpt lat="47.45198" lon="-0.58869">
        <ele>24</ele>
        <time>2011-09-01T14:55:28Z</time>
      </trkpt>
      <trkpt lat="47.452" lon="-0.58863">
        <ele>25</ele>
        <time>2011-09-01T14:55:29Z</time>
      </trkpt>
      <trkpt lat="47.45203" lon="-0.58856">
        <ele>25</ele>
        <time>2011-09-01T14:55:30Z</time>
      </trkpt>
      <trkpt lat="47.45204" lon="-0.5885">
        <ele>26</ele>
        <time>2011-09-01T14:55:31Z</time>
      </trkpt>
      <trkpt lat="47.45206" lon="-0.58844">
        <ele>26</ele>
        <time>2011-09-01T14:55:32Z</time>
      </trkpt>
      <trkpt lat="47.45209" lon="-0.58838">
        <ele>26</ele>
        <time>2011-09-01T14:55:33Z</time>
      </trkpt>
      <trkpt lat="47.45212" lon="-0.58832">
        <ele>27</ele>
        <time>2011-09-01T14:55:34Z</time>
      </trkpt>
      <trkpt lat="47.45215" lon="-0.58826">
        <ele>27</ele>
        <time>2011-09-01T14:55:35Z</time>
      </trkpt>
      <trkpt lat="47.45219" lon="-0.58818">
        <ele>27</ele>
        <time>2011-09-01T14:55:36Z</time>
      </trkpt>
      <trkpt lat="47.45221" lon="-0.58811">
        <ele>28</ele>
        <time>2011-09-01T14:55:37Z</time>
      </trkpt>
      <trkpt lat="47.45224" lon="-0.58806">
        <ele>28</ele>
        <time>2011-09-01T14:55:38Z</time>
      </trkpt>
      <trkpt lat="47.45226" lon="-0.588">
        <ele>28</ele>
        <time>2011-09-01T14:55:39Z</time>
      </trkpt>
      <trkpt lat="47.45228" lon="-0.58795">
        <ele>28</ele>
        <time>2011-09-01T14:55:40Z</time>
      </trkpt>
      <trkpt lat="47.45231" lon="-0.5879">
        <ele>28</ele>
        <time>2011-09-01T14:55:41Z</time>
      </trkpt>
      <trkpt lat="47.45234" lon="-0.58784">
        <ele>28</ele>
        <time>2011-09-01T14:55:42Z</time>
      </trkpt>
      <trkpt lat="47.45235" lon="-0.58777">
        <ele>28</ele>
        <time>2011-09-01T14:55:43Z</time>
      </trkpt>
      <trkpt lat="47.45237" lon="-0.5877">
        <ele>28</ele>
        <time>2011-09-01T14:55:44Z</time>
      </trkpt>
      <trkpt lat="47.45239" lon="-0.58764">
        <ele>28</ele>
        <time>2011-09-01T14:55:45Z</time>
      </trkpt>
      <trkpt lat="47.45241" lon="-0.58757">
        <ele>28</ele>
        <time>2011-09-01T14:55:46Z</time>
      </trkpt>
      <trkpt lat="47.45242" lon="-0.58751">
        <ele>28</ele>
        <time>2011-09-01T14:55:47Z</time>
      </trkpt>
      <trkpt lat="47.45243" lon="-0.58746">
        <ele>28</ele>
        <time>2011-09-01T14:55:48Z</time>
      </trkpt>
      <trkpt lat="47.45246" lon="-0.5874">
        <ele>29</ele>
        <time>2011-09-01T14:55:49Z</time>
      </trkpt>
      <trkpt lat="47.45248" lon="-0.58735">
        <ele>29</ele>
        <time>2011-09-01T14:55:50Z</time>
      </trkpt>
      <trkpt lat="47.45249" lon="-0.5873">
        <ele>29</ele>
        <time>2011-09-01T14:55:51Z</time>
      </trkpt>
      <trkpt lat="47.4525" lon="-0.58726">
        <ele>29</ele>
        <time>2011-09-01T14:55:52Z</time>
      </trkpt>
      <trkpt lat="47.45252" lon="-0.58722">
        <ele>29</ele>
        <time>2011-09-01T14:55:53Z</time>
      </trkpt>
      <trkpt lat="47.45254" lon="-0.58716">
        <ele>29</ele>
        <time>2011-09-01T14:55:54Z</time>
      </trkpt>
      <trkpt lat="47.45256" lon="-0.58712">
        <ele>29</ele>
        <time>2011-09-01T14:55:55Z</time>
      </trkpt>
      <trkpt lat="47.45258" lon="-0.58708">
        <ele>29</ele>
        <time>2011-09-01T14:55:56Z</time>
      </trkpt>
      <trkpt lat="47.45259" lon="-0.58704">
        <ele>29</ele>
        <time>2011-09-01T14:55:57Z</time>
      </trkpt>
      <trkpt lat="47.4526" lon="-0.587">
        <ele>29</ele>
        <time>2011-09-01T14:55:58Z</time>
      </trkpt>
      <trkpt lat="47.45261" lon="-0.58696">
        <ele>29</ele>
        <time>2011-09-01T14:55:59Z</time>
      </trkpt>
      <trkpt lat="47.45262" lon="-0.58691">
        <ele>29</ele>
        <time>2011-09-01T14:56:00Z</time>
      </trkpt>
      <trkpt lat="47.45264" lon="-0.58686">
        <ele>29</ele>
        <time>2011-09-01T14:56:01Z</time>
      </trkpt>
      <trkpt lat="47.45265" lon="-0.5868">
        <ele>29</ele>
        <time>2011-09-01T14:56:02Z</time>
      </trkpt>
      <trkpt lat="47.45267" lon="-0.58675">
        <ele>29</ele>
        <time>2011-09-01T14:56:03Z</time>
      </trkpt>
      <trkpt lat="47.45269" lon="-0.58671">
        <ele>29</ele>
        <time>2011-09-01T14:56:04Z</time>
      </trkpt>
      <trkpt lat="47.4527" lon="-0.58667">
        <ele>29</ele>
        <time>2011-09-01T14:56:05Z</time>
      </trkpt>
      <trkpt lat="47.45272" lon="-0.58662">
        <ele>29</ele>
        <time>2011-09-01T14:56:06Z</time>
      </trkpt>
      <trkpt lat="47.45274" lon="-0.58658">
        <ele>29</ele>
        <time>2011-09-01T14:56:07Z</time>
      </trkpt>
      <trkpt lat="47.45277" lon="-0.58653">
        <ele>29</ele>
        <time>2011-09-01T14:56:08Z</time>
      </trkpt>
      <trkpt lat="47.45279" lon="-0.58649">
        <ele>29</ele>
        <time>2011-09-01T14:56:09Z</time>
      </trkpt>
      <trkpt lat="47.45281" lon="-0.58644">
        <ele>29</ele>
        <time>2011-09-01T14:56:10Z</time>
      </trkpt>
      <trkpt lat="47.45282" lon="-0.58639">
        <ele>29</ele>
        <time>2011-09-01T14:56:11Z</time>
      </trkpt>
      <trkpt lat="47.45285" lon="-0.58635">
        <ele>29</ele>
        <time>2011-09-01T14:56:12Z</time>
      </trkpt>
      <trkpt lat="47.45286" lon="-0.58632">
        <ele>29</ele>
        <time>2011-09-01T14:56:13Z</time>
      </trkpt>
      <trkpt lat="47.45288" lon="-0.58629">
        <ele>29</ele>
        <time>2011-09-01T14:56:14Z</time>
      </trkpt>
      <trkpt lat="47.45291" lon="-0.58626">
        <ele>29</ele>
        <time>2011-09-01T14:56:15Z</time>
      </trkpt>
      <trkpt lat="47.45293" lon="-0.58623">
        <ele>28</ele>
        <time>2011-09-01T14:56:16Z</time>
      </trkpt>
      <trkpt lat="47.45295" lon="-0.5862">
        <ele>28</ele>
        <time>2011-09-01T14:56:17Z</time>
      </trkpt>
      <trkpt lat="47.45296" lon="-0.58617">
        <ele>28</ele>
        <time>2011-09-01T14:56:18Z</time>
      </trkpt>
      <trkpt lat="47.45297" lon="-0.58612">
        <ele>28</ele>
        <time>2011-09-01T14:56:19Z</time>
      </trkpt>
      <trkpt lat="47.45299" lon="-0.58608">
        <ele>28</ele>
        <time>2011-09-01T14:56:20Z</time>
      </trkpt>
      <trkpt lat="47.45301" lon="-0.58604">
        <ele>28</ele>
        <time>2011-09-01T14:56:21Z</time>
      </trkpt>
      <trkpt lat="47.45303" lon="-0.58599">
        <ele>27</ele>
        <time>2011-09-01T14:56:22Z</time>
      </trkpt>
      <trkpt lat="47.45305" lon="-0.58595">
        <ele>27</ele>
        <time>2011-09-01T14:56:23Z</time>
      </trkpt>
      <trkpt lat="47.45307" lon="-0.58591">
        <ele>26</ele>
        <time>2011-09-01T14:56:24Z</time>
      </trkpt>
      <trkpt lat="47.45309" lon="-0.58587">
        <ele>26</ele>
        <time>2011-09-01T14:56:25Z</time>
      </trkpt>
      <trkpt lat="47.45311" lon="-0.58583">
        <ele>26</ele>
        <time>2011-09-01T14:56:26Z</time>
      </trkpt>
      <trkpt lat="47.45313" lon="-0.58579">
        <ele>26</ele>
        <time>2011-09-01T14:56:27Z</time>
      </trkpt>
      <trkpt lat="47.45315" lon="-0.58574">
        <ele>26</ele>
        <time>2011-09-01T14:56:28Z</time>
      </trkpt>
      <trkpt lat="47.45317" lon="-0.58571">
        <ele>26</ele>
        <time>2011-09-01T14:56:29Z</time>
      </trkpt>
      <trkpt lat="47.45319" lon="-0.58566">
        <ele>26</ele>
        <time>2011-09-01T14:56:30Z</time>
      </trkpt>
      <trkpt lat="47.45321" lon="-0.58562">
        <ele>26</ele>
        <time>2011-09-01T14:56:31Z</time>
      </trkpt>
      <trkpt lat="47.45323" lon="-0.58558">
        <ele>26</ele>
        <time>2011-09-01T14:56:32Z</time>
      </trkpt>
      <trkpt lat="47.45324" lon="-0.58554">
        <ele>26</ele>
        <time>2011-09-01T14:56:33Z</time>
      </trkpt>
      <trkpt lat="47.45325" lon="-0.58551">
        <ele>26</ele>
        <time>2011-09-01T14:56:34Z</time>
      </trkpt>
      <trkpt lat="47.45327" lon="-0.58547">
        <ele>26</ele>
        <time>2011-09-01T14:56:35Z</time>
      </trkpt>
      <trkpt lat="47.45328" lon="-0.58543">
        <ele>26</ele>
        <time>2011-09-01T14:56:36Z</time>
      </trkpt>
      <trkpt lat="47.4533" lon="-0.58539">
        <ele>26</ele>
        <time>2011-09-01T14:56:37Z</time>
      </trkpt>
      <trkpt lat="47.45333" lon="-0.58536">
        <ele>26</ele>
        <time>2011-09-01T14:56:38Z</time>
      </trkpt>
      <trkpt lat="47.45335" lon="-0.58532">
        <ele>26</ele>
        <time>2011-09-01T14:56:39Z</time>
      </trkpt>
      <trkpt lat="47.45338" lon="-0.58528">
        <ele>26</ele>
        <time>2011-09-01T14:56:40Z</time>
      </trkpt>
      <trkpt lat="47.4534" lon="-0.58524">
        <ele>26</ele>
        <time>2011-09-01T14:56:41Z</time>
      </trkpt>
      <trkpt lat="47.45341" lon="-0.5852">
        <ele>26</ele>
        <time>2011-09-01T14:56:42Z</time>
      </trkpt>
      <trkpt lat="47.45343" lon="-0.58516">
        <ele>26</ele>
        <time>2011-09-01T14:56:43Z</time>
      </trkpt>
      <trkpt lat="47.45344" lon="-0.58513">
        <ele>26</ele>
        <time>2011-09-01T14:56:44Z</time>
      </trkpt>
      <trkpt lat="47.45346" lon="-0.58509">
        <ele>26</ele>
        <time>2011-09-01T14:56:45Z</time>
      </trkpt>
      <trkpt lat="47.45348" lon="-0.58506">
        <ele>26</ele>
        <time>2011-09-01T14:56:46Z</time>
      </trkpt>
      <trkpt lat="47.4535" lon="-0.58502">
        <ele>26</ele>
        <time>2011-09-01T14:56:47Z</time>
      </trkpt>
      <trkpt lat="47.45351" lon="-0.58498">
        <ele>26</ele>
        <time>2011-09-01T14:56:48Z</time>
      </trkpt>
      <trkpt lat="47.45353" lon="-0.58494">
        <ele>26</ele>
        <time>2011-09-01T14:56:49Z</time>
      </trkpt>
      <trkpt lat="47.45356" lon="-0.5849">
        <ele>26</ele>
        <time>2011-09-01T14:56:50Z</time>
      </trkpt>
      <trkpt lat="47.45358" lon="-0.58487">
        <ele>26</ele>
        <time>2011-09-01T14:56:51Z</time>
      </trkpt>
      <trkpt lat="47.45359" lon="-0.58483">
        <ele>26</ele>
        <time>2011-09-01T14:56:52Z</time>
      </trkpt>
      <trkpt lat="47.45361" lon="-0.5848">
        <ele>26</ele>
        <time>2011-09-01T14:56:53Z</time>
      </trkpt>
      <trkpt lat="47.45362" lon="-0.58477">
        <ele>26</ele>
        <time>2011-09-01T14:56:54Z</time>
      </trkpt>
      <trkpt lat="47.45364" lon="-0.58474">
        <ele>26</ele>
        <time>2011-09-01T14:56:55Z</time>
      </trkpt>
      <trkpt lat="47.45366" lon="-0.58471">
        <ele>26</ele>
        <time>2011-09-01T14:56:56Z</time>
      </trkpt>
      <trkpt lat="47.45368" lon="-0.58468">
        <ele>25</ele>
        <time>2011-09-01T14:56:57Z</time>
      </trkpt>
      <trkpt lat="47.45371" lon="-0.58464">
        <ele>25</ele>
        <time>2011-09-01T14:56:58Z</time>
      </trkpt>
      <trkpt lat="47.45372" lon="-0.5846">
        <ele>25</ele>
        <time>2011-09-01T14:56:59Z</time>
      </trkpt>
      <trkpt lat="47.45373" lon="-0.58456">
        <ele>25</ele>
        <time>2011-09-01T14:57:00Z</time>
      </trkpt>
      <trkpt lat="47.45375" lon="-0.58452">
        <ele>25</ele>
        <time>2011-09-01T14:57:01Z</time>
      </trkpt>
      <trkpt lat="47.45376" lon="-0.58449">
        <ele>25</ele>
        <time>2011-09-01T14:57:02Z</time>
      </trkpt>
      <trkpt lat="47.45378" lon="-0.58446">
        <ele>25</ele>
        <time>2011-09-01T14:57:03Z</time>
      </trkpt>
      <trkpt lat="47.4538" lon="-0.58442">
        <ele>25</ele>
        <time>2011-09-01T14:57:04Z</time>
      </trkpt>
      <trkpt lat="47.45381" lon="-0.58438">
        <ele>25</ele>
        <time>2011-09-01T14:57:05Z</time>
      </trkpt>
      <trkpt lat="47.45383" lon="-0.58434">
        <ele>25</ele>
        <time>2011-09-01T14:57:06Z</time>
      </trkpt>
      <trkpt lat="47.45386" lon="-0.5843">
        <ele>25</ele>
        <time>2011-09-01T14:57:07Z</time>
      </trkpt>
      <trkpt lat="47.45388" lon="-0.58427">
        <ele>25</ele>
        <time>2011-09-01T14:57:08Z</time>
      </trkpt>
      <trkpt lat="47.45389" lon="-0.58424">
        <ele>25</ele>
        <time>2011-09-01T14:57:09Z</time>
      </trkpt>
      <trkpt lat="47.45389" lon="-0.58421">
        <ele>25</ele>
        <time>2011-09-01T14:57:10Z</time>
      </trkpt>
      <trkpt lat="47.4539" lon="-0.58418">
        <ele>25</ele>
        <time>2011-09-01T14:57:11Z</time>
      </trkpt>
      <trkpt lat="47.45391" lon="-0.58416">
        <ele>25</ele>
        <time>2011-09-01T14:57:12Z</time>
      </trkpt>
      <trkpt lat="47.45393" lon="-0.58412">
        <ele>25</ele>
        <time>2011-09-01T14:57:13Z</time>
      </trkpt>
      <trkpt lat="47.45394" lon="-0.58408">
        <ele>25</ele>
        <time>2011-09-01T14:57:14Z</time>
      </trkpt>
      <trkpt lat="47.45397" lon="-0.58404">
        <ele>25</ele>
        <time>2011-09-01T14:57:15Z</time>
      </trkpt>
      <trkpt lat="47.45399" lon="-0.584">
        <ele>25</ele>
        <time>2011-09-01T14:57:16Z</time>
      </trkpt>
      <trkpt lat="47.454" lon="-0.58397">
        <ele>25</ele>
        <time>2011-09-01T14:57:17Z</time>
      </trkpt>
      <trkpt lat="47.45401" lon="-0.58393">
        <ele>25</ele>
        <time>2011-09-01T14:57:18Z</time>
      </trkpt>
      <trkpt lat="47.45403" lon="-0.5839">
        <ele>25</ele>
        <time>2011-09-01T14:57:19Z</time>
      </trkpt>
      <trkpt lat="47.45405" lon="-0.58387">
        <ele>25</ele>
        <time>2011-09-01T14:57:20Z</time>
      </trkpt>
      <trkpt lat="47.45407" lon="-0.58384">
        <ele>25</ele>
        <time>2011-09-01T14:57:21Z</time>
      </trkpt>
      <trkpt lat="47.45408" lon="-0.58381">
        <ele>25</ele>
        <time>2011-09-01T14:57:22Z</time>
      </trkpt>
      <trkpt lat="47.4541" lon="-0.58378">
        <ele>25</ele>
        <time>2011-09-01T14:57:23Z</time>
      </trkpt>
      <trkpt lat="47.45412" lon="-0.58375">
        <ele>25</ele>
        <time>2011-09-01T14:57:24Z</time>
      </trkpt>
      <trkpt lat="47.45414" lon="-0.58372">
        <ele>25</ele>
        <time>2011-09-01T14:57:25Z</time>
      </trkpt>
      <trkpt lat="47.45417" lon="-0.58367">
        <ele>25</ele>
        <time>2011-09-01T14:57:26Z</time>
      </trkpt>
      <trkpt lat="47.45421" lon="-0.58363">
        <ele>25</ele>
        <time>2011-09-01T14:57:27Z</time>
      </trkpt>
      <trkpt lat="47.45424" lon="-0.58359">
        <ele>25</ele>
        <time>2011-09-01T14:57:28Z</time>
      </trkpt>
      <trkpt lat="47.45426" lon="-0.58356">
        <ele>24</ele>
        <time>2011-09-01T14:57:29Z</time>
      </trkpt>
      <trkpt lat="47.45427" lon="-0.58354">
        <ele>23</ele>
        <time>2011-09-01T14:57:30Z</time>
      </trkpt>
      <trkpt lat="47.45427" lon="-0.58351">
        <ele>22</ele>
        <time>2011-09-01T14:57:31Z</time>
      </trkpt>
      <trkpt lat="47.45428" lon="-0.58348">
        <ele>21</ele>
        <time>2011-09-01T14:57:32Z</time>
      </trkpt>
      <trkpt lat="47.45428" lon="-0.58346">
        <ele>21</ele>
        <time>2011-09-01T14:57:33Z</time>
      </trkpt>
      <trkpt lat="47.45429" lon="-0.58343">
        <ele>21</ele>
        <time>2011-09-01T14:57:34Z</time>
      </trkpt>
      <trkpt lat="47.4543" lon="-0.58342">
        <ele>21</ele>
        <time>2011-09-01T14:57:35Z</time>
      </trkpt>
      <trkpt lat="47.45433" lon="-0.58339">
        <ele>21</ele>
        <time>2011-09-01T14:57:36Z</time>
      </trkpt>
      <trkpt lat="47.45435" lon="-0.58337">
        <ele>21</ele>
        <time>2011-09-01T14:57:37Z</time>
      </trkpt>
      <trkpt lat="47.45438" lon="-0.58335">
        <ele>21</ele>
        <time>2011-09-01T14:57:38Z</time>
      </trkpt>
      <trkpt lat="47.45442" lon="-0.58332">
        <ele>21</ele>
        <time>2011-09-01T14:57:39Z</time>
      </trkpt>
      <trkpt lat="47.45445" lon="-0.58328">
        <ele>21</ele>
        <time>2011-09-01T14:57:40Z</time>
      </trkpt>
      <trkpt lat="47.45448" lon="-0.58323">
        <ele>20</ele>
        <time>2011-09-01T14:57:41Z</time>
      </trkpt>
      <trkpt lat="47.45449" lon="-0.58319">
        <ele>20</ele>
        <time>2011-09-01T14:57:42Z</time>
      </trkpt>
      <trkpt lat="47.45451" lon="-0.58315">
        <ele>20</ele>
        <time>2011-09-01T14:57:43Z</time>
      </trkpt>
      <trkpt lat="47.45451" lon="-0.58311">
        <ele>20</ele>
        <time>2011-09-01T14:57:44Z</time>
      </trkpt>
      <trkpt lat="47.45453" lon="-0.58307">
        <ele>20</ele>
        <time>2011-09-01T14:57:45Z</time>
      </trkpt>
      <trkpt lat="47.45454" lon="-0.58304">
        <ele>20</ele>
        <time>2011-09-01T14:57:46Z</time>
      </trkpt>
      <trkpt lat="47.45457" lon="-0.583">
        <ele>20</ele>
        <time>2011-09-01T14:57:47Z</time>
      </trkpt>
      <trkpt lat="47.45459" lon="-0.58296">
        <ele>20</ele>
        <time>2011-09-01T14:57:48Z</time>
      </trkpt>
      <trkpt lat="47.45462" lon="-0.58291">
        <ele>20</ele>
        <time>2011-09-01T14:57:49Z</time>
      </trkpt>
      <trkpt lat="47.45465" lon="-0.58287">
        <ele>20</ele>
        <time>2011-09-01T14:57:50Z</time>
      </trkpt>
      <trkpt lat="47.45467" lon="-0.58283">
        <ele>20</ele>
        <time>2011-09-01T14:57:51Z</time>
      </trkpt>
      <trkpt lat="47.4547" lon="-0.5828">
        <ele>20</ele>
        <time>2011-09-01T14:57:52Z</time>
      </trkpt>
      <trkpt lat="47.45472" lon="-0.58276">
        <ele>20</ele>
        <time>2011-09-01T14:57:53Z</time>
      </trkpt>
      <trkpt lat="47.45475" lon="-0.58273">
        <ele>20</ele>
        <time>2011-09-01T14:57:54Z</time>
      </trkpt>
      <trkpt lat="47.4548" lon="-0.58268">
        <ele>20</ele>
        <time>2011-09-01T14:57:55Z</time>
      </trkpt>
      <trkpt lat="47.45483" lon="-0.58264">
        <ele>20</ele>
        <time>2011-09-01T14:57:56Z</time>
      </trkpt>
      <trkpt lat="47.45485" lon="-0.5826">
        <ele>20</ele>
        <time>2011-09-01T14:57:57Z</time>
      </trkpt>
      <trkpt lat="47.45487" lon="-0.58256">
        <ele>20</ele>
        <time>2011-09-01T14:57:58Z</time>
      </trkpt>
      <trkpt lat="47.4549" lon="-0.58253">
        <ele>20</ele>
        <time>2011-09-01T14:57:59Z</time>
      </trkpt>
      <trkpt lat="47.45492" lon="-0.5825">
        <ele>20</ele>
        <time>2011-09-01T14:58:00Z</time>
      </trkpt>
      <trkpt lat="47.45495" lon="-0.58246">
        <ele>20</ele>
        <time>2011-09-01T14:58:01Z</time>
      </trkpt>
      <trkpt lat="47.45497" lon="-0.58242">
        <ele>20</ele>
        <time>2011-09-01T14:58:02Z</time>
      </trkpt>
      <trkpt lat="47.45499" lon="-0.58239">
        <ele>20</ele>
        <time>2011-09-01T14:58:03Z</time>
      </trkpt>
      <trkpt lat="47.45502" lon="-0.58236">
        <ele>20</ele>
        <time>2011-09-01T14:58:04Z</time>
      </trkpt>
      <trkpt lat="47.45504" lon="-0.58233">
        <ele>20</ele>
        <time>2011-09-01T14:58:05Z</time>
      </trkpt>
      <trkpt lat="47.45507" lon="-0.5823">
        <ele>20</ele>
        <time>2011-09-01T14:58:06Z</time>
      </trkpt>
      <trkpt lat="47.45509" lon="-0.58228">
        <ele>20</ele>
        <time>2011-09-01T14:58:07Z</time>
      </trkpt>
      <trkpt lat="47.45511" lon="-0.58225">
        <ele>20</ele>
        <time>2011-09-01T14:58:08Z</time>
      </trkpt>
      <trkpt lat="47.45514" lon="-0.58222">
        <ele>20</ele>
        <time>2011-09-01T14:58:09Z</time>
      </trkpt>
      <trkpt lat="47.45519" lon="-0.58216">
        <ele>20</ele>
        <time>2011-09-01T14:58:10Z</time>
      </trkpt>
      <trkpt lat="47.45522" lon="-0.58211">
        <ele>19</ele>
        <time>2011-09-01T14:58:11Z</time>
      </trkpt>
      <trkpt lat="47.45525" lon="-0.58207">
        <ele>18</ele>
        <time>2011-09-01T14:58:12Z</time>
      </trkpt>
      <trkpt lat="47.45528" lon="-0.58203">
        <ele>17</ele>
        <time>2011-09-01T14:58:13Z</time>
      </trkpt>
      <trkpt lat="47.45532" lon="-0.58199">
        <ele>16</ele>
        <time>2011-09-01T14:58:14Z</time>
      </trkpt>
      <trkpt lat="47.45535" lon="-0.58196">
        <ele>15</ele>
        <time>2011-09-01T14:58:15Z</time>
      </trkpt>
      <trkpt lat="47.45537" lon="-0.58192">
        <ele>14</ele>
        <time>2011-09-01T14:58:16Z</time>
      </trkpt>
      <trkpt lat="47.4554" lon="-0.58188">
        <ele>13</ele>
        <time>2011-09-01T14:58:17Z</time>
      </trkpt>
      <trkpt lat="47.45543" lon="-0.58185">
        <ele>12</ele>
        <time>2011-09-01T14:58:18Z</time>
      </trkpt>
      <trkpt lat="47.45546" lon="-0.58182">
        <ele>12</ele>
        <time>2011-09-01T14:58:19Z</time>
      </trkpt>
      <trkpt lat="47.45549" lon="-0.58179">
        <ele>12</ele>
        <time>2011-09-01T14:58:20Z</time>
      </trkpt>
      <trkpt lat="47.45552" lon="-0.58175">
        <ele>11</ele>
        <time>2011-09-01T14:58:21Z</time>
      </trkpt>
      <trkpt lat="47.45554" lon="-0.58173">
        <ele>11</ele>
        <time>2011-09-01T14:58:22Z</time>
      </trkpt>
      <trkpt lat="47.45557" lon="-0.5817">
        <ele>11</ele>
        <time>2011-09-01T14:58:23Z</time>
      </trkpt>
      <trkpt lat="47.4556" lon="-0.58167">
        <ele>11</ele>
        <time>2011-09-01T14:58:24Z</time>
      </trkpt>
      <trkpt lat="47.45563" lon="-0.58165">
        <ele>11</ele>
        <time>2011-09-01T14:58:25Z</time>
      </trkpt>
      <trkpt lat="47.45566" lon="-0.58162">
        <ele>11</ele>
        <time>2011-09-01T14:58:26Z</time>
      </trkpt>
      <trkpt lat="47.45569" lon="-0.58159">
        <ele>11</ele>
        <time>2011-09-01T14:58:27Z</time>
      </trkpt>
      <trkpt lat="47.45572" lon="-0.58156">
        <ele>11</ele>
        <time>2011-09-01T14:58:28Z</time>
      </trkpt>
      <trkpt lat="47.45575" lon="-0.58153">
        <ele>11</ele>
        <time>2011-09-01T14:58:29Z</time>
      </trkpt>
      <trkpt lat="47.45578" lon="-0.5815">
        <ele>11</ele>
        <time>2011-09-01T14:58:30Z</time>
      </trkpt>
      <trkpt lat="47.45581" lon="-0.58148">
        <ele>11</ele>
        <time>2011-09-01T14:58:31Z</time>
      </trkpt>
      <trkpt lat="47.45582" lon="-0.58146">
        <ele>11</ele>
        <time>2011-09-01T14:58:32Z</time>
      </trkpt>
      <trkpt lat="47.45583" lon="-0.58144">
        <ele>11</ele>
        <time>2011-09-01T14:58:33Z</time>
      </trkpt>
      <trkpt lat="47.45586" lon="-0.58143">
        <ele>11</ele>
        <time>2011-09-01T14:58:34Z</time>
      </trkpt>
      <trkpt lat="47.45588" lon="-0.5814">
        <ele>11</ele>
        <time>2011-09-01T14:58:35Z</time>
      </trkpt>
      <trkpt lat="47.45591" lon="-0.58137">
        <ele>11</ele>
        <time>2011-09-01T14:58:36Z</time>
      </trkpt>
      <trkpt lat="47.45593" lon="-0.58135">
        <ele>11</ele>
        <time>2011-09-01T14:58:37Z</time>
      </trkpt>
      <trkpt lat="47.45596" lon="-0.58132">
        <ele>11</ele>
        <time>2011-09-01T14:58:38Z</time>
      </trkpt>
      <trkpt lat="47.45598" lon="-0.5813">
        <ele>11</ele>
        <time>2011-09-01T14:58:39Z</time>
      </trkpt>
      <trkpt lat="47.45601" lon="-0.58128">
        <ele>11</ele>
        <time>2011-09-01T14:58:40Z</time>
      </trkpt>
      <trkpt lat="47.45604" lon="-0.58126">
        <ele>11</ele>
        <time>2011-09-01T14:58:41Z</time>
      </trkpt>
      <trkpt lat="47.45606" lon="-0.58123">
        <ele>11</ele>
        <time>2011-09-01T14:58:42Z</time>
      </trkpt>
      <trkpt lat="47.4561" lon="-0.5812">
        <ele>11</ele>
        <time>2011-09-01T14:58:43Z</time>
      </trkpt>
      <trkpt lat="47.45613" lon="-0.58118">
        <ele>11</ele>
        <time>2011-09-01T14:58:44Z</time>
      </trkpt>
      <trkpt lat="47.45616" lon="-0.58115">
        <ele>11</ele>
        <time>2011-09-01T14:58:45Z</time>
      </trkpt>
      <trkpt lat="47.45619" lon="-0.58112">
        <ele>11</ele>
        <time>2011-09-01T14:58:46Z</time>
      </trkpt>
      <trkpt lat="47.45622" lon="-0.58109">
        <ele>10</ele>
        <time>2011-09-01T14:58:47Z</time>
      </trkpt>
      <trkpt lat="47.45625" lon="-0.58107">
        <ele>10</ele>
        <time>2011-09-01T14:58:48Z</time>
      </trkpt>
      <trkpt lat="47.45627" lon="-0.58104">
        <ele>9</ele>
        <time>2011-09-01T14:58:49Z</time>
      </trkpt>
      <trkpt lat="47.45631" lon="-0.58102">
        <ele>9</ele>
        <time>2011-09-01T14:58:50Z</time>
      </trkpt>
      <trkpt lat="47.45634" lon="-0.58099">
        <ele>9</ele>
        <time>2011-09-01T14:58:51Z</time>
      </trkpt>
      <trkpt lat="47.45636" lon="-0.58098">
        <ele>9</ele>
        <time>2011-09-01T14:58:52Z</time>
      </trkpt>
      <trkpt lat="47.45639" lon="-0.58096">
        <ele>9</ele>
        <time>2011-09-01T14:58:53Z</time>
      </trkpt>
      <trkpt lat="47.45642" lon="-0.58093">
        <ele>9</ele>
        <time>2011-09-01T14:58:54Z</time>
      </trkpt>
      <trkpt lat="47.45645" lon="-0.5809">
        <ele>9</ele>
        <time>2011-09-01T14:58:55Z</time>
      </trkpt>
      <trkpt lat="47.45648" lon="-0.58088">
        <ele>9</ele>
        <time>2011-09-01T14:58:56Z</time>
      </trkpt>
      <trkpt lat="47.45652" lon="-0.58086">
        <ele>9</ele>
        <time>2011-09-01T14:58:57Z</time>
      </trkpt>
      <trkpt lat="47.45655" lon="-0.58083">
        <ele>9</ele>
        <time>2011-09-01T14:58:58Z</time>
      </trkpt>
      <trkpt lat="47.45658" lon="-0.58081">
        <ele>9</ele>
        <time>2011-09-01T14:58:59Z</time>
      </trkpt>
      <trkpt lat="47.45662" lon="-0.58079">
        <ele>8</ele>
        <time>2011-09-01T14:59:00Z</time>
      </trkpt>
      <trkpt lat="47.45664" lon="-0.58077">
        <ele>8</ele>
        <time>2011-09-01T14:59:01Z</time>
      </trkpt>
      <trkpt lat="47.45667" lon="-0.58075">
        <ele>8</ele>
        <time>2011-09-01T14:59:02Z</time>
      </trkpt>
      <trkpt lat="47.45669" lon="-0.58073">
        <ele>8</ele>
        <time>2011-09-01T14:59:03Z</time>
      </trkpt>
      <trkpt lat="47.45672" lon="-0.58071">
        <ele>8</ele>
        <time>2011-09-01T14:59:04Z</time>
      </trkpt>
      <trkpt lat="47.45675" lon="-0.58069">
        <ele>8</ele>
        <time>2011-09-01T14:59:05Z</time>
      </trkpt>
      <trkpt lat="47.45678" lon="-0.58066">
        <ele>8</ele>
        <time>2011-09-01T14:59:06Z</time>
      </trkpt>
      <trkpt lat="47.45681" lon="-0.58064">
        <ele>8</ele>
        <time>2011-09-01T14:59:07Z</time>
      </trkpt>
      <trkpt lat="47.45683" lon="-0.58062">
        <ele>8</ele>
        <time>2011-09-01T14:59:08Z</time>
      </trkpt>
      <trkpt lat="47.45686" lon="-0.5806">
        <ele>8</ele>
        <time>2011-09-01T14:59:09Z</time>
      </trkpt>
      <trkpt lat="47.45689" lon="-0.58059">
        <ele>8</ele>
        <time>2011-09-01T14:59:10Z</time>
      </trkpt>
      <trkpt lat="47.45691" lon="-0.58057">
        <ele>8</ele>
        <time>2011-09-01T14:59:11Z</time>
      </trkpt>
      <trkpt lat="47.45694" lon="-0.58055">
        <ele>8</ele>
        <time>2011-09-01T14:59:12Z</time>
      </trkpt>
      <trkpt lat="47.45697" lon="-0.58053">
        <ele>8</ele>
        <time>2011-09-01T14:59:13Z</time>
      </trkpt>
      <trkpt lat="47.457" lon="-0.5805">
        <ele>8</ele>
        <time>2011-09-01T14:59:14Z</time>
      </trkpt>
      <trkpt lat="47.45703" lon="-0.58048">
        <ele>8</ele>
        <time>2011-09-01T14:59:15Z</time>
      </trkpt>
      <trkpt lat="47.45705" lon="-0.58047">
        <ele>8</ele>
        <time>2011-09-01T14:59:16Z</time>
      </trkpt>
      <trkpt lat="47.45708" lon="-0.58045">
        <ele>8</ele>
        <time>2011-09-01T14:59:17Z</time>
      </trkpt>
      <trkpt lat="47.45711" lon="-0.58043">
        <ele>8</ele>
        <time>2011-09-01T14:59:18Z</time>
      </trkpt>
      <trkpt lat="47.45713" lon="-0.58042">
        <ele>8</ele>
        <time>2011-09-01T14:59:19Z</time>
      </trkpt>
      <trkpt lat="47.45715" lon="-0.5804">
        <ele>8</ele>
        <time>2011-09-01T14:59:20Z</time>
      </trkpt>
      <trkpt lat="47.45718" lon="-0.58038">
        <ele>8</ele>
        <time>2011-09-01T14:59:21Z</time>
      </trkpt>
      <trkpt lat="47.4572" lon="-0.58037">
        <ele>8</ele>
        <time>2011-09-01T14:59:22Z</time>
      </trkpt>
      <trkpt lat="47.45723" lon="-0.58035">
        <ele>8</ele>
        <time>2011-09-01T14:59:23Z</time>
      </trkpt>
      <trkpt lat="47.45725" lon="-0.58034">
        <ele>8</ele>
        <time>2011-09-01T14:59:24Z</time>
      </trkpt>
      <trkpt lat="47.45727" lon="-0.58032">
        <ele>8</ele>
        <time>2011-09-01T14:59:25Z</time>
      </trkpt>
      <trkpt lat="47.4573" lon="-0.5803">
        <ele>8</ele>
        <time>2011-09-01T14:59:26Z</time>
      </trkpt>
      <trkpt lat="47.45732" lon="-0.58029">
        <ele>8</ele>
        <time>2011-09-01T14:59:27Z</time>
      </trkpt>
      <trkpt lat="47.45734" lon="-0.58027">
        <ele>8</ele>
        <time>2011-09-01T14:59:28Z</time>
      </trkpt>
      <trkpt lat="47.45737" lon="-0.58026">
        <ele>8</ele>
        <time>2011-09-01T14:59:29Z</time>
      </trkpt>
      <trkpt lat="47.45739" lon="-0.58025">
        <ele>8</ele>
        <time>2011-09-01T14:59:30Z</time>
      </trkpt>
      <trkpt lat="47.45743" lon="-0.58023">
        <ele>8</ele>
        <time>2011-09-01T14:59:31Z</time>
      </trkpt>
      <trkpt lat="47.45745" lon="-0.58021">
        <ele>8</ele>
        <time>2011-09-01T14:59:32Z</time>
      </trkpt>
      <trkpt lat="47.45749" lon="-0.58019">
        <ele>8</ele>
        <time>2011-09-01T14:59:33Z</time>
      </trkpt>
      <trkpt lat="47.45752" lon="-0.58017">
        <ele>8</ele>
        <time>2011-09-01T14:59:34Z</time>
      </trkpt>
      <trkpt lat="47.45755" lon="-0.58015">
        <ele>8</ele>
        <time>2011-09-01T14:59:35Z</time>
      </trkpt>
      <trkpt lat="47.45759" lon="-0.58012">
        <ele>8</ele>
        <time>2011-09-01T14:59:36Z</time>
      </trkpt>
      <trkpt lat="47.45762" lon="-0.5801">
        <ele>8</ele>
        <time>2011-09-01T14:59:37Z</time>
      </trkpt>
      <trkpt lat="47.45766" lon="-0.58008">
        <ele>8</ele>
        <time>2011-09-01T14:59:38Z</time>
      </trkpt>
      <trkpt lat="47.45768" lon="-0.58006">
        <ele>8</ele>
        <time>2011-09-01T14:59:39Z</time>
      </trkpt>
      <trkpt lat="47.4577" lon="-0.58005">
        <ele>8</ele>
        <time>2011-09-01T14:59:40Z</time>
      </trkpt>
      <trkpt lat="47.45772" lon="-0.58003">
        <ele>8</ele>
        <time>2011-09-01T14:59:41Z</time>
      </trkpt>
      <trkpt lat="47.45774" lon="-0.58002">
        <ele>8</ele>
        <time>2011-09-01T14:59:42Z</time>
      </trkpt>
      <trkpt lat="47.45777" lon="-0.58">
        <ele>8</ele>
        <time>2011-09-01T14:59:43Z</time>
      </trkpt>
      <trkpt lat="47.45779" lon="-0.57998">
        <ele>8</ele>
        <time>2011-09-01T14:59:44Z</time>
      </trkpt>
      <trkpt lat="47.45782" lon="-0.57997">
        <ele>8</ele>
        <time>2011-09-01T14:59:45Z</time>
      </trkpt>
      <trkpt lat="47.45785" lon="-0.57995">
        <ele>8</ele>
        <time>2011-09-01T14:59:46Z</time>
      </trkpt>
      <trkpt lat="47.45787" lon="-0.57993">
        <ele>8</ele>
        <time>2011-09-01T14:59:47Z</time>
      </trkpt>
      <trkpt lat="47.45789" lon="-0.57991">
        <ele>8</ele>
        <time>2011-09-01T14:59:48Z</time>
      </trkpt>
      <trkpt lat="47.45791" lon="-0.57989">
        <ele>8</ele>
        <time>2011-09-01T14:59:49Z</time>
      </trkpt>
      <trkpt lat="47.45794" lon="-0.57987">
        <ele>8</ele>
        <time>2011-09-01T14:59:50Z</time>
      </trkpt>
      <trkpt lat="47.45796" lon="-0.57985">
        <ele>8</ele>
        <time>2011-09-01T14:59:51Z</time>
      </trkpt>
      <trkpt lat="47.458" lon="-0.57983">
        <ele>8</ele>
        <time>2011-09-01T14:59:52Z</time>
      </trkpt>
      <trkpt lat="47.45803" lon="-0.57981">
        <ele>8</ele>
        <time>2011-09-01T14:59:53Z</time>
      </trkpt>
      <trkpt lat="47.45806" lon="-0.57979">
        <ele>8</ele>
        <time>2011-09-01T14:59:54Z</time>
      </trkpt>
      <trkpt lat="47.45809" lon="-0.57977">
        <ele>8</ele>
        <time>2011-09-01T14:59:55Z</time>
      </trkpt>
      <trkpt lat="47.45811" lon="-0.57976">
        <ele>8</ele>
        <time>2011-09-01T14:59:56Z</time>
      </trkpt>
      <trkpt lat="47.45814" lon="-0.57974">
        <ele>8</ele>
        <time>2011-09-01T14:59:57Z</time>
      </trkpt>
      <trkpt lat="47.45817" lon="-0.57973">
        <ele>8</ele>
        <time>2011-09-01T14:59:58Z</time>
      </trkpt>
      <trkpt lat="47.4582" lon="-0.57971">
        <ele>8</ele>
        <time>2011-09-01T14:59:59Z</time>
      </trkpt>
      <trkpt lat="47.45823" lon="-0.5797">
        <ele>8</ele>
        <time>2011-09-01T15:00:00Z</time>
      </trkpt>
      <trkpt lat="47.45825" lon="-0.57968">
        <ele>8</ele>
        <time>2011-09-01T15:00:01Z</time>
      </trkpt>
      <trkpt lat="47.45827" lon="-0.57966">
        <ele>8</ele>
        <time>2011-09-01T15:00:02Z</time>
      </trkpt>
      <trkpt lat="47.45829" lon="-0.57965">
        <ele>8</ele>
        <time>2011-09-01T15:00:03Z</time>
      </trkpt>
      <trkpt lat="47.45831" lon="-0.57964">
        <ele>8</ele>
        <time>2011-09-01T15:00:04Z</time>
      </trkpt>
      <trkpt lat="47.45832" lon="-0.57962">
        <ele>8</ele>
        <time>2011-09-01T15:00:05Z</time>
      </trkpt>
      <trkpt lat="47.45835" lon="-0.57959">
        <ele>8</ele>
        <time>2011-09-01T15:00:06Z</time>
      </trkpt>
      <trkpt lat="47.45838" lon="-0.57956">
        <ele>8</ele>
        <time>2011-09-01T15:00:07Z</time>
      </trkpt>
      <trkpt lat="47.4584" lon="-0.57954">
        <ele>8</ele>
        <time>2011-09-01T15:00:08Z</time>
      </trkpt>
      <trkpt lat="47.45843" lon="-0.57952">
        <ele>8</ele>
        <time>2011-09-01T15:00:09Z</time>
      </trkpt>
      <trkpt lat="47.45847" lon="-0.5795">
        <ele>8</ele>
        <time>2011-09-01T15:00:10Z</time>
      </trkpt>
      <trkpt lat="47.45851" lon="-0.57947">
        <ele>8</ele>
        <time>2011-09-01T15:00:11Z</time>
      </trkpt>
      <trkpt lat="47.45855" lon="-0.57945">
        <ele>8</ele>
        <time>2011-09-01T15:00:12Z</time>
      </trkpt>
      <trkpt lat="47.45857" lon="-0.57943">
        <ele>8</ele>
        <time>2011-09-01T15:00:13Z</time>
      </trkpt>
      <trkpt lat="47.4586" lon="-0.57941">
        <ele>8</ele>
        <time>2011-09-01T15:00:14Z</time>
      </trkpt>
      <trkpt lat="47.45863" lon="-0.57939">
        <ele>8</ele>
        <time>2011-09-01T15:00:15Z</time>
      </trkpt>
      <trkpt lat="47.45866" lon="-0.57938">
        <ele>8</ele>
        <time>2011-09-01T15:00:16Z</time>
      </trkpt>
      <trkpt lat="47.45869" lon="-0.57936">
        <ele>8</ele>
        <time>2011-09-01T15:00:17Z</time>
      </trkpt>
      <trkpt lat="47.45872" lon="-0.57933">
        <ele>8</ele>
        <time>2011-09-01T15:00:18Z</time>
      </trkpt>
      <trkpt lat="47.45875" lon="-0.57931">
        <ele>8</ele>
        <time>2011-09-01T15:00:19Z</time>
      </trkpt>
      <trkpt lat="47.45877" lon="-0.57929">
        <ele>8</ele>
        <time>2011-09-01T15:00:20Z</time>
      </trkpt>
      <trkpt lat="47.45879" lon="-0.57927">
        <ele>8</ele>
        <time>2011-09-01T15:00:21Z</time>
      </trkpt>
      <trkpt lat="47.45882" lon="-0.57925">
        <ele>8</ele>
        <time>2011-09-01T15:00:22Z</time>
      </trkpt>
      <trkpt lat="47.45884" lon="-0.57924">
        <ele>8</ele>
        <time>2011-09-01T15:00:23Z</time>
      </trkpt>
      <trkpt lat="47.45887" lon="-0.57922">
        <ele>8</ele>
        <time>2011-09-01T15:00:24Z</time>
      </trkpt>
      <trkpt lat="47.4589" lon="-0.5792">
        <ele>8</ele>
        <time>2011-09-01T15:00:25Z</time>
      </trkpt>
      <trkpt lat="47.45892" lon="-0.57918">
        <ele>8</ele>
        <time>2011-09-01T15:00:26Z</time>
      </trkpt>
      <trkpt lat="47.45895" lon="-0.57916">
        <ele>8</ele>
        <time>2011-09-01T15:00:27Z</time>
      </trkpt>
      <trkpt lat="47.45898" lon="-0.57914">
        <ele>8</ele>
        <time>2011-09-01T15:00:28Z</time>
      </trkpt>
      <trkpt lat="47.459" lon="-0.57912">
        <ele>8</ele>
        <time>2011-09-01T15:00:29Z</time>
      </trkpt>
      <trkpt lat="47.45901" lon="-0.57911">
        <ele>8</ele>
        <time>2011-09-01T15:00:30Z</time>
      </trkpt>
      <trkpt lat="47.45903" lon="-0.5791">
        <ele>8</ele>
        <time>2011-09-01T15:00:31Z</time>
      </trkpt>
      <trkpt lat="47.45904" lon="-0.57908">
        <ele>8</ele>
        <time>2011-09-01T15:00:32Z</time>
      </trkpt>
      <trkpt lat="47.45906" lon="-0.57907">
        <ele>8</ele>
        <time>2011-09-01T15:00:33Z</time>
      </trkpt>
      <trkpt lat="47.45907" lon="-0.57906">
        <ele>8</ele>
        <time>2011-09-01T15:00:34Z</time>
      </trkpt>
      <trkpt lat="47.45909" lon="-0.57904">
        <ele>9</ele>
        <time>2011-09-01T15:00:35Z</time>
      </trkpt>
      <trkpt lat="47.4591" lon="-0.57903">
        <ele>9</ele>
        <time>2011-09-01T15:00:36Z</time>
      </trkpt>
      <trkpt lat="47.45912" lon="-0.57901">
        <ele>10</ele>
        <time>2011-09-01T15:00:37Z</time>
      </trkpt>
      <trkpt lat="47.45915" lon="-0.57899">
        <ele>11</ele>
        <time>2011-09-01T15:00:38Z</time>
      </trkpt>
      <trkpt lat="47.45918" lon="-0.57897">
        <ele>12</ele>
        <time>2011-09-01T15:00:39Z</time>
      </trkpt>
      <trkpt lat="47.45922" lon="-0.57895">
        <ele>12</ele>
        <time>2011-09-01T15:00:40Z</time>
      </trkpt>
      <trkpt lat="47.45927" lon="-0.57892">
        <ele>13</ele>
        <time>2011-09-01T15:00:41Z</time>
      </trkpt>
      <trkpt lat="47.4593" lon="-0.5789">
        <ele>13</ele>
        <time>2011-09-01T15:00:42Z</time>
      </trkpt>
      <trkpt lat="47.45934" lon="-0.57887">
        <ele>13</ele>
        <time>2011-09-01T15:00:43Z</time>
      </trkpt>
      <trkpt lat="47.45936" lon="-0.57885">
        <ele>13</ele>
        <time>2011-09-01T15:00:44Z</time>
      </trkpt>
      <trkpt lat="47.45938" lon="-0.57883">
        <ele>13</ele>
        <time>2011-09-01T15:00:45Z</time>
      </trkpt>
      <trkpt lat="47.4594" lon="-0.57881">
        <ele>13</ele>
        <time>2011-09-01T15:00:46Z</time>
      </trkpt>
      <trkpt lat="47.45942" lon="-0.57879">
        <ele>13</ele>
        <time>2011-09-01T15:00:47Z</time>
      </trkpt>
      <trkpt lat="47.45944" lon="-0.57877">
        <ele>13</ele>
        <time>2011-09-01T15:00:48Z</time>
      </trkpt>
      <trkpt lat="47.45946" lon="-0.57876">
        <ele>13</ele>
        <time>2011-09-01T15:00:49Z</time>
      </trkpt>
      <trkpt lat="47.45949" lon="-0.57875">
        <ele>13</ele>
        <time>2011-09-01T15:00:50Z</time>
      </trkpt>
      <trkpt lat="47.45951" lon="-0.57873">
        <ele>13</ele>
        <time>2011-09-01T15:00:51Z</time>
      </trkpt>
      <trkpt lat="47.45955" lon="-0.57872">
        <ele>13</ele>
        <time>2011-09-01T15:00:52Z</time>
      </trkpt>
      <trkpt lat="47.45958" lon="-0.57871">
        <ele>13</ele>
        <time>2011-09-01T15:00:53Z</time>
      </trkpt>
      <trkpt lat="47.45961" lon="-0.5787">
        <ele>13</ele>
        <time>2011-09-01T15:00:54Z</time>
      </trkpt>
      <trkpt lat="47.45963" lon="-0.57869">
        <ele>13</ele>
        <time>2011-09-01T15:00:55Z</time>
      </trkpt>
      <trkpt lat="47.45965" lon="-0.57868">
        <ele>13</ele>
        <time>2011-09-01T15:00:56Z</time>
      </trkpt>
      <trkpt lat="47.45969" lon="-0.57865">
        <ele>13</ele>
        <time>2011-09-01T15:00:57Z</time>
      </trkpt>
      <trkpt lat="47.45972" lon="-0.57862">
        <ele>13</ele>
        <time>2011-09-01T15:00:58Z</time>
      </trkpt>
      <trkpt lat="47.45975" lon="-0.5786">
        <ele>13</ele>
        <time>2011-09-01T15:00:59Z</time>
      </trkpt>
      <trkpt lat="47.4598" lon="-0.57857">
        <ele>13</ele>
        <time>2011-09-01T15:01:00Z</time>
      </trkpt>
      <trkpt lat="47.45984" lon="-0.57854">
        <ele>13</ele>
        <time>2011-09-01T15:01:01Z</time>
      </trkpt>
      <trkpt lat="47.45987" lon="-0.57851">
        <ele>13</ele>
        <time>2011-09-01T15:01:02Z</time>
      </trkpt>
      <trkpt lat="47.4599" lon="-0.57849">
        <ele>13</ele>
        <time>2011-09-01T15:01:03Z</time>
      </trkpt>
      <trkpt lat="47.45993" lon="-0.57847">
        <ele>13</ele>
        <time>2011-09-01T15:01:04Z</time>
      </trkpt>
      <trkpt lat="47.45996" lon="-0.57845">
        <ele>13</ele>
        <time>2011-09-01T15:01:05Z</time>
      </trkpt>
      <trkpt lat="47.46" lon="-0.57842">
        <ele>13</ele>
        <time>2011-09-01T15:01:06Z</time>
      </trkpt>
      <trkpt lat="47.46003" lon="-0.5784">
        <ele>13</ele>
        <time>2011-09-01T15:01:07Z</time>
      </trkpt>
      <trkpt lat="47.46006" lon="-0.57837">
        <ele>13</ele>
        <time>2011-09-01T15:01:08Z</time>
      </trkpt>
      <trkpt lat="47.46009" lon="-0.57836">
        <ele>13</ele>
        <time>2011-09-01T15:01:09Z</time>
      </trkpt>
      <trkpt lat="47.46011" lon="-0.57835">
        <ele>13</ele>
        <time>2011-09-01T15:01:10Z</time>
      </trkpt>
      <trkpt lat="47.46014" lon="-0.57833">
        <ele>13</ele>
        <time>2011-09-01T15:01:11Z</time>
      </trkpt>
      <trkpt lat="47.46016" lon="-0.57831">
        <ele>13</ele>
        <time>2011-09-01T15:01:12Z</time>
      </trkpt>
      <trkpt lat="47.46019" lon="-0.57828">
        <ele>13</ele>
        <time>2011-09-01T15:01:13Z</time>
      </trkpt>
      <trkpt lat="47.46023" lon="-0.57826">
        <ele>13</ele>
        <time>2011-09-01T15:01:14Z</time>
      </trkpt>
      <trkpt lat="47.46026" lon="-0.57824">
        <ele>13</ele>
        <time>2011-09-01T15:01:15Z</time>
      </trkpt>
      <trkpt lat="47.46029" lon="-0.57823">
        <ele>13</ele>
        <time>2011-09-01T15:01:16Z</time>
      </trkpt>
      <trkpt lat="47.46031" lon="-0.57821">
        <ele>13</ele>
        <time>2011-09-01T15:01:17Z</time>
      </trkpt>
      <trkpt lat="47.46034" lon="-0.5782">
        <ele>13</ele>
        <time>2011-09-01T15:01:18Z</time>
      </trkpt>
      <trkpt lat="47.46037" lon="-0.57818">
        <ele>13</ele>
        <time>2011-09-01T15:01:19Z</time>
      </trkpt>
      <trkpt lat="47.46041" lon="-0.57816">
        <ele>13</ele>
        <time>2011-09-01T15:01:20Z</time>
      </trkpt>
      <trkpt lat="47.46044" lon="-0.57815">
        <ele>13</ele>
        <time>2011-09-01T15:01:21Z</time>
      </trkpt>
      <trkpt lat="47.46047" lon="-0.57813">
        <ele>13</ele>
        <time>2011-09-01T15:01:22Z</time>
      </trkpt>
      <trkpt lat="47.4605" lon="-0.57811">
        <ele>13</ele>
        <time>2011-09-01T15:01:23Z</time>
      </trkpt>
      <trkpt lat="47.46053" lon="-0.5781">
        <ele>13</ele>
        <time>2011-09-01T15:01:24Z</time>
      </trkpt>
      <trkpt lat="47.46056" lon="-0.57808">
        <ele>13</ele>
        <time>2011-09-01T15:01:25Z</time>
      </trkpt>
      <trkpt lat="47.46058" lon="-0.57807">
        <ele>13</ele>
        <time>2011-09-01T15:01:26Z</time>
      </trkpt>
      <trkpt lat="47.46061" lon="-0.57805">
        <ele>13</ele>
        <time>2011-09-01T15:01:27Z</time>
      </trkpt>
      <trkpt lat="47.46064" lon="-0.57803">
        <ele>13</ele>
        <time>2011-09-01T15:01:28Z</time>
      </trkpt>
      <trkpt lat="47.46067" lon="-0.57802">
        <ele>13</ele>
        <time>2011-09-01T15:01:29Z</time>
      </trkpt>
      <trkpt lat="47.4607" lon="-0.57801">
        <ele>13</ele>
        <time>2011-09-01T15:01:30Z</time>
      </trkpt>
      <trkpt lat="47.46073" lon="-0.578">
        <ele>13</ele>
        <time>2011-09-01T15:01:31Z</time>
      </trkpt>
      <trkpt lat="47.46077" lon="-0.57798">
        <ele>13</ele>
        <time>2011-09-01T15:01:32Z</time>
      </trkpt>
      <trkpt lat="47.4608" lon="-0.57796">
        <ele>13</ele>
        <time>2011-09-01T15:01:33Z</time>
      </trkpt>
      <trkpt lat="47.46083" lon="-0.57795">
        <ele>13</ele>
        <time>2011-09-01T15:01:34Z</time>
      </trkpt>
      <trkpt lat="47.46085" lon="-0.57794">
        <ele>13</ele>
        <time>2011-09-01T15:01:35Z</time>
      </trkpt>
      <trkpt lat="47.46088" lon="-0.57793">
        <ele>13</ele>
        <time>2011-09-01T15:01:36Z</time>
      </trkpt>
      <trkpt lat="47.46091" lon="-0.57792">
        <ele>13</ele>
        <time>2011-09-01T15:01:37Z</time>
      </trkpt>
      <trkpt lat="47.46094" lon="-0.5779">
        <ele>13</ele>
        <time>2011-09-01T15:01:38Z</time>
      </trkpt>
      <trkpt lat="47.46098" lon="-0.57788">
        <ele>13</ele>
        <time>2011-09-01T15:01:39Z</time>
      </trkpt>
      <trkpt lat="47.46101" lon="-0.57786">
        <ele>13</ele>
        <time>2011-09-01T15:01:40Z</time>
      </trkpt>
      <trkpt lat="47.46104" lon="-0.57785">
        <ele>13</ele>
        <time>2011-09-01T15:01:41Z</time>
      </trkpt>
      <trkpt lat="47.46106" lon="-0.57783">
        <ele>13</ele>
        <time>2011-09-01T15:01:42Z</time>
      </trkpt>
      <trkpt lat="47.4611" lon="-0.57781">
        <ele>13</ele>
        <time>2011-09-01T15:01:43Z</time>
      </trkpt>
      <trkpt lat="47.46113" lon="-0.57779">
        <ele>13</ele>
        <time>2011-09-01T15:01:44Z</time>
      </trkpt>
      <trkpt lat="47.46116" lon="-0.57777">
        <ele>13</ele>
        <time>2011-09-01T15:01:45Z</time>
      </trkpt>
      <trkpt lat="47.46119" lon="-0.57776">
        <ele>13</ele>
        <time>2011-09-01T15:01:46Z</time>
      </trkpt>
      <trkpt lat="47.46122" lon="-0.57774">
        <ele>13</ele>
        <time>2011-09-01T15:01:47Z</time>
      </trkpt>
      <trkpt lat="47.46125" lon="-0.57773">
        <ele>13</ele>
        <time>2011-09-01T15:01:48Z</time>
      </trkpt>
      <trkpt lat="47.46127" lon="-0.57771">
        <ele>13</ele>
        <time>2011-09-01T15:01:49Z</time>
      </trkpt>
      <trkpt lat="47.4613" lon="-0.5777">
        <ele>13</ele>
        <time>2011-09-01T15:01:50Z</time>
      </trkpt>
      <trkpt lat="47.46133" lon="-0.57768">
        <ele>13</ele>
        <time>2011-09-01T15:01:51Z</time>
      </trkpt>
      <trkpt lat="47.46135" lon="-0.57767">
        <ele>13</ele>
        <time>2011-09-01T15:01:52Z</time>
      </trkpt>
      <trkpt lat="47.46138" lon="-0.57766">
        <ele>13</ele>
        <time>2011-09-01T15:01:53Z</time>
      </trkpt>
      <trkpt lat="47.46141" lon="-0.57765">
        <ele>13</ele>
        <time>2011-09-01T15:01:54Z</time>
      </trkpt>
      <trkpt lat="47.46144" lon="-0.57764">
        <ele>13</ele>
        <time>2011-09-01T15:01:55Z</time>
      </trkpt>
      <trkpt lat="47.46147" lon="-0.57763">
        <ele>13</ele>
        <time>2011-09-01T15:01:56Z</time>
      </trkpt>
      <trkpt lat="47.4615" lon="-0.57761">
        <ele>13</ele>
        <time>2011-09-01T15:01:57Z</time>
      </trkpt>
      <trkpt lat="47.46152" lon="-0.57759">
        <ele>13</ele>
        <time>2011-09-01T15:01:58Z</time>
      </trkpt>
      <trkpt lat="47.46155" lon="-0.57758">
        <ele>13</ele>
        <time>2011-09-01T15:01:59Z</time>
      </trkpt>
      <trkpt lat="47.46158" lon="-0.57757">
        <ele>13</ele>
        <time>2011-09-01T15:02:00Z</time>
      </trkpt>
      <trkpt lat="47.46161" lon="-0.57756">
        <ele>13</ele>
        <time>2011-09-01T15:02:01Z</time>
      </trkpt>
      <trkpt lat="47.46165" lon="-0.57754">
        <ele>13</ele>
        <time>2011-09-01T15:02:02Z</time>
      </trkpt>
      <trkpt lat="47.46167" lon="-0.57753">
        <ele>13</ele>
        <time>2011-09-01T15:02:03Z</time>
      </trkpt>
      <trkpt lat="47.4617" lon="-0.57752">
        <ele>13</ele>
        <time>2011-09-01T15:02:04Z</time>
      </trkpt>
      <trkpt lat="47.46171" lon="-0.57752">
        <ele>13</ele>
        <time>2011-09-01T15:02:05Z</time>
      </trkpt>
      <trkpt lat="47.46173" lon="-0.57751">
        <ele>13</ele>
        <time>2011-09-01T15:02:06Z</time>
      </trkpt>
      <trkpt lat="47.46177" lon="-0.5775">
        <ele>13</ele>
        <time>2011-09-01T15:02:07Z</time>
      </trkpt>
      <trkpt lat="47.4618" lon="-0.57748">
        <ele>13</ele>
        <time>2011-09-01T15:02:08Z</time>
      </trkpt>
      <trkpt lat="47.46183" lon="-0.57747">
        <ele>13</ele>
        <time>2011-09-01T15:02:09Z</time>
      </trkpt>
      <trkpt lat="47.46186" lon="-0.57745">
        <ele>13</ele>
        <time>2011-09-01T15:02:10Z</time>
      </trkpt>
      <trkpt lat="47.46189" lon="-0.57744">
        <ele>13</ele>
        <time>2011-09-01T15:02:11Z</time>
      </trkpt>
      <trkpt lat="47.46192" lon="-0.57742">
        <ele>13</ele>
        <time>2011-09-01T15:02:12Z</time>
      </trkpt>
      <trkpt lat="47.46195" lon="-0.57741">
        <ele>13</ele>
        <time>2011-09-01T15:02:13Z</time>
      </trkpt>
      <trkpt lat="47.46198" lon="-0.57739">
        <ele>13</ele>
        <time>2011-09-01T15:02:14Z</time>
      </trkpt>
      <trkpt lat="47.46201" lon="-0.57738">
        <ele>13</ele>
        <time>2011-09-01T15:02:15Z</time>
      </trkpt>
      <trkpt lat="47.46204" lon="-0.57736">
        <ele>13</ele>
        <time>2011-09-01T15:02:16Z</time>
      </trkpt>
      <trkpt lat="47.46207" lon="-0.57735">
        <ele>13</ele>
        <time>2011-09-01T15:02:17Z</time>
      </trkpt>
      <trkpt lat="47.4621" lon="-0.57734">
        <ele>13</ele>
        <time>2011-09-01T15:02:18Z</time>
      </trkpt>
      <trkpt lat="47.46213" lon="-0.57733">
        <ele>13</ele>
        <time>2011-09-01T15:02:19Z</time>
      </trkpt>
      <trkpt lat="47.46216" lon="-0.57731">
        <ele>13</ele>
        <time>2011-09-01T15:02:20Z</time>
      </trkpt>
      <trkpt lat="47.46219" lon="-0.57729">
        <ele>13</ele>
        <time>2011-09-01T15:02:21Z</time>
      </trkpt>
      <trkpt lat="47.46222" lon="-0.57728">
        <ele>13</ele>
        <time>2011-09-01T15:02:22Z</time>
      </trkpt>
      <trkpt lat="47.46224" lon="-0.57727">
        <ele>13</ele>
        <time>2011-09-01T15:02:23Z</time>
      </trkpt>
      <trkpt lat="47.46226" lon="-0.57725">
        <ele>13</ele>
        <time>2011-09-01T15:02:24Z</time>
      </trkpt>
      <trkpt lat="47.46229" lon="-0.57724">
        <ele>13</ele>
        <time>2011-09-01T15:02:25Z</time>
      </trkpt>
      <trkpt lat="47.46232" lon="-0.57722">
        <ele>13</ele>
        <time>2011-09-01T15:02:26Z</time>
      </trkpt>
      <trkpt lat="47.46235" lon="-0.57721">
        <ele>13</ele>
        <time>2011-09-01T15:02:27Z</time>
      </trkpt>
      <trkpt lat="47.46238" lon="-0.57719">
        <ele>13</ele>
        <time>2011-09-01T15:02:28Z</time>
      </trkpt>
      <trkpt lat="47.46242" lon="-0.57717">
        <ele>13</ele>
        <time>2011-09-01T15:02:29Z</time>
      </trkpt>
      <trkpt lat="47.46245" lon="-0.57715">
        <ele>13</ele>
        <time>2011-09-01T15:02:30Z</time>
      </trkpt>
      <trkpt lat="47.46248" lon="-0.57714">
        <ele>13</ele>
        <time>2011-09-01T15:02:31Z</time>
      </trkpt>
      <trkpt lat="47.46251" lon="-0.57712">
        <ele>13</ele>
        <time>2011-09-01T15:02:32Z</time>
      </trkpt>
      <trkpt lat="47.46254" lon="-0.5771">
        <ele>13</ele>
        <time>2011-09-01T15:02:33Z</time>
      </trkpt>
      <trkpt lat="47.46257" lon="-0.57709">
        <ele>13</ele>
        <time>2011-09-01T15:02:34Z</time>
      </trkpt>
      <trkpt lat="47.46261" lon="-0.57707">
        <ele>13</ele>
        <time>2011-09-01T15:02:35Z</time>
      </trkpt>
      <trkpt lat="47.46264" lon="-0.57705">
        <ele>13</ele>
        <time>2011-09-01T15:02:36Z</time>
      </trkpt>
      <trkpt lat="47.46267" lon="-0.57704">
        <ele>13</ele>
        <time>2011-09-01T15:02:37Z</time>
      </trkpt>
      <trkpt lat="47.4627" lon="-0.57702">
        <ele>13</ele>
        <time>2011-09-01T15:02:38Z</time>
      </trkpt>
      <trkpt lat="47.46273" lon="-0.57701">
        <ele>13</ele>
        <time>2011-09-01T15:02:39Z</time>
      </trkpt>
      <trkpt lat="47.46277" lon="-0.577">
        <ele>13</ele>
        <time>2011-09-01T15:02:40Z</time>
      </trkpt>
      <trkpt lat="47.4628" lon="-0.57698">
        <ele>13</ele>
        <time>2011-09-01T15:02:41Z</time>
      </trkpt>
      <trkpt lat="47.46283" lon="-0.57696">
        <ele>13</ele>
        <time>2011-09-01T15:02:42Z</time>
      </trkpt>
      <trkpt lat="47.46286" lon="-0.57694">
        <ele>13</ele>
        <time>2011-09-01T15:02:43Z</time>
      </trkpt>
      <trkpt lat="47.46289" lon="-0.57692">
        <ele>13</ele>
        <time>2011-09-01T15:02:44Z</time>
      </trkpt>
      <trkpt lat="47.46293" lon="-0.5769">
        <ele>13</ele>
        <time>2011-09-01T15:02:45Z</time>
      </trkpt>
      <trkpt lat="47.46296" lon="-0.57688">
        <ele>13</ele>
        <time>2011-09-01T15:02:46Z</time>
      </trkpt>
      <trkpt lat="47.46299" lon="-0.57686">
        <ele>13</ele>
        <time>2011-09-01T15:02:47Z</time>
      </trkpt>
      <trkpt lat="47.46303" lon="-0.57684">
        <ele>13</ele>
        <time>2011-09-01T15:02:48Z</time>
      </trkpt>
      <trkpt lat="47.46306" lon="-0.57682">
        <ele>13</ele>
        <time>2011-09-01T15:02:49Z</time>
      </trkpt>
      <trkpt lat="47.46309" lon="-0.57679">
        <ele>13</ele>
        <time>2011-09-01T15:02:50Z</time>
      </trkpt>
      <trkpt lat="47.46312" lon="-0.57678">
        <ele>13</ele>
        <time>2011-09-01T15:02:51Z</time>
      </trkpt>
      <trkpt lat="47.46315" lon="-0.57676">
        <ele>13</ele>
        <time>2011-09-01T15:02:52Z</time>
      </trkpt>
      <trkpt lat="47.46318" lon="-0.57674">
        <ele>13</ele>
        <time>2011-09-01T15:02:53Z</time>
      </trkpt>
      <trkpt lat="47.46321" lon="-0.57673">
        <ele>13</ele>
        <time>2011-09-01T15:02:54Z</time>
      </trkpt>
      <trkpt lat="47.46324" lon="-0.5767">
        <ele>13</ele>
        <time>2011-09-01T15:02:55Z</time>
      </trkpt>
      <trkpt lat="47.46328" lon="-0.57667">
        <ele>13</ele>
        <time>2011-09-01T15:02:56Z</time>
      </trkpt>
      <trkpt lat="47.46331" lon="-0.57664">
        <ele>13</ele>
        <time>2011-09-01T15:02:57Z</time>
      </trkpt>
      <trkpt lat="47.46334" lon="-0.57662">
        <ele>13</ele>
        <time>2011-09-01T15:02:58Z</time>
      </trkpt>
      <trkpt lat="47.46336" lon="-0.5766">
        <ele>13</ele>
        <time>2011-09-01T15:02:59Z</time>
      </trkpt>
      <trkpt lat="47.46339" lon="-0.57658">
        <ele>13</ele>
        <time>2011-09-01T15:03:00Z</time>
      </trkpt>
      <trkpt lat="47.46342" lon="-0.57656">
        <ele>13</ele>
        <time>2011-09-01T15:03:01Z</time>
      </trkpt>
      <trkpt lat="47.46344" lon="-0.57654">
        <ele>13</ele>
        <time>2011-09-01T15:03:02Z</time>
      </trkpt>
      <trkpt lat="47.46347" lon="-0.57653">
        <ele>13</ele>
        <time>2011-09-01T15:03:03Z</time>
      </trkpt>
      <trkpt lat="47.4635" lon="-0.57651">
        <ele>13</ele>
        <time>2011-09-01T15:03:04Z</time>
      </trkpt>
      <trkpt lat="47.46354" lon="-0.57648">
        <ele>13</ele>
        <time>2011-09-01T15:03:05Z</time>
      </trkpt>
      <trkpt lat="47.46357" lon="-0.57646">
        <ele>13</ele>
        <time>2011-09-01T15:03:06Z</time>
      </trkpt>
      <trkpt lat="47.4636" lon="-0.57643">
        <ele>13</ele>
        <time>2011-09-01T15:03:07Z</time>
      </trkpt>
      <trkpt lat="47.46362" lon="-0.57641">
        <ele>13</ele>
        <time>2011-09-01T15:03:08Z</time>
      </trkpt>
      <trkpt lat="47.46365" lon="-0.57639">
        <ele>13</ele>
        <time>2011-09-01T15:03:09Z</time>
      </trkpt>
      <trkpt lat="47.46368" lon="-0.57637">
        <ele>12</ele>
        <time>2011-09-01T15:03:10Z</time>
      </trkpt>
      <trkpt lat="47.46371" lon="-0.57635">
        <ele>12</ele>
        <time>2011-09-01T15:03:11Z</time>
      </trkpt>
      <trkpt lat="47.46375" lon="-0.57632">
        <ele>11</ele>
        <time>2011-09-01T15:03:12Z</time>
      </trkpt>
      <trkpt lat="47.46377" lon="-0.5763">
        <ele>11</ele>
        <time>2011-09-01T15:03:13Z</time>
      </trkpt>
      <trkpt lat="47.4638" lon="-0.57628">
        <ele>11</ele>
        <time>2011-09-01T15:03:14Z</time>
      </trkpt>
      <trkpt lat="47.46383" lon="-0.57626">
        <ele>10</ele>
        <time>2011-09-01T15:03:15Z</time>
      </trkpt>
      <trkpt lat="47.46386" lon="-0.57623">
        <ele>10</ele>
        <time>2011-09-01T15:03:16Z</time>
      </trkpt>
      <trkpt lat="47.46388" lon="-0.57621">
        <ele>9</ele>
        <time>2011-09-01T15:03:17Z</time>
      </trkpt>
      <trkpt lat="47.46391" lon="-0.57618">
        <ele>9</ele>
        <time>2011-09-01T15:03:18Z</time>
      </trkpt>
      <trkpt lat="47.46394" lon="-0.57616">
        <ele>9</ele>
        <time>2011-09-01T15:03:19Z</time>
      </trkpt>
      <trkpt lat="47.46396" lon="-0.57614">
        <ele>9</ele>
        <time>2011-09-01T15:03:20Z</time>
      </trkpt>
      <trkpt lat="47.46399" lon="-0.57613">
        <ele>9</ele>
        <time>2011-09-01T15:03:21Z</time>
      </trkpt>
      <trkpt lat="47.46401" lon="-0.5761">
        <ele>9</ele>
        <time>2011-09-01T15:03:22Z</time>
      </trkpt>
      <trkpt lat="47.46403" lon="-0.57608">
        <ele>9</ele>
        <time>2011-09-01T15:03:23Z</time>
      </trkpt>
      <trkpt lat="47.46405" lon="-0.57605">
        <ele>9</ele>
        <time>2011-09-01T15:03:24Z</time>
      </trkpt>
      <trkpt lat="47.46407" lon="-0.57603">
        <ele>9</ele>
        <time>2011-09-01T15:03:25Z</time>
      </trkpt>
      <trkpt lat="47.46409" lon="-0.57601">
        <ele>9</ele>
        <time>2011-09-01T15:03:26Z</time>
      </trkpt>
      <trkpt lat="47.46412" lon="-0.576">
        <ele>9</ele>
        <time>2011-09-01T15:03:27Z</time>
      </trkpt>
      <trkpt lat="47.46413" lon="-0.57598">
        <ele>9</ele>
        <time>2011-09-01T15:03:28Z</time>
      </trkpt>
      <trkpt lat="47.46416" lon="-0.57596">
        <ele>9</ele>
        <time>2011-09-01T15:03:29Z</time>
      </trkpt>
      <trkpt lat="47.46418" lon="-0.57594">
        <ele>9</ele>
        <time>2011-09-01T15:03:30Z</time>
      </trkpt>
      <trkpt lat="47.46421" lon="-0.57592">
        <ele>9</ele>
        <time>2011-09-01T15:03:31Z</time>
      </trkpt>
      <trkpt lat="47.46423" lon="-0.57591">
        <ele>9</ele>
        <time>2011-09-01T15:03:32Z</time>
      </trkpt>
      <trkpt lat="47.46425" lon="-0.57589">
        <ele>9</ele>
        <time>2011-09-01T15:03:33Z</time>
      </trkpt>
      <trkpt lat="47.46427" lon="-0.57587">
        <ele>9</ele>
        <time>2011-09-01T15:03:34Z</time>
      </trkpt>
      <trkpt lat="47.4643" lon="-0.57585">
        <ele>9</ele>
        <time>2011-09-01T15:03:35Z</time>
      </trkpt>
      <trkpt lat="47.46433" lon="-0.57582">
        <ele>9</ele>
        <time>2011-09-01T15:03:36Z</time>
      </trkpt>
      <trkpt lat="47.46436" lon="-0.5758">
        <ele>9</ele>
        <time>2011-09-01T15:03:37Z</time>
      </trkpt>
      <trkpt lat="47.46439" lon="-0.57578">
        <ele>9</ele>
        <time>2011-09-01T15:03:38Z</time>
      </trkpt>
      <trkpt lat="47.46441" lon="-0.57576">
        <ele>9</ele>
        <time>2011-09-01T15:03:39Z</time>
      </trkpt>
      <trkpt lat="47.46444" lon="-0.57573">
        <ele>9</ele>
        <time>2011-09-01T15:03:40Z</time>
      </trkpt>
      <trkpt lat="47.46446" lon="-0.5757">
        <ele>9</ele>
        <time>2011-09-01T15:03:41Z</time>
      </trkpt>
      <trkpt lat="47.46449" lon="-0.57567">
        <ele>9</ele>
        <time>2011-09-01T15:03:42Z</time>
      </trkpt>
      <trkpt lat="47.46452" lon="-0.57564">
        <ele>9</ele>
        <time>2011-09-01T15:03:43Z</time>
      </trkpt>
      <trkpt lat="47.46453" lon="-0.57562">
        <ele>9</ele>
        <time>2011-09-01T15:03:44Z</time>
      </trkpt>
      <trkpt lat="47.46455" lon="-0.57559">
        <ele>9</ele>
        <time>2011-09-01T15:03:45Z</time>
      </trkpt>
      <trkpt lat="47.46457" lon="-0.57557">
        <ele>9</ele>
        <time>2011-09-01T15:03:46Z</time>
      </trkpt>
      <trkpt lat="47.46458" lon="-0.57555">
        <ele>9</ele>
        <time>2011-09-01T15:03:47Z</time>
      </trkpt>
      <trkpt lat="47.4646" lon="-0.57553">
        <ele>9</ele>
        <time>2011-09-01T15:03:48Z</time>
      </trkpt>
      <trkpt lat="47.46461" lon="-0.5755">
        <ele>9</ele>
        <time>2011-09-01T15:03:49Z</time>
      </trkpt>
      <trkpt lat="47.46464" lon="-0.57548">
        <ele>9</ele>
        <time>2011-09-01T15:03:50Z</time>
      </trkpt>
      <trkpt lat="47.46466" lon="-0.57545">
        <ele>9</ele>
        <time>2011-09-01T15:03:51Z</time>
      </trkpt>
      <trkpt lat="47.46468" lon="-0.57543">
        <ele>9</ele>
        <time>2011-09-01T15:03:52Z</time>
      </trkpt>
      <trkpt lat="47.46469" lon="-0.57541">
        <ele>9</ele>
        <time>2011-09-01T15:03:53Z</time>
      </trkpt>
      <trkpt lat="47.46472" lon="-0.57538">
        <ele>9</ele>
        <time>2011-09-01T15:03:54Z</time>
      </trkpt>
      <trkpt lat="47.46475" lon="-0.57537">
        <ele>9</ele>
        <time>2011-09-01T15:03:55Z</time>
      </trkpt>
      <trkpt lat="47.46479" lon="-0.57534">
        <ele>9</ele>
        <time>2011-09-01T15:03:56Z</time>
      </trkpt>
      <trkpt lat="47.46483" lon="-0.57531">
        <ele>9</ele>
        <time>2011-09-01T15:03:57Z</time>
      </trkpt>
      <trkpt lat="47.46487" lon="-0.57528">
        <ele>9</ele>
        <time>2011-09-01T15:03:58Z</time>
      </trkpt>
      <trkpt lat="47.4649" lon="-0.57526">
        <ele>10</ele>
        <time>2011-09-01T15:03:59Z</time>
      </trkpt>
      <trkpt lat="47.46493" lon="-0.57525">
        <ele>11</ele>
        <time>2011-09-01T15:04:00Z</time>
      </trkpt>
      <trkpt lat="47.46495" lon="-0.57523">
        <ele>11</ele>
        <time>2011-09-01T15:04:01Z</time>
      </trkpt>
      <trkpt lat="47.46497" lon="-0.57518">
        <ele>12</ele>
        <time>2011-09-01T15:04:02Z</time>
      </trkpt>
      <trkpt lat="47.46499" lon="-0.57514">
        <ele>12</ele>
        <time>2011-09-01T15:04:03Z</time>
      </trkpt>
      <trkpt lat="47.46502" lon="-0.57511">
        <ele>13</ele>
        <time>2011-09-01T15:04:04Z</time>
      </trkpt>
      <trkpt lat="47.46505" lon="-0.57507">
        <ele>13</ele>
        <time>2011-09-01T15:04:05Z</time>
      </trkpt>
      <trkpt lat="47.46508" lon="-0.57504">
        <ele>13</ele>
        <time>2011-09-01T15:04:06Z</time>
      </trkpt>
      <trkpt lat="47.4651" lon="-0.575">
        <ele>13</ele>
        <time>2011-09-01T15:04:07Z</time>
      </trkpt>
      <trkpt lat="47.46513" lon="-0.57497">
        <ele>13</ele>
        <time>2011-09-01T15:04:08Z</time>
      </trkpt>
      <trkpt lat="47.46515" lon="-0.57494">
        <ele>13</ele>
        <time>2011-09-01T15:04:09Z</time>
      </trkpt>
      <trkpt lat="47.46516" lon="-0.57492">
        <ele>13</ele>
        <time>2011-09-01T15:04:10Z</time>
      </trkpt>
      <trkpt lat="47.46519" lon="-0.5749">
        <ele>13</ele>
        <time>2011-09-01T15:04:11Z</time>
      </trkpt>
      <trkpt lat="47.46521" lon="-0.57487">
        <ele>13</ele>
        <time>2011-09-01T15:04:12Z</time>
      </trkpt>
      <trkpt lat="47.46524" lon="-0.57485">
        <ele>13</ele>
        <time>2011-09-01T15:04:13Z</time>
      </trkpt>
      <trkpt lat="47.46527" lon="-0.57482">
        <ele>13</ele>
        <time>2011-09-01T15:04:14Z</time>
      </trkpt>
      <trkpt lat="47.46529" lon="-0.57479">
        <ele>13</ele>
        <time>2011-09-01T15:04:15Z</time>
      </trkpt>
      <trkpt lat="47.46532" lon="-0.57476">
        <ele>13</ele>
        <time>2011-09-01T15:04:16Z</time>
      </trkpt>
      <trkpt lat="47.46535" lon="-0.57472">
        <ele>13</ele>
        <time>2011-09-01T15:04:17Z</time>
      </trkpt>
      <trkpt lat="47.46538" lon="-0.57469">
        <ele>13</ele>
        <time>2011-09-01T15:04:18Z</time>
      </trkpt>
      <trkpt lat="47.4654" lon="-0.57466">
        <ele>13</ele>
        <time>2011-09-01T15:04:19Z</time>
      </trkpt>
      <trkpt lat="47.46544" lon="-0.57463">
        <ele>13</ele>
        <time>2011-09-01T15:04:20Z</time>
      </trkpt>
      <trkpt lat="47.46547" lon="-0.57459">
        <ele>13</ele>
        <time>2011-09-01T15:04:21Z</time>
      </trkpt>
      <trkpt lat="47.4655" lon="-0.57456">
        <ele>13</ele>
        <time>2011-09-01T15:04:22Z</time>
      </trkpt>
      <trkpt lat="47.46552" lon="-0.57453">
        <ele>13</ele>
        <time>2011-09-01T15:04:23Z</time>
      </trkpt>
      <trkpt lat="47.46555" lon="-0.5745">
        <ele>13</ele>
        <time>2011-09-01T15:04:24Z</time>
      </trkpt>
      <trkpt lat="47.46558" lon="-0.57447">
        <ele>13</ele>
        <time>2011-09-01T15:04:25Z</time>
      </trkpt>
      <trkpt lat="47.46561" lon="-0.57443">
        <ele>13</ele>
        <time>2011-09-01T15:04:26Z</time>
      </trkpt>
      <trkpt lat="47.46563" lon="-0.57441">
        <ele>13</ele>
        <time>2011-09-01T15:04:27Z</time>
      </trkpt>
      <trkpt lat="47.46565" lon="-0.57438">
        <ele>13</ele>
        <time>2011-09-01T15:04:28Z</time>
      </trkpt>
      <trkpt lat="47.46568" lon="-0.57435">
        <ele>13</ele>
        <time>2011-09-01T15:04:29Z</time>
      </trkpt>
      <trkpt lat="47.46571" lon="-0.57432">
        <ele>13</ele>
        <time>2011-09-01T15:04:30Z</time>
      </trkpt>
      <trkpt lat="47.46574" lon="-0.57429">
        <ele>13</ele>
        <time>2011-09-01T15:04:31Z</time>
      </trkpt>
      <trkpt lat="47.46577" lon="-0.57426">
        <ele>13</ele>
        <time>2011-09-01T15:04:32Z</time>
      </trkpt>
      <trkpt lat="47.4658" lon="-0.57423">
        <ele>13</ele>
        <time>2011-09-01T15:04:33Z</time>
      </trkpt>
      <trkpt lat="47.46584" lon="-0.57419">
        <ele>13</ele>
        <time>2011-09-01T15:04:34Z</time>
      </trkpt>
      <trkpt lat="47.46587" lon="-0.57416">
        <ele>13</ele>
        <time>2011-09-01T15:04:35Z</time>
      </trkpt>
      <trkpt lat="47.4659" lon="-0.57412">
        <ele>13</ele>
        <time>2011-09-01T15:04:36Z</time>
      </trkpt>
      <trkpt lat="47.46592" lon="-0.57409">
        <ele>12</ele>
        <time>2011-09-01T15:04:37Z</time>
      </trkpt>
      <trkpt lat="47.46595" lon="-0.57405">
        <ele>12</ele>
        <time>2011-09-01T15:04:38Z</time>
      </trkpt>
      <trkpt lat="47.46598" lon="-0.57402">
        <ele>11</ele>
        <time>2011-09-01T15:04:39Z</time>
      </trkpt>
      <trkpt lat="47.46601" lon="-0.574">
        <ele>11</ele>
        <time>2011-09-01T15:04:40Z</time>
      </trkpt>
      <trkpt lat="47.46604" lon="-0.57397">
        <ele>11</ele>
        <time>2011-09-01T15:04:41Z</time>
      </trkpt>
      <trkpt lat="47.46607" lon="-0.57394">
        <ele>10</ele>
        <time>2011-09-01T15:04:42Z</time>
      </trkpt>
      <trkpt lat="47.46609" lon="-0.57391">
        <ele>10</ele>
        <time>2011-09-01T15:04:43Z</time>
      </trkpt>
      <trkpt lat="47.46611" lon="-0.57388">
        <ele>10</ele>
        <time>2011-09-01T15:04:44Z</time>
      </trkpt>
      <trkpt lat="47.46613" lon="-0.57385">
        <ele>10</ele>
        <time>2011-09-01T15:04:45Z</time>
      </trkpt>
      <trkpt lat="47.46616" lon="-0.57381">
        <ele>10</ele>
        <time>2011-09-01T15:04:46Z</time>
      </trkpt>
      <trkpt lat="47.46618" lon="-0.57378">
        <ele>10</ele>
        <time>2011-09-01T15:04:47Z</time>
      </trkpt>
      <trkpt lat="47.46621" lon="-0.57376">
        <ele>10</ele>
        <time>2011-09-01T15:04:48Z</time>
      </trkpt>
      <trkpt lat="47.46624" lon="-0.57373">
        <ele>10</ele>
        <time>2011-09-01T15:04:49Z</time>
      </trkpt>
      <trkpt lat="47.46627" lon="-0.57371">
        <ele>10</ele>
        <time>2011-09-01T15:04:50Z</time>
      </trkpt>
      <trkpt lat="47.4663" lon="-0.57367">
        <ele>10</ele>
        <time>2011-09-01T15:04:51Z</time>
      </trkpt>
      <trkpt lat="47.46633" lon="-0.57365">
        <ele>10</ele>
        <time>2011-09-01T15:04:52Z</time>
      </trkpt>
      <trkpt lat="47.46635" lon="-0.57362">
        <ele>10</ele>
        <time>2011-09-01T15:04:53Z</time>
      </trkpt>
      <trkpt lat="47.46638" lon="-0.57358">
        <ele>10</ele>
        <time>2011-09-01T15:04:54Z</time>
      </trkpt>
      <trkpt lat="47.46641" lon="-0.57355">
        <ele>10</ele>
        <time>2011-09-01T15:04:55Z</time>
      </trkpt>
      <trkpt lat="47.46643" lon="-0.57352">
        <ele>10</ele>
        <time>2011-09-01T15:04:56Z</time>
      </trkpt>
      <trkpt lat="47.46646" lon="-0.57349">
        <ele>10</ele>
        <time>2011-09-01T15:04:57Z</time>
      </trkpt>
      <trkpt lat="47.46648" lon="-0.57346">
        <ele>10</ele>
        <time>2011-09-01T15:04:58Z</time>
      </trkpt>
      <trkpt lat="47.46651" lon="-0.57343">
        <ele>10</ele>
        <time>2011-09-01T15:04:59Z</time>
      </trkpt>
      <trkpt lat="47.46653" lon="-0.5734">
        <ele>10</ele>
        <time>2011-09-01T15:05:00Z</time>
      </trkpt>
      <trkpt lat="47.46656" lon="-0.57337">
        <ele>10</ele>
        <time>2011-09-01T15:05:01Z</time>
      </trkpt>
      <trkpt lat="47.46658" lon="-0.57334">
        <ele>10</ele>
        <time>2011-09-01T15:05:02Z</time>
      </trkpt>
      <trkpt lat="47.46661" lon="-0.57331">
        <ele>10</ele>
        <time>2011-09-01T15:05:03Z</time>
      </trkpt>
      <trkpt lat="47.46664" lon="-0.57327">
        <ele>10</ele>
        <time>2011-09-01T15:05:04Z</time>
      </trkpt>
      <trkpt lat="47.46665" lon="-0.57325">
        <ele>10</ele>
        <time>2011-09-01T15:05:05Z</time>
      </trkpt>
      <trkpt lat="47.46667" lon="-0.57322">
        <ele>10</ele>
        <time>2011-09-01T15:05:06Z</time>
      </trkpt>
      <trkpt lat="47.4667" lon="-0.57319">
        <ele>10</ele>
        <time>2011-09-01T15:05:07Z</time>
      </trkpt>
      <trkpt lat="47.46672" lon="-0.57318">
        <ele>10</ele>
        <time>2011-09-01T15:05:08Z</time>
      </trkpt>
      <trkpt lat="47.46674" lon="-0.57315">
        <ele>10</ele>
        <time>2011-09-01T15:05:09Z</time>
      </trkpt>
      <trkpt lat="47.46677" lon="-0.57312">
        <ele>10</ele>
        <time>2011-09-01T15:05:10Z</time>
      </trkpt>
      <trkpt lat="47.46679" lon="-0.57309">
        <ele>10</ele>
        <time>2011-09-01T15:05:11Z</time>
      </trkpt>
      <trkpt lat="47.46682" lon="-0.57306">
        <ele>10</ele>
        <time>2011-09-01T15:05:12Z</time>
      </trkpt>
      <trkpt lat="47.46684" lon="-0.57302">
        <ele>10</ele>
        <time>2011-09-01T15:05:13Z</time>
      </trkpt>
      <trkpt lat="47.46686" lon="-0.573">
        <ele>10</ele>
        <time>2011-09-01T15:05:14Z</time>
      </trkpt>
      <trkpt lat="47.46689" lon="-0.57297">
        <ele>10</ele>
        <time>2011-09-01T15:05:15Z</time>
      </trkpt>
      <trkpt lat="47.46691" lon="-0.57295">
        <ele>10</ele>
        <time>2011-09-01T15:05:16Z</time>
      </trkpt>
      <trkpt lat="47.46693" lon="-0.57292">
        <ele>10</ele>
        <time>2011-09-01T15:05:17Z</time>
      </trkpt>
      <trkpt lat="47.46695" lon="-0.57288">
        <ele>10</ele>
        <time>2011-09-01T15:05:18Z</time>
      </trkpt>
      <trkpt lat="47.46697" lon="-0.57286">
        <ele>10</ele>
        <time>2011-09-01T15:05:19Z</time>
      </trkpt>
      <trkpt lat="47.46699" lon="-0.57283">
        <ele>10</ele>
        <time>2011-09-01T15:05:20Z</time>
      </trkpt>
      <trkpt lat="47.46701" lon="-0.5728">
        <ele>10</ele>
        <time>2011-09-01T15:05:21Z</time>
      </trkpt>
      <trkpt lat="47.46704" lon="-0.57277">
        <ele>10</ele>
        <time>2011-09-01T15:05:22Z</time>
      </trkpt>
      <trkpt lat="47.46706" lon="-0.57274">
        <ele>10</ele>
        <time>2011-09-01T15:05:23Z</time>
      </trkpt>
      <trkpt lat="47.46708" lon="-0.5727">
        <ele>10</ele>
        <time>2011-09-01T15:05:24Z</time>
      </trkpt>
      <trkpt lat="47.4671" lon="-0.57267">
        <ele>10</ele>
        <time>2011-09-01T15:05:25Z</time>
      </trkpt>
      <trkpt lat="47.46712" lon="-0.57263">
        <ele>10</ele>
        <time>2011-09-01T15:05:26Z</time>
      </trkpt>
      <trkpt lat="47.46714" lon="-0.57261">
        <ele>10</ele>
        <time>2011-09-01T15:05:27Z</time>
      </trkpt>
      <trkpt lat="47.46716" lon="-0.57258">
        <ele>10</ele>
        <time>2011-09-01T15:05:28Z</time>
      </trkpt>
      <trkpt lat="47.46718" lon="-0.57256">
        <ele>10</ele>
        <time>2011-09-01T15:05:29Z</time>
      </trkpt>
      <trkpt lat="47.4672" lon="-0.57253">
        <ele>10</ele>
        <time>2011-09-01T15:05:30Z</time>
      </trkpt>
      <trkpt lat="47.46722" lon="-0.57251">
        <ele>10</ele>
        <time>2011-09-01T15:05:31Z</time>
      </trkpt>
      <trkpt lat="47.46723" lon="-0.57249">
        <ele>10</ele>
        <time>2011-09-01T15:05:32Z</time>
      </trkpt>
      <trkpt lat="47.46724" lon="-0.57247">
        <ele>10</ele>
        <time>2011-09-01T15:05:33Z</time>
      </trkpt>
      <trkpt lat="47.46725" lon="-0.57245">
        <ele>10</ele>
        <time>2011-09-01T15:05:34Z</time>
      </trkpt>
      <trkpt lat="47.46726" lon="-0.57243">
        <ele>10</ele>
        <time>2011-09-01T15:05:35Z</time>
      </trkpt>
      <trkpt lat="47.46727" lon="-0.57241">
        <ele>10</ele>
        <time>2011-09-01T15:05:36Z</time>
      </trkpt>
      <trkpt lat="47.46728" lon="-0.57239">
        <ele>10</ele>
        <time>2011-09-01T15:05:37Z</time>
      </trkpt>
      <trkpt lat="47.46729" lon="-0.57235">
        <ele>10</ele>
        <time>2011-09-01T15:05:38Z</time>
      </trkpt>
      <trkpt lat="47.46732" lon="-0.57232">
        <ele>10</ele>
        <time>2011-09-01T15:05:39Z</time>
      </trkpt>
      <trkpt lat="47.46734" lon="-0.57228">
        <ele>10</ele>
        <time>2011-09-01T15:05:40Z</time>
      </trkpt>
      <trkpt lat="47.46737" lon="-0.57224">
        <ele>10</ele>
        <time>2011-09-01T15:05:41Z</time>
      </trkpt>
      <trkpt lat="47.46739" lon="-0.57221">
        <ele>10</ele>
        <time>2011-09-01T15:05:42Z</time>
      </trkpt>
      <trkpt lat="47.46741" lon="-0.57217">
        <ele>10</ele>
        <time>2011-09-01T15:05:43Z</time>
      </trkpt>
      <trkpt lat="47.46743" lon="-0.57213">
        <ele>10</ele>
        <time>2011-09-01T15:05:44Z</time>
      </trkpt>
      <trkpt lat="47.46746" lon="-0.5721">
        <ele>10</ele>
        <time>2011-09-01T15:05:45Z</time>
      </trkpt>
      <trkpt lat="47.46749" lon="-0.57206">
        <ele>10</ele>
        <time>2011-09-01T15:05:46Z</time>
      </trkpt>
      <trkpt lat="47.46751" lon="-0.57203">
        <ele>10</ele>
        <time>2011-09-01T15:05:47Z</time>
      </trkpt>
      <trkpt lat="47.46753" lon="-0.57199">
        <ele>10</ele>
        <time>2011-09-01T15:05:48Z</time>
      </trkpt>
      <trkpt lat="47.46756" lon="-0.57196">
        <ele>10</ele>
        <time>2011-09-01T15:05:49Z</time>
      </trkpt>
      <trkpt lat="47.46758" lon="-0.57193">
        <ele>10</ele>
        <time>2011-09-01T15:05:50Z</time>
      </trkpt>
      <trkpt lat="47.4676" lon="-0.5719">
        <ele>10</ele>
        <time>2011-09-01T15:05:51Z</time>
      </trkpt>
      <trkpt lat="47.46763" lon="-0.57186">
        <ele>10</ele>
        <time>2011-09-01T15:05:52Z</time>
      </trkpt>
      <trkpt lat="47.46765" lon="-0.57183">
        <ele>10</ele>
        <time>2011-09-01T15:05:53Z</time>
      </trkpt>
      <trkpt lat="47.46768" lon="-0.57179">
        <ele>10</ele>
        <time>2011-09-01T15:05:54Z</time>
      </trkpt>
      <trkpt lat="47.4677" lon="-0.57176">
        <ele>10</ele>
        <time>2011-09-01T15:05:55Z</time>
      </trkpt>
      <trkpt lat="47.46773" lon="-0.57173">
        <ele>10</ele>
        <time>2011-09-01T15:05:56Z</time>
      </trkpt>
      <trkpt lat="47.46775" lon="-0.57169">
        <ele>10</ele>
        <time>2011-09-01T15:05:57Z</time>
      </trkpt>
      <trkpt lat="47.46778" lon="-0.57166">
        <ele>10</ele>
        <time>2011-09-01T15:05:58Z</time>
      </trkpt>
      <trkpt lat="47.4678" lon="-0.57162">
        <ele>10</ele>
        <time>2011-09-01T15:05:59Z</time>
      </trkpt>
      <trkpt lat="47.46783" lon="-0.57159">
        <ele>10</ele>
        <time>2011-09-01T15:06:00Z</time>
      </trkpt>
      <trkpt lat="47.46786" lon="-0.57155">
        <ele>10</ele>
        <time>2011-09-01T15:06:01Z</time>
      </trkpt>
      <trkpt lat="47.46789" lon="-0.57152">
        <ele>10</ele>
        <time>2011-09-01T15:06:02Z</time>
      </trkpt>
      <trkpt lat="47.46791" lon="-0.57148">
        <ele>10</ele>
        <time>2011-09-01T15:06:03Z</time>
      </trkpt>
      <trkpt lat="47.46794" lon="-0.57145">
        <ele>10</ele>
        <time>2011-09-01T15:06:04Z</time>
      </trkpt>
      <trkpt lat="47.46796" lon="-0.57141">
        <ele>10</ele>
        <time>2011-09-01T15:06:05Z</time>
      </trkpt>
      <trkpt lat="47.46798" lon="-0.57138">
        <ele>10</ele>
        <time>2011-09-01T15:06:06Z</time>
      </trkpt>
      <trkpt lat="47.46801" lon="-0.57134">
        <ele>10</ele>
        <time>2011-09-01T15:06:07Z</time>
      </trkpt>
      <trkpt lat="47.46804" lon="-0.57131">
        <ele>10</ele>
        <time>2011-09-01T15:06:08Z</time>
      </trkpt>
      <trkpt lat="47.46806" lon="-0.57128">
        <ele>10</ele>
        <time>2011-09-01T15:06:09Z</time>
      </trkpt>
      <trkpt lat="47.46809" lon="-0.57124">
        <ele>10</ele>
        <time>2011-09-01T15:06:10Z</time>
      </trkpt>
      <trkpt lat="47.46811" lon="-0.57121">
        <ele>10</ele>
        <time>2011-09-01T15:06:11Z</time>
      </trkpt>
      <trkpt lat="47.46814" lon="-0.57117">
        <ele>10</ele>
        <time>2011-09-01T15:06:12Z</time>
      </trkpt>
      <trkpt lat="47.46816" lon="-0.57114">
        <ele>10</ele>
        <time>2011-09-01T15:06:13Z</time>
      </trkpt>
      <trkpt lat="47.46819" lon="-0.57111">
        <ele>10</ele>
        <time>2011-09-01T15:06:14Z</time>
      </trkpt>
      <trkpt lat="47.46821" lon="-0.57108">
        <ele>10</ele>
        <time>2011-09-01T15:06:15Z</time>
      </trkpt>
      <trkpt lat="47.46823" lon="-0.57104">
        <ele>10</ele>
        <time>2011-09-01T15:06:16Z</time>
      </trkpt>
      <trkpt lat="47.46826" lon="-0.57101">
        <ele>10</ele>
        <time>2011-09-01T15:06:17Z</time>
      </trkpt>
      <trkpt lat="47.46828" lon="-0.57098">
        <ele>10</ele>
        <time>2011-09-01T15:06:18Z</time>
      </trkpt>
      <trkpt lat="47.4683" lon="-0.57095">
        <ele>10</ele>
        <time>2011-09-01T15:06:19Z</time>
      </trkpt>
      <trkpt lat="47.46833" lon="-0.57092">
        <ele>10</ele>
        <time>2011-09-01T15:06:20Z</time>
      </trkpt>
      <trkpt lat="47.46835" lon="-0.57089">
        <ele>10</ele>
        <time>2011-09-01T15:06:21Z</time>
      </trkpt>
      <trkpt lat="47.46837" lon="-0.57086">
        <ele>10</ele>
        <time>2011-09-01T15:06:22Z</time>
      </trkpt>
      <trkpt lat="47.46839" lon="-0.57083">
        <ele>10</ele>
        <time>2011-09-01T15:06:23Z</time>
      </trkpt>
      <trkpt lat="47.46841" lon="-0.5708">
        <ele>10</ele>
        <time>2011-09-01T15:06:24Z</time>
      </trkpt>
      <trkpt lat="47.46844" lon="-0.57077">
        <ele>10</ele>
        <time>2011-09-01T15:06:25Z</time>
      </trkpt>
      <trkpt lat="47.46846" lon="-0.57074">
        <ele>10</ele>
        <time>2011-09-01T15:06:26Z</time>
      </trkpt>
      <trkpt lat="47.46849" lon="-0.57071">
        <ele>10</ele>
        <time>2011-09-01T15:06:27Z</time>
      </trkpt>
      <trkpt lat="47.46851" lon="-0.57068">
        <ele>10</ele>
        <time>2011-09-01T15:06:28Z</time>
      </trkpt>
      <trkpt lat="47.46853" lon="-0.57065">
        <ele>10</ele>
        <time>2011-09-01T15:06:29Z</time>
      </trkpt>
      <trkpt lat="47.46856" lon="-0.57061">
        <ele>10</ele>
        <time>2011-09-01T15:06:30Z</time>
      </trkpt>
      <trkpt lat="47.46858" lon="-0.57058">
        <ele>10</ele>
        <time>2011-09-01T15:06:31Z</time>
      </trkpt>
      <trkpt lat="47.46861" lon="-0.57055">
        <ele>10</ele>
        <time>2011-09-01T15:06:32Z</time>
      </trkpt>
      <trkpt lat="47.46863" lon="-0.57052">
        <ele>10</ele>
        <time>2011-09-01T15:06:33Z</time>
      </trkpt>
      <trkpt lat="47.46865" lon="-0.57049">
        <ele>10</ele>
        <time>2011-09-01T15:06:34Z</time>
      </trkpt>
      <trkpt lat="47.46867" lon="-0.57046">
        <ele>10</ele>
        <time>2011-09-01T15:06:35Z</time>
      </trkpt>
      <trkpt lat="47.4687" lon="-0.57043">
        <ele>10</ele>
        <time>2011-09-01T15:06:36Z</time>
      </trkpt>
      <trkpt lat="47.46872" lon="-0.5704">
        <ele>10</ele>
        <time>2011-09-01T15:06:37Z</time>
      </trkpt>
      <trkpt lat="47.46874" lon="-0.57037">
        <ele>10</ele>
        <time>2011-09-01T15:06:38Z</time>
      </trkpt>
      <trkpt lat="47.46876" lon="-0.57035">
        <ele>10</ele>
        <time>2011-09-01T15:06:39Z</time>
      </trkpt>
      <trkpt lat="47.46877" lon="-0.57032">
        <ele>10</ele>
        <time>2011-09-01T15:06:40Z</time>
      </trkpt>
      <trkpt lat="47.46879" lon="-0.57029">
        <ele>10</ele>
        <time>2011-09-01T15:06:41Z</time>
      </trkpt>
      <trkpt lat="47.46881" lon="-0.57026">
        <ele>10</ele>
        <time>2011-09-01T15:06:42Z</time>
      </trkpt>
      <trkpt lat="47.46883" lon="-0.57023">
        <ele>10</ele>
        <time>2011-09-01T15:06:43Z</time>
      </trkpt>
      <trkpt lat="47.46884" lon="-0.5702">
        <ele>10</ele>
        <time>2011-09-01T15:06:44Z</time>
      </trkpt>
      <trkpt lat="47.46885" lon="-0.57019">
        <ele>10</ele>
        <time>2011-09-01T15:06:45Z</time>
      </trkpt>
      <trkpt lat="47.46885" lon="-0.57017">
        <ele>10</ele>
        <time>2011-09-01T15:06:47Z</time>
      </trkpt>
      <trkpt lat="47.46884" lon="-0.57017">
        <ele>10</ele>
        <time>2011-09-01T15:06:55Z</time>
      </trkpt>
      <trkpt lat="47.46885" lon="-0.57016">
        <ele>10</ele>
        <time>2011-09-01T15:07:00Z</time>
      </trkpt>
      <trkpt lat="47.46886" lon="-0.57015">
        <ele>10</ele>
        <time>2011-09-01T15:07:01Z</time>
      </trkpt>
      <trkpt lat="47.46888" lon="-0.57014">
        <ele>10</ele>
        <time>2011-09-01T15:07:02Z</time>
      </trkpt>
      <trkpt lat="47.46889" lon="-0.57013">
        <ele>10</ele>
        <time>2011-09-01T15:07:03Z</time>
      </trkpt>
      <trkpt lat="47.46892" lon="-0.57011">
        <ele>10</ele>
        <time>2011-09-01T15:07:04Z</time>
      </trkpt>
      <trkpt lat="47.46894" lon="-0.57008">
        <ele>10</ele>
        <time>2011-09-01T15:07:05Z</time>
      </trkpt>
      <trkpt lat="47.46897" lon="-0.57005">
        <ele>10</ele>
        <time>2011-09-01T15:07:06Z</time>
      </trkpt>
      <trkpt lat="47.46899" lon="-0.57002">
        <ele>10</ele>
        <time>2011-09-01T15:07:07Z</time>
      </trkpt>
      <trkpt lat="47.46902" lon="-0.56998">
        <ele>10</ele>
        <time>2011-09-01T15:07:08Z</time>
      </trkpt>
      <trkpt lat="47.46905" lon="-0.56995">
        <ele>10</ele>
        <time>2011-09-01T15:07:09Z</time>
      </trkpt>
      <trkpt lat="47.46908" lon="-0.56992">
        <ele>10</ele>
        <time>2011-09-01T15:07:10Z</time>
      </trkpt>
      <trkpt lat="47.4691" lon="-0.56988">
        <ele>10</ele>
        <time>2011-09-01T15:07:11Z</time>
      </trkpt>
      <trkpt lat="47.46913" lon="-0.56985">
        <ele>10</ele>
        <time>2011-09-01T15:07:12Z</time>
      </trkpt>
      <trkpt lat="47.46916" lon="-0.56982">
        <ele>10</ele>
        <time>2011-09-01T15:07:13Z</time>
      </trkpt>
      <trkpt lat="47.46918" lon="-0.56979">
        <ele>10</ele>
        <time>2011-09-01T15:07:14Z</time>
      </trkpt>
      <trkpt lat="47.46921" lon="-0.56975">
        <ele>10</ele>
        <time>2011-09-01T15:07:15Z</time>
      </trkpt>
      <trkpt lat="47.46924" lon="-0.56972">
        <ele>10</ele>
        <time>2011-09-01T15:07:16Z</time>
      </trkpt>
      <trkpt lat="47.46926" lon="-0.56968">
        <ele>10</ele>
        <time>2011-09-01T15:07:17Z</time>
      </trkpt>
      <trkpt lat="47.46928" lon="-0.56964">
        <ele>10</ele>
        <time>2011-09-01T15:07:18Z</time>
      </trkpt>
      <trkpt lat="47.4693" lon="-0.56959">
        <ele>10</ele>
        <time>2011-09-01T15:07:19Z</time>
      </trkpt>
      <trkpt lat="47.46933" lon="-0.56954">
        <ele>10</ele>
        <time>2011-09-01T15:07:20Z</time>
      </trkpt>
      <trkpt lat="47.46935" lon="-0.5695">
        <ele>10</ele>
        <time>2011-09-01T15:07:21Z</time>
      </trkpt>
      <trkpt lat="47.46938" lon="-0.56946">
        <ele>10</ele>
        <time>2011-09-01T15:07:22Z</time>
      </trkpt>
      <trkpt lat="47.46941" lon="-0.56941">
        <ele>10</ele>
        <time>2011-09-01T15:07:23Z</time>
      </trkpt>
      <trkpt lat="47.46944" lon="-0.56936">
        <ele>10</ele>
        <time>2011-09-01T15:07:24Z</time>
      </trkpt>
      <trkpt lat="47.46947" lon="-0.56931">
        <ele>10</ele>
        <time>2011-09-01T15:07:25Z</time>
      </trkpt>
      <trkpt lat="47.4695" lon="-0.56926">
        <ele>10</ele>
        <time>2011-09-01T15:07:26Z</time>
      </trkpt>
      <trkpt lat="47.46954" lon="-0.56921">
        <ele>10</ele>
        <time>2011-09-01T15:07:27Z</time>
      </trkpt>
      <trkpt lat="47.46957" lon="-0.56916">
        <ele>10</ele>
        <time>2011-09-01T15:07:28Z</time>
      </trkpt>
      <trkpt lat="47.46961" lon="-0.5691">
        <ele>10</ele>
        <time>2011-09-01T15:07:29Z</time>
      </trkpt>
      <trkpt lat="47.46964" lon="-0.56905">
        <ele>10</ele>
        <time>2011-09-01T15:07:30Z</time>
      </trkpt>
      <trkpt lat="47.46967" lon="-0.56899">
        <ele>9</ele>
        <time>2011-09-01T15:07:31Z</time>
      </trkpt>
      <trkpt lat="47.4697" lon="-0.56893">
        <ele>9</ele>
        <time>2011-09-01T15:07:32Z</time>
      </trkpt>
      <trkpt lat="47.46972" lon="-0.56885">
        <ele>8</ele>
        <time>2011-09-01T15:07:33Z</time>
      </trkpt>
      <trkpt lat="47.46972" lon="-0.56877">
        <ele>8</ele>
        <time>2011-09-01T15:07:34Z</time>
      </trkpt>
      <trkpt lat="47.46971" lon="-0.5687">
        <ele>8</ele>
        <time>2011-09-01T15:07:35Z</time>
      </trkpt>
      <trkpt lat="47.46969" lon="-0.56863">
        <ele>8</ele>
        <time>2011-09-01T15:07:36Z</time>
      </trkpt>
      <trkpt lat="47.46967" lon="-0.56857">
        <ele>8</ele>
        <time>2011-09-01T15:07:37Z</time>
      </trkpt>
      <trkpt lat="47.46965" lon="-0.5685">
        <ele>8</ele>
        <time>2011-09-01T15:07:38Z</time>
      </trkpt>
      <trkpt lat="47.46963" lon="-0.56844">
        <ele>8</ele>
        <time>2011-09-01T15:07:39Z</time>
      </trkpt>
      <trkpt lat="47.46961" lon="-0.56838">
        <ele>8</ele>
        <time>2011-09-01T15:07:40Z</time>
      </trkpt>
      <trkpt lat="47.4696" lon="-0.56832">
        <ele>8</ele>
        <time>2011-09-01T15:07:41Z</time>
      </trkpt>
      <trkpt lat="47.46959" lon="-0.56826">
        <ele>8</ele>
        <time>2011-09-01T15:07:42Z</time>
      </trkpt>
      <trkpt lat="47.46958" lon="-0.5682">
        <ele>8</ele>
        <time>2011-09-01T15:07:43Z</time>
      </trkpt>
      <trkpt lat="47.46957" lon="-0.56813">
        <ele>8</ele>
        <time>2011-09-01T15:07:44Z</time>
      </trkpt>
      <trkpt lat="47.46956" lon="-0.56806">
        <ele>8</ele>
        <time>2011-09-01T15:07:45Z</time>
      </trkpt>
      <trkpt lat="47.46955" lon="-0.568">
        <ele>8</ele>
        <time>2011-09-01T15:07:46Z</time>
      </trkpt>
      <trkpt lat="47.46955" lon="-0.56793">
        <ele>8</ele>
        <time>2011-09-01T15:07:47Z</time>
      </trkpt>
      <trkpt lat="47.46954" lon="-0.56787">
        <ele>8</ele>
        <time>2011-09-01T15:07:48Z</time>
      </trkpt>
      <trkpt lat="47.46954" lon="-0.5678">
        <ele>8</ele>
        <time>2011-09-01T15:07:49Z</time>
      </trkpt>
      <trkpt lat="47.46954" lon="-0.56774">
        <ele>8</ele>
        <time>2011-09-01T15:07:50Z</time>
      </trkpt>
      <trkpt lat="47.46954" lon="-0.56768">
        <ele>8</ele>
        <time>2011-09-01T15:07:51Z</time>
      </trkpt>
      <trkpt lat="47.46955" lon="-0.56763">
        <ele>8</ele>
        <time>2011-09-01T15:07:52Z</time>
      </trkpt>
      <trkpt lat="47.46955" lon="-0.56757">
        <ele>8</ele>
        <time>2011-09-01T15:07:53Z</time>
      </trkpt>
      <trkpt lat="47.46955" lon="-0.56751">
        <ele>8</ele>
        <time>2011-09-01T15:07:54Z</time>
      </trkpt>
      <trkpt lat="47.46956" lon="-0.56745">
        <ele>8</ele>
        <time>2011-09-01T15:07:55Z</time>
      </trkpt>
      <trkpt lat="47.46956" lon="-0.56739">
        <ele>8</ele>
        <time>2011-09-01T15:07:56Z</time>
      </trkpt>
      <trkpt lat="47.46956" lon="-0.56733">
        <ele>8</ele>
        <time>2011-09-01T15:07:57Z</time>
      </trkpt>
      <trkpt lat="47.46956" lon="-0.56727">
        <ele>8</ele>
        <time>2011-09-01T15:07:58Z</time>
      </trkpt>
      <trkpt lat="47.46956" lon="-0.5672">
        <ele>8</ele>
        <time>2011-09-01T15:07:59Z</time>
      </trkpt>
      <trkpt lat="47.46957" lon="-0.56714">
        <ele>8</ele>
        <time>2011-09-01T15:08:00Z</time>
      </trkpt>
      <trkpt lat="47.46957" lon="-0.56708">
        <ele>8</ele>
        <time>2011-09-01T15:08:01Z</time>
      </trkpt>
      <trkpt lat="47.46958" lon="-0.56702">
        <ele>8</ele>
        <time>2011-09-01T15:08:02Z</time>
      </trkpt>
      <trkpt lat="47.46959" lon="-0.56696">
        <ele>8</ele>
        <time>2011-09-01T15:08:03Z</time>
      </trkpt>
      <trkpt lat="47.4696" lon="-0.56691">
        <ele>8</ele>
        <time>2011-09-01T15:08:04Z</time>
      </trkpt>
      <trkpt lat="47.46961" lon="-0.56685">
        <ele>8</ele>
        <time>2011-09-01T15:08:05Z</time>
      </trkpt>
      <trkpt lat="47.46962" lon="-0.5668">
        <ele>8</ele>
        <time>2011-09-01T15:08:06Z</time>
      </trkpt>
      <trkpt lat="47.46963" lon="-0.56675">
        <ele>8</ele>
        <time>2011-09-01T15:08:07Z</time>
      </trkpt>
      <trkpt lat="47.46964" lon="-0.5667">
        <ele>8</ele>
        <time>2011-09-01T15:08:08Z</time>
      </trkpt>
      <trkpt lat="47.46965" lon="-0.56665">
        <ele>8</ele>
        <time>2011-09-01T15:08:09Z</time>
      </trkpt>
      <trkpt lat="47.46967" lon="-0.56661">
        <ele>8</ele>
        <time>2011-09-01T15:08:10Z</time>
      </trkpt>
      <trkpt lat="47.46968" lon="-0.56657">
        <ele>8</ele>
        <time>2011-09-01T15:08:11Z</time>
      </trkpt>
      <trkpt lat="47.4697" lon="-0.56652">
        <ele>8</ele>
        <time>2011-09-01T15:08:12Z</time>
      </trkpt>
      <trkpt lat="47.46972" lon="-0.56648">
        <ele>8</ele>
        <time>2011-09-01T15:08:13Z</time>
      </trkpt>
      <trkpt lat="47.46973" lon="-0.56643">
        <ele>8</ele>
        <time>2011-09-01T15:08:14Z</time>
      </trkpt>
      <trkpt lat="47.46975" lon="-0.56639">
        <ele>8</ele>
        <time>2011-09-01T15:08:15Z</time>
      </trkpt>
      <trkpt lat="47.46976" lon="-0.56635">
        <ele>8</ele>
        <time>2011-09-01T15:08:16Z</time>
      </trkpt>
      <trkpt lat="47.46978" lon="-0.56631">
        <ele>8</ele>
        <time>2011-09-01T15:08:17Z</time>
      </trkpt>
      <trkpt lat="47.4698" lon="-0.56627">
        <ele>8</ele>
        <time>2011-09-01T15:08:18Z</time>
      </trkpt>
      <trkpt lat="47.46982" lon="-0.56622">
        <ele>8</ele>
        <time>2011-09-01T15:08:19Z</time>
      </trkpt>
      <trkpt lat="47.46984" lon="-0.56618">
        <ele>8</ele>
        <time>2011-09-01T15:08:20Z</time>
      </trkpt>
      <trkpt lat="47.46986" lon="-0.56614">
        <ele>8</ele>
        <time>2011-09-01T15:08:21Z</time>
      </trkpt>
      <trkpt lat="47.46988" lon="-0.5661">
        <ele>8</ele>
        <time>2011-09-01T15:08:22Z</time>
      </trkpt>
      <trkpt lat="47.4699" lon="-0.56606">
        <ele>8</ele>
        <time>2011-09-01T15:08:23Z</time>
      </trkpt>
      <trkpt lat="47.46993" lon="-0.56603">
        <ele>8</ele>
        <time>2011-09-01T15:08:24Z</time>
      </trkpt>
      <trkpt lat="47.46995" lon="-0.56601">
        <ele>8</ele>
        <time>2011-09-01T15:08:25Z</time>
      </trkpt>
      <trkpt lat="47.46997" lon="-0.56598">
        <ele>8</ele>
        <time>2011-09-01T15:08:26Z</time>
      </trkpt>
      <trkpt lat="47.46999" lon="-0.56595">
        <ele>8</ele>
        <time>2011-09-01T15:08:27Z</time>
      </trkpt>
      <trkpt lat="47.47002" lon="-0.56591">
        <ele>8</ele>
        <time>2011-09-01T15:08:28Z</time>
      </trkpt>
      <trkpt lat="47.47004" lon="-0.56589">
        <ele>8</ele>
        <time>2011-09-01T15:08:29Z</time>
      </trkpt>
      <trkpt lat="47.47006" lon="-0.56586">
        <ele>8</ele>
        <time>2011-09-01T15:08:30Z</time>
      </trkpt>
      <trkpt lat="47.47008" lon="-0.56583">
        <ele>8</ele>
        <time>2011-09-01T15:08:31Z</time>
      </trkpt>
      <trkpt lat="47.4701" lon="-0.56581">
        <ele>8</ele>
        <time>2011-09-01T15:08:32Z</time>
      </trkpt>
      <trkpt lat="47.47012" lon="-0.56577">
        <ele>8</ele>
        <time>2011-09-01T15:08:33Z</time>
      </trkpt>
      <trkpt lat="47.47014" lon="-0.56575">
        <ele>8</ele>
        <time>2011-09-01T15:08:34Z</time>
      </trkpt>
      <trkpt lat="47.47015" lon="-0.56572">
        <ele>8</ele>
        <time>2011-09-01T15:08:35Z</time>
      </trkpt>
      <trkpt lat="47.47018" lon="-0.5657">
        <ele>8</ele>
        <time>2011-09-01T15:08:36Z</time>
      </trkpt>
      <trkpt lat="47.4702" lon="-0.56567">
        <ele>8</ele>
        <time>2011-09-01T15:08:37Z</time>
      </trkpt>
      <trkpt lat="47.47021" lon="-0.56564">
        <ele>8</ele>
        <time>2011-09-01T15:08:38Z</time>
      </trkpt>
      <trkpt lat="47.47023" lon="-0.56561">
        <ele>8</ele>
        <time>2011-09-01T15:08:39Z</time>
      </trkpt>
      <trkpt lat="47.47026" lon="-0.56558">
        <ele>8</ele>
        <time>2011-09-01T15:08:40Z</time>
      </trkpt>
      <trkpt lat="47.47028" lon="-0.56555">
        <ele>8</ele>
        <time>2011-09-01T15:08:41Z</time>
      </trkpt>
      <trkpt lat="47.4703" lon="-0.56551">
        <ele>8</ele>
        <time>2011-09-01T15:08:42Z</time>
      </trkpt>
      <trkpt lat="47.47032" lon="-0.56548">
        <ele>8</ele>
        <time>2011-09-01T15:08:43Z</time>
      </trkpt>
      <trkpt lat="47.47033" lon="-0.56545">
        <ele>8</ele>
        <time>2011-09-01T15:08:44Z</time>
      </trkpt>
      <trkpt lat="47.47035" lon="-0.56542">
        <ele>8</ele>
        <time>2011-09-01T15:08:45Z</time>
      </trkpt>
      <trkpt lat="47.47037" lon="-0.56539">
        <ele>8</ele>
        <time>2011-09-01T15:08:46Z</time>
      </trkpt>
      <trkpt lat="47.47039" lon="-0.56536">
        <ele>8</ele>
        <time>2011-09-01T15:08:47Z</time>
      </trkpt>
      <trkpt lat="47.47041" lon="-0.56533">
        <ele>8</ele>
        <time>2011-09-01T15:08:48Z</time>
      </trkpt>
      <trkpt lat="47.47044" lon="-0.5653">
        <ele>8</ele>
        <time>2011-09-01T15:08:49Z</time>
      </trkpt>
      <trkpt lat="47.47045" lon="-0.56528">
        <ele>8</ele>
        <time>2011-09-01T15:08:50Z</time>
      </trkpt>
      <trkpt lat="47.47047" lon="-0.56525">
        <ele>8</ele>
        <time>2011-09-01T15:08:51Z</time>
      </trkpt>
      <trkpt lat="47.47049" lon="-0.56522">
        <ele>8</ele>
        <time>2011-09-01T15:08:52Z</time>
      </trkpt>
      <trkpt lat="47.47051" lon="-0.56519">
        <ele>8</ele>
        <time>2011-09-01T15:08:53Z</time>
      </trkpt>
      <trkpt lat="47.47053" lon="-0.56516">
        <ele>8</ele>
        <time>2011-09-01T15:08:54Z</time>
      </trkpt>
      <trkpt lat="47.47054" lon="-0.56514">
        <ele>8</ele>
        <time>2011-09-01T15:08:55Z</time>
      </trkpt>
      <trkpt lat="47.47056" lon="-0.56511">
        <ele>8</ele>
        <time>2011-09-01T15:08:56Z</time>
      </trkpt>
      <trkpt lat="47.47058" lon="-0.56508">
        <ele>8</ele>
        <time>2011-09-01T15:08:57Z</time>
      </trkpt>
      <trkpt lat="47.4706" lon="-0.56505">
        <ele>8</ele>
        <time>2011-09-01T15:08:58Z</time>
      </trkpt>
      <trkpt lat="47.47061" lon="-0.56503">
        <ele>8</ele>
        <time>2011-09-01T15:08:59Z</time>
      </trkpt>
      <trkpt lat="47.47063" lon="-0.565">
        <ele>8</ele>
        <time>2011-09-01T15:09:00Z</time>
      </trkpt>
      <trkpt lat="47.47064" lon="-0.56498">
        <ele>8</ele>
        <time>2011-09-01T15:09:01Z</time>
      </trkpt>
      <trkpt lat="47.47065" lon="-0.56495">
        <ele>8</ele>
        <time>2011-09-01T15:09:02Z</time>
      </trkpt>
      <trkpt lat="47.47065" lon="-0.56491">
        <ele>8</ele>
        <time>2011-09-01T15:09:03Z</time>
      </trkpt>
      <trkpt lat="47.47065" lon="-0.56488">
        <ele>8</ele>
        <time>2011-09-01T15:09:04Z</time>
      </trkpt>
      <trkpt lat="47.47064" lon="-0.56484">
        <ele>8</ele>
        <time>2011-09-01T15:09:05Z</time>
      </trkpt>
      <trkpt lat="47.47063" lon="-0.5648">
        <ele>8</ele>
        <time>2011-09-01T15:09:06Z</time>
      </trkpt>
      <trkpt lat="47.47063" lon="-0.56477">
        <ele>8</ele>
        <time>2011-09-01T15:09:07Z</time>
      </trkpt>
      <trkpt lat="47.47062" lon="-0.56473">
        <ele>8</ele>
        <time>2011-09-01T15:09:08Z</time>
      </trkpt>
      <trkpt lat="47.47062" lon="-0.56469">
        <ele>8</ele>
        <time>2011-09-01T15:09:09Z</time>
      </trkpt>
      <trkpt lat="47.47062" lon="-0.56466">
        <ele>8</ele>
        <time>2011-09-01T15:09:10Z</time>
      </trkpt>
      <trkpt lat="47.47062" lon="-0.56462">
        <ele>8</ele>
        <time>2011-09-01T15:09:11Z</time>
      </trkpt>
      <trkpt lat="47.47062" lon="-0.56459">
        <ele>8</ele>
        <time>2011-09-01T15:09:12Z</time>
      </trkpt>
      <trkpt lat="47.47062" lon="-0.56456">
        <ele>8</ele>
        <time>2011-09-01T15:09:13Z</time>
      </trkpt>
      <trkpt lat="47.47063" lon="-0.56453">
        <ele>8</ele>
        <time>2011-09-01T15:09:14Z</time>
      </trkpt>
      <trkpt lat="47.47065" lon="-0.5645">
        <ele>8</ele>
        <time>2011-09-01T15:09:15Z</time>
      </trkpt>
      <trkpt lat="47.47066" lon="-0.56447">
        <ele>8</ele>
        <time>2011-09-01T15:09:16Z</time>
      </trkpt>
      <trkpt lat="47.47068" lon="-0.56444">
        <ele>8</ele>
        <time>2011-09-01T15:09:17Z</time>
      </trkpt>
      <trkpt lat="47.47069" lon="-0.56441">
        <ele>8</ele>
        <time>2011-09-01T15:09:18Z</time>
      </trkpt>
      <trkpt lat="47.4707" lon="-0.56438">
        <ele>8</ele>
        <time>2011-09-01T15:09:19Z</time>
      </trkpt>
      <trkpt lat="47.47072" lon="-0.56435">
        <ele>8</ele>
        <time>2011-09-01T15:09:20Z</time>
      </trkpt>
      <trkpt lat="47.47073" lon="-0.56432">
        <ele>8</ele>
        <time>2011-09-01T15:09:21Z</time>
      </trkpt>
      <trkpt lat="47.47074" lon="-0.5643">
        <ele>8</ele>
        <time>2011-09-01T15:09:22Z</time>
      </trkpt>
      <trkpt lat="47.47076" lon="-0.56427">
        <ele>8</ele>
        <time>2011-09-01T15:09:23Z</time>
      </trkpt>
      <trkpt lat="47.47078" lon="-0.56424">
        <ele>8</ele>
        <time>2011-09-01T15:09:24Z</time>
      </trkpt>
      <trkpt lat="47.47081" lon="-0.56421">
        <ele>8</ele>
        <time>2011-09-01T15:09:25Z</time>
      </trkpt>
      <trkpt lat="47.47083" lon="-0.56419">
        <ele>7</ele>
        <time>2011-09-01T15:09:26Z</time>
      </trkpt>
      <trkpt lat="47.47085" lon="-0.56416">
        <ele>7</ele>
        <time>2011-09-01T15:09:27Z</time>
      </trkpt>
      <trkpt lat="47.47087" lon="-0.56414">
        <ele>6</ele>
        <time>2011-09-01T15:09:28Z</time>
      </trkpt>
      <trkpt lat="47.4709" lon="-0.56412">
        <ele>6</ele>
        <time>2011-09-01T15:09:29Z</time>
      </trkpt>
      <trkpt lat="47.47093" lon="-0.5641">
        <ele>6</ele>
        <time>2011-09-01T15:09:30Z</time>
      </trkpt>
      <trkpt lat="47.47095" lon="-0.56407">
        <ele>6</ele>
        <time>2011-09-01T15:09:31Z</time>
      </trkpt>
      <trkpt lat="47.47098" lon="-0.56405">
        <ele>6</ele>
        <time>2011-09-01T15:09:32Z</time>
      </trkpt>
      <trkpt lat="47.471" lon="-0.56403">
        <ele>6</ele>
        <time>2011-09-01T15:09:33Z</time>
      </trkpt>
      <trkpt lat="47.47103" lon="-0.56401">
        <ele>6</ele>
        <time>2011-09-01T15:09:34Z</time>
      </trkpt>
      <trkpt lat="47.47105" lon="-0.564">
        <ele>6</ele>
        <time>2011-09-01T15:09:35Z</time>
      </trkpt>
      <trkpt lat="47.47107" lon="-0.56398">
        <ele>6</ele>
        <time>2011-09-01T15:09:36Z</time>
      </trkpt>
      <trkpt lat="47.47109" lon="-0.56396">
        <ele>6</ele>
        <time>2011-09-01T15:09:37Z</time>
      </trkpt>
      <trkpt lat="47.47111" lon="-0.56394">
        <ele>6</ele>
        <time>2011-09-01T15:09:38Z</time>
      </trkpt>
      <trkpt lat="47.47113" lon="-0.56393">
        <ele>6</ele>
        <time>2011-09-01T15:09:39Z</time>
      </trkpt>
      <trkpt lat="47.47114" lon="-0.56391">
        <ele>6</ele>
        <time>2011-09-01T15:09:40Z</time>
      </trkpt>
      <trkpt lat="47.47115" lon="-0.56388">
        <ele>6</ele>
        <time>2011-09-01T15:09:40Z</time>
      </trkpt>
      <trkpt lat="47.47117" lon="-0.56386">
        <ele>6</ele>
        <time>2011-09-01T15:09:42Z</time>
      </trkpt>
      <trkpt lat="47.47118" lon="-0.56384">
        <ele>6</ele>
        <time>2011-09-01T15:09:43Z</time>
      </trkpt>
      <trkpt lat="47.4712" lon="-0.56383">
        <ele>6</ele>
        <time>2011-09-01T15:09:44Z</time>
      </trkpt>
      <trkpt lat="47.47121" lon="-0.56381">
        <ele>6</ele>
        <time>2011-09-01T15:09:45Z</time>
      </trkpt>
      <trkpt lat="47.47123" lon="-0.56379">
        <ele>6</ele>
        <time>2011-09-01T15:09:46Z</time>
      </trkpt>
      <trkpt lat="47.47124" lon="-0.56378">
        <ele>6</ele>
        <time>2011-09-01T15:09:47Z</time>
      </trkpt>
      <trkpt lat="47.47126" lon="-0.56377">
        <ele>6</ele>
        <time>2011-09-01T15:09:48Z</time>
      </trkpt>
      <trkpt lat="47.47129" lon="-0.56376">
        <ele>6</ele>
        <time>2011-09-01T15:09:49Z</time>
      </trkpt>
      <trkpt lat="47.47131" lon="-0.56376">
        <ele>6</ele>
        <time>2011-09-01T15:09:50Z</time>
      </trkpt>
      <trkpt lat="47.47134" lon="-0.56377">
        <ele>6</ele>
        <time>2011-09-01T15:09:51Z</time>
      </trkpt>
      <trkpt lat="47.47135" lon="-0.56378">
        <ele>6</ele>
        <time>2011-09-01T15:09:52Z</time>
      </trkpt>
      <trkpt lat="47.47137" lon="-0.5638">
        <ele>6</ele>
        <time>2011-09-01T15:09:52Z</time>
      </trkpt>
      <trkpt lat="47.47137" lon="-0.56381">
        <ele>6</ele>
        <time>2011-09-01T15:09:54Z</time>
      </trkpt>
      <trkpt lat="47.47139" lon="-0.56383">
        <ele>6</ele>
        <time>2011-09-01T15:09:55Z</time>
      </trkpt>
      <trkpt lat="47.47141" lon="-0.56385">
        <ele>6</ele>
        <time>2011-09-01T15:09:57Z</time>
      </trkpt>
      <trkpt lat="47.47143" lon="-0.56387">
        <ele>6</ele>
        <time>2011-09-01T15:09:59Z</time>
      </trkpt>
      <trkpt lat="47.47145" lon="-0.56388">
        <ele>7</ele>
        <time>2011-09-01T15:10:00Z</time>
      </trkpt>
      <trkpt lat="47.47146" lon="-0.56386">
        <ele>7</ele>
        <time>2011-09-01T15:10:01Z</time>
      </trkpt>
      <trkpt lat="47.47148" lon="-0.56385">
        <ele>7</ele>
        <time>2011-09-01T15:10:02Z</time>
      </trkpt>
      <trkpt lat="47.47149" lon="-0.56383">
        <ele>7</ele>
        <time>2011-09-01T15:10:03Z</time>
      </trkpt>
      <trkpt lat="47.47151" lon="-0.5638">
        <ele>8</ele>
        <time>2011-09-01T15:10:04Z</time>
      </trkpt>
      <trkpt lat="47.47152" lon="-0.56378">
        <ele>8</ele>
        <time>2011-09-01T15:10:05Z</time>
      </trkpt>
      <trkpt lat="47.47154" lon="-0.56375">
        <ele>8</ele>
        <time>2011-09-01T15:10:06Z</time>
      </trkpt>
      <trkpt lat="47.47156" lon="-0.56373">
        <ele>8</ele>
        <time>2011-09-01T15:10:07Z</time>
      </trkpt>
      <trkpt lat="47.47158" lon="-0.56371">
        <ele>8</ele>
        <time>2011-09-01T15:10:08Z</time>
      </trkpt>
      <trkpt lat="47.4716" lon="-0.56369">
        <ele>8</ele>
        <time>2011-09-01T15:10:09Z</time>
      </trkpt>
      <trkpt lat="47.47162" lon="-0.56368">
        <ele>8</ele>
        <time>2011-09-01T15:10:10Z</time>
      </trkpt>
      <trkpt lat="47.47163" lon="-0.56367">
        <ele>8</ele>
        <time>2011-09-01T15:10:11Z</time>
      </trkpt>
      <trkpt lat="47.47165" lon="-0.56366">
        <ele>8</ele>
        <time>2011-09-01T15:10:19Z</time>
      </trkpt>
      <trkpt lat="47.47166" lon="-0.56365">
        <ele>8</ele>
        <time>2011-09-01T15:10:30Z</time>
      </trkpt>
      <trkpt lat="47.47168" lon="-0.56364">
        <ele>8</ele>
        <time>2011-09-01T15:10:32Z</time>
      </trkpt>
      <trkpt lat="47.47169" lon="-0.56362">
        <ele>8</ele>
        <time>2011-09-01T15:10:33Z</time>
      </trkpt>
      <trkpt lat="47.4717" lon="-0.56361">
        <ele>8</ele>
        <time>2011-09-01T15:10:34Z</time>
      </trkpt>
      <trkpt lat="47.47171" lon="-0.56358">
        <ele>8</ele>
        <time>2011-09-01T15:10:35Z</time>
      </trkpt>
      <trkpt lat="47.47173" lon="-0.56356">
        <ele>8</ele>
        <time>2011-09-01T15:10:36Z</time>
      </trkpt>
      <trkpt lat="47.47175" lon="-0.56353">
        <ele>8</ele>
        <time>2011-09-01T15:10:37Z</time>
      </trkpt>
      <trkpt lat="47.47177" lon="-0.5635">
        <ele>8</ele>
        <time>2011-09-01T15:10:38Z</time>
      </trkpt>
      <trkpt lat="47.4718" lon="-0.56347">
        <ele>8</ele>
        <time>2011-09-01T15:10:39Z</time>
      </trkpt>
      <trkpt lat="47.47182" lon="-0.56344">
        <ele>8</ele>
        <time>2011-09-01T15:10:40Z</time>
      </trkpt>
      <trkpt lat="47.47184" lon="-0.5634">
        <ele>8</ele>
        <time>2011-09-01T15:10:41Z</time>
      </trkpt>
      <trkpt lat="47.47186" lon="-0.56336">
        <ele>8</ele>
        <time>2011-09-01T15:10:42Z</time>
      </trkpt>
      <trkpt lat="47.47188" lon="-0.56333">
        <ele>8</ele>
        <time>2011-09-01T15:10:43Z</time>
      </trkpt>
      <trkpt lat="47.4719" lon="-0.5633">
        <ele>8</ele>
        <time>2011-09-01T15:10:44Z</time>
      </trkpt>
      <trkpt lat="47.47192" lon="-0.56326">
        <ele>8</ele>
        <time>2011-09-01T15:10:45Z</time>
      </trkpt>
      <trkpt lat="47.47194" lon="-0.56323">
        <ele>8</ele>
        <time>2011-09-01T15:10:46Z</time>
      </trkpt>
      <trkpt lat="47.47197" lon="-0.5632">
        <ele>8</ele>
        <time>2011-09-01T15:10:47Z</time>
      </trkpt>
      <trkpt lat="47.47199" lon="-0.56317">
        <ele>8</ele>
        <time>2011-09-01T15:10:48Z</time>
      </trkpt>
      <trkpt lat="47.47202" lon="-0.56314">
        <ele>8</ele>
        <time>2011-09-01T15:10:49Z</time>
      </trkpt>
      <trkpt lat="47.47204" lon="-0.56311">
        <ele>8</ele>
        <time>2011-09-01T15:10:50Z</time>
      </trkpt>
      <trkpt lat="47.47206" lon="-0.56308">
        <ele>8</ele>
        <time>2011-09-01T15:10:51Z</time>
      </trkpt>
      <trkpt lat="47.47209" lon="-0.56305">
        <ele>8</ele>
        <time>2011-09-01T15:10:52Z</time>
      </trkpt>
      <trkpt lat="47.47211" lon="-0.56302">
        <ele>8</ele>
        <time>2011-09-01T15:10:53Z</time>
      </trkpt>
      <trkpt lat="47.47214" lon="-0.563">
        <ele>8</ele>
        <time>2011-09-01T15:10:54Z</time>
      </trkpt>
      <trkpt lat="47.47216" lon="-0.56297">
        <ele>8</ele>
        <time>2011-09-01T15:10:55Z</time>
      </trkpt>
      <trkpt lat="47.47218" lon="-0.56295">
        <ele>8</ele>
        <time>2011-09-01T15:10:56Z</time>
      </trkpt>
      <trkpt lat="47.4722" lon="-0.56292">
        <ele>8</ele>
        <time>2011-09-01T15:10:57Z</time>
      </trkpt>
      <trkpt lat="47.47222" lon="-0.56289">
        <ele>8</ele>
        <time>2011-09-01T15:10:58Z</time>
      </trkpt>
      <trkpt lat="47.47224" lon="-0.56286">
        <ele>8</ele>
        <time>2011-09-01T15:10:59Z</time>
      </trkpt>
      <trkpt lat="47.47226" lon="-0.56284">
        <ele>8</ele>
        <time>2011-09-01T15:11:00Z</time>
      </trkpt>
      <trkpt lat="47.47227" lon="-0.56282">
        <ele>8</ele>
        <time>2011-09-01T15:11:01Z</time>
      </trkpt>
      <trkpt lat="47.47228" lon="-0.5628">
        <ele>8</ele>
        <time>2011-09-01T15:11:02Z</time>
      </trkpt>
      <trkpt lat="47.4723" lon="-0.56279">
        <ele>8</ele>
        <time>2011-09-01T15:11:04Z</time>
      </trkpt>
      <trkpt lat="47.47231" lon="-0.56279">
        <ele>8</ele>
        <time>2011-09-01T15:11:09Z</time>
      </trkpt>
      <trkpt lat="47.47232" lon="-0.5628">
        <ele>8</ele>
        <time>2011-09-01T15:11:11Z</time>
      </trkpt>
      <trkpt lat="47.47232" lon="-0.56279">
        <ele>8</ele>
        <time>2011-09-01T15:11:15Z</time>
      </trkpt>
      <trkpt lat="47.47232" lon="-0.56277">
        <ele>8</ele>
        <time>2011-09-01T15:11:18Z</time>
      </trkpt>
      <trkpt lat="47.4723" lon="-0.56276">
        <ele>9</ele>
        <time>2011-09-01T15:11:22Z</time>
      </trkpt>
      <trkpt lat="47.47228" lon="-0.56275">
        <ele>15</ele>
        <time>2011-09-01T15:11:28Z</time>
      </trkpt>
      <trkpt lat="47.47229" lon="-0.56273">
        <ele>19</ele>
        <time>2011-09-01T15:11:31Z</time>
      </trkpt>
      <trkpt lat="47.47231" lon="-0.56273">
        <ele>20</ele>
        <time>2011-09-01T15:11:34Z</time>
      </trkpt>
      <trkpt lat="47.47234" lon="-0.56272">
        <ele>20</ele>
        <time>2011-09-01T15:11:35Z</time>
      </trkpt>
      <trkpt lat="47.47235" lon="-0.56272">
        <ele>20</ele>
        <time>2011-09-01T15:11:36Z</time>
      </trkpt>
      <trkpt lat="47.47236" lon="-0.56271">
        <ele>19</ele>
        <time>2011-09-01T15:11:39Z</time>
      </trkpt>
      <trkpt lat="47.47236" lon="-0.5627">
        <ele>13</ele>
        <time>2011-09-01T15:11:55Z</time>
      </trkpt>
      <trkpt lat="47.47236" lon="-0.56268">
        <ele>13</ele>
        <time>2011-09-01T15:11:59Z</time>
      </trkpt>
      <trkpt lat="47.47236" lon="-0.56266">
        <ele>13</ele>
        <time>2011-09-01T15:12:04Z</time>
      </trkpt>
      <trkpt lat="47.47235" lon="-0.56266">
        <ele>13</ele>
        <time>2011-09-01T15:12:20Z</time>
      </trkpt>
      <trkpt lat="47.47234" lon="-0.56265">
        <ele>14</ele>
        <time>2011-09-01T15:12:25Z</time>
      </trkpt>
      <trkpt lat="47.47232" lon="-0.56265">
        <ele>15</ele>
        <time>2011-09-01T15:12:32Z</time>
      </trkpt>
      <trkpt lat="47.47231" lon="-0.56265">
        <ele>17</ele>
        <time>2011-09-01T15:12:33Z</time>
      </trkpt>
      <trkpt lat="47.47232" lon="-0.56267">
        <ele>19</ele>
        <time>2011-09-01T15:12:38Z</time>
      </trkpt>
      <trkpt lat="47.47234" lon="-0.56265">
        <ele>11</ele>
        <time>2011-09-01T15:12:52Z</time>
      </trkpt>
      <trkpt lat="47.47236" lon="-0.56262">
        <ele>11</ele>
        <time>2011-09-01T15:12:54Z</time>
      </trkpt>
      <trkpt lat="47.47237" lon="-0.5626">
        <ele>11</ele>
        <time>2011-09-01T15:12:55Z</time>
      </trkpt>
      <trkpt lat="47.4724" lon="-0.56257">
        <ele>11</ele>
        <time>2011-09-01T15:12:56Z</time>
      </trkpt>
      <trkpt lat="47.47242" lon="-0.56254">
        <ele>11</ele>
        <time>2011-09-01T15:12:57Z</time>
      </trkpt>
      <trkpt lat="47.47243" lon="-0.56252">
        <ele>11</ele>
        <time>2011-09-01T15:12:58Z</time>
      </trkpt>
      <trkpt lat="47.47245" lon="-0.56249">
        <ele>11</ele>
        <time>2011-09-01T15:12:59Z</time>
      </trkpt>
      <trkpt lat="47.47248" lon="-0.56247">
        <ele>11</ele>
        <time>2011-09-01T15:13:00Z</time>
      </trkpt>
      <trkpt lat="47.4725" lon="-0.56244">
        <ele>11</ele>
        <time>2011-09-01T15:13:01Z</time>
      </trkpt>
      <trkpt lat="47.47251" lon="-0.56242">
        <ele>11</ele>
        <time>2011-09-01T15:13:02Z</time>
      </trkpt>
      <trkpt lat="47.47253" lon="-0.5624">
        <ele>11</ele>
        <time>2011-09-01T15:13:03Z</time>
      </trkpt>
      <trkpt lat="47.47255" lon="-0.56238">
        <ele>11</ele>
        <time>2011-09-01T15:13:04Z</time>
      </trkpt>
      <trkpt lat="47.47257" lon="-0.56235">
        <ele>11</ele>
        <time>2011-09-01T15:13:05Z</time>
      </trkpt>
      <trkpt lat="47.47259" lon="-0.56232">
        <ele>11</ele>
        <time>2011-09-01T15:13:06Z</time>
      </trkpt>
      <trkpt lat="47.47261" lon="-0.56229">
        <ele>11</ele>
        <time>2011-09-01T15:13:07Z</time>
      </trkpt>
      <trkpt lat="47.47263" lon="-0.56226">
        <ele>11</ele>
        <time>2011-09-01T15:13:08Z</time>
      </trkpt>
      <trkpt lat="47.47265" lon="-0.56222">
        <ele>11</ele>
        <time>2011-09-01T15:13:09Z</time>
      </trkpt>
      <trkpt lat="47.47267" lon="-0.56218">
        <ele>11</ele>
        <time>2011-09-01T15:13:10Z</time>
      </trkpt>
      <trkpt lat="47.47269" lon="-0.56214">
        <ele>11</ele>
        <time>2011-09-01T15:13:11Z</time>
      </trkpt>
      <trkpt lat="47.47272" lon="-0.56211">
        <ele>11</ele>
        <time>2011-09-01T15:13:12Z</time>
      </trkpt>
      <trkpt lat="47.47274" lon="-0.56207">
        <ele>11</ele>
        <time>2011-09-01T15:13:13Z</time>
      </trkpt>
      <trkpt lat="47.47277" lon="-0.56204">
        <ele>11</ele>
        <time>2011-09-01T15:13:14Z</time>
      </trkpt>
      <trkpt lat="47.47278" lon="-0.56201">
        <ele>11</ele>
        <time>2011-09-01T15:13:15Z</time>
      </trkpt>
      <trkpt lat="47.47279" lon="-0.56198">
        <ele>11</ele>
        <time>2011-09-01T15:13:16Z</time>
      </trkpt>
      <trkpt lat="47.47279" lon="-0.56195">
        <ele>11</ele>
        <time>2011-09-01T15:13:17Z</time>
      </trkpt>
      <trkpt lat="47.47277" lon="-0.56193">
        <ele>11</ele>
        <time>2011-09-01T15:13:18Z</time>
      </trkpt>
      <trkpt lat="47.47276" lon="-0.56191">
        <ele>11</ele>
        <time>2011-09-01T15:13:19Z</time>
      </trkpt>
      <trkpt lat="47.47275" lon="-0.56189">
        <ele>11</ele>
        <time>2011-09-01T15:13:20Z</time>
      </trkpt>
      <trkpt lat="47.47273" lon="-0.56187">
        <ele>11</ele>
        <time>2011-09-01T15:13:21Z</time>
      </trkpt>
      <trkpt lat="47.47272" lon="-0.56186">
        <ele>12</ele>
        <time>2011-09-01T15:13:22Z</time>
      </trkpt>
      <trkpt lat="47.47271" lon="-0.56183">
        <ele>12</ele>
        <time>2011-09-01T15:13:23Z</time>
      </trkpt>
      <trkpt lat="47.47269" lon="-0.56181">
        <ele>13</ele>
        <time>2011-09-01T15:13:24Z</time>
      </trkpt>
      <trkpt lat="47.47267" lon="-0.56179">
        <ele>13</ele>
        <time>2011-09-01T15:13:25Z</time>
      </trkpt>
      <trkpt lat="47.47265" lon="-0.56178">
        <ele>14</ele>
        <time>2011-09-01T15:13:26Z</time>
      </trkpt>
      <trkpt lat="47.47263" lon="-0.56175">
        <ele>14</ele>
        <time>2011-09-01T15:13:27Z</time>
      </trkpt>
      <trkpt lat="47.47262" lon="-0.56172">
        <ele>14</ele>
        <time>2011-09-01T15:13:28Z</time>
      </trkpt>
      <trkpt lat="47.47261" lon="-0.56169">
        <ele>14</ele>
        <time>2011-09-01T15:13:29Z</time>
      </trkpt>
      <trkpt lat="47.4726" lon="-0.56166">
        <ele>14</ele>
        <time>2011-09-01T15:13:30Z</time>
      </trkpt>
      <trkpt lat="47.47258" lon="-0.56163">
        <ele>14</ele>
        <time>2011-09-01T15:13:31Z</time>
      </trkpt>
      <trkpt lat="47.47256" lon="-0.56161">
        <ele>14</ele>
        <time>2011-09-01T15:13:32Z</time>
      </trkpt>
      <trkpt lat="47.47254" lon="-0.56159">
        <ele>14</ele>
        <time>2011-09-01T15:13:33Z</time>
      </trkpt>
      <trkpt lat="47.47251" lon="-0.56155">
        <ele>14</ele>
        <time>2011-09-01T15:13:34Z</time>
      </trkpt>
      <trkpt lat="47.47248" lon="-0.56152">
        <ele>14</ele>
        <time>2011-09-01T15:13:35Z</time>
      </trkpt>
      <trkpt lat="47.47247" lon="-0.56148">
        <ele>14</ele>
        <time>2011-09-01T15:13:36Z</time>
      </trkpt>
      <trkpt lat="47.47244" lon="-0.56145">
        <ele>14</ele>
        <time>2011-09-01T15:13:37Z</time>
      </trkpt>
      <trkpt lat="47.47243" lon="-0.56142">
        <ele>14</ele>
        <time>2011-09-01T15:13:38Z</time>
      </trkpt>
      <trkpt lat="47.47242" lon="-0.56138">
        <ele>14</ele>
        <time>2011-09-01T15:13:39Z</time>
      </trkpt>
      <trkpt lat="47.4724" lon="-0.56136">
        <ele>14</ele>
        <time>2011-09-01T15:13:40Z</time>
      </trkpt>
      <trkpt lat="47.47238" lon="-0.56133">
        <ele>14</ele>
        <time>2011-09-01T15:13:41Z</time>
      </trkpt>
      <trkpt lat="47.47236" lon="-0.5613">
        <ele>14</ele>
        <time>2011-09-01T15:13:42Z</time>
      </trkpt>
      <trkpt lat="47.47234" lon="-0.56127">
        <ele>14</ele>
        <time>2011-09-01T15:13:43Z</time>
      </trkpt>
      <trkpt lat="47.47232" lon="-0.56123">
        <ele>14</ele>
        <time>2011-09-01T15:13:44Z</time>
      </trkpt>
      <trkpt lat="47.47232" lon="-0.56119">
        <ele>14</ele>
        <time>2011-09-01T15:13:45Z</time>
      </trkpt>
      <trkpt lat="47.47232" lon="-0.56115">
        <ele>14</ele>
        <time>2011-09-01T15:13:46Z</time>
      </trkpt>
      <trkpt lat="47.47234" lon="-0.56111">
        <ele>14</ele>
        <time>2011-09-01T15:13:47Z</time>
      </trkpt>
      <trkpt lat="47.47235" lon="-0.56107">
        <ele>14</ele>
        <time>2011-09-01T15:13:48Z</time>
      </trkpt>
      <trkpt lat="47.47236" lon="-0.56103">
        <ele>14</ele>
        <time>2011-09-01T15:13:49Z</time>
      </trkpt>
      <trkpt lat="47.47238" lon="-0.56099">
        <ele>14</ele>
        <time>2011-09-01T15:13:50Z</time>
      </trkpt>
      <trkpt lat="47.4724" lon="-0.56096">
        <ele>14</ele>
        <time>2011-09-01T15:13:51Z</time>
      </trkpt>
      <trkpt lat="47.47243" lon="-0.56093">
        <ele>14</ele>
        <time>2011-09-01T15:13:52Z</time>
      </trkpt>
      <trkpt lat="47.47245" lon="-0.56089">
        <ele>14</ele>
        <time>2011-09-01T15:13:53Z</time>
      </trkpt>
      <trkpt lat="47.47247" lon="-0.56085">
        <ele>14</ele>
        <time>2011-09-01T15:13:54Z</time>
      </trkpt>
      <trkpt lat="47.47249" lon="-0.56081">
        <ele>14</ele>
        <time>2011-09-01T15:13:55Z</time>
      </trkpt>
      <trkpt lat="47.47251" lon="-0.56077">
        <ele>14</ele>
        <time>2011-09-01T15:13:56Z</time>
      </trkpt>
      <trkpt lat="47.47253" lon="-0.56073">
        <ele>14</ele>
        <time>2011-09-01T15:13:57Z</time>
      </trkpt>
      <trkpt lat="47.47255" lon="-0.56069">
        <ele>14</ele>
        <time>2011-09-01T15:13:58Z</time>
      </trkpt>
      <trkpt lat="47.47257" lon="-0.56066">
        <ele>14</ele>
        <time>2011-09-01T15:13:59Z</time>
      </trkpt>
      <trkpt lat="47.47259" lon="-0.56063">
        <ele>14</ele>
        <time>2011-09-01T15:14:00Z</time>
      </trkpt>
      <trkpt lat="47.47261" lon="-0.56059">
        <ele>14</ele>
        <time>2011-09-01T15:14:01Z</time>
      </trkpt>
      <trkpt lat="47.47263" lon="-0.56056">
        <ele>14</ele>
        <time>2011-09-01T15:14:02Z</time>
      </trkpt>
      <trkpt lat="47.47264" lon="-0.56053">
        <ele>14</ele>
        <time>2011-09-01T15:14:03Z</time>
      </trkpt>
      <trkpt lat="47.47266" lon="-0.5605">
        <ele>14</ele>
        <time>2011-09-01T15:14:04Z</time>
      </trkpt>
      <trkpt lat="47.47269" lon="-0.56046">
        <ele>14</ele>
        <time>2011-09-01T15:14:05Z</time>
      </trkpt>
      <trkpt lat="47.47271" lon="-0.56043">
        <ele>14</ele>
        <time>2011-09-01T15:14:06Z</time>
      </trkpt>
      <trkpt lat="47.47273" lon="-0.5604">
        <ele>14</ele>
        <time>2011-09-01T15:14:07Z</time>
      </trkpt>
      <trkpt lat="47.47275" lon="-0.56036">
        <ele>14</ele>
        <time>2011-09-01T15:14:08Z</time>
      </trkpt>
      <trkpt lat="47.47277" lon="-0.56033">
        <ele>14</ele>
        <time>2011-09-01T15:14:09Z</time>
      </trkpt>
      <trkpt lat="47.47279" lon="-0.56029">
        <ele>14</ele>
        <time>2011-09-01T15:14:10Z</time>
      </trkpt>
      <trkpt lat="47.47281" lon="-0.56027">
        <ele>14</ele>
        <time>2011-09-01T15:14:11Z</time>
      </trkpt>
      <trkpt lat="47.47283" lon="-0.56024">
        <ele>14</ele>
        <time>2011-09-01T15:14:12Z</time>
      </trkpt>
      <trkpt lat="47.47285" lon="-0.5602">
        <ele>14</ele>
        <time>2011-09-01T15:14:13Z</time>
      </trkpt>
      <trkpt lat="47.47287" lon="-0.56017">
        <ele>14</ele>
        <time>2011-09-01T15:14:14Z</time>
      </trkpt>
      <trkpt lat="47.47289" lon="-0.56014">
        <ele>14</ele>
        <time>2011-09-01T15:14:15Z</time>
      </trkpt>
      <trkpt lat="47.47291" lon="-0.5601">
        <ele>14</ele>
        <time>2011-09-01T15:14:16Z</time>
      </trkpt>
      <trkpt lat="47.47293" lon="-0.56007">
        <ele>14</ele>
        <time>2011-09-01T15:14:17Z</time>
      </trkpt>
      <trkpt lat="47.47295" lon="-0.56003">
        <ele>14</ele>
        <time>2011-09-01T15:14:18Z</time>
      </trkpt>
      <trkpt lat="47.47297" lon="-0.56">
        <ele>14</ele>
        <time>2011-09-01T15:14:19Z</time>
      </trkpt>
      <trkpt lat="47.473" lon="-0.55996">
        <ele>14</ele>
        <time>2011-09-01T15:14:20Z</time>
      </trkpt>
      <trkpt lat="47.47302" lon="-0.55993">
        <ele>14</ele>
        <time>2011-09-01T15:14:21Z</time>
      </trkpt>
      <trkpt lat="47.47304" lon="-0.5599">
        <ele>14</ele>
        <time>2011-09-01T15:14:22Z</time>
      </trkpt>
      <trkpt lat="47.47306" lon="-0.55986">
        <ele>14</ele>
        <time>2011-09-01T15:14:23Z</time>
      </trkpt>
      <trkpt lat="47.47309" lon="-0.55983">
        <ele>14</ele>
        <time>2011-09-01T15:14:24Z</time>
      </trkpt>
      <trkpt lat="47.47311" lon="-0.5598">
        <ele>14</ele>
        <time>2011-09-01T15:14:25Z</time>
      </trkpt>
      <trkpt lat="47.47313" lon="-0.55976">
        <ele>14</ele>
        <time>2011-09-01T15:14:26Z</time>
      </trkpt>
      <trkpt lat="47.47315" lon="-0.55973">
        <ele>14</ele>
        <time>2011-09-01T15:14:27Z</time>
      </trkpt>
      <trkpt lat="47.47317" lon="-0.5597">
        <ele>14</ele>
        <time>2011-09-01T15:14:28Z</time>
      </trkpt>
      <trkpt lat="47.47319" lon="-0.55966">
        <ele>14</ele>
        <time>2011-09-01T15:14:29Z</time>
      </trkpt>
      <trkpt lat="47.47321" lon="-0.55963">
        <ele>14</ele>
        <time>2011-09-01T15:14:30Z</time>
      </trkpt>
      <trkpt lat="47.47322" lon="-0.5596">
        <ele>14</ele>
        <time>2011-09-01T15:14:31Z</time>
      </trkpt>
      <trkpt lat="47.47323" lon="-0.55958">
        <ele>14</ele>
        <time>2011-09-01T15:14:32Z</time>
      </trkpt>
      <trkpt lat="47.47324" lon="-0.55956">
        <ele>14</ele>
        <time>2011-09-01T15:14:33Z</time>
      </trkpt>
      <trkpt lat="47.47325" lon="-0.55955">
        <ele>14</ele>
        <time>2011-09-01T15:14:34Z</time>
      </trkpt>
      <trkpt lat="47.47326" lon="-0.55953">
        <ele>14</ele>
        <time>2011-09-01T15:14:36Z</time>
      </trkpt>
      <trkpt lat="47.47326" lon="-0.55952">
        <ele>14</ele>
        <time>2011-09-01T15:14:46Z</time>
      </trkpt>
      <trkpt lat="47.47325" lon="-0.5595">
        <ele>13</ele>
        <time>2011-09-01T15:14:50Z</time>
      </trkpt>
      <trkpt lat="47.47323" lon="-0.55951">
        <ele>13</ele>
        <time>2011-09-01T15:14:52Z</time>
      </trkpt>
      <trkpt lat="47.47322" lon="-0.55951">
        <ele>13</ele>
        <time>2011-09-01T15:14:54Z</time>
      </trkpt>
      <trkpt lat="47.4732" lon="-0.55951">
        <ele>15</ele>
        <time>2011-09-01T15:14:56Z</time>
      </trkpt>
      <trkpt lat="47.47321" lon="-0.55949">
        <ele>18</ele>
        <time>2011-09-01T15:14:59Z</time>
      </trkpt>
      <trkpt lat="47.47323" lon="-0.55947">
        <ele>20</ele>
        <time>2011-09-01T15:15:01Z</time>
      </trkpt>
      <trkpt lat="47.47325" lon="-0.55945">
        <ele>21</ele>
        <time>2011-09-01T15:15:02Z</time>
      </trkpt>
      <trkpt lat="47.47327" lon="-0.55942">
        <ele>22</ele>
        <time>2011-09-01T15:15:03Z</time>
      </trkpt>
      <trkpt lat="47.47329" lon="-0.5594">
        <ele>22</ele>
        <time>2011-09-01T15:15:04Z</time>
      </trkpt>
      <trkpt lat="47.4733" lon="-0.55938">
        <ele>22</ele>
        <time>2011-09-01T15:15:05Z</time>
      </trkpt>
      <trkpt lat="47.47331" lon="-0.55936">
        <ele>22</ele>
        <time>2011-09-01T15:15:06Z</time>
      </trkpt>
      <trkpt lat="47.47332" lon="-0.55933">
        <ele>22</ele>
        <time>2011-09-01T15:15:07Z</time>
      </trkpt>
      <trkpt lat="47.47334" lon="-0.55931">
        <ele>22</ele>
        <time>2011-09-01T15:15:08Z</time>
      </trkpt>
      <trkpt lat="47.47335" lon="-0.55929">
        <ele>22</ele>
        <time>2011-09-01T15:15:09Z</time>
      </trkpt>
      <trkpt lat="47.47337" lon="-0.55927">
        <ele>22</ele>
        <time>2011-09-01T15:15:10Z</time>
      </trkpt>
      <trkpt lat="47.47338" lon="-0.55925">
        <ele>22</ele>
        <time>2011-09-01T15:15:11Z</time>
      </trkpt>
      <trkpt lat="47.4734" lon="-0.55923">
        <ele>22</ele>
        <time>2011-09-01T15:15:12Z</time>
      </trkpt>
      <trkpt lat="47.47341" lon="-0.55922">
        <ele>22</ele>
        <time>2011-09-01T15:15:13Z</time>
      </trkpt>
      <trkpt lat="47.47342" lon="-0.55921">
        <ele>22</ele>
        <time>2011-09-01T15:15:14Z</time>
      </trkpt>
      <trkpt lat="47.47343" lon="-0.55919">
        <ele>22</ele>
        <time>2011-09-01T15:15:16Z</time>
      </trkpt>
      <trkpt lat="47.47343" lon="-0.55918">
        <ele>22</ele>
        <time>2011-09-01T15:15:19Z</time>
      </trkpt>
      <trkpt lat="47.47343" lon="-0.55916">
        <ele>22</ele>
        <time>2011-09-01T15:15:21Z</time>
      </trkpt>
      <trkpt lat="47.47345" lon="-0.55916">
        <ele>20</ele>
        <time>2011-09-01T15:15:25Z</time>
      </trkpt>
      <trkpt lat="47.47346" lon="-0.55917">
        <ele>18</ele>
        <time>2011-09-01T15:15:28Z</time>
      </trkpt>
      <trkpt lat="47.47347" lon="-0.55917">
        <ele>15</ele>
        <time>2011-09-01T15:15:32Z</time>
      </trkpt>
      <trkpt lat="47.47348" lon="-0.55915">
        <ele>12</ele>
        <time>2011-09-01T15:15:37Z</time>
      </trkpt>
      <trkpt lat="47.4735" lon="-0.55914">
        <ele>12</ele>
        <time>2011-09-01T15:15:39Z</time>
      </trkpt>
      <trkpt lat="47.47352" lon="-0.55911">
        <ele>11</ele>
        <time>2011-09-01T15:15:41Z</time>
      </trkpt>
      <trkpt lat="47.47353" lon="-0.55909">
        <ele>10</ele>
        <time>2011-09-01T15:15:43Z</time>
      </trkpt>
      <trkpt lat="47.47355" lon="-0.55906">
        <ele>9</ele>
        <time>2011-09-01T15:15:45Z</time>
      </trkpt>
      <trkpt lat="47.47357" lon="-0.55904">
        <ele>8</ele>
        <time>2011-09-01T15:15:47Z</time>
      </trkpt>
      <trkpt lat="47.47357" lon="-0.55902">
        <ele>7</ele>
        <time>2011-09-01T15:15:50Z</time>
      </trkpt>
      <trkpt lat="47.47357" lon="-0.559">
        <ele>7</ele>
        <time>2011-09-01T15:15:52Z</time>
      </trkpt>
      <trkpt lat="47.47356" lon="-0.55898">
        <ele>7</ele>
        <time>2011-09-01T15:15:53Z</time>
      </trkpt>
      <trkpt lat="47.47355" lon="-0.55897">
        <ele>7</ele>
        <time>2011-09-01T15:15:54Z</time>
      </trkpt>
      <trkpt lat="47.47354" lon="-0.55895">
        <ele>7</ele>
        <time>2011-09-01T15:15:55Z</time>
      </trkpt>
      <trkpt lat="47.47352" lon="-0.55892">
        <ele>7</ele>
        <time>2011-09-01T15:15:57Z</time>
      </trkpt>
      <trkpt lat="47.4735" lon="-0.55891">
        <ele>7</ele>
        <time>2011-09-01T15:15:58Z</time>
      </trkpt>
      <trkpt lat="47.47349" lon="-0.55888">
        <ele>7</ele>
        <time>2011-09-01T15:15:59Z</time>
      </trkpt>
      <trkpt lat="47.47348" lon="-0.55885">
        <ele>7</ele>
        <time>2011-09-01T15:16:00Z</time>
      </trkpt>
      <trkpt lat="47.47346" lon="-0.55882">
        <ele>7</ele>
        <time>2011-09-01T15:16:01Z</time>
      </trkpt>
      <trkpt lat="47.47344" lon="-0.55879">
        <ele>7</ele>
        <time>2011-09-01T15:16:02Z</time>
      </trkpt>
      <trkpt lat="47.47342" lon="-0.55877">
        <ele>7</ele>
        <time>2011-09-01T15:16:03Z</time>
      </trkpt>
      <trkpt lat="47.47341" lon="-0.55874">
        <ele>7</ele>
        <time>2011-09-01T15:16:04Z</time>
      </trkpt>
      <trkpt lat="47.47339" lon="-0.55871">
        <ele>7</ele>
        <time>2011-09-01T15:16:05Z</time>
      </trkpt>
      <trkpt lat="47.47338" lon="-0.55869">
        <ele>7</ele>
        <time>2011-09-01T15:16:06Z</time>
      </trkpt>
      <trkpt lat="47.47336" lon="-0.55867">
        <ele>7</ele>
        <time>2011-09-01T15:16:07Z</time>
      </trkpt>
      <trkpt lat="47.47335" lon="-0.55865">
        <ele>7</ele>
        <time>2011-09-01T15:16:08Z</time>
      </trkpt>
      <trkpt lat="47.47334" lon="-0.55862">
        <ele>7</ele>
        <time>2011-09-01T15:16:09Z</time>
      </trkpt>
      <trkpt lat="47.47333" lon="-0.5586">
        <ele>7</ele>
        <time>2011-09-01T15:16:10Z</time>
      </trkpt>
      <trkpt lat="47.47332" lon="-0.55859">
        <ele>7</ele>
        <time>2011-09-01T15:16:12Z</time>
      </trkpt>
      <trkpt lat="47.47331" lon="-0.55857">
        <ele>9</ele>
        <time>2011-09-01T15:16:33Z</time>
      </trkpt>
      <trkpt lat="47.47329" lon="-0.55855">
        <ele>9</ele>
        <time>2011-09-01T15:16:34Z</time>
      </trkpt>
      <trkpt lat="47.47328" lon="-0.55853">
        <ele>9</ele>
        <time>2011-09-01T15:16:35Z</time>
      </trkpt>
      <trkpt lat="47.47326" lon="-0.5585">
        <ele>10</ele>
        <time>2011-09-01T15:16:36Z</time>
      </trkpt>
      <trkpt lat="47.47324" lon="-0.55847">
        <ele>10</ele>
        <time>2011-09-01T15:16:37Z</time>
      </trkpt>
      <trkpt lat="47.47321" lon="-0.55844">
        <ele>10</ele>
        <time>2011-09-01T15:16:38Z</time>
      </trkpt>
      <trkpt lat="47.47319" lon="-0.55841">
        <ele>10</ele>
        <time>2011-09-01T15:16:39Z</time>
      </trkpt>
      <trkpt lat="47.47316" lon="-0.55837">
        <ele>10</ele>
        <time>2011-09-01T15:16:40Z</time>
      </trkpt>
      <trkpt lat="47.47314" lon="-0.55834">
        <ele>10</ele>
        <time>2011-09-01T15:16:41Z</time>
      </trkpt>
      <trkpt lat="47.47312" lon="-0.5583">
        <ele>10</ele>
        <time>2011-09-01T15:16:42Z</time>
      </trkpt>
      <trkpt lat="47.4731" lon="-0.55827">
        <ele>10</ele>
        <time>2011-09-01T15:16:43Z</time>
      </trkpt>
      <trkpt lat="47.47308" lon="-0.55823">
        <ele>10</ele>
        <time>2011-09-01T15:16:44Z</time>
      </trkpt>
      <trkpt lat="47.47306" lon="-0.5582">
        <ele>10</ele>
        <time>2011-09-01T15:16:45Z</time>
      </trkpt>
      <trkpt lat="47.47305" lon="-0.55817">
        <ele>11</ele>
        <time>2011-09-01T15:16:46Z</time>
      </trkpt>
      <trkpt lat="47.47303" lon="-0.55814">
        <ele>11</ele>
        <time>2011-09-01T15:16:47Z</time>
      </trkpt>
      <trkpt lat="47.47301" lon="-0.55812">
        <ele>11</ele>
        <time>2011-09-01T15:16:48Z</time>
      </trkpt>
      <trkpt lat="47.473" lon="-0.55809">
        <ele>11</ele>
        <time>2011-09-01T15:16:49Z</time>
      </trkpt>
      <trkpt lat="47.47298" lon="-0.55807">
        <ele>11</ele>
        <time>2011-09-01T15:16:50Z</time>
      </trkpt>
      <trkpt lat="47.47297" lon="-0.55805">
        <ele>11</ele>
        <time>2011-09-01T15:16:51Z</time>
      </trkpt>
      <trkpt lat="47.47295" lon="-0.55802">
        <ele>11</ele>
        <time>2011-09-01T15:16:52Z</time>
      </trkpt>
      <trkpt lat="47.47293" lon="-0.558">
        <ele>11</ele>
        <time>2011-09-01T15:16:53Z</time>
      </trkpt>
      <trkpt lat="47.47292" lon="-0.55797">
        <ele>11</ele>
        <time>2011-09-01T15:16:54Z</time>
      </trkpt>
      <trkpt lat="47.4729" lon="-0.55795">
        <ele>11</ele>
        <time>2011-09-01T15:16:55Z</time>
      </trkpt>
      <trkpt lat="47.47289" lon="-0.55794">
        <ele>11</ele>
        <time>2011-09-01T15:16:56Z</time>
      </trkpt>
      <trkpt lat="47.47287" lon="-0.55792">
        <ele>11</ele>
        <time>2011-09-01T15:16:57Z</time>
      </trkpt>
      <trkpt lat="47.47285" lon="-0.55791">
        <ele>11</ele>
        <time>2011-09-01T15:16:58Z</time>
      </trkpt>
      <trkpt lat="47.47284" lon="-0.55789">
        <ele>11</ele>
        <time>2011-09-01T15:16:59Z</time>
      </trkpt>
      <trkpt lat="47.47283" lon="-0.55787">
        <ele>11</ele>
        <time>2011-09-01T15:17:00Z</time>
      </trkpt>
      <trkpt lat="47.47281" lon="-0.55784">
        <ele>11</ele>
        <time>2011-09-01T15:17:01Z</time>
      </trkpt>
      <trkpt lat="47.4728" lon="-0.55781">
        <ele>11</ele>
        <time>2011-09-01T15:17:02Z</time>
      </trkpt>
      <trkpt lat="47.47278" lon="-0.55778">
        <ele>11</ele>
        <time>2011-09-01T15:17:03Z</time>
      </trkpt>
      <trkpt lat="47.47275" lon="-0.55777">
        <ele>11</ele>
        <time>2011-09-01T15:17:04Z</time>
      </trkpt>
      <trkpt lat="47.47273" lon="-0.55775">
        <ele>11</ele>
        <time>2011-09-01T15:17:05Z</time>
      </trkpt>
      <trkpt lat="47.4727" lon="-0.55775">
        <ele>11</ele>
        <time>2011-09-01T15:17:06Z</time>
      </trkpt>
      <trkpt lat="47.47267" lon="-0.55776">
        <ele>11</ele>
        <time>2011-09-01T15:17:07Z</time>
      </trkpt>
      <trkpt lat="47.47265" lon="-0.55777">
        <ele>11</ele>
        <time>2011-09-01T15:17:08Z</time>
      </trkpt>
      <trkpt lat="47.47262" lon="-0.55778">
        <ele>11</ele>
        <time>2011-09-01T15:17:09Z</time>
      </trkpt>
      <trkpt lat="47.4726" lon="-0.5578">
        <ele>11</ele>
        <time>2011-09-01T15:17:10Z</time>
      </trkpt>
      <trkpt lat="47.47258" lon="-0.55781">
        <ele>11</ele>
        <time>2011-09-01T15:17:11Z</time>
      </trkpt>
      <trkpt lat="47.47256" lon="-0.55783">
        <ele>11</ele>
        <time>2011-09-01T15:17:12Z</time>
      </trkpt>
      <trkpt lat="47.47254" lon="-0.55785">
        <ele>11</ele>
        <time>2011-09-01T15:17:13Z</time>
      </trkpt>
      <trkpt lat="47.47253" lon="-0.55786">
        <ele>11</ele>
        <time>2011-09-01T15:17:14Z</time>
      </trkpt>
      <trkpt lat="47.47252" lon="-0.55787">
        <ele>11</ele>
        <time>2011-09-01T15:17:15Z</time>
      </trkpt>
      <trkpt lat="47.47251" lon="-0.55786">
        <ele>11</ele>
        <time>2011-09-01T15:17:16Z</time>
      </trkpt>
      <trkpt lat="47.4725" lon="-0.55785">
        <ele>11</ele>
        <time>2011-09-01T15:17:18Z</time>
      </trkpt>
      <trkpt lat="47.47248" lon="-0.55785">
        <ele>11</ele>
        <time>2011-09-01T15:17:24Z</time>
      </trkpt>
      <trkpt lat="47.47247" lon="-0.55785">
        <ele>11</ele>
        <time>2011-09-01T15:17:27Z</time>
      </trkpt>
      <trkpt lat="47.47245" lon="-0.55785">
        <ele>11</ele>
        <time>2011-09-01T15:17:30Z</time>
      </trkpt>
      <trkpt lat="47.47244" lon="-0.55786">
        <ele>11</ele>
        <time>2011-09-01T15:17:32Z</time>
      </trkpt>
      <trkpt lat="47.47243" lon="-0.55786">
        <ele>11</ele>
        <time>2011-09-01T15:17:35Z</time>
      </trkpt>
      <trkpt lat="47.47242" lon="-0.55785">
        <ele>11</ele>
        <time>2011-09-01T15:17:39Z</time>
      </trkpt>
      <trkpt lat="47.4724" lon="-0.55785">
        <ele>12</ele>
        <time>2011-09-01T15:17:45Z</time>
      </trkpt>
      <trkpt lat="47.47242" lon="-0.55784">
        <ele>13</ele>
        <time>2011-09-01T15:17:49Z</time>
      </trkpt>
      <trkpt lat="47.4724" lon="-0.55784">
        <ele>13</ele>
        <time>2011-09-01T15:17:54Z</time>
      </trkpt>
      <trkpt lat="47.4724" lon="-0.55783">
        <ele>13</ele>
        <time>2011-09-01T15:17:58Z</time>
      </trkpt>
      <trkpt lat="47.47241" lon="-0.55781">
        <ele>13</ele>
        <time>2011-09-01T15:18:00Z</time>
      </trkpt>
      <trkpt lat="47.4724" lon="-0.5578">
        <ele>13</ele>
        <time>2011-09-01T15:18:02Z</time>
      </trkpt>
      <trkpt lat="47.47239" lon="-0.55778">
        <ele>14</ele>
        <time>2011-09-01T15:18:05Z</time>
      </trkpt>
      <trkpt lat="47.47237" lon="-0.55778">
        <ele>15</ele>
        <time>2011-09-01T15:18:06Z</time>
      </trkpt>
      <trkpt lat="47.47236" lon="-0.55777">
        <ele>17</ele>
        <time>2011-09-01T15:18:12Z</time>
      </trkpt>
      <trkpt lat="47.47235" lon="-0.55775">
        <ele>18</ele>
        <time>2011-09-01T15:18:16Z</time>
      </trkpt>
      <trkpt lat="47.47237" lon="-0.55774">
        <ele>18</ele>
        <time>2011-09-01T15:18:19Z</time>
      </trkpt>
      <trkpt lat="47.47238" lon="-0.55773">
        <ele>18</ele>
        <time>2011-09-01T15:18:23Z</time>
      </trkpt>
      <trkpt lat="47.47239" lon="-0.5577">
        <ele>18</ele>
        <time>2011-09-01T15:18:25Z</time>
      </trkpt>
      <trkpt lat="47.47241" lon="-0.5577">
        <ele>18</ele>
        <time>2011-09-01T15:18:26Z</time>
      </trkpt>
      <trkpt lat="47.47243" lon="-0.5577">
        <ele>18</ele>
        <time>2011-09-01T15:18:27Z</time>
      </trkpt>
      <trkpt lat="47.47245" lon="-0.55771">
        <ele>19</ele>
        <time>2011-09-01T15:18:28Z</time>
      </trkpt>
      <trkpt lat="47.47247" lon="-0.55772">
        <ele>19</ele>
        <time>2011-09-01T15:18:29Z</time>
      </trkpt>
      <trkpt lat="47.47249" lon="-0.55773">
        <ele>20</ele>
        <time>2011-09-01T15:18:30Z</time>
      </trkpt>
      <trkpt lat="47.47251" lon="-0.55774">
        <ele>20</ele>
        <time>2011-09-01T15:18:31Z</time>
      </trkpt>
      <trkpt lat="47.47253" lon="-0.55775">
        <ele>20</ele>
        <time>2011-09-01T15:18:32Z</time>
      </trkpt>
      <trkpt lat="47.47255" lon="-0.55775">
        <ele>20</ele>
        <time>2011-09-01T15:18:33Z</time>
      </trkpt>
      <trkpt lat="47.47257" lon="-0.55776">
        <ele>21</ele>
        <time>2011-09-01T15:18:34Z</time>
      </trkpt>
      <trkpt lat="47.47259" lon="-0.55777">
        <ele>21</ele>
        <time>2011-09-01T15:18:35Z</time>
      </trkpt>
      <trkpt lat="47.47261" lon="-0.55777">
        <ele>21</ele>
        <time>2011-09-01T15:18:36Z</time>
      </trkpt>
      <trkpt lat="47.47263" lon="-0.55778">
        <ele>21</ele>
        <time>2011-09-01T15:18:37Z</time>
      </trkpt>
      <trkpt lat="47.47265" lon="-0.55778">
        <ele>21</ele>
        <time>2011-09-01T15:18:38Z</time>
      </trkpt>
      <trkpt lat="47.47267" lon="-0.55777">
        <ele>21</ele>
        <time>2011-09-01T15:18:39Z</time>
      </trkpt>
      <trkpt lat="47.4727" lon="-0.55777">
        <ele>21</ele>
        <time>2011-09-01T15:18:40Z</time>
      </trkpt>
      <trkpt lat="47.47272" lon="-0.55778">
        <ele>21</ele>
        <time>2011-09-01T15:18:41Z</time>
      </trkpt>
      <trkpt lat="47.47274" lon="-0.55778">
        <ele>21</ele>
        <time>2011-09-01T15:18:42Z</time>
      </trkpt>
      <trkpt lat="47.47276" lon="-0.55778">
        <ele>21</ele>
        <time>2011-09-01T15:18:43Z</time>
      </trkpt>
      <trkpt lat="47.47279" lon="-0.55779">
        <ele>21</ele>
        <time>2011-09-01T15:18:44Z</time>
      </trkpt>
      <trkpt lat="47.47282" lon="-0.5578">
        <ele>21</ele>
        <time>2011-09-01T15:18:45Z</time>
      </trkpt>
      <trkpt lat="47.47285" lon="-0.55783">
        <ele>21</ele>
        <time>2011-09-01T15:18:46Z</time>
      </trkpt>
      <trkpt lat="47.47289" lon="-0.55786">
        <ele>21</ele>
        <time>2011-09-01T15:18:47Z</time>
      </trkpt>
      <trkpt lat="47.47292" lon="-0.5579">
        <ele>21</ele>
        <time>2011-09-01T15:18:48Z</time>
      </trkpt>
      <trkpt lat="47.47294" lon="-0.55793">
        <ele>21</ele>
        <time>2011-09-01T15:18:49Z</time>
      </trkpt>
      <trkpt lat="47.47297" lon="-0.55797">
        <ele>21</ele>
        <time>2011-09-01T15:18:50Z</time>
      </trkpt>
      <trkpt lat="47.47299" lon="-0.55801">
        <ele>21</ele>
        <time>2011-09-01T15:18:51Z</time>
      </trkpt>
      <trkpt lat="47.47302" lon="-0.55805">
        <ele>21</ele>
        <time>2011-09-01T15:18:52Z</time>
      </trkpt>
      <trkpt lat="47.47305" lon="-0.55809">
        <ele>21</ele>
        <time>2011-09-01T15:18:53Z</time>
      </trkpt>
      <trkpt lat="47.47308" lon="-0.55813">
        <ele>21</ele>
        <time>2011-09-01T15:18:54Z</time>
      </trkpt>
      <trkpt lat="47.4731" lon="-0.55817">
        <ele>21</ele>
        <time>2011-09-01T15:18:55Z</time>
      </trkpt>
      <trkpt lat="47.47313" lon="-0.55821">
        <ele>21</ele>
        <time>2011-09-01T15:18:56Z</time>
      </trkpt>
      <trkpt lat="47.47316" lon="-0.55826">
        <ele>21</ele>
        <time>2011-09-01T15:18:57Z</time>
      </trkpt>
      <trkpt lat="47.47319" lon="-0.5583">
        <ele>21</ele>
        <time>2011-09-01T15:18:58Z</time>
      </trkpt>
      <trkpt lat="47.47322" lon="-0.55834">
        <ele>21</ele>
        <time>2011-09-01T15:18:59Z</time>
      </trkpt>
      <trkpt lat="47.47325" lon="-0.55839">
        <ele>21</ele>
        <time>2011-09-01T15:19:00Z</time>
      </trkpt>
      <trkpt lat="47.47328" lon="-0.55843">
        <ele>20</ele>
        <time>2011-09-01T15:19:01Z</time>
      </trkpt>
      <trkpt lat="47.47331" lon="-0.55848">
        <ele>20</ele>
        <time>2011-09-01T15:19:02Z</time>
      </trkpt>
      <trkpt lat="47.47334" lon="-0.55852">
        <ele>20</ele>
        <time>2011-09-01T15:19:03Z</time>
      </trkpt>
      <trkpt lat="47.47337" lon="-0.55857">
        <ele>20</ele>
        <time>2011-09-01T15:19:04Z</time>
      </trkpt>
      <trkpt lat="47.4734" lon="-0.55862">
        <ele>20</ele>
        <time>2011-09-01T15:19:05Z</time>
      </trkpt>
      <trkpt lat="47.47343" lon="-0.55866">
        <ele>20</ele>
        <time>2011-09-01T15:19:06Z</time>
      </trkpt>
      <trkpt lat="47.47346" lon="-0.55871">
        <ele>20</ele>
        <time>2011-09-01T15:19:07Z</time>
      </trkpt>
      <trkpt lat="47.47349" lon="-0.55875">
        <ele>20</ele>
        <time>2011-09-01T15:19:08Z</time>
      </trkpt>
      <trkpt lat="47.47352" lon="-0.55879">
        <ele>20</ele>
        <time>2011-09-01T15:19:09Z</time>
      </trkpt>
      <trkpt lat="47.47354" lon="-0.55884">
        <ele>20</ele>
        <time>2011-09-01T15:19:10Z</time>
      </trkpt>
      <trkpt lat="47.47356" lon="-0.55887">
        <ele>20</ele>
        <time>2011-09-01T15:19:11Z</time>
      </trkpt>
      <trkpt lat="47.47358" lon="-0.5589">
        <ele>20</ele>
        <time>2011-09-01T15:19:12Z</time>
      </trkpt>
      <trkpt lat="47.47361" lon="-0.55892">
        <ele>20</ele>
        <time>2011-09-01T15:19:13Z</time>
      </trkpt>
      <trkpt lat="47.47363" lon="-0.55891">
        <ele>20</ele>
        <time>2011-09-01T15:19:14Z</time>
      </trkpt>
      <trkpt lat="47.47364" lon="-0.5589">
        <ele>20</ele>
        <time>2011-09-01T15:19:15Z</time>
      </trkpt>
      <trkpt lat="47.47366" lon="-0.55888">
        <ele>20</ele>
        <time>2011-09-01T15:19:16Z</time>
      </trkpt>
      <trkpt lat="47.47368" lon="-0.55887">
        <ele>20</ele>
        <time>2011-09-01T15:19:17Z</time>
      </trkpt>
      <trkpt lat="47.4737" lon="-0.55885">
        <ele>20</ele>
        <time>2011-09-01T15:19:18Z</time>
      </trkpt>
      <trkpt lat="47.47371" lon="-0.55884">
        <ele>20</ele>
        <time>2011-09-01T15:19:19Z</time>
      </trkpt>
      <trkpt lat="47.47372" lon="-0.55883">
        <ele>20</ele>
        <time>2011-09-01T15:19:20Z</time>
      </trkpt>
      <trkpt lat="47.47373" lon="-0.55882">
        <ele>20</ele>
        <time>2011-09-01T15:19:22Z</time>
      </trkpt>
      <trkpt lat="47.47374" lon="-0.55879">
        <ele>20</ele>
        <time>2011-09-01T15:19:24Z</time>
      </trkpt>
      <trkpt lat="47.47373" lon="-0.55878">
        <ele>20</ele>
        <time>2011-09-01T15:19:26Z</time>
      </trkpt>
      <trkpt lat="47.47373" lon="-0.55876">
        <ele>20</ele>
        <time>2011-09-01T15:19:29Z</time>
      </trkpt>
      <trkpt lat="47.47375" lon="-0.55874">
        <ele>20</ele>
        <time>2011-09-01T15:19:31Z</time>
      </trkpt>
      <trkpt lat="47.47377" lon="-0.55872">
        <ele>20</ele>
        <time>2011-09-01T15:19:32Z</time>
      </trkpt>
      <trkpt lat="47.47379" lon="-0.55871">
        <ele>20</ele>
        <time>2011-09-01T15:19:33Z</time>
      </trkpt>
      <trkpt lat="47.4738" lon="-0.5587">
        <ele>20</ele>
        <time>2011-09-01T15:19:34Z</time>
      </trkpt>
      <trkpt lat="47.47382" lon="-0.55869">
        <ele>20</ele>
        <time>2011-09-01T15:19:35Z</time>
      </trkpt>
      <trkpt lat="47.47384" lon="-0.55867">
        <ele>20</ele>
        <time>2011-09-01T15:19:36Z</time>
      </trkpt>
      <trkpt lat="47.47385" lon="-0.55866">
        <ele>20</ele>
        <time>2011-09-01T15:19:37Z</time>
      </trkpt>
      <trkpt lat="47.47387" lon="-0.55865">
        <ele>20</ele>
        <time>2011-09-01T15:19:38Z</time>
      </trkpt>
      <trkpt lat="47.4739" lon="-0.55863">
        <ele>20</ele>
        <time>2011-09-01T15:19:39Z</time>
      </trkpt>
      <trkpt lat="47.47393" lon="-0.55861">
        <ele>20</ele>
        <time>2011-09-01T15:19:40Z</time>
      </trkpt>
      <trkpt lat="47.47395" lon="-0.55858">
        <ele>20</ele>
        <time>2011-09-01T15:19:41Z</time>
      </trkpt>
      <trkpt lat="47.47397" lon="-0.55856">
        <ele>20</ele>
        <time>2011-09-01T15:19:42Z</time>
      </trkpt>
      <trkpt lat="47.47399" lon="-0.55854">
        <ele>20</ele>
        <time>2011-09-01T15:19:43Z</time>
      </trkpt>
      <trkpt lat="47.47402" lon="-0.55851">
        <ele>20</ele>
        <time>2011-09-01T15:19:44Z</time>
      </trkpt>
      <trkpt lat="47.47405" lon="-0.55849">
        <ele>20</ele>
        <time>2011-09-01T15:19:45Z</time>
      </trkpt>
      <trkpt lat="47.47408" lon="-0.55847">
        <ele>20</ele>
        <time>2011-09-01T15:19:46Z</time>
      </trkpt>
      <trkpt lat="47.47411" lon="-0.55845">
        <ele>20</ele>
        <time>2011-09-01T15:19:47Z</time>
      </trkpt>
      <trkpt lat="47.47413" lon="-0.55843">
        <ele>20</ele>
        <time>2011-09-01T15:19:48Z</time>
      </trkpt>
      <trkpt lat="47.47415" lon="-0.55841">
        <ele>20</ele>
        <time>2011-09-01T15:19:49Z</time>
      </trkpt>
      <trkpt lat="47.47416" lon="-0.55839">
        <ele>20</ele>
        <time>2011-09-01T15:19:50Z</time>
      </trkpt>
      <trkpt lat="47.47418" lon="-0.55838">
        <ele>20</ele>
        <time>2011-09-01T15:19:51Z</time>
      </trkpt>
      <trkpt lat="47.4742" lon="-0.55836">
        <ele>20</ele>
        <time>2011-09-01T15:19:52Z</time>
      </trkpt>
      <trkpt lat="47.47422" lon="-0.55835">
        <ele>20</ele>
        <time>2011-09-01T15:19:53Z</time>
      </trkpt>
      <trkpt lat="47.47425" lon="-0.55833">
        <ele>20</ele>
        <time>2011-09-01T15:19:54Z</time>
      </trkpt>
      <trkpt lat="47.47428" lon="-0.55832">
        <ele>20</ele>
        <time>2011-09-01T15:19:55Z</time>
      </trkpt>
      <trkpt lat="47.4743" lon="-0.5583">
        <ele>20</ele>
        <time>2011-09-01T15:19:56Z</time>
      </trkpt>
      <trkpt lat="47.47433" lon="-0.55829">
        <ele>20</ele>
        <time>2011-09-01T15:19:57Z</time>
      </trkpt>
      <trkpt lat="47.47434" lon="-0.55827">
        <ele>20</ele>
        <time>2011-09-01T15:19:58Z</time>
      </trkpt>
      <trkpt lat="47.47436" lon="-0.55827">
        <ele>19</ele>
        <time>2011-09-01T15:19:59Z</time>
      </trkpt>
      <trkpt lat="47.47438" lon="-0.55826">
        <ele>19</ele>
        <time>2011-09-01T15:20:00Z</time>
      </trkpt>
      <trkpt lat="47.47439" lon="-0.55825">
        <ele>18</ele>
        <time>2011-09-01T15:20:01Z</time>
      </trkpt>
      <trkpt lat="47.47441" lon="-0.55823">
        <ele>18</ele>
        <time>2011-09-01T15:20:02Z</time>
      </trkpt>
      <trkpt lat="47.47443" lon="-0.55822">
        <ele>18</ele>
        <time>2011-09-01T15:20:03Z</time>
      </trkpt>
      <trkpt lat="47.47443" lon="-0.55819">
        <ele>18</ele>
        <time>2011-09-01T15:20:04Z</time>
      </trkpt>
      <trkpt lat="47.47444" lon="-0.55818">
        <ele>18</ele>
        <time>2011-09-01T15:20:05Z</time>
      </trkpt>
      <trkpt lat="47.47444" lon="-0.55816">
        <ele>18</ele>
        <time>2011-09-01T15:20:06Z</time>
      </trkpt>
      <trkpt lat="47.47445" lon="-0.55814">
        <ele>18</ele>
        <time>2011-09-01T15:20:07Z</time>
      </trkpt>
      <trkpt lat="47.47447" lon="-0.55813">
        <ele>18</ele>
        <time>2011-09-01T15:20:08Z</time>
      </trkpt>
      <trkpt lat="47.47448" lon="-0.55811">
        <ele>18</ele>
        <time>2011-09-01T15:20:09Z</time>
      </trkpt>
      <trkpt lat="47.47451" lon="-0.5581">
        <ele>18</ele>
        <time>2011-09-01T15:20:10Z</time>
      </trkpt>
      <trkpt lat="47.47453" lon="-0.55808">
        <ele>18</ele>
        <time>2011-09-01T15:20:11Z</time>
      </trkpt>
      <trkpt lat="47.47456" lon="-0.55807">
        <ele>18</ele>
        <time>2011-09-01T15:20:12Z</time>
      </trkpt>
      <trkpt lat="47.47459" lon="-0.55806">
        <ele>18</ele>
        <time>2011-09-01T15:20:13Z</time>
      </trkpt>
      <trkpt lat="47.47462" lon="-0.55804">
        <ele>18</ele>
        <time>2011-09-01T15:20:14Z</time>
      </trkpt>
      <trkpt lat="47.47465" lon="-0.55803">
        <ele>18</ele>
        <time>2011-09-01T15:20:15Z</time>
      </trkpt>
      <trkpt lat="47.47468" lon="-0.55801">
        <ele>18</ele>
        <time>2011-09-01T15:20:16Z</time>
      </trkpt>
      <trkpt lat="47.47471" lon="-0.55799">
        <ele>18</ele>
        <time>2011-09-01T15:20:17Z</time>
      </trkpt>
      <trkpt lat="47.47473" lon="-0.55797">
        <ele>18</ele>
        <time>2011-09-01T15:20:18Z</time>
      </trkpt>
      <trkpt lat="47.47476" lon="-0.55796">
        <ele>18</ele>
        <time>2011-09-01T15:20:19Z</time>
      </trkpt>
      <trkpt lat="47.47479" lon="-0.55794">
        <ele>18</ele>
        <time>2011-09-01T15:20:20Z</time>
      </trkpt>
      <trkpt lat="47.47481" lon="-0.55793">
        <ele>18</ele>
        <time>2011-09-01T15:20:21Z</time>
      </trkpt>
      <trkpt lat="47.47483" lon="-0.55792">
        <ele>18</ele>
        <time>2011-09-01T15:20:22Z</time>
      </trkpt>
      <trkpt lat="47.47486" lon="-0.55791">
        <ele>18</ele>
        <time>2011-09-01T15:20:23Z</time>
      </trkpt>
      <trkpt lat="47.47489" lon="-0.55789">
        <ele>18</ele>
        <time>2011-09-01T15:20:24Z</time>
      </trkpt>
      <trkpt lat="47.47491" lon="-0.55788">
        <ele>18</ele>
        <time>2011-09-01T15:20:25Z</time>
      </trkpt>
      <trkpt lat="47.47493" lon="-0.55786">
        <ele>18</ele>
        <time>2011-09-01T15:20:26Z</time>
      </trkpt>
      <trkpt lat="47.47496" lon="-0.55785">
        <ele>18</ele>
        <time>2011-09-01T15:20:27Z</time>
      </trkpt>
      <trkpt lat="47.47499" lon="-0.55783">
        <ele>18</ele>
        <time>2011-09-01T15:20:28Z</time>
      </trkpt>
      <trkpt lat="47.47502" lon="-0.55781">
        <ele>18</ele>
        <time>2011-09-01T15:20:29Z</time>
      </trkpt>
      <trkpt lat="47.47505" lon="-0.55778">
        <ele>18</ele>
        <time>2011-09-01T15:20:30Z</time>
      </trkpt>
      <trkpt lat="47.47508" lon="-0.55777">
        <ele>18</ele>
        <time>2011-09-01T15:20:31Z</time>
      </trkpt>
      <trkpt lat="47.4751" lon="-0.55775">
        <ele>18</ele>
        <time>2011-09-01T15:20:32Z</time>
      </trkpt>
      <trkpt lat="47.47512" lon="-0.55773">
        <ele>18</ele>
        <time>2011-09-01T15:20:34Z</time>
      </trkpt>
      <trkpt lat="47.47515" lon="-0.55771">
        <ele>18</ele>
        <time>2011-09-01T15:20:35Z</time>
      </trkpt>
      <trkpt lat="47.47518" lon="-0.5577">
        <ele>18</ele>
        <time>2011-09-01T15:20:36Z</time>
      </trkpt>
      <trkpt lat="47.4752" lon="-0.55768">
        <ele>18</ele>
        <time>2011-09-01T15:20:37Z</time>
      </trkpt>
      <trkpt lat="47.47525" lon="-0.55765">
        <ele>18</ele>
        <time>2011-09-01T15:20:38Z</time>
      </trkpt>
      <trkpt lat="47.47528" lon="-0.55763">
        <ele>18</ele>
        <time>2011-09-01T15:20:39Z</time>
      </trkpt>
      <trkpt lat="47.47532" lon="-0.55761">
        <ele>18</ele>
        <time>2011-09-01T15:20:40Z</time>
      </trkpt>
      <trkpt lat="47.47535" lon="-0.55759">
        <ele>18</ele>
        <time>2011-09-01T15:20:41Z</time>
      </trkpt>
      <trkpt lat="47.47537" lon="-0.55757">
        <ele>18</ele>
        <time>2011-09-01T15:20:42Z</time>
      </trkpt>
      <trkpt lat="47.47539" lon="-0.55755">
        <ele>18</ele>
        <time>2011-09-01T15:20:43Z</time>
      </trkpt>
      <trkpt lat="47.47541" lon="-0.55753">
        <ele>18</ele>
        <time>2011-09-01T15:20:44Z</time>
      </trkpt>
      <trkpt lat="47.47544" lon="-0.55751">
        <ele>18</ele>
        <time>2011-09-01T15:20:45Z</time>
      </trkpt>
      <trkpt lat="47.47547" lon="-0.55749">
        <ele>18</ele>
        <time>2011-09-01T15:20:46Z</time>
      </trkpt>
      <trkpt lat="47.47549" lon="-0.55748">
        <ele>18</ele>
        <time>2011-09-01T15:20:47Z</time>
      </trkpt>
      <trkpt lat="47.47552" lon="-0.55746">
        <ele>18</ele>
        <time>2011-09-01T15:20:48Z</time>
      </trkpt>
      <trkpt lat="47.47554" lon="-0.55744">
        <ele>18</ele>
        <time>2011-09-01T15:20:49Z</time>
      </trkpt>
      <trkpt lat="47.47556" lon="-0.55742">
        <ele>18</ele>
        <time>2011-09-01T15:20:50Z</time>
      </trkpt>
      <trkpt lat="47.47559" lon="-0.55741">
        <ele>18</ele>
        <time>2011-09-01T15:20:51Z</time>
      </trkpt>
      <trkpt lat="47.47561" lon="-0.55739">
        <ele>18</ele>
        <time>2011-09-01T15:20:52Z</time>
      </trkpt>
      <trkpt lat="47.47563" lon="-0.55738">
        <ele>18</ele>
        <time>2011-09-01T15:20:53Z</time>
      </trkpt>
      <trkpt lat="47.47565" lon="-0.55737">
        <ele>18</ele>
        <time>2011-09-01T15:20:54Z</time>
      </trkpt>
      <trkpt lat="47.47568" lon="-0.55735">
        <ele>18</ele>
        <time>2011-09-01T15:20:55Z</time>
      </trkpt>
      <trkpt lat="47.4757" lon="-0.55733">
        <ele>18</ele>
        <time>2011-09-01T15:20:56Z</time>
      </trkpt>
      <trkpt lat="47.47573" lon="-0.55732">
        <ele>18</ele>
        <time>2011-09-01T15:20:57Z</time>
      </trkpt>
      <trkpt lat="47.47576" lon="-0.5573">
        <ele>18</ele>
        <time>2011-09-01T15:20:58Z</time>
      </trkpt>
      <trkpt lat="47.47578" lon="-0.55728">
        <ele>18</ele>
        <time>2011-09-01T15:20:59Z</time>
      </trkpt>
      <trkpt lat="47.4758" lon="-0.55726">
        <ele>18</ele>
        <time>2011-09-01T15:21:00Z</time>
      </trkpt>
      <trkpt lat="47.47584" lon="-0.55724">
        <ele>18</ele>
        <time>2011-09-01T15:21:01Z</time>
      </trkpt>
      <trkpt lat="47.47586" lon="-0.55722">
        <ele>18</ele>
        <time>2011-09-01T15:21:02Z</time>
      </trkpt>
      <trkpt lat="47.47589" lon="-0.5572">
        <ele>18</ele>
        <time>2011-09-01T15:21:03Z</time>
      </trkpt>
      <trkpt lat="47.4759" lon="-0.55719">
        <ele>18</ele>
        <time>2011-09-01T15:21:04Z</time>
      </trkpt>
      <trkpt lat="47.47593" lon="-0.55717">
        <ele>18</ele>
        <time>2011-09-01T15:21:05Z</time>
      </trkpt>
      <trkpt lat="47.47595" lon="-0.55716">
        <ele>18</ele>
        <time>2011-09-01T15:21:06Z</time>
      </trkpt>
      <trkpt lat="47.47598" lon="-0.55714">
        <ele>18</ele>
        <time>2011-09-01T15:21:07Z</time>
      </trkpt>
      <trkpt lat="47.47601" lon="-0.55712">
        <ele>18</ele>
        <time>2011-09-01T15:21:08Z</time>
      </trkpt>
      <trkpt lat="47.47604" lon="-0.55711">
        <ele>18</ele>
        <time>2011-09-01T15:21:09Z</time>
      </trkpt>
      <trkpt lat="47.47606" lon="-0.55709">
        <ele>17</ele>
        <time>2011-09-01T15:21:10Z</time>
      </trkpt>
      <trkpt lat="47.47609" lon="-0.55708">
        <ele>17</ele>
        <time>2011-09-01T15:21:11Z</time>
      </trkpt>
      <trkpt lat="47.4761" lon="-0.55707">
        <ele>17</ele>
        <time>2011-09-01T15:21:12Z</time>
      </trkpt>
      <trkpt lat="47.47612" lon="-0.55706">
        <ele>17</ele>
        <time>2011-09-01T15:21:13Z</time>
      </trkpt>
      <trkpt lat="47.47615" lon="-0.55704">
        <ele>17</ele>
        <time>2011-09-01T15:21:14Z</time>
      </trkpt>
      <trkpt lat="47.47617" lon="-0.55702">
        <ele>17</ele>
        <time>2011-09-01T15:21:15Z</time>
      </trkpt>
      <trkpt lat="47.47619" lon="-0.55701">
        <ele>17</ele>
        <time>2011-09-01T15:21:16Z</time>
      </trkpt>
      <trkpt lat="47.47621" lon="-0.55699">
        <ele>17</ele>
        <time>2011-09-01T15:21:17Z</time>
      </trkpt>
      <trkpt lat="47.47623" lon="-0.55698">
        <ele>17</ele>
        <time>2011-09-01T15:21:18Z</time>
      </trkpt>
      <trkpt lat="47.47625" lon="-0.55696">
        <ele>17</ele>
        <time>2011-09-01T15:21:19Z</time>
      </trkpt>
      <trkpt lat="47.47628" lon="-0.55694">
        <ele>17</ele>
        <time>2011-09-01T15:21:20Z</time>
      </trkpt>
      <trkpt lat="47.4763" lon="-0.55693">
        <ele>17</ele>
        <time>2011-09-01T15:21:21Z</time>
      </trkpt>
      <trkpt lat="47.47632" lon="-0.55691">
        <ele>17</ele>
        <time>2011-09-01T15:21:22Z</time>
      </trkpt>
      <trkpt lat="47.47635" lon="-0.5569">
        <ele>17</ele>
        <time>2011-09-01T15:21:23Z</time>
      </trkpt>
      <trkpt lat="47.47637" lon="-0.55688">
        <ele>17</ele>
        <time>2011-09-01T15:21:24Z</time>
      </trkpt>
      <trkpt lat="47.47639" lon="-0.55686">
        <ele>17</ele>
        <time>2011-09-01T15:21:25Z</time>
      </trkpt>
      <trkpt lat="47.47642" lon="-0.55684">
        <ele>17</ele>
        <time>2011-09-01T15:21:26Z</time>
      </trkpt>
      <trkpt lat="47.47644" lon="-0.55682">
        <ele>17</ele>
        <time>2011-09-01T15:21:27Z</time>
      </trkpt>
      <trkpt lat="47.47646" lon="-0.55681">
        <ele>17</ele>
        <time>2011-09-01T15:21:28Z</time>
      </trkpt>
      <trkpt lat="47.47648" lon="-0.55679">
        <ele>17</ele>
        <time>2011-09-01T15:21:29Z</time>
      </trkpt>
      <trkpt lat="47.4765" lon="-0.55677">
        <ele>17</ele>
        <time>2011-09-01T15:21:31Z</time>
      </trkpt>
      <trkpt lat="47.47653" lon="-0.55676">
        <ele>17</ele>
        <time>2011-09-01T15:21:32Z</time>
      </trkpt>
      <trkpt lat="47.47655" lon="-0.55675">
        <ele>17</ele>
        <time>2011-09-01T15:21:33Z</time>
      </trkpt>
      <trkpt lat="47.47657" lon="-0.55674">
        <ele>17</ele>
        <time>2011-09-01T15:21:34Z</time>
      </trkpt>
      <trkpt lat="47.47659" lon="-0.55673">
        <ele>17</ele>
        <time>2011-09-01T15:21:35Z</time>
      </trkpt>
      <trkpt lat="47.47661" lon="-0.55671">
        <ele>17</ele>
        <time>2011-09-01T15:21:36Z</time>
      </trkpt>
      <trkpt lat="47.47664" lon="-0.55668">
        <ele>17</ele>
        <time>2011-09-01T15:21:37Z</time>
      </trkpt>
      <trkpt lat="47.47667" lon="-0.55667">
        <ele>17</ele>
        <time>2011-09-01T15:21:38Z</time>
      </trkpt>
      <trkpt lat="47.47669" lon="-0.55665">
        <ele>17</ele>
        <time>2011-09-01T15:21:39Z</time>
      </trkpt>
      <trkpt lat="47.47671" lon="-0.55663">
        <ele>17</ele>
        <time>2011-09-01T15:21:40Z</time>
      </trkpt>
      <trkpt lat="47.47673" lon="-0.55662">
        <ele>17</ele>
        <time>2011-09-01T15:21:41Z</time>
      </trkpt>
      <trkpt lat="47.47676" lon="-0.5566">
        <ele>17</ele>
        <time>2011-09-01T15:21:42Z</time>
      </trkpt>
      <trkpt lat="47.47678" lon="-0.55659">
        <ele>17</ele>
        <time>2011-09-01T15:21:43Z</time>
      </trkpt>
      <trkpt lat="47.4768" lon="-0.55658">
        <ele>17</ele>
        <time>2011-09-01T15:21:44Z</time>
      </trkpt>
      <trkpt lat="47.47682" lon="-0.55655">
        <ele>17</ele>
        <time>2011-09-01T15:21:45Z</time>
      </trkpt>
      <trkpt lat="47.47684" lon="-0.55654">
        <ele>17</ele>
        <time>2011-09-01T15:21:46Z</time>
      </trkpt>
      <trkpt lat="47.47686" lon="-0.55652">
        <ele>17</ele>
        <time>2011-09-01T15:21:47Z</time>
      </trkpt>
      <trkpt lat="47.47688" lon="-0.55651">
        <ele>17</ele>
        <time>2011-09-01T15:21:48Z</time>
      </trkpt>
      <trkpt lat="47.47691" lon="-0.5565">
        <ele>17</ele>
        <time>2011-09-01T15:21:49Z</time>
      </trkpt>
      <trkpt lat="47.47693" lon="-0.55648">
        <ele>17</ele>
        <time>2011-09-01T15:21:50Z</time>
      </trkpt>
      <trkpt lat="47.47695" lon="-0.55647">
        <ele>17</ele>
        <time>2011-09-01T15:21:51Z</time>
      </trkpt>
      <trkpt lat="47.47697" lon="-0.55646">
        <ele>17</ele>
        <time>2011-09-01T15:21:52Z</time>
      </trkpt>
      <trkpt lat="47.47699" lon="-0.55644">
        <ele>17</ele>
        <time>2011-09-01T15:21:53Z</time>
      </trkpt>
      <trkpt lat="47.47701" lon="-0.55642">
        <ele>17</ele>
        <time>2011-09-01T15:21:54Z</time>
      </trkpt>
      <trkpt lat="47.47704" lon="-0.5564">
        <ele>17</ele>
        <time>2011-09-01T15:21:55Z</time>
      </trkpt>
      <trkpt lat="47.47706" lon="-0.55638">
        <ele>17</ele>
        <time>2011-09-01T15:21:56Z</time>
      </trkpt>
      <trkpt lat="47.47709" lon="-0.55637">
        <ele>17</ele>
        <time>2011-09-01T15:21:57Z</time>
      </trkpt>
      <trkpt lat="47.47712" lon="-0.55636">
        <ele>17</ele>
        <time>2011-09-01T15:21:58Z</time>
      </trkpt>
      <trkpt lat="47.47713" lon="-0.55635">
        <ele>17</ele>
        <time>2011-09-01T15:21:59Z</time>
      </trkpt>
      <trkpt lat="47.47716" lon="-0.55634">
        <ele>17</ele>
        <time>2011-09-01T15:22:00Z</time>
      </trkpt>
      <trkpt lat="47.47717" lon="-0.55633">
        <ele>17</ele>
        <time>2011-09-01T15:22:01Z</time>
      </trkpt>
      <trkpt lat="47.47718" lon="-0.55632">
        <ele>17</ele>
        <time>2011-09-01T15:22:03Z</time>
      </trkpt>
      <trkpt lat="47.4772" lon="-0.55629">
        <ele>16</ele>
        <time>2011-09-01T15:22:05Z</time>
      </trkpt>
      <trkpt lat="47.47722" lon="-0.55628">
        <ele>16</ele>
        <time>2011-09-01T15:22:06Z</time>
      </trkpt>
      <trkpt lat="47.47724" lon="-0.55628">
        <ele>16</ele>
        <time>2011-09-01T15:22:07Z</time>
      </trkpt>
      <trkpt lat="47.47726" lon="-0.55626">
        <ele>16</ele>
        <time>2011-09-01T15:22:08Z</time>
      </trkpt>
      <trkpt lat="47.47728" lon="-0.55625">
        <ele>16</ele>
        <time>2011-09-01T15:22:09Z</time>
      </trkpt>
      <trkpt lat="47.47729" lon="-0.55624">
        <ele>16</ele>
        <time>2011-09-01T15:22:10Z</time>
      </trkpt>
      <trkpt lat="47.4773" lon="-0.55622">
        <ele>16</ele>
        <time>2011-09-01T15:22:11Z</time>
      </trkpt>
      <trkpt lat="47.47731" lon="-0.55621">
        <ele>16</ele>
        <time>2011-09-01T15:22:12Z</time>
      </trkpt>
      <trkpt lat="47.47733" lon="-0.5562">
        <ele>16</ele>
        <time>2011-09-01T15:22:13Z</time>
      </trkpt>
      <trkpt lat="47.47734" lon="-0.55619">
        <ele>16</ele>
        <time>2011-09-01T15:22:14Z</time>
      </trkpt>
      <trkpt lat="47.47736" lon="-0.55619">
        <ele>16</ele>
        <time>2011-09-01T15:22:15Z</time>
      </trkpt>
      <trkpt lat="47.47737" lon="-0.55619">
        <ele>16</ele>
        <time>2011-09-01T15:22:16Z</time>
      </trkpt>
      <trkpt lat="47.47739" lon="-0.55619">
        <ele>16</ele>
        <time>2011-09-01T15:22:17Z</time>
      </trkpt>
      <trkpt lat="47.47741" lon="-0.55619">
        <ele>16</ele>
        <time>2011-09-01T15:22:18Z</time>
      </trkpt>
      <trkpt lat="47.47743" lon="-0.55618">
        <ele>15</ele>
        <time>2011-09-01T15:22:19Z</time>
      </trkpt>
      <trkpt lat="47.47744" lon="-0.55617">
        <ele>15</ele>
        <time>2011-09-01T15:22:20Z</time>
      </trkpt>
      <trkpt lat="47.47746" lon="-0.55616">
        <ele>15</ele>
        <time>2011-09-01T15:22:22Z</time>
      </trkpt>
      <trkpt lat="47.47748" lon="-0.55616">
        <ele>15</ele>
        <time>2011-09-01T15:22:24Z</time>
      </trkpt>
      <trkpt lat="47.47749" lon="-0.55615">
        <ele>15</ele>
        <time>2011-09-01T15:22:25Z</time>
      </trkpt>
      <trkpt lat="47.4775" lon="-0.55615">
        <ele>15</ele>
        <time>2011-09-01T15:22:26Z</time>
      </trkpt>
      <trkpt lat="47.47752" lon="-0.55615">
        <ele>15</ele>
        <time>2011-09-01T15:22:28Z</time>
      </trkpt>
      <trkpt lat="47.47754" lon="-0.55615">
        <ele>15</ele>
        <time>2011-09-01T15:22:30Z</time>
      </trkpt>
      <trkpt lat="47.47755" lon="-0.55614">
        <ele>15</ele>
        <time>2011-09-01T15:22:31Z</time>
      </trkpt>
      <trkpt lat="47.47756" lon="-0.55614">
        <ele>15</ele>
        <time>2011-09-01T15:22:35Z</time>
      </trkpt>
      <trkpt lat="47.47757" lon="-0.55614">
        <ele>15</ele>
        <time>2011-09-01T15:22:37Z</time>
      </trkpt>
      <trkpt lat="47.47759" lon="-0.55614">
        <ele>15</ele>
        <time>2011-09-01T15:22:39Z</time>
      </trkpt>
      <trkpt lat="47.47761" lon="-0.55613">
        <ele>15</ele>
        <time>2011-09-01T15:22:41Z</time>
      </trkpt>
      <trkpt lat="47.47763" lon="-0.55612">
        <ele>15</ele>
        <time>2011-09-01T15:22:45Z</time>
      </trkpt>
      <trkpt lat="47.47764" lon="-0.55611">
        <ele>15</ele>
        <time>2011-09-01T15:22:47Z</time>
      </trkpt>
      <trkpt lat="47.47763" lon="-0.5561">
        <ele>14</ele>
        <time>2011-09-01T15:22:49Z</time>
      </trkpt>
      <trkpt lat="47.47761" lon="-0.5561">
        <ele>13</ele>
        <time>2011-09-01T15:22:51Z</time>
      </trkpt>
      <trkpt lat="47.47761" lon="-0.55612">
        <ele>10</ele>
        <time>2011-09-01T15:22:55Z</time>
      </trkpt>
      <trkpt lat="47.47761" lon="-0.55614">
        <ele>10</ele>
        <time>2011-09-01T15:22:56Z</time>
      </trkpt>
      <trkpt lat="47.4776" lon="-0.55616">
        <ele>9</ele>
        <time>2011-09-01T15:22:57Z</time>
      </trkpt>
      <trkpt lat="47.4776" lon="-0.55617">
        <ele>8</ele>
        <time>2011-09-01T15:22:58Z</time>
      </trkpt>
      <trkpt lat="47.47759" lon="-0.55619">
        <ele>7</ele>
        <time>2011-09-01T15:22:59Z</time>
      </trkpt>
      <trkpt lat="47.47757" lon="-0.5562">
        <ele>6</ele>
        <time>2011-09-01T15:23:00Z</time>
      </trkpt>
      <trkpt lat="47.47756" lon="-0.55621">
        <ele>5</ele>
        <time>2011-09-01T15:23:01Z</time>
      </trkpt>
      <trkpt lat="47.47754" lon="-0.55622">
        <ele>4</ele>
        <time>2011-09-01T15:23:02Z</time>
      </trkpt>
      <trkpt lat="47.47753" lon="-0.55624">
        <ele>3</ele>
        <time>2011-09-01T15:23:03Z</time>
      </trkpt>
      <trkpt lat="47.47752" lon="-0.55625">
        <ele>2</ele>
        <time>2011-09-01T15:23:04Z</time>
      </trkpt>
      <trkpt lat="47.4775" lon="-0.55625">
        <ele>1</ele>
        <time>2011-09-01T15:23:05Z</time>
      </trkpt>
      <trkpt lat="47.47749" lon="-0.55626">
        <ele>1</ele>
        <time>2011-09-01T15:23:06Z</time>
      </trkpt>
      <trkpt lat="47.47747" lon="-0.55628">
        <ele>20.4</ele>
        <time>2011-09-01T15:23:07Z</time>
      </trkpt>
      <trkpt lat="47.47744" lon="-0.55629">
        <ele>20.3</ele>
        <time>2011-09-01T15:23:08Z</time>
      </trkpt>
      <trkpt lat="47.47742" lon="-0.5563">
        <ele>20.3</ele>
        <time>2011-09-01T15:23:09Z</time>
      </trkpt>
      <trkpt lat="47.4774" lon="-0.55632">
        <ele>20.2</ele>
        <time>2011-09-01T15:23:10Z</time>
      </trkpt>
      <trkpt lat="47.47738" lon="-0.55633">
        <ele>20.2</ele>
        <time>2011-09-01T15:23:11Z</time>
      </trkpt>
      <trkpt lat="47.47736" lon="-0.55634">
        <ele>20.2</ele>
        <time>2011-09-01T15:23:12Z</time>
      </trkpt>
      <trkpt lat="47.47734" lon="-0.55635">
        <ele>20.1</ele>
        <time>2011-09-01T15:23:13Z</time>
      </trkpt>
      <trkpt lat="47.47733" lon="-0.55636">
        <ele>20.1</ele>
        <time>2011-09-01T15:23:14Z</time>
      </trkpt>
      <trkpt lat="47.4773" lon="-0.55637">
        <ele>20.2</ele>
        <time>2011-09-01T15:23:15Z</time>
      </trkpt>
      <trkpt lat="47.47728" lon="-0.55639">
        <ele>20.2</ele>
        <time>2011-09-01T15:23:16Z</time>
      </trkpt>
      <trkpt lat="47.47726" lon="-0.5564">
        <ele>20.2</ele>
        <time>2011-09-01T15:23:17Z</time>
      </trkpt>
      <trkpt lat="47.47724" lon="-0.55642">
        <ele>20.1</ele>
        <time>2011-09-01T15:23:18Z</time>
      </trkpt>
      <trkpt lat="47.47723" lon="-0.55642">
        <ele>20.1</ele>
        <time>2011-09-01T15:23:19Z</time>
      </trkpt>
      <trkpt lat="47.47721" lon="-0.55643">
        <ele>20.2</ele>
        <time>2011-09-01T15:23:20Z</time>
      </trkpt>
      <trkpt lat="47.4772" lon="-0.55645">
        <ele>20.2</ele>
        <time>2011-09-01T15:23:21Z</time>
      </trkpt>
      <trkpt lat="47.47717" lon="-0.55646">
        <ele>20.2</ele>
        <time>2011-09-01T15:23:22Z</time>
      </trkpt>
      <trkpt lat="47.47715" lon="-0.55647">
        <ele>20.2</ele>
        <time>2011-09-01T15:23:23Z</time>
      </trkpt>
      <trkpt lat="47.47712" lon="-0.55649">
        <ele>20.2</ele>
        <time>2011-09-01T15:23:24Z</time>
      </trkpt>
      <trkpt lat="47.4771" lon="-0.55651">
        <ele>20.2</ele>
        <time>2011-09-01T15:23:25Z</time>
      </trkpt>
      <trkpt lat="47.47709" lon="-0.55652">
        <ele>20.2</ele>
        <time>2011-09-01T15:23:26Z</time>
      </trkpt>
      <trkpt lat="47.47707" lon="-0.55654">
        <ele>20.2</ele>
        <time>2011-09-01T15:23:27Z</time>
      </trkpt>
      <trkpt lat="47.47706" lon="-0.55655">
        <ele>20.2</ele>
        <time>2011-09-01T15:23:29Z</time>
      </trkpt>
      <trkpt lat="47.47704" lon="-0.55656">
        <ele>20.2</ele>
        <time>2011-09-01T15:23:30Z</time>
      </trkpt>
      <trkpt lat="47.47703" lon="-0.55658">
        <ele>20.2</ele>
        <time>2011-09-01T15:23:31Z</time>
      </trkpt>
      <trkpt lat="47.47699" lon="-0.55659">
        <ele>20.1</ele>
        <time>2011-09-01T15:23:32Z</time>
      </trkpt>
      <trkpt lat="47.47696" lon="-0.55661">
        <ele>20</ele>
        <time>2011-09-01T15:23:33Z</time>
      </trkpt>
      <trkpt lat="47.47694" lon="-0.55662">
        <ele>20</ele>
        <time>2011-09-01T15:23:34Z</time>
      </trkpt>
      <trkpt lat="47.47692" lon="-0.55663">
        <ele>19.9</ele>
        <time>2011-09-01T15:23:35Z</time>
      </trkpt>
      <trkpt lat="47.47689" lon="-0.55665">
        <ele>19.9</ele>
        <time>2011-09-01T15:23:36Z</time>
      </trkpt>
      <trkpt lat="47.47686" lon="-0.55666">
        <ele>20</ele>
        <time>2011-09-01T15:23:37Z</time>
      </trkpt>
      <trkpt lat="47.47683" lon="-0.55669">
        <ele>20</ele>
        <time>2011-09-01T15:23:38Z</time>
      </trkpt>
      <trkpt lat="47.4768" lon="-0.5567">
        <ele>20.1</ele>
        <time>2011-09-01T15:23:39Z</time>
      </trkpt>
      <trkpt lat="47.47679" lon="-0.55671">
        <ele>20.1</ele>
        <time>2011-09-01T15:23:40Z</time>
      </trkpt>
      <trkpt lat="47.47677" lon="-0.55673">
        <ele>20.1</ele>
        <time>2011-09-01T15:23:41Z</time>
      </trkpt>
      <trkpt lat="47.47675" lon="-0.55674">
        <ele>20.1</ele>
        <time>2011-09-01T15:23:42Z</time>
      </trkpt>
      <trkpt lat="47.47673" lon="-0.55675">
        <ele>20.1</ele>
        <time>2011-09-01T15:23:43Z</time>
      </trkpt>
      <trkpt lat="47.47671" lon="-0.55677">
        <ele>20.1</ele>
        <time>2011-09-01T15:23:44Z</time>
      </trkpt>
      <trkpt lat="47.47669" lon="-0.55678">
        <ele>20</ele>
        <time>2011-09-01T15:23:45Z</time>
      </trkpt>
      <trkpt lat="47.47666" lon="-0.5568">
        <ele>1</ele>
        <time>2011-09-01T15:23:46Z</time>
      </trkpt>
      <trkpt lat="47.47664" lon="-0.55681">
        <ele>2</ele>
        <time>2011-09-01T15:23:47Z</time>
      </trkpt>
      <trkpt lat="47.47662" lon="-0.55682">
        <ele>3</ele>
        <time>2011-09-01T15:23:48Z</time>
      </trkpt>
      <trkpt lat="47.47659" lon="-0.55683">
        <ele>4</ele>
        <time>2011-09-01T15:23:49Z</time>
      </trkpt>
      <trkpt lat="47.47657" lon="-0.55685">
        <ele>5</ele>
        <time>2011-09-01T15:23:50Z</time>
      </trkpt>
      <trkpt lat="47.47655" lon="-0.55686">
        <ele>5</ele>
        <time>2011-09-01T15:23:51Z</time>
      </trkpt>
      <trkpt lat="47.47653" lon="-0.55687">
        <ele>6</ele>
        <time>2011-09-01T15:23:52Z</time>
      </trkpt>
      <trkpt lat="47.47652" lon="-0.55689">
        <ele>6</ele>
        <time>2011-09-01T15:23:53Z</time>
      </trkpt>
      <trkpt lat="47.4765" lon="-0.55691">
        <ele>6</ele>
        <time>2011-09-01T15:23:54Z</time>
      </trkpt>
      <trkpt lat="47.47648" lon="-0.55693">
        <ele>6</ele>
        <time>2011-09-01T15:23:55Z</time>
      </trkpt>
      <trkpt lat="47.47646" lon="-0.55695">
        <ele>6</ele>
        <time>2011-09-01T15:23:56Z</time>
      </trkpt>
      <trkpt lat="47.47644" lon="-0.55697">
        <ele>6</ele>
        <time>2011-09-01T15:23:57Z</time>
      </trkpt>
      <trkpt lat="47.47642" lon="-0.55698">
        <ele>6</ele>
        <time>2011-09-01T15:23:58Z</time>
      </trkpt>
      <trkpt lat="47.47641" lon="-0.55699">
        <ele>6</ele>
        <time>2011-09-01T15:23:59Z</time>
      </trkpt>
      <trkpt lat="47.47638" lon="-0.557">
        <ele>6</ele>
        <time>2011-09-01T15:24:00Z</time>
      </trkpt>
      <trkpt lat="47.47635" lon="-0.557">
        <ele>6</ele>
        <time>2011-09-01T15:24:01Z</time>
      </trkpt>
      <trkpt lat="47.47632" lon="-0.55699">
        <ele>6</ele>
        <time>2011-09-01T15:24:02Z</time>
      </trkpt>
      <trkpt lat="47.47628" lon="-0.55699">
        <ele>6</ele>
        <time>2011-09-01T15:24:03Z</time>
      </trkpt>
      <trkpt lat="47.47625" lon="-0.55698">
        <ele>6</ele>
        <time>2011-09-01T15:24:04Z</time>
      </trkpt>
      <trkpt lat="47.47623" lon="-0.55696">
        <ele>6</ele>
        <time>2011-09-01T15:24:05Z</time>
      </trkpt>
      <trkpt lat="47.47621" lon="-0.55695">
        <ele>6</ele>
        <time>2011-09-01T15:24:06Z</time>
      </trkpt>
      <trkpt lat="47.4762" lon="-0.55695">
        <ele>6</ele>
        <time>2011-09-01T15:24:07Z</time>
      </trkpt>
      <trkpt lat="47.47618" lon="-0.55694">
        <ele>6</ele>
        <time>2011-09-01T15:24:08Z</time>
      </trkpt>
      <trkpt lat="47.47617" lon="-0.55692">
        <ele>6</ele>
        <time>2011-09-01T15:24:09Z</time>
      </trkpt>
      <trkpt lat="47.47615" lon="-0.55692">
        <ele>6</ele>
        <time>2011-09-01T15:24:11Z</time>
      </trkpt>
      <trkpt lat="47.47614" lon="-0.55691">
        <ele>6</ele>
        <time>2011-09-01T15:24:17Z</time>
      </trkpt>
      <trkpt lat="47.47612" lon="-0.55692">
        <ele>6</ele>
        <time>2011-09-01T15:24:18Z</time>
      </trkpt>
      <trkpt lat="47.4761" lon="-0.55693">
        <ele>6</ele>
        <time>2011-09-01T15:24:20Z</time>
      </trkpt>
      <trkpt lat="47.47609" lon="-0.55695">
        <ele>6</ele>
        <time>2011-09-01T15:24:29Z</time>
      </trkpt>
      <trkpt lat="47.47608" lon="-0.55696">
        <ele>6</ele>
        <time>2011-09-01T15:24:36Z</time>
      </trkpt>
      <trkpt lat="47.47608" lon="-0.55697">
        <ele>6</ele>
        <time>2011-09-01T15:24:39Z</time>
      </trkpt>
      <trkpt lat="47.47609" lon="-0.55699">
        <ele>6</ele>
        <time>2011-09-01T15:24:42Z</time>
      </trkpt>
      <trkpt lat="47.47609" lon="-0.55701">
        <ele>6</ele>
        <time>2011-09-01T15:24:43Z</time>
      </trkpt>
      <trkpt lat="47.47609" lon="-0.55704">
        <ele>6</ele>
        <time>2011-09-01T15:24:44Z</time>
      </trkpt>
      <trkpt lat="47.47609" lon="-0.55705">
        <ele>6</ele>
        <time>2011-09-01T15:24:45Z</time>
      </trkpt>
      <trkpt lat="47.47609" lon="-0.55708">
        <ele>6</ele>
        <time>2011-09-01T15:24:46Z</time>
      </trkpt>
      <trkpt lat="47.47609" lon="-0.5571">
        <ele>6</ele>
        <time>2011-09-01T15:24:47Z</time>
      </trkpt>
      <trkpt lat="47.47609" lon="-0.55713">
        <ele>6</ele>
        <time>2011-09-01T15:24:48Z</time>
      </trkpt>
      <trkpt lat="47.47608" lon="-0.55715">
        <ele>6</ele>
        <time>2011-09-01T15:24:49Z</time>
      </trkpt>
      <trkpt lat="47.47607" lon="-0.55717">
        <ele>6</ele>
        <time>2011-09-01T15:24:50Z</time>
      </trkpt>
      <trkpt lat="47.47606" lon="-0.55719">
        <ele>6</ele>
        <time>2011-09-01T15:24:51Z</time>
      </trkpt>
      <trkpt lat="47.47604" lon="-0.55721">
        <ele>6</ele>
        <time>2011-09-01T15:24:52Z</time>
      </trkpt>
      <trkpt lat="47.47604" lon="-0.55723">
        <ele>6</ele>
        <time>2011-09-01T15:24:53Z</time>
      </trkpt>
      <trkpt lat="47.47602" lon="-0.55725">
        <ele>6</ele>
        <time>2011-09-01T15:24:54Z</time>
      </trkpt>
      <trkpt lat="47.47601" lon="-0.55727">
        <ele>6</ele>
        <time>2011-09-01T15:24:55Z</time>
      </trkpt>
      <trkpt lat="47.47599" lon="-0.55729">
        <ele>6</ele>
        <time>2011-09-01T15:24:56Z</time>
      </trkpt>
      <trkpt lat="47.47597" lon="-0.5573">
        <ele>6</ele>
        <time>2011-09-01T15:24:57Z</time>
      </trkpt>
      <trkpt lat="47.47594" lon="-0.55731">
        <ele>6</ele>
        <time>2011-09-01T15:24:58Z</time>
      </trkpt>
      <trkpt lat="47.4759" lon="-0.55732">
        <ele>6</ele>
        <time>2011-09-01T15:24:59Z</time>
      </trkpt>
      <trkpt lat="47.47586" lon="-0.55734">
        <ele>6</ele>
        <time>2011-09-01T15:25:00Z</time>
      </trkpt>
      <trkpt lat="47.47582" lon="-0.55735">
        <ele>6</ele>
        <time>2011-09-01T15:25:01Z</time>
      </trkpt>
      <trkpt lat="47.47578" lon="-0.55737">
        <ele>7</ele>
        <time>2011-09-01T15:25:02Z</time>
      </trkpt>
      <trkpt lat="47.47575" lon="-0.55738">
        <ele>7</ele>
        <time>2011-09-01T15:25:03Z</time>
      </trkpt>
      <trkpt lat="47.47573" lon="-0.5574">
        <ele>8</ele>
        <time>2011-09-01T15:25:04Z</time>
      </trkpt>
      <trkpt lat="47.47569" lon="-0.55742">
        <ele>9</ele>
        <time>2011-09-01T15:25:05Z</time>
      </trkpt>
      <trkpt lat="47.47565" lon="-0.55744">
        <ele>9</ele>
        <time>2011-09-01T15:25:06Z</time>
      </trkpt>
      <trkpt lat="47.47562" lon="-0.55747">
        <ele>9</ele>
        <time>2011-09-01T15:25:07Z</time>
      </trkpt>
      <trkpt lat="47.47558" lon="-0.55748">
        <ele>9</ele>
        <time>2011-09-01T15:25:08Z</time>
      </trkpt>
      <trkpt lat="47.47555" lon="-0.5575">
        <ele>9</ele>
        <time>2011-09-01T15:25:09Z</time>
      </trkpt>
      <trkpt lat="47.47552" lon="-0.55752">
        <ele>10</ele>
        <time>2011-09-01T15:25:10Z</time>
      </trkpt>
      <trkpt lat="47.47549" lon="-0.55754">
        <ele>10</ele>
        <time>2011-09-01T15:25:11Z</time>
      </trkpt>
      <trkpt lat="47.47545" lon="-0.55756">
        <ele>10</ele>
        <time>2011-09-01T15:25:12Z</time>
      </trkpt>
      <trkpt lat="47.47542" lon="-0.55759">
        <ele>10</ele>
        <time>2011-09-01T15:25:13Z</time>
      </trkpt>
      <trkpt lat="47.47539" lon="-0.55761">
        <ele>10</ele>
        <time>2011-09-01T15:25:14Z</time>
      </trkpt>
      <trkpt lat="47.47536" lon="-0.55763">
        <ele>10</ele>
        <time>2011-09-01T15:25:15Z</time>
      </trkpt>
      <trkpt lat="47.47532" lon="-0.55765">
        <ele>10</ele>
        <time>2011-09-01T15:25:16Z</time>
      </trkpt>
      <trkpt lat="47.47529" lon="-0.55768">
        <ele>11</ele>
        <time>2011-09-01T15:25:17Z</time>
      </trkpt>
      <trkpt lat="47.47525" lon="-0.5577">
        <ele>11</ele>
        <time>2011-09-01T15:25:18Z</time>
      </trkpt>
      <trkpt lat="47.47522" lon="-0.55773">
        <ele>12</ele>
        <time>2011-09-01T15:25:19Z</time>
      </trkpt>
      <trkpt lat="47.47518" lon="-0.55774">
        <ele>12</ele>
        <time>2011-09-01T15:25:20Z</time>
      </trkpt>
      <trkpt lat="47.47515" lon="-0.55776">
        <ele>13</ele>
        <time>2011-09-01T15:25:21Z</time>
      </trkpt>
      <trkpt lat="47.47512" lon="-0.55779">
        <ele>13</ele>
        <time>2011-09-01T15:25:22Z</time>
      </trkpt>
      <trkpt lat="47.47509" lon="-0.55782">
        <ele>13</ele>
        <time>2011-09-01T15:25:23Z</time>
      </trkpt>
      <trkpt lat="47.47506" lon="-0.55785">
        <ele>13</ele>
        <time>2011-09-01T15:25:24Z</time>
      </trkpt>
      <trkpt lat="47.47502" lon="-0.55787">
        <ele>13</ele>
        <time>2011-09-01T15:25:25Z</time>
      </trkpt>
      <trkpt lat="47.47499" lon="-0.55789">
        <ele>13</ele>
        <time>2011-09-01T15:25:26Z</time>
      </trkpt>
      <trkpt lat="47.47497" lon="-0.55791">
        <ele>13</ele>
        <time>2011-09-01T15:25:27Z</time>
      </trkpt>
      <trkpt lat="47.47494" lon="-0.55792">
        <ele>13</ele>
        <time>2011-09-01T15:25:28Z</time>
      </trkpt>
      <trkpt lat="47.47491" lon="-0.55795">
        <ele>13</ele>
        <time>2011-09-01T15:25:29Z</time>
      </trkpt>
      <trkpt lat="47.47488" lon="-0.55796">
        <ele>14</ele>
        <time>2011-09-01T15:25:30Z</time>
      </trkpt>
      <trkpt lat="47.47485" lon="-0.55798">
        <ele>14</ele>
        <time>2011-09-01T15:25:31Z</time>
      </trkpt>
      <trkpt lat="47.47483" lon="-0.558">
        <ele>14</ele>
        <time>2011-09-01T15:25:32Z</time>
      </trkpt>
      <trkpt lat="47.4748" lon="-0.55803">
        <ele>14</ele>
        <time>2011-09-01T15:25:33Z</time>
      </trkpt>
      <trkpt lat="47.47478" lon="-0.55804">
        <ele>14</ele>
        <time>2011-09-01T15:25:34Z</time>
      </trkpt>
      <trkpt lat="47.47476" lon="-0.55806">
        <ele>14</ele>
        <time>2011-09-01T15:25:35Z</time>
      </trkpt>
      <trkpt lat="47.47474" lon="-0.55807">
        <ele>14</ele>
        <time>2011-09-01T15:25:36Z</time>
      </trkpt>
      <trkpt lat="47.47472" lon="-0.55808">
        <ele>14</ele>
        <time>2011-09-01T15:25:37Z</time>
      </trkpt>
      <trkpt lat="47.47469" lon="-0.55809">
        <ele>14</ele>
        <time>2011-09-01T15:25:38Z</time>
      </trkpt>
      <trkpt lat="47.47467" lon="-0.55811">
        <ele>14</ele>
        <time>2011-09-01T15:25:39Z</time>
      </trkpt>
      <trkpt lat="47.47465" lon="-0.55813">
        <ele>14</ele>
        <time>2011-09-01T15:25:40Z</time>
      </trkpt>
      <trkpt lat="47.47463" lon="-0.55817">
        <ele>14</ele>
        <time>2011-09-01T15:25:41Z</time>
      </trkpt>
      <trkpt lat="47.47462" lon="-0.5582">
        <ele>14</ele>
        <time>2011-09-01T15:25:42Z</time>
      </trkpt>
      <trkpt lat="47.47461" lon="-0.55822">
        <ele>14</ele>
        <time>2011-09-01T15:25:43Z</time>
      </trkpt>
      <trkpt lat="47.4746" lon="-0.55826">
        <ele>14</ele>
        <time>2011-09-01T15:25:44Z</time>
      </trkpt>
      <trkpt lat="47.4746" lon="-0.55828">
        <ele>14</ele>
        <time>2011-09-01T15:25:45Z</time>
      </trkpt>
      <trkpt lat="47.4746" lon="-0.55831">
        <ele>14</ele>
        <time>2011-09-01T15:25:46Z</time>
      </trkpt>
      <trkpt lat="47.47461" lon="-0.55834">
        <ele>14</ele>
        <time>2011-09-01T15:25:47Z</time>
      </trkpt>
      <trkpt lat="47.47464" lon="-0.55839">
        <ele>14</ele>
        <time>2011-09-01T15:25:48Z</time>
      </trkpt>
      <trkpt lat="47.47464" lon="-0.55841">
        <ele>14</ele>
        <time>2011-09-01T15:25:49Z</time>
      </trkpt>
      <trkpt lat="47.47466" lon="-0.55844">
        <ele>14</ele>
        <time>2011-09-01T15:25:50Z</time>
      </trkpt>
      <trkpt lat="47.47467" lon="-0.55847">
        <ele>14</ele>
        <time>2011-09-01T15:25:51Z</time>
      </trkpt>
      <trkpt lat="47.47469" lon="-0.5585">
        <ele>14</ele>
        <time>2011-09-01T15:25:52Z</time>
      </trkpt>
      <trkpt lat="47.4747" lon="-0.55852">
        <ele>14</ele>
        <time>2011-09-01T15:25:53Z</time>
      </trkpt>
      <trkpt lat="47.47473" lon="-0.55855">
        <ele>14</ele>
        <time>2011-09-01T15:25:54Z</time>
      </trkpt>
      <trkpt lat="47.47475" lon="-0.55857">
        <ele>14</ele>
        <time>2011-09-01T15:25:55Z</time>
      </trkpt>
      <trkpt lat="47.47476" lon="-0.55861">
        <ele>14</ele>
        <time>2011-09-01T15:25:56Z</time>
      </trkpt>
      <trkpt lat="47.47477" lon="-0.55865">
        <ele>14</ele>
        <time>2011-09-01T15:25:57Z</time>
      </trkpt>
      <trkpt lat="47.47478" lon="-0.55869">
        <ele>14</ele>
        <time>2011-09-01T15:25:58Z</time>
      </trkpt>
      <trkpt lat="47.47478" lon="-0.55871">
        <ele>14</ele>
        <time>2011-09-01T15:25:59Z</time>
      </trkpt>
      <trkpt lat="47.47478" lon="-0.55874">
        <ele>14</ele>
        <time>2011-09-01T15:26:00Z</time>
      </trkpt>
      <trkpt lat="47.47478" lon="-0.55877">
        <ele>14</ele>
        <time>2011-09-01T15:26:01Z</time>
      </trkpt>
      <trkpt lat="47.47477" lon="-0.5588">
        <ele>14</ele>
        <time>2011-09-01T15:26:02Z</time>
      </trkpt>
      <trkpt lat="47.4748" lon="-0.55884">
        <ele>14</ele>
        <time>2011-09-01T15:26:03Z</time>
      </trkpt>
      <trkpt lat="47.47481" lon="-0.55887">
        <ele>15</ele>
        <time>2011-09-01T15:26:04Z</time>
      </trkpt>
      <trkpt lat="47.4748" lon="-0.5589">
        <ele>16</ele>
        <time>2011-09-01T15:26:05Z</time>
      </trkpt>
      <trkpt lat="47.47482" lon="-0.55893">
        <ele>17</ele>
        <time>2011-09-01T15:26:06Z</time>
      </trkpt>
      <trkpt lat="47.47483" lon="-0.55896">
        <ele>18</ele>
        <time>2011-09-01T15:26:07Z</time>
      </trkpt>
      <trkpt lat="47.47485" lon="-0.55899">
        <ele>19</ele>
        <time>2011-09-01T15:26:08Z</time>
      </trkpt>
      <trkpt lat="47.47487" lon="-0.55901">
        <ele>20</ele>
        <time>2011-09-01T15:26:09Z</time>
      </trkpt>
      <trkpt lat="47.4749" lon="-0.55903">
        <ele>21</ele>
        <time>2011-09-01T15:26:10Z</time>
      </trkpt>
      <trkpt lat="47.47492" lon="-0.55905">
        <ele>22</ele>
        <time>2011-09-01T15:26:11Z</time>
      </trkpt>
      <trkpt lat="47.47495" lon="-0.55907">
        <ele>23</ele>
        <time>2011-09-01T15:26:12Z</time>
      </trkpt>
      <trkpt lat="47.47498" lon="-0.55907">
        <ele>24</ele>
        <time>2011-09-01T15:26:13Z</time>
      </trkpt>
      <trkpt lat="47.47501" lon="-0.55908">
        <ele>25</ele>
        <time>2011-09-01T15:26:14Z</time>
      </trkpt>
      <trkpt lat="47.47504" lon="-0.55906">
        <ele>26</ele>
        <time>2011-09-01T15:26:15Z</time>
      </trkpt>
      <trkpt lat="47.47507" lon="-0.55905">
        <ele>26</ele>
        <time>2011-09-01T15:26:16Z</time>
      </trkpt>
      <trkpt lat="47.47509" lon="-0.55903">
        <ele>27</ele>
        <time>2011-09-01T15:26:17Z</time>
      </trkpt>
      <trkpt lat="47.47512" lon="-0.55901">
        <ele>27</ele>
        <time>2011-09-01T15:26:18Z</time>
      </trkpt>
      <trkpt lat="47.47514" lon="-0.55899">
        <ele>27</ele>
        <time>2011-09-01T15:26:19Z</time>
      </trkpt>
      <trkpt lat="47.47517" lon="-0.55897">
        <ele>27</ele>
        <time>2011-09-01T15:26:20Z</time>
      </trkpt>
      <trkpt lat="47.47519" lon="-0.55896">
        <ele>27</ele>
        <time>2011-09-01T15:26:21Z</time>
      </trkpt>
      <trkpt lat="47.47522" lon="-0.55893">
        <ele>27</ele>
        <time>2011-09-01T15:26:22Z</time>
      </trkpt>
      <trkpt lat="47.47525" lon="-0.55891">
        <ele>27</ele>
        <time>2011-09-01T15:26:23Z</time>
      </trkpt>
      <trkpt lat="47.47527" lon="-0.55889">
        <ele>27</ele>
        <time>2011-09-01T15:26:24Z</time>
      </trkpt>
      <trkpt lat="47.47529" lon="-0.55887">
        <ele>27</ele>
        <time>2011-09-01T15:26:25Z</time>
      </trkpt>
      <trkpt lat="47.47531" lon="-0.55884">
        <ele>27</ele>
        <time>2011-09-01T15:26:26Z</time>
      </trkpt>
      <trkpt lat="47.47533" lon="-0.55882">
        <ele>27</ele>
        <time>2011-09-01T15:26:27Z</time>
      </trkpt>
      <trkpt lat="47.47535" lon="-0.5588">
        <ele>28</ele>
        <time>2011-09-01T15:26:28Z</time>
      </trkpt>
      <trkpt lat="47.47536" lon="-0.55877">
        <ele>28</ele>
        <time>2011-09-01T15:26:29Z</time>
      </trkpt>
      <trkpt lat="47.47539" lon="-0.55874">
        <ele>28</ele>
        <time>2011-09-01T15:26:30Z</time>
      </trkpt>
      <trkpt lat="47.47541" lon="-0.55872">
        <ele>28</ele>
        <time>2011-09-01T15:26:31Z</time>
      </trkpt>
      <trkpt lat="47.47545" lon="-0.5587">
        <ele>28</ele>
        <time>2011-09-01T15:26:32Z</time>
      </trkpt>
      <trkpt lat="47.47548" lon="-0.55868">
        <ele>28</ele>
        <time>2011-09-01T15:26:33Z</time>
      </trkpt>
      <trkpt lat="47.47552" lon="-0.55865">
        <ele>28</ele>
        <time>2011-09-01T15:26:34Z</time>
      </trkpt>
      <trkpt lat="47.47556" lon="-0.55863">
        <ele>28</ele>
        <time>2011-09-01T15:26:35Z</time>
      </trkpt>
      <trkpt lat="47.4756" lon="-0.5586">
        <ele>28</ele>
        <time>2011-09-01T15:26:36Z</time>
      </trkpt>
      <trkpt lat="47.47563" lon="-0.55857">
        <ele>28</ele>
        <time>2011-09-01T15:26:37Z</time>
      </trkpt>
      <trkpt lat="47.47569" lon="-0.55853">
        <ele>28</ele>
        <time>2011-09-01T15:26:38Z</time>
      </trkpt>
      <trkpt lat="47.47575" lon="-0.55849">
        <ele>28</ele>
        <time>2011-09-01T15:26:39Z</time>
      </trkpt>
      <trkpt lat="47.47578" lon="-0.55847">
        <ele>28</ele>
        <time>2011-09-01T15:26:40Z</time>
      </trkpt>
      <trkpt lat="47.47583" lon="-0.55844">
        <ele>28</ele>
        <time>2011-09-01T15:26:41Z</time>
      </trkpt>
      <trkpt lat="47.47586" lon="-0.5584">
        <ele>28</ele>
        <time>2011-09-01T15:26:42Z</time>
      </trkpt>
      <trkpt lat="47.47589" lon="-0.55837">
        <ele>28</ele>
        <time>2011-09-01T15:26:43Z</time>
      </trkpt>
      <trkpt lat="47.47591" lon="-0.55835">
        <ele>28</ele>
        <time>2011-09-01T15:26:44Z</time>
      </trkpt>
      <trkpt lat="47.47595" lon="-0.55832">
        <ele>28</ele>
        <time>2011-09-01T15:26:45Z</time>
      </trkpt>
      <trkpt lat="47.47598" lon="-0.5583">
        <ele>28</ele>
        <time>2011-09-01T15:26:46Z</time>
      </trkpt>
      <trkpt lat="47.476" lon="-0.55828">
        <ele>29</ele>
        <time>2011-09-01T15:26:47Z</time>
      </trkpt>
      <trkpt lat="47.47602" lon="-0.55826">
        <ele>29</ele>
        <time>2011-09-01T15:26:48Z</time>
      </trkpt>
      <trkpt lat="47.47605" lon="-0.55823">
        <ele>29</ele>
        <time>2011-09-01T15:26:49Z</time>
      </trkpt>
      <trkpt lat="47.47607" lon="-0.55821">
        <ele>29</ele>
        <time>2011-09-01T15:26:50Z</time>
      </trkpt>
      <trkpt lat="47.4761" lon="-0.55819">
        <ele>29</ele>
        <time>2011-09-01T15:26:51Z</time>
      </trkpt>
      <trkpt lat="47.47611" lon="-0.55817">
        <ele>29</ele>
        <time>2011-09-01T15:26:52Z</time>
      </trkpt>
      <trkpt lat="47.47613" lon="-0.55816">
        <ele>29</ele>
        <time>2011-09-01T15:26:53Z</time>
      </trkpt>
      <trkpt lat="47.47615" lon="-0.55814">
        <ele>29</ele>
        <time>2011-09-01T15:26:54Z</time>
      </trkpt>
      <trkpt lat="47.47619" lon="-0.55812">
        <ele>29</ele>
        <time>2011-09-01T15:26:55Z</time>
      </trkpt>
      <trkpt lat="47.47622" lon="-0.55809">
        <ele>29</ele>
        <time>2011-09-01T15:26:56Z</time>
      </trkpt>
      <trkpt lat="47.47624" lon="-0.55806">
        <ele>29</ele>
        <time>2011-09-01T15:26:57Z</time>
      </trkpt>
      <trkpt lat="47.47628" lon="-0.55804">
        <ele>29</ele>
        <time>2011-09-01T15:26:58Z</time>
      </trkpt>
      <trkpt lat="47.47631" lon="-0.55801">
        <ele>29</ele>
        <time>2011-09-01T15:26:59Z</time>
      </trkpt>
      <trkpt lat="47.47634" lon="-0.55799">
        <ele>29</ele>
        <time>2011-09-01T15:27:00Z</time>
      </trkpt>
      <trkpt lat="47.47635" lon="-0.55796">
        <ele>29</ele>
        <time>2011-09-01T15:27:01Z</time>
      </trkpt>
      <trkpt lat="47.47637" lon="-0.55795">
        <ele>29</ele>
        <time>2011-09-01T15:27:02Z</time>
      </trkpt>
      <trkpt lat="47.4764" lon="-0.55792">
        <ele>29</ele>
        <time>2011-09-01T15:27:03Z</time>
      </trkpt>
      <trkpt lat="47.47644" lon="-0.5579">
        <ele>29</ele>
        <time>2011-09-01T15:27:04Z</time>
      </trkpt>
      <trkpt lat="47.47647" lon="-0.55787">
        <ele>29</ele>
        <time>2011-09-01T15:27:05Z</time>
      </trkpt>
      <trkpt lat="47.47651" lon="-0.55784">
        <ele>29</ele>
        <time>2011-09-01T15:27:06Z</time>
      </trkpt>
      <trkpt lat="47.47653" lon="-0.55782">
        <ele>29</ele>
        <time>2011-09-01T15:27:07Z</time>
      </trkpt>
      <trkpt lat="47.47658" lon="-0.55779">
        <ele>29</ele>
        <time>2011-09-01T15:27:08Z</time>
      </trkpt>
      <trkpt lat="47.47662" lon="-0.55776">
        <ele>29</ele>
        <time>2011-09-01T15:27:09Z</time>
      </trkpt>
      <trkpt lat="47.47666" lon="-0.55774">
        <ele>29</ele>
        <time>2011-09-01T15:27:10Z</time>
      </trkpt>
      <trkpt lat="47.4767" lon="-0.55771">
        <ele>29</ele>
        <time>2011-09-01T15:27:11Z</time>
      </trkpt>
      <trkpt lat="47.47673" lon="-0.55769">
        <ele>29</ele>
        <time>2011-09-01T15:27:12Z</time>
      </trkpt>
      <trkpt lat="47.47676" lon="-0.55766">
        <ele>29</ele>
        <time>2011-09-01T15:27:13Z</time>
      </trkpt>
      <trkpt lat="47.4768" lon="-0.55764">
        <ele>29</ele>
        <time>2011-09-01T15:27:14Z</time>
      </trkpt>
      <trkpt lat="47.47682" lon="-0.55762">
        <ele>29</ele>
        <time>2011-09-01T15:27:15Z</time>
      </trkpt>
      <trkpt lat="47.47685" lon="-0.5576">
        <ele>29</ele>
        <time>2011-09-01T15:27:16Z</time>
      </trkpt>
      <trkpt lat="47.47687" lon="-0.55758">
        <ele>29</ele>
        <time>2011-09-01T15:27:17Z</time>
      </trkpt>
      <trkpt lat="47.47689" lon="-0.55756">
        <ele>29</ele>
        <time>2011-09-01T15:27:18Z</time>
      </trkpt>
      <trkpt lat="47.47692" lon="-0.55754">
        <ele>29</ele>
        <time>2011-09-01T15:27:19Z</time>
      </trkpt>
      <trkpt lat="47.47696" lon="-0.55751">
        <ele>29</ele>
        <time>2011-09-01T15:27:20Z</time>
      </trkpt>
      <trkpt lat="47.477" lon="-0.55748">
        <ele>29</ele>
        <time>2011-09-01T15:27:21Z</time>
      </trkpt>
      <trkpt lat="47.47704" lon="-0.55746">
        <ele>29</ele>
        <time>2011-09-01T15:27:22Z</time>
      </trkpt>
      <trkpt lat="47.47706" lon="-0.55744">
        <ele>29</ele>
        <time>2011-09-01T15:27:23Z</time>
      </trkpt>
      <trkpt lat="47.47708" lon="-0.55742">
        <ele>29</ele>
        <time>2011-09-01T15:27:24Z</time>
      </trkpt>
      <trkpt lat="47.4771" lon="-0.5574">
        <ele>29</ele>
        <time>2011-09-01T15:27:25Z</time>
      </trkpt>
      <trkpt lat="47.47712" lon="-0.55738">
        <ele>29</ele>
        <time>2011-09-01T15:27:26Z</time>
      </trkpt>
      <trkpt lat="47.47715" lon="-0.55735">
        <ele>29</ele>
        <time>2011-09-01T15:27:27Z</time>
      </trkpt>
      <trkpt lat="47.47718" lon="-0.55732">
        <ele>29</ele>
        <time>2011-09-01T15:27:28Z</time>
      </trkpt>
      <trkpt lat="47.4772" lon="-0.5573">
        <ele>29</ele>
        <time>2011-09-01T15:27:29Z</time>
      </trkpt>
      <trkpt lat="47.47722" lon="-0.55727">
        <ele>29</ele>
        <time>2011-09-01T15:27:30Z</time>
      </trkpt>
      <trkpt lat="47.47724" lon="-0.55724">
        <ele>29</ele>
        <time>2011-09-01T15:27:31Z</time>
      </trkpt>
      <trkpt lat="47.47728" lon="-0.55722">
        <ele>29</ele>
        <time>2011-09-01T15:27:32Z</time>
      </trkpt>
      <trkpt lat="47.47731" lon="-0.5572">
        <ele>29</ele>
        <time>2011-09-01T15:27:33Z</time>
      </trkpt>
      <trkpt lat="47.47733" lon="-0.55717">
        <ele>29</ele>
        <time>2011-09-01T15:27:34Z</time>
      </trkpt>
      <trkpt lat="47.47735" lon="-0.55715">
        <ele>29</ele>
        <time>2011-09-01T15:27:35Z</time>
      </trkpt>
      <trkpt lat="47.47738" lon="-0.55713">
        <ele>29</ele>
        <time>2011-09-01T15:27:36Z</time>
      </trkpt>
      <trkpt lat="47.47741" lon="-0.55711">
        <ele>29</ele>
        <time>2011-09-01T15:27:37Z</time>
      </trkpt>
      <trkpt lat="47.47743" lon="-0.55709">
        <ele>29</ele>
        <time>2011-09-01T15:27:38Z</time>
      </trkpt>
      <trkpt lat="47.47746" lon="-0.55707">
        <ele>29</ele>
        <time>2011-09-01T15:27:39Z</time>
      </trkpt>
      <trkpt lat="47.47749" lon="-0.55705">
        <ele>29</ele>
        <time>2011-09-01T15:27:40Z</time>
      </trkpt>
      <trkpt lat="47.47753" lon="-0.55702">
        <ele>29</ele>
        <time>2011-09-01T15:27:41Z</time>
      </trkpt>
      <trkpt lat="47.47756" lon="-0.55699">
        <ele>29</ele>
        <time>2011-09-01T15:27:42Z</time>
      </trkpt>
      <trkpt lat="47.47759" lon="-0.55696">
        <ele>29</ele>
        <time>2011-09-01T15:27:43Z</time>
      </trkpt>
      <trkpt lat="47.47763" lon="-0.55694">
        <ele>29</ele>
        <time>2011-09-01T15:27:44Z</time>
      </trkpt>
      <trkpt lat="47.47767" lon="-0.5569">
        <ele>29</ele>
        <time>2011-09-01T15:27:45Z</time>
      </trkpt>
      <trkpt lat="47.4777" lon="-0.55688">
        <ele>29</ele>
        <time>2011-09-01T15:27:46Z</time>
      </trkpt>
      <trkpt lat="47.47773" lon="-0.55686">
        <ele>29</ele>
        <time>2011-09-01T15:27:47Z</time>
      </trkpt>
      <trkpt lat="47.47777" lon="-0.55683">
        <ele>29</ele>
        <time>2011-09-01T15:27:48Z</time>
      </trkpt>
      <trkpt lat="47.47779" lon="-0.55681">
        <ele>29</ele>
        <time>2011-09-01T15:27:49Z</time>
      </trkpt>
      <trkpt lat="47.47781" lon="-0.55678">
        <ele>29</ele>
        <time>2011-09-01T15:27:50Z</time>
      </trkpt>
      <trkpt lat="47.47783" lon="-0.55676">
        <ele>29</ele>
        <time>2011-09-01T15:27:51Z</time>
      </trkpt>
      <trkpt lat="47.47786" lon="-0.55673">
        <ele>29</ele>
        <time>2011-09-01T15:27:52Z</time>
      </trkpt>
      <trkpt lat="47.47789" lon="-0.55671">
        <ele>29</ele>
        <time>2011-09-01T15:27:53Z</time>
      </trkpt>
      <trkpt lat="47.47793" lon="-0.55668">
        <ele>29</ele>
        <time>2011-09-01T15:27:54Z</time>
      </trkpt>
      <trkpt lat="47.47796" lon="-0.55666">
        <ele>29</ele>
        <time>2011-09-01T15:27:55Z</time>
      </trkpt>
      <trkpt lat="47.47799" lon="-0.55664">
        <ele>29</ele>
        <time>2011-09-01T15:27:56Z</time>
      </trkpt>
      <trkpt lat="47.478" lon="-0.55661">
        <ele>29</ele>
        <time>2011-09-01T15:27:57Z</time>
      </trkpt>
      <trkpt lat="47.47802" lon="-0.55658">
        <ele>29</ele>
        <time>2011-09-01T15:27:58Z</time>
      </trkpt>
      <trkpt lat="47.47804" lon="-0.55656">
        <ele>29</ele>
        <time>2011-09-01T15:27:59Z</time>
      </trkpt>
      <trkpt lat="47.47806" lon="-0.55654">
        <ele>29</ele>
        <time>2011-09-01T15:28:00Z</time>
      </trkpt>
      <trkpt lat="47.47808" lon="-0.55652">
        <ele>29</ele>
        <time>2011-09-01T15:28:01Z</time>
      </trkpt>
      <trkpt lat="47.47809" lon="-0.5565">
        <ele>29</ele>
        <time>2011-09-01T15:28:02Z</time>
      </trkpt>
      <trkpt lat="47.4781" lon="-0.55648">
        <ele>29</ele>
        <time>2011-09-01T15:28:04Z</time>
      </trkpt>
      <trkpt lat="47.47812" lon="-0.55647">
        <ele>29</ele>
        <time>2011-09-01T15:28:06Z</time>
      </trkpt>
      <trkpt lat="47.47814" lon="-0.55647">
        <ele>29</ele>
        <time>2011-09-01T15:28:08Z</time>
      </trkpt>
      <trkpt lat="47.47816" lon="-0.55646">
        <ele>29</ele>
        <time>2011-09-01T15:28:09Z</time>
      </trkpt>
      <trkpt lat="47.47817" lon="-0.55646">
        <ele>29</ele>
        <time>2011-09-01T15:28:10Z</time>
      </trkpt>
      <trkpt lat="47.47821" lon="-0.55642">
        <ele>29</ele>
        <time>2011-09-01T15:28:12Z</time>
      </trkpt>
      <trkpt lat="47.47822" lon="-0.55641">
        <ele>29</ele>
        <time>2011-09-01T15:28:13Z</time>
      </trkpt>
      <trkpt lat="47.47824" lon="-0.55639">
        <ele>29</ele>
        <time>2011-09-01T15:28:14Z</time>
      </trkpt>
      <trkpt lat="47.47826" lon="-0.55637">
        <ele>29</ele>
        <time>2011-09-01T15:28:15Z</time>
      </trkpt>
      <trkpt lat="47.47828" lon="-0.55636">
        <ele>29</ele>
        <time>2011-09-01T15:28:16Z</time>
      </trkpt>
      <trkpt lat="47.47829" lon="-0.55634">
        <ele>29</ele>
        <time>2011-09-01T15:28:17Z</time>
      </trkpt>
      <trkpt lat="47.47831" lon="-0.55633">
        <ele>29</ele>
        <time>2011-09-01T15:28:18Z</time>
      </trkpt>
      <trkpt lat="47.47833" lon="-0.5563">
        <ele>29</ele>
        <time>2011-09-01T15:28:19Z</time>
      </trkpt>
      <trkpt lat="47.47834" lon="-0.55628">
        <ele>29</ele>
        <time>2011-09-01T15:28:20Z</time>
      </trkpt>
      <trkpt lat="47.47834" lon="-0.55625">
        <ele>29</ele>
        <time>2011-09-01T15:28:21Z</time>
      </trkpt>
      <trkpt lat="47.47835" lon="-0.55623">
        <ele>29</ele>
        <time>2011-09-01T15:28:22Z</time>
      </trkpt>
      <trkpt lat="47.47834" lon="-0.5562">
        <ele>29</ele>
        <time>2011-09-01T15:28:24Z</time>
      </trkpt>
      <trkpt lat="47.47833" lon="-0.55618">
        <ele>29</ele>
        <time>2011-09-01T15:28:25Z</time>
      </trkpt>
      <trkpt lat="47.47834" lon="-0.55616">
        <ele>29</ele>
        <time>2011-09-01T15:28:26Z</time>
      </trkpt>
      <trkpt lat="47.47833" lon="-0.55614">
        <ele>30</ele>
        <time>2011-09-01T15:28:27Z</time>
      </trkpt>
      <trkpt lat="47.47832" lon="-0.55612">
        <ele>30</ele>
        <time>2011-09-01T15:28:28Z</time>
      </trkpt>
      <trkpt lat="47.47831" lon="-0.55611">
        <ele>31</ele>
        <time>2011-09-01T15:28:29Z</time>
      </trkpt>
      <trkpt lat="47.47831" lon="-0.55609">
        <ele>31</ele>
        <time>2011-09-01T15:28:30Z</time>
      </trkpt>
      <trkpt lat="47.4783" lon="-0.55607">
        <ele>31</ele>
        <time>2011-09-01T15:28:31Z</time>
      </trkpt>
      <trkpt lat="47.47832" lon="-0.55604">
        <ele>31</ele>
        <time>2011-09-01T15:28:32Z</time>
      </trkpt>
      <trkpt lat="47.47832" lon="-0.55602">
        <ele>31</ele>
        <time>2011-09-01T15:28:33Z</time>
      </trkpt>
      <trkpt lat="47.47834" lon="-0.55599">
        <ele>31</ele>
        <time>2011-09-01T15:28:34Z</time>
      </trkpt>
      <trkpt lat="47.47834" lon="-0.55595">
        <ele>31</ele>
        <time>2011-09-01T15:28:35Z</time>
      </trkpt>
      <trkpt lat="47.4783" lon="-0.5559">
        <ele>30</ele>
        <time>2011-09-01T15:28:36Z</time>
      </trkpt>
      <trkpt lat="47.47829" lon="-0.55587">
        <ele>29</ele>
        <time>2011-09-01T15:28:37Z</time>
      </trkpt>
      <trkpt lat="47.47826" lon="-0.55584">
        <ele>28</ele>
        <time>2011-09-01T15:28:38Z</time>
      </trkpt>
      <trkpt lat="47.47825" lon="-0.55581">
        <ele>27</ele>
        <time>2011-09-01T15:28:39Z</time>
      </trkpt>
      <trkpt lat="47.47823" lon="-0.55578">
        <ele>26</ele>
        <time>2011-09-01T15:28:40Z</time>
      </trkpt>
      <trkpt lat="47.47823" lon="-0.55576">
        <ele>25</ele>
        <time>2011-09-01T15:28:41Z</time>
      </trkpt>
      <trkpt lat="47.47821" lon="-0.55572">
        <ele>25</ele>
        <time>2011-09-01T15:28:42Z</time>
      </trkpt>
      <trkpt lat="47.4782" lon="-0.5557">
        <ele>24</ele>
        <time>2011-09-01T15:28:43Z</time>
      </trkpt>
      <trkpt lat="47.47818" lon="-0.55567">
        <ele>23</ele>
        <time>2011-09-01T15:28:44Z</time>
      </trkpt>
      <trkpt lat="47.47817" lon="-0.55564">
        <ele>22</ele>
        <time>2011-09-01T15:28:45Z</time>
      </trkpt>
      <trkpt lat="47.47816" lon="-0.55562">
        <ele>22</ele>
        <time>2011-09-01T15:28:46Z</time>
      </trkpt>
      <trkpt lat="47.47815" lon="-0.5556">
        <ele>21</ele>
        <time>2011-09-01T15:28:47Z</time>
      </trkpt>
      <trkpt lat="47.47814" lon="-0.55556">
        <ele>21</ele>
        <time>2011-09-01T15:28:48Z</time>
      </trkpt>
      <trkpt lat="47.47815" lon="-0.55554">
        <ele>21</ele>
        <time>2011-09-01T15:28:49Z</time>
      </trkpt>
      <trkpt lat="47.47814" lon="-0.55551">
        <ele>20</ele>
        <time>2011-09-01T15:28:50Z</time>
      </trkpt>
      <trkpt lat="47.47814" lon="-0.55549">
        <ele>20</ele>
        <time>2011-09-01T15:28:51Z</time>
      </trkpt>
      <trkpt lat="47.47814" lon="-0.55546">
        <ele>20</ele>
        <time>2011-09-01T15:28:52Z</time>
      </trkpt>
      <trkpt lat="47.47814" lon="-0.55543">
        <ele>20</ele>
        <time>2011-09-01T15:28:53Z</time>
      </trkpt>
      <trkpt lat="47.47813" lon="-0.5554">
        <ele>19</ele>
        <time>2011-09-01T15:28:54Z</time>
      </trkpt>
      <trkpt lat="47.47812" lon="-0.55537">
        <ele>19</ele>
        <time>2011-09-01T15:28:55Z</time>
      </trkpt>
      <trkpt lat="47.47811" lon="-0.55535">
        <ele>18</ele>
        <time>2011-09-01T15:28:56Z</time>
      </trkpt>
      <trkpt lat="47.4781" lon="-0.55532">
        <ele>18</ele>
        <time>2011-09-01T15:28:57Z</time>
      </trkpt>
      <trkpt lat="47.47809" lon="-0.55529">
        <ele>18</ele>
        <time>2011-09-01T15:28:58Z</time>
      </trkpt>
      <trkpt lat="47.47808" lon="-0.55526">
        <ele>18</ele>
        <time>2011-09-01T15:28:59Z</time>
      </trkpt>
      <trkpt lat="47.47806" lon="-0.55523">
        <ele>18</ele>
        <time>2011-09-01T15:29:00Z</time>
      </trkpt>
      <trkpt lat="47.47805" lon="-0.5552">
        <ele>18</ele>
        <time>2011-09-01T15:29:01Z</time>
      </trkpt>
      <trkpt lat="47.47803" lon="-0.55517">
        <ele>18</ele>
        <time>2011-09-01T15:29:02Z</time>
      </trkpt>
      <trkpt lat="47.47802" lon="-0.55514">
        <ele>18</ele>
        <time>2011-09-01T15:29:03Z</time>
      </trkpt>
      <trkpt lat="47.47801" lon="-0.55511">
        <ele>18</ele>
        <time>2011-09-01T15:29:04Z</time>
      </trkpt>
      <trkpt lat="47.478" lon="-0.55508">
        <ele>18</ele>
        <time>2011-09-01T15:29:05Z</time>
      </trkpt>
      <trkpt lat="47.47798" lon="-0.55505">
        <ele>18</ele>
        <time>2011-09-01T15:29:06Z</time>
      </trkpt>
      <trkpt lat="47.47797" lon="-0.55502">
        <ele>18</ele>
        <time>2011-09-01T15:29:07Z</time>
      </trkpt>
      <trkpt lat="47.47795" lon="-0.55499">
        <ele>18</ele>
        <time>2011-09-01T15:29:08Z</time>
      </trkpt>
      <trkpt lat="47.47794" lon="-0.55496">
        <ele>18</ele>
        <time>2011-09-01T15:29:09Z</time>
      </trkpt>
      <trkpt lat="47.47792" lon="-0.55493">
        <ele>18</ele>
        <time>2011-09-01T15:29:10Z</time>
      </trkpt>
      <trkpt lat="47.47791" lon="-0.55489">
        <ele>18</ele>
        <time>2011-09-01T15:29:11Z</time>
      </trkpt>
      <trkpt lat="47.47789" lon="-0.55485">
        <ele>18</ele>
        <time>2011-09-01T15:29:12Z</time>
      </trkpt>
      <trkpt lat="47.47789" lon="-0.55482">
        <ele>18</ele>
        <time>2011-09-01T15:29:13Z</time>
      </trkpt>
      <trkpt lat="47.47787" lon="-0.55479">
        <ele>18</ele>
        <time>2011-09-01T15:29:14Z</time>
      </trkpt>
      <trkpt lat="47.47786" lon="-0.55476">
        <ele>18</ele>
        <time>2011-09-01T15:29:15Z</time>
      </trkpt>
      <trkpt lat="47.47784" lon="-0.55472">
        <ele>18</ele>
        <time>2011-09-01T15:29:16Z</time>
      </trkpt>
      <trkpt lat="47.47783" lon="-0.55469">
        <ele>18</ele>
        <time>2011-09-01T15:29:17Z</time>
      </trkpt>
      <trkpt lat="47.47781" lon="-0.55465">
        <ele>18</ele>
        <time>2011-09-01T15:29:18Z</time>
      </trkpt>
      <trkpt lat="47.47779" lon="-0.55461">
        <ele>18</ele>
        <time>2011-09-01T15:29:19Z</time>
      </trkpt>
      <trkpt lat="47.47777" lon="-0.55457">
        <ele>18</ele>
        <time>2011-09-01T15:29:20Z</time>
      </trkpt>
      <trkpt lat="47.47776" lon="-0.55453">
        <ele>18</ele>
        <time>2011-09-01T15:29:21Z</time>
      </trkpt>
      <trkpt lat="47.47774" lon="-0.5545">
        <ele>18</ele>
        <time>2011-09-01T15:29:22Z</time>
      </trkpt>
      <trkpt lat="47.47772" lon="-0.55446">
        <ele>18</ele>
        <time>2011-09-01T15:29:23Z</time>
      </trkpt>
      <trkpt lat="47.47771" lon="-0.55443">
        <ele>18</ele>
        <time>2011-09-01T15:29:24Z</time>
      </trkpt>
      <trkpt lat="47.47769" lon="-0.55439">
        <ele>18</ele>
        <time>2011-09-01T15:29:25Z</time>
      </trkpt>
      <trkpt lat="47.47768" lon="-0.55436">
        <ele>18</ele>
        <time>2011-09-01T15:29:26Z</time>
      </trkpt>
      <trkpt lat="47.47766" lon="-0.55432">
        <ele>18</ele>
        <time>2011-09-01T15:29:27Z</time>
      </trkpt>
      <trkpt lat="47.47765" lon="-0.55429">
        <ele>18</ele>
        <time>2011-09-01T15:29:28Z</time>
      </trkpt>
      <trkpt lat="47.47763" lon="-0.55425">
        <ele>18</ele>
        <time>2011-09-01T15:29:29Z</time>
      </trkpt>
      <trkpt lat="47.47762" lon="-0.55422">
        <ele>18</ele>
        <time>2011-09-01T15:29:30Z</time>
      </trkpt>
      <trkpt lat="47.4776" lon="-0.55418">
        <ele>18</ele>
        <time>2011-09-01T15:29:31Z</time>
      </trkpt>
      <trkpt lat="47.47758" lon="-0.55414">
        <ele>18</ele>
        <time>2011-09-01T15:29:32Z</time>
      </trkpt>
      <trkpt lat="47.47757" lon="-0.5541">
        <ele>19</ele>
        <time>2011-09-01T15:29:33Z</time>
      </trkpt>
      <trkpt lat="47.47755" lon="-0.55406">
        <ele>19</ele>
        <time>2011-09-01T15:29:34Z</time>
      </trkpt>
      <trkpt lat="47.47753" lon="-0.55402">
        <ele>19</ele>
        <time>2011-09-01T15:29:35Z</time>
      </trkpt>
      <trkpt lat="47.47751" lon="-0.55399">
        <ele>19</ele>
        <time>2011-09-01T15:29:36Z</time>
      </trkpt>
      <trkpt lat="47.47749" lon="-0.55396">
        <ele>19</ele>
        <time>2011-09-01T15:29:37Z</time>
      </trkpt>
      <trkpt lat="47.47746" lon="-0.55394">
        <ele>19</ele>
        <time>2011-09-01T15:29:38Z</time>
      </trkpt>
      <trkpt lat="47.47744" lon="-0.55392">
        <ele>19</ele>
        <time>2011-09-01T15:29:39Z</time>
      </trkpt>
      <trkpt lat="47.47742" lon="-0.55391">
        <ele>19</ele>
        <time>2011-09-01T15:29:40Z</time>
      </trkpt>
      <trkpt lat="47.47741" lon="-0.5539">
        <ele>19</ele>
        <time>2011-09-01T15:29:41Z</time>
      </trkpt>
      <trkpt lat="47.4774" lon="-0.55388">
        <ele>19</ele>
        <time>2011-09-01T15:29:53Z</time>
      </trkpt>
      <trkpt lat="47.47739" lon="-0.55386">
        <ele>19</ele>
        <time>2011-09-01T15:30:00Z</time>
      </trkpt>
      <trkpt lat="47.47741" lon="-0.55385">
        <ele>20</ele>
        <time>2011-09-01T15:30:06Z</time>
      </trkpt>
      <trkpt lat="47.47742" lon="-0.55385">
        <ele>20</ele>
        <time>2011-09-01T15:30:09Z</time>
      </trkpt>
      <trkpt lat="47.47742" lon="-0.55384">
        <ele>21</ele>
        <time>2011-09-01T15:30:18Z</time>
      </trkpt>
      <trkpt lat="47.47741" lon="-0.55382">
        <ele>21</ele>
        <time>2011-09-01T15:30:20Z</time>
      </trkpt>
      <trkpt lat="47.4774" lon="-0.55379">
        <ele>21</ele>
        <time>2011-09-01T15:30:22Z</time>
      </trkpt>
      <trkpt lat="47.47739" lon="-0.55377">
        <ele>21</ele>
        <time>2011-09-01T15:30:23Z</time>
      </trkpt>
      <trkpt lat="47.47738" lon="-0.55374">
        <ele>21</ele>
        <time>2011-09-01T15:30:24Z</time>
      </trkpt>
      <trkpt lat="47.47738" lon="-0.55371">
        <ele>21</ele>
        <time>2011-09-01T15:30:25Z</time>
      </trkpt>
      <trkpt lat="47.47738" lon="-0.55368">
        <ele>21</ele>
        <time>2011-09-01T15:30:26Z</time>
      </trkpt>
      <trkpt lat="47.47737" lon="-0.55365">
        <ele>21</ele>
        <time>2011-09-01T15:30:27Z</time>
      </trkpt>
      <trkpt lat="47.47736" lon="-0.55361">
        <ele>21</ele>
        <time>2011-09-01T15:30:28Z</time>
      </trkpt>
      <trkpt lat="47.47734" lon="-0.55358">
        <ele>21</ele>
        <time>2011-09-01T15:30:29Z</time>
      </trkpt>
      <trkpt lat="47.47733" lon="-0.55355">
        <ele>21</ele>
        <time>2011-09-01T15:30:30Z</time>
      </trkpt>
      <trkpt lat="47.47731" lon="-0.55352">
        <ele>21</ele>
        <time>2011-09-01T15:30:31Z</time>
      </trkpt>
      <trkpt lat="47.47729" lon="-0.5535">
        <ele>21</ele>
        <time>2011-09-01T15:30:32Z</time>
      </trkpt>
      <trkpt lat="47.47728" lon="-0.55348">
        <ele>21</ele>
        <time>2011-09-01T15:30:33Z</time>
      </trkpt>
      <trkpt lat="47.47726" lon="-0.55347">
        <ele>21</ele>
        <time>2011-09-01T15:30:35Z</time>
      </trkpt>
      <trkpt lat="47.47727" lon="-0.55346">
        <ele>21</ele>
        <time>2011-09-01T15:30:44Z</time>
      </trkpt>
      <trkpt lat="47.47728" lon="-0.55346">
        <ele>20</ele>
        <time>2011-09-01T15:30:46Z</time>
      </trkpt>
      <trkpt lat="47.47726" lon="-0.55348">
        <ele>18</ele>
        <time>2011-09-01T15:30:51Z</time>
      </trkpt>
      <trkpt lat="47.47724" lon="-0.55348">
        <ele>18</ele>
        <time>2011-09-01T15:30:52Z</time>
      </trkpt>
      <trkpt lat="47.47723" lon="-0.55347">
        <ele>18</ele>
        <time>2011-09-01T15:30:54Z</time>
      </trkpt>
      <trkpt lat="47.47721" lon="-0.55346">
        <ele>18</ele>
        <time>2011-09-01T15:30:55Z</time>
      </trkpt>
      <trkpt lat="47.47719" lon="-0.55344">
        <ele>18</ele>
        <time>2011-09-01T15:30:56Z</time>
      </trkpt>
      <trkpt lat="47.47717" lon="-0.5534">
        <ele>18</ele>
        <time>2011-09-01T15:30:57Z</time>
      </trkpt>
      <trkpt lat="47.47716" lon="-0.55336">
        <ele>18</ele>
        <time>2011-09-01T15:30:58Z</time>
      </trkpt>
      <trkpt lat="47.47713" lon="-0.55333">
        <ele>18</ele>
        <time>2011-09-01T15:30:59Z</time>
      </trkpt>
      <trkpt lat="47.47712" lon="-0.55328">
        <ele>18</ele>
        <time>2011-09-01T15:31:00Z</time>
      </trkpt>
      <trkpt lat="47.4771" lon="-0.55325">
        <ele>18</ele>
        <time>2011-09-01T15:31:01Z</time>
      </trkpt>
      <trkpt lat="47.47708" lon="-0.55321">
        <ele>18</ele>
        <time>2011-09-01T15:31:02Z</time>
      </trkpt>
      <trkpt lat="47.47707" lon="-0.55317">
        <ele>18</ele>
        <time>2011-09-01T15:31:03Z</time>
      </trkpt>
      <trkpt lat="47.47705" lon="-0.55313">
        <ele>18</ele>
        <time>2011-09-01T15:31:04Z</time>
      </trkpt>
      <trkpt lat="47.47703" lon="-0.55309">
        <ele>18</ele>
        <time>2011-09-01T15:31:05Z</time>
      </trkpt>
      <trkpt lat="47.47702" lon="-0.55305">
        <ele>18</ele>
        <time>2011-09-01T15:31:06Z</time>
      </trkpt>
      <trkpt lat="47.47699" lon="-0.55301">
        <ele>18</ele>
        <time>2011-09-01T15:31:07Z</time>
      </trkpt>
      <trkpt lat="47.47697" lon="-0.55296">
        <ele>19</ele>
        <time>2011-09-01T15:31:08Z</time>
      </trkpt>
      <trkpt lat="47.47694" lon="-0.55291">
        <ele>20</ele>
        <time>2011-09-01T15:31:09Z</time>
      </trkpt>
      <trkpt lat="47.47693" lon="-0.55286">
        <ele>21</ele>
        <time>2011-09-01T15:31:10Z</time>
      </trkpt>
      <trkpt lat="47.47691" lon="-0.55281">
        <ele>21</ele>
        <time>2011-09-01T15:31:11Z</time>
      </trkpt>
      <trkpt lat="47.47688" lon="-0.55277">
        <ele>22</ele>
        <time>2011-09-01T15:31:12Z</time>
      </trkpt>
      <trkpt lat="47.47686" lon="-0.55271">
        <ele>22</ele>
        <time>2011-09-01T15:31:13Z</time>
      </trkpt>
      <trkpt lat="47.47684" lon="-0.55266">
        <ele>22</ele>
        <time>2011-09-01T15:31:14Z</time>
      </trkpt>
      <trkpt lat="47.47681" lon="-0.55261">
        <ele>22</ele>
        <time>2011-09-01T15:31:15Z</time>
      </trkpt>
      <trkpt lat="47.47679" lon="-0.55256">
        <ele>22</ele>
        <time>2011-09-01T15:31:16Z</time>
      </trkpt>
      <trkpt lat="47.47678" lon="-0.5525">
        <ele>22</ele>
        <time>2011-09-01T15:31:17Z</time>
      </trkpt>
      <trkpt lat="47.47675" lon="-0.55244">
        <ele>22</ele>
        <time>2011-09-01T15:31:18Z</time>
      </trkpt>
      <trkpt lat="47.47672" lon="-0.55239">
        <ele>22</ele>
        <time>2011-09-01T15:31:19Z</time>
      </trkpt>
      <trkpt lat="47.47668" lon="-0.55234">
        <ele>22</ele>
        <time>2011-09-01T15:31:20Z</time>
      </trkpt>
      <trkpt lat="47.47667" lon="-0.55228">
        <ele>22</ele>
        <time>2011-09-01T15:31:21Z</time>
      </trkpt>
      <trkpt lat="47.47665" lon="-0.55223">
        <ele>22</ele>
        <time>2011-09-01T15:31:22Z</time>
      </trkpt>
      <trkpt lat="47.4766" lon="-0.55217">
        <ele>22</ele>
        <time>2011-09-01T15:31:23Z</time>
      </trkpt>
      <trkpt lat="47.47658" lon="-0.55212">
        <ele>22</ele>
        <time>2011-09-01T15:31:24Z</time>
      </trkpt>
      <trkpt lat="47.47656" lon="-0.55208">
        <ele>22</ele>
        <time>2011-09-01T15:31:25Z</time>
      </trkpt>
      <trkpt lat="47.47655" lon="-0.55204">
        <ele>22</ele>
        <time>2011-09-01T15:31:26Z</time>
      </trkpt>
      <trkpt lat="47.47654" lon="-0.55202">
        <ele>22</ele>
        <time>2011-09-01T15:31:27Z</time>
      </trkpt>
      <trkpt lat="47.47653" lon="-0.55199">
        <ele>22</ele>
        <time>2011-09-01T15:31:28Z</time>
      </trkpt>
      <trkpt lat="47.47653" lon="-0.55196">
        <ele>22</ele>
        <time>2011-09-01T15:31:29Z</time>
      </trkpt>
      <trkpt lat="47.47654" lon="-0.55194">
        <ele>22</ele>
        <time>2011-09-01T15:31:30Z</time>
      </trkpt>
      <trkpt lat="47.47654" lon="-0.55193">
        <ele>22</ele>
        <time>2011-09-01T15:31:32Z</time>
      </trkpt>
      <trkpt lat="47.47655" lon="-0.55191">
        <ele>21</ele>
        <time>2011-09-01T15:31:33Z</time>
      </trkpt>
      <trkpt lat="47.47657" lon="-0.5519">
        <ele>20</ele>
        <time>2011-09-01T15:31:35Z</time>
      </trkpt>
      <trkpt lat="47.47658" lon="-0.55188">
        <ele>18</ele>
        <time>2011-09-01T15:31:37Z</time>
      </trkpt>
      <trkpt lat="47.47657" lon="-0.55186">
        <ele>18</ele>
        <time>2011-09-01T15:31:40Z</time>
      </trkpt>
      <trkpt lat="47.47656" lon="-0.55184">
        <ele>18</ele>
        <time>2011-09-01T15:31:41Z</time>
      </trkpt>
      <trkpt lat="47.47655" lon="-0.55181">
        <ele>18</ele>
        <time>2011-09-01T15:31:42Z</time>
      </trkpt>
      <trkpt lat="47.47654" lon="-0.55179">
        <ele>18</ele>
        <time>2011-09-01T15:31:43Z</time>
      </trkpt>
      <trkpt lat="47.47652" lon="-0.55175">
        <ele>18</ele>
        <time>2011-09-01T15:31:44Z</time>
      </trkpt>
      <trkpt lat="47.4765" lon="-0.55172">
        <ele>18</ele>
        <time>2011-09-01T15:31:45Z</time>
      </trkpt>
      <trkpt lat="47.47649" lon="-0.5517">
        <ele>18</ele>
        <time>2011-09-01T15:31:46Z</time>
      </trkpt>
      <trkpt lat="47.47647" lon="-0.55166">
        <ele>18</ele>
        <time>2011-09-01T15:31:47Z</time>
      </trkpt>
      <trkpt lat="47.47645" lon="-0.55163">
        <ele>18</ele>
        <time>2011-09-01T15:31:48Z</time>
      </trkpt>
      <trkpt lat="47.47643" lon="-0.55159">
        <ele>18</ele>
        <time>2011-09-01T15:31:49Z</time>
      </trkpt>
      <trkpt lat="47.47642" lon="-0.55156">
        <ele>18</ele>
        <time>2011-09-01T15:31:50Z</time>
      </trkpt>
      <trkpt lat="47.4764" lon="-0.55153">
        <ele>18</ele>
        <time>2011-09-01T15:31:51Z</time>
      </trkpt>
      <trkpt lat="47.47638" lon="-0.55149">
        <ele>18</ele>
        <time>2011-09-01T15:31:52Z</time>
      </trkpt>
      <trkpt lat="47.47635" lon="-0.55146">
        <ele>18</ele>
        <time>2011-09-01T15:31:53Z</time>
      </trkpt>
      <trkpt lat="47.47632" lon="-0.55142">
        <ele>18</ele>
        <time>2011-09-01T15:31:54Z</time>
      </trkpt>
      <trkpt lat="47.4763" lon="-0.55137">
        <ele>18</ele>
        <time>2011-09-01T15:31:55Z</time>
      </trkpt>
      <trkpt lat="47.47629" lon="-0.55133">
        <ele>19</ele>
        <time>2011-09-01T15:31:56Z</time>
      </trkpt>
      <trkpt lat="47.47627" lon="-0.55127">
        <ele>19</ele>
        <time>2011-09-01T15:31:57Z</time>
      </trkpt>
      <trkpt lat="47.47626" lon="-0.55122">
        <ele>19</ele>
        <time>2011-09-01T15:31:58Z</time>
      </trkpt>
      <trkpt lat="47.47624" lon="-0.55117">
        <ele>19</ele>
        <time>2011-09-01T15:31:59Z</time>
      </trkpt>
      <trkpt lat="47.47622" lon="-0.55112">
        <ele>19</ele>
        <time>2011-09-01T15:32:00Z</time>
      </trkpt>
      <trkpt lat="47.47619" lon="-0.55108">
        <ele>19</ele>
        <time>2011-09-01T15:32:01Z</time>
      </trkpt>
      <trkpt lat="47.47617" lon="-0.55104">
        <ele>19</ele>
        <time>2011-09-01T15:32:02Z</time>
      </trkpt>
      <trkpt lat="47.47614" lon="-0.551">
        <ele>19</ele>
        <time>2011-09-01T15:32:03Z</time>
      </trkpt>
      <trkpt lat="47.47612" lon="-0.55096">
        <ele>19</ele>
        <time>2011-09-01T15:32:04Z</time>
      </trkpt>
      <trkpt lat="47.4761" lon="-0.55091">
        <ele>20</ele>
        <time>2011-09-01T15:32:05Z</time>
      </trkpt>
      <trkpt lat="47.47609" lon="-0.55086">
        <ele>20</ele>
        <time>2011-09-01T15:32:06Z</time>
      </trkpt>
      <trkpt lat="47.47608" lon="-0.55082">
        <ele>20</ele>
        <time>2011-09-01T15:32:07Z</time>
      </trkpt>
      <trkpt lat="47.47606" lon="-0.55077">
        <ele>20</ele>
        <time>2011-09-01T15:32:08Z</time>
      </trkpt>
      <trkpt lat="47.47604" lon="-0.55074">
        <ele>20</ele>
        <time>2011-09-01T15:32:09Z</time>
      </trkpt>
      <trkpt lat="47.47601" lon="-0.5507">
        <ele>20</ele>
        <time>2011-09-01T15:32:10Z</time>
      </trkpt>
      <trkpt lat="47.47599" lon="-0.55066">
        <ele>20</ele>
        <time>2011-09-01T15:32:11Z</time>
      </trkpt>
      <trkpt lat="47.47596" lon="-0.55061">
        <ele>20</ele>
        <time>2011-09-01T15:32:12Z</time>
      </trkpt>
      <trkpt lat="47.47593" lon="-0.55057">
        <ele>20</ele>
        <time>2011-09-01T15:32:13Z</time>
      </trkpt>
      <trkpt lat="47.4759" lon="-0.55053">
        <ele>20</ele>
        <time>2011-09-01T15:32:14Z</time>
      </trkpt>
      <trkpt lat="47.47584" lon="-0.5505">
        <ele>20</ele>
        <time>2011-09-01T15:32:15Z</time>
      </trkpt>
      <trkpt lat="47.4758" lon="-0.55045">
        <ele>21</ele>
        <time>2011-09-01T15:32:16Z</time>
      </trkpt>
      <trkpt lat="47.47575" lon="-0.55043">
        <ele>22</ele>
        <time>2011-09-01T15:32:17Z</time>
      </trkpt>
      <trkpt lat="47.47572" lon="-0.5504">
        <ele>23</ele>
        <time>2011-09-01T15:32:18Z</time>
      </trkpt>
      <trkpt lat="47.47569" lon="-0.55035">
        <ele>24</ele>
        <time>2011-09-01T15:32:19Z</time>
      </trkpt>
      <trkpt lat="47.47567" lon="-0.5503">
        <ele>25</ele>
        <time>2011-09-01T15:32:20Z</time>
      </trkpt>
      <trkpt lat="47.47565" lon="-0.55026">
        <ele>26</ele>
        <time>2011-09-01T15:32:21Z</time>
      </trkpt>
      <trkpt lat="47.47563" lon="-0.55023">
        <ele>27</ele>
        <time>2011-09-01T15:32:22Z</time>
      </trkpt>
      <trkpt lat="47.47562" lon="-0.55018">
        <ele>28</ele>
        <time>2011-09-01T15:32:23Z</time>
      </trkpt>
      <trkpt lat="47.47561" lon="-0.55013">
        <ele>28</ele>
        <time>2011-09-01T15:32:24Z</time>
      </trkpt>
      <trkpt lat="47.47559" lon="-0.55009">
        <ele>28</ele>
        <time>2011-09-01T15:32:25Z</time>
      </trkpt>
      <trkpt lat="47.47557" lon="-0.55005">
        <ele>28</ele>
        <time>2011-09-01T15:32:26Z</time>
      </trkpt>
      <trkpt lat="47.47556" lon="-0.55001">
        <ele>28</ele>
        <time>2011-09-01T15:32:27Z</time>
      </trkpt>
      <trkpt lat="47.47554" lon="-0.54999">
        <ele>28</ele>
        <time>2011-09-01T15:32:28Z</time>
      </trkpt>
      <trkpt lat="47.47553" lon="-0.54996">
        <ele>27</ele>
        <time>2011-09-01T15:32:29Z</time>
      </trkpt>
      <trkpt lat="47.47552" lon="-0.54993">
        <ele>26</ele>
        <time>2011-09-01T15:32:30Z</time>
      </trkpt>
      <trkpt lat="47.47551" lon="-0.5499">
        <ele>25</ele>
        <time>2011-09-01T15:32:31Z</time>
      </trkpt>
      <trkpt lat="47.47551" lon="-0.54987">
        <ele>24</ele>
        <time>2011-09-01T15:32:32Z</time>
      </trkpt>
      <trkpt lat="47.4755" lon="-0.54985">
        <ele>23</ele>
        <time>2011-09-01T15:32:33Z</time>
      </trkpt>
      <trkpt lat="47.4755" lon="-0.54983">
        <ele>22</ele>
        <time>2011-09-01T15:32:34Z</time>
      </trkpt>
      <trkpt lat="47.4755" lon="-0.5498">
        <ele>21</ele>
        <time>2011-09-01T15:32:36Z</time>
      </trkpt>
      <trkpt lat="47.47549" lon="-0.54979">
        <ele>21</ele>
        <time>2011-09-01T15:32:37Z</time>
      </trkpt>
      <trkpt lat="47.47548" lon="-0.54976">
        <ele>21</ele>
        <time>2011-09-01T15:32:39Z</time>
      </trkpt>
      <trkpt lat="47.47549" lon="-0.54974">
        <ele>22</ele>
        <time>2011-09-01T15:32:42Z</time>
      </trkpt>
      <trkpt lat="47.4755" lon="-0.54974">
        <ele>25</ele>
        <time>2011-09-01T15:32:48Z</time>
      </trkpt>
      <trkpt lat="47.47551" lon="-0.54973">
        <ele>25</ele>
        <time>2011-09-01T15:32:51Z</time>
      </trkpt>
      <trkpt lat="47.47553" lon="-0.54972">
        <ele>25</ele>
        <time>2011-09-01T15:32:54Z</time>
      </trkpt>
      <trkpt lat="47.47554" lon="-0.54971">
        <ele>25</ele>
        <time>2011-09-01T15:32:57Z</time>
      </trkpt>
      <trkpt lat="47.47554" lon="-0.54969">
        <ele>25</ele>
        <time>2011-09-01T15:33:00Z</time>
      </trkpt>
      <trkpt lat="47.47554" lon="-0.54966">
        <ele>25</ele>
        <time>2011-09-01T15:33:02Z</time>
      </trkpt>
      <trkpt lat="47.47553" lon="-0.54964">
        <ele>25</ele>
        <time>2011-09-01T15:33:03Z</time>
      </trkpt>
      <trkpt lat="47.47552" lon="-0.54963">
        <ele>25</ele>
        <time>2011-09-01T15:33:04Z</time>
      </trkpt>
      <trkpt lat="47.47551" lon="-0.54961">
        <ele>25</ele>
        <time>2011-09-01T15:33:05Z</time>
      </trkpt>
      <trkpt lat="47.4755" lon="-0.54957">
        <ele>25</ele>
        <time>2011-09-01T15:33:06Z</time>
      </trkpt>
      <trkpt lat="47.47549" lon="-0.54954">
        <ele>25</ele>
        <time>2011-09-01T15:33:07Z</time>
      </trkpt>
      <trkpt lat="47.47546" lon="-0.5495">
        <ele>25</ele>
        <time>2011-09-01T15:33:08Z</time>
      </trkpt>
      <trkpt lat="47.47544" lon="-0.54946">
        <ele>25</ele>
        <time>2011-09-01T15:33:09Z</time>
      </trkpt>
      <trkpt lat="47.47543" lon="-0.54941">
        <ele>25</ele>
        <time>2011-09-01T15:33:10Z</time>
      </trkpt>
      <trkpt lat="47.47541" lon="-0.54937">
        <ele>25</ele>
        <time>2011-09-01T15:33:11Z</time>
      </trkpt>
      <trkpt lat="47.4754" lon="-0.54934">
        <ele>26</ele>
        <time>2011-09-01T15:33:12Z</time>
      </trkpt>
      <trkpt lat="47.47538" lon="-0.54929">
        <ele>26</ele>
        <time>2011-09-01T15:33:13Z</time>
      </trkpt>
      <trkpt lat="47.47536" lon="-0.54924">
        <ele>27</ele>
        <time>2011-09-01T15:33:14Z</time>
      </trkpt>
      <trkpt lat="47.47535" lon="-0.5492">
        <ele>27</ele>
        <time>2011-09-01T15:33:15Z</time>
      </trkpt>
      <trkpt lat="47.47533" lon="-0.54915">
        <ele>27</ele>
        <time>2011-09-01T15:33:16Z</time>
      </trkpt>
      <trkpt lat="47.47531" lon="-0.54911">
        <ele>28</ele>
        <time>2011-09-01T15:33:17Z</time>
      </trkpt>
      <trkpt lat="47.47529" lon="-0.54906">
        <ele>28</ele>
        <time>2011-09-01T15:33:18Z</time>
      </trkpt>
      <trkpt lat="47.47527" lon="-0.54902">
        <ele>28</ele>
        <time>2011-09-01T15:33:19Z</time>
      </trkpt>
      <trkpt lat="47.47525" lon="-0.54897">
        <ele>28</ele>
        <time>2011-09-01T15:33:20Z</time>
      </trkpt>
      <trkpt lat="47.47523" lon="-0.54892">
        <ele>28</ele>
        <time>2011-09-01T15:33:21Z</time>
      </trkpt>
      <trkpt lat="47.47521" lon="-0.54888">
        <ele>28</ele>
        <time>2011-09-01T15:33:22Z</time>
      </trkpt>
      <trkpt lat="47.47519" lon="-0.54884">
        <ele>28</ele>
        <time>2011-09-01T15:33:23Z</time>
      </trkpt>
      <trkpt lat="47.47517" lon="-0.5488">
        <ele>28</ele>
        <time>2011-09-01T15:33:24Z</time>
      </trkpt>
      <trkpt lat="47.47514" lon="-0.54876">
        <ele>28</ele>
        <time>2011-09-01T15:33:25Z</time>
      </trkpt>
      <trkpt lat="47.47512" lon="-0.54872">
        <ele>28</ele>
        <time>2011-09-01T15:33:26Z</time>
      </trkpt>
      <trkpt lat="47.47511" lon="-0.54868">
        <ele>28</ele>
        <time>2011-09-01T15:33:27Z</time>
      </trkpt>
      <trkpt lat="47.47509" lon="-0.54864">
        <ele>28</ele>
        <time>2011-09-01T15:33:28Z</time>
      </trkpt>
      <trkpt lat="47.47507" lon="-0.5486">
        <ele>29</ele>
        <time>2011-09-01T15:33:29Z</time>
      </trkpt>
      <trkpt lat="47.47505" lon="-0.54856">
        <ele>29</ele>
        <time>2011-09-01T15:33:30Z</time>
      </trkpt>
      <trkpt lat="47.47502" lon="-0.54851">
        <ele>29</ele>
        <time>2011-09-01T15:33:31Z</time>
      </trkpt>
      <trkpt lat="47.47499" lon="-0.54846">
        <ele>30</ele>
        <time>2011-09-01T15:33:32Z</time>
      </trkpt>
      <trkpt lat="47.47497" lon="-0.54842">
        <ele>31</ele>
        <time>2011-09-01T15:33:33Z</time>
      </trkpt>
      <trkpt lat="47.47495" lon="-0.54836">
        <ele>32</ele>
        <time>2011-09-01T15:33:34Z</time>
      </trkpt>
      <trkpt lat="47.47493" lon="-0.54833">
        <ele>33</ele>
        <time>2011-09-01T15:33:35Z</time>
      </trkpt>
      <trkpt lat="47.4749" lon="-0.54829">
        <ele>34</ele>
        <time>2011-09-01T15:33:36Z</time>
      </trkpt>
      <trkpt lat="47.47488" lon="-0.54826">
        <ele>34</ele>
        <time>2011-09-01T15:33:37Z</time>
      </trkpt>
      <trkpt lat="47.47487" lon="-0.54822">
        <ele>34</ele>
        <time>2011-09-01T15:33:38Z</time>
      </trkpt>
      <trkpt lat="47.47485" lon="-0.54818">
        <ele>34</ele>
        <time>2011-09-01T15:33:39Z</time>
      </trkpt>
      <trkpt lat="47.47483" lon="-0.54813">
        <ele>34</ele>
        <time>2011-09-01T15:33:40Z</time>
      </trkpt>
      <trkpt lat="47.47482" lon="-0.54809">
        <ele>34</ele>
        <time>2011-09-01T15:33:41Z</time>
      </trkpt>
      <trkpt lat="47.4748" lon="-0.54805">
        <ele>34</ele>
        <time>2011-09-01T15:33:42Z</time>
      </trkpt>
      <trkpt lat="47.47478" lon="-0.54801">
        <ele>34</ele>
        <time>2011-09-01T15:33:43Z</time>
      </trkpt>
      <trkpt lat="47.47476" lon="-0.54797">
        <ele>34</ele>
        <time>2011-09-01T15:33:44Z</time>
      </trkpt>
      <trkpt lat="47.47474" lon="-0.54793">
        <ele>34</ele>
        <time>2011-09-01T15:33:45Z</time>
      </trkpt>
      <trkpt lat="47.47472" lon="-0.54789">
        <ele>34</ele>
        <time>2011-09-01T15:33:46Z</time>
      </trkpt>
      <trkpt lat="47.47471" lon="-0.54784">
        <ele>34</ele>
        <time>2011-09-01T15:33:47Z</time>
      </trkpt>
      <trkpt lat="47.47469" lon="-0.54779">
        <ele>34</ele>
        <time>2011-09-01T15:33:48Z</time>
      </trkpt>
      <trkpt lat="47.47468" lon="-0.54773">
        <ele>34</ele>
        <time>2011-09-01T15:33:49Z</time>
      </trkpt>
      <trkpt lat="47.47466" lon="-0.54769">
        <ele>34</ele>
        <time>2011-09-01T15:33:50Z</time>
      </trkpt>
      <trkpt lat="47.47464" lon="-0.54765">
        <ele>34</ele>
        <time>2011-09-01T15:33:51Z</time>
      </trkpt>
      <trkpt lat="47.47462" lon="-0.54761">
        <ele>35</ele>
        <time>2011-09-01T15:33:52Z</time>
      </trkpt>
      <trkpt lat="47.4746" lon="-0.54757">
        <ele>36</ele>
        <time>2011-09-01T15:33:53Z</time>
      </trkpt>
      <trkpt lat="47.47458" lon="-0.54753">
        <ele>37</ele>
        <time>2011-09-01T15:33:54Z</time>
      </trkpt>
      <trkpt lat="47.47456" lon="-0.54751">
        <ele>37</ele>
        <time>2011-09-01T15:33:55Z</time>
      </trkpt>
      <trkpt lat="47.47455" lon="-0.54747">
        <ele>38</ele>
        <time>2011-09-01T15:33:56Z</time>
      </trkpt>
      <trkpt lat="47.47454" lon="-0.54743">
        <ele>38</ele>
        <time>2011-09-01T15:33:57Z</time>
      </trkpt>
      <trkpt lat="47.47453" lon="-0.54739">
        <ele>38</ele>
        <time>2011-09-01T15:33:58Z</time>
      </trkpt>
      <trkpt lat="47.47451" lon="-0.54735">
        <ele>38</ele>
        <time>2011-09-01T15:33:59Z</time>
      </trkpt>
      <trkpt lat="47.47449" lon="-0.54731">
        <ele>38</ele>
        <time>2011-09-01T15:34:00Z</time>
      </trkpt>
      <trkpt lat="47.47447" lon="-0.54728">
        <ele>38</ele>
        <time>2011-09-01T15:34:01Z</time>
      </trkpt>
      <trkpt lat="47.47446" lon="-0.54725">
        <ele>38</ele>
        <time>2011-09-01T15:34:02Z</time>
      </trkpt>
      <trkpt lat="47.47444" lon="-0.54722">
        <ele>38</ele>
        <time>2011-09-01T15:34:03Z</time>
      </trkpt>
      <trkpt lat="47.47442" lon="-0.5472">
        <ele>38</ele>
        <time>2011-09-01T15:34:04Z</time>
      </trkpt>
      <trkpt lat="47.4744" lon="-0.54717">
        <ele>38</ele>
        <time>2011-09-01T15:34:05Z</time>
      </trkpt>
      <trkpt lat="47.47439" lon="-0.54713">
        <ele>38</ele>
        <time>2011-09-01T15:34:06Z</time>
      </trkpt>
      <trkpt lat="47.47437" lon="-0.54711">
        <ele>38</ele>
        <time>2011-09-01T15:34:07Z</time>
      </trkpt>
      <trkpt lat="47.47435" lon="-0.54709">
        <ele>38</ele>
        <time>2011-09-01T15:34:08Z</time>
      </trkpt>
      <trkpt lat="47.47434" lon="-0.54708">
        <ele>39</ele>
        <time>2011-09-01T15:34:09Z</time>
      </trkpt>
      <trkpt lat="47.47433" lon="-0.54707">
        <ele>40</ele>
        <time>2011-09-01T15:34:10Z</time>
      </trkpt>
      <trkpt lat="47.4743" lon="-0.54704">
        <ele>42</ele>
        <time>2011-09-01T15:34:12Z</time>
      </trkpt>
      <trkpt lat="47.47429" lon="-0.54702">
        <ele>44</ele>
        <time>2011-09-01T15:34:14Z</time>
      </trkpt>
      <trkpt lat="47.47427" lon="-0.54701">
        <ele>46</ele>
        <time>2011-09-01T15:34:16Z</time>
      </trkpt>
      <trkpt lat="47.47425" lon="-0.547">
        <ele>49</ele>
        <time>2011-09-01T15:34:18Z</time>
      </trkpt>
      <trkpt lat="47.47423" lon="-0.54699">
        <ele>53</ele>
        <time>2011-09-01T15:34:20Z</time>
      </trkpt>
      <trkpt lat="47.4742" lon="-0.54699">
        <ele>57</ele>
        <time>2011-09-01T15:34:22Z</time>
      </trkpt>
      <trkpt lat="47.47421" lon="-0.54697">
        <ele>63</ele>
        <time>2011-09-01T15:34:26Z</time>
      </trkpt>
      <trkpt lat="47.47422" lon="-0.54697">
        <ele>64</ele>
        <time>2011-09-01T15:34:27Z</time>
      </trkpt>
      <trkpt lat="47.47425" lon="-0.54695">
        <ele>65</ele>
        <time>2011-09-01T15:34:29Z</time>
      </trkpt>
      <trkpt lat="47.47426" lon="-0.54694">
        <ele>65</ele>
        <time>2011-09-01T15:34:31Z</time>
      </trkpt>
      <trkpt lat="47.47427" lon="-0.54692">
        <ele>65</ele>
        <time>2011-09-01T15:34:33Z</time>
      </trkpt>
      <trkpt lat="47.47428" lon="-0.5469">
        <ele>63</ele>
        <time>2011-09-01T15:34:35Z</time>
      </trkpt>
      <trkpt lat="47.47426" lon="-0.54688">
        <ele>61</ele>
        <time>2011-09-01T15:34:37Z</time>
      </trkpt>
      <trkpt lat="47.47424" lon="-0.54686">
        <ele>61</ele>
        <time>2011-09-01T15:34:38Z</time>
      </trkpt>
      <trkpt lat="47.47422" lon="-0.54684">
        <ele>61</ele>
        <time>2011-09-01T15:34:39Z</time>
      </trkpt>
      <trkpt lat="47.47421" lon="-0.54681">
        <ele>61</ele>
        <time>2011-09-01T15:34:40Z</time>
      </trkpt>
      <trkpt lat="47.47421" lon="-0.5468">
        <ele>61</ele>
        <time>2011-09-01T15:34:41Z</time>
      </trkpt>
      <trkpt lat="47.4742" lon="-0.54677">
        <ele>61</ele>
        <time>2011-09-01T15:34:42Z</time>
      </trkpt>
      <trkpt lat="47.47419" lon="-0.54676">
        <ele>61</ele>
        <time>2011-09-01T15:34:43Z</time>
      </trkpt>
      <trkpt lat="47.47418" lon="-0.54673">
        <ele>60</ele>
        <time>2011-09-01T15:34:44Z</time>
      </trkpt>
      <trkpt lat="47.47418" lon="-0.54669">
        <ele>59</ele>
        <time>2011-09-01T15:34:45Z</time>
      </trkpt>
      <trkpt lat="47.47418" lon="-0.54667">
        <ele>58</ele>
        <time>2011-09-01T15:34:46Z</time>
      </trkpt>
      <trkpt lat="47.47417" lon="-0.54664">
        <ele>57</ele>
        <time>2011-09-01T15:34:47Z</time>
      </trkpt>
      <trkpt lat="47.47416" lon="-0.5466">
        <ele>56</ele>
        <time>2011-09-01T15:34:48Z</time>
      </trkpt>
      <trkpt lat="47.47414" lon="-0.54656">
        <ele>55</ele>
        <time>2011-09-01T15:34:49Z</time>
      </trkpt>
      <trkpt lat="47.47413" lon="-0.54653">
        <ele>54</ele>
        <time>2011-09-01T15:34:50Z</time>
      </trkpt>
      <trkpt lat="47.47412" lon="-0.5465">
        <ele>53</ele>
        <time>2011-09-01T15:34:51Z</time>
      </trkpt>
      <trkpt lat="47.4741" lon="-0.54648">
        <ele>52</ele>
        <time>2011-09-01T15:34:52Z</time>
      </trkpt>
      <trkpt lat="47.47408" lon="-0.54645">
        <ele>51</ele>
        <time>2011-09-01T15:34:53Z</time>
      </trkpt>
      <trkpt lat="47.47406" lon="-0.54642">
        <ele>50</ele>
        <time>2011-09-01T15:34:54Z</time>
      </trkpt>
      <trkpt lat="47.47403" lon="-0.54639">
        <ele>49</ele>
        <time>2011-09-01T15:34:55Z</time>
      </trkpt>
      <trkpt lat="47.47401" lon="-0.54636">
        <ele>49</ele>
        <time>2011-09-01T15:34:56Z</time>
      </trkpt>
      <trkpt lat="47.47399" lon="-0.54633">
        <ele>49</ele>
        <time>2011-09-01T15:34:57Z</time>
      </trkpt>
      <trkpt lat="47.47399" lon="-0.54629">
        <ele>49</ele>
        <time>2011-09-01T15:34:58Z</time>
      </trkpt>
      <trkpt lat="47.47398" lon="-0.54626">
        <ele>49</ele>
        <time>2011-09-01T15:34:59Z</time>
      </trkpt>
      <trkpt lat="47.47398" lon="-0.54623">
        <ele>49</ele>
        <time>2011-09-01T15:35:00Z</time>
      </trkpt>
      <trkpt lat="47.47398" lon="-0.5462">
        <ele>48</ele>
        <time>2011-09-01T15:35:01Z</time>
      </trkpt>
      <trkpt lat="47.47398" lon="-0.54616">
        <ele>47</ele>
        <time>2011-09-01T15:35:02Z</time>
      </trkpt>
      <trkpt lat="47.47396" lon="-0.54613">
        <ele>46</ele>
        <time>2011-09-01T15:35:03Z</time>
      </trkpt>
      <trkpt lat="47.47395" lon="-0.5461">
        <ele>45</ele>
        <time>2011-09-01T15:35:04Z</time>
      </trkpt>
      <trkpt lat="47.47393" lon="-0.54607">
        <ele>44</ele>
        <time>2011-09-01T15:35:05Z</time>
      </trkpt>
      <trkpt lat="47.47392" lon="-0.54604">
        <ele>43</ele>
        <time>2011-09-01T15:35:06Z</time>
      </trkpt>
      <trkpt lat="47.47391" lon="-0.546">
        <ele>42</ele>
        <time>2011-09-01T15:35:07Z</time>
      </trkpt>
      <trkpt lat="47.4739" lon="-0.54596">
        <ele>41</ele>
        <time>2011-09-01T15:35:08Z</time>
      </trkpt>
      <trkpt lat="47.47388" lon="-0.54592">
        <ele>40</ele>
        <time>2011-09-01T15:35:09Z</time>
      </trkpt>
      <trkpt lat="47.47385" lon="-0.54588">
        <ele>39</ele>
        <time>2011-09-01T15:35:10Z</time>
      </trkpt>
      <trkpt lat="47.47383" lon="-0.54584">
        <ele>38</ele>
        <time>2011-09-01T15:35:11Z</time>
      </trkpt>
      <trkpt lat="47.4738" lon="-0.54582">
        <ele>38</ele>
        <time>2011-09-01T15:35:12Z</time>
      </trkpt>
      <trkpt lat="47.47378" lon="-0.54579">
        <ele>38</ele>
        <time>2011-09-01T15:35:13Z</time>
      </trkpt>
      <trkpt lat="47.47375" lon="-0.54576">
        <ele>38</ele>
        <time>2011-09-01T15:35:14Z</time>
      </trkpt>
      <trkpt lat="47.47373" lon="-0.54575">
        <ele>38</ele>
        <time>2011-09-01T15:35:15Z</time>
      </trkpt>
      <trkpt lat="47.47371" lon="-0.54573">
        <ele>38</ele>
        <time>2011-09-01T15:35:16Z</time>
      </trkpt>
      <trkpt lat="47.47369" lon="-0.54571">
        <ele>38</ele>
        <time>2011-09-01T15:35:17Z</time>
      </trkpt>
      <trkpt lat="47.47368" lon="-0.5457">
        <ele>38</ele>
        <time>2011-09-01T15:35:18Z</time>
      </trkpt>
      <trkpt lat="47.47367" lon="-0.54569">
        <ele>38</ele>
        <time>2011-09-01T15:35:19Z</time>
      </trkpt>
      <trkpt lat="47.47364" lon="-0.54567">
        <ele>38</ele>
        <time>2011-09-01T15:35:21Z</time>
      </trkpt>
      <trkpt lat="47.47363" lon="-0.54567">
        <ele>38</ele>
        <time>2011-09-01T15:35:22Z</time>
      </trkpt>
      <trkpt lat="47.47361" lon="-0.54567">
        <ele>38</ele>
        <time>2011-09-01T15:35:23Z</time>
      </trkpt>
      <trkpt lat="47.47358" lon="-0.54567">
        <ele>38</ele>
        <time>2011-09-01T15:35:24Z</time>
      </trkpt>
      <trkpt lat="47.47356" lon="-0.54567">
        <ele>38</ele>
        <time>2011-09-01T15:35:25Z</time>
      </trkpt>
      <trkpt lat="47.47355" lon="-0.54568">
        <ele>39</ele>
        <time>2011-09-01T15:35:29Z</time>
      </trkpt>
      <trkpt lat="47.47353" lon="-0.54568">
        <ele>39</ele>
        <time>2011-09-01T15:35:31Z</time>
      </trkpt>
      <trkpt lat="47.47351" lon="-0.54568">
        <ele>40</ele>
        <time>2011-09-01T15:35:33Z</time>
      </trkpt>
      <trkpt lat="47.4735" lon="-0.54569">
        <ele>40</ele>
        <time>2011-09-01T15:35:34Z</time>
      </trkpt>
      <trkpt lat="47.47348" lon="-0.5457">
        <ele>40</ele>
        <time>2011-09-01T15:35:35Z</time>
      </trkpt>
      <trkpt lat="47.47347" lon="-0.54571">
        <ele>40</ele>
        <time>2011-09-01T15:35:36Z</time>
      </trkpt>
      <trkpt lat="47.47345" lon="-0.54572">
        <ele>40</ele>
        <time>2011-09-01T15:35:37Z</time>
      </trkpt>
      <trkpt lat="47.47342" lon="-0.54573">
        <ele>40</ele>
        <time>2011-09-01T15:35:38Z</time>
      </trkpt>
      <trkpt lat="47.47341" lon="-0.54574">
        <ele>40</ele>
        <time>2011-09-01T15:35:39Z</time>
      </trkpt>
      <trkpt lat="47.47338" lon="-0.54575">
        <ele>40</ele>
        <time>2011-09-01T15:35:40Z</time>
      </trkpt>
      <trkpt lat="47.47337" lon="-0.54576">
        <ele>40</ele>
        <time>2011-09-01T15:35:41Z</time>
      </trkpt>
      <trkpt lat="47.47335" lon="-0.54577">
        <ele>40</ele>
        <time>2011-09-01T15:35:42Z</time>
      </trkpt>
      <trkpt lat="47.47334" lon="-0.54579">
        <ele>40</ele>
        <time>2011-09-01T15:35:43Z</time>
      </trkpt>
      <trkpt lat="47.47332" lon="-0.5458">
        <ele>40</ele>
        <time>2011-09-01T15:35:44Z</time>
      </trkpt>
      <trkpt lat="47.47329" lon="-0.54582">
        <ele>40</ele>
        <time>2011-09-01T15:35:45Z</time>
      </trkpt>
      <trkpt lat="47.47327" lon="-0.54583">
        <ele>40</ele>
        <time>2011-09-01T15:35:46Z</time>
      </trkpt>
      <trkpt lat="47.47324" lon="-0.54584">
        <ele>40</ele>
        <time>2011-09-01T15:35:47Z</time>
      </trkpt>
      <trkpt lat="47.47322" lon="-0.54585">
        <ele>40</ele>
        <time>2011-09-01T15:35:48Z</time>
      </trkpt>
      <trkpt lat="47.4732" lon="-0.54587">
        <ele>40</ele>
        <time>2011-09-01T15:35:49Z</time>
      </trkpt>
      <trkpt lat="47.47318" lon="-0.54588">
        <ele>39</ele>
        <time>2011-09-01T15:35:50Z</time>
      </trkpt>
      <trkpt lat="47.47316" lon="-0.54589">
        <ele>39</ele>
        <time>2011-09-01T15:35:51Z</time>
      </trkpt>
      <trkpt lat="47.47315" lon="-0.54589">
        <ele>38</ele>
        <time>2011-09-01T15:35:52Z</time>
      </trkpt>
      <trkpt lat="47.47313" lon="-0.5459">
        <ele>38</ele>
        <time>2011-09-01T15:35:53Z</time>
      </trkpt>
      <trkpt lat="47.47311" lon="-0.54591">
        <ele>38</ele>
        <time>2011-09-01T15:35:54Z</time>
      </trkpt>
      <trkpt lat="47.47308" lon="-0.54593">
        <ele>38</ele>
        <time>2011-09-01T15:35:55Z</time>
      </trkpt>
      <trkpt lat="47.47306" lon="-0.54594">
        <ele>38</ele>
        <time>2011-09-01T15:35:56Z</time>
      </trkpt>
      <trkpt lat="47.47304" lon="-0.54596">
        <ele>38</ele>
        <time>2011-09-01T15:35:57Z</time>
      </trkpt>
      <trkpt lat="47.47302" lon="-0.54598">
        <ele>37</ele>
        <time>2011-09-01T15:35:58Z</time>
      </trkpt>
      <trkpt lat="47.473" lon="-0.54599">
        <ele>37</ele>
        <time>2011-09-01T15:35:59Z</time>
      </trkpt>
      <trkpt lat="47.47298" lon="-0.54599">
        <ele>37</ele>
        <time>2011-09-01T15:36:00Z</time>
      </trkpt>
      <trkpt lat="47.47294" lon="-0.546">
        <ele>37</ele>
        <time>2011-09-01T15:36:01Z</time>
      </trkpt>
      <trkpt lat="47.4729" lon="-0.54602">
        <ele>37</ele>
        <time>2011-09-01T15:36:02Z</time>
      </trkpt>
      <trkpt lat="47.47288" lon="-0.54602">
        <ele>37</ele>
        <time>2011-09-01T15:36:03Z</time>
      </trkpt>
      <trkpt lat="47.47285" lon="-0.54604">
        <ele>37</ele>
        <time>2011-09-01T15:36:04Z</time>
      </trkpt>
      <trkpt lat="47.47283" lon="-0.54605">
        <ele>37</ele>
        <time>2011-09-01T15:36:05Z</time>
      </trkpt>
      <trkpt lat="47.4728" lon="-0.54607">
        <ele>37</ele>
        <time>2011-09-01T15:36:06Z</time>
      </trkpt>
      <trkpt lat="47.47277" lon="-0.54609">
        <ele>37</ele>
        <time>2011-09-01T15:36:07Z</time>
      </trkpt>
      <trkpt lat="47.47275" lon="-0.5461">
        <ele>37</ele>
        <time>2011-09-01T15:36:08Z</time>
      </trkpt>
      <trkpt lat="47.47273" lon="-0.54611">
        <ele>37</ele>
        <time>2011-09-01T15:36:09Z</time>
      </trkpt>
      <trkpt lat="47.4727" lon="-0.54612">
        <ele>37</ele>
        <time>2011-09-01T15:36:10Z</time>
      </trkpt>
      <trkpt lat="47.47268" lon="-0.54613">
        <ele>37</ele>
        <time>2011-09-01T15:36:11Z</time>
      </trkpt>
      <trkpt lat="47.47265" lon="-0.54615">
        <ele>37</ele>
        <time>2011-09-01T15:36:12Z</time>
      </trkpt>
      <trkpt lat="47.47263" lon="-0.54616">
        <ele>37</ele>
        <time>2011-09-01T15:36:13Z</time>
      </trkpt>
      <trkpt lat="47.47261" lon="-0.54618">
        <ele>37</ele>
        <time>2011-09-01T15:36:14Z</time>
      </trkpt>
      <trkpt lat="47.47258" lon="-0.54619">
        <ele>37</ele>
        <time>2011-09-01T15:36:15Z</time>
      </trkpt>
      <trkpt lat="47.47256" lon="-0.5462">
        <ele>37</ele>
        <time>2011-09-01T15:36:16Z</time>
      </trkpt>
      <trkpt lat="47.47255" lon="-0.54622">
        <ele>37</ele>
        <time>2011-09-01T15:36:17Z</time>
      </trkpt>
      <trkpt lat="47.47253" lon="-0.54623">
        <ele>37</ele>
        <time>2011-09-01T15:36:18Z</time>
      </trkpt>
      <trkpt lat="47.47251" lon="-0.54624">
        <ele>37</ele>
        <time>2011-09-01T15:36:19Z</time>
      </trkpt>
      <trkpt lat="47.47249" lon="-0.54626">
        <ele>37</ele>
        <time>2011-09-01T15:36:20Z</time>
      </trkpt>
      <trkpt lat="47.47246" lon="-0.54627">
        <ele>37</ele>
        <time>2011-09-01T15:36:21Z</time>
      </trkpt>
      <trkpt lat="47.47244" lon="-0.54628">
        <ele>37</ele>
        <time>2011-09-01T15:36:22Z</time>
      </trkpt>
      <trkpt lat="47.47242" lon="-0.5463">
        <ele>37</ele>
        <time>2011-09-01T15:36:23Z</time>
      </trkpt>
      <trkpt lat="47.4724" lon="-0.54631">
        <ele>37</ele>
        <time>2011-09-01T15:36:24Z</time>
      </trkpt>
      <trkpt lat="47.47238" lon="-0.54633">
        <ele>37</ele>
        <time>2011-09-01T15:36:25Z</time>
      </trkpt>
      <trkpt lat="47.47235" lon="-0.54634">
        <ele>37</ele>
        <time>2011-09-01T15:36:26Z</time>
      </trkpt>
      <trkpt lat="47.47232" lon="-0.54637">
        <ele>37</ele>
        <time>2011-09-01T15:36:27Z</time>
      </trkpt>
      <trkpt lat="47.47231" lon="-0.54638">
        <ele>37</ele>
        <time>2011-09-01T15:36:28Z</time>
      </trkpt>
      <trkpt lat="47.47229" lon="-0.5464">
        <ele>37</ele>
        <time>2011-09-01T15:36:29Z</time>
      </trkpt>
      <trkpt lat="47.47227" lon="-0.54641">
        <ele>36</ele>
        <time>2011-09-01T15:36:30Z</time>
      </trkpt>
      <trkpt lat="47.47226" lon="-0.54641">
        <ele>36</ele>
        <time>2011-09-01T15:36:31Z</time>
      </trkpt>
      <trkpt lat="47.47224" lon="-0.54643">
        <ele>36</ele>
        <time>2011-09-01T15:36:32Z</time>
      </trkpt>
      <trkpt lat="47.47222" lon="-0.54644">
        <ele>36</ele>
        <time>2011-09-01T15:36:33Z</time>
      </trkpt>
      <trkpt lat="47.4722" lon="-0.54646">
        <ele>36</ele>
        <time>2011-09-01T15:36:34Z</time>
      </trkpt>
      <trkpt lat="47.47218" lon="-0.54648">
        <ele>36</ele>
        <time>2011-09-01T15:36:35Z</time>
      </trkpt>
      <trkpt lat="47.47217" lon="-0.5465">
        <ele>36</ele>
        <time>2011-09-01T15:36:36Z</time>
      </trkpt>
      <trkpt lat="47.47215" lon="-0.54652">
        <ele>36</ele>
        <time>2011-09-01T15:36:37Z</time>
      </trkpt>
      <trkpt lat="47.47212" lon="-0.54655">
        <ele>36</ele>
        <time>2011-09-01T15:36:38Z</time>
      </trkpt>
      <trkpt lat="47.47209" lon="-0.54657">
        <ele>36</ele>
        <time>2011-09-01T15:36:39Z</time>
      </trkpt>
      <trkpt lat="47.47207" lon="-0.54659">
        <ele>36</ele>
        <time>2011-09-01T15:36:40Z</time>
      </trkpt>
      <trkpt lat="47.47204" lon="-0.54662">
        <ele>36</ele>
        <time>2011-09-01T15:36:41Z</time>
      </trkpt>
      <trkpt lat="47.47201" lon="-0.54663">
        <ele>35</ele>
        <time>2011-09-01T15:36:42Z</time>
      </trkpt>
      <trkpt lat="47.47199" lon="-0.54665">
        <ele>35</ele>
        <time>2011-09-01T15:36:43Z</time>
      </trkpt>
      <trkpt lat="47.47196" lon="-0.54667">
        <ele>35</ele>
        <time>2011-09-01T15:36:44Z</time>
      </trkpt>
      <trkpt lat="47.47194" lon="-0.5467">
        <ele>35</ele>
        <time>2011-09-01T15:36:45Z</time>
      </trkpt>
      <trkpt lat="47.47192" lon="-0.54672">
        <ele>35</ele>
        <time>2011-09-01T15:36:46Z</time>
      </trkpt>
      <trkpt lat="47.47189" lon="-0.54674">
        <ele>35</ele>
        <time>2011-09-01T15:36:47Z</time>
      </trkpt>
      <trkpt lat="47.47186" lon="-0.54676">
        <ele>35</ele>
        <time>2011-09-01T15:36:48Z</time>
      </trkpt>
      <trkpt lat="47.47183" lon="-0.54677">
        <ele>35</ele>
        <time>2011-09-01T15:36:49Z</time>
      </trkpt>
      <trkpt lat="47.47181" lon="-0.54679">
        <ele>35</ele>
        <time>2011-09-01T15:36:50Z</time>
      </trkpt>
      <trkpt lat="47.47178" lon="-0.54681">
        <ele>35</ele>
        <time>2011-09-01T15:36:51Z</time>
      </trkpt>
      <trkpt lat="47.47176" lon="-0.54683">
        <ele>35</ele>
        <time>2011-09-01T15:36:52Z</time>
      </trkpt>
      <trkpt lat="47.47173" lon="-0.54685">
        <ele>35</ele>
        <time>2011-09-01T15:36:53Z</time>
      </trkpt>
      <trkpt lat="47.47171" lon="-0.54686">
        <ele>35</ele>
        <time>2011-09-01T15:36:54Z</time>
      </trkpt>
      <trkpt lat="47.4717" lon="-0.54688">
        <ele>35</ele>
        <time>2011-09-01T15:36:55Z</time>
      </trkpt>
      <trkpt lat="47.47167" lon="-0.54689">
        <ele>35</ele>
        <time>2011-09-01T15:36:56Z</time>
      </trkpt>
      <trkpt lat="47.47166" lon="-0.54691">
        <ele>35</ele>
        <time>2011-09-01T15:36:57Z</time>
      </trkpt>
      <trkpt lat="47.47164" lon="-0.54692">
        <ele>35</ele>
        <time>2011-09-01T15:36:58Z</time>
      </trkpt>
      <trkpt lat="47.47163" lon="-0.54694">
        <ele>35</ele>
        <time>2011-09-01T15:36:59Z</time>
      </trkpt>
      <trkpt lat="47.47161" lon="-0.54694">
        <ele>35</ele>
        <time>2011-09-01T15:37:00Z</time>
      </trkpt>
      <trkpt lat="47.4716" lon="-0.54695">
        <ele>35</ele>
        <time>2011-09-01T15:37:02Z</time>
      </trkpt>
      <trkpt lat="47.47159" lon="-0.54693">
        <ele>35</ele>
        <time>2011-09-01T15:37:08Z</time>
      </trkpt>
      <trkpt lat="47.47158" lon="-0.54692">
        <ele>35</ele>
        <time>2011-09-01T15:37:15Z</time>
      </trkpt>
      <trkpt lat="47.47157" lon="-0.54691">
        <ele>35</ele>
        <time>2011-09-01T15:37:28Z</time>
      </trkpt>
      <trkpt lat="47.47155" lon="-0.54693">
        <ele>35</ele>
        <time>2011-09-01T15:37:32Z</time>
      </trkpt>
      <trkpt lat="47.47154" lon="-0.54694">
        <ele>35</ele>
        <time>2011-09-01T15:37:33Z</time>
      </trkpt>
      <trkpt lat="47.47152" lon="-0.54695">
        <ele>35</ele>
        <time>2011-09-01T15:37:34Z</time>
      </trkpt>
      <trkpt lat="47.4715" lon="-0.54698">
        <ele>35</ele>
        <time>2011-09-01T15:37:35Z</time>
      </trkpt>
      <trkpt lat="47.47148" lon="-0.547">
        <ele>35</ele>
        <time>2011-09-01T15:37:36Z</time>
      </trkpt>
      <trkpt lat="47.47146" lon="-0.54703">
        <ele>35</ele>
        <time>2011-09-01T15:37:37Z</time>
      </trkpt>
      <trkpt lat="47.47144" lon="-0.54704">
        <ele>35</ele>
        <time>2011-09-01T15:37:38Z</time>
      </trkpt>
      <trkpt lat="47.47142" lon="-0.54707">
        <ele>35</ele>
        <time>2011-09-01T15:37:39Z</time>
      </trkpt>
      <trkpt lat="47.47139" lon="-0.54709">
        <ele>35</ele>
        <time>2011-09-01T15:37:40Z</time>
      </trkpt>
      <trkpt lat="47.47137" lon="-0.54711">
        <ele>35</ele>
        <time>2011-09-01T15:37:41Z</time>
      </trkpt>
      <trkpt lat="47.47134" lon="-0.54712">
        <ele>35</ele>
        <time>2011-09-01T15:37:42Z</time>
      </trkpt>
      <trkpt lat="47.47132" lon="-0.54714">
        <ele>35</ele>
        <time>2011-09-01T15:37:43Z</time>
      </trkpt>
      <trkpt lat="47.4713" lon="-0.54715">
        <ele>35</ele>
        <time>2011-09-01T15:37:44Z</time>
      </trkpt>
      <trkpt lat="47.47129" lon="-0.54716">
        <ele>35</ele>
        <time>2011-09-01T15:37:45Z</time>
      </trkpt>
      <trkpt lat="47.47127" lon="-0.54719">
        <ele>35</ele>
        <time>2011-09-01T15:37:47Z</time>
      </trkpt>
      <trkpt lat="47.47125" lon="-0.54721">
        <ele>35</ele>
        <time>2011-09-01T15:37:48Z</time>
      </trkpt>
      <trkpt lat="47.47124" lon="-0.54723">
        <ele>35</ele>
        <time>2011-09-01T15:37:49Z</time>
      </trkpt>
      <trkpt lat="47.47123" lon="-0.54726">
        <ele>35</ele>
        <time>2011-09-01T15:37:50Z</time>
      </trkpt>
      <trkpt lat="47.47122" lon="-0.54729">
        <ele>35</ele>
        <time>2011-09-01T15:37:51Z</time>
      </trkpt>
      <trkpt lat="47.4712" lon="-0.54731">
        <ele>35</ele>
        <time>2011-09-01T15:37:52Z</time>
      </trkpt>
      <trkpt lat="47.47118" lon="-0.54733">
        <ele>35</ele>
        <time>2011-09-01T15:37:53Z</time>
      </trkpt>
      <trkpt lat="47.47115" lon="-0.54735">
        <ele>35</ele>
        <time>2011-09-01T15:37:54Z</time>
      </trkpt>
      <trkpt lat="47.47113" lon="-0.54737">
        <ele>35</ele>
        <time>2011-09-01T15:37:55Z</time>
      </trkpt>
      <trkpt lat="47.47111" lon="-0.54738">
        <ele>35</ele>
        <time>2011-09-01T15:37:56Z</time>
      </trkpt>
      <trkpt lat="47.47109" lon="-0.5474">
        <ele>35</ele>
        <time>2011-09-01T15:37:57Z</time>
      </trkpt>
      <trkpt lat="47.47107" lon="-0.54742">
        <ele>35</ele>
        <time>2011-09-01T15:37:58Z</time>
      </trkpt>
      <trkpt lat="47.47105" lon="-0.54743">
        <ele>35</ele>
        <time>2011-09-01T15:37:59Z</time>
      </trkpt>
      <trkpt lat="47.47103" lon="-0.54744">
        <ele>35</ele>
        <time>2011-09-01T15:38:00Z</time>
      </trkpt>
      <trkpt lat="47.47101" lon="-0.54746">
        <ele>35</ele>
        <time>2011-09-01T15:38:01Z</time>
      </trkpt>
      <trkpt lat="47.47099" lon="-0.54747">
        <ele>35</ele>
        <time>2011-09-01T15:38:02Z</time>
      </trkpt>
      <trkpt lat="47.47097" lon="-0.54749">
        <ele>35</ele>
        <time>2011-09-01T15:38:03Z</time>
      </trkpt>
      <trkpt lat="47.47095" lon="-0.5475">
        <ele>35</ele>
        <time>2011-09-01T15:38:04Z</time>
      </trkpt>
      <trkpt lat="47.47093" lon="-0.54752">
        <ele>35</ele>
        <time>2011-09-01T15:38:05Z</time>
      </trkpt>
      <trkpt lat="47.47091" lon="-0.54754">
        <ele>35</ele>
        <time>2011-09-01T15:38:06Z</time>
      </trkpt>
      <trkpt lat="47.47089" lon="-0.54755">
        <ele>35</ele>
        <time>2011-09-01T15:38:07Z</time>
      </trkpt>
      <trkpt lat="47.47087" lon="-0.54757">
        <ele>35</ele>
        <time>2011-09-01T15:38:08Z</time>
      </trkpt>
      <trkpt lat="47.47086" lon="-0.54758">
        <ele>35</ele>
        <time>2011-09-01T15:38:09Z</time>
      </trkpt>
      <trkpt lat="47.47084" lon="-0.5476">
        <ele>35</ele>
        <time>2011-09-01T15:38:10Z</time>
      </trkpt>
      <trkpt lat="47.47083" lon="-0.5476">
        <ele>35</ele>
        <time>2011-09-01T15:38:11Z</time>
      </trkpt>
      <trkpt lat="47.47082" lon="-0.54762">
        <ele>35</ele>
        <time>2011-09-01T15:38:14Z</time>
      </trkpt>
      <trkpt lat="47.4708" lon="-0.54762">
        <ele>35</ele>
        <time>2011-09-01T15:38:18Z</time>
      </trkpt>
      <trkpt lat="47.47079" lon="-0.54762">
        <ele>35</ele>
        <time>2011-09-01T15:38:23Z</time>
      </trkpt>
      <trkpt lat="47.47078" lon="-0.54762">
        <ele>35</ele>
        <time>2011-09-01T15:38:25Z</time>
      </trkpt>
      <trkpt lat="47.47076" lon="-0.54763">
        <ele>35</ele>
        <time>2011-09-01T15:38:27Z</time>
      </trkpt>
      <trkpt lat="47.47075" lon="-0.54764">
        <ele>35</ele>
        <time>2011-09-01T15:38:28Z</time>
      </trkpt>
      <trkpt lat="47.47073" lon="-0.54765">
        <ele>35</ele>
        <time>2011-09-01T15:38:30Z</time>
      </trkpt>
      <trkpt lat="47.4707" lon="-0.54764">
        <ele>35</ele>
        <time>2011-09-01T15:38:32Z</time>
      </trkpt>
      <trkpt lat="47.47069" lon="-0.54764">
        <ele>35</ele>
        <time>2011-09-01T15:38:33Z</time>
      </trkpt>
      <trkpt lat="47.47068" lon="-0.54763">
        <ele>35</ele>
        <time>2011-09-01T15:38:34Z</time>
      </trkpt>
      <trkpt lat="47.47067" lon="-0.54761">
        <ele>35</ele>
        <time>2011-09-01T15:38:35Z</time>
      </trkpt>
      <trkpt lat="47.47067" lon="-0.54759">
        <ele>35</ele>
        <time>2011-09-01T15:38:36Z</time>
      </trkpt>
      <trkpt lat="47.47066" lon="-0.54757">
        <ele>35</ele>
        <time>2011-09-01T15:38:37Z</time>
      </trkpt>
      <trkpt lat="47.47064" lon="-0.54756">
        <ele>35</ele>
        <time>2011-09-01T15:38:41Z</time>
      </trkpt>
      <trkpt lat="47.47063" lon="-0.54755">
        <ele>35</ele>
        <time>2011-09-01T15:38:43Z</time>
      </trkpt>
      <trkpt lat="47.47062" lon="-0.54754">
        <ele>36</ele>
        <time>2011-09-01T15:38:44Z</time>
      </trkpt>
      <trkpt lat="47.47061" lon="-0.54752">
        <ele>37</ele>
        <time>2011-09-01T15:38:45Z</time>
      </trkpt>
      <trkpt lat="47.4706" lon="-0.5475">
        <ele>38</ele>
        <time>2011-09-01T15:38:46Z</time>
      </trkpt>
      <trkpt lat="47.47059" lon="-0.54748">
        <ele>39</ele>
        <time>2011-09-01T15:38:47Z</time>
      </trkpt>
      <trkpt lat="47.47058" lon="-0.54747">
        <ele>39</ele>
        <time>2011-09-01T15:38:48Z</time>
      </trkpt>
      <trkpt lat="47.47057" lon="-0.54745">
        <ele>39</ele>
        <time>2011-09-01T15:38:49Z</time>
      </trkpt>
      <trkpt lat="47.47055" lon="-0.54744">
        <ele>39</ele>
        <time>2011-09-01T15:38:50Z</time>
      </trkpt>
      <trkpt lat="47.47053" lon="-0.54743">
        <ele>39</ele>
        <time>2011-09-01T15:38:52Z</time>
      </trkpt>
      <trkpt lat="47.47052" lon="-0.54743">
        <ele>40</ele>
        <time>2011-09-01T15:38:54Z</time>
      </trkpt>
      <trkpt lat="47.4705" lon="-0.54743">
        <ele>41</ele>
        <time>2011-09-01T15:38:55Z</time>
      </trkpt>
      <trkpt lat="47.47049" lon="-0.54742">
        <ele>41</ele>
        <time>2011-09-01T15:38:56Z</time>
      </trkpt>
      <trkpt lat="47.47048" lon="-0.54742">
        <ele>41</ele>
        <time>2011-09-01T15:38:58Z</time>
      </trkpt>
      <trkpt lat="47.47047" lon="-0.54741">
        <ele>41</ele>
        <time>2011-09-01T15:39:00Z</time>
      </trkpt>
      <trkpt lat="47.47044" lon="-0.54741">
        <ele>41</ele>
        <time>2011-09-01T15:39:04Z</time>
      </trkpt>
      <trkpt lat="47.47042" lon="-0.54743">
        <ele>41</ele>
        <time>2011-09-01T15:39:07Z</time>
      </trkpt>
      <trkpt lat="47.47041" lon="-0.54742">
        <ele>42</ele>
        <time>2011-09-01T15:39:10Z</time>
      </trkpt>
      <trkpt lat="47.47039" lon="-0.54739">
        <ele>42</ele>
        <time>2011-09-01T15:39:12Z</time>
      </trkpt>
      <trkpt lat="47.47039" lon="-0.54737">
        <ele>42</ele>
        <time>2011-09-01T15:39:13Z</time>
      </trkpt>
      <trkpt lat="47.47038" lon="-0.54734">
        <ele>42</ele>
        <time>2011-09-01T15:39:14Z</time>
      </trkpt>
      <trkpt lat="47.47037" lon="-0.5473">
        <ele>42</ele>
        <time>2011-09-01T15:39:15Z</time>
      </trkpt>
      <trkpt lat="47.47036" lon="-0.54727">
        <ele>42</ele>
        <time>2011-09-01T15:39:16Z</time>
      </trkpt>
      <trkpt lat="47.47033" lon="-0.54723">
        <ele>42</ele>
        <time>2011-09-01T15:39:17Z</time>
      </trkpt>
      <trkpt lat="47.47033" lon="-0.5472">
        <ele>42</ele>
        <time>2011-09-01T15:39:18Z</time>
      </trkpt>
      <trkpt lat="47.47032" lon="-0.54717">
        <ele>42</ele>
        <time>2011-09-01T15:39:19Z</time>
      </trkpt>
      <trkpt lat="47.4703" lon="-0.54714">
        <ele>42</ele>
        <time>2011-09-01T15:39:20Z</time>
      </trkpt>
      <trkpt lat="47.47029" lon="-0.54711">
        <ele>42</ele>
        <time>2011-09-01T15:39:21Z</time>
      </trkpt>
      <trkpt lat="47.47027" lon="-0.54708">
        <ele>42</ele>
        <time>2011-09-01T15:39:22Z</time>
      </trkpt>
      <trkpt lat="47.47025" lon="-0.54706">
        <ele>42</ele>
        <time>2011-09-01T15:39:23Z</time>
      </trkpt>
      <trkpt lat="47.47023" lon="-0.54705">
        <ele>42</ele>
        <time>2011-09-01T15:39:24Z</time>
      </trkpt>
      <trkpt lat="47.47021" lon="-0.54704">
        <ele>42</ele>
        <time>2011-09-01T15:39:25Z</time>
      </trkpt>
      <trkpt lat="47.4702" lon="-0.54703">
        <ele>42</ele>
        <time>2011-09-01T15:39:26Z</time>
      </trkpt>
      <trkpt lat="47.4702" lon="-0.54701">
        <ele>42</ele>
        <time>2011-09-01T15:39:27Z</time>
      </trkpt>
      <trkpt lat="47.4702" lon="-0.54699">
        <ele>42</ele>
        <time>2011-09-01T15:39:28Z</time>
      </trkpt>
      <trkpt lat="47.4702" lon="-0.54697">
        <ele>42</ele>
        <time>2011-09-01T15:39:29Z</time>
      </trkpt>
      <trkpt lat="47.47021" lon="-0.54695">
        <ele>42</ele>
        <time>2011-09-01T15:39:30Z</time>
      </trkpt>
      <trkpt lat="47.47022" lon="-0.54693">
        <ele>42</ele>
        <time>2011-09-01T15:39:31Z</time>
      </trkpt>
      <trkpt lat="47.47022" lon="-0.54691">
        <ele>42</ele>
        <time>2011-09-01T15:39:32Z</time>
      </trkpt>
      <trkpt lat="47.47021" lon="-0.54688">
        <ele>42</ele>
        <time>2011-09-01T15:39:33Z</time>
      </trkpt>
      <trkpt lat="47.47021" lon="-0.54686">
        <ele>42</ele>
        <time>2011-09-01T15:39:34Z</time>
      </trkpt>
      <trkpt lat="47.47022" lon="-0.54683">
        <ele>42</ele>
        <time>2011-09-01T15:39:35Z</time>
      </trkpt>
      <trkpt lat="47.47022" lon="-0.54681">
        <ele>42</ele>
        <time>2011-09-01T15:39:36Z</time>
      </trkpt>
      <trkpt lat="47.47023" lon="-0.54678">
        <ele>42</ele>
        <time>2011-09-01T15:39:37Z</time>
      </trkpt>
      <trkpt lat="47.47024" lon="-0.54676">
        <ele>42</ele>
        <time>2011-09-01T15:39:38Z</time>
      </trkpt>
      <trkpt lat="47.47025" lon="-0.54674">
        <ele>42</ele>
        <time>2011-09-01T15:39:39Z</time>
      </trkpt>
      <trkpt lat="47.47026" lon="-0.54673">
        <ele>41</ele>
        <time>2011-09-01T15:39:40Z</time>
      </trkpt>
      <trkpt lat="47.47026" lon="-0.54671">
        <ele>41</ele>
        <time>2011-09-01T15:39:41Z</time>
      </trkpt>
      <trkpt lat="47.47027" lon="-0.54669">
        <ele>41</ele>
        <time>2011-09-01T15:39:42Z</time>
      </trkpt>
      <trkpt lat="47.47028" lon="-0.54667">
        <ele>40</ele>
        <time>2011-09-01T15:39:44Z</time>
      </trkpt>
      <trkpt lat="47.47029" lon="-0.54665">
        <ele>40</ele>
        <time>2011-09-01T15:39:45Z</time>
      </trkpt>
      <trkpt lat="47.47029" lon="-0.54663">
        <ele>40</ele>
        <time>2011-09-01T15:39:46Z</time>
      </trkpt>
      <trkpt lat="47.47029" lon="-0.54662">
        <ele>40</ele>
        <time>2011-09-01T15:39:47Z</time>
      </trkpt>
      <trkpt lat="47.4703" lon="-0.5466">
        <ele>40</ele>
        <time>2011-09-01T15:39:48Z</time>
      </trkpt>
      <trkpt lat="47.4703" lon="-0.54659">
        <ele>40</ele>
        <time>2011-09-01T15:39:49Z</time>
      </trkpt>
      <trkpt lat="47.4703" lon="-0.54657">
        <ele>40</ele>
        <time>2011-09-01T15:39:50Z</time>
      </trkpt>
      <trkpt lat="47.4703" lon="-0.54655">
        <ele>40</ele>
        <time>2011-09-01T15:39:51Z</time>
      </trkpt>
      <trkpt lat="47.47029" lon="-0.54653">
        <ele>40</ele>
        <time>2011-09-01T15:39:53Z</time>
      </trkpt>
      <trkpt lat="47.47029" lon="-0.5465">
        <ele>40</ele>
        <time>2011-09-01T15:39:55Z</time>
      </trkpt>
      <trkpt lat="47.4703" lon="-0.54647">
        <ele>40</ele>
        <time>2011-09-01T15:39:57Z</time>
      </trkpt>
      <trkpt lat="47.47031" lon="-0.54646">
        <ele>40</ele>
        <time>2011-09-01T15:39:59Z</time>
      </trkpt>
      <trkpt lat="47.47031" lon="-0.54644">
        <ele>40</ele>
        <time>2011-09-01T15:40:02Z</time>
      </trkpt>
      <trkpt lat="47.47033" lon="-0.54644">
        <ele>40</ele>
        <time>2011-09-01T15:40:06Z</time>
      </trkpt>
      <trkpt lat="47.47034" lon="-0.54644">
        <ele>40</ele>
        <time>2011-09-01T15:40:08Z</time>
      </trkpt>
      <trkpt lat="47.47035" lon="-0.54644">
        <ele>40</ele>
        <time>2011-09-01T15:40:11Z</time>
      </trkpt>
      <trkpt lat="47.47036" lon="-0.54646">
        <ele>40</ele>
        <time>2011-09-01T15:40:15Z</time>
      </trkpt>
      <trkpt lat="47.47036" lon="-0.54647">
        <ele>40</ele>
        <time>2011-09-01T15:40:17Z</time>
      </trkpt>
      <trkpt lat="47.47036" lon="-0.54649">
        <ele>40</ele>
        <time>2011-09-01T15:40:20Z</time>
      </trkpt>
      <trkpt lat="47.47036" lon="-0.54651">
        <ele>40</ele>
        <time>2011-09-01T15:40:23Z</time>
      </trkpt>
      <trkpt lat="47.47034" lon="-0.5465">
        <ele>40</ele>
        <time>2011-09-01T15:40:32Z</time>
      </trkpt>
      <trkpt lat="47.47034" lon="-0.54649">
        <ele>42</ele>
        <time>2011-09-01T15:40:39Z</time>
      </trkpt>
      <trkpt lat="47.47035" lon="-0.54647">
        <ele>42</ele>
        <time>2011-09-01T15:40:44Z</time>
      </trkpt>
      <trkpt lat="47.47036" lon="-0.54645">
        <ele>42</ele>
        <time>2011-09-01T15:40:46Z</time>
      </trkpt>
      <trkpt lat="47.47037" lon="-0.54643">
        <ele>42</ele>
        <time>2011-09-01T15:40:48Z</time>
      </trkpt>
      <trkpt lat="47.47038" lon="-0.54641">
        <ele>42</ele>
        <time>2011-09-01T15:40:49Z</time>
      </trkpt>
      <trkpt lat="47.47038" lon="-0.54639">
        <ele>42</ele>
        <time>2011-09-01T15:40:50Z</time>
      </trkpt>
      <trkpt lat="47.47038" lon="-0.54637">
        <ele>42</ele>
        <time>2011-09-01T15:40:51Z</time>
      </trkpt>
      <trkpt lat="47.47038" lon="-0.54634">
        <ele>42</ele>
        <time>2011-09-01T15:40:52Z</time>
      </trkpt>
      <trkpt lat="47.47038" lon="-0.54631">
        <ele>42</ele>
        <time>2011-09-01T15:40:53Z</time>
      </trkpt>
      <trkpt lat="47.47038" lon="-0.54628">
        <ele>42</ele>
        <time>2011-09-01T15:40:54Z</time>
      </trkpt>
      <trkpt lat="47.47038" lon="-0.54625">
        <ele>42</ele>
        <time>2011-09-01T15:40:55Z</time>
      </trkpt>
      <trkpt lat="47.47038" lon="-0.54622">
        <ele>42</ele>
        <time>2011-09-01T15:40:56Z</time>
      </trkpt>
      <trkpt lat="47.47038" lon="-0.54619">
        <ele>42</ele>
        <time>2011-09-01T15:40:57Z</time>
      </trkpt>
      <trkpt lat="47.47037" lon="-0.54616">
        <ele>41</ele>
        <time>2011-09-01T15:40:58Z</time>
      </trkpt>
      <trkpt lat="47.47037" lon="-0.54614">
        <ele>41</ele>
        <time>2011-09-01T15:40:59Z</time>
      </trkpt>
      <trkpt lat="47.47037" lon="-0.54611">
        <ele>41</ele>
        <time>2011-09-01T15:41:00Z</time>
      </trkpt>
      <trkpt lat="47.47036" lon="-0.54608">
        <ele>41</ele>
        <time>2011-09-01T15:41:01Z</time>
      </trkpt>
      <trkpt lat="47.47036" lon="-0.54605">
        <ele>41</ele>
        <time>2011-09-01T15:41:02Z</time>
      </trkpt>
      <trkpt lat="47.47036" lon="-0.54602">
        <ele>40</ele>
        <time>2011-09-01T15:41:03Z</time>
      </trkpt>
      <trkpt lat="47.47035" lon="-0.546">
        <ele>40</ele>
        <time>2011-09-01T15:41:04Z</time>
      </trkpt>
      <trkpt lat="47.47033" lon="-0.54598">
        <ele>40</ele>
        <time>2011-09-01T15:41:05Z</time>
      </trkpt>
      <trkpt lat="47.47032" lon="-0.54596">
        <ele>40</ele>
        <time>2011-09-01T15:41:06Z</time>
      </trkpt>
      <trkpt lat="47.4703" lon="-0.54595">
        <ele>40</ele>
        <time>2011-09-01T15:41:07Z</time>
      </trkpt>
      <trkpt lat="47.47028" lon="-0.54593">
        <ele>40</ele>
        <time>2011-09-01T15:41:08Z</time>
      </trkpt>
      <trkpt lat="47.47027" lon="-0.5459">
        <ele>40</ele>
        <time>2011-09-01T15:41:09Z</time>
      </trkpt>
      <trkpt lat="47.47026" lon="-0.54588">
        <ele>40</ele>
        <time>2011-09-01T15:41:10Z</time>
      </trkpt>
      <trkpt lat="47.47024" lon="-0.54586">
        <ele>40</ele>
        <time>2011-09-01T15:41:11Z</time>
      </trkpt>
      <trkpt lat="47.47023" lon="-0.54584">
        <ele>40</ele>
        <time>2011-09-01T15:41:12Z</time>
      </trkpt>
      <trkpt lat="47.47021" lon="-0.54582">
        <ele>40</ele>
        <time>2011-09-01T15:41:13Z</time>
      </trkpt>
      <trkpt lat="47.4702" lon="-0.5458">
        <ele>40</ele>
        <time>2011-09-01T15:41:14Z</time>
      </trkpt>
      <trkpt lat="47.47018" lon="-0.54578">
        <ele>40</ele>
        <time>2011-09-01T15:41:15Z</time>
      </trkpt>
      <trkpt lat="47.47017" lon="-0.54576">
        <ele>40</ele>
        <time>2011-09-01T15:41:16Z</time>
      </trkpt>
      <trkpt lat="47.47015" lon="-0.54573">
        <ele>40</ele>
        <time>2011-09-01T15:41:17Z</time>
      </trkpt>
      <trkpt lat="47.47015" lon="-0.54571">
        <ele>40</ele>
        <time>2011-09-01T15:41:18Z</time>
      </trkpt>
      <trkpt lat="47.47014" lon="-0.54568">
        <ele>40</ele>
        <time>2011-09-01T15:41:19Z</time>
      </trkpt>
      <trkpt lat="47.47013" lon="-0.54565">
        <ele>40</ele>
        <time>2011-09-01T15:41:20Z</time>
      </trkpt>
      <trkpt lat="47.47013" lon="-0.54563">
        <ele>40</ele>
        <time>2011-09-01T15:41:21Z</time>
      </trkpt>
      <trkpt lat="47.47012" lon="-0.5456">
        <ele>40</ele>
        <time>2011-09-01T15:41:22Z</time>
      </trkpt>
      <trkpt lat="47.47012" lon="-0.54557">
        <ele>40</ele>
        <time>2011-09-01T15:41:23Z</time>
      </trkpt>
      <trkpt lat="47.47012" lon="-0.54554">
        <ele>40</ele>
        <time>2011-09-01T15:41:24Z</time>
      </trkpt>
      <trkpt lat="47.47012" lon="-0.54551">
        <ele>40</ele>
        <time>2011-09-01T15:41:25Z</time>
      </trkpt>
      <trkpt lat="47.47013" lon="-0.54549">
        <ele>40</ele>
        <time>2011-09-01T15:41:26Z</time>
      </trkpt>
      <trkpt lat="47.47013" lon="-0.54546">
        <ele>40</ele>
        <time>2011-09-01T15:41:27Z</time>
      </trkpt>
      <trkpt lat="47.47012" lon="-0.54544">
        <ele>40</ele>
        <time>2011-09-01T15:41:28Z</time>
      </trkpt>
      <trkpt lat="47.47012" lon="-0.54541">
        <ele>40</ele>
        <time>2011-09-01T15:41:29Z</time>
      </trkpt>
      <trkpt lat="47.47012" lon="-0.54538">
        <ele>40</ele>
        <time>2011-09-01T15:41:30Z</time>
      </trkpt>
      <trkpt lat="47.47011" lon="-0.54535">
        <ele>39</ele>
        <time>2011-09-01T15:41:31Z</time>
      </trkpt>
      <trkpt lat="47.4701" lon="-0.54532">
        <ele>39</ele>
        <time>2011-09-01T15:41:32Z</time>
      </trkpt>
      <trkpt lat="47.47009" lon="-0.5453">
        <ele>39</ele>
        <time>2011-09-01T15:41:33Z</time>
      </trkpt>
      <trkpt lat="47.47007" lon="-0.54528">
        <ele>39</ele>
        <time>2011-09-01T15:41:34Z</time>
      </trkpt>
      <trkpt lat="47.47007" lon="-0.54526">
        <ele>39</ele>
        <time>2011-09-01T15:41:35Z</time>
      </trkpt>
      <trkpt lat="47.47006" lon="-0.54524">
        <ele>39</ele>
        <time>2011-09-01T15:41:36Z</time>
      </trkpt>
      <trkpt lat="47.47005" lon="-0.54522">
        <ele>39</ele>
        <time>2011-09-01T15:41:37Z</time>
      </trkpt>
      <trkpt lat="47.47004" lon="-0.5452">
        <ele>39</ele>
        <time>2011-09-01T15:41:38Z</time>
      </trkpt>
      <trkpt lat="47.47003" lon="-0.54518">
        <ele>38</ele>
        <time>2011-09-01T15:41:39Z</time>
      </trkpt>
      <trkpt lat="47.47002" lon="-0.54517">
        <ele>38</ele>
        <time>2011-09-01T15:41:40Z</time>
      </trkpt>
      <trkpt lat="47.47001" lon="-0.54515">
        <ele>38</ele>
        <time>2011-09-01T15:41:41Z</time>
      </trkpt>
      <trkpt lat="47.47001" lon="-0.54512">
        <ele>38</ele>
        <time>2011-09-01T15:41:42Z</time>
      </trkpt>
      <trkpt lat="47.47" lon="-0.5451">
        <ele>38</ele>
        <time>2011-09-01T15:41:43Z</time>
      </trkpt>
      <trkpt lat="47.46999" lon="-0.54507">
        <ele>38</ele>
        <time>2011-09-01T15:41:44Z</time>
      </trkpt>
      <trkpt lat="47.46999" lon="-0.54505">
        <ele>38</ele>
        <time>2011-09-01T15:41:45Z</time>
      </trkpt>
      <trkpt lat="47.46998" lon="-0.54503">
        <ele>38</ele>
        <time>2011-09-01T15:41:46Z</time>
      </trkpt>
      <trkpt lat="47.46997" lon="-0.54501">
        <ele>38</ele>
        <time>2011-09-01T15:41:47Z</time>
      </trkpt>
      <trkpt lat="47.46996" lon="-0.54498">
        <ele>37</ele>
        <time>2011-09-01T15:41:48Z</time>
      </trkpt>
      <trkpt lat="47.46995" lon="-0.54496">
        <ele>37</ele>
        <time>2011-09-01T15:41:49Z</time>
      </trkpt>
      <trkpt lat="47.46995" lon="-0.54493">
        <ele>37</ele>
        <time>2011-09-01T15:41:50Z</time>
      </trkpt>
      <trkpt lat="47.46994" lon="-0.54491">
        <ele>37</ele>
        <time>2011-09-01T15:41:51Z</time>
      </trkpt>
      <trkpt lat="47.46993" lon="-0.54489">
        <ele>37</ele>
        <time>2011-09-01T15:41:52Z</time>
      </trkpt>
      <trkpt lat="47.46992" lon="-0.54487">
        <ele>37</ele>
        <time>2011-09-01T15:41:53Z</time>
      </trkpt>
      <trkpt lat="47.46991" lon="-0.54484">
        <ele>36</ele>
        <time>2011-09-01T15:41:54Z</time>
      </trkpt>
      <trkpt lat="47.4699" lon="-0.54482">
        <ele>36</ele>
        <time>2011-09-01T15:41:55Z</time>
      </trkpt>
      <trkpt lat="47.46989" lon="-0.5448">
        <ele>36</ele>
        <time>2011-09-01T15:41:56Z</time>
      </trkpt>
      <trkpt lat="47.46989" lon="-0.54478">
        <ele>36</ele>
        <time>2011-09-01T15:41:57Z</time>
      </trkpt>
      <trkpt lat="47.46988" lon="-0.54475">
        <ele>36</ele>
        <time>2011-09-01T15:41:58Z</time>
      </trkpt>
      <trkpt lat="47.46987" lon="-0.54473">
        <ele>36</ele>
        <time>2011-09-01T15:41:59Z</time>
      </trkpt>
      <trkpt lat="47.46987" lon="-0.5447">
        <ele>35</ele>
        <time>2011-09-01T15:42:00Z</time>
      </trkpt>
      <trkpt lat="47.46986" lon="-0.54468">
        <ele>35</ele>
        <time>2011-09-01T15:42:01Z</time>
      </trkpt>
      <trkpt lat="47.46985" lon="-0.54466">
        <ele>35</ele>
        <time>2011-09-01T15:42:02Z</time>
      </trkpt>
      <trkpt lat="47.46984" lon="-0.54464">
        <ele>35</ele>
        <time>2011-09-01T15:42:03Z</time>
      </trkpt>
      <trkpt lat="47.46983" lon="-0.54461">
        <ele>35</ele>
        <time>2011-09-01T15:42:04Z</time>
      </trkpt>
      <trkpt lat="47.46983" lon="-0.54459">
        <ele>35</ele>
        <time>2011-09-01T15:42:05Z</time>
      </trkpt>
      <trkpt lat="47.46983" lon="-0.54456">
        <ele>35</ele>
        <time>2011-09-01T15:42:06Z</time>
      </trkpt>
      <trkpt lat="47.46983" lon="-0.54454">
        <ele>35</ele>
        <time>2011-09-01T15:42:07Z</time>
      </trkpt>
      <trkpt lat="47.46983" lon="-0.54451">
        <ele>35</ele>
        <time>2011-09-01T15:42:08Z</time>
      </trkpt>
      <trkpt lat="47.46984" lon="-0.54449">
        <ele>35</ele>
        <time>2011-09-01T15:42:09Z</time>
      </trkpt>
      <trkpt lat="47.46985" lon="-0.54446">
        <ele>35</ele>
        <time>2011-09-01T15:42:10Z</time>
      </trkpt>
      <trkpt lat="47.46986" lon="-0.54444">
        <ele>35</ele>
        <time>2011-09-01T15:42:11Z</time>
      </trkpt>
      <trkpt lat="47.46988" lon="-0.54442">
        <ele>35</ele>
        <time>2011-09-01T15:42:12Z</time>
      </trkpt>
      <trkpt lat="47.46989" lon="-0.5444">
        <ele>35</ele>
        <time>2011-09-01T15:42:13Z</time>
      </trkpt>
      <trkpt lat="47.46991" lon="-0.54439">
        <ele>35</ele>
        <time>2011-09-01T15:42:15Z</time>
      </trkpt>
      <trkpt lat="47.46992" lon="-0.5444">
        <ele>35</ele>
        <time>2011-09-01T15:42:16Z</time>
      </trkpt>
      <trkpt lat="47.46993" lon="-0.54439">
        <ele>35</ele>
        <time>2011-09-01T15:42:18Z</time>
      </trkpt>
      <trkpt lat="47.46995" lon="-0.54439">
        <ele>35</ele>
        <time>2011-09-01T15:42:20Z</time>
      </trkpt>
      <trkpt lat="47.46996" lon="-0.54442">
        <ele>35</ele>
        <time>2011-09-01T15:42:22Z</time>
      </trkpt>
      <trkpt lat="47.46997" lon="-0.54444">
        <ele>36</ele>
        <time>2011-09-01T15:42:24Z</time>
      </trkpt>
      <trkpt lat="47.46997" lon="-0.54446">
        <ele>36</ele>
        <time>2011-09-01T15:42:25Z</time>
      </trkpt>
      <trkpt lat="47.46997" lon="-0.54448">
        <ele>37</ele>
        <time>2011-09-01T15:42:26Z</time>
      </trkpt>
      <trkpt lat="47.46999" lon="-0.54451">
        <ele>37</ele>
        <time>2011-09-01T15:42:28Z</time>
      </trkpt>
      <trkpt lat="47.46999" lon="-0.54453">
        <ele>37</ele>
        <time>2011-09-01T15:42:29Z</time>
      </trkpt>
      <trkpt lat="47.46999" lon="-0.54454">
        <ele>37</ele>
        <time>2011-09-01T15:42:30Z</time>
      </trkpt>
      <trkpt lat="47.47001" lon="-0.54457">
        <ele>37</ele>
        <time>2011-09-01T15:42:31Z</time>
      </trkpt>
      <trkpt lat="47.47001" lon="-0.54459">
        <ele>37</ele>
        <time>2011-09-01T15:42:32Z</time>
      </trkpt>
      <trkpt lat="47.47003" lon="-0.54462">
        <ele>38</ele>
        <time>2011-09-01T15:42:33Z</time>
      </trkpt>
      <trkpt lat="47.47004" lon="-0.54465">
        <ele>39</ele>
        <time>2011-09-01T15:42:34Z</time>
      </trkpt>
      <trkpt lat="47.47004" lon="-0.54467">
        <ele>40</ele>
        <time>2011-09-01T15:42:35Z</time>
      </trkpt>
      <trkpt lat="47.47005" lon="-0.5447">
        <ele>40</ele>
        <time>2011-09-01T15:42:36Z</time>
      </trkpt>
      <trkpt lat="47.47007" lon="-0.54472">
        <ele>41</ele>
        <time>2011-09-01T15:42:37Z</time>
      </trkpt>
      <trkpt lat="47.47008" lon="-0.54474">
        <ele>41</ele>
        <time>2011-09-01T15:42:38Z</time>
      </trkpt>
      <trkpt lat="47.47009" lon="-0.54477">
        <ele>42</ele>
        <time>2011-09-01T15:42:39Z</time>
      </trkpt>
      <trkpt lat="47.47009" lon="-0.5448">
        <ele>42</ele>
        <time>2011-09-01T15:42:40Z</time>
      </trkpt>
      <trkpt lat="47.4701" lon="-0.54482">
        <ele>42</ele>
        <time>2011-09-01T15:42:41Z</time>
      </trkpt>
      <trkpt lat="47.47011" lon="-0.54484">
        <ele>42</ele>
        <time>2011-09-01T15:42:42Z</time>
      </trkpt>
      <trkpt lat="47.47011" lon="-0.54486">
        <ele>43</ele>
        <time>2011-09-01T15:42:43Z</time>
      </trkpt>
      <trkpt lat="47.47012" lon="-0.54488">
        <ele>43</ele>
        <time>2011-09-01T15:42:44Z</time>
      </trkpt>
      <trkpt lat="47.47012" lon="-0.54492">
        <ele>44</ele>
        <time>2011-09-01T15:42:45Z</time>
      </trkpt>
      <trkpt lat="47.47012" lon="-0.54494">
        <ele>44</ele>
        <time>2011-09-01T15:42:46Z</time>
      </trkpt>
      <trkpt lat="47.47012" lon="-0.54496">
        <ele>44</ele>
        <time>2011-09-01T15:42:47Z</time>
      </trkpt>
      <trkpt lat="47.47013" lon="-0.54498">
        <ele>45</ele>
        <time>2011-09-01T15:42:48Z</time>
      </trkpt>
      <trkpt lat="47.47015" lon="-0.545">
        <ele>45</ele>
        <time>2011-09-01T15:42:49Z</time>
      </trkpt>
      <trkpt lat="47.47017" lon="-0.54501">
        <ele>45</ele>
        <time>2011-09-01T15:42:50Z</time>
      </trkpt>
      <trkpt lat="47.47019" lon="-0.54503">
        <ele>45</ele>
        <time>2011-09-01T15:42:51Z</time>
      </trkpt>
      <trkpt lat="47.47021" lon="-0.54504">
        <ele>45</ele>
        <time>2011-09-01T15:42:52Z</time>
      </trkpt>
      <trkpt lat="47.47023" lon="-0.54506">
        <ele>45</ele>
        <time>2011-09-01T15:42:53Z</time>
      </trkpt>
      <trkpt lat="47.47025" lon="-0.54508">
        <ele>45</ele>
        <time>2011-09-01T15:42:54Z</time>
      </trkpt>
      <trkpt lat="47.47026" lon="-0.5451">
        <ele>45</ele>
        <time>2011-09-01T15:42:55Z</time>
      </trkpt>
      <trkpt lat="47.47027" lon="-0.54511">
        <ele>45</ele>
        <time>2011-09-01T15:42:56Z</time>
      </trkpt>
      <trkpt lat="47.47028" lon="-0.54514">
        <ele>45</ele>
        <time>2011-09-01T15:42:57Z</time>
      </trkpt>
      <trkpt lat="47.47029" lon="-0.54516">
        <ele>45</ele>
        <time>2011-09-01T15:42:58Z</time>
      </trkpt>
      <trkpt lat="47.4703" lon="-0.54518">
        <ele>45</ele>
        <time>2011-09-01T15:42:59Z</time>
      </trkpt>
      <trkpt lat="47.4703" lon="-0.5452">
        <ele>45</ele>
        <time>2011-09-01T15:43:00Z</time>
      </trkpt>
      <trkpt lat="47.47031" lon="-0.54523">
        <ele>45</ele>
        <time>2011-09-01T15:43:01Z</time>
      </trkpt>
      <trkpt lat="47.47031" lon="-0.54524">
        <ele>45</ele>
        <time>2011-09-01T15:43:02Z</time>
      </trkpt>
      <trkpt lat="47.47032" lon="-0.54526">
        <ele>45</ele>
        <time>2011-09-01T15:43:03Z</time>
      </trkpt>
      <trkpt lat="47.47032" lon="-0.54528">
        <ele>45</ele>
        <time>2011-09-01T15:43:04Z</time>
      </trkpt>
      <trkpt lat="47.47032" lon="-0.5453">
        <ele>45</ele>
        <time>2011-09-01T15:43:05Z</time>
      </trkpt>
      <trkpt lat="47.47032" lon="-0.54533">
        <ele>45</ele>
        <time>2011-09-01T15:43:06Z</time>
      </trkpt>
      <trkpt lat="47.47033" lon="-0.54535">
        <ele>45</ele>
        <time>2011-09-01T15:43:07Z</time>
      </trkpt>
      <trkpt lat="47.47033" lon="-0.54537">
        <ele>45</ele>
        <time>2011-09-01T15:43:08Z</time>
      </trkpt>
      <trkpt lat="47.47033" lon="-0.54539">
        <ele>44</ele>
        <time>2011-09-01T15:43:09Z</time>
      </trkpt>
      <trkpt lat="47.47033" lon="-0.54541">
        <ele>44</ele>
        <time>2011-09-01T15:43:10Z</time>
      </trkpt>
      <trkpt lat="47.47033" lon="-0.54544">
        <ele>44</ele>
        <time>2011-09-01T15:43:11Z</time>
      </trkpt>
      <trkpt lat="47.47033" lon="-0.54546">
        <ele>43</ele>
        <time>2011-09-01T15:43:12Z</time>
      </trkpt>
      <trkpt lat="47.47033" lon="-0.54549">
        <ele>43</ele>
        <time>2011-09-01T15:43:13Z</time>
      </trkpt>
      <trkpt lat="47.47033" lon="-0.54551">
        <ele>43</ele>
        <time>2011-09-01T15:43:14Z</time>
      </trkpt>
      <trkpt lat="47.47033" lon="-0.54553">
        <ele>43</ele>
        <time>2011-09-01T15:43:15Z</time>
      </trkpt>
      <trkpt lat="47.47033" lon="-0.54555">
        <ele>42</ele>
        <time>2011-09-01T15:43:16Z</time>
      </trkpt>
      <trkpt lat="47.47033" lon="-0.54558">
        <ele>42</ele>
        <time>2011-09-01T15:43:17Z</time>
      </trkpt>
      <trkpt lat="47.47033" lon="-0.5456">
        <ele>42</ele>
        <time>2011-09-01T15:43:18Z</time>
      </trkpt>
      <trkpt lat="47.47033" lon="-0.54562">
        <ele>42</ele>
        <time>2011-09-01T15:43:19Z</time>
      </trkpt>
      <trkpt lat="47.47033" lon="-0.54565">
        <ele>41</ele>
        <time>2011-09-01T15:43:20Z</time>
      </trkpt>
      <trkpt lat="47.47032" lon="-0.54568">
        <ele>41</ele>
        <time>2011-09-01T15:43:21Z</time>
      </trkpt>
      <trkpt lat="47.47031" lon="-0.5457">
        <ele>41</ele>
        <time>2011-09-01T15:43:22Z</time>
      </trkpt>
      <trkpt lat="47.47031" lon="-0.54572">
        <ele>41</ele>
        <time>2011-09-01T15:43:23Z</time>
      </trkpt>
      <trkpt lat="47.47031" lon="-0.54574">
        <ele>41</ele>
        <time>2011-09-01T15:43:24Z</time>
      </trkpt>
      <trkpt lat="47.4703" lon="-0.54577">
        <ele>41</ele>
        <time>2011-09-01T15:43:25Z</time>
      </trkpt>
      <trkpt lat="47.4703" lon="-0.54579">
        <ele>41</ele>
        <time>2011-09-01T15:43:26Z</time>
      </trkpt>
      <trkpt lat="47.4703" lon="-0.54581">
        <ele>41</ele>
        <time>2011-09-01T15:43:27Z</time>
      </trkpt>
      <trkpt lat="47.4703" lon="-0.54584">
        <ele>41</ele>
        <time>2011-09-01T15:43:28Z</time>
      </trkpt>
      <trkpt lat="47.4703" lon="-0.54586">
        <ele>41</ele>
        <time>2011-09-01T15:43:29Z</time>
      </trkpt>
      <trkpt lat="47.4703" lon="-0.54588">
        <ele>41</ele>
        <time>2011-09-01T15:43:30Z</time>
      </trkpt>
      <trkpt lat="47.4703" lon="-0.5459">
        <ele>41</ele>
        <time>2011-09-01T15:43:31Z</time>
      </trkpt>
      <trkpt lat="47.47031" lon="-0.54592">
        <ele>41</ele>
        <time>2011-09-01T15:43:32Z</time>
      </trkpt>
      <trkpt lat="47.47031" lon="-0.54594">
        <ele>41</ele>
        <time>2011-09-01T15:43:33Z</time>
      </trkpt>
      <trkpt lat="47.47032" lon="-0.54596">
        <ele>41</ele>
        <time>2011-09-01T15:43:34Z</time>
      </trkpt>
      <trkpt lat="47.47032" lon="-0.54598">
        <ele>41</ele>
        <time>2011-09-01T15:43:35Z</time>
      </trkpt>
      <trkpt lat="47.47032" lon="-0.54599">
        <ele>41</ele>
        <time>2011-09-01T15:43:36Z</time>
      </trkpt>
      <trkpt lat="47.47032" lon="-0.54601">
        <ele>41</ele>
        <time>2011-09-01T15:43:37Z</time>
      </trkpt>
      <trkpt lat="47.47033" lon="-0.54602">
        <ele>41</ele>
        <time>2011-09-01T15:43:38Z</time>
      </trkpt>
      <trkpt lat="47.47033" lon="-0.54604">
        <ele>41</ele>
        <time>2011-09-01T15:43:39Z</time>
      </trkpt>
      <trkpt lat="47.47033" lon="-0.54606">
        <ele>41</ele>
        <time>2011-09-01T15:43:40Z</time>
      </trkpt>
      <trkpt lat="47.47033" lon="-0.54608">
        <ele>41</ele>
        <time>2011-09-01T15:43:41Z</time>
      </trkpt>
      <trkpt lat="47.47033" lon="-0.54611">
        <ele>41</ele>
        <time>2011-09-01T15:43:42Z</time>
      </trkpt>
      <trkpt lat="47.47033" lon="-0.54613">
        <ele>41</ele>
        <time>2011-09-01T15:43:43Z</time>
      </trkpt>
      <trkpt lat="47.47034" lon="-0.54615">
        <ele>41</ele>
        <time>2011-09-01T15:43:44Z</time>
      </trkpt>
      <trkpt lat="47.47035" lon="-0.54617">
        <ele>41</ele>
        <time>2011-09-01T15:43:45Z</time>
      </trkpt>
      <trkpt lat="47.47035" lon="-0.5462">
        <ele>41</ele>
        <time>2011-09-01T15:43:46Z</time>
      </trkpt>
      <trkpt lat="47.47036" lon="-0.54622">
        <ele>41</ele>
        <time>2011-09-01T15:43:47Z</time>
      </trkpt>
      <trkpt lat="47.47036" lon="-0.54624">
        <ele>41</ele>
        <time>2011-09-01T15:43:48Z</time>
      </trkpt>
      <trkpt lat="47.47036" lon="-0.54627">
        <ele>40</ele>
        <time>2011-09-01T15:43:49Z</time>
      </trkpt>
      <trkpt lat="47.47037" lon="-0.5463">
        <ele>40</ele>
        <time>2011-09-01T15:43:50Z</time>
      </trkpt>
      <trkpt lat="47.47037" lon="-0.54633">
        <ele>40</ele>
        <time>2011-09-01T15:43:51Z</time>
      </trkpt>
      <trkpt lat="47.47037" lon="-0.54636">
        <ele>40</ele>
        <time>2011-09-01T15:43:52Z</time>
      </trkpt>
      <trkpt lat="47.47036" lon="-0.54638">
        <ele>40</ele>
        <time>2011-09-01T15:43:53Z</time>
      </trkpt>
      <trkpt lat="47.47036" lon="-0.54641">
        <ele>40</ele>
        <time>2011-09-01T15:43:54Z</time>
      </trkpt>
      <trkpt lat="47.47035" lon="-0.54643">
        <ele>40</ele>
        <time>2011-09-01T15:43:55Z</time>
      </trkpt>
      <trkpt lat="47.47035" lon="-0.54644">
        <ele>39</ele>
        <time>2011-09-01T15:43:56Z</time>
      </trkpt>
      <trkpt lat="47.47035" lon="-0.54646">
        <ele>39</ele>
        <time>2011-09-01T15:43:57Z</time>
      </trkpt>
      <trkpt lat="47.47034" lon="-0.54648">
        <ele>39</ele>
        <time>2011-09-01T15:43:58Z</time>
      </trkpt>
      <trkpt lat="47.47034" lon="-0.5465">
        <ele>39</ele>
        <time>2011-09-01T15:43:59Z</time>
      </trkpt>
      <trkpt lat="47.47034" lon="-0.54652">
        <ele>38</ele>
        <time>2011-09-01T15:44:00Z</time>
      </trkpt>
      <trkpt lat="47.47033" lon="-0.54654">
        <ele>38</ele>
        <time>2011-09-01T15:44:01Z</time>
      </trkpt>
      <trkpt lat="47.47033" lon="-0.54656">
        <ele>38</ele>
        <time>2011-09-01T15:44:02Z</time>
      </trkpt>
      <trkpt lat="47.47032" lon="-0.54658">
        <ele>38</ele>
        <time>2011-09-01T15:44:03Z</time>
      </trkpt>
      <trkpt lat="47.47031" lon="-0.5466">
        <ele>38</ele>
        <time>2011-09-01T15:44:04Z</time>
      </trkpt>
      <trkpt lat="47.4703" lon="-0.54662">
        <ele>38</ele>
        <time>2011-09-01T15:44:05Z</time>
      </trkpt>
      <trkpt lat="47.47029" lon="-0.54663">
        <ele>38</ele>
        <time>2011-09-01T15:44:06Z</time>
      </trkpt>
      <trkpt lat="47.47028" lon="-0.54665">
        <ele>38</ele>
        <time>2011-09-01T15:44:07Z</time>
      </trkpt>
      <trkpt lat="47.47028" lon="-0.54666">
        <ele>38</ele>
        <time>2011-09-01T15:44:08Z</time>
      </trkpt>
      <trkpt lat="47.47026" lon="-0.54668">
        <ele>37</ele>
        <time>2011-09-01T15:44:10Z</time>
      </trkpt>
      <trkpt lat="47.47025" lon="-0.54671">
        <ele>37</ele>
        <time>2011-09-01T15:44:12Z</time>
      </trkpt>
      <trkpt lat="47.47024" lon="-0.54673">
        <ele>37</ele>
        <time>2011-09-01T15:44:14Z</time>
      </trkpt>
      <trkpt lat="47.47025" lon="-0.54675">
        <ele>37</ele>
        <time>2011-09-01T15:44:16Z</time>
      </trkpt>
      <trkpt lat="47.47025" lon="-0.54677">
        <ele>37</ele>
        <time>2011-09-01T15:44:18Z</time>
      </trkpt>
      <trkpt lat="47.47025" lon="-0.54679">
        <ele>37</ele>
        <time>2011-09-01T15:44:19Z</time>
      </trkpt>
      <trkpt lat="47.47025" lon="-0.54681">
        <ele>37</ele>
        <time>2011-09-01T15:44:20Z</time>
      </trkpt>
      <trkpt lat="47.47025" lon="-0.54682">
        <ele>37</ele>
        <time>2011-09-01T15:44:21Z</time>
      </trkpt>
      <trkpt lat="47.47024" lon="-0.54684">
        <ele>37</ele>
        <time>2011-09-01T15:44:22Z</time>
      </trkpt>
      <trkpt lat="47.47023" lon="-0.54686">
        <ele>37</ele>
        <time>2011-09-01T15:44:23Z</time>
      </trkpt>
      <trkpt lat="47.47023" lon="-0.54688">
        <ele>37</ele>
        <time>2011-09-01T15:44:24Z</time>
      </trkpt>
      <trkpt lat="47.47023" lon="-0.5469">
        <ele>37</ele>
        <time>2011-09-01T15:44:25Z</time>
      </trkpt>
      <trkpt lat="47.47023" lon="-0.54693">
        <ele>37</ele>
        <time>2011-09-01T15:44:26Z</time>
      </trkpt>
      <trkpt lat="47.47023" lon="-0.54695">
        <ele>37</ele>
        <time>2011-09-01T15:44:27Z</time>
      </trkpt>
      <trkpt lat="47.47025" lon="-0.54697">
        <ele>37</ele>
        <time>2011-09-01T15:44:29Z</time>
      </trkpt>
      <trkpt lat="47.47026" lon="-0.54699">
        <ele>37</ele>
        <time>2011-09-01T15:44:30Z</time>
      </trkpt>
      <trkpt lat="47.47027" lon="-0.547">
        <ele>37</ele>
        <time>2011-09-01T15:44:31Z</time>
      </trkpt>
      <trkpt lat="47.47028" lon="-0.54703">
        <ele>37</ele>
        <time>2011-09-01T15:44:33Z</time>
      </trkpt>
      <trkpt lat="47.47029" lon="-0.54704">
        <ele>39</ele>
        <time>2011-09-01T15:44:35Z</time>
      </trkpt>
      <trkpt lat="47.47027" lon="-0.54706">
        <ele>41</ele>
        <time>2011-09-01T15:44:37Z</time>
      </trkpt>
      <trkpt lat="47.47026" lon="-0.54707">
        <ele>42</ele>
        <time>2011-09-01T15:44:38Z</time>
      </trkpt>
      <trkpt lat="47.47025" lon="-0.54708">
        <ele>44</ele>
        <time>2011-09-01T15:44:40Z</time>
      </trkpt>
      <trkpt lat="47.47026" lon="-0.5471">
        <ele>46</ele>
        <time>2011-09-01T15:44:42Z</time>
      </trkpt>
      <trkpt lat="47.47025" lon="-0.54713">
        <ele>48</ele>
        <time>2011-09-01T15:44:44Z</time>
      </trkpt>
      <trkpt lat="47.47023" lon="-0.54715">
        <ele>49</ele>
        <time>2011-09-01T15:44:45Z</time>
      </trkpt>
      <trkpt lat="47.47022" lon="-0.54717">
        <ele>50</ele>
        <time>2011-09-01T15:44:46Z</time>
      </trkpt>
      <trkpt lat="47.47023" lon="-0.5472">
        <ele>50</ele>
        <time>2011-09-01T15:44:47Z</time>
      </trkpt>
      <trkpt lat="47.47024" lon="-0.54722">
        <ele>50</ele>
        <time>2011-09-01T15:44:48Z</time>
      </trkpt>
      <trkpt lat="47.47025" lon="-0.54724">
        <ele>50</ele>
        <time>2011-09-01T15:44:49Z</time>
      </trkpt>
      <trkpt lat="47.47025" lon="-0.54725">
        <ele>50</ele>
        <time>2011-09-01T15:44:50Z</time>
      </trkpt>
      <trkpt lat="47.47025" lon="-0.54728">
        <ele>50</ele>
        <time>2011-09-01T15:44:52Z</time>
      </trkpt>
      <trkpt lat="47.47026" lon="-0.5473">
        <ele>50</ele>
        <time>2011-09-01T15:44:53Z</time>
      </trkpt>
      <trkpt lat="47.47025" lon="-0.54731">
        <ele>50</ele>
        <time>2011-09-01T15:44:54Z</time>
      </trkpt>
      <trkpt lat="47.47026" lon="-0.54734">
        <ele>49</ele>
        <time>2011-09-01T15:44:56Z</time>
      </trkpt>
      <trkpt lat="47.47029" lon="-0.54735">
        <ele>48</ele>
        <time>2011-09-01T15:44:58Z</time>
      </trkpt>
      <trkpt lat="47.47032" lon="-0.54736">
        <ele>48</ele>
        <time>2011-09-01T15:44:59Z</time>
      </trkpt>
      <trkpt lat="47.47034" lon="-0.54736">
        <ele>48</ele>
        <time>2011-09-01T15:45:00Z</time>
      </trkpt>
      <trkpt lat="47.47036" lon="-0.54737">
        <ele>48</ele>
        <time>2011-09-01T15:45:01Z</time>
      </trkpt>
      <trkpt lat="47.47037" lon="-0.54738">
        <ele>47</ele>
        <time>2011-09-01T15:45:02Z</time>
      </trkpt>
      <trkpt lat="47.47041" lon="-0.54736">
        <ele>47</ele>
        <time>2011-09-01T15:45:04Z</time>
      </trkpt>
      <trkpt lat="47.47042" lon="-0.54736">
        <ele>47</ele>
        <time>2011-09-01T15:45:05Z</time>
      </trkpt>
      <trkpt lat="47.47044" lon="-0.54737">
        <ele>46</ele>
        <time>2011-09-01T15:45:07Z</time>
      </trkpt>
      <trkpt lat="47.47045" lon="-0.54737">
        <ele>45</ele>
        <time>2011-09-01T15:45:10Z</time>
      </trkpt>
      <trkpt lat="47.47044" lon="-0.54739">
        <ele>43</ele>
        <time>2011-09-01T15:45:16Z</time>
      </trkpt>
      <trkpt lat="47.47045" lon="-0.54741">
        <ele>43</ele>
        <time>2011-09-01T15:45:26Z</time>
      </trkpt>
      <trkpt lat="47.47046" lon="-0.54741">
        <ele>42</ele>
        <time>2011-09-01T15:45:29Z</time>
      </trkpt>
      <trkpt lat="47.47047" lon="-0.54741">
        <ele>42</ele>
        <time>2011-09-01T15:45:31Z</time>
      </trkpt>
      <trkpt lat="47.47049" lon="-0.5474">
        <ele>42</ele>
        <time>2011-09-01T15:45:33Z</time>
      </trkpt>
      <trkpt lat="47.4705" lon="-0.54737">
        <ele>42</ele>
        <time>2011-09-01T15:45:36Z</time>
      </trkpt>
      <trkpt lat="47.47052" lon="-0.54738">
        <ele>42</ele>
        <time>2011-09-01T15:45:42Z</time>
      </trkpt>
      <trkpt lat="47.47053" lon="-0.54737">
        <ele>43</ele>
        <time>2011-09-01T15:45:44Z</time>
      </trkpt>
      <trkpt lat="47.47055" lon="-0.54736">
        <ele>46</ele>
        <time>2011-09-01T15:45:47Z</time>
      </trkpt>
      <trkpt lat="47.47056" lon="-0.54734">
        <ele>47</ele>
        <time>2011-09-01T15:45:53Z</time>
      </trkpt>
      <trkpt lat="47.47057" lon="-0.54734">
        <ele>47</ele>
        <time>2011-09-01T15:45:56Z</time>
      </trkpt>
      <trkpt lat="47.47058" lon="-0.54735">
        <ele>47</ele>
        <time>2011-09-01T15:45:59Z</time>
      </trkpt>
      <trkpt lat="47.4706" lon="-0.54733">
        <ele>42</ele>
        <time>2011-09-01T15:46:06Z</time>
      </trkpt>
      <trkpt lat="47.47059" lon="-0.54735">
        <ele>39</ele>
        <time>2011-09-01T15:46:19Z</time>
      </trkpt>
      <trkpt lat="47.47059" lon="-0.54737">
        <ele>39</ele>
        <time>2011-09-01T15:46:26Z</time>
      </trkpt>
      <trkpt lat="47.47059" lon="-0.54738">
        <ele>39</ele>
        <time>2011-09-01T15:46:31Z</time>
      </trkpt>
      <trkpt lat="47.4706" lon="-0.54739">
        <ele>39</ele>
        <time>2011-09-01T15:46:36Z</time>
      </trkpt>
      <trkpt lat="47.4706" lon="-0.54741">
        <ele>39</ele>
        <time>2011-09-01T15:46:45Z</time>
      </trkpt>
      <trkpt lat="47.47059" lon="-0.54744">
        <ele>39</ele>
        <time>2011-09-01T15:46:47Z</time>
      </trkpt>
      <trkpt lat="47.47058" lon="-0.54746">
        <ele>39</ele>
        <time>2011-09-01T15:46:48Z</time>
      </trkpt>
      <trkpt lat="47.47059" lon="-0.54748">
        <ele>39</ele>
        <time>2011-09-01T15:46:49Z</time>
      </trkpt>
      <trkpt lat="47.47059" lon="-0.5475">
        <ele>39</ele>
        <time>2011-09-01T15:46:50Z</time>
      </trkpt>
      <trkpt lat="47.47059" lon="-0.54752">
        <ele>39</ele>
        <time>2011-09-01T15:46:51Z</time>
      </trkpt>
      <trkpt lat="47.47059" lon="-0.54754">
        <ele>39</ele>
        <time>2011-09-01T15:46:52Z</time>
      </trkpt>
      <trkpt lat="47.4706" lon="-0.54755">
        <ele>39</ele>
        <time>2011-09-01T15:46:54Z</time>
      </trkpt>
      <trkpt lat="47.47061" lon="-0.54758">
        <ele>39</ele>
        <time>2011-09-01T15:46:56Z</time>
      </trkpt>
      <trkpt lat="47.47062" lon="-0.5476">
        <ele>39</ele>
        <time>2011-09-01T15:46:57Z</time>
      </trkpt>
      <trkpt lat="47.47062" lon="-0.54762">
        <ele>39</ele>
        <time>2011-09-01T15:46:58Z</time>
      </trkpt>
      <trkpt lat="47.47062" lon="-0.54764">
        <ele>39</ele>
        <time>2011-09-01T15:46:59Z</time>
      </trkpt>
      <trkpt lat="47.47063" lon="-0.54765">
        <ele>39</ele>
        <time>2011-09-01T15:47:00Z</time>
      </trkpt>
      <trkpt lat="47.47064" lon="-0.54767">
        <ele>39</ele>
        <time>2011-09-01T15:47:01Z</time>
      </trkpt>
      <trkpt lat="47.47064" lon="-0.54769">
        <ele>39</ele>
        <time>2011-09-01T15:47:02Z</time>
      </trkpt>
      <trkpt lat="47.47064" lon="-0.5477">
        <ele>39</ele>
        <time>2011-09-01T15:47:03Z</time>
      </trkpt>
      <trkpt lat="47.47063" lon="-0.54772">
        <ele>39</ele>
        <time>2011-09-01T15:47:04Z</time>
      </trkpt>
      <trkpt lat="47.47062" lon="-0.54773">
        <ele>39</ele>
        <time>2011-09-01T15:47:05Z</time>
      </trkpt>
      <trkpt lat="47.4706" lon="-0.54775">
        <ele>39</ele>
        <time>2011-09-01T15:47:06Z</time>
      </trkpt>
      <trkpt lat="47.4706" lon="-0.54776">
        <ele>39</ele>
        <time>2011-09-01T15:47:07Z</time>
      </trkpt>
      <trkpt lat="47.47058" lon="-0.54778">
        <ele>39</ele>
        <time>2011-09-01T15:47:08Z</time>
      </trkpt>
      <trkpt lat="47.47057" lon="-0.5478">
        <ele>39</ele>
        <time>2011-09-01T15:47:09Z</time>
      </trkpt>
      <trkpt lat="47.47054" lon="-0.54782">
        <ele>39</ele>
        <time>2011-09-01T15:47:10Z</time>
      </trkpt>
      <trkpt lat="47.47052" lon="-0.54785">
        <ele>39</ele>
        <time>2011-09-01T15:47:11Z</time>
      </trkpt>
      <trkpt lat="47.4705" lon="-0.54787">
        <ele>39</ele>
        <time>2011-09-01T15:47:12Z</time>
      </trkpt>
      <trkpt lat="47.47047" lon="-0.54789">
        <ele>39</ele>
        <time>2011-09-01T15:47:13Z</time>
      </trkpt>
      <trkpt lat="47.47045" lon="-0.54791">
        <ele>39</ele>
        <time>2011-09-01T15:47:14Z</time>
      </trkpt>
      <trkpt lat="47.47044" lon="-0.54793">
        <ele>39</ele>
        <time>2011-09-01T15:47:15Z</time>
      </trkpt>
      <trkpt lat="47.47042" lon="-0.54795">
        <ele>39</ele>
        <time>2011-09-01T15:47:16Z</time>
      </trkpt>
      <trkpt lat="47.47041" lon="-0.54796">
        <ele>39</ele>
        <time>2011-09-01T15:47:17Z</time>
      </trkpt>
      <trkpt lat="47.47039" lon="-0.54797">
        <ele>39</ele>
        <time>2011-09-01T15:47:18Z</time>
      </trkpt>
      <trkpt lat="47.47038" lon="-0.54799">
        <ele>39</ele>
        <time>2011-09-01T15:47:19Z</time>
      </trkpt>
      <trkpt lat="47.47036" lon="-0.548">
        <ele>39</ele>
        <time>2011-09-01T15:47:20Z</time>
      </trkpt>
      <trkpt lat="47.47035" lon="-0.54803">
        <ele>39</ele>
        <time>2011-09-01T15:47:21Z</time>
      </trkpt>
      <trkpt lat="47.47034" lon="-0.54804">
        <ele>39</ele>
        <time>2011-09-01T15:47:22Z</time>
      </trkpt>
      <trkpt lat="47.47032" lon="-0.54806">
        <ele>39</ele>
        <time>2011-09-01T15:47:23Z</time>
      </trkpt>
      <trkpt lat="47.4703" lon="-0.54808">
        <ele>39</ele>
        <time>2011-09-01T15:47:24Z</time>
      </trkpt>
      <trkpt lat="47.47028" lon="-0.5481">
        <ele>39</ele>
        <time>2011-09-01T15:47:25Z</time>
      </trkpt>
      <trkpt lat="47.47026" lon="-0.54812">
        <ele>39</ele>
        <time>2011-09-01T15:47:26Z</time>
      </trkpt>
      <trkpt lat="47.47025" lon="-0.54814">
        <ele>39</ele>
        <time>2011-09-01T15:47:27Z</time>
      </trkpt>
      <trkpt lat="47.47023" lon="-0.54817">
        <ele>39</ele>
        <time>2011-09-01T15:47:28Z</time>
      </trkpt>
      <trkpt lat="47.4702" lon="-0.54818">
        <ele>39</ele>
        <time>2011-09-01T15:47:29Z</time>
      </trkpt>
      <trkpt lat="47.47018" lon="-0.5482">
        <ele>39</ele>
        <time>2011-09-01T15:47:30Z</time>
      </trkpt>
      <trkpt lat="47.47016" lon="-0.54821">
        <ele>40</ele>
        <time>2011-09-01T15:47:31Z</time>
      </trkpt>
      <trkpt lat="47.47014" lon="-0.54822">
        <ele>41</ele>
        <time>2011-09-01T15:47:32Z</time>
      </trkpt>
      <trkpt lat="47.47012" lon="-0.54823">
        <ele>42</ele>
        <time>2011-09-01T15:47:33Z</time>
      </trkpt>
      <trkpt lat="47.4701" lon="-0.54824">
        <ele>43</ele>
        <time>2011-09-01T15:47:34Z</time>
      </trkpt>
      <trkpt lat="47.47008" lon="-0.54825">
        <ele>44</ele>
        <time>2011-09-01T15:47:35Z</time>
      </trkpt>
      <trkpt lat="47.47007" lon="-0.54826">
        <ele>46</ele>
        <time>2011-09-01T15:47:36Z</time>
      </trkpt>
      <trkpt lat="47.47005" lon="-0.54828">
        <ele>48</ele>
        <time>2011-09-01T15:47:37Z</time>
      </trkpt>
      <trkpt lat="47.47003" lon="-0.54829">
        <ele>49</ele>
        <time>2011-09-01T15:47:38Z</time>
      </trkpt>
      <trkpt lat="47.47001" lon="-0.54831">
        <ele>51</ele>
        <time>2011-09-01T15:47:39Z</time>
      </trkpt>
      <trkpt lat="47.46999" lon="-0.54834">
        <ele>52</ele>
        <time>2011-09-01T15:47:40Z</time>
      </trkpt>
      <trkpt lat="47.46997" lon="-0.54837">
        <ele>53</ele>
        <time>2011-09-01T15:47:41Z</time>
      </trkpt>
      <trkpt lat="47.46995" lon="-0.5484">
        <ele>54</ele>
        <time>2011-09-01T15:47:42Z</time>
      </trkpt>
      <trkpt lat="47.46992" lon="-0.54843">
        <ele>55</ele>
        <time>2011-09-01T15:47:43Z</time>
      </trkpt>
      <trkpt lat="47.46991" lon="-0.54845">
        <ele>56</ele>
        <time>2011-09-01T15:47:44Z</time>
      </trkpt>
      <trkpt lat="47.46988" lon="-0.54848">
        <ele>57</ele>
        <time>2011-09-01T15:47:45Z</time>
      </trkpt>
      <trkpt lat="47.46987" lon="-0.54849">
        <ele>58</ele>
        <time>2011-09-01T15:47:46Z</time>
      </trkpt>
      <trkpt lat="47.46985" lon="-0.54851">
        <ele>59</ele>
        <time>2011-09-01T15:47:47Z</time>
      </trkpt>
      <trkpt lat="47.46983" lon="-0.54852">
        <ele>60</ele>
        <time>2011-09-01T15:47:48Z</time>
      </trkpt>
      <trkpt lat="47.46981" lon="-0.54854">
        <ele>61</ele>
        <time>2011-09-01T15:47:49Z</time>
      </trkpt>
      <trkpt lat="47.46979" lon="-0.54855">
        <ele>62</ele>
        <time>2011-09-01T15:47:50Z</time>
      </trkpt>
      <trkpt lat="47.46978" lon="-0.54855">
        <ele>63</ele>
        <time>2011-09-01T15:47:51Z</time>
      </trkpt>
      <trkpt lat="47.46976" lon="-0.54856">
        <ele>64</ele>
        <time>2011-09-01T15:47:52Z</time>
      </trkpt>
      <trkpt lat="47.46975" lon="-0.54856">
        <ele>65</ele>
        <time>2011-09-01T15:47:53Z</time>
      </trkpt>
      <trkpt lat="47.46973" lon="-0.54857">
        <ele>66</ele>
        <time>2011-09-01T15:47:54Z</time>
      </trkpt>
      <trkpt lat="47.46972" lon="-0.54857">
        <ele>67</ele>
        <time>2011-09-01T15:47:55Z</time>
      </trkpt>
      <trkpt lat="47.4697" lon="-0.54858">
        <ele>69</ele>
        <time>2011-09-01T15:47:57Z</time>
      </trkpt>
      <trkpt lat="47.46969" lon="-0.54858">
        <ele>71</ele>
        <time>2011-09-01T15:47:59Z</time>
      </trkpt>
      <trkpt lat="47.46968" lon="-0.54859">
        <ele>72</ele>
        <time>2011-09-01T15:48:00Z</time>
      </trkpt>
      <trkpt lat="47.46967" lon="-0.54859">
        <ele>73</ele>
        <time>2011-09-01T15:48:01Z</time>
      </trkpt>
      <trkpt lat="47.46964" lon="-0.54861">
        <ele>75</ele>
        <time>2011-09-01T15:48:03Z</time>
      </trkpt>
      <trkpt lat="47.46962" lon="-0.54863">
        <ele>76</ele>
        <time>2011-09-01T15:48:04Z</time>
      </trkpt>
      <trkpt lat="47.4696" lon="-0.54866">
        <ele>77</ele>
        <time>2011-09-01T15:48:05Z</time>
      </trkpt>
      <trkpt lat="47.46959" lon="-0.54868">
        <ele>78</ele>
        <time>2011-09-01T15:48:06Z</time>
      </trkpt>
      <trkpt lat="47.46958" lon="-0.5487">
        <ele>79</ele>
        <time>2011-09-01T15:48:07Z</time>
      </trkpt>
      <trkpt lat="47.46957" lon="-0.54873">
        <ele>80</ele>
        <time>2011-09-01T15:48:08Z</time>
      </trkpt>
      <trkpt lat="47.46957" lon="-0.54875">
        <ele>81</ele>
        <time>2011-09-01T15:48:09Z</time>
      </trkpt>
      <trkpt lat="47.46956" lon="-0.54877">
        <ele>82</ele>
        <time>2011-09-01T15:48:10Z</time>
      </trkpt>
      <trkpt lat="47.46954" lon="-0.5488">
        <ele>83</ele>
        <time>2011-09-01T15:48:11Z</time>
      </trkpt>
      <trkpt lat="47.46952" lon="-0.54882">
        <ele>84</ele>
        <time>2011-09-01T15:48:13Z</time>
      </trkpt>
      <trkpt lat="47.46951" lon="-0.54885">
        <ele>85</ele>
        <time>2011-09-01T15:48:14Z</time>
      </trkpt>
      <trkpt lat="47.4695" lon="-0.54888">
        <ele>85</ele>
        <time>2011-09-01T15:48:15Z</time>
      </trkpt>
      <trkpt lat="47.46947" lon="-0.54892">
        <ele>86</ele>
        <time>2011-09-01T15:48:16Z</time>
      </trkpt>
      <trkpt lat="47.46944" lon="-0.54896">
        <ele>86</ele>
        <time>2011-09-01T15:48:17Z</time>
      </trkpt>
      <trkpt lat="47.46944" lon="-0.54898">
        <ele>86</ele>
        <time>2011-09-01T15:48:18Z</time>
      </trkpt>
      <trkpt lat="47.46942" lon="-0.549">
        <ele>86</ele>
        <time>2011-09-01T15:48:19Z</time>
      </trkpt>
      <trkpt lat="47.46939" lon="-0.54903">
        <ele>87</ele>
        <time>2011-09-01T15:48:20Z</time>
      </trkpt>
      <trkpt lat="47.46936" lon="-0.54906">
        <ele>87</ele>
        <time>2011-09-01T15:48:21Z</time>
      </trkpt>
      <trkpt lat="47.46933" lon="-0.5491">
        <ele>87</ele>
        <time>2011-09-01T15:48:22Z</time>
      </trkpt>
      <trkpt lat="47.4693" lon="-0.54913">
        <ele>88</ele>
        <time>2011-09-01T15:48:23Z</time>
      </trkpt>
      <trkpt lat="47.46928" lon="-0.54916">
        <ele>88</ele>
        <time>2011-09-01T15:48:24Z</time>
      </trkpt>
      <trkpt lat="47.46926" lon="-0.54918">
        <ele>89</ele>
        <time>2011-09-01T15:48:25Z</time>
      </trkpt>
      <trkpt lat="47.46924" lon="-0.54921">
        <ele>89</ele>
        <time>2011-09-01T15:48:26Z</time>
      </trkpt>
      <trkpt lat="47.46922" lon="-0.54923">
        <ele>89</ele>
        <time>2011-09-01T15:48:27Z</time>
      </trkpt>
      <trkpt lat="47.4692" lon="-0.54924">
        <ele>89</ele>
        <time>2011-09-01T15:48:28Z</time>
      </trkpt>
      <trkpt lat="47.46919" lon="-0.54925">
        <ele>89</ele>
        <time>2011-09-01T15:48:29Z</time>
      </trkpt>
      <trkpt lat="47.46917" lon="-0.54927">
        <ele>89</ele>
        <time>2011-09-01T15:48:30Z</time>
      </trkpt>
      <trkpt lat="47.46915" lon="-0.54929">
        <ele>89</ele>
        <time>2011-09-01T15:48:31Z</time>
      </trkpt>
      <trkpt lat="47.46914" lon="-0.54931">
        <ele>89</ele>
        <time>2011-09-01T15:48:33Z</time>
      </trkpt>
      <trkpt lat="47.46913" lon="-0.54932">
        <ele>89</ele>
        <time>2011-09-01T15:48:34Z</time>
      </trkpt>
      <trkpt lat="47.46911" lon="-0.54933">
        <ele>89</ele>
        <time>2011-09-01T15:48:35Z</time>
      </trkpt>
      <trkpt lat="47.46909" lon="-0.54935">
        <ele>89</ele>
        <time>2011-09-01T15:48:36Z</time>
      </trkpt>
      <trkpt lat="47.46907" lon="-0.54938">
        <ele>89</ele>
        <time>2011-09-01T15:48:37Z</time>
      </trkpt>
      <trkpt lat="47.46907" lon="-0.5494">
        <ele>88</ele>
        <time>2011-09-01T15:48:38Z</time>
      </trkpt>
      <trkpt lat="47.46905" lon="-0.54941">
        <ele>86</ele>
        <time>2011-09-01T15:48:40Z</time>
      </trkpt>
      <trkpt lat="47.46904" lon="-0.54943">
        <ele>86</ele>
        <time>2011-09-01T15:48:41Z</time>
      </trkpt>
      <trkpt lat="47.46903" lon="-0.54945">
        <ele>85</ele>
        <time>2011-09-01T15:48:43Z</time>
      </trkpt>
      <trkpt lat="47.46903" lon="-0.54949">
        <ele>83</ele>
        <time>2011-09-01T15:48:45Z</time>
      </trkpt>
      <trkpt lat="47.46903" lon="-0.54954">
        <ele>82</ele>
        <time>2011-09-01T15:48:46Z</time>
      </trkpt>
      <trkpt lat="47.46902" lon="-0.54959">
        <ele>81</ele>
        <time>2011-09-01T15:48:47Z</time>
      </trkpt>
      <trkpt lat="47.46905" lon="-0.54962">
        <ele>80</ele>
        <time>2011-09-01T15:48:48Z</time>
      </trkpt>
      <trkpt lat="47.46908" lon="-0.54965">
        <ele>79</ele>
        <time>2011-09-01T15:48:49Z</time>
      </trkpt>
      <trkpt lat="47.4691" lon="-0.54968">
        <ele>78</ele>
        <time>2011-09-01T15:48:50Z</time>
      </trkpt>
      <trkpt lat="47.46914" lon="-0.5497">
        <ele>77</ele>
        <time>2011-09-01T15:48:51Z</time>
      </trkpt>
      <trkpt lat="47.46917" lon="-0.54973">
        <ele>75</ele>
        <time>2011-09-01T15:48:52Z</time>
      </trkpt>
      <trkpt lat="47.4692" lon="-0.54975">
        <ele>73</ele>
        <time>2011-09-01T15:48:53Z</time>
      </trkpt>
      <trkpt lat="47.46921" lon="-0.54978">
        <ele>71</ele>
        <time>2011-09-01T15:48:54Z</time>
      </trkpt>
      <trkpt lat="47.46921" lon="-0.54983">
        <ele>69</ele>
        <time>2011-09-01T15:48:55Z</time>
      </trkpt>
      <trkpt lat="47.4692" lon="-0.54988">
        <ele>67</ele>
        <time>2011-09-01T15:48:56Z</time>
      </trkpt>
      <trkpt lat="47.4692" lon="-0.54993">
        <ele>65</ele>
        <time>2011-09-01T15:48:57Z</time>
      </trkpt>
      <trkpt lat="47.4692" lon="-0.54996">
        <ele>63</ele>
        <time>2011-09-01T15:48:58Z</time>
      </trkpt>
      <trkpt lat="47.4692" lon="-0.55">
        <ele>62</ele>
        <time>2011-09-01T15:48:59Z</time>
      </trkpt>
      <trkpt lat="47.4692" lon="-0.55001">
        <ele>61</ele>
        <time>2011-09-01T15:49:00Z</time>
      </trkpt>
      <trkpt lat="47.46922" lon="-0.55004">
        <ele>60</ele>
        <time>2011-09-01T15:49:01Z</time>
      </trkpt>
      <trkpt lat="47.46923" lon="-0.55008">
        <ele>59</ele>
        <time>2011-09-01T15:49:02Z</time>
      </trkpt>
      <trkpt lat="47.46923" lon="-0.55012">
        <ele>58</ele>
        <time>2011-09-01T15:49:03Z</time>
      </trkpt>
      <trkpt lat="47.46924" lon="-0.55016">
        <ele>57</ele>
        <time>2011-09-01T15:49:04Z</time>
      </trkpt>
      <trkpt lat="47.46923" lon="-0.5502">
        <ele>56</ele>
        <time>2011-09-01T15:49:05Z</time>
      </trkpt>
      <trkpt lat="47.46923" lon="-0.55024">
        <ele>56</ele>
        <time>2011-09-01T15:49:06Z</time>
      </trkpt>
      <trkpt lat="47.46925" lon="-0.55029">
        <ele>56</ele>
        <time>2011-09-01T15:49:07Z</time>
      </trkpt>
      <trkpt lat="47.46925" lon="-0.55032">
        <ele>56</ele>
        <time>2011-09-01T15:49:08Z</time>
      </trkpt>
      <trkpt lat="47.46925" lon="-0.55037">
        <ele>56</ele>
        <time>2011-09-01T15:49:09Z</time>
      </trkpt>
      <trkpt lat="47.46925" lon="-0.55041">
        <ele>57</ele>
        <time>2011-09-01T15:49:10Z</time>
      </trkpt>
      <trkpt lat="47.46923" lon="-0.55044">
        <ele>57</ele>
        <time>2011-09-01T15:49:11Z</time>
      </trkpt>
      <trkpt lat="47.46927" lon="-0.55049">
        <ele>58</ele>
        <time>2011-09-01T15:49:12Z</time>
      </trkpt>
      <trkpt lat="47.46929" lon="-0.55053">
        <ele>58</ele>
        <time>2011-09-01T15:49:13Z</time>
      </trkpt>
      <trkpt lat="47.4693" lon="-0.55056">
        <ele>59</ele>
        <time>2011-09-01T15:49:14Z</time>
      </trkpt>
      <trkpt lat="47.46933" lon="-0.55059">
        <ele>59</ele>
        <time>2011-09-01T15:49:15Z</time>
      </trkpt>
      <trkpt lat="47.46935" lon="-0.55062">
        <ele>60</ele>
        <time>2011-09-01T15:49:16Z</time>
      </trkpt>
      <trkpt lat="47.46938" lon="-0.55065">
        <ele>60</ele>
        <time>2011-09-01T15:49:17Z</time>
      </trkpt>
      <trkpt lat="47.46943" lon="-0.55069">
        <ele>61</ele>
        <time>2011-09-01T15:49:18Z</time>
      </trkpt>
      <trkpt lat="47.46948" lon="-0.55072">
        <ele>62</ele>
        <time>2011-09-01T15:49:19Z</time>
      </trkpt>
      <trkpt lat="47.46951" lon="-0.55076">
        <ele>63</ele>
        <time>2011-09-01T15:49:20Z</time>
      </trkpt>
      <trkpt lat="47.46955" lon="-0.55079">
        <ele>64</ele>
        <time>2011-09-01T15:49:21Z</time>
      </trkpt>
      <trkpt lat="47.46958" lon="-0.55083">
        <ele>65</ele>
        <time>2011-09-01T15:49:22Z</time>
      </trkpt>
      <trkpt lat="47.4696" lon="-0.55086">
        <ele>66</ele>
        <time>2011-09-01T15:49:23Z</time>
      </trkpt>
      <trkpt lat="47.46961" lon="-0.55089">
        <ele>67</ele>
        <time>2011-09-01T15:49:24Z</time>
      </trkpt>
      <trkpt lat="47.46962" lon="-0.55093">
        <ele>67</ele>
        <time>2011-09-01T15:49:25Z</time>
      </trkpt>
      <trkpt lat="47.46963" lon="-0.55097">
        <ele>67</ele>
        <time>2011-09-01T15:49:26Z</time>
      </trkpt>
      <trkpt lat="47.46965" lon="-0.55101">
        <ele>67</ele>
        <time>2011-09-01T15:49:27Z</time>
      </trkpt>
      <trkpt lat="47.46967" lon="-0.55105">
        <ele>67</ele>
        <time>2011-09-01T15:49:28Z</time>
      </trkpt>
      <trkpt lat="47.46968" lon="-0.55108">
        <ele>67</ele>
        <time>2011-09-01T15:49:29Z</time>
      </trkpt>
      <trkpt lat="47.46973" lon="-0.55111">
        <ele>67</ele>
        <time>2011-09-01T15:49:30Z</time>
      </trkpt>
      <trkpt lat="47.46975" lon="-0.55113">
        <ele>67</ele>
        <time>2011-09-01T15:49:31Z</time>
      </trkpt>
      <trkpt lat="47.46976" lon="-0.55116">
        <ele>67</ele>
        <time>2011-09-01T15:49:33Z</time>
      </trkpt>
      <trkpt lat="47.46979" lon="-0.55117">
        <ele>67</ele>
        <time>2011-09-01T15:49:34Z</time>
      </trkpt>
      <trkpt lat="47.4698" lon="-0.55119">
        <ele>67</ele>
        <time>2011-09-01T15:49:39Z</time>
      </trkpt>
      <trkpt lat="47.46981" lon="-0.55121">
        <ele>67</ele>
        <time>2011-09-01T15:49:41Z</time>
      </trkpt>
      <trkpt lat="47.46982" lon="-0.55124">
        <ele>66</ele>
        <time>2011-09-01T15:49:43Z</time>
      </trkpt>
      <trkpt lat="47.46984" lon="-0.55124">
        <ele>66</ele>
        <time>2011-09-01T15:49:44Z</time>
      </trkpt>
      <trkpt lat="47.46983" lon="-0.55127">
        <ele>63</ele>
        <time>2011-09-01T15:49:49Z</time>
      </trkpt>
      <trkpt lat="47.46985" lon="-0.55128">
        <ele>61</ele>
        <time>2011-09-01T15:49:51Z</time>
      </trkpt>
      <trkpt lat="47.46986" lon="-0.55131">
        <ele>59</ele>
        <time>2011-09-01T15:49:53Z</time>
      </trkpt>
      <trkpt lat="47.46986" lon="-0.55134">
        <ele>58</ele>
        <time>2011-09-01T15:49:54Z</time>
      </trkpt>
      <trkpt lat="47.46989" lon="-0.55136">
        <ele>57</ele>
        <time>2011-09-01T15:49:55Z</time>
      </trkpt>
      <trkpt lat="47.4699" lon="-0.55137">
        <ele>56</ele>
        <time>2011-09-01T15:49:56Z</time>
      </trkpt>
      <trkpt lat="47.46992" lon="-0.55138">
        <ele>56</ele>
        <time>2011-09-01T15:49:57Z</time>
      </trkpt>
      <trkpt lat="47.46994" lon="-0.5514">
        <ele>56</ele>
        <time>2011-09-01T15:49:58Z</time>
      </trkpt>
      <trkpt lat="47.46995" lon="-0.55141">
        <ele>56</ele>
        <time>2011-09-01T15:50:00Z</time>
      </trkpt>
      <trkpt lat="47.46996" lon="-0.55142">
        <ele>56</ele>
        <time>2011-09-01T15:50:03Z</time>
      </trkpt>
      <trkpt lat="47.46997" lon="-0.55143">
        <ele>56</ele>
        <time>2011-09-01T15:50:04Z</time>
      </trkpt>
      <trkpt lat="47.46997" lon="-0.55146">
        <ele>56</ele>
        <time>2011-09-01T15:50:06Z</time>
      </trkpt>
      <trkpt lat="47.46997" lon="-0.55149">
        <ele>56</ele>
        <time>2011-09-01T15:50:07Z</time>
      </trkpt>
      <trkpt lat="47.46996" lon="-0.55153">
        <ele>56</ele>
        <time>2011-09-01T15:50:08Z</time>
      </trkpt>
      <trkpt lat="47.46995" lon="-0.55156">
        <ele>56</ele>
        <time>2011-09-01T15:50:09Z</time>
      </trkpt>
      <trkpt lat="47.46996" lon="-0.5516">
        <ele>56</ele>
        <time>2011-09-01T15:50:10Z</time>
      </trkpt>
      <trkpt lat="47.46997" lon="-0.55164">
        <ele>56</ele>
        <time>2011-09-01T15:50:11Z</time>
      </trkpt>
      <trkpt lat="47.46999" lon="-0.55168">
        <ele>56</ele>
        <time>2011-09-01T15:50:12Z</time>
      </trkpt>
      <trkpt lat="47.46999" lon="-0.55171">
        <ele>56</ele>
        <time>2011-09-01T15:50:13Z</time>
      </trkpt>
      <trkpt lat="47.47" lon="-0.55174">
        <ele>56</ele>
        <time>2011-09-01T15:50:14Z</time>
      </trkpt>
      <trkpt lat="47.47001" lon="-0.55177">
        <ele>56</ele>
        <time>2011-09-01T15:50:15Z</time>
      </trkpt>
      <trkpt lat="47.47" lon="-0.55179">
        <ele>56</ele>
        <time>2011-09-01T15:50:16Z</time>
      </trkpt>
      <trkpt lat="47.47003" lon="-0.55182">
        <ele>56</ele>
        <time>2011-09-01T15:50:18Z</time>
      </trkpt>
      <trkpt lat="47.47005" lon="-0.55183">
        <ele>56</ele>
        <time>2011-09-01T15:50:20Z</time>
      </trkpt>
      <trkpt lat="47.47007" lon="-0.55182">
        <ele>56</ele>
        <time>2011-09-01T15:50:21Z</time>
      </trkpt>
      <trkpt lat="47.4701" lon="-0.55181">
        <ele>56</ele>
        <time>2011-09-01T15:50:22Z</time>
      </trkpt>
      <trkpt lat="47.47012" lon="-0.55181">
        <ele>55</ele>
        <time>2011-09-01T15:50:23Z</time>
      </trkpt>
      <trkpt lat="47.47015" lon="-0.55179">
        <ele>55</ele>
        <time>2011-09-01T15:50:24Z</time>
      </trkpt>
      <trkpt lat="47.47018" lon="-0.55177">
        <ele>54</ele>
        <time>2011-09-01T15:50:25Z</time>
      </trkpt>
      <trkpt lat="47.4702" lon="-0.55177">
        <ele>53</ele>
        <time>2011-09-01T15:50:26Z</time>
      </trkpt>
      <trkpt lat="47.47023" lon="-0.55177">
        <ele>52</ele>
        <time>2011-09-01T15:50:27Z</time>
      </trkpt>
      <trkpt lat="47.47025" lon="-0.55177">
        <ele>51</ele>
        <time>2011-09-01T15:50:28Z</time>
      </trkpt>
      <trkpt lat="47.47028" lon="-0.55177">
        <ele>51</ele>
        <time>2011-09-01T15:50:29Z</time>
      </trkpt>
      <trkpt lat="47.47032" lon="-0.55177">
        <ele>50</ele>
        <time>2011-09-01T15:50:30Z</time>
      </trkpt>
      <trkpt lat="47.47036" lon="-0.55178">
        <ele>49</ele>
        <time>2011-09-01T15:50:31Z</time>
      </trkpt>
      <trkpt lat="47.47039" lon="-0.55178">
        <ele>49</ele>
        <time>2011-09-01T15:50:32Z</time>
      </trkpt>
      <trkpt lat="47.47042" lon="-0.55178">
        <ele>48</ele>
        <time>2011-09-01T15:50:33Z</time>
      </trkpt>
      <trkpt lat="47.47044" lon="-0.55178">
        <ele>47</ele>
        <time>2011-09-01T15:50:34Z</time>
      </trkpt>
      <trkpt lat="47.47046" lon="-0.55178">
        <ele>46</ele>
        <time>2011-09-01T15:50:35Z</time>
      </trkpt>
      <trkpt lat="47.47048" lon="-0.55178">
        <ele>45</ele>
        <time>2011-09-01T15:50:36Z</time>
      </trkpt>
      <trkpt lat="47.4705" lon="-0.55178">
        <ele>44</ele>
        <time>2011-09-01T15:50:37Z</time>
      </trkpt>
      <trkpt lat="47.47052" lon="-0.55179">
        <ele>44</ele>
        <time>2011-09-01T15:50:38Z</time>
      </trkpt>
      <trkpt lat="47.47054" lon="-0.5518">
        <ele>44</ele>
        <time>2011-09-01T15:50:39Z</time>
      </trkpt>
      <trkpt lat="47.47055" lon="-0.5518">
        <ele>43</ele>
        <time>2011-09-01T15:50:40Z</time>
      </trkpt>
      <trkpt lat="47.47057" lon="-0.5518">
        <ele>43</ele>
        <time>2011-09-01T15:50:41Z</time>
      </trkpt>
      <trkpt lat="47.47059" lon="-0.5518">
        <ele>43</ele>
        <time>2011-09-01T15:50:42Z</time>
      </trkpt>
      <trkpt lat="47.4706" lon="-0.5518">
        <ele>43</ele>
        <time>2011-09-01T15:50:43Z</time>
      </trkpt>
      <trkpt lat="47.47062" lon="-0.55181">
        <ele>43</ele>
        <time>2011-09-01T15:50:44Z</time>
      </trkpt>
      <trkpt lat="47.47063" lon="-0.55183">
        <ele>43</ele>
        <time>2011-09-01T15:50:45Z</time>
      </trkpt>
      <trkpt lat="47.47065" lon="-0.55184">
        <ele>42</ele>
        <time>2011-09-01T15:50:46Z</time>
      </trkpt>
      <trkpt lat="47.47066" lon="-0.55185">
        <ele>41</ele>
        <time>2011-09-01T15:50:47Z</time>
      </trkpt>
      <trkpt lat="47.4707" lon="-0.55186">
        <ele>39</ele>
        <time>2011-09-01T15:50:49Z</time>
      </trkpt>
      <trkpt lat="47.47072" lon="-0.55185">
        <ele>39</ele>
        <time>2011-09-01T15:50:50Z</time>
      </trkpt>
      <trkpt lat="47.47073" lon="-0.55186">
        <ele>38</ele>
        <time>2011-09-01T15:50:51Z</time>
      </trkpt>
      <trkpt lat="47.47076" lon="-0.55187">
        <ele>38</ele>
        <time>2011-09-01T15:50:53Z</time>
      </trkpt>
      <trkpt lat="47.47078" lon="-0.55189">
        <ele>37</ele>
        <time>2011-09-01T15:50:54Z</time>
      </trkpt>
      <trkpt lat="47.4708" lon="-0.55189">
        <ele>37</ele>
        <time>2011-09-01T15:50:55Z</time>
      </trkpt>
      <trkpt lat="47.47082" lon="-0.55189">
        <ele>37</ele>
        <time>2011-09-01T15:50:56Z</time>
      </trkpt>
      <trkpt lat="47.47083" lon="-0.55187">
        <ele>37</ele>
        <time>2011-09-01T15:50:58Z</time>
      </trkpt>
      <trkpt lat="47.47085" lon="-0.55186">
        <ele>37</ele>
        <time>2011-09-01T15:50:59Z</time>
      </trkpt>
      <trkpt lat="47.47086" lon="-0.55186">
        <ele>38</ele>
        <time>2011-09-01T15:51:00Z</time>
      </trkpt>
      <trkpt lat="47.47088" lon="-0.55184">
        <ele>39</ele>
        <time>2011-09-01T15:51:01Z</time>
      </trkpt>
      <trkpt lat="47.4709" lon="-0.55183">
        <ele>40</ele>
        <time>2011-09-01T15:51:03Z</time>
      </trkpt>
      <trkpt lat="47.47091" lon="-0.55184">
        <ele>42</ele>
        <time>2011-09-01T15:51:05Z</time>
      </trkpt>
      <trkpt lat="47.47091" lon="-0.55186">
        <ele>43</ele>
        <time>2011-09-01T15:51:06Z</time>
      </trkpt>
      <trkpt lat="47.47093" lon="-0.55189">
        <ele>45</ele>
        <time>2011-09-01T15:51:08Z</time>
      </trkpt>
      <trkpt lat="47.47095" lon="-0.5519">
        <ele>45</ele>
        <time>2011-09-01T15:51:09Z</time>
      </trkpt>
      <trkpt lat="47.47097" lon="-0.55191">
        <ele>45</ele>
        <time>2011-09-01T15:51:10Z</time>
      </trkpt>
      <trkpt lat="47.47098" lon="-0.55193">
        <ele>45</ele>
        <time>2011-09-01T15:51:11Z</time>
      </trkpt>
      <trkpt lat="47.47099" lon="-0.55194">
        <ele>45</ele>
        <time>2011-09-01T15:51:12Z</time>
      </trkpt>
      <trkpt lat="47.47099" lon="-0.55196">
        <ele>45</ele>
        <time>2011-09-01T15:51:13Z</time>
      </trkpt>
      <trkpt lat="47.471" lon="-0.55199">
        <ele>45</ele>
        <time>2011-09-01T15:51:16Z</time>
      </trkpt>
      <trkpt lat="47.47102" lon="-0.552">
        <ele>45</ele>
        <time>2011-09-01T15:51:18Z</time>
      </trkpt>
      <trkpt lat="47.47102" lon="-0.55202">
        <ele>45</ele>
        <time>2011-09-01T15:51:20Z</time>
      </trkpt>
      <trkpt lat="47.47105" lon="-0.55202">
        <ele>45</ele>
        <time>2011-09-01T15:51:22Z</time>
      </trkpt>
      <trkpt lat="47.47103" lon="-0.55205">
        <ele>45</ele>
        <time>2011-09-01T15:51:26Z</time>
      </trkpt>
      <trkpt lat="47.471" lon="-0.55206">
        <ele>45</ele>
        <time>2011-09-01T15:51:30Z</time>
      </trkpt>
      <trkpt lat="47.47103" lon="-0.55205">
        <ele>45</ele>
        <time>2011-09-01T15:51:32Z</time>
      </trkpt>
      <trkpt lat="47.47105" lon="-0.55203">
        <ele>45</ele>
        <time>2011-09-01T15:51:33Z</time>
      </trkpt>
      <trkpt lat="47.47106" lon="-0.552">
        <ele>45</ele>
        <time>2011-09-01T15:51:34Z</time>
      </trkpt>
      <trkpt lat="47.47106" lon="-0.55198">
        <ele>45</ele>
        <time>2011-09-01T15:51:35Z</time>
      </trkpt>
      <trkpt lat="47.47107" lon="-0.55197">
        <ele>45</ele>
        <time>2011-09-01T15:51:37Z</time>
      </trkpt>
      <trkpt lat="47.47109" lon="-0.55197">
        <ele>45</ele>
        <time>2011-09-01T15:51:39Z</time>
      </trkpt>
      <trkpt lat="47.4711" lon="-0.55197">
        <ele>44</ele>
        <time>2011-09-01T15:51:42Z</time>
      </trkpt>
      <trkpt lat="47.47111" lon="-0.55196">
        <ele>42</ele>
        <time>2011-09-01T15:51:45Z</time>
      </trkpt>
      <trkpt lat="47.47113" lon="-0.55195">
        <ele>41</ele>
        <time>2011-09-01T15:51:49Z</time>
      </trkpt>
      <trkpt lat="47.47113" lon="-0.55193">
        <ele>41</ele>
        <time>2011-09-01T15:51:50Z</time>
      </trkpt>
      <trkpt lat="47.47115" lon="-0.55191">
        <ele>41</ele>
        <time>2011-09-01T15:51:52Z</time>
      </trkpt>
      <trkpt lat="47.47117" lon="-0.55192">
        <ele>41</ele>
        <time>2011-09-01T15:51:53Z</time>
      </trkpt>
      <trkpt lat="47.47118" lon="-0.55193">
        <ele>40</ele>
        <time>2011-09-01T15:51:55Z</time>
      </trkpt>
      <trkpt lat="47.47117" lon="-0.55195">
        <ele>40</ele>
        <time>2011-09-01T15:51:57Z</time>
      </trkpt>
      <trkpt lat="47.4712" lon="-0.55195">
        <ele>40</ele>
        <time>2011-09-01T15:51:59Z</time>
      </trkpt>
      <trkpt lat="47.47121" lon="-0.55193">
        <ele>40</ele>
        <time>2011-09-01T15:52:00Z</time>
      </trkpt>
      <trkpt lat="47.47121" lon="-0.55191">
        <ele>40</ele>
        <time>2011-09-01T15:52:01Z</time>
      </trkpt>
      <trkpt lat="47.47123" lon="-0.55189">
        <ele>40</ele>
        <time>2011-09-01T15:52:02Z</time>
      </trkpt>
      <trkpt lat="47.47122" lon="-0.55188">
        <ele>40</ele>
        <time>2011-09-01T15:52:03Z</time>
      </trkpt>
      <trkpt lat="47.47123" lon="-0.55186">
        <ele>40</ele>
        <time>2011-09-01T15:52:04Z</time>
      </trkpt>
      <trkpt lat="47.47124" lon="-0.55185">
        <ele>40</ele>
        <time>2011-09-01T15:52:06Z</time>
      </trkpt>
      <trkpt lat="47.47126" lon="-0.55184">
        <ele>40</ele>
        <time>2011-09-01T15:52:08Z</time>
      </trkpt>
      <trkpt lat="47.47127" lon="-0.55186">
        <ele>39</ele>
        <time>2011-09-01T15:52:10Z</time>
      </trkpt>
      <trkpt lat="47.47128" lon="-0.55186">
        <ele>38</ele>
        <time>2011-09-01T15:52:12Z</time>
      </trkpt>
      <trkpt lat="47.4713" lon="-0.55186">
        <ele>37</ele>
        <time>2011-09-01T15:52:14Z</time>
      </trkpt>
      <trkpt lat="47.47131" lon="-0.55185">
        <ele>37</ele>
        <time>2011-09-01T15:52:16Z</time>
      </trkpt>
      <trkpt lat="47.47133" lon="-0.55186">
        <ele>37</ele>
        <time>2011-09-01T15:52:19Z</time>
      </trkpt>
      <trkpt lat="47.47134" lon="-0.55185">
        <ele>37</ele>
        <time>2011-09-01T15:52:20Z</time>
      </trkpt>
      <trkpt lat="47.47136" lon="-0.55185">
        <ele>37</ele>
        <time>2011-09-01T15:52:21Z</time>
      </trkpt>
      <trkpt lat="47.47137" lon="-0.55186">
        <ele>37</ele>
        <time>2011-09-01T15:52:23Z</time>
      </trkpt>
      <trkpt lat="47.47138" lon="-0.55187">
        <ele>37</ele>
        <time>2011-09-01T15:52:25Z</time>
      </trkpt>
      <trkpt lat="47.47137" lon="-0.55189">
        <ele>37</ele>
        <time>2011-09-01T15:52:26Z</time>
      </trkpt>
      <trkpt lat="47.47137" lon="-0.55192">
        <ele>37</ele>
        <time>2011-09-01T15:52:27Z</time>
      </trkpt>
      <trkpt lat="47.47136" lon="-0.55195">
        <ele>37</ele>
        <time>2011-09-01T15:52:28Z</time>
      </trkpt>
      <trkpt lat="47.47136" lon="-0.55198">
        <ele>38</ele>
        <time>2011-09-01T15:52:29Z</time>
      </trkpt>
      <trkpt lat="47.47134" lon="-0.55201">
        <ele>38</ele>
        <time>2011-09-01T15:52:30Z</time>
      </trkpt>
      <trkpt lat="47.47131" lon="-0.55204">
        <ele>39</ele>
        <time>2011-09-01T15:52:31Z</time>
      </trkpt>
      <trkpt lat="47.47129" lon="-0.55207">
        <ele>39</ele>
        <time>2011-09-01T15:52:32Z</time>
      </trkpt>
      <trkpt lat="47.47128" lon="-0.55209">
        <ele>39</ele>
        <time>2011-09-01T15:52:33Z</time>
      </trkpt>
      <trkpt lat="47.47126" lon="-0.55215">
        <ele>39</ele>
        <time>2011-09-01T15:52:34Z</time>
      </trkpt>
      <trkpt lat="47.47126" lon="-0.55219">
        <ele>39</ele>
        <time>2011-09-01T15:52:35Z</time>
      </trkpt>
      <trkpt lat="47.47127" lon="-0.55222">
        <ele>39</ele>
        <time>2011-09-01T15:52:36Z</time>
      </trkpt>
      <trkpt lat="47.47128" lon="-0.55226">
        <ele>39</ele>
        <time>2011-09-01T15:52:37Z</time>
      </trkpt>
      <trkpt lat="47.47128" lon="-0.5523">
        <ele>39</ele>
        <time>2011-09-01T15:52:38Z</time>
      </trkpt>
      <trkpt lat="47.47127" lon="-0.55232">
        <ele>39</ele>
        <time>2011-09-01T15:52:39Z</time>
      </trkpt>
      <trkpt lat="47.47126" lon="-0.55234">
        <ele>40</ele>
        <time>2011-09-01T15:52:40Z</time>
      </trkpt>
      <trkpt lat="47.47125" lon="-0.55237">
        <ele>40</ele>
        <time>2011-09-01T15:52:42Z</time>
      </trkpt>
      <trkpt lat="47.47125" lon="-0.55239">
        <ele>42</ele>
        <time>2011-09-01T15:52:44Z</time>
      </trkpt>
      <trkpt lat="47.47125" lon="-0.55241">
        <ele>43</ele>
        <time>2011-09-01T15:52:46Z</time>
      </trkpt>
      <trkpt lat="47.47124" lon="-0.55244">
        <ele>45</ele>
        <time>2011-09-01T15:52:48Z</time>
      </trkpt>
      <trkpt lat="47.47124" lon="-0.55247">
        <ele>46</ele>
        <time>2011-09-01T15:52:50Z</time>
      </trkpt>
      <trkpt lat="47.47123" lon="-0.55249">
        <ele>47</ele>
        <time>2011-09-01T15:52:51Z</time>
      </trkpt>
      <trkpt lat="47.47121" lon="-0.55251">
        <ele>47</ele>
        <time>2011-09-01T15:52:52Z</time>
      </trkpt>
      <trkpt lat="47.47121" lon="-0.55253">
        <ele>47</ele>
        <time>2011-09-01T15:52:53Z</time>
      </trkpt>
      <trkpt lat="47.4712" lon="-0.55257">
        <ele>47</ele>
        <time>2011-09-01T15:52:55Z</time>
      </trkpt>
      <trkpt lat="47.47119" lon="-0.5526">
        <ele>47</ele>
        <time>2011-09-01T15:52:57Z</time>
      </trkpt>
      <trkpt lat="47.47117" lon="-0.55262">
        <ele>47</ele>
        <time>2011-09-01T15:52:58Z</time>
      </trkpt>
      <trkpt lat="47.47116" lon="-0.55264">
        <ele>47</ele>
        <time>2011-09-01T15:52:59Z</time>
      </trkpt>
      <trkpt lat="47.47117" lon="-0.55266">
        <ele>47</ele>
        <time>2011-09-01T15:53:00Z</time>
      </trkpt>
      <trkpt lat="47.47116" lon="-0.55268">
        <ele>47</ele>
        <time>2011-09-01T15:53:01Z</time>
      </trkpt>
      <trkpt lat="47.47115" lon="-0.5527">
        <ele>47</ele>
        <time>2011-09-01T15:53:03Z</time>
      </trkpt>
      <trkpt lat="47.47113" lon="-0.55272">
        <ele>47</ele>
        <time>2011-09-01T15:53:04Z</time>
      </trkpt>
      <trkpt lat="47.47112" lon="-0.55273">
        <ele>47</ele>
        <time>2011-09-01T15:53:05Z</time>
      </trkpt>
      <trkpt lat="47.47111" lon="-0.55274">
        <ele>47</ele>
        <time>2011-09-01T15:53:06Z</time>
      </trkpt>
      <trkpt lat="47.47109" lon="-0.55276">
        <ele>47</ele>
        <time>2011-09-01T15:53:07Z</time>
      </trkpt>
      <trkpt lat="47.47108" lon="-0.55277">
        <ele>47</ele>
        <time>2011-09-01T15:53:08Z</time>
      </trkpt>
      <trkpt lat="47.47106" lon="-0.5528">
        <ele>45</ele>
        <time>2011-09-01T15:53:10Z</time>
      </trkpt>
      <trkpt lat="47.47105" lon="-0.55282">
        <ele>43</ele>
        <time>2011-09-01T15:53:12Z</time>
      </trkpt>
      <trkpt lat="47.47104" lon="-0.55283">
        <ele>42</ele>
        <time>2011-09-01T15:53:13Z</time>
      </trkpt>
      <trkpt lat="47.47102" lon="-0.55285">
        <ele>41</ele>
        <time>2011-09-01T15:53:14Z</time>
      </trkpt>
      <trkpt lat="47.47098" lon="-0.55286">
        <ele>40</ele>
        <time>2011-09-01T15:53:15Z</time>
      </trkpt>
      <trkpt lat="47.47095" lon="-0.55288">
        <ele>39</ele>
        <time>2011-09-01T15:53:16Z</time>
      </trkpt>
      <trkpt lat="47.47095" lon="-0.5529">
        <ele>38</ele>
        <time>2011-09-01T15:53:17Z</time>
      </trkpt>
      <trkpt lat="47.47095" lon="-0.55292">
        <ele>37</ele>
        <time>2011-09-01T15:53:18Z</time>
      </trkpt>
      <trkpt lat="47.47095" lon="-0.55294">
        <ele>36</ele>
        <time>2011-09-01T15:53:19Z</time>
      </trkpt>
      <trkpt lat="47.47095" lon="-0.55297">
        <ele>35</ele>
        <time>2011-09-01T15:53:20Z</time>
      </trkpt>
      <trkpt lat="47.47095" lon="-0.55299">
        <ele>35</ele>
        <time>2011-09-01T15:53:21Z</time>
      </trkpt>
      <trkpt lat="47.47095" lon="-0.55301">
        <ele>35</ele>
        <time>2011-09-01T15:53:23Z</time>
      </trkpt>
      <trkpt lat="47.47095" lon="-0.55303">
        <ele>35</ele>
        <time>2011-09-01T15:53:24Z</time>
      </trkpt>
      <trkpt lat="47.47097" lon="-0.55304">
        <ele>35</ele>
        <time>2011-09-01T15:53:26Z</time>
      </trkpt>
      <trkpt lat="47.47096" lon="-0.55306">
        <ele>35</ele>
        <time>2011-09-01T15:53:27Z</time>
      </trkpt>
      <trkpt lat="47.47094" lon="-0.55309">
        <ele>35</ele>
        <time>2011-09-01T15:53:29Z</time>
      </trkpt>
      <trkpt lat="47.47094" lon="-0.55311">
        <ele>35</ele>
        <time>2011-09-01T15:53:30Z</time>
      </trkpt>
      <trkpt lat="47.47096" lon="-0.55313">
        <ele>35</ele>
        <time>2011-09-01T15:53:31Z</time>
      </trkpt>
      <trkpt lat="47.47098" lon="-0.55315">
        <ele>35</ele>
        <time>2011-09-01T15:53:32Z</time>
      </trkpt>
      <trkpt lat="47.47101" lon="-0.55317">
        <ele>35</ele>
        <time>2011-09-01T15:53:33Z</time>
      </trkpt>
      <trkpt lat="47.47104" lon="-0.55319">
        <ele>35</ele>
        <time>2011-09-01T15:53:34Z</time>
      </trkpt>
      <trkpt lat="47.47107" lon="-0.55321">
        <ele>36</ele>
        <time>2011-09-01T15:53:35Z</time>
      </trkpt>
      <trkpt lat="47.4711" lon="-0.55322">
        <ele>37</ele>
        <time>2011-09-01T15:53:36Z</time>
      </trkpt>
      <trkpt lat="47.47115" lon="-0.55324">
        <ele>37</ele>
        <time>2011-09-01T15:53:37Z</time>
      </trkpt>
      <trkpt lat="47.47118" lon="-0.55328">
        <ele>38</ele>
        <time>2011-09-01T15:53:38Z</time>
      </trkpt>
      <trkpt lat="47.47122" lon="-0.55331">
        <ele>39</ele>
        <time>2011-09-01T15:53:39Z</time>
      </trkpt>
      <trkpt lat="47.47123" lon="-0.55334">
        <ele>39</ele>
        <time>2011-09-01T15:53:40Z</time>
      </trkpt>
      <trkpt lat="47.47126" lon="-0.55338">
        <ele>39</ele>
        <time>2011-09-01T15:53:41Z</time>
      </trkpt>
      <trkpt lat="47.47129" lon="-0.55341">
        <ele>39</ele>
        <time>2011-09-01T15:53:42Z</time>
      </trkpt>
      <trkpt lat="47.47133" lon="-0.55344">
        <ele>39</ele>
        <time>2011-09-01T15:53:43Z</time>
      </trkpt>
      <trkpt lat="47.47136" lon="-0.55348">
        <ele>39</ele>
        <time>2011-09-01T15:53:44Z</time>
      </trkpt>
      <trkpt lat="47.47139" lon="-0.55351">
        <ele>39</ele>
        <time>2011-09-01T15:53:45Z</time>
      </trkpt>
      <trkpt lat="47.47142" lon="-0.55355">
        <ele>39</ele>
        <time>2011-09-01T15:53:46Z</time>
      </trkpt>
      <trkpt lat="47.47144" lon="-0.55357">
        <ele>39</ele>
        <time>2011-09-01T15:53:47Z</time>
      </trkpt>
      <trkpt lat="47.47147" lon="-0.55361">
        <ele>39</ele>
        <time>2011-09-01T15:53:48Z</time>
      </trkpt>
      <trkpt lat="47.4715" lon="-0.55364">
        <ele>39</ele>
        <time>2011-09-01T15:53:49Z</time>
      </trkpt>
      <trkpt lat="47.47154" lon="-0.55366">
        <ele>39</ele>
        <time>2011-09-01T15:53:50Z</time>
      </trkpt>
      <trkpt lat="47.47156" lon="-0.55369">
        <ele>38</ele>
        <time>2011-09-01T15:53:51Z</time>
      </trkpt>
      <trkpt lat="47.47159" lon="-0.55371">
        <ele>38</ele>
        <time>2011-09-01T15:53:52Z</time>
      </trkpt>
      <trkpt lat="47.47162" lon="-0.55374">
        <ele>38</ele>
        <time>2011-09-01T15:53:53Z</time>
      </trkpt>
      <trkpt lat="47.47165" lon="-0.55377">
        <ele>37</ele>
        <time>2011-09-01T15:53:54Z</time>
      </trkpt>
      <trkpt lat="47.47167" lon="-0.55379">
        <ele>37</ele>
        <time>2011-09-01T15:53:55Z</time>
      </trkpt>
      <trkpt lat="47.47169" lon="-0.55383">
        <ele>36</ele>
        <time>2011-09-01T15:53:56Z</time>
      </trkpt>
      <trkpt lat="47.47171" lon="-0.55386">
        <ele>35</ele>
        <time>2011-09-01T15:53:57Z</time>
      </trkpt>
      <trkpt lat="47.47174" lon="-0.55389">
        <ele>35</ele>
        <time>2011-09-01T15:53:58Z</time>
      </trkpt>
      <trkpt lat="47.47177" lon="-0.55392">
        <ele>34</ele>
        <time>2011-09-01T15:53:59Z</time>
      </trkpt>
      <trkpt lat="47.47179" lon="-0.55397">
        <ele>34</ele>
        <time>2011-09-01T15:54:00Z</time>
      </trkpt>
      <trkpt lat="47.47182" lon="-0.55399">
        <ele>33</ele>
        <time>2011-09-01T15:54:01Z</time>
      </trkpt>
      <trkpt lat="47.47185" lon="-0.55403">
        <ele>33</ele>
        <time>2011-09-01T15:54:02Z</time>
      </trkpt>
      <trkpt lat="47.47188" lon="-0.55407">
        <ele>33</ele>
        <time>2011-09-01T15:54:03Z</time>
      </trkpt>
      <trkpt lat="47.47191" lon="-0.5541">
        <ele>33</ele>
        <time>2011-09-01T15:54:04Z</time>
      </trkpt>
      <trkpt lat="47.47194" lon="-0.55414">
        <ele>33</ele>
        <time>2011-09-01T15:54:05Z</time>
      </trkpt>
      <trkpt lat="47.47196" lon="-0.55419">
        <ele>33</ele>
        <time>2011-09-01T15:54:06Z</time>
      </trkpt>
      <trkpt lat="47.472" lon="-0.55423">
        <ele>33</ele>
        <time>2011-09-01T15:54:07Z</time>
      </trkpt>
      <trkpt lat="47.47203" lon="-0.55426">
        <ele>33</ele>
        <time>2011-09-01T15:54:08Z</time>
      </trkpt>
      <trkpt lat="47.47207" lon="-0.55428">
        <ele>33</ele>
        <time>2011-09-01T15:54:09Z</time>
      </trkpt>
      <trkpt lat="47.4721" lon="-0.55432">
        <ele>33</ele>
        <time>2011-09-01T15:54:10Z</time>
      </trkpt>
      <trkpt lat="47.47213" lon="-0.55437">
        <ele>33</ele>
        <time>2011-09-01T15:54:11Z</time>
      </trkpt>
      <trkpt lat="47.47216" lon="-0.55441">
        <ele>33</ele>
        <time>2011-09-01T15:54:12Z</time>
      </trkpt>
      <trkpt lat="47.4722" lon="-0.55445">
        <ele>33</ele>
        <time>2011-09-01T15:54:13Z</time>
      </trkpt>
      <trkpt lat="47.47224" lon="-0.55449">
        <ele>33</ele>
        <time>2011-09-01T15:54:14Z</time>
      </trkpt>
      <trkpt lat="47.47228" lon="-0.55452">
        <ele>33</ele>
        <time>2011-09-01T15:54:15Z</time>
      </trkpt>
      <trkpt lat="47.47232" lon="-0.55456">
        <ele>33</ele>
        <time>2011-09-01T15:54:16Z</time>
      </trkpt>
      <trkpt lat="47.47236" lon="-0.55459">
        <ele>33</ele>
        <time>2011-09-01T15:54:17Z</time>
      </trkpt>
      <trkpt lat="47.4724" lon="-0.55462">
        <ele>33</ele>
        <time>2011-09-01T15:54:18Z</time>
      </trkpt>
      <trkpt lat="47.47244" lon="-0.55466">
        <ele>33</ele>
        <time>2011-09-01T15:54:19Z</time>
      </trkpt>
      <trkpt lat="47.47248" lon="-0.55468">
        <ele>33</ele>
        <time>2011-09-01T15:54:20Z</time>
      </trkpt>
      <trkpt lat="47.47252" lon="-0.55471">
        <ele>33</ele>
        <time>2011-09-01T15:54:21Z</time>
      </trkpt>
      <trkpt lat="47.47257" lon="-0.55475">
        <ele>33</ele>
        <time>2011-09-01T15:54:22Z</time>
      </trkpt>
      <trkpt lat="47.47261" lon="-0.55478">
        <ele>33</ele>
        <time>2011-09-01T15:54:23Z</time>
      </trkpt>
      <trkpt lat="47.47266" lon="-0.55481">
        <ele>33</ele>
        <time>2011-09-01T15:54:24Z</time>
      </trkpt>
      <trkpt lat="47.47269" lon="-0.55486">
        <ele>32</ele>
        <time>2011-09-01T15:54:25Z</time>
      </trkpt>
      <trkpt lat="47.47272" lon="-0.5549">
        <ele>31</ele>
        <time>2011-09-01T15:54:26Z</time>
      </trkpt>
      <trkpt lat="47.47276" lon="-0.55494">
        <ele>31</ele>
        <time>2011-09-01T15:54:27Z</time>
      </trkpt>
      <trkpt lat="47.47279" lon="-0.55498">
        <ele>31</ele>
        <time>2011-09-01T15:54:28Z</time>
      </trkpt>
      <trkpt lat="47.47282" lon="-0.55502">
        <ele>31</ele>
        <time>2011-09-01T15:54:29Z</time>
      </trkpt>
      <trkpt lat="47.47285" lon="-0.55506">
        <ele>31</ele>
        <time>2011-09-01T15:54:30Z</time>
      </trkpt>
      <trkpt lat="47.47288" lon="-0.55508">
        <ele>31</ele>
        <time>2011-09-01T15:54:31Z</time>
      </trkpt>
      <trkpt lat="47.47291" lon="-0.55511">
        <ele>31</ele>
        <time>2011-09-01T15:54:32Z</time>
      </trkpt>
      <trkpt lat="47.47293" lon="-0.55514">
        <ele>30</ele>
        <time>2011-09-01T15:54:33Z</time>
      </trkpt>
      <trkpt lat="47.47295" lon="-0.55515">
        <ele>30</ele>
        <time>2011-09-01T15:54:34Z</time>
      </trkpt>
      <trkpt lat="47.47297" lon="-0.55517">
        <ele>30</ele>
        <time>2011-09-01T15:54:35Z</time>
      </trkpt>
      <trkpt lat="47.47298" lon="-0.55518">
        <ele>29</ele>
        <time>2011-09-01T15:54:36Z</time>
      </trkpt>
      <trkpt lat="47.473" lon="-0.55519">
        <ele>29</ele>
        <time>2011-09-01T15:54:37Z</time>
      </trkpt>
      <trkpt lat="47.47302" lon="-0.55519">
        <ele>29</ele>
        <time>2011-09-01T15:54:38Z</time>
      </trkpt>
      <trkpt lat="47.47304" lon="-0.5552">
        <ele>29</ele>
        <time>2011-09-01T15:54:39Z</time>
      </trkpt>
      <trkpt lat="47.47306" lon="-0.55521">
        <ele>29</ele>
        <time>2011-09-01T15:54:40Z</time>
      </trkpt>
      <trkpt lat="47.47308" lon="-0.55522">
        <ele>29</ele>
        <time>2011-09-01T15:54:41Z</time>
      </trkpt>
      <trkpt lat="47.47311" lon="-0.55524">
        <ele>29</ele>
        <time>2011-09-01T15:54:42Z</time>
      </trkpt>
      <trkpt lat="47.47313" lon="-0.55526">
        <ele>28</ele>
        <time>2011-09-01T15:54:43Z</time>
      </trkpt>
      <trkpt lat="47.47316" lon="-0.55528">
        <ele>28</ele>
        <time>2011-09-01T15:54:44Z</time>
      </trkpt>
      <trkpt lat="47.47319" lon="-0.55529">
        <ele>28</ele>
        <time>2011-09-01T15:54:45Z</time>
      </trkpt>
      <trkpt lat="47.47321" lon="-0.55531">
        <ele>27</ele>
        <time>2011-09-01T15:54:46Z</time>
      </trkpt>
      <trkpt lat="47.47323" lon="-0.55533">
        <ele>27</ele>
        <time>2011-09-01T15:54:47Z</time>
      </trkpt>
      <trkpt lat="47.47324" lon="-0.55533">
        <ele>26</ele>
        <time>2011-09-01T15:54:48Z</time>
      </trkpt>
      <trkpt lat="47.47326" lon="-0.55534">
        <ele>25</ele>
        <time>2011-09-01T15:54:50Z</time>
      </trkpt>
      <trkpt lat="47.47327" lon="-0.55534">
        <ele>25</ele>
        <time>2011-09-01T15:54:52Z</time>
      </trkpt>
      <trkpt lat="47.47329" lon="-0.55534">
        <ele>24</ele>
        <time>2011-09-01T15:54:53Z</time>
      </trkpt>
      <trkpt lat="47.4733" lon="-0.55535">
        <ele>24</ele>
        <time>2011-09-01T15:54:54Z</time>
      </trkpt>
      <trkpt lat="47.47333" lon="-0.55536">
        <ele>23</ele>
        <time>2011-09-01T15:54:55Z</time>
      </trkpt>
      <trkpt lat="47.47335" lon="-0.55537">
        <ele>23</ele>
        <time>2011-09-01T15:54:56Z</time>
      </trkpt>
      <trkpt lat="47.47338" lon="-0.55539">
        <ele>22</ele>
        <time>2011-09-01T15:54:57Z</time>
      </trkpt>
      <trkpt lat="47.47341" lon="-0.55541">
        <ele>22</ele>
        <time>2011-09-01T15:54:58Z</time>
      </trkpt>
      <trkpt lat="47.47344" lon="-0.55544">
        <ele>22</ele>
        <time>2011-09-01T15:54:59Z</time>
      </trkpt>
      <trkpt lat="47.47348" lon="-0.55546">
        <ele>21</ele>
        <time>2011-09-01T15:55:00Z</time>
      </trkpt>
      <trkpt lat="47.47351" lon="-0.55547">
        <ele>21</ele>
        <time>2011-09-01T15:55:01Z</time>
      </trkpt>
      <trkpt lat="47.47355" lon="-0.55549">
        <ele>21</ele>
        <time>2011-09-01T15:55:02Z</time>
      </trkpt>
      <trkpt lat="47.47358" lon="-0.5555">
        <ele>21</ele>
        <time>2011-09-01T15:55:03Z</time>
      </trkpt>
      <trkpt lat="47.47361" lon="-0.55551">
        <ele>21</ele>
        <time>2011-09-01T15:55:04Z</time>
      </trkpt>
      <trkpt lat="47.47364" lon="-0.55552">
        <ele>21</ele>
        <time>2011-09-01T15:55:05Z</time>
      </trkpt>
      <trkpt lat="47.47366" lon="-0.55552">
        <ele>21</ele>
        <time>2011-09-01T15:55:06Z</time>
      </trkpt>
      <trkpt lat="47.47368" lon="-0.55553">
        <ele>21</ele>
        <time>2011-09-01T15:55:07Z</time>
      </trkpt>
      <trkpt lat="47.4737" lon="-0.55554">
        <ele>21</ele>
        <time>2011-09-01T15:55:08Z</time>
      </trkpt>
      <trkpt lat="47.47372" lon="-0.55554">
        <ele>21</ele>
        <time>2011-09-01T15:55:09Z</time>
      </trkpt>
      <trkpt lat="47.47372" lon="-0.55556">
        <ele>21</ele>
        <time>2011-09-01T15:55:10Z</time>
      </trkpt>
      <trkpt lat="47.47373" lon="-0.55558">
        <ele>21</ele>
        <time>2011-09-01T15:55:11Z</time>
      </trkpt>
      <trkpt lat="47.47373" lon="-0.5556">
        <ele>21</ele>
        <time>2011-09-01T15:55:13Z</time>
      </trkpt>
      <trkpt lat="47.47372" lon="-0.55561">
        <ele>21</ele>
        <time>2011-09-01T15:55:17Z</time>
      </trkpt>
      <trkpt lat="47.47374" lon="-0.55563">
        <ele>21</ele>
        <time>2011-09-01T15:55:23Z</time>
      </trkpt>
      <trkpt lat="47.47375" lon="-0.55563">
        <ele>21</ele>
        <time>2011-09-01T15:55:27Z</time>
      </trkpt>
      <trkpt lat="47.47376" lon="-0.55559">
        <ele>21</ele>
        <time>2011-09-01T15:55:29Z</time>
      </trkpt>
      <trkpt lat="47.47377" lon="-0.55557">
        <ele>21</ele>
        <time>2011-09-01T15:55:30Z</time>
      </trkpt>
      <trkpt lat="47.47378" lon="-0.55555">
        <ele>21</ele>
        <time>2011-09-01T15:55:31Z</time>
      </trkpt>
      <trkpt lat="47.47379" lon="-0.55553">
        <ele>21</ele>
        <time>2011-09-01T15:55:32Z</time>
      </trkpt>
      <trkpt lat="47.47379" lon="-0.55551">
        <ele>21</ele>
        <time>2011-09-01T15:55:34Z</time>
      </trkpt>
      <trkpt lat="47.4738" lon="-0.55549">
        <ele>22</ele>
        <time>2011-09-01T15:55:40Z</time>
      </trkpt>
      <trkpt lat="47.47382" lon="-0.55549">
        <ele>22</ele>
        <time>2011-09-01T15:55:41Z</time>
      </trkpt>
      <trkpt lat="47.47383" lon="-0.55549">
        <ele>22</ele>
        <time>2011-09-01T15:55:42Z</time>
      </trkpt>
      <trkpt lat="47.47385" lon="-0.55551">
        <ele>22</ele>
        <time>2011-09-01T15:55:43Z</time>
      </trkpt>
      <trkpt lat="47.47387" lon="-0.55554">
        <ele>22</ele>
        <time>2011-09-01T15:55:44Z</time>
      </trkpt>
      <trkpt lat="47.4739" lon="-0.55557">
        <ele>22</ele>
        <time>2011-09-01T15:55:45Z</time>
      </trkpt>
      <trkpt lat="47.47392" lon="-0.55561">
        <ele>22</ele>
        <time>2011-09-01T15:55:46Z</time>
      </trkpt>
      <trkpt lat="47.47393" lon="-0.55564">
        <ele>22</ele>
        <time>2011-09-01T15:55:47Z</time>
      </trkpt>
      <trkpt lat="47.47395" lon="-0.55567">
        <ele>22</ele>
        <time>2011-09-01T15:55:48Z</time>
      </trkpt>
      <trkpt lat="47.47396" lon="-0.55569">
        <ele>22</ele>
        <time>2011-09-01T15:55:49Z</time>
      </trkpt>
      <trkpt lat="47.47396" lon="-0.55571">
        <ele>22</ele>
        <time>2011-09-01T15:55:50Z</time>
      </trkpt>
      <trkpt lat="47.47396" lon="-0.55573">
        <ele>22</ele>
        <time>2011-09-01T15:55:51Z</time>
      </trkpt>
      <trkpt lat="47.47398" lon="-0.55575">
        <ele>22</ele>
        <time>2011-09-01T15:55:53Z</time>
      </trkpt>
      <trkpt lat="47.47398" lon="-0.55577">
        <ele>22</ele>
        <time>2011-09-01T15:55:55Z</time>
      </trkpt>
      <trkpt lat="47.47399" lon="-0.55577">
        <ele>21</ele>
        <time>2011-09-01T15:55:57Z</time>
      </trkpt>
      <trkpt lat="47.47399" lon="-0.55579">
        <ele>21</ele>
        <time>2011-09-01T15:56:00Z</time>
      </trkpt>
      <trkpt lat="47.47399" lon="-0.55582">
        <ele>20</ele>
        <time>2011-09-01T15:56:02Z</time>
      </trkpt>
      <trkpt lat="47.47399" lon="-0.55583">
        <ele>20</ele>
        <time>2011-09-01T15:56:03Z</time>
      </trkpt>
      <trkpt lat="47.47399" lon="-0.55585">
        <ele>20</ele>
        <time>2011-09-01T15:56:04Z</time>
      </trkpt>
      <trkpt lat="47.47399" lon="-0.55587">
        <ele>20</ele>
        <time>2011-09-01T15:56:05Z</time>
      </trkpt>
      <trkpt lat="47.47399" lon="-0.55589">
        <ele>20</ele>
        <time>2011-09-01T15:56:06Z</time>
      </trkpt>
      <trkpt lat="47.47399" lon="-0.55591">
        <ele>20</ele>
        <time>2011-09-01T15:56:07Z</time>
      </trkpt>
      <trkpt lat="47.474" lon="-0.55593">
        <ele>20</ele>
        <time>2011-09-01T15:56:08Z</time>
      </trkpt>
      <trkpt lat="47.474" lon="-0.55595">
        <ele>20</ele>
        <time>2011-09-01T15:56:09Z</time>
      </trkpt>
      <trkpt lat="47.474" lon="-0.55596">
        <ele>20</ele>
        <time>2011-09-01T15:56:10Z</time>
      </trkpt>
      <trkpt lat="47.474" lon="-0.55598">
        <ele>20</ele>
        <time>2011-09-01T15:56:11Z</time>
      </trkpt>
      <trkpt lat="47.47401" lon="-0.55601">
        <ele>20</ele>
        <time>2011-09-01T15:56:13Z</time>
      </trkpt>
      <trkpt lat="47.47403" lon="-0.55603">
        <ele>20</ele>
        <time>2011-09-01T15:56:15Z</time>
      </trkpt>
      <trkpt lat="47.47403" lon="-0.55605">
        <ele>20</ele>
        <time>2011-09-01T15:56:16Z</time>
      </trkpt>
      <trkpt lat="47.47403" lon="-0.55607">
        <ele>20</ele>
        <time>2011-09-01T15:56:17Z</time>
      </trkpt>
      <trkpt lat="47.47403" lon="-0.55608">
        <ele>20</ele>
        <time>2011-09-01T15:56:18Z</time>
      </trkpt>
      <trkpt lat="47.47404" lon="-0.5561">
        <ele>20</ele>
        <time>2011-09-01T15:56:19Z</time>
      </trkpt>
      <trkpt lat="47.47404" lon="-0.55612">
        <ele>20</ele>
        <time>2011-09-01T15:56:20Z</time>
      </trkpt>
      <trkpt lat="47.47404" lon="-0.55613">
        <ele>20</ele>
        <time>2011-09-01T15:56:21Z</time>
      </trkpt>
      <trkpt lat="47.47404" lon="-0.55616">
        <ele>20</ele>
        <time>2011-09-01T15:56:22Z</time>
      </trkpt>
      <trkpt lat="47.47404" lon="-0.55617">
        <ele>20</ele>
        <time>2011-09-01T15:56:23Z</time>
      </trkpt>
      <trkpt lat="47.47404" lon="-0.55619">
        <ele>20</ele>
        <time>2011-09-01T15:56:24Z</time>
      </trkpt>
      <trkpt lat="47.47404" lon="-0.55621">
        <ele>20</ele>
        <time>2011-09-01T15:56:25Z</time>
      </trkpt>
      <trkpt lat="47.47404" lon="-0.55623">
        <ele>20</ele>
        <time>2011-09-01T15:56:26Z</time>
      </trkpt>
      <trkpt lat="47.47404" lon="-0.55625">
        <ele>20</ele>
        <time>2011-09-01T15:56:27Z</time>
      </trkpt>
      <trkpt lat="47.47404" lon="-0.55628">
        <ele>20</ele>
        <time>2011-09-01T15:56:28Z</time>
      </trkpt>
      <trkpt lat="47.47403" lon="-0.55629">
        <ele>20</ele>
        <time>2011-09-01T15:56:29Z</time>
      </trkpt>
      <trkpt lat="47.47403" lon="-0.55631">
        <ele>20</ele>
        <time>2011-09-01T15:56:30Z</time>
      </trkpt>
      <trkpt lat="47.47403" lon="-0.55633">
        <ele>20</ele>
        <time>2011-09-01T15:56:32Z</time>
      </trkpt>
      <trkpt lat="47.47402" lon="-0.55635">
        <ele>20</ele>
        <time>2011-09-01T15:56:34Z</time>
      </trkpt>
      <trkpt lat="47.474" lon="-0.55638">
        <ele>20</ele>
        <time>2011-09-01T15:56:36Z</time>
      </trkpt>
      <trkpt lat="47.47399" lon="-0.55641">
        <ele>20</ele>
        <time>2011-09-01T15:56:38Z</time>
      </trkpt>
      <trkpt lat="47.47397" lon="-0.55643">
        <ele>20</ele>
        <time>2011-09-01T15:56:40Z</time>
      </trkpt>
      <trkpt lat="47.47395" lon="-0.55645">
        <ele>20</ele>
        <time>2011-09-01T15:56:42Z</time>
      </trkpt>
      <trkpt lat="47.47394" lon="-0.55647">
        <ele>20</ele>
        <time>2011-09-01T15:56:44Z</time>
      </trkpt>
      <trkpt lat="47.47393" lon="-0.55648">
        <ele>20</ele>
        <time>2011-09-01T15:56:46Z</time>
      </trkpt>
      <trkpt lat="47.47391" lon="-0.55649">
        <ele>20</ele>
        <time>2011-09-01T15:56:48Z</time>
      </trkpt>
      <trkpt lat="47.4739" lon="-0.55651">
        <ele>19</ele>
        <time>2011-09-01T15:56:50Z</time>
      </trkpt>
      <trkpt lat="47.47388" lon="-0.55653">
        <ele>19</ele>
        <time>2011-09-01T15:56:52Z</time>
      </trkpt>
      <trkpt lat="47.47386" lon="-0.55655">
        <ele>19</ele>
        <time>2011-09-01T15:56:54Z</time>
      </trkpt>
      <trkpt lat="47.47384" lon="-0.55657">
        <ele>19</ele>
        <time>2011-09-01T15:56:56Z</time>
      </trkpt>
      <trkpt lat="47.47382" lon="-0.55658">
        <ele>19</ele>
        <time>2011-09-01T15:56:58Z</time>
      </trkpt>
      <trkpt lat="47.47382" lon="-0.5566">
        <ele>19</ele>
        <time>2011-09-01T15:57:00Z</time>
      </trkpt>
      <trkpt lat="47.4738" lon="-0.55662">
        <ele>19</ele>
        <time>2011-09-01T15:57:02Z</time>
      </trkpt>
      <trkpt lat="47.47377" lon="-0.55664">
        <ele>19</ele>
        <time>2011-09-01T15:57:04Z</time>
      </trkpt>
      <trkpt lat="47.47376" lon="-0.55665">
        <ele>19</ele>
        <time>2011-09-01T15:57:05Z</time>
      </trkpt>
      <trkpt lat="47.47373" lon="-0.55668">
        <ele>19</ele>
        <time>2011-09-01T15:57:06Z</time>
      </trkpt>
      <trkpt lat="47.47371" lon="-0.5567">
        <ele>19</ele>
        <time>2011-09-01T15:57:07Z</time>
      </trkpt>
      <trkpt lat="47.47368" lon="-0.55673">
        <ele>19</ele>
        <time>2011-09-01T15:57:08Z</time>
      </trkpt>
      <trkpt lat="47.47365" lon="-0.55676">
        <ele>19</ele>
        <time>2011-09-01T15:57:09Z</time>
      </trkpt>
      <trkpt lat="47.47362" lon="-0.55679">
        <ele>19</ele>
        <time>2011-09-01T15:57:10Z</time>
      </trkpt>
      <trkpt lat="47.47359" lon="-0.55682">
        <ele>19</ele>
        <time>2011-09-01T15:57:11Z</time>
      </trkpt>
      <trkpt lat="47.47356" lon="-0.55685">
        <ele>19</ele>
        <time>2011-09-01T15:57:12Z</time>
      </trkpt>
      <trkpt lat="47.47353" lon="-0.55688">
        <ele>19</ele>
        <time>2011-09-01T15:57:13Z</time>
      </trkpt>
      <trkpt lat="47.4735" lon="-0.5569">
        <ele>19</ele>
        <time>2011-09-01T15:57:14Z</time>
      </trkpt>
      <trkpt lat="47.47348" lon="-0.55693">
        <ele>19</ele>
        <time>2011-09-01T15:57:15Z</time>
      </trkpt>
      <trkpt lat="47.47345" lon="-0.55697">
        <ele>19</ele>
        <time>2011-09-01T15:57:16Z</time>
      </trkpt>
      <trkpt lat="47.47343" lon="-0.55701">
        <ele>19</ele>
        <time>2011-09-01T15:57:17Z</time>
      </trkpt>
      <trkpt lat="47.4734" lon="-0.55705">
        <ele>19</ele>
        <time>2011-09-01T15:57:18Z</time>
      </trkpt>
      <trkpt lat="47.47337" lon="-0.55709">
        <ele>19</ele>
        <time>2011-09-01T15:57:19Z</time>
      </trkpt>
      <trkpt lat="47.47335" lon="-0.55713">
        <ele>19</ele>
        <time>2011-09-01T15:57:20Z</time>
      </trkpt>
      <trkpt lat="47.47332" lon="-0.55718">
        <ele>19</ele>
        <time>2011-09-01T15:57:21Z</time>
      </trkpt>
      <trkpt lat="47.47329" lon="-0.55722">
        <ele>19</ele>
        <time>2011-09-01T15:57:22Z</time>
      </trkpt>
      <trkpt lat="47.47326" lon="-0.55726">
        <ele>19</ele>
        <time>2011-09-01T15:57:23Z</time>
      </trkpt>
      <trkpt lat="47.47324" lon="-0.5573">
        <ele>19</ele>
        <time>2011-09-01T15:57:24Z</time>
      </trkpt>
      <trkpt lat="47.47321" lon="-0.55734">
        <ele>19</ele>
        <time>2011-09-01T15:57:25Z</time>
      </trkpt>
      <trkpt lat="47.47319" lon="-0.55738">
        <ele>19</ele>
        <time>2011-09-01T15:57:26Z</time>
      </trkpt>
      <trkpt lat="47.47317" lon="-0.55741">
        <ele>19</ele>
        <time>2011-09-01T15:57:27Z</time>
      </trkpt>
      <trkpt lat="47.47315" lon="-0.55744">
        <ele>19</ele>
        <time>2011-09-01T15:57:28Z</time>
      </trkpt>
      <trkpt lat="47.47312" lon="-0.55748">
        <ele>19</ele>
        <time>2011-09-01T15:57:29Z</time>
      </trkpt>
      <trkpt lat="47.47309" lon="-0.55751">
        <ele>19</ele>
        <time>2011-09-01T15:57:30Z</time>
      </trkpt>
      <trkpt lat="47.47306" lon="-0.55755">
        <ele>19</ele>
        <time>2011-09-01T15:57:31Z</time>
      </trkpt>
      <trkpt lat="47.47304" lon="-0.55758">
        <ele>19</ele>
        <time>2011-09-01T15:57:32Z</time>
      </trkpt>
      <trkpt lat="47.47301" lon="-0.55761">
        <ele>19</ele>
        <time>2011-09-01T15:57:33Z</time>
      </trkpt>
      <trkpt lat="47.47299" lon="-0.55764">
        <ele>19</ele>
        <time>2011-09-01T15:57:34Z</time>
      </trkpt>
      <trkpt lat="47.47297" lon="-0.55766">
        <ele>19</ele>
        <time>2011-09-01T15:57:35Z</time>
      </trkpt>
      <trkpt lat="47.47295" lon="-0.55769">
        <ele>19</ele>
        <time>2011-09-01T15:57:36Z</time>
      </trkpt>
      <trkpt lat="47.47294" lon="-0.55771">
        <ele>19</ele>
        <time>2011-09-01T15:57:37Z</time>
      </trkpt>
      <trkpt lat="47.47293" lon="-0.55773">
        <ele>19</ele>
        <time>2011-09-01T15:57:38Z</time>
      </trkpt>
      <trkpt lat="47.47292" lon="-0.55775">
        <ele>19</ele>
        <time>2011-09-01T15:57:39Z</time>
      </trkpt>
      <trkpt lat="47.4729" lon="-0.55778">
        <ele>19</ele>
        <time>2011-09-01T15:57:40Z</time>
      </trkpt>
      <trkpt lat="47.47289" lon="-0.55781">
        <ele>19</ele>
        <time>2011-09-01T15:57:41Z</time>
      </trkpt>
      <trkpt lat="47.4729" lon="-0.55784">
        <ele>19</ele>
        <time>2011-09-01T15:57:42Z</time>
      </trkpt>
      <trkpt lat="47.47292" lon="-0.55787">
        <ele>19</ele>
        <time>2011-09-01T15:57:43Z</time>
      </trkpt>
      <trkpt lat="47.47294" lon="-0.55791">
        <ele>19</ele>
        <time>2011-09-01T15:57:44Z</time>
      </trkpt>
      <trkpt lat="47.47296" lon="-0.55794">
        <ele>19</ele>
        <time>2011-09-01T15:57:45Z</time>
      </trkpt>
      <trkpt lat="47.47298" lon="-0.55798">
        <ele>19</ele>
        <time>2011-09-01T15:57:46Z</time>
      </trkpt>
      <trkpt lat="47.47301" lon="-0.55802">
        <ele>19</ele>
        <time>2011-09-01T15:57:47Z</time>
      </trkpt>
      <trkpt lat="47.47304" lon="-0.55806">
        <ele>19</ele>
        <time>2011-09-01T15:57:48Z</time>
      </trkpt>
      <trkpt lat="47.47306" lon="-0.5581">
        <ele>19</ele>
        <time>2011-09-01T15:57:49Z</time>
      </trkpt>
      <trkpt lat="47.47309" lon="-0.55815">
        <ele>19</ele>
        <time>2011-09-01T15:57:50Z</time>
      </trkpt>
      <trkpt lat="47.47312" lon="-0.55819">
        <ele>19</ele>
        <time>2011-09-01T15:57:51Z</time>
      </trkpt>
      <trkpt lat="47.47315" lon="-0.55823">
        <ele>19</ele>
        <time>2011-09-01T15:57:52Z</time>
      </trkpt>
      <trkpt lat="47.47318" lon="-0.55828">
        <ele>19</ele>
        <time>2011-09-01T15:57:53Z</time>
      </trkpt>
      <trkpt lat="47.47321" lon="-0.55832">
        <ele>19</ele>
        <time>2011-09-01T15:57:54Z</time>
      </trkpt>
      <trkpt lat="47.47323" lon="-0.55836">
        <ele>19</ele>
        <time>2011-09-01T15:57:55Z</time>
      </trkpt>
      <trkpt lat="47.47326" lon="-0.5584">
        <ele>19</ele>
        <time>2011-09-01T15:57:56Z</time>
      </trkpt>
      <trkpt lat="47.47328" lon="-0.55844">
        <ele>19</ele>
        <time>2011-09-01T15:57:57Z</time>
      </trkpt>
      <trkpt lat="47.4733" lon="-0.55847">
        <ele>19</ele>
        <time>2011-09-01T15:57:58Z</time>
      </trkpt>
      <trkpt lat="47.47333" lon="-0.55851">
        <ele>19</ele>
        <time>2011-09-01T15:57:59Z</time>
      </trkpt>
      <trkpt lat="47.47335" lon="-0.55855">
        <ele>19</ele>
        <time>2011-09-01T15:58:00Z</time>
      </trkpt>
      <trkpt lat="47.47338" lon="-0.55859">
        <ele>19</ele>
        <time>2011-09-01T15:58:01Z</time>
      </trkpt>
      <trkpt lat="47.47341" lon="-0.55863">
        <ele>19</ele>
        <time>2011-09-01T15:58:02Z</time>
      </trkpt>
      <trkpt lat="47.47344" lon="-0.55867">
        <ele>19</ele>
        <time>2011-09-01T15:58:03Z</time>
      </trkpt>
      <trkpt lat="47.47347" lon="-0.55871">
        <ele>19</ele>
        <time>2011-09-01T15:58:04Z</time>
      </trkpt>
      <trkpt lat="47.4735" lon="-0.55875">
        <ele>19</ele>
        <time>2011-09-01T15:58:05Z</time>
      </trkpt>
      <trkpt lat="47.47352" lon="-0.55879">
        <ele>19</ele>
        <time>2011-09-01T15:58:06Z</time>
      </trkpt>
      <trkpt lat="47.47356" lon="-0.55883">
        <ele>19</ele>
        <time>2011-09-01T15:58:07Z</time>
      </trkpt>
      <trkpt lat="47.47358" lon="-0.55885">
        <ele>19</ele>
        <time>2011-09-01T15:58:08Z</time>
      </trkpt>
      <trkpt lat="47.47359" lon="-0.55887">
        <ele>19</ele>
        <time>2011-09-01T15:58:09Z</time>
      </trkpt>
      <trkpt lat="47.4736" lon="-0.55888">
        <ele>19</ele>
        <time>2011-09-01T15:58:10Z</time>
      </trkpt>
      <trkpt lat="47.47361" lon="-0.5589">
        <ele>19</ele>
        <time>2011-09-01T15:58:11Z</time>
      </trkpt>
      <trkpt lat="47.47361" lon="-0.55892">
        <ele>19</ele>
        <time>2011-09-01T15:58:12Z</time>
      </trkpt>
      <trkpt lat="47.4736" lon="-0.55894">
        <ele>19</ele>
        <time>2011-09-01T15:58:13Z</time>
      </trkpt>
      <trkpt lat="47.47359" lon="-0.55896">
        <ele>19</ele>
        <time>2011-09-01T15:58:14Z</time>
      </trkpt>
      <trkpt lat="47.47358" lon="-0.55898">
        <ele>19</ele>
        <time>2011-09-01T15:58:15Z</time>
      </trkpt>
      <trkpt lat="47.47357" lon="-0.559">
        <ele>19</ele>
        <time>2011-09-01T15:58:16Z</time>
      </trkpt>
      <trkpt lat="47.47355" lon="-0.55904">
        <ele>19</ele>
        <time>2011-09-01T15:58:17Z</time>
      </trkpt>
      <trkpt lat="47.47353" lon="-0.55907">
        <ele>19</ele>
        <time>2011-09-01T15:58:18Z</time>
      </trkpt>
      <trkpt lat="47.47352" lon="-0.55911">
        <ele>19</ele>
        <time>2011-09-01T15:58:19Z</time>
      </trkpt>
      <trkpt lat="47.4735" lon="-0.55913">
        <ele>19</ele>
        <time>2011-09-01T15:58:20Z</time>
      </trkpt>
      <trkpt lat="47.47348" lon="-0.55916">
        <ele>19</ele>
        <time>2011-09-01T15:58:21Z</time>
      </trkpt>
      <trkpt lat="47.47347" lon="-0.55918">
        <ele>19</ele>
        <time>2011-09-01T15:58:22Z</time>
      </trkpt>
      <trkpt lat="47.47346" lon="-0.55921">
        <ele>19</ele>
        <time>2011-09-01T15:58:23Z</time>
      </trkpt>
      <trkpt lat="47.47344" lon="-0.55924">
        <ele>19</ele>
        <time>2011-09-01T15:58:24Z</time>
      </trkpt>
      <trkpt lat="47.47342" lon="-0.55927">
        <ele>19</ele>
        <time>2011-09-01T15:58:25Z</time>
      </trkpt>
      <trkpt lat="47.4734" lon="-0.5593">
        <ele>19</ele>
        <time>2011-09-01T15:58:26Z</time>
      </trkpt>
      <trkpt lat="47.47337" lon="-0.55933">
        <ele>19</ele>
        <time>2011-09-01T15:58:27Z</time>
      </trkpt>
      <trkpt lat="47.47335" lon="-0.55936">
        <ele>19</ele>
        <time>2011-09-01T15:58:28Z</time>
      </trkpt>
      <trkpt lat="47.47333" lon="-0.55939">
        <ele>20</ele>
        <time>2011-09-01T15:58:29Z</time>
      </trkpt>
      <trkpt lat="47.47331" lon="-0.55942">
        <ele>20</ele>
        <time>2011-09-01T15:58:30Z</time>
      </trkpt>
      <trkpt lat="47.4733" lon="-0.55944">
        <ele>20</ele>
        <time>2011-09-01T15:58:31Z</time>
      </trkpt>
      <trkpt lat="47.47328" lon="-0.55947">
        <ele>20</ele>
        <time>2011-09-01T15:58:32Z</time>
      </trkpt>
      <trkpt lat="47.47326" lon="-0.5595">
        <ele>21</ele>
        <time>2011-09-01T15:58:33Z</time>
      </trkpt>
      <trkpt lat="47.47324" lon="-0.55954">
        <ele>21</ele>
        <time>2011-09-01T15:58:34Z</time>
      </trkpt>
      <trkpt lat="47.47321" lon="-0.55958">
        <ele>21</ele>
        <time>2011-09-01T15:58:35Z</time>
      </trkpt>
      <trkpt lat="47.47318" lon="-0.55963">
        <ele>22</ele>
        <time>2011-09-01T15:58:36Z</time>
      </trkpt>
      <trkpt lat="47.47315" lon="-0.55968">
        <ele>22</ele>
        <time>2011-09-01T15:58:37Z</time>
      </trkpt>
      <trkpt lat="47.47311" lon="-0.55974">
        <ele>22</ele>
        <time>2011-09-01T15:58:38Z</time>
      </trkpt>
      <trkpt lat="47.47308" lon="-0.55978">
        <ele>23</ele>
        <time>2011-09-01T15:58:39Z</time>
      </trkpt>
      <trkpt lat="47.47305" lon="-0.55983">
        <ele>23</ele>
        <time>2011-09-01T15:58:40Z</time>
      </trkpt>
      <trkpt lat="47.47302" lon="-0.55988">
        <ele>23</ele>
        <time>2011-09-01T15:58:41Z</time>
      </trkpt>
      <trkpt lat="47.473" lon="-0.55992">
        <ele>23</ele>
        <time>2011-09-01T15:58:42Z</time>
      </trkpt>
      <trkpt lat="47.47298" lon="-0.55996">
        <ele>23</ele>
        <time>2011-09-01T15:58:43Z</time>
      </trkpt>
      <trkpt lat="47.47295" lon="-0.56">
        <ele>23</ele>
        <time>2011-09-01T15:58:44Z</time>
      </trkpt>
      <trkpt lat="47.47293" lon="-0.56004">
        <ele>23</ele>
        <time>2011-09-01T15:58:45Z</time>
      </trkpt>
      <trkpt lat="47.4729" lon="-0.56008">
        <ele>23</ele>
        <time>2011-09-01T15:58:46Z</time>
      </trkpt>
      <trkpt lat="47.47287" lon="-0.56013">
        <ele>23</ele>
        <time>2011-09-01T15:58:47Z</time>
      </trkpt>
      <trkpt lat="47.47284" lon="-0.56017">
        <ele>23</ele>
        <time>2011-09-01T15:58:48Z</time>
      </trkpt>
      <trkpt lat="47.47283" lon="-0.5602">
        <ele>23</ele>
        <time>2011-09-01T15:58:49Z</time>
      </trkpt>
      <trkpt lat="47.47281" lon="-0.56025">
        <ele>23</ele>
        <time>2011-09-01T15:58:50Z</time>
      </trkpt>
      <trkpt lat="47.47279" lon="-0.56029">
        <ele>23</ele>
        <time>2011-09-01T15:58:51Z</time>
      </trkpt>
      <trkpt lat="47.47277" lon="-0.56033">
        <ele>23</ele>
        <time>2011-09-01T15:58:52Z</time>
      </trkpt>
      <trkpt lat="47.47274" lon="-0.56037">
        <ele>23</ele>
        <time>2011-09-01T15:58:53Z</time>
      </trkpt>
      <trkpt lat="47.47271" lon="-0.5604">
        <ele>23</ele>
        <time>2011-09-01T15:58:54Z</time>
      </trkpt>
      <trkpt lat="47.47269" lon="-0.56044">
        <ele>23</ele>
        <time>2011-09-01T15:58:55Z</time>
      </trkpt>
      <trkpt lat="47.47267" lon="-0.56048">
        <ele>23</ele>
        <time>2011-09-01T15:58:56Z</time>
      </trkpt>
      <trkpt lat="47.47264" lon="-0.56051">
        <ele>23</ele>
        <time>2011-09-01T15:58:57Z</time>
      </trkpt>
      <trkpt lat="47.47262" lon="-0.56055">
        <ele>23</ele>
        <time>2011-09-01T15:58:58Z</time>
      </trkpt>
      <trkpt lat="47.47259" lon="-0.56058">
        <ele>23</ele>
        <time>2011-09-01T15:58:59Z</time>
      </trkpt>
      <trkpt lat="47.47257" lon="-0.56061">
        <ele>23</ele>
        <time>2011-09-01T15:59:00Z</time>
      </trkpt>
      <trkpt lat="47.47254" lon="-0.56064">
        <ele>23</ele>
        <time>2011-09-01T15:59:01Z</time>
      </trkpt>
      <trkpt lat="47.47252" lon="-0.56068">
        <ele>23</ele>
        <time>2011-09-01T15:59:02Z</time>
      </trkpt>
      <trkpt lat="47.4725" lon="-0.56072">
        <ele>23</ele>
        <time>2011-09-01T15:59:03Z</time>
      </trkpt>
      <trkpt lat="47.47247" lon="-0.56075">
        <ele>24</ele>
        <time>2011-09-01T15:59:04Z</time>
      </trkpt>
      <trkpt lat="47.47245" lon="-0.56078">
        <ele>25</ele>
        <time>2011-09-01T15:59:05Z</time>
      </trkpt>
      <trkpt lat="47.47243" lon="-0.56082">
        <ele>25</ele>
        <time>2011-09-01T15:59:06Z</time>
      </trkpt>
      <trkpt lat="47.47241" lon="-0.56085">
        <ele>26</ele>
        <time>2011-09-01T15:59:07Z</time>
      </trkpt>
      <trkpt lat="47.47239" lon="-0.56088">
        <ele>26</ele>
        <time>2011-09-01T15:59:08Z</time>
      </trkpt>
      <trkpt lat="47.47238" lon="-0.56092">
        <ele>26</ele>
        <time>2011-09-01T15:59:09Z</time>
      </trkpt>
      <trkpt lat="47.47237" lon="-0.56095">
        <ele>26</ele>
        <time>2011-09-01T15:59:10Z</time>
      </trkpt>
      <trkpt lat="47.47236" lon="-0.56098">
        <ele>26</ele>
        <time>2011-09-01T15:59:11Z</time>
      </trkpt>
      <trkpt lat="47.47235" lon="-0.561">
        <ele>26</ele>
        <time>2011-09-01T15:59:12Z</time>
      </trkpt>
      <trkpt lat="47.47234" lon="-0.56103">
        <ele>26</ele>
        <time>2011-09-01T15:59:13Z</time>
      </trkpt>
      <trkpt lat="47.47233" lon="-0.56105">
        <ele>26</ele>
        <time>2011-09-01T15:59:14Z</time>
      </trkpt>
      <trkpt lat="47.47232" lon="-0.56108">
        <ele>26</ele>
        <time>2011-09-01T15:59:15Z</time>
      </trkpt>
      <trkpt lat="47.47233" lon="-0.56111">
        <ele>26</ele>
        <time>2011-09-01T15:59:16Z</time>
      </trkpt>
      <trkpt lat="47.47233" lon="-0.56113">
        <ele>25</ele>
        <time>2011-09-01T15:59:17Z</time>
      </trkpt>
      <trkpt lat="47.47233" lon="-0.56116">
        <ele>25</ele>
        <time>2011-09-01T15:59:18Z</time>
      </trkpt>
      <trkpt lat="47.47234" lon="-0.56119">
        <ele>24</ele>
        <time>2011-09-01T15:59:19Z</time>
      </trkpt>
      <trkpt lat="47.47236" lon="-0.56122">
        <ele>23</ele>
        <time>2011-09-01T15:59:20Z</time>
      </trkpt>
      <trkpt lat="47.47237" lon="-0.56125">
        <ele>22</ele>
        <time>2011-09-01T15:59:21Z</time>
      </trkpt>
      <trkpt lat="47.47239" lon="-0.56127">
        <ele>21</ele>
        <time>2011-09-01T15:59:22Z</time>
      </trkpt>
      <trkpt lat="47.4724" lon="-0.56129">
        <ele>20</ele>
        <time>2011-09-01T15:59:23Z</time>
      </trkpt>
      <trkpt lat="47.4724" lon="-0.56132">
        <ele>19</ele>
        <time>2011-09-01T15:59:24Z</time>
      </trkpt>
      <trkpt lat="47.47242" lon="-0.56135">
        <ele>19</ele>
        <time>2011-09-01T15:59:25Z</time>
      </trkpt>
      <trkpt lat="47.47244" lon="-0.56138">
        <ele>19</ele>
        <time>2011-09-01T15:59:26Z</time>
      </trkpt>
      <trkpt lat="47.47246" lon="-0.5614">
        <ele>19</ele>
        <time>2011-09-01T15:59:27Z</time>
      </trkpt>
      <trkpt lat="47.47248" lon="-0.56143">
        <ele>19</ele>
        <time>2011-09-01T15:59:28Z</time>
      </trkpt>
      <trkpt lat="47.4725" lon="-0.56146">
        <ele>19</ele>
        <time>2011-09-01T15:59:29Z</time>
      </trkpt>
      <trkpt lat="47.47252" lon="-0.56148">
        <ele>19</ele>
        <time>2011-09-01T15:59:30Z</time>
      </trkpt>
      <trkpt lat="47.47254" lon="-0.56151">
        <ele>19</ele>
        <time>2011-09-01T15:59:31Z</time>
      </trkpt>
      <trkpt lat="47.47256" lon="-0.56154">
        <ele>19</ele>
        <time>2011-09-01T15:59:32Z</time>
      </trkpt>
      <trkpt lat="47.47258" lon="-0.56157">
        <ele>19</ele>
        <time>2011-09-01T15:59:33Z</time>
      </trkpt>
      <trkpt lat="47.4726" lon="-0.5616">
        <ele>19</ele>
        <time>2011-09-01T15:59:34Z</time>
      </trkpt>
      <trkpt lat="47.47262" lon="-0.56163">
        <ele>19</ele>
        <time>2011-09-01T15:59:35Z</time>
      </trkpt>
      <trkpt lat="47.47264" lon="-0.56166">
        <ele>19</ele>
        <time>2011-09-01T15:59:36Z</time>
      </trkpt>
      <trkpt lat="47.47266" lon="-0.56169">
        <ele>19</ele>
        <time>2011-09-01T15:59:37Z</time>
      </trkpt>
      <trkpt lat="47.47268" lon="-0.56172">
        <ele>19</ele>
        <time>2011-09-01T15:59:38Z</time>
      </trkpt>
      <trkpt lat="47.4727" lon="-0.56175">
        <ele>19</ele>
        <time>2011-09-01T15:59:39Z</time>
      </trkpt>
      <trkpt lat="47.47271" lon="-0.56178">
        <ele>19</ele>
        <time>2011-09-01T15:59:40Z</time>
      </trkpt>
      <trkpt lat="47.47274" lon="-0.56181">
        <ele>19</ele>
        <time>2011-09-01T15:59:41Z</time>
      </trkpt>
      <trkpt lat="47.47276" lon="-0.56183">
        <ele>19</ele>
        <time>2011-09-01T15:59:42Z</time>
      </trkpt>
      <trkpt lat="47.47279" lon="-0.56186">
        <ele>19</ele>
        <time>2011-09-01T15:59:43Z</time>
      </trkpt>
      <trkpt lat="47.47282" lon="-0.56189">
        <ele>20</ele>
        <time>2011-09-01T15:59:44Z</time>
      </trkpt>
      <trkpt lat="47.47284" lon="-0.56193">
        <ele>21</ele>
        <time>2011-09-01T15:59:45Z</time>
      </trkpt>
      <trkpt lat="47.47284" lon="-0.56196">
        <ele>21</ele>
        <time>2011-09-01T15:59:46Z</time>
      </trkpt>
      <trkpt lat="47.47282" lon="-0.56199">
        <ele>21</ele>
        <time>2011-09-01T15:59:47Z</time>
      </trkpt>
      <trkpt lat="47.47281" lon="-0.56202">
        <ele>21</ele>
        <time>2011-09-01T15:59:48Z</time>
      </trkpt>
      <trkpt lat="47.47279" lon="-0.56205">
        <ele>21</ele>
        <time>2011-09-01T15:59:49Z</time>
      </trkpt>
      <trkpt lat="47.47276" lon="-0.56209">
        <ele>21</ele>
        <time>2011-09-01T15:59:50Z</time>
      </trkpt>
      <trkpt lat="47.47273" lon="-0.56214">
        <ele>21</ele>
        <time>2011-09-01T15:59:51Z</time>
      </trkpt>
      <trkpt lat="47.4727" lon="-0.56219">
        <ele>21</ele>
        <time>2011-09-01T15:59:52Z</time>
      </trkpt>
      <trkpt lat="47.47266" lon="-0.56224">
        <ele>21</ele>
        <time>2011-09-01T15:59:53Z</time>
      </trkpt>
      <trkpt lat="47.47263" lon="-0.56229">
        <ele>21</ele>
        <time>2011-09-01T15:59:54Z</time>
      </trkpt>
      <trkpt lat="47.4726" lon="-0.56234">
        <ele>21</ele>
        <time>2011-09-01T15:59:55Z</time>
      </trkpt>
      <trkpt lat="47.47256" lon="-0.56238">
        <ele>21</ele>
        <time>2011-09-01T15:59:56Z</time>
      </trkpt>
      <trkpt lat="47.47253" lon="-0.56242">
        <ele>21</ele>
        <time>2011-09-01T15:59:57Z</time>
      </trkpt>
      <trkpt lat="47.4725" lon="-0.56247">
        <ele>21</ele>
        <time>2011-09-01T15:59:58Z</time>
      </trkpt>
      <trkpt lat="47.47247" lon="-0.56251">
        <ele>21</ele>
        <time>2011-09-01T15:59:59Z</time>
      </trkpt>
      <trkpt lat="47.47244" lon="-0.56255">
        <ele>21</ele>
        <time>2011-09-01T16:00:00Z</time>
      </trkpt>
      <trkpt lat="47.47241" lon="-0.56258">
        <ele>21</ele>
        <time>2011-09-01T16:00:01Z</time>
      </trkpt>
      <trkpt lat="47.47239" lon="-0.56261">
        <ele>21</ele>
        <time>2011-09-01T16:00:02Z</time>
      </trkpt>
      <trkpt lat="47.47237" lon="-0.56265">
        <ele>21</ele>
        <time>2011-09-01T16:00:03Z</time>
      </trkpt>
      <trkpt lat="47.47234" lon="-0.56268">
        <ele>21</ele>
        <time>2011-09-01T16:00:04Z</time>
      </trkpt>
      <trkpt lat="47.47232" lon="-0.56271">
        <ele>21</ele>
        <time>2011-09-01T16:00:05Z</time>
      </trkpt>
      <trkpt lat="47.47229" lon="-0.56274">
        <ele>21</ele>
        <time>2011-09-01T16:00:06Z</time>
      </trkpt>
      <trkpt lat="47.47226" lon="-0.56278">
        <ele>21</ele>
        <time>2011-09-01T16:00:07Z</time>
      </trkpt>
      <trkpt lat="47.47224" lon="-0.56281">
        <ele>21</ele>
        <time>2011-09-01T16:00:08Z</time>
      </trkpt>
      <trkpt lat="47.47221" lon="-0.56285">
        <ele>21</ele>
        <time>2011-09-01T16:00:09Z</time>
      </trkpt>
      <trkpt lat="47.47219" lon="-0.56288">
        <ele>21</ele>
        <time>2011-09-01T16:00:10Z</time>
      </trkpt>
      <trkpt lat="47.47217" lon="-0.56291">
        <ele>21</ele>
        <time>2011-09-01T16:00:11Z</time>
      </trkpt>
      <trkpt lat="47.47215" lon="-0.56293">
        <ele>20</ele>
        <time>2011-09-01T16:00:12Z</time>
      </trkpt>
      <trkpt lat="47.47214" lon="-0.56296">
        <ele>20</ele>
        <time>2011-09-01T16:00:13Z</time>
      </trkpt>
      <trkpt lat="47.47213" lon="-0.56298">
        <ele>20</ele>
        <time>2011-09-01T16:00:14Z</time>
      </trkpt>
      <trkpt lat="47.47212" lon="-0.563">
        <ele>20</ele>
        <time>2011-09-01T16:00:15Z</time>
      </trkpt>
      <trkpt lat="47.4721" lon="-0.56302">
        <ele>19</ele>
        <time>2011-09-01T16:00:16Z</time>
      </trkpt>
      <trkpt lat="47.47209" lon="-0.56305">
        <ele>19</ele>
        <time>2011-09-01T16:00:17Z</time>
      </trkpt>
      <trkpt lat="47.47207" lon="-0.56307">
        <ele>19</ele>
        <time>2011-09-01T16:00:18Z</time>
      </trkpt>
      <trkpt lat="47.47205" lon="-0.56309">
        <ele>19</ele>
        <time>2011-09-01T16:00:19Z</time>
      </trkpt>
      <trkpt lat="47.47204" lon="-0.56311">
        <ele>18</ele>
        <time>2011-09-01T16:00:20Z</time>
      </trkpt>
      <trkpt lat="47.47202" lon="-0.56314">
        <ele>18</ele>
        <time>2011-09-01T16:00:21Z</time>
      </trkpt>
      <trkpt lat="47.47199" lon="-0.56317">
        <ele>18</ele>
        <time>2011-09-01T16:00:22Z</time>
      </trkpt>
      <trkpt lat="47.47196" lon="-0.56321">
        <ele>18</ele>
        <time>2011-09-01T16:00:23Z</time>
      </trkpt>
      <trkpt lat="47.47194" lon="-0.56323">
        <ele>18</ele>
        <time>2011-09-01T16:00:24Z</time>
      </trkpt>
      <trkpt lat="47.47192" lon="-0.56326">
        <ele>18</ele>
        <time>2011-09-01T16:00:25Z</time>
      </trkpt>
      <trkpt lat="47.4719" lon="-0.56329">
        <ele>18</ele>
        <time>2011-09-01T16:00:26Z</time>
      </trkpt>
      <trkpt lat="47.47188" lon="-0.56332">
        <ele>18</ele>
        <time>2011-09-01T16:00:27Z</time>
      </trkpt>
      <trkpt lat="47.47186" lon="-0.56335">
        <ele>18</ele>
        <time>2011-09-01T16:00:28Z</time>
      </trkpt>
      <trkpt lat="47.47184" lon="-0.56337">
        <ele>18</ele>
        <time>2011-09-01T16:00:29Z</time>
      </trkpt>
      <trkpt lat="47.47182" lon="-0.5634">
        <ele>18</ele>
        <time>2011-09-01T16:00:30Z</time>
      </trkpt>
      <trkpt lat="47.47181" lon="-0.56343">
        <ele>18</ele>
        <time>2011-09-01T16:00:31Z</time>
      </trkpt>
      <trkpt lat="47.47178" lon="-0.56345">
        <ele>18</ele>
        <time>2011-09-01T16:00:32Z</time>
      </trkpt>
      <trkpt lat="47.47176" lon="-0.56347">
        <ele>18</ele>
        <time>2011-09-01T16:00:33Z</time>
      </trkpt>
      <trkpt lat="47.47174" lon="-0.5635">
        <ele>18</ele>
        <time>2011-09-01T16:00:34Z</time>
      </trkpt>
      <trkpt lat="47.47172" lon="-0.56353">
        <ele>18</ele>
        <time>2011-09-01T16:00:35Z</time>
      </trkpt>
      <trkpt lat="47.47171" lon="-0.56355">
        <ele>18</ele>
        <time>2011-09-01T16:00:36Z</time>
      </trkpt>
      <trkpt lat="47.47169" lon="-0.56357">
        <ele>18</ele>
        <time>2011-09-01T16:00:37Z</time>
      </trkpt>
      <trkpt lat="47.47167" lon="-0.5636">
        <ele>18</ele>
        <time>2011-09-01T16:00:38Z</time>
      </trkpt>
      <trkpt lat="47.47165" lon="-0.56362">
        <ele>18</ele>
        <time>2011-09-01T16:00:39Z</time>
      </trkpt>
      <trkpt lat="47.47163" lon="-0.56365">
        <ele>18</ele>
        <time>2011-09-01T16:00:40Z</time>
      </trkpt>
      <trkpt lat="47.47161" lon="-0.56368">
        <ele>18</ele>
        <time>2011-09-01T16:00:41Z</time>
      </trkpt>
      <trkpt lat="47.47159" lon="-0.56371">
        <ele>18</ele>
        <time>2011-09-01T16:00:42Z</time>
      </trkpt>
      <trkpt lat="47.47157" lon="-0.56374">
        <ele>18</ele>
        <time>2011-09-01T16:00:43Z</time>
      </trkpt>
      <trkpt lat="47.47155" lon="-0.56377">
        <ele>18</ele>
        <time>2011-09-01T16:00:44Z</time>
      </trkpt>
      <trkpt lat="47.47152" lon="-0.56379">
        <ele>18</ele>
        <time>2011-09-01T16:00:45Z</time>
      </trkpt>
      <trkpt lat="47.47151" lon="-0.56381">
        <ele>18</ele>
        <time>2011-09-01T16:00:46Z</time>
      </trkpt>
      <trkpt lat="47.47149" lon="-0.56383">
        <ele>18</ele>
        <time>2011-09-01T16:00:47Z</time>
      </trkpt>
      <trkpt lat="47.47147" lon="-0.56384">
        <ele>18</ele>
        <time>2011-09-01T16:00:48Z</time>
      </trkpt>
      <trkpt lat="47.47146" lon="-0.56384">
        <ele>18</ele>
        <time>2011-09-01T16:00:49Z</time>
      </trkpt>
      <trkpt lat="47.47144" lon="-0.56383">
        <ele>18</ele>
        <time>2011-09-01T16:00:50Z</time>
      </trkpt>
      <trkpt lat="47.47143" lon="-0.56381">
        <ele>18</ele>
        <time>2011-09-01T16:00:51Z</time>
      </trkpt>
      <trkpt lat="47.47141" lon="-0.5638">
        <ele>18</ele>
        <time>2011-09-01T16:00:52Z</time>
      </trkpt>
      <trkpt lat="47.4714" lon="-0.56379">
        <ele>18</ele>
        <time>2011-09-01T16:00:53Z</time>
      </trkpt>
      <trkpt lat="47.47138" lon="-0.56377">
        <ele>17</ele>
        <time>2011-09-01T16:00:54Z</time>
      </trkpt>
      <trkpt lat="47.47137" lon="-0.56376">
        <ele>16</ele>
        <time>2011-09-01T16:00:55Z</time>
      </trkpt>
      <trkpt lat="47.47135" lon="-0.56375">
        <ele>15</ele>
        <time>2011-09-01T16:00:56Z</time>
      </trkpt>
      <trkpt lat="47.47133" lon="-0.56375">
        <ele>14</ele>
        <time>2011-09-01T16:00:57Z</time>
      </trkpt>
      <trkpt lat="47.47131" lon="-0.56376">
        <ele>14</ele>
        <time>2011-09-01T16:00:58Z</time>
      </trkpt>
      <trkpt lat="47.47129" lon="-0.56377">
        <ele>14</ele>
        <time>2011-09-01T16:00:59Z</time>
      </trkpt>
      <trkpt lat="47.47127" lon="-0.56379">
        <ele>14</ele>
        <time>2011-09-01T16:01:00Z</time>
      </trkpt>
      <trkpt lat="47.47125" lon="-0.56381">
        <ele>14</ele>
        <time>2011-09-01T16:01:01Z</time>
      </trkpt>
      <trkpt lat="47.47123" lon="-0.56384">
        <ele>14</ele>
        <time>2011-09-01T16:01:02Z</time>
      </trkpt>
      <trkpt lat="47.47121" lon="-0.56386">
        <ele>14</ele>
        <time>2011-09-01T16:01:03Z</time>
      </trkpt>
      <trkpt lat="47.4712" lon="-0.56388">
        <ele>14</ele>
        <time>2011-09-01T16:01:04Z</time>
      </trkpt>
      <trkpt lat="47.47118" lon="-0.5639">
        <ele>14</ele>
        <time>2011-09-01T16:01:05Z</time>
      </trkpt>
      <trkpt lat="47.47116" lon="-0.56393">
        <ele>14</ele>
        <time>2011-09-01T16:01:06Z</time>
      </trkpt>
      <trkpt lat="47.47113" lon="-0.56396">
        <ele>14</ele>
        <time>2011-09-01T16:01:07Z</time>
      </trkpt>
      <trkpt lat="47.47111" lon="-0.56398">
        <ele>14</ele>
        <time>2011-09-01T16:01:08Z</time>
      </trkpt>
      <trkpt lat="47.47108" lon="-0.564">
        <ele>14</ele>
        <time>2011-09-01T16:01:09Z</time>
      </trkpt>
      <trkpt lat="47.47104" lon="-0.56402">
        <ele>14</ele>
        <time>2011-09-01T16:01:10Z</time>
      </trkpt>
      <trkpt lat="47.47101" lon="-0.56404">
        <ele>14</ele>
        <time>2011-09-01T16:01:11Z</time>
      </trkpt>
      <trkpt lat="47.47098" lon="-0.56406">
        <ele>14</ele>
        <time>2011-09-01T16:01:12Z</time>
      </trkpt>
      <trkpt lat="47.47094" lon="-0.56409">
        <ele>13</ele>
        <time>2011-09-01T16:01:13Z</time>
      </trkpt>
      <trkpt lat="47.47092" lon="-0.5641">
        <ele>13</ele>
        <time>2011-09-01T16:01:14Z</time>
      </trkpt>
      <trkpt lat="47.4709" lon="-0.56411">
        <ele>13</ele>
        <time>2011-09-01T16:01:15Z</time>
      </trkpt>
      <trkpt lat="47.47087" lon="-0.56412">
        <ele>13</ele>
        <time>2011-09-01T16:01:16Z</time>
      </trkpt>
      <trkpt lat="47.47085" lon="-0.56415">
        <ele>13</ele>
        <time>2011-09-01T16:01:17Z</time>
      </trkpt>
      <trkpt lat="47.47082" lon="-0.56419">
        <ele>13</ele>
        <time>2011-09-01T16:01:18Z</time>
      </trkpt>
      <trkpt lat="47.47079" lon="-0.56423">
        <ele>13</ele>
        <time>2011-09-01T16:01:19Z</time>
      </trkpt>
      <trkpt lat="47.47075" lon="-0.56427">
        <ele>13</ele>
        <time>2011-09-01T16:01:20Z</time>
      </trkpt>
      <trkpt lat="47.47073" lon="-0.5643">
        <ele>13</ele>
        <time>2011-09-01T16:01:21Z</time>
      </trkpt>
      <trkpt lat="47.47071" lon="-0.56433">
        <ele>13</ele>
        <time>2011-09-01T16:01:22Z</time>
      </trkpt>
      <trkpt lat="47.4707" lon="-0.56437">
        <ele>13</ele>
        <time>2011-09-01T16:01:23Z</time>
      </trkpt>
      <trkpt lat="47.47069" lon="-0.56441">
        <ele>13</ele>
        <time>2011-09-01T16:01:24Z</time>
      </trkpt>
      <trkpt lat="47.47068" lon="-0.56444">
        <ele>13</ele>
        <time>2011-09-01T16:01:25Z</time>
      </trkpt>
      <trkpt lat="47.47066" lon="-0.56448">
        <ele>13</ele>
        <time>2011-09-01T16:01:26Z</time>
      </trkpt>
      <trkpt lat="47.47065" lon="-0.56452">
        <ele>13</ele>
        <time>2011-09-01T16:01:27Z</time>
      </trkpt>
      <trkpt lat="47.47064" lon="-0.56457">
        <ele>13</ele>
        <time>2011-09-01T16:01:28Z</time>
      </trkpt>
      <trkpt lat="47.47063" lon="-0.56462">
        <ele>13</ele>
        <time>2011-09-01T16:01:29Z</time>
      </trkpt>
      <trkpt lat="47.47064" lon="-0.56467">
        <ele>13</ele>
        <time>2011-09-01T16:01:30Z</time>
      </trkpt>
      <trkpt lat="47.47065" lon="-0.56472">
        <ele>13</ele>
        <time>2011-09-01T16:01:31Z</time>
      </trkpt>
      <trkpt lat="47.47066" lon="-0.56476">
        <ele>13</ele>
        <time>2011-09-01T16:01:32Z</time>
      </trkpt>
      <trkpt lat="47.47067" lon="-0.56481">
        <ele>13</ele>
        <time>2011-09-01T16:01:33Z</time>
      </trkpt>
      <trkpt lat="47.47068" lon="-0.56486">
        <ele>13</ele>
        <time>2011-09-01T16:01:34Z</time>
      </trkpt>
      <trkpt lat="47.47068" lon="-0.56492">
        <ele>12</ele>
        <time>2011-09-01T16:01:35Z</time>
      </trkpt>
      <trkpt lat="47.47066" lon="-0.56497">
        <ele>12</ele>
        <time>2011-09-01T16:01:36Z</time>
      </trkpt>
      <trkpt lat="47.47064" lon="-0.56501">
        <ele>12</ele>
        <time>2011-09-01T16:01:37Z</time>
      </trkpt>
      <trkpt lat="47.47062" lon="-0.56505">
        <ele>11</ele>
        <time>2011-09-01T16:01:38Z</time>
      </trkpt>
      <trkpt lat="47.4706" lon="-0.56509">
        <ele>11</ele>
        <time>2011-09-01T16:01:39Z</time>
      </trkpt>
      <trkpt lat="47.47057" lon="-0.56513">
        <ele>11</ele>
        <time>2011-09-01T16:01:40Z</time>
      </trkpt>
      <trkpt lat="47.47055" lon="-0.56517">
        <ele>10</ele>
        <time>2011-09-01T16:01:41Z</time>
      </trkpt>
      <trkpt lat="47.47053" lon="-0.56521">
        <ele>9</ele>
        <time>2011-09-01T16:01:42Z</time>
      </trkpt>
      <trkpt lat="47.4705" lon="-0.56525">
        <ele>9</ele>
        <time>2011-09-01T16:01:43Z</time>
      </trkpt>
      <trkpt lat="47.47048" lon="-0.56529">
        <ele>9</ele>
        <time>2011-09-01T16:01:44Z</time>
      </trkpt>
      <trkpt lat="47.47046" lon="-0.56532">
        <ele>8</ele>
        <time>2011-09-01T16:01:45Z</time>
      </trkpt>
      <trkpt lat="47.47043" lon="-0.56535">
        <ele>8</ele>
        <time>2011-09-01T16:01:46Z</time>
      </trkpt>
      <trkpt lat="47.47041" lon="-0.56538">
        <ele>8</ele>
        <time>2011-09-01T16:01:47Z</time>
      </trkpt>
      <trkpt lat="47.47039" lon="-0.56542">
        <ele>8</ele>
        <time>2011-09-01T16:01:48Z</time>
      </trkpt>
      <trkpt lat="47.47036" lon="-0.56545">
        <ele>8</ele>
        <time>2011-09-01T16:01:49Z</time>
      </trkpt>
      <trkpt lat="47.47034" lon="-0.56549">
        <ele>8</ele>
        <time>2011-09-01T16:01:50Z</time>
      </trkpt>
      <trkpt lat="47.47032" lon="-0.56552">
        <ele>8</ele>
        <time>2011-09-01T16:01:51Z</time>
      </trkpt>
      <trkpt lat="47.4703" lon="-0.56555">
        <ele>8</ele>
        <time>2011-09-01T16:01:52Z</time>
      </trkpt>
      <trkpt lat="47.47028" lon="-0.56558">
        <ele>8</ele>
        <time>2011-09-01T16:01:53Z</time>
      </trkpt>
      <trkpt lat="47.47025" lon="-0.56562">
        <ele>8</ele>
        <time>2011-09-01T16:01:54Z</time>
      </trkpt>
      <trkpt lat="47.47023" lon="-0.56566">
        <ele>8</ele>
        <time>2011-09-01T16:01:55Z</time>
      </trkpt>
      <trkpt lat="47.4702" lon="-0.56569">
        <ele>8</ele>
        <time>2011-09-01T16:01:56Z</time>
      </trkpt>
      <trkpt lat="47.47018" lon="-0.56573">
        <ele>8</ele>
        <time>2011-09-01T16:01:57Z</time>
      </trkpt>
      <trkpt lat="47.47016" lon="-0.56576">
        <ele>8</ele>
        <time>2011-09-01T16:01:58Z</time>
      </trkpt>
      <trkpt lat="47.47013" lon="-0.5658">
        <ele>8</ele>
        <time>2011-09-01T16:01:59Z</time>
      </trkpt>
      <trkpt lat="47.47011" lon="-0.56583">
        <ele>8</ele>
        <time>2011-09-01T16:02:00Z</time>
      </trkpt>
      <trkpt lat="47.47009" lon="-0.56587">
        <ele>7</ele>
        <time>2011-09-01T16:02:01Z</time>
      </trkpt>
      <trkpt lat="47.47007" lon="-0.5659">
        <ele>7</ele>
        <time>2011-09-01T16:02:02Z</time>
      </trkpt>
      <trkpt lat="47.47005" lon="-0.56593">
        <ele>7</ele>
        <time>2011-09-01T16:02:03Z</time>
      </trkpt>
      <trkpt lat="47.47003" lon="-0.56597">
        <ele>7</ele>
        <time>2011-09-01T16:02:04Z</time>
      </trkpt>
      <trkpt lat="47.47001" lon="-0.566">
        <ele>7</ele>
        <time>2011-09-01T16:02:05Z</time>
      </trkpt>
      <trkpt lat="47.46999" lon="-0.56604">
        <ele>7</ele>
        <time>2011-09-01T16:02:06Z</time>
      </trkpt>
      <trkpt lat="47.46997" lon="-0.56608">
        <ele>7</ele>
        <time>2011-09-01T16:02:07Z</time>
      </trkpt>
      <trkpt lat="47.46995" lon="-0.56612">
        <ele>7</ele>
        <time>2011-09-01T16:02:08Z</time>
      </trkpt>
      <trkpt lat="47.46992" lon="-0.56615">
        <ele>7</ele>
        <time>2011-09-01T16:02:09Z</time>
      </trkpt>
      <trkpt lat="47.46991" lon="-0.56619">
        <ele>7</ele>
        <time>2011-09-01T16:02:10Z</time>
      </trkpt>
      <trkpt lat="47.46989" lon="-0.56623">
        <ele>7</ele>
        <time>2011-09-01T16:02:11Z</time>
      </trkpt>
      <trkpt lat="47.46987" lon="-0.56627">
        <ele>7</ele>
        <time>2011-09-01T16:02:12Z</time>
      </trkpt>
      <trkpt lat="47.46985" lon="-0.56631">
        <ele>7</ele>
        <time>2011-09-01T16:02:13Z</time>
      </trkpt>
      <trkpt lat="47.46983" lon="-0.56635">
        <ele>7</ele>
        <time>2011-09-01T16:02:14Z</time>
      </trkpt>
      <trkpt lat="47.46982" lon="-0.56639">
        <ele>7</ele>
        <time>2011-09-01T16:02:15Z</time>
      </trkpt>
      <trkpt lat="47.4698" lon="-0.56642">
        <ele>7</ele>
        <time>2011-09-01T16:02:16Z</time>
      </trkpt>
      <trkpt lat="47.46979" lon="-0.56646">
        <ele>7</ele>
        <time>2011-09-01T16:02:17Z</time>
      </trkpt>
      <trkpt lat="47.46978" lon="-0.5665">
        <ele>7</ele>
        <time>2011-09-01T16:02:18Z</time>
      </trkpt>
      <trkpt lat="47.46976" lon="-0.56655">
        <ele>7</ele>
        <time>2011-09-01T16:02:19Z</time>
      </trkpt>
      <trkpt lat="47.46975" lon="-0.56659">
        <ele>7</ele>
        <time>2011-09-01T16:02:20Z</time>
      </trkpt>
      <trkpt lat="47.46973" lon="-0.56663">
        <ele>7</ele>
        <time>2011-09-01T16:02:21Z</time>
      </trkpt>
      <trkpt lat="47.46972" lon="-0.56668">
        <ele>7</ele>
        <time>2011-09-01T16:02:22Z</time>
      </trkpt>
      <trkpt lat="47.46971" lon="-0.56672">
        <ele>7</ele>
        <time>2011-09-01T16:02:23Z</time>
      </trkpt>
      <trkpt lat="47.4697" lon="-0.56676">
        <ele>7</ele>
        <time>2011-09-01T16:02:24Z</time>
      </trkpt>
      <trkpt lat="47.46969" lon="-0.56681">
        <ele>7</ele>
        <time>2011-09-01T16:02:25Z</time>
      </trkpt>
      <trkpt lat="47.46968" lon="-0.56685">
        <ele>6</ele>
        <time>2011-09-01T16:02:26Z</time>
      </trkpt>
      <trkpt lat="47.46967" lon="-0.56689">
        <ele>6</ele>
        <time>2011-09-01T16:02:27Z</time>
      </trkpt>
      <trkpt lat="47.46966" lon="-0.56693">
        <ele>6</ele>
        <time>2011-09-01T16:02:28Z</time>
      </trkpt>
      <trkpt lat="47.46965" lon="-0.56698">
        <ele>6</ele>
        <time>2011-09-01T16:02:29Z</time>
      </trkpt>
      <trkpt lat="47.46965" lon="-0.56703">
        <ele>6</ele>
        <time>2011-09-01T16:02:30Z</time>
      </trkpt>
      <trkpt lat="47.46964" lon="-0.56708">
        <ele>6</ele>
        <time>2011-09-01T16:02:31Z</time>
      </trkpt>
      <trkpt lat="47.46963" lon="-0.56712">
        <ele>6</ele>
        <time>2011-09-01T16:02:32Z</time>
      </trkpt>
      <trkpt lat="47.46962" lon="-0.56717">
        <ele>6</ele>
        <time>2011-09-01T16:02:33Z</time>
      </trkpt>
      <trkpt lat="47.46962" lon="-0.56722">
        <ele>6</ele>
        <time>2011-09-01T16:02:34Z</time>
      </trkpt>
      <trkpt lat="47.46961" lon="-0.56726">
        <ele>5</ele>
        <time>2011-09-01T16:02:35Z</time>
      </trkpt>
      <trkpt lat="47.46961" lon="-0.56731">
        <ele>5</ele>
        <time>2011-09-01T16:02:36Z</time>
      </trkpt>
      <trkpt lat="47.4696" lon="-0.56736">
        <ele>5</ele>
        <time>2011-09-01T16:02:37Z</time>
      </trkpt>
      <trkpt lat="47.4696" lon="-0.5674">
        <ele>5</ele>
        <time>2011-09-01T16:02:38Z</time>
      </trkpt>
      <trkpt lat="47.4696" lon="-0.56745">
        <ele>5</ele>
        <time>2011-09-01T16:02:39Z</time>
      </trkpt>
      <trkpt lat="47.46959" lon="-0.56749">
        <ele>5</ele>
        <time>2011-09-01T16:02:40Z</time>
      </trkpt>
      <trkpt lat="47.46959" lon="-0.56754">
        <ele>5</ele>
        <time>2011-09-01T16:02:41Z</time>
      </trkpt>
      <trkpt lat="47.46959" lon="-0.5676">
        <ele>5</ele>
        <time>2011-09-01T16:02:42Z</time>
      </trkpt>
      <trkpt lat="47.46959" lon="-0.56765">
        <ele>5</ele>
        <time>2011-09-01T16:02:43Z</time>
      </trkpt>
      <trkpt lat="47.46959" lon="-0.5677">
        <ele>5</ele>
        <time>2011-09-01T16:02:44Z</time>
      </trkpt>
      <trkpt lat="47.46959" lon="-0.56774">
        <ele>5</ele>
        <time>2011-09-01T16:02:45Z</time>
      </trkpt>
      <trkpt lat="47.46959" lon="-0.56779">
        <ele>5</ele>
        <time>2011-09-01T16:02:46Z</time>
      </trkpt>
      <trkpt lat="47.46959" lon="-0.56783">
        <ele>5</ele>
        <time>2011-09-01T16:02:47Z</time>
      </trkpt>
      <trkpt lat="47.46959" lon="-0.56788">
        <ele>5</ele>
        <time>2011-09-01T16:02:48Z</time>
      </trkpt>
      <trkpt lat="47.4696" lon="-0.56792">
        <ele>5</ele>
        <time>2011-09-01T16:02:49Z</time>
      </trkpt>
      <trkpt lat="47.4696" lon="-0.56797">
        <ele>5</ele>
        <time>2011-09-01T16:02:50Z</time>
      </trkpt>
      <trkpt lat="47.4696" lon="-0.56802">
        <ele>5</ele>
        <time>2011-09-01T16:02:51Z</time>
      </trkpt>
      <trkpt lat="47.46961" lon="-0.56806">
        <ele>5</ele>
        <time>2011-09-01T16:02:52Z</time>
      </trkpt>
      <trkpt lat="47.46961" lon="-0.56811">
        <ele>5</ele>
        <time>2011-09-01T16:02:53Z</time>
      </trkpt>
      <trkpt lat="47.46962" lon="-0.56816">
        <ele>5</ele>
        <time>2011-09-01T16:02:54Z</time>
      </trkpt>
      <trkpt lat="47.46963" lon="-0.5682">
        <ele>5</ele>
        <time>2011-09-01T16:02:55Z</time>
      </trkpt>
      <trkpt lat="47.46964" lon="-0.56825">
        <ele>5</ele>
        <time>2011-09-01T16:02:56Z</time>
      </trkpt>
      <trkpt lat="47.46965" lon="-0.56829">
        <ele>5</ele>
        <time>2011-09-01T16:02:57Z</time>
      </trkpt>
      <trkpt lat="47.46966" lon="-0.56834">
        <ele>5</ele>
        <time>2011-09-01T16:02:58Z</time>
      </trkpt>
      <trkpt lat="47.46967" lon="-0.56838">
        <ele>5</ele>
        <time>2011-09-01T16:02:59Z</time>
      </trkpt>
      <trkpt lat="47.46967" lon="-0.56843">
        <ele>5</ele>
        <time>2011-09-01T16:03:00Z</time>
      </trkpt>
      <trkpt lat="47.46968" lon="-0.56848">
        <ele>5</ele>
        <time>2011-09-01T16:03:01Z</time>
      </trkpt>
      <trkpt lat="47.4697" lon="-0.56853">
        <ele>5</ele>
        <time>2011-09-01T16:03:02Z</time>
      </trkpt>
      <trkpt lat="47.46971" lon="-0.56858">
        <ele>5</ele>
        <time>2011-09-01T16:03:03Z</time>
      </trkpt>
      <trkpt lat="47.46972" lon="-0.56862">
        <ele>5</ele>
        <time>2011-09-01T16:03:04Z</time>
      </trkpt>
      <trkpt lat="47.46973" lon="-0.56867">
        <ele>5</ele>
        <time>2011-09-01T16:03:05Z</time>
      </trkpt>
      <trkpt lat="47.46974" lon="-0.56871">
        <ele>5</ele>
        <time>2011-09-01T16:03:06Z</time>
      </trkpt>
      <trkpt lat="47.46975" lon="-0.56876">
        <ele>5</ele>
        <time>2011-09-01T16:03:07Z</time>
      </trkpt>
      <trkpt lat="47.46975" lon="-0.56881">
        <ele>5</ele>
        <time>2011-09-01T16:03:08Z</time>
      </trkpt>
      <trkpt lat="47.46975" lon="-0.56885">
        <ele>5</ele>
        <time>2011-09-01T16:03:09Z</time>
      </trkpt>
      <trkpt lat="47.46974" lon="-0.5689">
        <ele>5</ele>
        <time>2011-09-01T16:03:10Z</time>
      </trkpt>
      <trkpt lat="47.46973" lon="-0.56894">
        <ele>5</ele>
        <time>2011-09-01T16:03:11Z</time>
      </trkpt>
      <trkpt lat="47.46971" lon="-0.56898">
        <ele>5</ele>
        <time>2011-09-01T16:03:12Z</time>
      </trkpt>
      <trkpt lat="47.46969" lon="-0.56901">
        <ele>5</ele>
        <time>2011-09-01T16:03:13Z</time>
      </trkpt>
      <trkpt lat="47.46967" lon="-0.56904">
        <ele>5</ele>
        <time>2011-09-01T16:03:14Z</time>
      </trkpt>
      <trkpt lat="47.46965" lon="-0.56907">
        <ele>5</ele>
        <time>2011-09-01T16:03:15Z</time>
      </trkpt>
      <trkpt lat="47.46962" lon="-0.56911">
        <ele>5</ele>
        <time>2011-09-01T16:03:16Z</time>
      </trkpt>
      <trkpt lat="47.46961" lon="-0.56914">
        <ele>5</ele>
        <time>2011-09-01T16:03:17Z</time>
      </trkpt>
      <trkpt lat="47.46959" lon="-0.56916">
        <ele>5</ele>
        <time>2011-09-01T16:03:18Z</time>
      </trkpt>
      <trkpt lat="47.46957" lon="-0.56919">
        <ele>5</ele>
        <time>2011-09-01T16:03:19Z</time>
      </trkpt>
      <trkpt lat="47.46955" lon="-0.56922">
        <ele>5</ele>
        <time>2011-09-01T16:03:20Z</time>
      </trkpt>
      <trkpt lat="47.46953" lon="-0.56925">
        <ele>5</ele>
        <time>2011-09-01T16:03:21Z</time>
      </trkpt>
      <trkpt lat="47.46951" lon="-0.56928">
        <ele>5</ele>
        <time>2011-09-01T16:03:22Z</time>
      </trkpt>
      <trkpt lat="47.4695" lon="-0.5693">
        <ele>5</ele>
        <time>2011-09-01T16:03:23Z</time>
      </trkpt>
      <trkpt lat="47.46948" lon="-0.56933">
        <ele>5</ele>
        <time>2011-09-01T16:03:24Z</time>
      </trkpt>
      <trkpt lat="47.46946" lon="-0.56935">
        <ele>5</ele>
        <time>2011-09-01T16:03:25Z</time>
      </trkpt>
      <trkpt lat="47.46945" lon="-0.56938">
        <ele>5</ele>
        <time>2011-09-01T16:03:26Z</time>
      </trkpt>
      <trkpt lat="47.46944" lon="-0.56941">
        <ele>5</ele>
        <time>2011-09-01T16:03:27Z</time>
      </trkpt>
      <trkpt lat="47.46942" lon="-0.56943">
        <ele>5</ele>
        <time>2011-09-01T16:03:28Z</time>
      </trkpt>
      <trkpt lat="47.46941" lon="-0.56946">
        <ele>5</ele>
        <time>2011-09-01T16:03:29Z</time>
      </trkpt>
      <trkpt lat="47.46939" lon="-0.56949">
        <ele>5</ele>
        <time>2011-09-01T16:03:30Z</time>
      </trkpt>
      <trkpt lat="47.46938" lon="-0.56951">
        <ele>5</ele>
        <time>2011-09-01T16:03:31Z</time>
      </trkpt>
      <trkpt lat="47.46936" lon="-0.56954">
        <ele>5</ele>
        <time>2011-09-01T16:03:32Z</time>
      </trkpt>
      <trkpt lat="47.46935" lon="-0.56958">
        <ele>5</ele>
        <time>2011-09-01T16:03:33Z</time>
      </trkpt>
      <trkpt lat="47.46933" lon="-0.56961">
        <ele>5</ele>
        <time>2011-09-01T16:03:34Z</time>
      </trkpt>
      <trkpt lat="47.46931" lon="-0.56965">
        <ele>5</ele>
        <time>2011-09-01T16:03:35Z</time>
      </trkpt>
      <trkpt lat="47.46929" lon="-0.56968">
        <ele>5</ele>
        <time>2011-09-01T16:03:36Z</time>
      </trkpt>
      <trkpt lat="47.46927" lon="-0.56971">
        <ele>5</ele>
        <time>2011-09-01T16:03:37Z</time>
      </trkpt>
      <trkpt lat="47.46925" lon="-0.56974">
        <ele>5</ele>
        <time>2011-09-01T16:03:38Z</time>
      </trkpt>
      <trkpt lat="47.46923" lon="-0.56977">
        <ele>5</ele>
        <time>2011-09-01T16:03:39Z</time>
      </trkpt>
      <trkpt lat="47.4692" lon="-0.5698">
        <ele>5</ele>
        <time>2011-09-01T16:03:40Z</time>
      </trkpt>
      <trkpt lat="47.46917" lon="-0.56983">
        <ele>5</ele>
        <time>2011-09-01T16:03:41Z</time>
      </trkpt>
      <trkpt lat="47.46915" lon="-0.56986">
        <ele>5</ele>
        <time>2011-09-01T16:03:42Z</time>
      </trkpt>
      <trkpt lat="47.46912" lon="-0.56989">
        <ele>5</ele>
        <time>2011-09-01T16:03:43Z</time>
      </trkpt>
      <trkpt lat="47.46909" lon="-0.56992">
        <ele>5</ele>
        <time>2011-09-01T16:03:44Z</time>
      </trkpt>
      <trkpt lat="47.46906" lon="-0.56995">
        <ele>5</ele>
        <time>2011-09-01T16:03:45Z</time>
      </trkpt>
      <trkpt lat="47.46903" lon="-0.56999">
        <ele>5</ele>
        <time>2011-09-01T16:03:46Z</time>
      </trkpt>
      <trkpt lat="47.46901" lon="-0.57003">
        <ele>5</ele>
        <time>2011-09-01T16:03:47Z</time>
      </trkpt>
      <trkpt lat="47.46899" lon="-0.57006">
        <ele>5</ele>
        <time>2011-09-01T16:03:48Z</time>
      </trkpt>
      <trkpt lat="47.46896" lon="-0.5701">
        <ele>5</ele>
        <time>2011-09-01T16:03:49Z</time>
      </trkpt>
      <trkpt lat="47.46893" lon="-0.57014">
        <ele>5</ele>
        <time>2011-09-01T16:03:50Z</time>
      </trkpt>
      <trkpt lat="47.46891" lon="-0.57017">
        <ele>5</ele>
        <time>2011-09-01T16:03:51Z</time>
      </trkpt>
      <trkpt lat="47.46888" lon="-0.5702">
        <ele>5</ele>
        <time>2011-09-01T16:03:52Z</time>
      </trkpt>
      <trkpt lat="47.46886" lon="-0.57024">
        <ele>5</ele>
        <time>2011-09-01T16:03:53Z</time>
      </trkpt>
      <trkpt lat="47.46883" lon="-0.57028">
        <ele>5</ele>
        <time>2011-09-01T16:03:54Z</time>
      </trkpt>
      <trkpt lat="47.4688" lon="-0.57031">
        <ele>5</ele>
        <time>2011-09-01T16:03:55Z</time>
      </trkpt>
      <trkpt lat="47.46878" lon="-0.57035">
        <ele>5</ele>
        <time>2011-09-01T16:03:56Z</time>
      </trkpt>
      <trkpt lat="47.46875" lon="-0.57038">
        <ele>5</ele>
        <time>2011-09-01T16:03:57Z</time>
      </trkpt>
      <trkpt lat="47.46872" lon="-0.57041">
        <ele>5</ele>
        <time>2011-09-01T16:03:58Z</time>
      </trkpt>
      <trkpt lat="47.4687" lon="-0.57045">
        <ele>5</ele>
        <time>2011-09-01T16:03:59Z</time>
      </trkpt>
      <trkpt lat="47.46867" lon="-0.57048">
        <ele>5</ele>
        <time>2011-09-01T16:04:00Z</time>
      </trkpt>
      <trkpt lat="47.46864" lon="-0.57051">
        <ele>5</ele>
        <time>2011-09-01T16:04:01Z</time>
      </trkpt>
      <trkpt lat="47.46862" lon="-0.57055">
        <ele>5</ele>
        <time>2011-09-01T16:04:02Z</time>
      </trkpt>
      <trkpt lat="47.46859" lon="-0.57058">
        <ele>5</ele>
        <time>2011-09-01T16:04:03Z</time>
      </trkpt>
      <trkpt lat="47.46857" lon="-0.57061">
        <ele>5</ele>
        <time>2011-09-01T16:04:04Z</time>
      </trkpt>
      <trkpt lat="47.46855" lon="-0.57064">
        <ele>5</ele>
        <time>2011-09-01T16:04:05Z</time>
      </trkpt>
      <trkpt lat="47.46852" lon="-0.57067">
        <ele>5</ele>
        <time>2011-09-01T16:04:06Z</time>
      </trkpt>
      <trkpt lat="47.4685" lon="-0.57071">
        <ele>5</ele>
        <time>2011-09-01T16:04:07Z</time>
      </trkpt>
      <trkpt lat="47.46848" lon="-0.57074">
        <ele>5</ele>
        <time>2011-09-01T16:04:08Z</time>
      </trkpt>
      <trkpt lat="47.46845" lon="-0.57076">
        <ele>5</ele>
        <time>2011-09-01T16:04:09Z</time>
      </trkpt>
      <trkpt lat="47.46843" lon="-0.57079">
        <ele>5</ele>
        <time>2011-09-01T16:04:10Z</time>
      </trkpt>
      <trkpt lat="47.46841" lon="-0.57082">
        <ele>5</ele>
        <time>2011-09-01T16:04:11Z</time>
      </trkpt>
      <trkpt lat="47.46838" lon="-0.57085">
        <ele>5</ele>
        <time>2011-09-01T16:04:12Z</time>
      </trkpt>
      <trkpt lat="47.46836" lon="-0.57088">
        <ele>5</ele>
        <time>2011-09-01T16:04:13Z</time>
      </trkpt>
      <trkpt lat="47.46833" lon="-0.57091">
        <ele>5</ele>
        <time>2011-09-01T16:04:14Z</time>
      </trkpt>
      <trkpt lat="47.4683" lon="-0.57095">
        <ele>5</ele>
        <time>2011-09-01T16:04:15Z</time>
      </trkpt>
      <trkpt lat="47.46828" lon="-0.57098">
        <ele>5</ele>
        <time>2011-09-01T16:04:16Z</time>
      </trkpt>
      <trkpt lat="47.46826" lon="-0.57102">
        <ele>5</ele>
        <time>2011-09-01T16:04:17Z</time>
      </trkpt>
      <trkpt lat="47.46824" lon="-0.57105">
        <ele>5</ele>
        <time>2011-09-01T16:04:18Z</time>
      </trkpt>
      <trkpt lat="47.46821" lon="-0.57108">
        <ele>5</ele>
        <time>2011-09-01T16:04:19Z</time>
      </trkpt>
      <trkpt lat="47.46819" lon="-0.57112">
        <ele>5</ele>
        <time>2011-09-01T16:04:20Z</time>
      </trkpt>
      <trkpt lat="47.46817" lon="-0.57115">
        <ele>5</ele>
        <time>2011-09-01T16:04:21Z</time>
      </trkpt>
      <trkpt lat="47.46814" lon="-0.57118">
        <ele>5</ele>
        <time>2011-09-01T16:04:22Z</time>
      </trkpt>
      <trkpt lat="47.46812" lon="-0.57121">
        <ele>5</ele>
        <time>2011-09-01T16:04:23Z</time>
      </trkpt>
      <trkpt lat="47.46809" lon="-0.57124">
        <ele>5</ele>
        <time>2011-09-01T16:04:24Z</time>
      </trkpt>
      <trkpt lat="47.46807" lon="-0.57127">
        <ele>5</ele>
        <time>2011-09-01T16:04:25Z</time>
      </trkpt>
      <trkpt lat="47.46805" lon="-0.57131">
        <ele>5</ele>
        <time>2011-09-01T16:04:26Z</time>
      </trkpt>
      <trkpt lat="47.46802" lon="-0.57134">
        <ele>5</ele>
        <time>2011-09-01T16:04:27Z</time>
      </trkpt>
      <trkpt lat="47.468" lon="-0.57137">
        <ele>5</ele>
        <time>2011-09-01T16:04:28Z</time>
      </trkpt>
      <trkpt lat="47.46798" lon="-0.5714">
        <ele>5</ele>
        <time>2011-09-01T16:04:29Z</time>
      </trkpt>
      <trkpt lat="47.46795" lon="-0.57144">
        <ele>5</ele>
        <time>2011-09-01T16:04:30Z</time>
      </trkpt>
      <trkpt lat="47.46793" lon="-0.57147">
        <ele>5</ele>
        <time>2011-09-01T16:04:31Z</time>
      </trkpt>
      <trkpt lat="47.46791" lon="-0.57151">
        <ele>5</ele>
        <time>2011-09-01T16:04:32Z</time>
      </trkpt>
      <trkpt lat="47.46788" lon="-0.57153">
        <ele>5</ele>
        <time>2011-09-01T16:04:33Z</time>
      </trkpt>
      <trkpt lat="47.46786" lon="-0.57156">
        <ele>5</ele>
        <time>2011-09-01T16:04:34Z</time>
      </trkpt>
      <trkpt lat="47.46784" lon="-0.5716">
        <ele>5</ele>
        <time>2011-09-01T16:04:35Z</time>
      </trkpt>
      <trkpt lat="47.46782" lon="-0.57163">
        <ele>5</ele>
        <time>2011-09-01T16:04:36Z</time>
      </trkpt>
      <trkpt lat="47.46779" lon="-0.57166">
        <ele>5</ele>
        <time>2011-09-01T16:04:37Z</time>
      </trkpt>
      <trkpt lat="47.46777" lon="-0.57169">
        <ele>5</ele>
        <time>2011-09-01T16:04:38Z</time>
      </trkpt>
      <trkpt lat="47.46774" lon="-0.57172">
        <ele>5</ele>
        <time>2011-09-01T16:04:39Z</time>
      </trkpt>
      <trkpt lat="47.46772" lon="-0.57176">
        <ele>5</ele>
        <time>2011-09-01T16:04:40Z</time>
      </trkpt>
      <trkpt lat="47.4677" lon="-0.57179">
        <ele>5</ele>
        <time>2011-09-01T16:04:41Z</time>
      </trkpt>
      <trkpt lat="47.46767" lon="-0.57182">
        <ele>5</ele>
        <time>2011-09-01T16:04:42Z</time>
      </trkpt>
      <trkpt lat="47.46765" lon="-0.57185">
        <ele>5</ele>
        <time>2011-09-01T16:04:43Z</time>
      </trkpt>
      <trkpt lat="47.46763" lon="-0.57188">
        <ele>5</ele>
        <time>2011-09-01T16:04:44Z</time>
      </trkpt>
      <trkpt lat="47.46761" lon="-0.57191">
        <ele>5</ele>
        <time>2011-09-01T16:04:45Z</time>
      </trkpt>
      <trkpt lat="47.46758" lon="-0.57195">
        <ele>5</ele>
        <time>2011-09-01T16:04:46Z</time>
      </trkpt>
      <trkpt lat="47.46756" lon="-0.57198">
        <ele>5</ele>
        <time>2011-09-01T16:04:47Z</time>
      </trkpt>
      <trkpt lat="47.46753" lon="-0.57202">
        <ele>5</ele>
        <time>2011-09-01T16:04:48Z</time>
      </trkpt>
      <trkpt lat="47.46751" lon="-0.57205">
        <ele>5</ele>
        <time>2011-09-01T16:04:49Z</time>
      </trkpt>
      <trkpt lat="47.46748" lon="-0.57209">
        <ele>5</ele>
        <time>2011-09-01T16:04:50Z</time>
      </trkpt>
      <trkpt lat="47.46746" lon="-0.57213">
        <ele>5</ele>
        <time>2011-09-01T16:04:51Z</time>
      </trkpt>
      <trkpt lat="47.46744" lon="-0.57216">
        <ele>5</ele>
        <time>2011-09-01T16:04:52Z</time>
      </trkpt>
      <trkpt lat="47.46741" lon="-0.5722">
        <ele>5</ele>
        <time>2011-09-01T16:04:53Z</time>
      </trkpt>
      <trkpt lat="47.46739" lon="-0.57223">
        <ele>5</ele>
        <time>2011-09-01T16:04:54Z</time>
      </trkpt>
      <trkpt lat="47.46737" lon="-0.57227">
        <ele>5</ele>
        <time>2011-09-01T16:04:55Z</time>
      </trkpt>
      <trkpt lat="47.46735" lon="-0.5723">
        <ele>5</ele>
        <time>2011-09-01T16:04:56Z</time>
      </trkpt>
      <trkpt lat="47.46734" lon="-0.57232">
        <ele>5</ele>
        <time>2011-09-01T16:04:57Z</time>
      </trkpt>
      <trkpt lat="47.46732" lon="-0.57235">
        <ele>6</ele>
        <time>2011-09-01T16:04:58Z</time>
      </trkpt>
      <trkpt lat="47.4673" lon="-0.57237">
        <ele>6</ele>
        <time>2011-09-01T16:04:59Z</time>
      </trkpt>
      <trkpt lat="47.46728" lon="-0.5724">
        <ele>6</ele>
        <time>2011-09-01T16:05:00Z</time>
      </trkpt>
      <trkpt lat="47.46727" lon="-0.57243">
        <ele>6</ele>
        <time>2011-09-01T16:05:01Z</time>
      </trkpt>
      <trkpt lat="47.46725" lon="-0.57247">
        <ele>6</ele>
        <time>2011-09-01T16:05:02Z</time>
      </trkpt>
      <trkpt lat="47.46723" lon="-0.5725">
        <ele>6</ele>
        <time>2011-09-01T16:05:03Z</time>
      </trkpt>
      <trkpt lat="47.46722" lon="-0.57253">
        <ele>6</ele>
        <time>2011-09-01T16:05:04Z</time>
      </trkpt>
      <trkpt lat="47.46719" lon="-0.57256">
        <ele>6</ele>
        <time>2011-09-01T16:05:05Z</time>
      </trkpt>
      <trkpt lat="47.46717" lon="-0.57259">
        <ele>6</ele>
        <time>2011-09-01T16:05:06Z</time>
      </trkpt>
      <trkpt lat="47.46714" lon="-0.57262">
        <ele>7</ele>
        <time>2011-09-01T16:05:07Z</time>
      </trkpt>
      <trkpt lat="47.46711" lon="-0.57266">
        <ele>7</ele>
        <time>2011-09-01T16:05:08Z</time>
      </trkpt>
      <trkpt lat="47.46709" lon="-0.57269">
        <ele>7</ele>
        <time>2011-09-01T16:05:09Z</time>
      </trkpt>
      <trkpt lat="47.46706" lon="-0.57272">
        <ele>7</ele>
        <time>2011-09-01T16:05:10Z</time>
      </trkpt>
      <trkpt lat="47.46704" lon="-0.57275">
        <ele>7</ele>
        <time>2011-09-01T16:05:11Z</time>
      </trkpt>
      <trkpt lat="47.46702" lon="-0.57278">
        <ele>7</ele>
        <time>2011-09-01T16:05:12Z</time>
      </trkpt>
      <trkpt lat="47.467" lon="-0.5728">
        <ele>7</ele>
        <time>2011-09-01T16:05:13Z</time>
      </trkpt>
      <trkpt lat="47.46698" lon="-0.57283">
        <ele>7</ele>
        <time>2011-09-01T16:05:14Z</time>
      </trkpt>
      <trkpt lat="47.46696" lon="-0.57286">
        <ele>7</ele>
        <time>2011-09-01T16:05:15Z</time>
      </trkpt>
      <trkpt lat="47.46695" lon="-0.57289">
        <ele>7</ele>
        <time>2011-09-01T16:05:16Z</time>
      </trkpt>
      <trkpt lat="47.46693" lon="-0.57292">
        <ele>7</ele>
        <time>2011-09-01T16:05:17Z</time>
      </trkpt>
      <trkpt lat="47.46691" lon="-0.57295">
        <ele>7</ele>
        <time>2011-09-01T16:05:18Z</time>
      </trkpt>
      <trkpt lat="47.46689" lon="-0.57298">
        <ele>7</ele>
        <time>2011-09-01T16:05:19Z</time>
      </trkpt>
      <trkpt lat="47.46686" lon="-0.57301">
        <ele>7</ele>
        <time>2011-09-01T16:05:20Z</time>
      </trkpt>
      <trkpt lat="47.46684" lon="-0.57304">
        <ele>7</ele>
        <time>2011-09-01T16:05:21Z</time>
      </trkpt>
      <trkpt lat="47.46681" lon="-0.57307">
        <ele>7</ele>
        <time>2011-09-01T16:05:22Z</time>
      </trkpt>
      <trkpt lat="47.46678" lon="-0.5731">
        <ele>7</ele>
        <time>2011-09-01T16:05:23Z</time>
      </trkpt>
      <trkpt lat="47.46675" lon="-0.57313">
        <ele>7</ele>
        <time>2011-09-01T16:05:24Z</time>
      </trkpt>
      <trkpt lat="47.46673" lon="-0.57315">
        <ele>7</ele>
        <time>2011-09-01T16:05:25Z</time>
      </trkpt>
      <trkpt lat="47.46671" lon="-0.57318">
        <ele>7</ele>
        <time>2011-09-01T16:05:26Z</time>
      </trkpt>
      <trkpt lat="47.46667" lon="-0.57321">
        <ele>7</ele>
        <time>2011-09-01T16:05:27Z</time>
      </trkpt>
      <trkpt lat="47.46666" lon="-0.57323">
        <ele>7</ele>
        <time>2011-09-01T16:05:28Z</time>
      </trkpt>
      <trkpt lat="47.46664" lon="-0.57326">
        <ele>7</ele>
        <time>2011-09-01T16:05:29Z</time>
      </trkpt>
      <trkpt lat="47.46662" lon="-0.57329">
        <ele>7</ele>
        <time>2011-09-01T16:05:30Z</time>
      </trkpt>
      <trkpt lat="47.46659" lon="-0.57332">
        <ele>7</ele>
        <time>2011-09-01T16:05:31Z</time>
      </trkpt>
      <trkpt lat="47.46656" lon="-0.57336">
        <ele>7</ele>
        <time>2011-09-01T16:05:32Z</time>
      </trkpt>
      <trkpt lat="47.46654" lon="-0.57339">
        <ele>7</ele>
        <time>2011-09-01T16:05:33Z</time>
      </trkpt>
      <trkpt lat="47.46651" lon="-0.57342">
        <ele>7</ele>
        <time>2011-09-01T16:05:34Z</time>
      </trkpt>
      <trkpt lat="47.46648" lon="-0.57346">
        <ele>7</ele>
        <time>2011-09-01T16:05:35Z</time>
      </trkpt>
      <trkpt lat="47.46644" lon="-0.5735">
        <ele>7</ele>
        <time>2011-09-01T16:05:36Z</time>
      </trkpt>
      <trkpt lat="47.46641" lon="-0.57354">
        <ele>7</ele>
        <time>2011-09-01T16:05:37Z</time>
      </trkpt>
      <trkpt lat="47.46638" lon="-0.57357">
        <ele>7</ele>
        <time>2011-09-01T16:05:38Z</time>
      </trkpt>
      <trkpt lat="47.46635" lon="-0.57361">
        <ele>7</ele>
        <time>2011-09-01T16:05:39Z</time>
      </trkpt>
      <trkpt lat="47.46632" lon="-0.57364">
        <ele>7</ele>
        <time>2011-09-01T16:05:40Z</time>
      </trkpt>
      <trkpt lat="47.46629" lon="-0.57367">
        <ele>7</ele>
        <time>2011-09-01T16:05:41Z</time>
      </trkpt>
      <trkpt lat="47.46627" lon="-0.57369">
        <ele>7</ele>
        <time>2011-09-01T16:05:42Z</time>
      </trkpt>
      <trkpt lat="47.46624" lon="-0.57372">
        <ele>7</ele>
        <time>2011-09-01T16:05:43Z</time>
      </trkpt>
      <trkpt lat="47.46621" lon="-0.57375">
        <ele>7</ele>
        <time>2011-09-01T16:05:44Z</time>
      </trkpt>
      <trkpt lat="47.46619" lon="-0.57377">
        <ele>7</ele>
        <time>2011-09-01T16:05:45Z</time>
      </trkpt>
      <trkpt lat="47.46616" lon="-0.5738">
        <ele>7</ele>
        <time>2011-09-01T16:05:46Z</time>
      </trkpt>
      <trkpt lat="47.46614" lon="-0.57382">
        <ele>7</ele>
        <time>2011-09-01T16:05:47Z</time>
      </trkpt>
      <trkpt lat="47.46611" lon="-0.57385">
        <ele>7</ele>
        <time>2011-09-01T16:05:48Z</time>
      </trkpt>
      <trkpt lat="47.46609" lon="-0.57389">
        <ele>7</ele>
        <time>2011-09-01T16:05:49Z</time>
      </trkpt>
      <trkpt lat="47.46606" lon="-0.57391">
        <ele>7</ele>
        <time>2011-09-01T16:05:50Z</time>
      </trkpt>
      <trkpt lat="47.46603" lon="-0.57394">
        <ele>7</ele>
        <time>2011-09-01T16:05:51Z</time>
      </trkpt>
      <trkpt lat="47.46601" lon="-0.57398">
        <ele>7</ele>
        <time>2011-09-01T16:05:52Z</time>
      </trkpt>
      <trkpt lat="47.46598" lon="-0.57401">
        <ele>7</ele>
        <time>2011-09-01T16:05:53Z</time>
      </trkpt>
      <trkpt lat="47.46595" lon="-0.57404">
        <ele>7</ele>
        <time>2011-09-01T16:05:54Z</time>
      </trkpt>
      <trkpt lat="47.46592" lon="-0.57406">
        <ele>7</ele>
        <time>2011-09-01T16:05:55Z</time>
      </trkpt>
      <trkpt lat="47.4659" lon="-0.57409">
        <ele>7</ele>
        <time>2011-09-01T16:05:56Z</time>
      </trkpt>
      <trkpt lat="47.46588" lon="-0.57412">
        <ele>7</ele>
        <time>2011-09-01T16:05:57Z</time>
      </trkpt>
      <trkpt lat="47.46585" lon="-0.57415">
        <ele>7</ele>
        <time>2011-09-01T16:05:58Z</time>
      </trkpt>
      <trkpt lat="47.46583" lon="-0.57419">
        <ele>7</ele>
        <time>2011-09-01T16:05:59Z</time>
      </trkpt>
      <trkpt lat="47.4658" lon="-0.57421">
        <ele>7</ele>
        <time>2011-09-01T16:06:00Z</time>
      </trkpt>
      <trkpt lat="47.46578" lon="-0.57424">
        <ele>7</ele>
        <time>2011-09-01T16:06:01Z</time>
      </trkpt>
      <trkpt lat="47.46576" lon="-0.57427">
        <ele>7</ele>
        <time>2011-09-01T16:06:02Z</time>
      </trkpt>
      <trkpt lat="47.46573" lon="-0.57429">
        <ele>7</ele>
        <time>2011-09-01T16:06:03Z</time>
      </trkpt>
      <trkpt lat="47.46571" lon="-0.57431">
        <ele>7</ele>
        <time>2011-09-01T16:06:04Z</time>
      </trkpt>
      <trkpt lat="47.46568" lon="-0.57434">
        <ele>7</ele>
        <time>2011-09-01T16:06:05Z</time>
      </trkpt>
      <trkpt lat="47.46566" lon="-0.57437">
        <ele>7</ele>
        <time>2011-09-01T16:06:06Z</time>
      </trkpt>
      <trkpt lat="47.46563" lon="-0.5744">
        <ele>7</ele>
        <time>2011-09-01T16:06:07Z</time>
      </trkpt>
      <trkpt lat="47.46561" lon="-0.57443">
        <ele>7</ele>
        <time>2011-09-01T16:06:08Z</time>
      </trkpt>
      <trkpt lat="47.46558" lon="-0.57446">
        <ele>7</ele>
        <time>2011-09-01T16:06:09Z</time>
      </trkpt>
      <trkpt lat="47.46555" lon="-0.5745">
        <ele>7</ele>
        <time>2011-09-01T16:06:10Z</time>
      </trkpt>
      <trkpt lat="47.46552" lon="-0.57454">
        <ele>7</ele>
        <time>2011-09-01T16:06:11Z</time>
      </trkpt>
      <trkpt lat="47.46549" lon="-0.57457">
        <ele>7</ele>
        <time>2011-09-01T16:06:12Z</time>
      </trkpt>
      <trkpt lat="47.46545" lon="-0.57461">
        <ele>7</ele>
        <time>2011-09-01T16:06:13Z</time>
      </trkpt>
      <trkpt lat="47.46542" lon="-0.57465">
        <ele>7</ele>
        <time>2011-09-01T16:06:14Z</time>
      </trkpt>
      <trkpt lat="47.46539" lon="-0.57468">
        <ele>7</ele>
        <time>2011-09-01T16:06:15Z</time>
      </trkpt>
      <trkpt lat="47.46536" lon="-0.57472">
        <ele>7</ele>
        <time>2011-09-01T16:06:16Z</time>
      </trkpt>
      <trkpt lat="47.46533" lon="-0.57474">
        <ele>7</ele>
        <time>2011-09-01T16:06:17Z</time>
      </trkpt>
      <trkpt lat="47.4653" lon="-0.57477">
        <ele>7</ele>
        <time>2011-09-01T16:06:18Z</time>
      </trkpt>
      <trkpt lat="47.46527" lon="-0.57478">
        <ele>7</ele>
        <time>2011-09-01T16:06:19Z</time>
      </trkpt>
      <trkpt lat="47.46525" lon="-0.57481">
        <ele>7</ele>
        <time>2011-09-01T16:06:20Z</time>
      </trkpt>
      <trkpt lat="47.46523" lon="-0.57483">
        <ele>7</ele>
        <time>2011-09-01T16:06:21Z</time>
      </trkpt>
      <trkpt lat="47.4652" lon="-0.57486">
        <ele>7</ele>
        <time>2011-09-01T16:06:22Z</time>
      </trkpt>
      <trkpt lat="47.46519" lon="-0.57489">
        <ele>7</ele>
        <time>2011-09-01T16:06:23Z</time>
      </trkpt>
      <trkpt lat="47.46518" lon="-0.57492">
        <ele>7</ele>
        <time>2011-09-01T16:06:24Z</time>
      </trkpt>
      <trkpt lat="47.46517" lon="-0.57495">
        <ele>7</ele>
        <time>2011-09-01T16:06:25Z</time>
      </trkpt>
      <trkpt lat="47.46515" lon="-0.57498">
        <ele>7</ele>
        <time>2011-09-01T16:06:26Z</time>
      </trkpt>
      <trkpt lat="47.46513" lon="-0.57501">
        <ele>7</ele>
        <time>2011-09-01T16:06:27Z</time>
      </trkpt>
      <trkpt lat="47.4651" lon="-0.57503">
        <ele>7</ele>
        <time>2011-09-01T16:06:28Z</time>
      </trkpt>
      <trkpt lat="47.46508" lon="-0.57506">
        <ele>8</ele>
        <time>2011-09-01T16:06:29Z</time>
      </trkpt>
      <trkpt lat="47.46506" lon="-0.57509">
        <ele>8</ele>
        <time>2011-09-01T16:06:30Z</time>
      </trkpt>
      <trkpt lat="47.46503" lon="-0.57512">
        <ele>9</ele>
        <time>2011-09-01T16:06:31Z</time>
      </trkpt>
      <trkpt lat="47.46501" lon="-0.57516">
        <ele>10</ele>
        <time>2011-09-01T16:06:32Z</time>
      </trkpt>
      <trkpt lat="47.46493" lon="-0.57523">
        <ele>11</ele>
        <time>2011-09-01T16:06:35Z</time>
      </trkpt>
      <trkpt lat="47.46489" lon="-0.57528">
        <ele>12</ele>
        <time>2011-09-01T16:06:36Z</time>
      </trkpt>
      <trkpt lat="47.46486" lon="-0.57533">
        <ele>12</ele>
        <time>2011-09-01T16:06:37Z</time>
      </trkpt>
      <trkpt lat="47.46484" lon="-0.57535">
        <ele>12</ele>
        <time>2011-09-01T16:06:38Z</time>
      </trkpt>
      <trkpt lat="47.46481" lon="-0.57538">
        <ele>12</ele>
        <time>2011-09-01T16:06:39Z</time>
      </trkpt>
      <trkpt lat="47.46476" lon="-0.57541">
        <ele>12</ele>
        <time>2011-09-01T16:06:40Z</time>
      </trkpt>
      <trkpt lat="47.46472" lon="-0.57545">
        <ele>12</ele>
        <time>2011-09-01T16:06:41Z</time>
      </trkpt>
      <trkpt lat="47.4647" lon="-0.57547">
        <ele>12</ele>
        <time>2011-09-01T16:06:42Z</time>
      </trkpt>
      <trkpt lat="47.46468" lon="-0.5755">
        <ele>12</ele>
        <time>2011-09-01T16:06:43Z</time>
      </trkpt>
      <trkpt lat="47.46465" lon="-0.57553">
        <ele>12</ele>
        <time>2011-09-01T16:06:44Z</time>
      </trkpt>
      <trkpt lat="47.46462" lon="-0.57557">
        <ele>12</ele>
        <time>2011-09-01T16:06:45Z</time>
      </trkpt>
      <trkpt lat="47.46458" lon="-0.5756">
        <ele>12</ele>
        <time>2011-09-01T16:06:46Z</time>
      </trkpt>
      <trkpt lat="47.46455" lon="-0.57563">
        <ele>12</ele>
        <time>2011-09-01T16:06:47Z</time>
      </trkpt>
      <trkpt lat="47.46452" lon="-0.57566">
        <ele>12</ele>
        <time>2011-09-01T16:06:48Z</time>
      </trkpt>
      <trkpt lat="47.46449" lon="-0.5757">
        <ele>12</ele>
        <time>2011-09-01T16:06:49Z</time>
      </trkpt>
      <trkpt lat="47.46446" lon="-0.57573">
        <ele>12</ele>
        <time>2011-09-01T16:06:50Z</time>
      </trkpt>
      <trkpt lat="47.46443" lon="-0.57576">
        <ele>12</ele>
        <time>2011-09-01T16:06:51Z</time>
      </trkpt>
      <trkpt lat="47.46441" lon="-0.57578">
        <ele>12</ele>
        <time>2011-09-01T16:06:52Z</time>
      </trkpt>
      <trkpt lat="47.46437" lon="-0.5758">
        <ele>12</ele>
        <time>2011-09-01T16:06:53Z</time>
      </trkpt>
      <trkpt lat="47.46434" lon="-0.57582">
        <ele>12</ele>
        <time>2011-09-01T16:06:54Z</time>
      </trkpt>
      <trkpt lat="47.46432" lon="-0.57585">
        <ele>12</ele>
        <time>2011-09-01T16:06:55Z</time>
      </trkpt>
      <trkpt lat="47.46429" lon="-0.57586">
        <ele>12</ele>
        <time>2011-09-01T16:06:56Z</time>
      </trkpt>
      <trkpt lat="47.46427" lon="-0.57588">
        <ele>12</ele>
        <time>2011-09-01T16:06:57Z</time>
      </trkpt>
      <trkpt lat="47.46425" lon="-0.57591">
        <ele>12</ele>
        <time>2011-09-01T16:06:58Z</time>
      </trkpt>
      <trkpt lat="47.46423" lon="-0.57592">
        <ele>12</ele>
        <time>2011-09-01T16:06:59Z</time>
      </trkpt>
      <trkpt lat="47.46421" lon="-0.57595">
        <ele>12</ele>
        <time>2011-09-01T16:07:00Z</time>
      </trkpt>
      <trkpt lat="47.46419" lon="-0.57597">
        <ele>12</ele>
        <time>2011-09-01T16:07:01Z</time>
      </trkpt>
      <trkpt lat="47.46417" lon="-0.57599">
        <ele>12</ele>
        <time>2011-09-01T16:07:02Z</time>
      </trkpt>
      <trkpt lat="47.46415" lon="-0.57601">
        <ele>12</ele>
        <time>2011-09-01T16:07:03Z</time>
      </trkpt>
      <trkpt lat="47.46412" lon="-0.57604">
        <ele>12</ele>
        <time>2011-09-01T16:07:04Z</time>
      </trkpt>
      <trkpt lat="47.4641" lon="-0.57606">
        <ele>12</ele>
        <time>2011-09-01T16:07:05Z</time>
      </trkpt>
      <trkpt lat="47.46405" lon="-0.5761">
        <ele>12</ele>
        <time>2011-09-01T16:07:06Z</time>
      </trkpt>
      <trkpt lat="47.46402" lon="-0.57613">
        <ele>12</ele>
        <time>2011-09-01T16:07:07Z</time>
      </trkpt>
      <trkpt lat="47.46399" lon="-0.57615">
        <ele>12</ele>
        <time>2011-09-01T16:07:08Z</time>
      </trkpt>
      <trkpt lat="47.46397" lon="-0.57618">
        <ele>12</ele>
        <time>2011-09-01T16:07:09Z</time>
      </trkpt>
      <trkpt lat="47.46394" lon="-0.5762">
        <ele>12</ele>
        <time>2011-09-01T16:07:10Z</time>
      </trkpt>
      <trkpt lat="47.46391" lon="-0.57623">
        <ele>12</ele>
        <time>2011-09-01T16:07:11Z</time>
      </trkpt>
      <trkpt lat="47.46388" lon="-0.57625">
        <ele>12</ele>
        <time>2011-09-01T16:07:12Z</time>
      </trkpt>
      <trkpt lat="47.46385" lon="-0.57628">
        <ele>12</ele>
        <time>2011-09-01T16:07:13Z</time>
      </trkpt>
      <trkpt lat="47.46381" lon="-0.57631">
        <ele>12</ele>
        <time>2011-09-01T16:07:14Z</time>
      </trkpt>
      <trkpt lat="47.46378" lon="-0.57633">
        <ele>12</ele>
        <time>2011-09-01T16:07:15Z</time>
      </trkpt>
      <trkpt lat="47.46375" lon="-0.57635">
        <ele>12</ele>
        <time>2011-09-01T16:07:16Z</time>
      </trkpt>
      <trkpt lat="47.46372" lon="-0.57637">
        <ele>12</ele>
        <time>2011-09-01T16:07:17Z</time>
      </trkpt>
      <trkpt lat="47.46369" lon="-0.57639">
        <ele>12</ele>
        <time>2011-09-01T16:07:18Z</time>
      </trkpt>
      <trkpt lat="47.46366" lon="-0.57641">
        <ele>12</ele>
        <time>2011-09-01T16:07:19Z</time>
      </trkpt>
      <trkpt lat="47.46363" lon="-0.57643">
        <ele>12</ele>
        <time>2011-09-01T16:07:20Z</time>
      </trkpt>
      <trkpt lat="47.4636" lon="-0.57645">
        <ele>12</ele>
        <time>2011-09-01T16:07:21Z</time>
      </trkpt>
      <trkpt lat="47.46357" lon="-0.57648">
        <ele>12</ele>
        <time>2011-09-01T16:07:22Z</time>
      </trkpt>
      <trkpt lat="47.46353" lon="-0.5765">
        <ele>12</ele>
        <time>2011-09-01T16:07:23Z</time>
      </trkpt>
      <trkpt lat="47.46349" lon="-0.57653">
        <ele>12</ele>
        <time>2011-09-01T16:07:24Z</time>
      </trkpt>
      <trkpt lat="47.46347" lon="-0.57654">
        <ele>12</ele>
        <time>2011-09-01T16:07:25Z</time>
      </trkpt>
      <trkpt lat="47.46344" lon="-0.57657">
        <ele>12</ele>
        <time>2011-09-01T16:07:26Z</time>
      </trkpt>
      <trkpt lat="47.46342" lon="-0.57659">
        <ele>12</ele>
        <time>2011-09-01T16:07:27Z</time>
      </trkpt>
      <trkpt lat="47.46339" lon="-0.57661">
        <ele>12</ele>
        <time>2011-09-01T16:07:28Z</time>
      </trkpt>
      <trkpt lat="47.46336" lon="-0.57663">
        <ele>12</ele>
        <time>2011-09-01T16:07:29Z</time>
      </trkpt>
      <trkpt lat="47.46332" lon="-0.57665">
        <ele>12</ele>
        <time>2011-09-01T16:07:30Z</time>
      </trkpt>
      <trkpt lat="47.46329" lon="-0.57667">
        <ele>12</ele>
        <time>2011-09-01T16:07:31Z</time>
      </trkpt>
      <trkpt lat="47.46325" lon="-0.5767">
        <ele>12</ele>
        <time>2011-09-01T16:07:32Z</time>
      </trkpt>
      <trkpt lat="47.46322" lon="-0.57673">
        <ele>12</ele>
        <time>2011-09-01T16:07:33Z</time>
      </trkpt>
      <trkpt lat="47.46318" lon="-0.57675">
        <ele>12</ele>
        <time>2011-09-01T16:07:34Z</time>
      </trkpt>
      <trkpt lat="47.46315" lon="-0.57678">
        <ele>12</ele>
        <time>2011-09-01T16:07:35Z</time>
      </trkpt>
      <trkpt lat="47.46312" lon="-0.57681">
        <ele>12</ele>
        <time>2011-09-01T16:07:36Z</time>
      </trkpt>
      <trkpt lat="47.46308" lon="-0.57683">
        <ele>12</ele>
        <time>2011-09-01T16:07:37Z</time>
      </trkpt>
      <trkpt lat="47.46304" lon="-0.57686">
        <ele>12</ele>
        <time>2011-09-01T16:07:38Z</time>
      </trkpt>
      <trkpt lat="47.46301" lon="-0.57689">
        <ele>12</ele>
        <time>2011-09-01T16:07:39Z</time>
      </trkpt>
      <trkpt lat="47.46297" lon="-0.57691">
        <ele>12</ele>
        <time>2011-09-01T16:07:40Z</time>
      </trkpt>
      <trkpt lat="47.46294" lon="-0.57693">
        <ele>12</ele>
        <time>2011-09-01T16:07:41Z</time>
      </trkpt>
      <trkpt lat="47.46291" lon="-0.57695">
        <ele>12</ele>
        <time>2011-09-01T16:07:42Z</time>
      </trkpt>
      <trkpt lat="47.46287" lon="-0.57697">
        <ele>12</ele>
        <time>2011-09-01T16:07:43Z</time>
      </trkpt>
      <trkpt lat="47.46284" lon="-0.57698">
        <ele>12</ele>
        <time>2011-09-01T16:07:44Z</time>
      </trkpt>
      <trkpt lat="47.46281" lon="-0.577">
        <ele>12</ele>
        <time>2011-09-01T16:07:45Z</time>
      </trkpt>
      <trkpt lat="47.46279" lon="-0.57701">
        <ele>12</ele>
        <time>2011-09-01T16:07:46Z</time>
      </trkpt>
      <trkpt lat="47.46276" lon="-0.57702">
        <ele>12</ele>
        <time>2011-09-01T16:07:47Z</time>
      </trkpt>
      <trkpt lat="47.46274" lon="-0.57704">
        <ele>12</ele>
        <time>2011-09-01T16:07:48Z</time>
      </trkpt>
      <trkpt lat="47.46272" lon="-0.57705">
        <ele>12</ele>
        <time>2011-09-01T16:07:49Z</time>
      </trkpt>
      <trkpt lat="47.46269" lon="-0.57707">
        <ele>12</ele>
        <time>2011-09-01T16:07:50Z</time>
      </trkpt>
      <trkpt lat="47.46266" lon="-0.57708">
        <ele>12</ele>
        <time>2011-09-01T16:07:51Z</time>
      </trkpt>
      <trkpt lat="47.46264" lon="-0.57709">
        <ele>12</ele>
        <time>2011-09-01T16:07:52Z</time>
      </trkpt>
      <trkpt lat="47.46261" lon="-0.57711">
        <ele>12</ele>
        <time>2011-09-01T16:07:53Z</time>
      </trkpt>
      <trkpt lat="47.46258" lon="-0.57713">
        <ele>12</ele>
        <time>2011-09-01T16:07:54Z</time>
      </trkpt>
      <trkpt lat="47.46254" lon="-0.57714">
        <ele>12</ele>
        <time>2011-09-01T16:07:55Z</time>
      </trkpt>
      <trkpt lat="47.46252" lon="-0.57717">
        <ele>12</ele>
        <time>2011-09-01T16:07:56Z</time>
      </trkpt>
      <trkpt lat="47.46248" lon="-0.57719">
        <ele>12</ele>
        <time>2011-09-01T16:07:57Z</time>
      </trkpt>
      <trkpt lat="47.46245" lon="-0.57721">
        <ele>12</ele>
        <time>2011-09-01T16:07:58Z</time>
      </trkpt>
      <trkpt lat="47.46243" lon="-0.57723">
        <ele>12</ele>
        <time>2011-09-01T16:07:59Z</time>
      </trkpt>
      <trkpt lat="47.4624" lon="-0.57724">
        <ele>12</ele>
        <time>2011-09-01T16:08:00Z</time>
      </trkpt>
      <trkpt lat="47.46237" lon="-0.57725">
        <ele>12</ele>
        <time>2011-09-01T16:08:01Z</time>
      </trkpt>
      <trkpt lat="47.46235" lon="-0.57726">
        <ele>12</ele>
        <time>2011-09-01T16:08:02Z</time>
      </trkpt>
      <trkpt lat="47.46232" lon="-0.57727">
        <ele>12</ele>
        <time>2011-09-01T16:08:03Z</time>
      </trkpt>
      <trkpt lat="47.46229" lon="-0.57728">
        <ele>12</ele>
        <time>2011-09-01T16:08:04Z</time>
      </trkpt>
      <trkpt lat="47.46227" lon="-0.57729">
        <ele>12</ele>
        <time>2011-09-01T16:08:05Z</time>
      </trkpt>
      <trkpt lat="47.46223" lon="-0.5773">
        <ele>12</ele>
        <time>2011-09-01T16:08:06Z</time>
      </trkpt>
      <trkpt lat="47.4622" lon="-0.57731">
        <ele>12</ele>
        <time>2011-09-01T16:08:07Z</time>
      </trkpt>
      <trkpt lat="47.46217" lon="-0.57733">
        <ele>12</ele>
        <time>2011-09-01T16:08:08Z</time>
      </trkpt>
      <trkpt lat="47.46214" lon="-0.57735">
        <ele>12</ele>
        <time>2011-09-01T16:08:09Z</time>
      </trkpt>
      <trkpt lat="47.46212" lon="-0.57736">
        <ele>12</ele>
        <time>2011-09-01T16:08:10Z</time>
      </trkpt>
      <trkpt lat="47.46209" lon="-0.57738">
        <ele>12</ele>
        <time>2011-09-01T16:08:11Z</time>
      </trkpt>
      <trkpt lat="47.46206" lon="-0.57739">
        <ele>12</ele>
        <time>2011-09-01T16:08:12Z</time>
      </trkpt>
      <trkpt lat="47.46204" lon="-0.5774">
        <ele>12</ele>
        <time>2011-09-01T16:08:13Z</time>
      </trkpt>
      <trkpt lat="47.46201" lon="-0.57741">
        <ele>12</ele>
        <time>2011-09-01T16:08:14Z</time>
      </trkpt>
      <trkpt lat="47.46199" lon="-0.57743">
        <ele>12</ele>
        <time>2011-09-01T16:08:15Z</time>
      </trkpt>
      <trkpt lat="47.46196" lon="-0.57744">
        <ele>12</ele>
        <time>2011-09-01T16:08:16Z</time>
      </trkpt>
      <trkpt lat="47.46193" lon="-0.57746">
        <ele>12</ele>
        <time>2011-09-01T16:08:17Z</time>
      </trkpt>
      <trkpt lat="47.46191" lon="-0.57747">
        <ele>12</ele>
        <time>2011-09-01T16:08:18Z</time>
      </trkpt>
      <trkpt lat="47.46188" lon="-0.57748">
        <ele>12</ele>
        <time>2011-09-01T16:08:19Z</time>
      </trkpt>
      <trkpt lat="47.46186" lon="-0.57749">
        <ele>12</ele>
        <time>2011-09-01T16:08:20Z</time>
      </trkpt>
      <trkpt lat="47.46184" lon="-0.5775">
        <ele>12</ele>
        <time>2011-09-01T16:08:21Z</time>
      </trkpt>
      <trkpt lat="47.46181" lon="-0.5775">
        <ele>12</ele>
        <time>2011-09-01T16:08:22Z</time>
      </trkpt>
      <trkpt lat="47.46178" lon="-0.57751">
        <ele>12</ele>
        <time>2011-09-01T16:08:23Z</time>
      </trkpt>
      <trkpt lat="47.46175" lon="-0.57752">
        <ele>12</ele>
        <time>2011-09-01T16:08:24Z</time>
      </trkpt>
      <trkpt lat="47.46172" lon="-0.57753">
        <ele>12</ele>
        <time>2011-09-01T16:08:25Z</time>
      </trkpt>
      <trkpt lat="47.4617" lon="-0.57754">
        <ele>12</ele>
        <time>2011-09-01T16:08:26Z</time>
      </trkpt>
      <trkpt lat="47.46167" lon="-0.57754">
        <ele>12</ele>
        <time>2011-09-01T16:08:27Z</time>
      </trkpt>
      <trkpt lat="47.46165" lon="-0.57755">
        <ele>12</ele>
        <time>2011-09-01T16:08:28Z</time>
      </trkpt>
      <trkpt lat="47.46162" lon="-0.57757">
        <ele>12</ele>
        <time>2011-09-01T16:08:29Z</time>
      </trkpt>
      <trkpt lat="47.46159" lon="-0.57759">
        <ele>12</ele>
        <time>2011-09-01T16:08:30Z</time>
      </trkpt>
      <trkpt lat="47.46155" lon="-0.5776">
        <ele>12</ele>
        <time>2011-09-01T16:08:31Z</time>
      </trkpt>
      <trkpt lat="47.46151" lon="-0.57761">
        <ele>12</ele>
        <time>2011-09-01T16:08:32Z</time>
      </trkpt>
      <trkpt lat="47.46148" lon="-0.57762">
        <ele>12</ele>
        <time>2011-09-01T16:08:33Z</time>
      </trkpt>
      <trkpt lat="47.46146" lon="-0.57763">
        <ele>12</ele>
        <time>2011-09-01T16:08:34Z</time>
      </trkpt>
      <trkpt lat="47.46143" lon="-0.57764">
        <ele>12</ele>
        <time>2011-09-01T16:08:35Z</time>
      </trkpt>
      <trkpt lat="47.4614" lon="-0.57765">
        <ele>12</ele>
        <time>2011-09-01T16:08:36Z</time>
      </trkpt>
      <trkpt lat="47.46137" lon="-0.57766">
        <ele>12</ele>
        <time>2011-09-01T16:08:37Z</time>
      </trkpt>
      <trkpt lat="47.46134" lon="-0.57767">
        <ele>12</ele>
        <time>2011-09-01T16:08:38Z</time>
      </trkpt>
      <trkpt lat="47.46131" lon="-0.57769">
        <ele>12</ele>
        <time>2011-09-01T16:08:39Z</time>
      </trkpt>
      <trkpt lat="47.46128" lon="-0.57771">
        <ele>12</ele>
        <time>2011-09-01T16:08:40Z</time>
      </trkpt>
      <trkpt lat="47.46125" lon="-0.57772">
        <ele>12</ele>
        <time>2011-09-01T16:08:41Z</time>
      </trkpt>
      <trkpt lat="47.46122" lon="-0.57773">
        <ele>12</ele>
        <time>2011-09-01T16:08:42Z</time>
      </trkpt>
      <trkpt lat="47.46119" lon="-0.57775">
        <ele>12</ele>
        <time>2011-09-01T16:08:43Z</time>
      </trkpt>
      <trkpt lat="47.46117" lon="-0.57776">
        <ele>12</ele>
        <time>2011-09-01T16:08:44Z</time>
      </trkpt>
      <trkpt lat="47.46114" lon="-0.57778">
        <ele>12</ele>
        <time>2011-09-01T16:08:45Z</time>
      </trkpt>
      <trkpt lat="47.46111" lon="-0.5778">
        <ele>12</ele>
        <time>2011-09-01T16:08:46Z</time>
      </trkpt>
      <trkpt lat="47.46107" lon="-0.57781">
        <ele>12</ele>
        <time>2011-09-01T16:08:47Z</time>
      </trkpt>
      <trkpt lat="47.46103" lon="-0.57781">
        <ele>12</ele>
        <time>2011-09-01T16:08:48Z</time>
      </trkpt>
      <trkpt lat="47.461" lon="-0.57783">
        <ele>12</ele>
        <time>2011-09-01T16:08:49Z</time>
      </trkpt>
      <trkpt lat="47.46096" lon="-0.57785">
        <ele>12</ele>
        <time>2011-09-01T16:08:50Z</time>
      </trkpt>
      <trkpt lat="47.46093" lon="-0.57787">
        <ele>12</ele>
        <time>2011-09-01T16:08:51Z</time>
      </trkpt>
      <trkpt lat="47.4609" lon="-0.57789">
        <ele>12</ele>
        <time>2011-09-01T16:08:52Z</time>
      </trkpt>
      <trkpt lat="47.46087" lon="-0.5779">
        <ele>12</ele>
        <time>2011-09-01T16:08:53Z</time>
      </trkpt>
      <trkpt lat="47.46084" lon="-0.57792">
        <ele>12</ele>
        <time>2011-09-01T16:08:54Z</time>
      </trkpt>
      <trkpt lat="47.46081" lon="-0.57793">
        <ele>12</ele>
        <time>2011-09-01T16:08:55Z</time>
      </trkpt>
      <trkpt lat="47.46078" lon="-0.57794">
        <ele>12</ele>
        <time>2011-09-01T16:08:56Z</time>
      </trkpt>
      <trkpt lat="47.46076" lon="-0.57795">
        <ele>12</ele>
        <time>2011-09-01T16:08:57Z</time>
      </trkpt>
      <trkpt lat="47.46073" lon="-0.57797">
        <ele>12</ele>
        <time>2011-09-01T16:08:58Z</time>
      </trkpt>
      <trkpt lat="47.4607" lon="-0.57798">
        <ele>12</ele>
        <time>2011-09-01T16:08:59Z</time>
      </trkpt>
      <trkpt lat="47.46067" lon="-0.578">
        <ele>12</ele>
        <time>2011-09-01T16:09:00Z</time>
      </trkpt>
      <trkpt lat="47.46065" lon="-0.57802">
        <ele>12</ele>
        <time>2011-09-01T16:09:01Z</time>
      </trkpt>
      <trkpt lat="47.46062" lon="-0.57803">
        <ele>12</ele>
        <time>2011-09-01T16:09:02Z</time>
      </trkpt>
      <trkpt lat="47.46059" lon="-0.57805">
        <ele>12</ele>
        <time>2011-09-01T16:09:03Z</time>
      </trkpt>
      <trkpt lat="47.46056" lon="-0.57806">
        <ele>12</ele>
        <time>2011-09-01T16:09:04Z</time>
      </trkpt>
      <trkpt lat="47.46053" lon="-0.57807">
        <ele>12</ele>
        <time>2011-09-01T16:09:05Z</time>
      </trkpt>
      <trkpt lat="47.4605" lon="-0.57809">
        <ele>12</ele>
        <time>2011-09-01T16:09:06Z</time>
      </trkpt>
      <trkpt lat="47.46048" lon="-0.5781">
        <ele>12</ele>
        <time>2011-09-01T16:09:07Z</time>
      </trkpt>
      <trkpt lat="47.46046" lon="-0.57812">
        <ele>12</ele>
        <time>2011-09-01T16:09:08Z</time>
      </trkpt>
      <trkpt lat="47.46043" lon="-0.57813">
        <ele>12</ele>
        <time>2011-09-01T16:09:09Z</time>
      </trkpt>
      <trkpt lat="47.46042" lon="-0.57814">
        <ele>12</ele>
        <time>2011-09-01T16:09:10Z</time>
      </trkpt>
      <trkpt lat="47.4604" lon="-0.57815">
        <ele>12</ele>
        <time>2011-09-01T16:09:11Z</time>
      </trkpt>
      <trkpt lat="47.46038" lon="-0.57817">
        <ele>12</ele>
        <time>2011-09-01T16:09:12Z</time>
      </trkpt>
      <trkpt lat="47.46035" lon="-0.57817">
        <ele>12</ele>
        <time>2011-09-01T16:09:13Z</time>
      </trkpt>
      <trkpt lat="47.46032" lon="-0.57819">
        <ele>12</ele>
        <time>2011-09-01T16:09:14Z</time>
      </trkpt>
      <trkpt lat="47.4603" lon="-0.5782">
        <ele>12</ele>
        <time>2011-09-01T16:09:15Z</time>
      </trkpt>
      <trkpt lat="47.46028" lon="-0.57822">
        <ele>12</ele>
        <time>2011-09-01T16:09:16Z</time>
      </trkpt>
      <trkpt lat="47.46026" lon="-0.57823">
        <ele>12</ele>
        <time>2011-09-01T16:09:17Z</time>
      </trkpt>
      <trkpt lat="47.46024" lon="-0.57824">
        <ele>12</ele>
        <time>2011-09-01T16:09:18Z</time>
      </trkpt>
      <trkpt lat="47.46021" lon="-0.57825">
        <ele>13</ele>
        <time>2011-09-01T16:09:19Z</time>
      </trkpt>
      <trkpt lat="47.46018" lon="-0.57827">
        <ele>13</ele>
        <time>2011-09-01T16:09:20Z</time>
      </trkpt>
      <trkpt lat="47.46016" lon="-0.57829">
        <ele>13</ele>
        <time>2011-09-01T16:09:21Z</time>
      </trkpt>
      <trkpt lat="47.46015" lon="-0.5783">
        <ele>14</ele>
        <time>2011-09-01T16:09:22Z</time>
      </trkpt>
      <trkpt lat="47.46012" lon="-0.57831">
        <ele>14</ele>
        <time>2011-09-01T16:09:23Z</time>
      </trkpt>
      <trkpt lat="47.46009" lon="-0.57833">
        <ele>14</ele>
        <time>2011-09-01T16:09:24Z</time>
      </trkpt>
      <trkpt lat="47.46006" lon="-0.57836">
        <ele>14</ele>
        <time>2011-09-01T16:09:25Z</time>
      </trkpt>
      <trkpt lat="47.46003" lon="-0.57839">
        <ele>14</ele>
        <time>2011-09-01T16:09:26Z</time>
      </trkpt>
      <trkpt lat="47.45999" lon="-0.57842">
        <ele>14</ele>
        <time>2011-09-01T16:09:27Z</time>
      </trkpt>
      <trkpt lat="47.45996" lon="-0.57845">
        <ele>14</ele>
        <time>2011-09-01T16:09:28Z</time>
      </trkpt>
      <trkpt lat="47.45992" lon="-0.57847">
        <ele>14</ele>
        <time>2011-09-01T16:09:29Z</time>
      </trkpt>
      <trkpt lat="47.45988" lon="-0.5785">
        <ele>14</ele>
        <time>2011-09-01T16:09:30Z</time>
      </trkpt>
      <trkpt lat="47.45985" lon="-0.57852">
        <ele>14</ele>
        <time>2011-09-01T16:09:31Z</time>
      </trkpt>
      <trkpt lat="47.45981" lon="-0.57854">
        <ele>14</ele>
        <time>2011-09-01T16:09:32Z</time>
      </trkpt>
      <trkpt lat="47.45977" lon="-0.57857">
        <ele>14</ele>
        <time>2011-09-01T16:09:33Z</time>
      </trkpt>
      <trkpt lat="47.45973" lon="-0.57859">
        <ele>14</ele>
        <time>2011-09-01T16:09:34Z</time>
      </trkpt>
      <trkpt lat="47.4597" lon="-0.5786">
        <ele>14</ele>
        <time>2011-09-01T16:09:35Z</time>
      </trkpt>
      <trkpt lat="47.45967" lon="-0.57862">
        <ele>14</ele>
        <time>2011-09-01T16:09:36Z</time>
      </trkpt>
      <trkpt lat="47.45964" lon="-0.57865">
        <ele>14</ele>
        <time>2011-09-01T16:09:37Z</time>
      </trkpt>
      <trkpt lat="47.45961" lon="-0.57867">
        <ele>14</ele>
        <time>2011-09-01T16:09:38Z</time>
      </trkpt>
      <trkpt lat="47.45958" lon="-0.57869">
        <ele>14</ele>
        <time>2011-09-01T16:09:39Z</time>
      </trkpt>
      <trkpt lat="47.45956" lon="-0.57871">
        <ele>14</ele>
        <time>2011-09-01T16:09:40Z</time>
      </trkpt>
      <trkpt lat="47.45954" lon="-0.57873">
        <ele>14</ele>
        <time>2011-09-01T16:09:41Z</time>
      </trkpt>
      <trkpt lat="47.45952" lon="-0.57875">
        <ele>14</ele>
        <time>2011-09-01T16:09:42Z</time>
      </trkpt>
      <trkpt lat="47.45949" lon="-0.57878">
        <ele>14</ele>
        <time>2011-09-01T16:09:43Z</time>
      </trkpt>
      <trkpt lat="47.45947" lon="-0.5788">
        <ele>14</ele>
        <time>2011-09-01T16:09:44Z</time>
      </trkpt>
      <trkpt lat="47.45945" lon="-0.57881">
        <ele>14</ele>
        <time>2011-09-01T16:09:45Z</time>
      </trkpt>
      <trkpt lat="47.45943" lon="-0.57883">
        <ele>14</ele>
        <time>2011-09-01T16:09:46Z</time>
      </trkpt>
      <trkpt lat="47.45941" lon="-0.57885">
        <ele>14</ele>
        <time>2011-09-01T16:09:47Z</time>
      </trkpt>
      <trkpt lat="47.45938" lon="-0.57886">
        <ele>14</ele>
        <time>2011-09-01T16:09:48Z</time>
      </trkpt>
      <trkpt lat="47.45935" lon="-0.57888">
        <ele>14</ele>
        <time>2011-09-01T16:09:49Z</time>
      </trkpt>
      <trkpt lat="47.45932" lon="-0.5789">
        <ele>14</ele>
        <time>2011-09-01T16:09:50Z</time>
      </trkpt>
      <trkpt lat="47.45929" lon="-0.57893">
        <ele>14</ele>
        <time>2011-09-01T16:09:51Z</time>
      </trkpt>
      <trkpt lat="47.45926" lon="-0.57895">
        <ele>14</ele>
        <time>2011-09-01T16:09:52Z</time>
      </trkpt>
      <trkpt lat="47.45922" lon="-0.57897">
        <ele>14</ele>
        <time>2011-09-01T16:09:53Z</time>
      </trkpt>
      <trkpt lat="47.45919" lon="-0.57899">
        <ele>14</ele>
        <time>2011-09-01T16:09:54Z</time>
      </trkpt>
      <trkpt lat="47.45917" lon="-0.579">
        <ele>13</ele>
        <time>2011-09-01T16:09:55Z</time>
      </trkpt>
      <trkpt lat="47.45914" lon="-0.57902">
        <ele>13</ele>
        <time>2011-09-01T16:09:56Z</time>
      </trkpt>
      <trkpt lat="47.45912" lon="-0.57904">
        <ele>13</ele>
        <time>2011-09-01T16:09:57Z</time>
      </trkpt>
      <trkpt lat="47.45908" lon="-0.57906">
        <ele>13</ele>
        <time>2011-09-01T16:09:58Z</time>
      </trkpt>
      <trkpt lat="47.45906" lon="-0.57908">
        <ele>13</ele>
        <time>2011-09-01T16:09:59Z</time>
      </trkpt>
      <trkpt lat="47.45903" lon="-0.5791">
        <ele>13</ele>
        <time>2011-09-01T16:10:00Z</time>
      </trkpt>
      <trkpt lat="47.45899" lon="-0.57912">
        <ele>13</ele>
        <time>2011-09-01T16:10:01Z</time>
      </trkpt>
      <trkpt lat="47.45895" lon="-0.57914">
        <ele>13</ele>
        <time>2011-09-01T16:10:02Z</time>
      </trkpt>
      <trkpt lat="47.45892" lon="-0.57916">
        <ele>13</ele>
        <time>2011-09-01T16:10:03Z</time>
      </trkpt>
      <trkpt lat="47.45889" lon="-0.57919">
        <ele>13</ele>
        <time>2011-09-01T16:10:04Z</time>
      </trkpt>
      <trkpt lat="47.45887" lon="-0.57921">
        <ele>13</ele>
        <time>2011-09-01T16:10:05Z</time>
      </trkpt>
      <trkpt lat="47.45884" lon="-0.57923">
        <ele>13</ele>
        <time>2011-09-01T16:10:06Z</time>
      </trkpt>
      <trkpt lat="47.45881" lon="-0.57926">
        <ele>13</ele>
        <time>2011-09-01T16:10:07Z</time>
      </trkpt>
      <trkpt lat="47.45878" lon="-0.57928">
        <ele>13</ele>
        <time>2011-09-01T16:10:08Z</time>
      </trkpt>
      <trkpt lat="47.45875" lon="-0.57929">
        <ele>13</ele>
        <time>2011-09-01T16:10:09Z</time>
      </trkpt>
      <trkpt lat="47.45872" lon="-0.57932">
        <ele>13</ele>
        <time>2011-09-01T16:10:10Z</time>
      </trkpt>
      <trkpt lat="47.45868" lon="-0.57934">
        <ele>13</ele>
        <time>2011-09-01T16:10:11Z</time>
      </trkpt>
      <trkpt lat="47.45865" lon="-0.57937">
        <ele>13</ele>
        <time>2011-09-01T16:10:12Z</time>
      </trkpt>
      <trkpt lat="47.45862" lon="-0.57939">
        <ele>13</ele>
        <time>2011-09-01T16:10:13Z</time>
      </trkpt>
      <trkpt lat="47.4586" lon="-0.5794">
        <ele>13</ele>
        <time>2011-09-01T16:10:14Z</time>
      </trkpt>
      <trkpt lat="47.45858" lon="-0.57942">
        <ele>13</ele>
        <time>2011-09-01T16:10:15Z</time>
      </trkpt>
      <trkpt lat="47.45855" lon="-0.57944">
        <ele>13</ele>
        <time>2011-09-01T16:10:16Z</time>
      </trkpt>
      <trkpt lat="47.45851" lon="-0.57946">
        <ele>13</ele>
        <time>2011-09-01T16:10:17Z</time>
      </trkpt>
      <trkpt lat="47.45848" lon="-0.57949">
        <ele>13</ele>
        <time>2011-09-01T16:10:18Z</time>
      </trkpt>
      <trkpt lat="47.45845" lon="-0.57951">
        <ele>13</ele>
        <time>2011-09-01T16:10:19Z</time>
      </trkpt>
      <trkpt lat="47.45841" lon="-0.57954">
        <ele>14</ele>
        <time>2011-09-01T16:10:20Z</time>
      </trkpt>
      <trkpt lat="47.45838" lon="-0.57956">
        <ele>14</ele>
        <time>2011-09-01T16:10:21Z</time>
      </trkpt>
      <trkpt lat="47.45835" lon="-0.57958">
        <ele>14</ele>
        <time>2011-09-01T16:10:22Z</time>
      </trkpt>
      <trkpt lat="47.45832" lon="-0.5796">
        <ele>14</ele>
        <time>2011-09-01T16:10:23Z</time>
      </trkpt>
      <trkpt lat="47.45829" lon="-0.57962">
        <ele>14</ele>
        <time>2011-09-01T16:10:24Z</time>
      </trkpt>
      <trkpt lat="47.45826" lon="-0.57964">
        <ele>14</ele>
        <time>2011-09-01T16:10:25Z</time>
      </trkpt>
      <trkpt lat="47.45823" lon="-0.57965">
        <ele>14</ele>
        <time>2011-09-01T16:10:26Z</time>
      </trkpt>
      <trkpt lat="47.4582" lon="-0.57967">
        <ele>14</ele>
        <time>2011-09-01T16:10:27Z</time>
      </trkpt>
      <trkpt lat="47.45816" lon="-0.5797">
        <ele>14</ele>
        <time>2011-09-01T16:10:28Z</time>
      </trkpt>
      <trkpt lat="47.45813" lon="-0.57971">
        <ele>14</ele>
        <time>2011-09-01T16:10:29Z</time>
      </trkpt>
      <trkpt lat="47.4581" lon="-0.57973">
        <ele>14</ele>
        <time>2011-09-01T16:10:30Z</time>
      </trkpt>
      <trkpt lat="47.45807" lon="-0.57976">
        <ele>14</ele>
        <time>2011-09-01T16:10:31Z</time>
      </trkpt>
      <trkpt lat="47.45804" lon="-0.57979">
        <ele>14</ele>
        <time>2011-09-01T16:10:32Z</time>
      </trkpt>
      <trkpt lat="47.45801" lon="-0.57981">
        <ele>14</ele>
        <time>2011-09-01T16:10:33Z</time>
      </trkpt>
      <trkpt lat="47.45798" lon="-0.57982">
        <ele>14</ele>
        <time>2011-09-01T16:10:34Z</time>
      </trkpt>
      <trkpt lat="47.45795" lon="-0.57985">
        <ele>14</ele>
        <time>2011-09-01T16:10:35Z</time>
      </trkpt>
      <trkpt lat="47.45792" lon="-0.57986">
        <ele>14</ele>
        <time>2011-09-01T16:10:36Z</time>
      </trkpt>
      <trkpt lat="47.45789" lon="-0.57989">
        <ele>14</ele>
        <time>2011-09-01T16:10:37Z</time>
      </trkpt>
      <trkpt lat="47.45785" lon="-0.57992">
        <ele>14</ele>
        <time>2011-09-01T16:10:38Z</time>
      </trkpt>
      <trkpt lat="47.45782" lon="-0.57995">
        <ele>14</ele>
        <time>2011-09-01T16:10:39Z</time>
      </trkpt>
      <trkpt lat="47.45779" lon="-0.57998">
        <ele>14</ele>
        <time>2011-09-01T16:10:40Z</time>
      </trkpt>
      <trkpt lat="47.45775" lon="-0.58001">
        <ele>14</ele>
        <time>2011-09-01T16:10:41Z</time>
      </trkpt>
      <trkpt lat="47.45772" lon="-0.58003">
        <ele>14</ele>
        <time>2011-09-01T16:10:42Z</time>
      </trkpt>
      <trkpt lat="47.45769" lon="-0.58005">
        <ele>14</ele>
        <time>2011-09-01T16:10:43Z</time>
      </trkpt>
      <trkpt lat="47.45766" lon="-0.58007">
        <ele>14</ele>
        <time>2011-09-01T16:10:44Z</time>
      </trkpt>
      <trkpt lat="47.45764" lon="-0.58008">
        <ele>14</ele>
        <time>2011-09-01T16:10:45Z</time>
      </trkpt>
      <trkpt lat="47.45761" lon="-0.58009">
        <ele>14</ele>
        <time>2011-09-01T16:10:46Z</time>
      </trkpt>
      <trkpt lat="47.45759" lon="-0.58012">
        <ele>13</ele>
        <time>2011-09-01T16:10:47Z</time>
      </trkpt>
      <trkpt lat="47.45756" lon="-0.58014">
        <ele>13</ele>
        <time>2011-09-01T16:10:48Z</time>
      </trkpt>
      <trkpt lat="47.45752" lon="-0.58016">
        <ele>13</ele>
        <time>2011-09-01T16:10:49Z</time>
      </trkpt>
      <trkpt lat="47.45749" lon="-0.58018">
        <ele>13</ele>
        <time>2011-09-01T16:10:50Z</time>
      </trkpt>
      <trkpt lat="47.45746" lon="-0.58021">
        <ele>13</ele>
        <time>2011-09-01T16:10:51Z</time>
      </trkpt>
      <trkpt lat="47.45743" lon="-0.58023">
        <ele>13</ele>
        <time>2011-09-01T16:10:52Z</time>
      </trkpt>
      <trkpt lat="47.45741" lon="-0.58025">
        <ele>13</ele>
        <time>2011-09-01T16:10:53Z</time>
      </trkpt>
      <trkpt lat="47.45738" lon="-0.58027">
        <ele>13</ele>
        <time>2011-09-01T16:10:54Z</time>
      </trkpt>
      <trkpt lat="47.45736" lon="-0.58028">
        <ele>13</ele>
        <time>2011-09-01T16:10:55Z</time>
      </trkpt>
      <trkpt lat="47.45733" lon="-0.5803">
        <ele>13</ele>
        <time>2011-09-01T16:10:56Z</time>
      </trkpt>
      <trkpt lat="47.4573" lon="-0.58031">
        <ele>13</ele>
        <time>2011-09-01T16:10:57Z</time>
      </trkpt>
      <trkpt lat="47.45727" lon="-0.58033">
        <ele>13</ele>
        <time>2011-09-01T16:10:58Z</time>
      </trkpt>
      <trkpt lat="47.45724" lon="-0.58034">
        <ele>13</ele>
        <time>2011-09-01T16:10:59Z</time>
      </trkpt>
      <trkpt lat="47.45721" lon="-0.58037">
        <ele>13</ele>
        <time>2011-09-01T16:11:00Z</time>
      </trkpt>
      <trkpt lat="47.45717" lon="-0.58039">
        <ele>13</ele>
        <time>2011-09-01T16:11:01Z</time>
      </trkpt>
      <trkpt lat="47.45714" lon="-0.58041">
        <ele>13</ele>
        <time>2011-09-01T16:11:02Z</time>
      </trkpt>
      <trkpt lat="47.45711" lon="-0.58044">
        <ele>13</ele>
        <time>2011-09-01T16:11:03Z</time>
      </trkpt>
      <trkpt lat="47.45707" lon="-0.58046">
        <ele>13</ele>
        <time>2011-09-01T16:11:04Z</time>
      </trkpt>
      <trkpt lat="47.45704" lon="-0.58049">
        <ele>13</ele>
        <time>2011-09-01T16:11:05Z</time>
      </trkpt>
      <trkpt lat="47.457" lon="-0.58051">
        <ele>13</ele>
        <time>2011-09-01T16:11:06Z</time>
      </trkpt>
      <trkpt lat="47.45697" lon="-0.58052">
        <ele>13</ele>
        <time>2011-09-01T16:11:07Z</time>
      </trkpt>
      <trkpt lat="47.45693" lon="-0.58054">
        <ele>13</ele>
        <time>2011-09-01T16:11:08Z</time>
      </trkpt>
      <trkpt lat="47.4569" lon="-0.58056">
        <ele>13</ele>
        <time>2011-09-01T16:11:09Z</time>
      </trkpt>
      <trkpt lat="47.45687" lon="-0.58059">
        <ele>13</ele>
        <time>2011-09-01T16:11:10Z</time>
      </trkpt>
      <trkpt lat="47.45684" lon="-0.58061">
        <ele>13</ele>
        <time>2011-09-01T16:11:11Z</time>
      </trkpt>
      <trkpt lat="47.45682" lon="-0.58063">
        <ele>13</ele>
        <time>2011-09-01T16:11:12Z</time>
      </trkpt>
      <trkpt lat="47.45679" lon="-0.58065">
        <ele>13</ele>
        <time>2011-09-01T16:11:13Z</time>
      </trkpt>
      <trkpt lat="47.45677" lon="-0.58066">
        <ele>13</ele>
        <time>2011-09-01T16:11:14Z</time>
      </trkpt>
      <trkpt lat="47.45674" lon="-0.58068">
        <ele>13</ele>
        <time>2011-09-01T16:11:15Z</time>
      </trkpt>
      <trkpt lat="47.45671" lon="-0.5807">
        <ele>13</ele>
        <time>2011-09-01T16:11:16Z</time>
      </trkpt>
      <trkpt lat="47.45668" lon="-0.58073">
        <ele>13</ele>
        <time>2011-09-01T16:11:17Z</time>
      </trkpt>
      <trkpt lat="47.45666" lon="-0.58074">
        <ele>12</ele>
        <time>2011-09-01T16:11:18Z</time>
      </trkpt>
      <trkpt lat="47.45664" lon="-0.58076">
        <ele>12</ele>
        <time>2011-09-01T16:11:19Z</time>
      </trkpt>
      <trkpt lat="47.4566" lon="-0.58078">
        <ele>12</ele>
        <time>2011-09-01T16:11:20Z</time>
      </trkpt>
      <trkpt lat="47.45658" lon="-0.58081">
        <ele>12</ele>
        <time>2011-09-01T16:11:21Z</time>
      </trkpt>
      <trkpt lat="47.45655" lon="-0.58083">
        <ele>12</ele>
        <time>2011-09-01T16:11:22Z</time>
      </trkpt>
      <trkpt lat="47.45651" lon="-0.58086">
        <ele>12</ele>
        <time>2011-09-01T16:11:23Z</time>
      </trkpt>
      <trkpt lat="47.45648" lon="-0.58088">
        <ele>12</ele>
        <time>2011-09-01T16:11:24Z</time>
      </trkpt>
      <trkpt lat="47.45645" lon="-0.5809">
        <ele>12</ele>
        <time>2011-09-01T16:11:25Z</time>
      </trkpt>
      <trkpt lat="47.45642" lon="-0.58091">
        <ele>12</ele>
        <time>2011-09-01T16:11:26Z</time>
      </trkpt>
      <trkpt lat="47.45639" lon="-0.58094">
        <ele>12</ele>
        <time>2011-09-01T16:11:27Z</time>
      </trkpt>
      <trkpt lat="47.45636" lon="-0.58096">
        <ele>12</ele>
        <time>2011-09-01T16:11:28Z</time>
      </trkpt>
      <trkpt lat="47.45634" lon="-0.58099">
        <ele>12</ele>
        <time>2011-09-01T16:11:29Z</time>
      </trkpt>
      <trkpt lat="47.45631" lon="-0.58101">
        <ele>12</ele>
        <time>2011-09-01T16:11:30Z</time>
      </trkpt>
      <trkpt lat="47.45628" lon="-0.58104">
        <ele>12</ele>
        <time>2011-09-01T16:11:31Z</time>
      </trkpt>
      <trkpt lat="47.45625" lon="-0.58106">
        <ele>12</ele>
        <time>2011-09-01T16:11:32Z</time>
      </trkpt>
      <trkpt lat="47.45623" lon="-0.58108">
        <ele>12</ele>
        <time>2011-09-01T16:11:33Z</time>
      </trkpt>
      <trkpt lat="47.4562" lon="-0.5811">
        <ele>11</ele>
        <time>2011-09-01T16:11:34Z</time>
      </trkpt>
      <trkpt lat="47.45618" lon="-0.58112">
        <ele>11</ele>
        <time>2011-09-01T16:11:35Z</time>
      </trkpt>
      <trkpt lat="47.45615" lon="-0.58115">
        <ele>11</ele>
        <time>2011-09-01T16:11:36Z</time>
      </trkpt>
      <trkpt lat="47.45612" lon="-0.58118">
        <ele>11</ele>
        <time>2011-09-01T16:11:37Z</time>
      </trkpt>
      <trkpt lat="47.45608" lon="-0.58121">
        <ele>11</ele>
        <time>2011-09-01T16:11:38Z</time>
      </trkpt>
      <trkpt lat="47.45604" lon="-0.58124">
        <ele>11</ele>
        <time>2011-09-01T16:11:39Z</time>
      </trkpt>
      <trkpt lat="47.45601" lon="-0.58127">
        <ele>11</ele>
        <time>2011-09-01T16:11:40Z</time>
      </trkpt>
      <trkpt lat="47.45598" lon="-0.58131">
        <ele>11</ele>
        <time>2011-09-01T16:11:41Z</time>
      </trkpt>
      <trkpt lat="47.45595" lon="-0.58134">
        <ele>11</ele>
        <time>2011-09-01T16:11:42Z</time>
      </trkpt>
      <trkpt lat="47.45592" lon="-0.58136">
        <ele>11</ele>
        <time>2011-09-01T16:11:43Z</time>
      </trkpt>
      <trkpt lat="47.45589" lon="-0.58139">
        <ele>11</ele>
        <time>2011-09-01T16:11:44Z</time>
      </trkpt>
      <trkpt lat="47.45587" lon="-0.58142">
        <ele>11</ele>
        <time>2011-09-01T16:11:45Z</time>
      </trkpt>
      <trkpt lat="47.45583" lon="-0.58145">
        <ele>11</ele>
        <time>2011-09-01T16:11:46Z</time>
      </trkpt>
      <trkpt lat="47.4558" lon="-0.58148">
        <ele>11</ele>
        <time>2011-09-01T16:11:47Z</time>
      </trkpt>
      <trkpt lat="47.45577" lon="-0.58152">
        <ele>11</ele>
        <time>2011-09-01T16:11:48Z</time>
      </trkpt>
      <trkpt lat="47.45574" lon="-0.58155">
        <ele>11</ele>
        <time>2011-09-01T16:11:49Z</time>
      </trkpt>
      <trkpt lat="47.45572" lon="-0.58157">
        <ele>11</ele>
        <time>2011-09-01T16:11:50Z</time>
      </trkpt>
      <trkpt lat="47.45569" lon="-0.5816">
        <ele>11</ele>
        <time>2011-09-01T16:11:51Z</time>
      </trkpt>
      <trkpt lat="47.45567" lon="-0.58162">
        <ele>11</ele>
        <time>2011-09-01T16:11:52Z</time>
      </trkpt>
      <trkpt lat="47.45565" lon="-0.58165">
        <ele>11</ele>
        <time>2011-09-01T16:11:53Z</time>
      </trkpt>
      <trkpt lat="47.45562" lon="-0.58168">
        <ele>11</ele>
        <time>2011-09-01T16:11:54Z</time>
      </trkpt>
      <trkpt lat="47.45558" lon="-0.58172">
        <ele>11</ele>
        <time>2011-09-01T16:11:55Z</time>
      </trkpt>
      <trkpt lat="47.45555" lon="-0.58175">
        <ele>11</ele>
        <time>2011-09-01T16:11:56Z</time>
      </trkpt>
      <trkpt lat="47.45552" lon="-0.58179">
        <ele>11</ele>
        <time>2011-09-01T16:11:57Z</time>
      </trkpt>
      <trkpt lat="47.45549" lon="-0.58182">
        <ele>11</ele>
        <time>2011-09-01T16:11:58Z</time>
      </trkpt>
      <trkpt lat="47.45546" lon="-0.58184">
        <ele>11</ele>
        <time>2011-09-01T16:11:59Z</time>
      </trkpt>
      <trkpt lat="47.45544" lon="-0.58188">
        <ele>11</ele>
        <time>2011-09-01T16:12:00Z</time>
      </trkpt>
      <trkpt lat="47.45541" lon="-0.58191">
        <ele>11</ele>
        <time>2011-09-01T16:12:01Z</time>
      </trkpt>
      <trkpt lat="47.45538" lon="-0.58195">
        <ele>11</ele>
        <time>2011-09-01T16:12:02Z</time>
      </trkpt>
      <trkpt lat="47.45535" lon="-0.58198">
        <ele>11</ele>
        <time>2011-09-01T16:12:03Z</time>
      </trkpt>
      <trkpt lat="47.45533" lon="-0.58202">
        <ele>11</ele>
        <time>2011-09-01T16:12:04Z</time>
      </trkpt>
      <trkpt lat="47.45531" lon="-0.58205">
        <ele>11</ele>
        <time>2011-09-01T16:12:05Z</time>
      </trkpt>
      <trkpt lat="47.45528" lon="-0.58208">
        <ele>11</ele>
        <time>2011-09-01T16:12:06Z</time>
      </trkpt>
      <trkpt lat="47.45525" lon="-0.58211">
        <ele>11</ele>
        <time>2011-09-01T16:12:07Z</time>
      </trkpt>
      <trkpt lat="47.45522" lon="-0.58214">
        <ele>11</ele>
        <time>2011-09-01T16:12:08Z</time>
      </trkpt>
      <trkpt lat="47.4552" lon="-0.58217">
        <ele>11</ele>
        <time>2011-09-01T16:12:09Z</time>
      </trkpt>
      <trkpt lat="47.45517" lon="-0.5822">
        <ele>11</ele>
        <time>2011-09-01T16:12:10Z</time>
      </trkpt>
      <trkpt lat="47.45515" lon="-0.58223">
        <ele>11</ele>
        <time>2011-09-01T16:12:11Z</time>
      </trkpt>
      <trkpt lat="47.45513" lon="-0.58226">
        <ele>11</ele>
        <time>2011-09-01T16:12:12Z</time>
      </trkpt>
      <trkpt lat="47.4551" lon="-0.58228">
        <ele>11</ele>
        <time>2011-09-01T16:12:13Z</time>
      </trkpt>
      <trkpt lat="47.45507" lon="-0.58232">
        <ele>11</ele>
        <time>2011-09-01T16:12:14Z</time>
      </trkpt>
      <trkpt lat="47.45505" lon="-0.58235">
        <ele>11</ele>
        <time>2011-09-01T16:12:15Z</time>
      </trkpt>
      <trkpt lat="47.45502" lon="-0.58239">
        <ele>11</ele>
        <time>2011-09-01T16:12:16Z</time>
      </trkpt>
      <trkpt lat="47.45499" lon="-0.58244">
        <ele>11</ele>
        <time>2011-09-01T16:12:17Z</time>
      </trkpt>
      <trkpt lat="47.45496" lon="-0.58248">
        <ele>11</ele>
        <time>2011-09-01T16:12:18Z</time>
      </trkpt>
      <trkpt lat="47.45494" lon="-0.58251">
        <ele>11</ele>
        <time>2011-09-01T16:12:19Z</time>
      </trkpt>
      <trkpt lat="47.45491" lon="-0.58254">
        <ele>11</ele>
        <time>2011-09-01T16:12:20Z</time>
      </trkpt>
      <trkpt lat="47.45488" lon="-0.58258">
        <ele>11</ele>
        <time>2011-09-01T16:12:21Z</time>
      </trkpt>
      <trkpt lat="47.45485" lon="-0.58262">
        <ele>11</ele>
        <time>2011-09-01T16:12:22Z</time>
      </trkpt>
      <trkpt lat="47.45483" lon="-0.58266">
        <ele>11</ele>
        <time>2011-09-01T16:12:23Z</time>
      </trkpt>
      <trkpt lat="47.4548" lon="-0.58269">
        <ele>11</ele>
        <time>2011-09-01T16:12:24Z</time>
      </trkpt>
      <trkpt lat="47.45477" lon="-0.58273">
        <ele>11</ele>
        <time>2011-09-01T16:12:25Z</time>
      </trkpt>
      <trkpt lat="47.45475" lon="-0.58278">
        <ele>11</ele>
        <time>2011-09-01T16:12:26Z</time>
      </trkpt>
      <trkpt lat="47.45472" lon="-0.58283">
        <ele>11</ele>
        <time>2011-09-01T16:12:27Z</time>
      </trkpt>
      <trkpt lat="47.4547" lon="-0.58287">
        <ele>11</ele>
        <time>2011-09-01T16:12:28Z</time>
      </trkpt>
      <trkpt lat="47.45468" lon="-0.58292">
        <ele>11</ele>
        <time>2011-09-01T16:12:29Z</time>
      </trkpt>
      <trkpt lat="47.45467" lon="-0.58296">
        <ele>11</ele>
        <time>2011-09-01T16:12:30Z</time>
      </trkpt>
      <trkpt lat="47.45464" lon="-0.58301">
        <ele>11</ele>
        <time>2011-09-01T16:12:31Z</time>
      </trkpt>
      <trkpt lat="47.45462" lon="-0.58306">
        <ele>11</ele>
        <time>2011-09-01T16:12:32Z</time>
      </trkpt>
      <trkpt lat="47.45459" lon="-0.5831">
        <ele>11</ele>
        <time>2011-09-01T16:12:33Z</time>
      </trkpt>
      <trkpt lat="47.45455" lon="-0.58314">
        <ele>11</ele>
        <time>2011-09-01T16:12:34Z</time>
      </trkpt>
      <trkpt lat="47.45451" lon="-0.58318">
        <ele>11</ele>
        <time>2011-09-01T16:12:35Z</time>
      </trkpt>
      <trkpt lat="47.45448" lon="-0.5832">
        <ele>11</ele>
        <time>2011-09-01T16:12:36Z</time>
      </trkpt>
      <trkpt lat="47.45446" lon="-0.58322">
        <ele>11</ele>
        <time>2011-09-01T16:12:37Z</time>
      </trkpt>
      <trkpt lat="47.45444" lon="-0.58324">
        <ele>11</ele>
        <time>2011-09-01T16:12:38Z</time>
      </trkpt>
      <trkpt lat="47.45442" lon="-0.58325">
        <ele>11</ele>
        <time>2011-09-01T16:12:39Z</time>
      </trkpt>
      <trkpt lat="47.45441" lon="-0.58327">
        <ele>11</ele>
        <time>2011-09-01T16:12:40Z</time>
      </trkpt>
      <trkpt lat="47.4544" lon="-0.5833">
        <ele>11</ele>
        <time>2011-09-01T16:12:41Z</time>
      </trkpt>
      <trkpt lat="47.45438" lon="-0.58332">
        <ele>11</ele>
        <time>2011-09-01T16:12:42Z</time>
      </trkpt>
      <trkpt lat="47.45436" lon="-0.58335">
        <ele>11</ele>
        <time>2011-09-01T16:12:43Z</time>
      </trkpt>
      <trkpt lat="47.45435" lon="-0.58337">
        <ele>11</ele>
        <time>2011-09-01T16:12:44Z</time>
      </trkpt>
      <trkpt lat="47.45434" lon="-0.5834">
        <ele>11</ele>
        <time>2011-09-01T16:12:45Z</time>
      </trkpt>
      <trkpt lat="47.45432" lon="-0.58342">
        <ele>11</ele>
        <time>2011-09-01T16:12:46Z</time>
      </trkpt>
      <trkpt lat="47.45432" lon="-0.58345">
        <ele>11</ele>
        <time>2011-09-01T16:12:48Z</time>
      </trkpt>
      <trkpt lat="47.4543" lon="-0.58347">
        <ele>11</ele>
        <time>2011-09-01T16:12:49Z</time>
      </trkpt>
      <trkpt lat="47.45428" lon="-0.5835">
        <ele>12</ele>
        <time>2011-09-01T16:12:50Z</time>
      </trkpt>
      <trkpt lat="47.45426" lon="-0.58355">
        <ele>12</ele>
        <time>2011-09-01T16:12:51Z</time>
      </trkpt>
      <trkpt lat="47.45424" lon="-0.58361">
        <ele>13</ele>
        <time>2011-09-01T16:12:52Z</time>
      </trkpt>
      <trkpt lat="47.45422" lon="-0.58365">
        <ele>13</ele>
        <time>2011-09-01T16:12:53Z</time>
      </trkpt>
      <trkpt lat="47.4542" lon="-0.5837">
        <ele>13</ele>
        <time>2011-09-01T16:12:54Z</time>
      </trkpt>
      <trkpt lat="47.45417" lon="-0.58375">
        <ele>13</ele>
        <time>2011-09-01T16:12:55Z</time>
      </trkpt>
      <trkpt lat="47.45414" lon="-0.5838">
        <ele>13</ele>
        <time>2011-09-01T16:12:56Z</time>
      </trkpt>
      <trkpt lat="47.45412" lon="-0.58385">
        <ele>13</ele>
        <time>2011-09-01T16:12:57Z</time>
      </trkpt>
      <trkpt lat="47.45409" lon="-0.58389">
        <ele>13</ele>
        <time>2011-09-01T16:12:58Z</time>
      </trkpt>
      <trkpt lat="47.45408" lon="-0.58393">
        <ele>13</ele>
        <time>2011-09-01T16:12:59Z</time>
      </trkpt>
      <trkpt lat="47.45406" lon="-0.58397">
        <ele>13</ele>
        <time>2011-09-01T16:13:00Z</time>
      </trkpt>
      <trkpt lat="47.45403" lon="-0.58401">
        <ele>13</ele>
        <time>2011-09-01T16:13:01Z</time>
      </trkpt>
      <trkpt lat="47.45401" lon="-0.58405">
        <ele>13</ele>
        <time>2011-09-01T16:13:02Z</time>
      </trkpt>
      <trkpt lat="47.45399" lon="-0.58408">
        <ele>13</ele>
        <time>2011-09-01T16:13:03Z</time>
      </trkpt>
      <trkpt lat="47.45397" lon="-0.58412">
        <ele>13</ele>
        <time>2011-09-01T16:13:04Z</time>
      </trkpt>
      <trkpt lat="47.45395" lon="-0.58416">
        <ele>13</ele>
        <time>2011-09-01T16:13:05Z</time>
      </trkpt>
      <trkpt lat="47.45393" lon="-0.5842">
        <ele>13</ele>
        <time>2011-09-01T16:13:06Z</time>
      </trkpt>
      <trkpt lat="47.4539" lon="-0.58425">
        <ele>13</ele>
        <time>2011-09-01T16:13:07Z</time>
      </trkpt>
      <trkpt lat="47.45388" lon="-0.5843">
        <ele>13</ele>
        <time>2011-09-01T16:13:08Z</time>
      </trkpt>
      <trkpt lat="47.45385" lon="-0.58434">
        <ele>13</ele>
        <time>2011-09-01T16:13:09Z</time>
      </trkpt>
      <trkpt lat="47.45382" lon="-0.5844">
        <ele>13</ele>
        <time>2011-09-01T16:13:10Z</time>
      </trkpt>
      <trkpt lat="47.4538" lon="-0.58443">
        <ele>13</ele>
        <time>2011-09-01T16:13:11Z</time>
      </trkpt>
      <trkpt lat="47.45378" lon="-0.58447">
        <ele>13</ele>
        <time>2011-09-01T16:13:12Z</time>
      </trkpt>
      <trkpt lat="47.45376" lon="-0.58451">
        <ele>13</ele>
        <time>2011-09-01T16:13:13Z</time>
      </trkpt>
      <trkpt lat="47.45374" lon="-0.58456">
        <ele>13</ele>
        <time>2011-09-01T16:13:14Z</time>
      </trkpt>
      <trkpt lat="47.45372" lon="-0.58461">
        <ele>13</ele>
        <time>2011-09-01T16:13:15Z</time>
      </trkpt>
      <trkpt lat="47.4537" lon="-0.58466">
        <ele>13</ele>
        <time>2011-09-01T16:13:16Z</time>
      </trkpt>
      <trkpt lat="47.45367" lon="-0.58471">
        <ele>13</ele>
        <time>2011-09-01T16:13:17Z</time>
      </trkpt>
      <trkpt lat="47.45365" lon="-0.58476">
        <ele>13</ele>
        <time>2011-09-01T16:13:18Z</time>
      </trkpt>
      <trkpt lat="47.45363" lon="-0.5848">
        <ele>13</ele>
        <time>2011-09-01T16:13:19Z</time>
      </trkpt>
      <trkpt lat="47.45361" lon="-0.58484">
        <ele>14</ele>
        <time>2011-09-01T16:13:20Z</time>
      </trkpt>
      <trkpt lat="47.45358" lon="-0.58489">
        <ele>14</ele>
        <time>2011-09-01T16:13:21Z</time>
      </trkpt>
      <trkpt lat="47.45356" lon="-0.58494">
        <ele>14</ele>
        <time>2011-09-01T16:13:22Z</time>
      </trkpt>
      <trkpt lat="47.45353" lon="-0.585">
        <ele>14</ele>
        <time>2011-09-01T16:13:23Z</time>
      </trkpt>
      <trkpt lat="47.45351" lon="-0.58505">
        <ele>14</ele>
        <time>2011-09-01T16:13:24Z</time>
      </trkpt>
      <trkpt lat="47.45349" lon="-0.58509">
        <ele>14</ele>
        <time>2011-09-01T16:13:25Z</time>
      </trkpt>
      <trkpt lat="47.45346" lon="-0.58513">
        <ele>14</ele>
        <time>2011-09-01T16:13:26Z</time>
      </trkpt>
      <trkpt lat="47.45345" lon="-0.58517">
        <ele>14</ele>
        <time>2011-09-01T16:13:27Z</time>
      </trkpt>
      <trkpt lat="47.45342" lon="-0.58522">
        <ele>14</ele>
        <time>2011-09-01T16:13:28Z</time>
      </trkpt>
      <trkpt lat="47.4534" lon="-0.58527">
        <ele>14</ele>
        <time>2011-09-01T16:13:29Z</time>
      </trkpt>
      <trkpt lat="47.45337" lon="-0.58532">
        <ele>14</ele>
        <time>2011-09-01T16:13:30Z</time>
      </trkpt>
      <trkpt lat="47.45335" lon="-0.58538">
        <ele>14</ele>
        <time>2011-09-01T16:13:31Z</time>
      </trkpt>
      <trkpt lat="47.45332" lon="-0.58543">
        <ele>14</ele>
        <time>2011-09-01T16:13:32Z</time>
      </trkpt>
      <trkpt lat="47.4533" lon="-0.58547">
        <ele>14</ele>
        <time>2011-09-01T16:13:33Z</time>
      </trkpt>
      <trkpt lat="47.45327" lon="-0.58552">
        <ele>14</ele>
        <time>2011-09-01T16:13:34Z</time>
      </trkpt>
      <trkpt lat="47.45325" lon="-0.58556">
        <ele>14</ele>
        <time>2011-09-01T16:13:35Z</time>
      </trkpt>
      <trkpt lat="47.45323" lon="-0.58561">
        <ele>14</ele>
        <time>2011-09-01T16:13:36Z</time>
      </trkpt>
      <trkpt lat="47.4532" lon="-0.58564">
        <ele>14</ele>
        <time>2011-09-01T16:13:37Z</time>
      </trkpt>
      <trkpt lat="47.45318" lon="-0.58569">
        <ele>14</ele>
        <time>2011-09-01T16:13:38Z</time>
      </trkpt>
      <trkpt lat="47.45315" lon="-0.58573">
        <ele>14</ele>
        <time>2011-09-01T16:13:39Z</time>
      </trkpt>
      <trkpt lat="47.45313" lon="-0.58578">
        <ele>14</ele>
        <time>2011-09-01T16:13:40Z</time>
      </trkpt>
      <trkpt lat="47.45312" lon="-0.58582">
        <ele>14</ele>
        <time>2011-09-01T16:13:41Z</time>
      </trkpt>
      <trkpt lat="47.4531" lon="-0.58586">
        <ele>14</ele>
        <time>2011-09-01T16:13:42Z</time>
      </trkpt>
      <trkpt lat="47.45309" lon="-0.58591">
        <ele>14</ele>
        <time>2011-09-01T16:13:43Z</time>
      </trkpt>
      <trkpt lat="47.45307" lon="-0.58595">
        <ele>14</ele>
        <time>2011-09-01T16:13:44Z</time>
      </trkpt>
      <trkpt lat="47.45306" lon="-0.58599">
        <ele>14</ele>
        <time>2011-09-01T16:13:45Z</time>
      </trkpt>
      <trkpt lat="47.45304" lon="-0.58603">
        <ele>14</ele>
        <time>2011-09-01T16:13:46Z</time>
      </trkpt>
      <trkpt lat="47.45303" lon="-0.58605">
        <ele>14</ele>
        <time>2011-09-01T16:13:47Z</time>
      </trkpt>
      <trkpt lat="47.45301" lon="-0.58609">
        <ele>14</ele>
        <time>2011-09-01T16:13:48Z</time>
      </trkpt>
      <trkpt lat="47.453" lon="-0.58612">
        <ele>14</ele>
        <time>2011-09-01T16:13:49Z</time>
      </trkpt>
      <trkpt lat="47.45299" lon="-0.58615">
        <ele>14</ele>
        <time>2011-09-01T16:13:50Z</time>
      </trkpt>
      <trkpt lat="47.45297" lon="-0.5862">
        <ele>14</ele>
        <time>2011-09-01T16:13:51Z</time>
      </trkpt>
      <trkpt lat="47.45296" lon="-0.58624">
        <ele>14</ele>
        <time>2011-09-01T16:13:52Z</time>
      </trkpt>
      <trkpt lat="47.45294" lon="-0.58628">
        <ele>14</ele>
        <time>2011-09-01T16:13:53Z</time>
      </trkpt>
      <trkpt lat="47.45293" lon="-0.58631">
        <ele>14</ele>
        <time>2011-09-01T16:13:54Z</time>
      </trkpt>
      <trkpt lat="47.45292" lon="-0.58635">
        <ele>14</ele>
        <time>2011-09-01T16:13:55Z</time>
      </trkpt>
      <trkpt lat="47.4529" lon="-0.5864">
        <ele>14</ele>
        <time>2011-09-01T16:13:56Z</time>
      </trkpt>
      <trkpt lat="47.45288" lon="-0.58644">
        <ele>14</ele>
        <time>2011-09-01T16:13:57Z</time>
      </trkpt>
      <trkpt lat="47.45287" lon="-0.58648">
        <ele>14</ele>
        <time>2011-09-01T16:13:58Z</time>
      </trkpt>
      <trkpt lat="47.45285" lon="-0.58652">
        <ele>14</ele>
        <time>2011-09-01T16:13:59Z</time>
      </trkpt>
      <trkpt lat="47.45284" lon="-0.58655">
        <ele>14</ele>
        <time>2011-09-01T16:14:00Z</time>
      </trkpt>
      <trkpt lat="47.45283" lon="-0.58659">
        <ele>14</ele>
        <time>2011-09-01T16:14:01Z</time>
      </trkpt>
      <trkpt lat="47.45281" lon="-0.58665">
        <ele>14</ele>
        <time>2011-09-01T16:14:02Z</time>
      </trkpt>
      <trkpt lat="47.45279" lon="-0.58669">
        <ele>14</ele>
        <time>2011-09-01T16:14:03Z</time>
      </trkpt>
      <trkpt lat="47.45278" lon="-0.58672">
        <ele>14</ele>
        <time>2011-09-01T16:14:04Z</time>
      </trkpt>
      <trkpt lat="47.45276" lon="-0.58675">
        <ele>14</ele>
        <time>2011-09-01T16:14:05Z</time>
      </trkpt>
      <trkpt lat="47.45274" lon="-0.58679">
        <ele>14</ele>
        <time>2011-09-01T16:14:06Z</time>
      </trkpt>
      <trkpt lat="47.45272" lon="-0.58683">
        <ele>14</ele>
        <time>2011-09-01T16:14:07Z</time>
      </trkpt>
      <trkpt lat="47.45271" lon="-0.58688">
        <ele>14</ele>
        <time>2011-09-01T16:14:08Z</time>
      </trkpt>
      <trkpt lat="47.4527" lon="-0.58692">
        <ele>14</ele>
        <time>2011-09-01T16:14:09Z</time>
      </trkpt>
      <trkpt lat="47.45268" lon="-0.58696">
        <ele>14</ele>
        <time>2011-09-01T16:14:10Z</time>
      </trkpt>
      <trkpt lat="47.45267" lon="-0.58701">
        <ele>14</ele>
        <time>2011-09-01T16:14:11Z</time>
      </trkpt>
      <trkpt lat="47.45264" lon="-0.58705">
        <ele>14</ele>
        <time>2011-09-01T16:14:12Z</time>
      </trkpt>
      <trkpt lat="47.45261" lon="-0.5871">
        <ele>14</ele>
        <time>2011-09-01T16:14:13Z</time>
      </trkpt>
      <trkpt lat="47.4526" lon="-0.58715">
        <ele>14</ele>
        <time>2011-09-01T16:14:14Z</time>
      </trkpt>
      <trkpt lat="47.45258" lon="-0.5872">
        <ele>14</ele>
        <time>2011-09-01T16:14:15Z</time>
      </trkpt>
      <trkpt lat="47.45256" lon="-0.58724">
        <ele>14</ele>
        <time>2011-09-01T16:14:16Z</time>
      </trkpt>
      <trkpt lat="47.45255" lon="-0.58729">
        <ele>14</ele>
        <time>2011-09-01T16:14:17Z</time>
      </trkpt>
      <trkpt lat="47.45253" lon="-0.58733">
        <ele>14</ele>
        <time>2011-09-01T16:14:18Z</time>
      </trkpt>
      <trkpt lat="47.45251" lon="-0.58738">
        <ele>14</ele>
        <time>2011-09-01T16:14:19Z</time>
      </trkpt>
      <trkpt lat="47.4525" lon="-0.58743">
        <ele>14</ele>
        <time>2011-09-01T16:14:20Z</time>
      </trkpt>
      <trkpt lat="47.45249" lon="-0.58747">
        <ele>14</ele>
        <time>2011-09-01T16:14:21Z</time>
      </trkpt>
      <trkpt lat="47.45247" lon="-0.58752">
        <ele>14</ele>
        <time>2011-09-01T16:14:22Z</time>
      </trkpt>
      <trkpt lat="47.45245" lon="-0.58757">
        <ele>14</ele>
        <time>2011-09-01T16:14:23Z</time>
      </trkpt>
      <trkpt lat="47.45243" lon="-0.58762">
        <ele>14</ele>
        <time>2011-09-01T16:14:24Z</time>
      </trkpt>
      <trkpt lat="47.45242" lon="-0.58766">
        <ele>14</ele>
        <time>2011-09-01T16:14:25Z</time>
      </trkpt>
      <trkpt lat="47.4524" lon="-0.5877">
        <ele>14</ele>
        <time>2011-09-01T16:14:26Z</time>
      </trkpt>
      <trkpt lat="47.45238" lon="-0.58775">
        <ele>14</ele>
        <time>2011-09-01T16:14:27Z</time>
      </trkpt>
      <trkpt lat="47.45236" lon="-0.58779">
        <ele>14</ele>
        <time>2011-09-01T16:14:28Z</time>
      </trkpt>
      <trkpt lat="47.45235" lon="-0.58784">
        <ele>13</ele>
        <time>2011-09-01T16:14:29Z</time>
      </trkpt>
      <trkpt lat="47.45233" lon="-0.58787">
        <ele>13</ele>
        <time>2011-09-01T16:14:30Z</time>
      </trkpt>
      <trkpt lat="47.45232" lon="-0.58791">
        <ele>13</ele>
        <time>2011-09-01T16:14:31Z</time>
      </trkpt>
      <trkpt lat="47.4523" lon="-0.58794">
        <ele>13</ele>
        <time>2011-09-01T16:14:32Z</time>
      </trkpt>
      <trkpt lat="47.45229" lon="-0.58798">
        <ele>13</ele>
        <time>2011-09-01T16:14:33Z</time>
      </trkpt>
      <trkpt lat="47.45228" lon="-0.58801">
        <ele>13</ele>
        <time>2011-09-01T16:14:34Z</time>
      </trkpt>
      <trkpt lat="47.45226" lon="-0.58805">
        <ele>13</ele>
        <time>2011-09-01T16:14:35Z</time>
      </trkpt>
      <trkpt lat="47.45223" lon="-0.5881">
        <ele>13</ele>
        <time>2011-09-01T16:14:36Z</time>
      </trkpt>
      <trkpt lat="47.45221" lon="-0.58813">
        <ele>13</ele>
        <time>2011-09-01T16:14:37Z</time>
      </trkpt>
      <trkpt lat="47.45219" lon="-0.58817">
        <ele>13</ele>
        <time>2011-09-01T16:14:38Z</time>
      </trkpt>
      <trkpt lat="47.45219" lon="-0.58821">
        <ele>13</ele>
        <time>2011-09-01T16:14:39Z</time>
      </trkpt>
      <trkpt lat="47.45217" lon="-0.58825">
        <ele>13</ele>
        <time>2011-09-01T16:14:40Z</time>
      </trkpt>
      <trkpt lat="47.45217" lon="-0.58829">
        <ele>13</ele>
        <time>2011-09-01T16:14:41Z</time>
      </trkpt>
      <trkpt lat="47.45215" lon="-0.58832">
        <ele>13</ele>
        <time>2011-09-01T16:14:42Z</time>
      </trkpt>
      <trkpt lat="47.45214" lon="-0.58836">
        <ele>13</ele>
        <time>2011-09-01T16:14:43Z</time>
      </trkpt>
      <trkpt lat="47.45213" lon="-0.5884">
        <ele>13</ele>
        <time>2011-09-01T16:14:44Z</time>
      </trkpt>
      <trkpt lat="47.45212" lon="-0.58845">
        <ele>13</ele>
        <time>2011-09-01T16:14:45Z</time>
      </trkpt>
      <trkpt lat="47.45211" lon="-0.58849">
        <ele>13</ele>
        <time>2011-09-01T16:14:46Z</time>
      </trkpt>
      <trkpt lat="47.45209" lon="-0.58854">
        <ele>13</ele>
        <time>2011-09-01T16:14:47Z</time>
      </trkpt>
      <trkpt lat="47.45207" lon="-0.58859">
        <ele>13</ele>
        <time>2011-09-01T16:14:48Z</time>
      </trkpt>
      <trkpt lat="47.45205" lon="-0.58863">
        <ele>13</ele>
        <time>2011-09-01T16:14:49Z</time>
      </trkpt>
      <trkpt lat="47.45205" lon="-0.58866">
        <ele>13</ele>
        <time>2011-09-01T16:14:50Z</time>
      </trkpt>
      <trkpt lat="47.45203" lon="-0.5887">
        <ele>13</ele>
        <time>2011-09-01T16:14:51Z</time>
      </trkpt>
      <trkpt lat="47.45201" lon="-0.58875">
        <ele>13</ele>
        <time>2011-09-01T16:14:52Z</time>
      </trkpt>
      <trkpt lat="47.452" lon="-0.5888">
        <ele>13</ele>
        <time>2011-09-01T16:14:53Z</time>
      </trkpt>
      <trkpt lat="47.45199" lon="-0.58884">
        <ele>13</ele>
        <time>2011-09-01T16:14:54Z</time>
      </trkpt>
      <trkpt lat="47.45197" lon="-0.58889">
        <ele>13</ele>
        <time>2011-09-01T16:14:55Z</time>
      </trkpt>
      <trkpt lat="47.45195" lon="-0.58894">
        <ele>13</ele>
        <time>2011-09-01T16:14:56Z</time>
      </trkpt>
      <trkpt lat="47.45193" lon="-0.589">
        <ele>13</ele>
        <time>2011-09-01T16:14:57Z</time>
      </trkpt>
      <trkpt lat="47.4519" lon="-0.58905">
        <ele>13</ele>
        <time>2011-09-01T16:14:58Z</time>
      </trkpt>
      <trkpt lat="47.45187" lon="-0.58911">
        <ele>13</ele>
        <time>2011-09-01T16:14:59Z</time>
      </trkpt>
      <trkpt lat="47.45185" lon="-0.58916">
        <ele>13</ele>
        <time>2011-09-01T16:15:00Z</time>
      </trkpt>
      <trkpt lat="47.45183" lon="-0.58921">
        <ele>13</ele>
        <time>2011-09-01T16:15:01Z</time>
      </trkpt>
      <trkpt lat="47.45181" lon="-0.58925">
        <ele>13</ele>
        <time>2011-09-01T16:15:02Z</time>
      </trkpt>
      <trkpt lat="47.45179" lon="-0.5893">
        <ele>13</ele>
        <time>2011-09-01T16:15:03Z</time>
      </trkpt>
      <trkpt lat="47.45178" lon="-0.58933">
        <ele>13</ele>
        <time>2011-09-01T16:15:04Z</time>
      </trkpt>
      <trkpt lat="47.45177" lon="-0.58936">
        <ele>13</ele>
        <time>2011-09-01T16:15:05Z</time>
      </trkpt>
      <trkpt lat="47.45176" lon="-0.5894">
        <ele>13</ele>
        <time>2011-09-01T16:15:07Z</time>
      </trkpt>
      <trkpt lat="47.45175" lon="-0.58944">
        <ele>13</ele>
        <time>2011-09-01T16:15:08Z</time>
      </trkpt>
      <trkpt lat="47.45173" lon="-0.58948">
        <ele>13</ele>
        <time>2011-09-01T16:15:09Z</time>
      </trkpt>
      <trkpt lat="47.45172" lon="-0.58952">
        <ele>13</ele>
        <time>2011-09-01T16:15:10Z</time>
      </trkpt>
      <trkpt lat="47.45171" lon="-0.58956">
        <ele>13</ele>
        <time>2011-09-01T16:15:11Z</time>
      </trkpt>
      <trkpt lat="47.45169" lon="-0.58961">
        <ele>13</ele>
        <time>2011-09-01T16:15:12Z</time>
      </trkpt>
      <trkpt lat="47.45167" lon="-0.58966">
        <ele>13</ele>
        <time>2011-09-01T16:15:13Z</time>
      </trkpt>
      <trkpt lat="47.45164" lon="-0.58972">
        <ele>13</ele>
        <time>2011-09-01T16:15:14Z</time>
      </trkpt>
      <trkpt lat="47.45161" lon="-0.58977">
        <ele>13</ele>
        <time>2011-09-01T16:15:15Z</time>
      </trkpt>
      <trkpt lat="47.45159" lon="-0.58982">
        <ele>13</ele>
        <time>2011-09-01T16:15:16Z</time>
      </trkpt>
      <trkpt lat="47.45157" lon="-0.58986">
        <ele>13</ele>
        <time>2011-09-01T16:15:17Z</time>
      </trkpt>
      <trkpt lat="47.45156" lon="-0.5899">
        <ele>13</ele>
        <time>2011-09-01T16:15:18Z</time>
      </trkpt>
      <trkpt lat="47.45153" lon="-0.58994">
        <ele>13</ele>
        <time>2011-09-01T16:15:19Z</time>
      </trkpt>
      <trkpt lat="47.45153" lon="-0.58997">
        <ele>13</ele>
        <time>2011-09-01T16:15:20Z</time>
      </trkpt>
      <trkpt lat="47.45152" lon="-0.59">
        <ele>13</ele>
        <time>2011-09-01T16:15:21Z</time>
      </trkpt>
      <trkpt lat="47.4515" lon="-0.59005">
        <ele>13</ele>
        <time>2011-09-01T16:15:22Z</time>
      </trkpt>
      <trkpt lat="47.45149" lon="-0.59009">
        <ele>13</ele>
        <time>2011-09-01T16:15:23Z</time>
      </trkpt>
      <trkpt lat="47.45148" lon="-0.59012">
        <ele>13</ele>
        <time>2011-09-01T16:15:24Z</time>
      </trkpt>
      <trkpt lat="47.45147" lon="-0.59016">
        <ele>13</ele>
        <time>2011-09-01T16:15:25Z</time>
      </trkpt>
      <trkpt lat="47.45145" lon="-0.5902">
        <ele>13</ele>
        <time>2011-09-01T16:15:26Z</time>
      </trkpt>
      <trkpt lat="47.45144" lon="-0.59024">
        <ele>13</ele>
        <time>2011-09-01T16:15:27Z</time>
      </trkpt>
      <trkpt lat="47.45142" lon="-0.59029">
        <ele>13</ele>
        <time>2011-09-01T16:15:28Z</time>
      </trkpt>
      <trkpt lat="47.45142" lon="-0.59033">
        <ele>13</ele>
        <time>2011-09-01T16:15:29Z</time>
      </trkpt>
      <trkpt lat="47.45141" lon="-0.59038">
        <ele>13</ele>
        <time>2011-09-01T16:15:30Z</time>
      </trkpt>
      <trkpt lat="47.4514" lon="-0.59042">
        <ele>13</ele>
        <time>2011-09-01T16:15:31Z</time>
      </trkpt>
      <trkpt lat="47.45138" lon="-0.59045">
        <ele>13</ele>
        <time>2011-09-01T16:15:32Z</time>
      </trkpt>
      <trkpt lat="47.45136" lon="-0.5905">
        <ele>13</ele>
        <time>2011-09-01T16:15:33Z</time>
      </trkpt>
      <trkpt lat="47.45134" lon="-0.59054">
        <ele>13</ele>
        <time>2011-09-01T16:15:34Z</time>
      </trkpt>
      <trkpt lat="47.45132" lon="-0.59058">
        <ele>13</ele>
        <time>2011-09-01T16:15:35Z</time>
      </trkpt>
      <trkpt lat="47.45131" lon="-0.59062">
        <ele>13</ele>
        <time>2011-09-01T16:15:36Z</time>
      </trkpt>
      <trkpt lat="47.45129" lon="-0.59066">
        <ele>13</ele>
        <time>2011-09-01T16:15:37Z</time>
      </trkpt>
      <trkpt lat="47.45127" lon="-0.5907">
        <ele>13</ele>
        <time>2011-09-01T16:15:38Z</time>
      </trkpt>
      <trkpt lat="47.45125" lon="-0.59073">
        <ele>13</ele>
        <time>2011-09-01T16:15:39Z</time>
      </trkpt>
      <trkpt lat="47.45124" lon="-0.59077">
        <ele>13</ele>
        <time>2011-09-01T16:15:40Z</time>
      </trkpt>
      <trkpt lat="47.45122" lon="-0.59081">
        <ele>13</ele>
        <time>2011-09-01T16:15:41Z</time>
      </trkpt>
      <trkpt lat="47.4512" lon="-0.59086">
        <ele>13</ele>
        <time>2011-09-01T16:15:42Z</time>
      </trkpt>
      <trkpt lat="47.45118" lon="-0.59091">
        <ele>13</ele>
        <time>2011-09-01T16:15:43Z</time>
      </trkpt>
      <trkpt lat="47.45116" lon="-0.59096">
        <ele>13</ele>
        <time>2011-09-01T16:15:44Z</time>
      </trkpt>
      <trkpt lat="47.45114" lon="-0.591">
        <ele>13</ele>
        <time>2011-09-01T16:15:45Z</time>
      </trkpt>
      <trkpt lat="47.45111" lon="-0.59104">
        <ele>13</ele>
        <time>2011-09-01T16:15:46Z</time>
      </trkpt>
      <trkpt lat="47.4511" lon="-0.59108">
        <ele>13</ele>
        <time>2011-09-01T16:15:47Z</time>
      </trkpt>
      <trkpt lat="47.45107" lon="-0.59112">
        <ele>13</ele>
        <time>2011-09-01T16:15:48Z</time>
      </trkpt>
      <trkpt lat="47.45106" lon="-0.59116">
        <ele>13</ele>
        <time>2011-09-01T16:15:49Z</time>
      </trkpt>
      <trkpt lat="47.45104" lon="-0.5912">
        <ele>13</ele>
        <time>2011-09-01T16:15:50Z</time>
      </trkpt>
      <trkpt lat="47.45102" lon="-0.59124">
        <ele>13</ele>
        <time>2011-09-01T16:15:51Z</time>
      </trkpt>
      <trkpt lat="47.45101" lon="-0.59127">
        <ele>13</ele>
        <time>2011-09-01T16:15:52Z</time>
      </trkpt>
      <trkpt lat="47.45099" lon="-0.59131">
        <ele>13</ele>
        <time>2011-09-01T16:15:53Z</time>
      </trkpt>
      <trkpt lat="47.45098" lon="-0.59134">
        <ele>13</ele>
        <time>2011-09-01T16:15:54Z</time>
      </trkpt>
      <trkpt lat="47.45097" lon="-0.59137">
        <ele>13</ele>
        <time>2011-09-01T16:15:55Z</time>
      </trkpt>
      <trkpt lat="47.45095" lon="-0.59141">
        <ele>13</ele>
        <time>2011-09-01T16:15:56Z</time>
      </trkpt>
      <trkpt lat="47.45093" lon="-0.59145">
        <ele>13</ele>
        <time>2011-09-01T16:15:57Z</time>
      </trkpt>
      <trkpt lat="47.4509" lon="-0.59148">
        <ele>13</ele>
        <time>2011-09-01T16:15:58Z</time>
      </trkpt>
      <trkpt lat="47.45089" lon="-0.59151">
        <ele>13</ele>
        <time>2011-09-01T16:15:59Z</time>
      </trkpt>
      <trkpt lat="47.45087" lon="-0.59155">
        <ele>13</ele>
        <time>2011-09-01T16:16:00Z</time>
      </trkpt>
      <trkpt lat="47.45085" lon="-0.59159">
        <ele>13</ele>
        <time>2011-09-01T16:16:01Z</time>
      </trkpt>
      <trkpt lat="47.45083" lon="-0.59162">
        <ele>13</ele>
        <time>2011-09-01T16:16:02Z</time>
      </trkpt>
      <trkpt lat="47.45081" lon="-0.59165">
        <ele>13</ele>
        <time>2011-09-01T16:16:03Z</time>
      </trkpt>
      <trkpt lat="47.4508" lon="-0.59167">
        <ele>13</ele>
        <time>2011-09-01T16:16:04Z</time>
      </trkpt>
      <trkpt lat="47.45079" lon="-0.5917">
        <ele>13</ele>
        <time>2011-09-01T16:16:05Z</time>
      </trkpt>
      <trkpt lat="47.45077" lon="-0.59174">
        <ele>13</ele>
        <time>2011-09-01T16:16:06Z</time>
      </trkpt>
      <trkpt lat="47.45075" lon="-0.59178">
        <ele>13</ele>
        <time>2011-09-01T16:16:07Z</time>
      </trkpt>
      <trkpt lat="47.45074" lon="-0.59182">
        <ele>13</ele>
        <time>2011-09-01T16:16:08Z</time>
      </trkpt>
      <trkpt lat="47.45072" lon="-0.59185">
        <ele>13</ele>
        <time>2011-09-01T16:16:09Z</time>
      </trkpt>
      <trkpt lat="47.45071" lon="-0.59188">
        <ele>13</ele>
        <time>2011-09-01T16:16:10Z</time>
      </trkpt>
      <trkpt lat="47.45069" lon="-0.59192">
        <ele>13</ele>
        <time>2011-09-01T16:16:11Z</time>
      </trkpt>
      <trkpt lat="47.45068" lon="-0.59194">
        <ele>13</ele>
        <time>2011-09-01T16:16:12Z</time>
      </trkpt>
      <trkpt lat="47.45066" lon="-0.59197">
        <ele>13</ele>
        <time>2011-09-01T16:16:13Z</time>
      </trkpt>
      <trkpt lat="47.45064" lon="-0.59201">
        <ele>13</ele>
        <time>2011-09-01T16:16:14Z</time>
      </trkpt>
      <trkpt lat="47.45063" lon="-0.59205">
        <ele>13</ele>
        <time>2011-09-01T16:16:15Z</time>
      </trkpt>
      <trkpt lat="47.45061" lon="-0.59209">
        <ele>13</ele>
        <time>2011-09-01T16:16:16Z</time>
      </trkpt>
      <trkpt lat="47.45059" lon="-0.59213">
        <ele>13</ele>
        <time>2011-09-01T16:16:17Z</time>
      </trkpt>
      <trkpt lat="47.45057" lon="-0.59217">
        <ele>13</ele>
        <time>2011-09-01T16:16:18Z</time>
      </trkpt>
      <trkpt lat="47.45055" lon="-0.59221">
        <ele>13</ele>
        <time>2011-09-01T16:16:19Z</time>
      </trkpt>
      <trkpt lat="47.45052" lon="-0.59225">
        <ele>13</ele>
        <time>2011-09-01T16:16:20Z</time>
      </trkpt>
      <trkpt lat="47.4505" lon="-0.59229">
        <ele>13</ele>
        <time>2011-09-01T16:16:21Z</time>
      </trkpt>
      <trkpt lat="47.45048" lon="-0.59233">
        <ele>13</ele>
        <time>2011-09-01T16:16:22Z</time>
      </trkpt>
      <trkpt lat="47.45045" lon="-0.59238">
        <ele>13</ele>
        <time>2011-09-01T16:16:23Z</time>
      </trkpt>
      <trkpt lat="47.45043" lon="-0.59243">
        <ele>13</ele>
        <time>2011-09-01T16:16:24Z</time>
      </trkpt>
      <trkpt lat="47.45042" lon="-0.59246">
        <ele>13</ele>
        <time>2011-09-01T16:16:25Z</time>
      </trkpt>
      <trkpt lat="47.4504" lon="-0.5925">
        <ele>13</ele>
        <time>2011-09-01T16:16:26Z</time>
      </trkpt>
      <trkpt lat="47.45038" lon="-0.59253">
        <ele>13</ele>
        <time>2011-09-01T16:16:27Z</time>
      </trkpt>
      <trkpt lat="47.45036" lon="-0.59256">
        <ele>13</ele>
        <time>2011-09-01T16:16:28Z</time>
      </trkpt>
      <trkpt lat="47.45034" lon="-0.5926">
        <ele>13</ele>
        <time>2011-09-01T16:16:29Z</time>
      </trkpt>
      <trkpt lat="47.45033" lon="-0.59264">
        <ele>13</ele>
        <time>2011-09-01T16:16:30Z</time>
      </trkpt>
      <trkpt lat="47.4503" lon="-0.59269">
        <ele>13</ele>
        <time>2011-09-01T16:16:31Z</time>
      </trkpt>
      <trkpt lat="47.45028" lon="-0.59272">
        <ele>13</ele>
        <time>2011-09-01T16:16:32Z</time>
      </trkpt>
      <trkpt lat="47.45026" lon="-0.59276">
        <ele>13</ele>
        <time>2011-09-01T16:16:33Z</time>
      </trkpt>
      <trkpt lat="47.45023" lon="-0.5928">
        <ele>13</ele>
        <time>2011-09-01T16:16:34Z</time>
      </trkpt>
      <trkpt lat="47.45021" lon="-0.59284">
        <ele>13</ele>
        <time>2011-09-01T16:16:35Z</time>
      </trkpt>
      <trkpt lat="47.4502" lon="-0.59288">
        <ele>13</ele>
        <time>2011-09-01T16:16:36Z</time>
      </trkpt>
      <trkpt lat="47.45018" lon="-0.59292">
        <ele>14</ele>
        <time>2011-09-01T16:16:37Z</time>
      </trkpt>
      <trkpt lat="47.45015" lon="-0.59296">
        <ele>15</ele>
        <time>2011-09-01T16:16:38Z</time>
      </trkpt>
      <trkpt lat="47.45014" lon="-0.59299">
        <ele>16</ele>
        <time>2011-09-01T16:16:39Z</time>
      </trkpt>
      <trkpt lat="47.45012" lon="-0.59303">
        <ele>17</ele>
        <time>2011-09-01T16:16:40Z</time>
      </trkpt>
      <trkpt lat="47.45011" lon="-0.59305">
        <ele>18</ele>
        <time>2011-09-01T16:16:41Z</time>
      </trkpt>
      <trkpt lat="47.45009" lon="-0.59311">
        <ele>18</ele>
        <time>2011-09-01T16:16:42Z</time>
      </trkpt>
      <trkpt lat="47.45007" lon="-0.59314">
        <ele>18</ele>
        <time>2011-09-01T16:16:43Z</time>
      </trkpt>
      <trkpt lat="47.45005" lon="-0.59317">
        <ele>18</ele>
        <time>2011-09-01T16:16:44Z</time>
      </trkpt>
      <trkpt lat="47.45002" lon="-0.59321">
        <ele>18</ele>
        <time>2011-09-01T16:16:45Z</time>
      </trkpt>
      <trkpt lat="47.45" lon="-0.59325">
        <ele>18</ele>
        <time>2011-09-01T16:16:46Z</time>
      </trkpt>
      <trkpt lat="47.44997" lon="-0.59331">
        <ele>19</ele>
        <time>2011-09-01T16:16:47Z</time>
      </trkpt>
      <trkpt lat="47.44993" lon="-0.59337">
        <ele>20</ele>
        <time>2011-09-01T16:16:48Z</time>
      </trkpt>
      <trkpt lat="47.44989" lon="-0.59344">
        <ele>20</ele>
        <time>2011-09-01T16:16:49Z</time>
      </trkpt>
      <trkpt lat="47.44988" lon="-0.5935">
        <ele>20</ele>
        <time>2011-09-01T16:16:50Z</time>
      </trkpt>
      <trkpt lat="47.44985" lon="-0.59356">
        <ele>20</ele>
        <time>2011-09-01T16:16:51Z</time>
      </trkpt>
      <trkpt lat="47.44984" lon="-0.59361">
        <ele>20</ele>
        <time>2011-09-01T16:16:52Z</time>
      </trkpt>
      <trkpt lat="47.44983" lon="-0.59367">
        <ele>20</ele>
        <time>2011-09-01T16:16:53Z</time>
      </trkpt>
      <trkpt lat="47.44981" lon="-0.59372">
        <ele>20</ele>
        <time>2011-09-01T16:16:54Z</time>
      </trkpt>
      <trkpt lat="47.4498" lon="-0.59377">
        <ele>20</ele>
        <time>2011-09-01T16:16:55Z</time>
      </trkpt>
      <trkpt lat="47.44979" lon="-0.59381">
        <ele>20</ele>
        <time>2011-09-01T16:16:56Z</time>
      </trkpt>
      <trkpt lat="47.44975" lon="-0.59385">
        <ele>20</ele>
        <time>2011-09-01T16:16:57Z</time>
      </trkpt>
      <trkpt lat="47.44973" lon="-0.59388">
        <ele>20</ele>
        <time>2011-09-01T16:16:58Z</time>
      </trkpt>
      <trkpt lat="47.44972" lon="-0.59391">
        <ele>20</ele>
        <time>2011-09-01T16:16:59Z</time>
      </trkpt>
      <trkpt lat="47.4497" lon="-0.59395">
        <ele>20</ele>
        <time>2011-09-01T16:17:00Z</time>
      </trkpt>
      <trkpt lat="47.44968" lon="-0.59399">
        <ele>20</ele>
        <time>2011-09-01T16:17:01Z</time>
      </trkpt>
      <trkpt lat="47.44966" lon="-0.59402">
        <ele>19</ele>
        <time>2011-09-01T16:17:02Z</time>
      </trkpt>
      <trkpt lat="47.44964" lon="-0.59407">
        <ele>18</ele>
        <time>2011-09-01T16:17:03Z</time>
      </trkpt>
      <trkpt lat="47.4496" lon="-0.59412">
        <ele>18</ele>
        <time>2011-09-01T16:17:04Z</time>
      </trkpt>
      <trkpt lat="47.44957" lon="-0.59416">
        <ele>17</ele>
        <time>2011-09-01T16:17:05Z</time>
      </trkpt>
      <trkpt lat="47.44955" lon="-0.5942">
        <ele>17</ele>
        <time>2011-09-01T16:17:06Z</time>
      </trkpt>
      <trkpt lat="47.44953" lon="-0.59424">
        <ele>17</ele>
        <time>2011-09-01T16:17:07Z</time>
      </trkpt>
      <trkpt lat="47.44951" lon="-0.59427">
        <ele>17</ele>
        <time>2011-09-01T16:17:08Z</time>
      </trkpt>
      <trkpt lat="47.44949" lon="-0.59431">
        <ele>17</ele>
        <time>2011-09-01T16:17:09Z</time>
      </trkpt>
      <trkpt lat="47.44947" lon="-0.59435">
        <ele>17</ele>
        <time>2011-09-01T16:17:10Z</time>
      </trkpt>
      <trkpt lat="47.44945" lon="-0.59439">
        <ele>16</ele>
        <time>2011-09-01T16:17:11Z</time>
      </trkpt>
      <trkpt lat="47.44943" lon="-0.59442">
        <ele>16</ele>
        <time>2011-09-01T16:17:12Z</time>
      </trkpt>
      <trkpt lat="47.44941" lon="-0.59445">
        <ele>16</ele>
        <time>2011-09-01T16:17:13Z</time>
      </trkpt>
      <trkpt lat="47.44938" lon="-0.59447">
        <ele>16</ele>
        <time>2011-09-01T16:17:14Z</time>
      </trkpt>
      <trkpt lat="47.44934" lon="-0.59451">
        <ele>16</ele>
        <time>2011-09-01T16:17:15Z</time>
      </trkpt>
      <trkpt lat="47.44932" lon="-0.59453">
        <ele>16</ele>
        <time>2011-09-01T16:17:16Z</time>
      </trkpt>
      <trkpt lat="47.4493" lon="-0.59456">
        <ele>15</ele>
        <time>2011-09-01T16:17:17Z</time>
      </trkpt>
      <trkpt lat="47.44927" lon="-0.59459">
        <ele>15</ele>
        <time>2011-09-01T16:17:18Z</time>
      </trkpt>
      <trkpt lat="47.44925" lon="-0.59461">
        <ele>14</ele>
        <time>2011-09-01T16:17:19Z</time>
      </trkpt>
      <trkpt lat="47.4492" lon="-0.59465">
        <ele>14</ele>
        <time>2011-09-01T16:17:20Z</time>
      </trkpt>
      <trkpt lat="47.44915" lon="-0.59468">
        <ele>13</ele>
        <time>2011-09-01T16:17:21Z</time>
      </trkpt>
      <trkpt lat="47.4491" lon="-0.59471">
        <ele>13</ele>
        <time>2011-09-01T16:17:22Z</time>
      </trkpt>
      <trkpt lat="47.44905" lon="-0.59475">
        <ele>13</ele>
        <time>2011-09-01T16:17:23Z</time>
      </trkpt>
      <trkpt lat="47.44901" lon="-0.59478">
        <ele>13</ele>
        <time>2011-09-01T16:17:24Z</time>
      </trkpt>
      <trkpt lat="47.44897" lon="-0.59481">
        <ele>13</ele>
        <time>2011-09-01T16:17:25Z</time>
      </trkpt>
      <trkpt lat="47.44894" lon="-0.59483">
        <ele>13</ele>
        <time>2011-09-01T16:17:26Z</time>
      </trkpt>
      <trkpt lat="47.4489" lon="-0.59485">
        <ele>13</ele>
        <time>2011-09-01T16:17:27Z</time>
      </trkpt>
      <trkpt lat="47.44886" lon="-0.59488">
        <ele>13</ele>
        <time>2011-09-01T16:17:28Z</time>
      </trkpt>
      <trkpt lat="47.44883" lon="-0.59491">
        <ele>13</ele>
        <time>2011-09-01T16:17:29Z</time>
      </trkpt>
      <trkpt lat="47.44878" lon="-0.59493">
        <ele>12</ele>
        <time>2011-09-01T16:17:30Z</time>
      </trkpt>
      <trkpt lat="47.44874" lon="-0.59496">
        <ele>12</ele>
        <time>2011-09-01T16:17:31Z</time>
      </trkpt>
      <trkpt lat="47.4487" lon="-0.59499">
        <ele>12</ele>
        <time>2011-09-01T16:17:32Z</time>
      </trkpt>
      <trkpt lat="47.44866" lon="-0.59501">
        <ele>12</ele>
        <time>2011-09-01T16:17:33Z</time>
      </trkpt>
      <trkpt lat="47.44862" lon="-0.59503">
        <ele>12</ele>
        <time>2011-09-01T16:17:34Z</time>
      </trkpt>
      <trkpt lat="47.44859" lon="-0.59504">
        <ele>12</ele>
        <time>2011-09-01T16:17:35Z</time>
      </trkpt>
      <trkpt lat="47.44856" lon="-0.59506">
        <ele>12</ele>
        <time>2011-09-01T16:17:36Z</time>
      </trkpt>
      <trkpt lat="47.44852" lon="-0.59506">
        <ele>12</ele>
        <time>2011-09-01T16:17:37Z</time>
      </trkpt>
      <trkpt lat="47.44847" lon="-0.59508">
        <ele>12</ele>
        <time>2011-09-01T16:17:38Z</time>
      </trkpt>
      <trkpt lat="47.44844" lon="-0.59509">
        <ele>12</ele>
        <time>2011-09-01T16:17:39Z</time>
      </trkpt>
      <trkpt lat="47.4484" lon="-0.5951">
        <ele>12</ele>
        <time>2011-09-01T16:17:40Z</time>
      </trkpt>
      <trkpt lat="47.44836" lon="-0.59511">
        <ele>12</ele>
        <time>2011-09-01T16:17:41Z</time>
      </trkpt>
      <trkpt lat="47.44832" lon="-0.59513">
        <ele>12</ele>
        <time>2011-09-01T16:17:42Z</time>
      </trkpt>
      <trkpt lat="47.44828" lon="-0.59514">
        <ele>12</ele>
        <time>2011-09-01T16:17:43Z</time>
      </trkpt>
      <trkpt lat="47.44824" lon="-0.59515">
        <ele>12</ele>
        <time>2011-09-01T16:17:44Z</time>
      </trkpt>
      <trkpt lat="47.4482" lon="-0.59517">
        <ele>12</ele>
        <time>2011-09-01T16:17:45Z</time>
      </trkpt>
      <trkpt lat="47.44817" lon="-0.59519">
        <ele>12</ele>
        <time>2011-09-01T16:17:46Z</time>
      </trkpt>
      <trkpt lat="47.44813" lon="-0.59521">
        <ele>12</ele>
        <time>2011-09-01T16:17:47Z</time>
      </trkpt>
      <trkpt lat="47.4481" lon="-0.59523">
        <ele>11</ele>
        <time>2011-09-01T16:17:48Z</time>
      </trkpt>
      <trkpt lat="47.44806" lon="-0.59525">
        <ele>11</ele>
        <time>2011-09-01T16:17:49Z</time>
      </trkpt>
      <trkpt lat="47.44802" lon="-0.59527">
        <ele>11</ele>
        <time>2011-09-01T16:17:50Z</time>
      </trkpt>
      <trkpt lat="47.44799" lon="-0.59528">
        <ele>11</ele>
        <time>2011-09-01T16:17:51Z</time>
      </trkpt>
      <trkpt lat="47.44796" lon="-0.5953">
        <ele>11</ele>
        <time>2011-09-01T16:17:52Z</time>
      </trkpt>
      <trkpt lat="47.44793" lon="-0.59531">
        <ele>11</ele>
        <time>2011-09-01T16:17:53Z</time>
      </trkpt>
      <trkpt lat="47.44789" lon="-0.59532">
        <ele>11</ele>
        <time>2011-09-01T16:17:54Z</time>
      </trkpt>
      <trkpt lat="47.44786" lon="-0.59534">
        <ele>11</ele>
        <time>2011-09-01T16:17:55Z</time>
      </trkpt>
      <trkpt lat="47.44782" lon="-0.59535">
        <ele>11</ele>
        <time>2011-09-01T16:17:56Z</time>
      </trkpt>
      <trkpt lat="47.44778" lon="-0.59535">
        <ele>11</ele>
        <time>2011-09-01T16:17:57Z</time>
      </trkpt>
      <trkpt lat="47.44774" lon="-0.59537">
        <ele>11</ele>
        <time>2011-09-01T16:17:58Z</time>
      </trkpt>
      <trkpt lat="47.4477" lon="-0.59538">
        <ele>11</ele>
        <time>2011-09-01T16:17:59Z</time>
      </trkpt>
      <trkpt lat="47.44766" lon="-0.5954">
        <ele>11</ele>
        <time>2011-09-01T16:18:00Z</time>
      </trkpt>
      <trkpt lat="47.44762" lon="-0.59542">
        <ele>11</ele>
        <time>2011-09-01T16:18:01Z</time>
      </trkpt>
      <trkpt lat="47.44757" lon="-0.59543">
        <ele>11</ele>
        <time>2011-09-01T16:18:02Z</time>
      </trkpt>
      <trkpt lat="47.44754" lon="-0.59545">
        <ele>11</ele>
        <time>2011-09-01T16:18:03Z</time>
      </trkpt>
      <trkpt lat="47.44749" lon="-0.59547">
        <ele>10</ele>
        <time>2011-09-01T16:18:04Z</time>
      </trkpt>
      <trkpt lat="47.44746" lon="-0.59548">
        <ele>10</ele>
        <time>2011-09-01T16:18:05Z</time>
      </trkpt>
      <trkpt lat="47.44742" lon="-0.5955">
        <ele>10</ele>
        <time>2011-09-01T16:18:06Z</time>
      </trkpt>
      <trkpt lat="47.44738" lon="-0.59551">
        <ele>10</ele>
        <time>2011-09-01T16:18:07Z</time>
      </trkpt>
      <trkpt lat="47.44735" lon="-0.59553">
        <ele>10</ele>
        <time>2011-09-01T16:18:08Z</time>
      </trkpt>
      <trkpt lat="47.44731" lon="-0.59554">
        <ele>10</ele>
        <time>2011-09-01T16:18:09Z</time>
      </trkpt>
      <trkpt lat="47.44728" lon="-0.59555">
        <ele>10</ele>
        <time>2011-09-01T16:18:10Z</time>
      </trkpt>
      <trkpt lat="47.44724" lon="-0.59556">
        <ele>10</ele>
        <time>2011-09-01T16:18:11Z</time>
      </trkpt>
      <trkpt lat="47.4472" lon="-0.59557">
        <ele>9</ele>
        <time>2011-09-01T16:18:12Z</time>
      </trkpt>
      <trkpt lat="47.44717" lon="-0.59559">
        <ele>9</ele>
        <time>2011-09-01T16:18:13Z</time>
      </trkpt>
      <trkpt lat="47.44713" lon="-0.5956">
        <ele>9</ele>
        <time>2011-09-01T16:18:14Z</time>
      </trkpt>
      <trkpt lat="47.4471" lon="-0.59561">
        <ele>9</ele>
        <time>2011-09-01T16:18:15Z</time>
      </trkpt>
      <trkpt lat="47.44707" lon="-0.59563">
        <ele>9</ele>
        <time>2011-09-01T16:18:16Z</time>
      </trkpt>
      <trkpt lat="47.44703" lon="-0.59565">
        <ele>9</ele>
        <time>2011-09-01T16:18:17Z</time>
      </trkpt>
      <trkpt lat="47.44699" lon="-0.59566">
        <ele>8</ele>
        <time>2011-09-01T16:18:18Z</time>
      </trkpt>
      <trkpt lat="47.44696" lon="-0.59568">
        <ele>8</ele>
        <time>2011-09-01T16:18:19Z</time>
      </trkpt>
      <trkpt lat="47.44692" lon="-0.59569">
        <ele>8</ele>
        <time>2011-09-01T16:18:20Z</time>
      </trkpt>
      <trkpt lat="47.44688" lon="-0.59571">
        <ele>7</ele>
        <time>2011-09-01T16:18:21Z</time>
      </trkpt>
      <trkpt lat="47.44684" lon="-0.59573">
        <ele>7</ele>
        <time>2011-09-01T16:18:22Z</time>
      </trkpt>
      <trkpt lat="47.4468" lon="-0.59574">
        <ele>7</ele>
        <time>2011-09-01T16:18:23Z</time>
      </trkpt>
      <trkpt lat="47.44675" lon="-0.59575">
        <ele>7</ele>
        <time>2011-09-01T16:18:24Z</time>
      </trkpt>
      <trkpt lat="47.44672" lon="-0.59577">
        <ele>7</ele>
        <time>2011-09-01T16:18:25Z</time>
      </trkpt>
      <trkpt lat="47.44667" lon="-0.59578">
        <ele>7</ele>
        <time>2011-09-01T16:18:26Z</time>
      </trkpt>
      <trkpt lat="47.44662" lon="-0.59579">
        <ele>7</ele>
        <time>2011-09-01T16:18:27Z</time>
      </trkpt>
      <trkpt lat="47.44658" lon="-0.5958">
        <ele>7</ele>
        <time>2011-09-01T16:18:28Z</time>
      </trkpt>
      <trkpt lat="47.44655" lon="-0.59581">
        <ele>7</ele>
        <time>2011-09-01T16:18:29Z</time>
      </trkpt>
      <trkpt lat="47.44651" lon="-0.59582">
        <ele>7</ele>
        <time>2011-09-01T16:18:30Z</time>
      </trkpt>
      <trkpt lat="47.44647" lon="-0.59583">
        <ele>7</ele>
        <time>2011-09-01T16:18:31Z</time>
      </trkpt>
      <trkpt lat="47.44643" lon="-0.59585">
        <ele>7</ele>
        <time>2011-09-01T16:18:32Z</time>
      </trkpt>
      <trkpt lat="47.44639" lon="-0.59586">
        <ele>7</ele>
        <time>2011-09-01T16:18:33Z</time>
      </trkpt>
      <trkpt lat="47.44635" lon="-0.59587">
        <ele>7</ele>
        <time>2011-09-01T16:18:34Z</time>
      </trkpt>
      <trkpt lat="47.44631" lon="-0.59588">
        <ele>7</ele>
        <time>2011-09-01T16:18:35Z</time>
      </trkpt>
      <trkpt lat="47.44628" lon="-0.5959">
        <ele>7</ele>
        <time>2011-09-01T16:18:36Z</time>
      </trkpt>
      <trkpt lat="47.44624" lon="-0.59592">
        <ele>7</ele>
        <time>2011-09-01T16:18:37Z</time>
      </trkpt>
      <trkpt lat="47.4462" lon="-0.59594">
        <ele>7</ele>
        <time>2011-09-01T16:18:38Z</time>
      </trkpt>
      <trkpt lat="47.44616" lon="-0.59596">
        <ele>7</ele>
        <time>2011-09-01T16:18:39Z</time>
      </trkpt>
      <trkpt lat="47.44611" lon="-0.59598">
        <ele>7</ele>
        <time>2011-09-01T16:18:40Z</time>
      </trkpt>
      <trkpt lat="47.44608" lon="-0.59601">
        <ele>7</ele>
        <time>2011-09-01T16:18:41Z</time>
      </trkpt>
      <trkpt lat="47.44603" lon="-0.59602">
        <ele>7</ele>
        <time>2011-09-01T16:18:42Z</time>
      </trkpt>
      <trkpt lat="47.44599" lon="-0.59605">
        <ele>7</ele>
        <time>2011-09-01T16:18:43Z</time>
      </trkpt>
      <trkpt lat="47.44595" lon="-0.59607">
        <ele>7</ele>
        <time>2011-09-01T16:18:44Z</time>
      </trkpt>
      <trkpt lat="47.44591" lon="-0.5961">
        <ele>7</ele>
        <time>2011-09-01T16:18:45Z</time>
      </trkpt>
      <trkpt lat="47.44588" lon="-0.59612">
        <ele>7</ele>
        <time>2011-09-01T16:18:46Z</time>
      </trkpt>
      <trkpt lat="47.44585" lon="-0.59614">
        <ele>7</ele>
        <time>2011-09-01T16:18:47Z</time>
      </trkpt>
      <trkpt lat="47.44582" lon="-0.59617">
        <ele>7</ele>
        <time>2011-09-01T16:18:48Z</time>
      </trkpt>
      <trkpt lat="47.44579" lon="-0.59618">
        <ele>7</ele>
        <time>2011-09-01T16:18:49Z</time>
      </trkpt>
      <trkpt lat="47.44576" lon="-0.5962">
        <ele>7</ele>
        <time>2011-09-01T16:18:50Z</time>
      </trkpt>
      <trkpt lat="47.44573" lon="-0.59622">
        <ele>8</ele>
        <time>2011-09-01T16:18:51Z</time>
      </trkpt>
      <trkpt lat="47.4457" lon="-0.59624">
        <ele>8</ele>
        <time>2011-09-01T16:18:52Z</time>
      </trkpt>
      <trkpt lat="47.44567" lon="-0.59626">
        <ele>8</ele>
        <time>2011-09-01T16:18:53Z</time>
      </trkpt>
      <trkpt lat="47.44564" lon="-0.59628">
        <ele>8</ele>
        <time>2011-09-01T16:18:54Z</time>
      </trkpt>
      <trkpt lat="47.4456" lon="-0.59629">
        <ele>8</ele>
        <time>2011-09-01T16:18:55Z</time>
      </trkpt>
      <trkpt lat="47.44557" lon="-0.59631">
        <ele>8</ele>
        <time>2011-09-01T16:18:56Z</time>
      </trkpt>
      <trkpt lat="47.44554" lon="-0.59633">
        <ele>8</ele>
        <time>2011-09-01T16:18:57Z</time>
      </trkpt>
      <trkpt lat="47.44551" lon="-0.59635">
        <ele>8</ele>
        <time>2011-09-01T16:18:58Z</time>
      </trkpt>
      <trkpt lat="47.44548" lon="-0.59638">
        <ele>9</ele>
        <time>2011-09-01T16:18:59Z</time>
      </trkpt>
      <trkpt lat="47.44545" lon="-0.59641">
        <ele>9</ele>
        <time>2011-09-01T16:19:00Z</time>
      </trkpt>
      <trkpt lat="47.44542" lon="-0.59643">
        <ele>9</ele>
        <time>2011-09-01T16:19:01Z</time>
      </trkpt>
      <trkpt lat="47.4454" lon="-0.59646">
        <ele>9</ele>
        <time>2011-09-01T16:19:02Z</time>
      </trkpt>
      <trkpt lat="47.44536" lon="-0.59649">
        <ele>9</ele>
        <time>2011-09-01T16:19:03Z</time>
      </trkpt>
      <trkpt lat="47.44533" lon="-0.59651">
        <ele>9</ele>
        <time>2011-09-01T16:19:04Z</time>
      </trkpt>
      <trkpt lat="47.44531" lon="-0.59654">
        <ele>9</ele>
        <time>2011-09-01T16:19:05Z</time>
      </trkpt>
      <trkpt lat="47.44527" lon="-0.59657">
        <ele>9</ele>
        <time>2011-09-01T16:19:06Z</time>
      </trkpt>
      <trkpt lat="47.44524" lon="-0.59659">
        <ele>9</ele>
        <time>2011-09-01T16:19:07Z</time>
      </trkpt>
      <trkpt lat="47.44522" lon="-0.59662">
        <ele>9</ele>
        <time>2011-09-01T16:19:08Z</time>
      </trkpt>
      <trkpt lat="47.44519" lon="-0.59664">
        <ele>9</ele>
        <time>2011-09-01T16:19:09Z</time>
      </trkpt>
      <trkpt lat="47.44516" lon="-0.59667">
        <ele>9</ele>
        <time>2011-09-01T16:19:10Z</time>
      </trkpt>
      <trkpt lat="47.44513" lon="-0.59669">
        <ele>9</ele>
        <time>2011-09-01T16:19:11Z</time>
      </trkpt>
      <trkpt lat="47.4451" lon="-0.59672">
        <ele>9</ele>
        <time>2011-09-01T16:19:12Z</time>
      </trkpt>
      <trkpt lat="47.44506" lon="-0.59675">
        <ele>9</ele>
        <time>2011-09-01T16:19:13Z</time>
      </trkpt>
      <trkpt lat="47.44503" lon="-0.59677">
        <ele>9</ele>
        <time>2011-09-01T16:19:14Z</time>
      </trkpt>
      <trkpt lat="47.445" lon="-0.5968">
        <ele>9</ele>
        <time>2011-09-01T16:19:15Z</time>
      </trkpt>
      <trkpt lat="47.44496" lon="-0.59683">
        <ele>9</ele>
        <time>2011-09-01T16:19:16Z</time>
      </trkpt>
      <trkpt lat="47.44493" lon="-0.59685">
        <ele>9</ele>
        <time>2011-09-01T16:19:17Z</time>
      </trkpt>
      <trkpt lat="47.4449" lon="-0.59687">
        <ele>9</ele>
        <time>2011-09-01T16:19:18Z</time>
      </trkpt>
      <trkpt lat="47.44487" lon="-0.59689">
        <ele>9</ele>
        <time>2011-09-01T16:19:19Z</time>
      </trkpt>
      <trkpt lat="47.44484" lon="-0.59691">
        <ele>9</ele>
        <time>2011-09-01T16:19:20Z</time>
      </trkpt>
      <trkpt lat="47.44481" lon="-0.59694">
        <ele>9</ele>
        <time>2011-09-01T16:19:21Z</time>
      </trkpt>
      <trkpt lat="47.44477" lon="-0.59697">
        <ele>9</ele>
        <time>2011-09-01T16:19:22Z</time>
      </trkpt>
      <trkpt lat="47.44475" lon="-0.59698">
        <ele>9</ele>
        <time>2011-09-01T16:19:23Z</time>
      </trkpt>
      <trkpt lat="47.44472" lon="-0.597">
        <ele>9</ele>
        <time>2011-09-01T16:19:24Z</time>
      </trkpt>
      <trkpt lat="47.44468" lon="-0.59703">
        <ele>9</ele>
        <time>2011-09-01T16:19:25Z</time>
      </trkpt>
      <trkpt lat="47.44465" lon="-0.59707">
        <ele>9</ele>
        <time>2011-09-01T16:19:26Z</time>
      </trkpt>
      <trkpt lat="47.44462" lon="-0.59708">
        <ele>9</ele>
        <time>2011-09-01T16:19:27Z</time>
      </trkpt>
      <trkpt lat="47.44459" lon="-0.59709">
        <ele>9</ele>
        <time>2011-09-01T16:19:28Z</time>
      </trkpt>
      <trkpt lat="47.44456" lon="-0.59709">
        <ele>10</ele>
        <time>2011-09-01T16:19:29Z</time>
      </trkpt>
      <trkpt lat="47.44453" lon="-0.59711">
        <ele>10</ele>
        <time>2011-09-01T16:19:30Z</time>
      </trkpt>
      <trkpt lat="47.4445" lon="-0.59715">
        <ele>11</ele>
        <time>2011-09-01T16:19:31Z</time>
      </trkpt>
      <trkpt lat="47.44447" lon="-0.59717">
        <ele>11</ele>
        <time>2011-09-01T16:19:32Z</time>
      </trkpt>
      <trkpt lat="47.44445" lon="-0.5972">
        <ele>11</ele>
        <time>2011-09-01T16:19:33Z</time>
      </trkpt>
      <trkpt lat="47.44443" lon="-0.59723">
        <ele>11</ele>
        <time>2011-09-01T16:19:34Z</time>
      </trkpt>
      <trkpt lat="47.44441" lon="-0.59726">
        <ele>11</ele>
        <time>2011-09-01T16:19:35Z</time>
      </trkpt>
      <trkpt lat="47.44438" lon="-0.59729">
        <ele>11</ele>
        <time>2011-09-01T16:19:36Z</time>
      </trkpt>
      <trkpt lat="47.44435" lon="-0.5973">
        <ele>11</ele>
        <time>2011-09-01T16:19:37Z</time>
      </trkpt>
      <trkpt lat="47.44433" lon="-0.59732">
        <ele>11</ele>
        <time>2011-09-01T16:19:38Z</time>
      </trkpt>
      <trkpt lat="47.44431" lon="-0.59734">
        <ele>11</ele>
        <time>2011-09-01T16:19:39Z</time>
      </trkpt>
      <trkpt lat="47.44429" lon="-0.59736">
        <ele>11</ele>
        <time>2011-09-01T16:19:40Z</time>
      </trkpt>
      <trkpt lat="47.44427" lon="-0.59738">
        <ele>11</ele>
        <time>2011-09-01T16:19:41Z</time>
      </trkpt>
      <trkpt lat="47.44424" lon="-0.59739">
        <ele>11</ele>
        <time>2011-09-01T16:19:42Z</time>
      </trkpt>
      <trkpt lat="47.44421" lon="-0.59741">
        <ele>11</ele>
        <time>2011-09-01T16:19:43Z</time>
      </trkpt>
      <trkpt lat="47.44419" lon="-0.59743">
        <ele>11</ele>
        <time>2011-09-01T16:19:44Z</time>
      </trkpt>
      <trkpt lat="47.44416" lon="-0.59745">
        <ele>11</ele>
        <time>2011-09-01T16:19:45Z</time>
      </trkpt>
      <trkpt lat="47.44414" lon="-0.59747">
        <ele>11</ele>
        <time>2011-09-01T16:19:46Z</time>
      </trkpt>
      <trkpt lat="47.44411" lon="-0.5975">
        <ele>11</ele>
        <time>2011-09-01T16:19:47Z</time>
      </trkpt>
      <trkpt lat="47.44408" lon="-0.59752">
        <ele>11</ele>
        <time>2011-09-01T16:19:48Z</time>
      </trkpt>
      <trkpt lat="47.44406" lon="-0.59754">
        <ele>11</ele>
        <time>2011-09-01T16:19:49Z</time>
      </trkpt>
      <trkpt lat="47.44403" lon="-0.59757">
        <ele>11</ele>
        <time>2011-09-01T16:19:50Z</time>
      </trkpt>
      <trkpt lat="47.444" lon="-0.5976">
        <ele>11</ele>
        <time>2011-09-01T16:19:51Z</time>
      </trkpt>
      <trkpt lat="47.44398" lon="-0.59763">
        <ele>11</ele>
        <time>2011-09-01T16:19:52Z</time>
      </trkpt>
      <trkpt lat="47.44396" lon="-0.59765">
        <ele>11</ele>
        <time>2011-09-01T16:19:53Z</time>
      </trkpt>
      <trkpt lat="47.44392" lon="-0.59767">
        <ele>11</ele>
        <time>2011-09-01T16:19:54Z</time>
      </trkpt>
      <trkpt lat="47.4439" lon="-0.59768">
        <ele>11</ele>
        <time>2011-09-01T16:19:55Z</time>
      </trkpt>
      <trkpt lat="47.44387" lon="-0.59771">
        <ele>11</ele>
        <time>2011-09-01T16:19:56Z</time>
      </trkpt>
      <trkpt lat="47.44384" lon="-0.59773">
        <ele>11</ele>
        <time>2011-09-01T16:19:57Z</time>
      </trkpt>
      <trkpt lat="47.44382" lon="-0.59775">
        <ele>11</ele>
        <time>2011-09-01T16:19:58Z</time>
      </trkpt>
      <trkpt lat="47.4438" lon="-0.59778">
        <ele>11</ele>
        <time>2011-09-01T16:19:59Z</time>
      </trkpt>
      <trkpt lat="47.44377" lon="-0.59781">
        <ele>11</ele>
        <time>2011-09-01T16:20:00Z</time>
      </trkpt>
      <trkpt lat="47.44373" lon="-0.59784">
        <ele>11</ele>
        <time>2011-09-01T16:20:01Z</time>
      </trkpt>
      <trkpt lat="47.44371" lon="-0.59787">
        <ele>10</ele>
        <time>2011-09-01T16:20:02Z</time>
      </trkpt>
      <trkpt lat="47.44368" lon="-0.5979">
        <ele>10</ele>
        <time>2011-09-01T16:20:03Z</time>
      </trkpt>
      <trkpt lat="47.44365" lon="-0.59792">
        <ele>9</ele>
        <time>2011-09-01T16:20:04Z</time>
      </trkpt>
      <trkpt lat="47.44362" lon="-0.59794">
        <ele>9</ele>
        <time>2011-09-01T16:20:05Z</time>
      </trkpt>
      <trkpt lat="47.44359" lon="-0.59796">
        <ele>9</ele>
        <time>2011-09-01T16:20:06Z</time>
      </trkpt>
      <trkpt lat="47.44356" lon="-0.59799">
        <ele>9</ele>
        <time>2011-09-01T16:20:07Z</time>
      </trkpt>
      <trkpt lat="47.44352" lon="-0.59802">
        <ele>9</ele>
        <time>2011-09-01T16:20:08Z</time>
      </trkpt>
      <trkpt lat="47.44349" lon="-0.59804">
        <ele>9</ele>
        <time>2011-09-01T16:20:09Z</time>
      </trkpt>
      <trkpt lat="47.44346" lon="-0.59807">
        <ele>9</ele>
        <time>2011-09-01T16:20:10Z</time>
      </trkpt>
      <trkpt lat="47.44344" lon="-0.5981">
        <ele>9</ele>
        <time>2011-09-01T16:20:11Z</time>
      </trkpt>
      <trkpt lat="47.44341" lon="-0.59812">
        <ele>9</ele>
        <time>2011-09-01T16:20:12Z</time>
      </trkpt>
      <trkpt lat="47.44339" lon="-0.59815">
        <ele>9</ele>
        <time>2011-09-01T16:20:13Z</time>
      </trkpt>
      <trkpt lat="47.44335" lon="-0.59818">
        <ele>9</ele>
        <time>2011-09-01T16:20:14Z</time>
      </trkpt>
      <trkpt lat="47.44332" lon="-0.59821">
        <ele>9</ele>
        <time>2011-09-01T16:20:15Z</time>
      </trkpt>
      <trkpt lat="47.44329" lon="-0.59824">
        <ele>9</ele>
        <time>2011-09-01T16:20:16Z</time>
      </trkpt>
      <trkpt lat="47.44326" lon="-0.59827">
        <ele>9</ele>
        <time>2011-09-01T16:20:17Z</time>
      </trkpt>
      <trkpt lat="47.44323" lon="-0.59831">
        <ele>9</ele>
        <time>2011-09-01T16:20:18Z</time>
      </trkpt>
      <trkpt lat="47.4432" lon="-0.59834">
        <ele>9</ele>
        <time>2011-09-01T16:20:19Z</time>
      </trkpt>
      <trkpt lat="47.44317" lon="-0.59837">
        <ele>9</ele>
        <time>2011-09-01T16:20:20Z</time>
      </trkpt>
      <trkpt lat="47.44314" lon="-0.59839">
        <ele>9</ele>
        <time>2011-09-01T16:20:21Z</time>
      </trkpt>
      <trkpt lat="47.44311" lon="-0.59842">
        <ele>9</ele>
        <time>2011-09-01T16:20:22Z</time>
      </trkpt>
      <trkpt lat="47.44308" lon="-0.59846">
        <ele>9</ele>
        <time>2011-09-01T16:20:23Z</time>
      </trkpt>
      <trkpt lat="47.44305" lon="-0.59848">
        <ele>9</ele>
        <time>2011-09-01T16:20:24Z</time>
      </trkpt>
      <trkpt lat="47.44303" lon="-0.59852">
        <ele>9</ele>
        <time>2011-09-01T16:20:25Z</time>
      </trkpt>
      <trkpt lat="47.44299" lon="-0.59855">
        <ele>9</ele>
        <time>2011-09-01T16:20:26Z</time>
      </trkpt>
      <trkpt lat="47.44296" lon="-0.59857">
        <ele>9</ele>
        <time>2011-09-01T16:20:27Z</time>
      </trkpt>
      <trkpt lat="47.44292" lon="-0.5986">
        <ele>9</ele>
        <time>2011-09-01T16:20:28Z</time>
      </trkpt>
      <trkpt lat="47.44289" lon="-0.59863">
        <ele>9</ele>
        <time>2011-09-01T16:20:29Z</time>
      </trkpt>
      <trkpt lat="47.44286" lon="-0.59866">
        <ele>9</ele>
        <time>2011-09-01T16:20:30Z</time>
      </trkpt>
      <trkpt lat="47.44283" lon="-0.59869">
        <ele>9</ele>
        <time>2011-09-01T16:20:31Z</time>
      </trkpt>
      <trkpt lat="47.4428" lon="-0.59872">
        <ele>9</ele>
        <time>2011-09-01T16:20:32Z</time>
      </trkpt>
      <trkpt lat="47.44278" lon="-0.59875">
        <ele>9</ele>
        <time>2011-09-01T16:20:33Z</time>
      </trkpt>
      <trkpt lat="47.44274" lon="-0.59878">
        <ele>9</ele>
        <time>2011-09-01T16:20:34Z</time>
      </trkpt>
      <trkpt lat="47.44272" lon="-0.59881">
        <ele>9</ele>
        <time>2011-09-01T16:20:35Z</time>
      </trkpt>
      <trkpt lat="47.44269" lon="-0.59883">
        <ele>9</ele>
        <time>2011-09-01T16:20:36Z</time>
      </trkpt>
      <trkpt lat="47.44267" lon="-0.59886">
        <ele>9</ele>
        <time>2011-09-01T16:20:37Z</time>
      </trkpt>
      <trkpt lat="47.44264" lon="-0.59888">
        <ele>9</ele>
        <time>2011-09-01T16:20:38Z</time>
      </trkpt>
      <trkpt lat="47.44262" lon="-0.5989">
        <ele>9</ele>
        <time>2011-09-01T16:20:39Z</time>
      </trkpt>
      <trkpt lat="47.44259" lon="-0.59893">
        <ele>9</ele>
        <time>2011-09-01T16:20:40Z</time>
      </trkpt>
      <trkpt lat="47.44256" lon="-0.59896">
        <ele>9</ele>
        <time>2011-09-01T16:20:41Z</time>
      </trkpt>
      <trkpt lat="47.44252" lon="-0.59899">
        <ele>9</ele>
        <time>2011-09-01T16:20:42Z</time>
      </trkpt>
      <trkpt lat="47.44249" lon="-0.59902">
        <ele>9</ele>
        <time>2011-09-01T16:20:43Z</time>
      </trkpt>
      <trkpt lat="47.44246" lon="-0.59905">
        <ele>9</ele>
        <time>2011-09-01T16:20:44Z</time>
      </trkpt>
      <trkpt lat="47.44242" lon="-0.59908">
        <ele>9</ele>
        <time>2011-09-01T16:20:45Z</time>
      </trkpt>
      <trkpt lat="47.44238" lon="-0.59912">
        <ele>9</ele>
        <time>2011-09-01T16:20:46Z</time>
      </trkpt>
      <trkpt lat="47.44234" lon="-0.59916">
        <ele>9</ele>
        <time>2011-09-01T16:20:47Z</time>
      </trkpt>
      <trkpt lat="47.44231" lon="-0.59919">
        <ele>9</ele>
        <time>2011-09-01T16:20:48Z</time>
      </trkpt>
      <trkpt lat="47.44227" lon="-0.59923">
        <ele>9</ele>
        <time>2011-09-01T16:20:49Z</time>
      </trkpt>
      <trkpt lat="47.44223" lon="-0.59926">
        <ele>9</ele>
        <time>2011-09-01T16:20:50Z</time>
      </trkpt>
      <trkpt lat="47.44219" lon="-0.5993">
        <ele>9</ele>
        <time>2011-09-01T16:20:51Z</time>
      </trkpt>
      <trkpt lat="47.44215" lon="-0.59933">
        <ele>9</ele>
        <time>2011-09-01T16:20:52Z</time>
      </trkpt>
      <trkpt lat="47.44212" lon="-0.59936">
        <ele>9</ele>
        <time>2011-09-01T16:20:53Z</time>
      </trkpt>
      <trkpt lat="47.44209" lon="-0.59939">
        <ele>9</ele>
        <time>2011-09-01T16:20:54Z</time>
      </trkpt>
      <trkpt lat="47.44206" lon="-0.59943">
        <ele>9</ele>
        <time>2011-09-01T16:20:55Z</time>
      </trkpt>
      <trkpt lat="47.44203" lon="-0.59945">
        <ele>9</ele>
        <time>2011-09-01T16:20:56Z</time>
      </trkpt>
      <trkpt lat="47.442" lon="-0.59949">
        <ele>9</ele>
        <time>2011-09-01T16:20:57Z</time>
      </trkpt>
      <trkpt lat="47.44197" lon="-0.59951">
        <ele>9</ele>
        <time>2011-09-01T16:20:58Z</time>
      </trkpt>
      <trkpt lat="47.44193" lon="-0.59955">
        <ele>9</ele>
        <time>2011-09-01T16:20:59Z</time>
      </trkpt>
      <trkpt lat="47.44189" lon="-0.59957">
        <ele>9</ele>
        <time>2011-09-01T16:21:00Z</time>
      </trkpt>
      <trkpt lat="47.44186" lon="-0.59959">
        <ele>9</ele>
        <time>2011-09-01T16:21:01Z</time>
      </trkpt>
      <trkpt lat="47.44182" lon="-0.59962">
        <ele>9</ele>
        <time>2011-09-01T16:21:02Z</time>
      </trkpt>
      <trkpt lat="47.44179" lon="-0.59965">
        <ele>9</ele>
        <time>2011-09-01T16:21:03Z</time>
      </trkpt>
      <trkpt lat="47.44176" lon="-0.59968">
        <ele>9</ele>
        <time>2011-09-01T16:21:04Z</time>
      </trkpt>
      <trkpt lat="47.44174" lon="-0.59971">
        <ele>9</ele>
        <time>2011-09-01T16:21:05Z</time>
      </trkpt>
      <trkpt lat="47.44171" lon="-0.59975">
        <ele>9</ele>
        <time>2011-09-01T16:21:06Z</time>
      </trkpt>
      <trkpt lat="47.44168" lon="-0.59979">
        <ele>9</ele>
        <time>2011-09-01T16:21:07Z</time>
      </trkpt>
      <trkpt lat="47.44165" lon="-0.59982">
        <ele>9</ele>
        <time>2011-09-01T16:21:08Z</time>
      </trkpt>
      <trkpt lat="47.44162" lon="-0.59984">
        <ele>9</ele>
        <time>2011-09-01T16:21:09Z</time>
      </trkpt>
      <trkpt lat="47.44159" lon="-0.59987">
        <ele>9</ele>
        <time>2011-09-01T16:21:10Z</time>
      </trkpt>
      <trkpt lat="47.44156" lon="-0.5999">
        <ele>9</ele>
        <time>2011-09-01T16:21:11Z</time>
      </trkpt>
      <trkpt lat="47.44153" lon="-0.59993">
        <ele>9</ele>
        <time>2011-09-01T16:21:12Z</time>
      </trkpt>
      <trkpt lat="47.44151" lon="-0.59997">
        <ele>9</ele>
        <time>2011-09-01T16:21:13Z</time>
      </trkpt>
      <trkpt lat="47.44148" lon="-0.59999">
        <ele>9</ele>
        <time>2011-09-01T16:21:14Z</time>
      </trkpt>
      <trkpt lat="47.44146" lon="-0.60002">
        <ele>9</ele>
        <time>2011-09-01T16:21:15Z</time>
      </trkpt>
      <trkpt lat="47.44143" lon="-0.60005">
        <ele>9</ele>
        <time>2011-09-01T16:21:16Z</time>
      </trkpt>
      <trkpt lat="47.44141" lon="-0.60008">
        <ele>9</ele>
        <time>2011-09-01T16:21:17Z</time>
      </trkpt>
      <trkpt lat="47.44138" lon="-0.6001">
        <ele>9</ele>
        <time>2011-09-01T16:21:18Z</time>
      </trkpt>
      <trkpt lat="47.44135" lon="-0.60014">
        <ele>9</ele>
        <time>2011-09-01T16:21:19Z</time>
      </trkpt>
      <trkpt lat="47.44131" lon="-0.60017">
        <ele>9</ele>
        <time>2011-09-01T16:21:20Z</time>
      </trkpt>
      <trkpt lat="47.44128" lon="-0.6002">
        <ele>9</ele>
        <time>2011-09-01T16:21:21Z</time>
      </trkpt>
      <trkpt lat="47.44125" lon="-0.60022">
        <ele>9</ele>
        <time>2011-09-01T16:21:22Z</time>
      </trkpt>
      <trkpt lat="47.44123" lon="-0.60024">
        <ele>9</ele>
        <time>2011-09-01T16:21:23Z</time>
      </trkpt>
      <trkpt lat="47.4412" lon="-0.60026">
        <ele>9</ele>
        <time>2011-09-01T16:21:24Z</time>
      </trkpt>
      <trkpt lat="47.44117" lon="-0.60029">
        <ele>9</ele>
        <time>2011-09-01T16:21:25Z</time>
      </trkpt>
      <trkpt lat="47.44114" lon="-0.60032">
        <ele>9</ele>
        <time>2011-09-01T16:21:26Z</time>
      </trkpt>
      <trkpt lat="47.44111" lon="-0.60035">
        <ele>9</ele>
        <time>2011-09-01T16:21:27Z</time>
      </trkpt>
      <trkpt lat="47.44108" lon="-0.60038">
        <ele>9</ele>
        <time>2011-09-01T16:21:28Z</time>
      </trkpt>
      <trkpt lat="47.44105" lon="-0.60042">
        <ele>9</ele>
        <time>2011-09-01T16:21:29Z</time>
      </trkpt>
      <trkpt lat="47.44102" lon="-0.60044">
        <ele>9</ele>
        <time>2011-09-01T16:21:30Z</time>
      </trkpt>
      <trkpt lat="47.44099" lon="-0.60048">
        <ele>8</ele>
        <time>2011-09-01T16:21:31Z</time>
      </trkpt>
      <trkpt lat="47.44096" lon="-0.60051">
        <ele>8</ele>
        <time>2011-09-01T16:21:32Z</time>
      </trkpt>
      <trkpt lat="47.44093" lon="-0.60053">
        <ele>8</ele>
        <time>2011-09-01T16:21:33Z</time>
      </trkpt>
      <trkpt lat="47.4409" lon="-0.60057">
        <ele>8</ele>
        <time>2011-09-01T16:21:34Z</time>
      </trkpt>
      <trkpt lat="47.44087" lon="-0.6006">
        <ele>8</ele>
        <time>2011-09-01T16:21:35Z</time>
      </trkpt>
      <trkpt lat="47.44083" lon="-0.60063">
        <ele>8</ele>
        <time>2011-09-01T16:21:36Z</time>
      </trkpt>
      <trkpt lat="47.4408" lon="-0.60066">
        <ele>8</ele>
        <time>2011-09-01T16:21:37Z</time>
      </trkpt>
      <trkpt lat="47.44077" lon="-0.60068">
        <ele>8</ele>
        <time>2011-09-01T16:21:38Z</time>
      </trkpt>
      <trkpt lat="47.44074" lon="-0.60071">
        <ele>8</ele>
        <time>2011-09-01T16:21:39Z</time>
      </trkpt>
      <trkpt lat="47.44071" lon="-0.60075">
        <ele>8</ele>
        <time>2011-09-01T16:21:40Z</time>
      </trkpt>
      <trkpt lat="47.44068" lon="-0.60078">
        <ele>8</ele>
        <time>2011-09-01T16:21:41Z</time>
      </trkpt>
      <trkpt lat="47.44065" lon="-0.6008">
        <ele>8</ele>
        <time>2011-09-01T16:21:42Z</time>
      </trkpt>
      <trkpt lat="47.44062" lon="-0.60084">
        <ele>8</ele>
        <time>2011-09-01T16:21:43Z</time>
      </trkpt>
      <trkpt lat="47.44059" lon="-0.60086">
        <ele>8</ele>
        <time>2011-09-01T16:21:44Z</time>
      </trkpt>
      <trkpt lat="47.44056" lon="-0.60088">
        <ele>8</ele>
        <time>2011-09-01T16:21:45Z</time>
      </trkpt>
      <trkpt lat="47.44052" lon="-0.60091">
        <ele>8</ele>
        <time>2011-09-01T16:21:46Z</time>
      </trkpt>
      <trkpt lat="47.4405" lon="-0.60094">
        <ele>8</ele>
        <time>2011-09-01T16:21:47Z</time>
      </trkpt>
      <trkpt lat="47.44047" lon="-0.60096">
        <ele>8</ele>
        <time>2011-09-01T16:21:48Z</time>
      </trkpt>
      <trkpt lat="47.44045" lon="-0.60098">
        <ele>8</ele>
        <time>2011-09-01T16:21:49Z</time>
      </trkpt>
      <trkpt lat="47.44042" lon="-0.601">
        <ele>8</ele>
        <time>2011-09-01T16:21:50Z</time>
      </trkpt>
      <trkpt lat="47.4404" lon="-0.60102">
        <ele>8</ele>
        <time>2011-09-01T16:21:51Z</time>
      </trkpt>
      <trkpt lat="47.44037" lon="-0.60104">
        <ele>8</ele>
        <time>2011-09-01T16:21:52Z</time>
      </trkpt>
      <trkpt lat="47.44034" lon="-0.60106">
        <ele>8</ele>
        <time>2011-09-01T16:21:53Z</time>
      </trkpt>
      <trkpt lat="47.4403" lon="-0.60109">
        <ele>8</ele>
        <time>2011-09-01T16:21:54Z</time>
      </trkpt>
      <trkpt lat="47.44027" lon="-0.60112">
        <ele>8</ele>
        <time>2011-09-01T16:21:55Z</time>
      </trkpt>
      <trkpt lat="47.44024" lon="-0.60115">
        <ele>8</ele>
        <time>2011-09-01T16:21:56Z</time>
      </trkpt>
      <trkpt lat="47.44021" lon="-0.60118">
        <ele>8</ele>
        <time>2011-09-01T16:21:57Z</time>
      </trkpt>
      <trkpt lat="47.44018" lon="-0.60121">
        <ele>8</ele>
        <time>2011-09-01T16:21:58Z</time>
      </trkpt>
      <trkpt lat="47.44015" lon="-0.60124">
        <ele>8</ele>
        <time>2011-09-01T16:21:59Z</time>
      </trkpt>
      <trkpt lat="47.44012" lon="-0.60127">
        <ele>8</ele>
        <time>2011-09-01T16:22:00Z</time>
      </trkpt>
      <trkpt lat="47.44009" lon="-0.60129">
        <ele>8</ele>
        <time>2011-09-01T16:22:01Z</time>
      </trkpt>
      <trkpt lat="47.44006" lon="-0.60132">
        <ele>8</ele>
        <time>2011-09-01T16:22:02Z</time>
      </trkpt>
      <trkpt lat="47.44003" lon="-0.60135">
        <ele>8</ele>
        <time>2011-09-01T16:22:03Z</time>
      </trkpt>
      <trkpt lat="47.43999" lon="-0.60137">
        <ele>8</ele>
        <time>2011-09-01T16:22:04Z</time>
      </trkpt>
      <trkpt lat="47.43997" lon="-0.6014">
        <ele>8</ele>
        <time>2011-09-01T16:22:05Z</time>
      </trkpt>
      <trkpt lat="47.43993" lon="-0.60142">
        <ele>8</ele>
        <time>2011-09-01T16:22:06Z</time>
      </trkpt>
      <trkpt lat="47.4399" lon="-0.60145">
        <ele>8</ele>
        <time>2011-09-01T16:22:07Z</time>
      </trkpt>
      <trkpt lat="47.43987" lon="-0.60148">
        <ele>8</ele>
        <time>2011-09-01T16:22:08Z</time>
      </trkpt>
      <trkpt lat="47.43984" lon="-0.6015">
        <ele>8</ele>
        <time>2011-09-01T16:22:09Z</time>
      </trkpt>
      <trkpt lat="47.43981" lon="-0.60153">
        <ele>8</ele>
        <time>2011-09-01T16:22:10Z</time>
      </trkpt>
      <trkpt lat="47.43978" lon="-0.60155">
        <ele>8</ele>
        <time>2011-09-01T16:22:11Z</time>
      </trkpt>
      <trkpt lat="47.43975" lon="-0.60158">
        <ele>8</ele>
        <time>2011-09-01T16:22:12Z</time>
      </trkpt>
      <trkpt lat="47.43971" lon="-0.60161">
        <ele>8</ele>
        <time>2011-09-01T16:22:13Z</time>
      </trkpt>
      <trkpt lat="47.43968" lon="-0.60164">
        <ele>8</ele>
        <time>2011-09-01T16:22:14Z</time>
      </trkpt>
      <trkpt lat="47.43965" lon="-0.60166">
        <ele>8</ele>
        <time>2011-09-01T16:22:15Z</time>
      </trkpt>
      <trkpt lat="47.43962" lon="-0.60168">
        <ele>8</ele>
        <time>2011-09-01T16:22:16Z</time>
      </trkpt>
      <trkpt lat="47.43959" lon="-0.60171">
        <ele>8</ele>
        <time>2011-09-01T16:22:17Z</time>
      </trkpt>
      <trkpt lat="47.43956" lon="-0.60173">
        <ele>8</ele>
        <time>2011-09-01T16:22:18Z</time>
      </trkpt>
      <trkpt lat="47.43953" lon="-0.60176">
        <ele>8</ele>
        <time>2011-09-01T16:22:19Z</time>
      </trkpt>
      <trkpt lat="47.43949" lon="-0.60179">
        <ele>8</ele>
        <time>2011-09-01T16:22:20Z</time>
      </trkpt>
      <trkpt lat="47.43946" lon="-0.60182">
        <ele>8</ele>
        <time>2011-09-01T16:22:21Z</time>
      </trkpt>
      <trkpt lat="47.43943" lon="-0.60185">
        <ele>8</ele>
        <time>2011-09-01T16:22:22Z</time>
      </trkpt>
      <trkpt lat="47.4394" lon="-0.60187">
        <ele>8</ele>
        <time>2011-09-01T16:22:23Z</time>
      </trkpt>
      <trkpt lat="47.43937" lon="-0.60189">
        <ele>8</ele>
        <time>2011-09-01T16:22:24Z</time>
      </trkpt>
      <trkpt lat="47.43933" lon="-0.60192">
        <ele>8</ele>
        <time>2011-09-01T16:22:25Z</time>
      </trkpt>
      <trkpt lat="47.4393" lon="-0.60194">
        <ele>8</ele>
        <time>2011-09-01T16:22:26Z</time>
      </trkpt>
      <trkpt lat="47.43927" lon="-0.60196">
        <ele>8</ele>
        <time>2011-09-01T16:22:27Z</time>
      </trkpt>
      <trkpt lat="47.43924" lon="-0.60198">
        <ele>8</ele>
        <time>2011-09-01T16:22:28Z</time>
      </trkpt>
      <trkpt lat="47.43922" lon="-0.60201">
        <ele>8</ele>
        <time>2011-09-01T16:22:29Z</time>
      </trkpt>
      <trkpt lat="47.43919" lon="-0.60204">
        <ele>8</ele>
        <time>2011-09-01T16:22:30Z</time>
      </trkpt>
      <trkpt lat="47.43915" lon="-0.60207">
        <ele>8</ele>
        <time>2011-09-01T16:22:31Z</time>
      </trkpt>
      <trkpt lat="47.43912" lon="-0.6021">
        <ele>8</ele>
        <time>2011-09-01T16:22:32Z</time>
      </trkpt>
      <trkpt lat="47.43909" lon="-0.60212">
        <ele>8</ele>
        <time>2011-09-01T16:22:33Z</time>
      </trkpt>
      <trkpt lat="47.43905" lon="-0.60215">
        <ele>8</ele>
        <time>2011-09-01T16:22:34Z</time>
      </trkpt>
      <trkpt lat="47.43901" lon="-0.60216">
        <ele>8</ele>
        <time>2011-09-01T16:22:35Z</time>
      </trkpt>
      <trkpt lat="47.43898" lon="-0.60218">
        <ele>8</ele>
        <time>2011-09-01T16:22:36Z</time>
      </trkpt>
      <trkpt lat="47.43894" lon="-0.6022">
        <ele>8</ele>
        <time>2011-09-01T16:22:37Z</time>
      </trkpt>
      <trkpt lat="47.43891" lon="-0.60223">
        <ele>8</ele>
        <time>2011-09-01T16:22:38Z</time>
      </trkpt>
      <trkpt lat="47.43887" lon="-0.60225">
        <ele>8</ele>
        <time>2011-09-01T16:22:39Z</time>
      </trkpt>
      <trkpt lat="47.43884" lon="-0.60228">
        <ele>8</ele>
        <time>2011-09-01T16:22:40Z</time>
      </trkpt>
      <trkpt lat="47.4388" lon="-0.60231">
        <ele>8</ele>
        <time>2011-09-01T16:22:41Z</time>
      </trkpt>
      <trkpt lat="47.43877" lon="-0.60234">
        <ele>8</ele>
        <time>2011-09-01T16:22:42Z</time>
      </trkpt>
      <trkpt lat="47.43874" lon="-0.60237">
        <ele>8</ele>
        <time>2011-09-01T16:22:43Z</time>
      </trkpt>
      <trkpt lat="47.43871" lon="-0.60239">
        <ele>8</ele>
        <time>2011-09-01T16:22:44Z</time>
      </trkpt>
      <trkpt lat="47.43867" lon="-0.60241">
        <ele>8</ele>
        <time>2011-09-01T16:22:45Z</time>
      </trkpt>
      <trkpt lat="47.43864" lon="-0.60243">
        <ele>8</ele>
        <time>2011-09-01T16:22:46Z</time>
      </trkpt>
      <trkpt lat="47.43861" lon="-0.60245">
        <ele>8</ele>
        <time>2011-09-01T16:22:47Z</time>
      </trkpt>
      <trkpt lat="47.43858" lon="-0.60247">
        <ele>8</ele>
        <time>2011-09-01T16:22:48Z</time>
      </trkpt>
      <trkpt lat="47.43854" lon="-0.60249">
        <ele>8</ele>
        <time>2011-09-01T16:22:49Z</time>
      </trkpt>
      <trkpt lat="47.43851" lon="-0.60252">
        <ele>8</ele>
        <time>2011-09-01T16:22:50Z</time>
      </trkpt>
      <trkpt lat="47.43848" lon="-0.60254">
        <ele>8</ele>
        <time>2011-09-01T16:22:51Z</time>
      </trkpt>
      <trkpt lat="47.43845" lon="-0.60257">
        <ele>8</ele>
        <time>2011-09-01T16:22:52Z</time>
      </trkpt>
      <trkpt lat="47.43842" lon="-0.60259">
        <ele>8</ele>
        <time>2011-09-01T16:22:53Z</time>
      </trkpt>
      <trkpt lat="47.43838" lon="-0.60261">
        <ele>8</ele>
        <time>2011-09-01T16:22:54Z</time>
      </trkpt>
      <trkpt lat="47.43835" lon="-0.60264">
        <ele>8</ele>
        <time>2011-09-01T16:22:55Z</time>
      </trkpt>
      <trkpt lat="47.43832" lon="-0.60266">
        <ele>8</ele>
        <time>2011-09-01T16:22:56Z</time>
      </trkpt>
      <trkpt lat="47.43829" lon="-0.60268">
        <ele>8</ele>
        <time>2011-09-01T16:22:57Z</time>
      </trkpt>
      <trkpt lat="47.43827" lon="-0.6027">
        <ele>8</ele>
        <time>2011-09-01T16:22:58Z</time>
      </trkpt>
      <trkpt lat="47.43824" lon="-0.60273">
        <ele>8</ele>
        <time>2011-09-01T16:22:59Z</time>
      </trkpt>
      <trkpt lat="47.43821" lon="-0.60275">
        <ele>8</ele>
        <time>2011-09-01T16:23:00Z</time>
      </trkpt>
      <trkpt lat="47.43818" lon="-0.60277">
        <ele>8</ele>
        <time>2011-09-01T16:23:01Z</time>
      </trkpt>
      <trkpt lat="47.43815" lon="-0.60278">
        <ele>8</ele>
        <time>2011-09-01T16:23:02Z</time>
      </trkpt>
      <trkpt lat="47.43813" lon="-0.6028">
        <ele>8</ele>
        <time>2011-09-01T16:23:03Z</time>
      </trkpt>
      <trkpt lat="47.43809" lon="-0.60282">
        <ele>8</ele>
        <time>2011-09-01T16:23:04Z</time>
      </trkpt>
      <trkpt lat="47.43805" lon="-0.60285">
        <ele>8</ele>
        <time>2011-09-01T16:23:05Z</time>
      </trkpt>
      <trkpt lat="47.43802" lon="-0.60288">
        <ele>8</ele>
        <time>2011-09-01T16:23:06Z</time>
      </trkpt>
      <trkpt lat="47.43799" lon="-0.6029">
        <ele>8</ele>
        <time>2011-09-01T16:23:07Z</time>
      </trkpt>
      <trkpt lat="47.43796" lon="-0.60292">
        <ele>8</ele>
        <time>2011-09-01T16:23:08Z</time>
      </trkpt>
      <trkpt lat="47.43792" lon="-0.60295">
        <ele>8</ele>
        <time>2011-09-01T16:23:09Z</time>
      </trkpt>
      <trkpt lat="47.43789" lon="-0.60297">
        <ele>8</ele>
        <time>2011-09-01T16:23:10Z</time>
      </trkpt>
      <trkpt lat="47.43786" lon="-0.603">
        <ele>8</ele>
        <time>2011-09-01T16:23:11Z</time>
      </trkpt>
      <trkpt lat="47.43782" lon="-0.60303">
        <ele>8</ele>
        <time>2011-09-01T16:23:12Z</time>
      </trkpt>
      <trkpt lat="47.43779" lon="-0.60306">
        <ele>8</ele>
        <time>2011-09-01T16:23:13Z</time>
      </trkpt>
      <trkpt lat="47.43775" lon="-0.60309">
        <ele>8</ele>
        <time>2011-09-01T16:23:14Z</time>
      </trkpt>
      <trkpt lat="47.43772" lon="-0.60311">
        <ele>8</ele>
        <time>2011-09-01T16:23:15Z</time>
      </trkpt>
      <trkpt lat="47.43769" lon="-0.60313">
        <ele>8</ele>
        <time>2011-09-01T16:23:16Z</time>
      </trkpt>
      <trkpt lat="47.43766" lon="-0.60315">
        <ele>8</ele>
        <time>2011-09-01T16:23:17Z</time>
      </trkpt>
      <trkpt lat="47.43762" lon="-0.60317">
        <ele>8</ele>
        <time>2011-09-01T16:23:18Z</time>
      </trkpt>
      <trkpt lat="47.43759" lon="-0.60319">
        <ele>8</ele>
        <time>2011-09-01T16:23:19Z</time>
      </trkpt>
      <trkpt lat="47.43756" lon="-0.60322">
        <ele>8</ele>
        <time>2011-09-01T16:23:20Z</time>
      </trkpt>
      <trkpt lat="47.43753" lon="-0.60325">
        <ele>8</ele>
        <time>2011-09-01T16:23:21Z</time>
      </trkpt>
      <trkpt lat="47.4375" lon="-0.60327">
        <ele>8</ele>
        <time>2011-09-01T16:23:22Z</time>
      </trkpt>
      <trkpt lat="47.43747" lon="-0.6033">
        <ele>8</ele>
        <time>2011-09-01T16:23:23Z</time>
      </trkpt>
      <trkpt lat="47.43743" lon="-0.60333">
        <ele>8</ele>
        <time>2011-09-01T16:23:24Z</time>
      </trkpt>
      <trkpt lat="47.43739" lon="-0.60336">
        <ele>8</ele>
        <time>2011-09-01T16:23:25Z</time>
      </trkpt>
      <trkpt lat="47.43736" lon="-0.60339">
        <ele>9</ele>
        <time>2011-09-01T16:23:26Z</time>
      </trkpt>
      <trkpt lat="47.43732" lon="-0.60341">
        <ele>9</ele>
        <time>2011-09-01T16:23:27Z</time>
      </trkpt>
      <trkpt lat="47.43729" lon="-0.60344">
        <ele>9</ele>
        <time>2011-09-01T16:23:28Z</time>
      </trkpt>
      <trkpt lat="47.43725" lon="-0.60347">
        <ele>9</ele>
        <time>2011-09-01T16:23:29Z</time>
      </trkpt>
      <trkpt lat="47.43722" lon="-0.6035">
        <ele>9</ele>
        <time>2011-09-01T16:23:30Z</time>
      </trkpt>
      <trkpt lat="47.43718" lon="-0.60352">
        <ele>9</ele>
        <time>2011-09-01T16:23:31Z</time>
      </trkpt>
      <trkpt lat="47.43715" lon="-0.60355">
        <ele>9</ele>
        <time>2011-09-01T16:23:32Z</time>
      </trkpt>
      <trkpt lat="47.43711" lon="-0.60357">
        <ele>9</ele>
        <time>2011-09-01T16:23:33Z</time>
      </trkpt>
      <trkpt lat="47.43708" lon="-0.6036">
        <ele>9</ele>
        <time>2011-09-01T16:23:34Z</time>
      </trkpt>
      <trkpt lat="47.43705" lon="-0.60362">
        <ele>9</ele>
        <time>2011-09-01T16:23:35Z</time>
      </trkpt>
      <trkpt lat="47.43702" lon="-0.60364">
        <ele>9</ele>
        <time>2011-09-01T16:23:36Z</time>
      </trkpt>
      <trkpt lat="47.43699" lon="-0.60367">
        <ele>9</ele>
        <time>2011-09-01T16:23:37Z</time>
      </trkpt>
      <trkpt lat="47.43696" lon="-0.60369">
        <ele>9</ele>
        <time>2011-09-01T16:23:38Z</time>
      </trkpt>
      <trkpt lat="47.43693" lon="-0.60371">
        <ele>9</ele>
        <time>2011-09-01T16:23:39Z</time>
      </trkpt>
      <trkpt lat="47.4369" lon="-0.60373">
        <ele>9</ele>
        <time>2011-09-01T16:23:40Z</time>
      </trkpt>
      <trkpt lat="47.43686" lon="-0.60375">
        <ele>9</ele>
        <time>2011-09-01T16:23:41Z</time>
      </trkpt>
      <trkpt lat="47.43683" lon="-0.60378">
        <ele>9</ele>
        <time>2011-09-01T16:23:42Z</time>
      </trkpt>
      <trkpt lat="47.43679" lon="-0.60379">
        <ele>9</ele>
        <time>2011-09-01T16:23:43Z</time>
      </trkpt>
      <trkpt lat="47.43676" lon="-0.60382">
        <ele>9</ele>
        <time>2011-09-01T16:23:44Z</time>
      </trkpt>
      <trkpt lat="47.43672" lon="-0.60383">
        <ele>9</ele>
        <time>2011-09-01T16:23:45Z</time>
      </trkpt>
      <trkpt lat="47.43668" lon="-0.60385">
        <ele>9</ele>
        <time>2011-09-01T16:23:46Z</time>
      </trkpt>
      <trkpt lat="47.43665" lon="-0.60387">
        <ele>9</ele>
        <time>2011-09-01T16:23:47Z</time>
      </trkpt>
      <trkpt lat="47.43661" lon="-0.60389">
        <ele>9</ele>
        <time>2011-09-01T16:23:48Z</time>
      </trkpt>
      <trkpt lat="47.43657" lon="-0.60391">
        <ele>9</ele>
        <time>2011-09-01T16:23:49Z</time>
      </trkpt>
      <trkpt lat="47.43653" lon="-0.60392">
        <ele>9</ele>
        <time>2011-09-01T16:23:50Z</time>
      </trkpt>
      <trkpt lat="47.43649" lon="-0.60393">
        <ele>9</ele>
        <time>2011-09-01T16:23:51Z</time>
      </trkpt>
      <trkpt lat="47.43645" lon="-0.60393">
        <ele>9</ele>
        <time>2011-09-01T16:23:52Z</time>
      </trkpt>
      <trkpt lat="47.43641" lon="-0.60394">
        <ele>9</ele>
        <time>2011-09-01T16:23:53Z</time>
      </trkpt>
      <trkpt lat="47.43637" lon="-0.60395">
        <ele>9</ele>
        <time>2011-09-01T16:23:54Z</time>
      </trkpt>
      <trkpt lat="47.43634" lon="-0.60395">
        <ele>9</ele>
        <time>2011-09-01T16:23:55Z</time>
      </trkpt>
      <trkpt lat="47.4363" lon="-0.60395">
        <ele>9</ele>
        <time>2011-09-01T16:23:56Z</time>
      </trkpt>
      <trkpt lat="47.43626" lon="-0.60396">
        <ele>9</ele>
        <time>2011-09-01T16:23:57Z</time>
      </trkpt>
      <trkpt lat="47.43623" lon="-0.60396">
        <ele>9</ele>
        <time>2011-09-01T16:23:58Z</time>
      </trkpt>
      <trkpt lat="47.43619" lon="-0.60398">
        <ele>9</ele>
        <time>2011-09-01T16:23:59Z</time>
      </trkpt>
      <trkpt lat="47.43616" lon="-0.604">
        <ele>9</ele>
        <time>2011-09-01T16:24:00Z</time>
      </trkpt>
      <trkpt lat="47.43613" lon="-0.60401">
        <ele>9</ele>
        <time>2011-09-01T16:24:01Z</time>
      </trkpt>
      <trkpt lat="47.4361" lon="-0.60402">
        <ele>9</ele>
        <time>2011-09-01T16:24:02Z</time>
      </trkpt>
      <trkpt lat="47.43607" lon="-0.60405">
        <ele>9</ele>
        <time>2011-09-01T16:24:03Z</time>
      </trkpt>
      <trkpt lat="47.43604" lon="-0.60408">
        <ele>9</ele>
        <time>2011-09-01T16:24:04Z</time>
      </trkpt>
      <trkpt lat="47.436" lon="-0.6041">
        <ele>9</ele>
        <time>2011-09-01T16:24:05Z</time>
      </trkpt>
      <trkpt lat="47.43597" lon="-0.60412">
        <ele>10</ele>
        <time>2011-09-01T16:24:06Z</time>
      </trkpt>
      <trkpt lat="47.43594" lon="-0.60413">
        <ele>10</ele>
        <time>2011-09-01T16:24:07Z</time>
      </trkpt>
      <trkpt lat="47.43591" lon="-0.60416">
        <ele>10</ele>
        <time>2011-09-01T16:24:08Z</time>
      </trkpt>
      <trkpt lat="47.43588" lon="-0.60419">
        <ele>10</ele>
        <time>2011-09-01T16:24:09Z</time>
      </trkpt>
      <trkpt lat="47.43585" lon="-0.60422">
        <ele>10</ele>
        <time>2011-09-01T16:24:10Z</time>
      </trkpt>
      <trkpt lat="47.43582" lon="-0.60424">
        <ele>10</ele>
        <time>2011-09-01T16:24:11Z</time>
      </trkpt>
      <trkpt lat="47.43579" lon="-0.60426">
        <ele>10</ele>
        <time>2011-09-01T16:24:12Z</time>
      </trkpt>
      <trkpt lat="47.43576" lon="-0.60429">
        <ele>10</ele>
        <time>2011-09-01T16:24:13Z</time>
      </trkpt>
      <trkpt lat="47.43572" lon="-0.60432">
        <ele>10</ele>
        <time>2011-09-01T16:24:14Z</time>
      </trkpt>
      <trkpt lat="47.43569" lon="-0.60434">
        <ele>10</ele>
        <time>2011-09-01T16:24:15Z</time>
      </trkpt>
      <trkpt lat="47.43567" lon="-0.60435">
        <ele>10</ele>
        <time>2011-09-01T16:24:16Z</time>
      </trkpt>
      <trkpt lat="47.43564" lon="-0.60437">
        <ele>10</ele>
        <time>2011-09-01T16:24:17Z</time>
      </trkpt>
      <trkpt lat="47.43562" lon="-0.6044">
        <ele>10</ele>
        <time>2011-09-01T16:24:18Z</time>
      </trkpt>
      <trkpt lat="47.43559" lon="-0.60441">
        <ele>10</ele>
        <time>2011-09-01T16:24:19Z</time>
      </trkpt>
      <trkpt lat="47.43557" lon="-0.60443">
        <ele>11</ele>
        <time>2011-09-01T16:24:20Z</time>
      </trkpt>
      <trkpt lat="47.43555" lon="-0.60445">
        <ele>11</ele>
        <time>2011-09-01T16:24:21Z</time>
      </trkpt>
      <trkpt lat="47.43551" lon="-0.60447">
        <ele>12</ele>
        <time>2011-09-01T16:24:22Z</time>
      </trkpt>
      <trkpt lat="47.43549" lon="-0.60449">
        <ele>13</ele>
        <time>2011-09-01T16:24:23Z</time>
      </trkpt>
      <trkpt lat="47.43545" lon="-0.60451">
        <ele>14</ele>
        <time>2011-09-01T16:24:24Z</time>
      </trkpt>
      <trkpt lat="47.43542" lon="-0.60453">
        <ele>14</ele>
        <time>2011-09-01T16:24:25Z</time>
      </trkpt>
      <trkpt lat="47.43539" lon="-0.60455">
        <ele>15</ele>
        <time>2011-09-01T16:24:26Z</time>
      </trkpt>
      <trkpt lat="47.43536" lon="-0.60456">
        <ele>15</ele>
        <time>2011-09-01T16:24:27Z</time>
      </trkpt>
      <trkpt lat="47.43533" lon="-0.60457">
        <ele>16</ele>
        <time>2011-09-01T16:24:28Z</time>
      </trkpt>
      <trkpt lat="47.4353" lon="-0.60459">
        <ele>16</ele>
        <time>2011-09-01T16:24:29Z</time>
      </trkpt>
      <trkpt lat="47.43526" lon="-0.6046">
        <ele>16</ele>
        <time>2011-09-01T16:24:30Z</time>
      </trkpt>
      <trkpt lat="47.43523" lon="-0.60461">
        <ele>16</ele>
        <time>2011-09-01T16:24:31Z</time>
      </trkpt>
      <trkpt lat="47.4352" lon="-0.60462">
        <ele>16</ele>
        <time>2011-09-01T16:24:32Z</time>
      </trkpt>
      <trkpt lat="47.43517" lon="-0.60463">
        <ele>16</ele>
        <time>2011-09-01T16:24:33Z</time>
      </trkpt>
      <trkpt lat="47.43513" lon="-0.60464">
        <ele>16</ele>
        <time>2011-09-01T16:24:34Z</time>
      </trkpt>
      <trkpt lat="47.4351" lon="-0.60464">
        <ele>16</ele>
        <time>2011-09-01T16:24:35Z</time>
      </trkpt>
      <trkpt lat="47.43507" lon="-0.60465">
        <ele>16</ele>
        <time>2011-09-01T16:24:36Z</time>
      </trkpt>
      <trkpt lat="47.43504" lon="-0.60466">
        <ele>16</ele>
        <time>2011-09-01T16:24:37Z</time>
      </trkpt>
      <trkpt lat="47.43501" lon="-0.60467">
        <ele>16</ele>
        <time>2011-09-01T16:24:38Z</time>
      </trkpt>
      <trkpt lat="47.43497" lon="-0.60468">
        <ele>16</ele>
        <time>2011-09-01T16:24:39Z</time>
      </trkpt>
      <trkpt lat="47.43493" lon="-0.6047">
        <ele>16</ele>
        <time>2011-09-01T16:24:40Z</time>
      </trkpt>
      <trkpt lat="47.4349" lon="-0.60471">
        <ele>16</ele>
        <time>2011-09-01T16:24:41Z</time>
      </trkpt>
      <trkpt lat="47.43486" lon="-0.60473">
        <ele>16</ele>
        <time>2011-09-01T16:24:42Z</time>
      </trkpt>
      <trkpt lat="47.43483" lon="-0.60475">
        <ele>16</ele>
        <time>2011-09-01T16:24:43Z</time>
      </trkpt>
      <trkpt lat="47.43479" lon="-0.60478">
        <ele>16</ele>
        <time>2011-09-01T16:24:44Z</time>
      </trkpt>
      <trkpt lat="47.43476" lon="-0.6048">
        <ele>16</ele>
        <time>2011-09-01T16:24:45Z</time>
      </trkpt>
      <trkpt lat="47.43472" lon="-0.60482">
        <ele>16</ele>
        <time>2011-09-01T16:24:46Z</time>
      </trkpt>
      <trkpt lat="47.43468" lon="-0.60484">
        <ele>16</ele>
        <time>2011-09-01T16:24:47Z</time>
      </trkpt>
      <trkpt lat="47.43465" lon="-0.60486">
        <ele>16</ele>
        <time>2011-09-01T16:24:48Z</time>
      </trkpt>
      <trkpt lat="47.43461" lon="-0.60489">
        <ele>16</ele>
        <time>2011-09-01T16:24:49Z</time>
      </trkpt>
      <trkpt lat="47.43457" lon="-0.60491">
        <ele>16</ele>
        <time>2011-09-01T16:24:50Z</time>
      </trkpt>
      <trkpt lat="47.43453" lon="-0.60493">
        <ele>15</ele>
        <time>2011-09-01T16:24:51Z</time>
      </trkpt>
      <trkpt lat="47.4345" lon="-0.60496">
        <ele>14</ele>
        <time>2011-09-01T16:24:52Z</time>
      </trkpt>
      <trkpt lat="47.43446" lon="-0.60498">
        <ele>14</ele>
        <time>2011-09-01T16:24:53Z</time>
      </trkpt>
      <trkpt lat="47.43443" lon="-0.605">
        <ele>13</ele>
        <time>2011-09-01T16:24:54Z</time>
      </trkpt>
      <trkpt lat="47.4344" lon="-0.60502">
        <ele>12</ele>
        <time>2011-09-01T16:24:55Z</time>
      </trkpt>
      <trkpt lat="47.43437" lon="-0.60505">
        <ele>12</ele>
        <time>2011-09-01T16:24:56Z</time>
      </trkpt>
      <trkpt lat="47.43433" lon="-0.60507">
        <ele>11</ele>
        <time>2011-09-01T16:24:57Z</time>
      </trkpt>
      <trkpt lat="47.4343" lon="-0.60509">
        <ele>11</ele>
        <time>2011-09-01T16:24:58Z</time>
      </trkpt>
      <trkpt lat="47.43427" lon="-0.6051">
        <ele>11</ele>
        <time>2011-09-01T16:24:59Z</time>
      </trkpt>
      <trkpt lat="47.43424" lon="-0.60511">
        <ele>10</ele>
        <time>2011-09-01T16:25:00Z</time>
      </trkpt>
      <trkpt lat="47.4342" lon="-0.60513">
        <ele>10</ele>
        <time>2011-09-01T16:25:01Z</time>
      </trkpt>
      <trkpt lat="47.43417" lon="-0.60514">
        <ele>10</ele>
        <time>2011-09-01T16:25:02Z</time>
      </trkpt>
      <trkpt lat="47.43412" lon="-0.60515">
        <ele>9</ele>
        <time>2011-09-01T16:25:03Z</time>
      </trkpt>
      <trkpt lat="47.43408" lon="-0.60515">
        <ele>8</ele>
        <time>2011-09-01T16:25:04Z</time>
      </trkpt>
      <trkpt lat="47.43403" lon="-0.60516">
        <ele>8</ele>
        <time>2011-09-01T16:25:05Z</time>
      </trkpt>
      <trkpt lat="47.43398" lon="-0.60517">
        <ele>7</ele>
        <time>2011-09-01T16:25:06Z</time>
      </trkpt>
      <trkpt lat="47.43394" lon="-0.60517">
        <ele>6</ele>
        <time>2011-09-01T16:25:07Z</time>
      </trkpt>
      <trkpt lat="47.43389" lon="-0.60514">
        <ele>5</ele>
        <time>2011-09-01T16:25:08Z</time>
      </trkpt>
      <trkpt lat="47.43385" lon="-0.60513">
        <ele>5</ele>
        <time>2011-09-01T16:25:09Z</time>
      </trkpt>
      <trkpt lat="47.43381" lon="-0.60513">
        <ele>5</ele>
        <time>2011-09-01T16:25:10Z</time>
      </trkpt>
      <trkpt lat="47.43377" lon="-0.60512">
        <ele>5</ele>
        <time>2011-09-01T16:25:11Z</time>
      </trkpt>
      <trkpt lat="47.43373" lon="-0.60512">
        <ele>5</ele>
        <time>2011-09-01T16:25:12Z</time>
      </trkpt>
      <trkpt lat="47.43369" lon="-0.60512">
        <ele>4</ele>
        <time>2011-09-01T16:25:13Z</time>
      </trkpt>
      <trkpt lat="47.43364" lon="-0.60512">
        <ele>4</ele>
        <time>2011-09-01T16:25:14Z</time>
      </trkpt>
      <trkpt lat="47.43359" lon="-0.60511">
        <ele>3</ele>
        <time>2011-09-01T16:25:15Z</time>
      </trkpt>
      <trkpt lat="47.43354" lon="-0.60511">
        <ele>2</ele>
        <time>2011-09-01T16:25:16Z</time>
      </trkpt>
      <trkpt lat="47.43349" lon="-0.6051">
        <ele>2</ele>
        <time>2011-09-01T16:25:17Z</time>
      </trkpt>
      <trkpt lat="47.43344" lon="-0.6051">
        <ele>2</ele>
        <time>2011-09-01T16:25:18Z</time>
      </trkpt>
      <trkpt lat="47.43338" lon="-0.60511">
        <ele>1</ele>
        <time>2011-09-01T16:25:19Z</time>
      </trkpt>
      <trkpt lat="47.43333" lon="-0.60511">
        <ele>1</ele>
        <time>2011-09-01T16:25:20Z</time>
      </trkpt>
      <trkpt lat="47.43329" lon="-0.60511">
        <ele>1</ele>
        <time>2011-09-01T16:25:21Z</time>
      </trkpt>
      <trkpt lat="47.43324" lon="-0.60511">
        <ele>1</ele>
        <time>2011-09-01T16:25:22Z</time>
      </trkpt>
      <trkpt lat="47.4332" lon="-0.60512">
        <ele>1</ele>
        <time>2011-09-01T16:25:23Z</time>
      </trkpt>
      <trkpt lat="47.43316" lon="-0.60511">
        <ele>1</ele>
        <time>2011-09-01T16:25:24Z</time>
      </trkpt>
      <trkpt lat="47.43312" lon="-0.60511">
        <ele>1</ele>
        <time>2011-09-01T16:25:25Z</time>
      </trkpt>
      <trkpt lat="47.43309" lon="-0.60513">
        <ele>1</ele>
        <time>2011-09-01T16:25:26Z</time>
      </trkpt>
      <trkpt lat="47.43306" lon="-0.60511">
        <ele>1</ele>
        <time>2011-09-01T16:25:27Z</time>
      </trkpt>
      <trkpt lat="47.43303" lon="-0.60512">
        <ele>1</ele>
        <time>2011-09-01T16:25:28Z</time>
      </trkpt>
      <trkpt lat="47.433" lon="-0.60513">
        <ele>1</ele>
        <time>2011-09-01T16:25:29Z</time>
      </trkpt>
      <trkpt lat="47.43296" lon="-0.60514">
        <ele>1</ele>
        <time>2011-09-01T16:25:30Z</time>
      </trkpt>
      <trkpt lat="47.43293" lon="-0.60515">
        <ele>1</ele>
        <time>2011-09-01T16:25:31Z</time>
      </trkpt>
      <trkpt lat="47.43288" lon="-0.60515">
        <ele>1</ele>
        <time>2011-09-01T16:25:32Z</time>
      </trkpt>
      <trkpt lat="47.43284" lon="-0.60515">
        <ele>1</ele>
        <time>2011-09-01T16:25:33Z</time>
      </trkpt>
      <trkpt lat="47.4328" lon="-0.60514">
        <ele>1</ele>
        <time>2011-09-01T16:25:34Z</time>
      </trkpt>
      <trkpt lat="47.43276" lon="-0.60514">
        <ele>1</ele>
        <time>2011-09-01T16:25:35Z</time>
      </trkpt>
      <trkpt lat="47.43272" lon="-0.60513">
        <ele>1</ele>
        <time>2011-09-01T16:25:36Z</time>
      </trkpt>
      <trkpt lat="47.43269" lon="-0.60513">
        <ele>1</ele>
        <time>2011-09-01T16:25:37Z</time>
      </trkpt>
      <trkpt lat="47.43265" lon="-0.60512">
        <ele>1</ele>
        <time>2011-09-01T16:25:38Z</time>
      </trkpt>
      <trkpt lat="47.43261" lon="-0.60511">
        <ele>1</ele>
        <time>2011-09-01T16:25:39Z</time>
      </trkpt>
      <trkpt lat="47.43257" lon="-0.60511">
        <ele>1</ele>
        <time>2011-09-01T16:25:40Z</time>
      </trkpt>
      <trkpt lat="47.43253" lon="-0.60509">
        <ele>1</ele>
        <time>2011-09-01T16:25:41Z</time>
      </trkpt>
      <trkpt lat="47.43248" lon="-0.60508">
        <ele>22.1</ele>
        <time>2011-09-01T16:25:42Z</time>
      </trkpt>
      <trkpt lat="47.43244" lon="-0.60507">
        <ele>22.1</ele>
        <time>2011-09-01T16:25:43Z</time>
      </trkpt>
      <trkpt lat="47.4324" lon="-0.60506">
        <ele>21.7</ele>
        <time>2011-09-01T16:25:44Z</time>
      </trkpt>
      <trkpt lat="47.43237" lon="-0.60505">
        <ele>21.3</ele>
        <time>2011-09-01T16:25:45Z</time>
      </trkpt>
      <trkpt lat="47.43233" lon="-0.60503">
        <ele>20.3</ele>
        <time>2011-09-01T16:25:46Z</time>
      </trkpt>
      <trkpt lat="47.43229" lon="-0.60501">
        <ele>19.2</ele>
        <time>2011-09-01T16:25:47Z</time>
      </trkpt>
      <trkpt lat="47.43225" lon="-0.605">
        <ele>18.6</ele>
        <time>2011-09-01T16:25:48Z</time>
      </trkpt>
      <trkpt lat="47.43221" lon="-0.60498">
        <ele>18.6</ele>
        <time>2011-09-01T16:25:49Z</time>
      </trkpt>
      <trkpt lat="47.43217" lon="-0.60497">
        <ele>18.2</ele>
        <time>2011-09-01T16:25:50Z</time>
      </trkpt>
      <trkpt lat="47.43214" lon="-0.60496">
        <ele>17.9</ele>
        <time>2011-09-01T16:25:51Z</time>
      </trkpt>
      <trkpt lat="47.43209" lon="-0.60496">
        <ele>17.8</ele>
        <time>2011-09-01T16:25:52Z</time>
      </trkpt>
      <trkpt lat="47.43205" lon="-0.60495">
        <ele>17.4</ele>
        <time>2011-09-01T16:25:53Z</time>
      </trkpt>
      <trkpt lat="47.43201" lon="-0.60493">
        <ele>17.1</ele>
        <time>2011-09-01T16:25:54Z</time>
      </trkpt>
      <trkpt lat="47.43196" lon="-0.60492">
        <ele>16.9</ele>
        <time>2011-09-01T16:25:55Z</time>
      </trkpt>
      <trkpt lat="47.43193" lon="-0.60492">
        <ele>16.9</ele>
        <time>2011-09-01T16:25:56Z</time>
      </trkpt>
      <trkpt lat="47.43188" lon="-0.60492">
        <ele>16.9</ele>
        <time>2011-09-01T16:25:57Z</time>
      </trkpt>
      <trkpt lat="47.43185" lon="-0.60492">
        <ele>17</ele>
        <time>2011-09-01T16:25:58Z</time>
      </trkpt>
      <trkpt lat="47.4318" lon="-0.60492">
        <ele>17.1</ele>
        <time>2011-09-01T16:25:59Z</time>
      </trkpt>
      <trkpt lat="47.43176" lon="-0.60491">
        <ele>17.2</ele>
        <time>2011-09-01T16:26:00Z</time>
      </trkpt>
      <trkpt lat="47.43172" lon="-0.60491">
        <ele>17.2</ele>
        <time>2011-09-01T16:26:01Z</time>
      </trkpt>
      <trkpt lat="47.43168" lon="-0.60491">
        <ele>17.4</ele>
        <time>2011-09-01T16:26:02Z</time>
      </trkpt>
      <trkpt lat="47.43164" lon="-0.60492">
        <ele>17.3</ele>
        <time>2011-09-01T16:26:03Z</time>
      </trkpt>
      <trkpt lat="47.43159" lon="-0.60492">
        <ele>17</ele>
        <time>2011-09-01T16:26:04Z</time>
      </trkpt>
      <trkpt lat="47.43155" lon="-0.60491">
        <ele>16.7</ele>
        <time>2011-09-01T16:26:05Z</time>
      </trkpt>
      <trkpt lat="47.43151" lon="-0.60491">
        <ele>16.4</ele>
        <time>2011-09-01T16:26:06Z</time>
      </trkpt>
      <trkpt lat="47.43147" lon="-0.60492">
        <ele>1</ele>
        <time>2011-09-01T16:26:07Z</time>
      </trkpt>
      <trkpt lat="47.43142" lon="-0.60491">
        <ele>2</ele>
        <time>2011-09-01T16:26:08Z</time>
      </trkpt>
      <trkpt lat="47.43137" lon="-0.60492">
        <ele>3</ele>
        <time>2011-09-01T16:26:09Z</time>
      </trkpt>
      <trkpt lat="47.43133" lon="-0.60492">
        <ele>4</ele>
        <time>2011-09-01T16:26:10Z</time>
      </trkpt>
      <trkpt lat="47.43129" lon="-0.60492">
        <ele>4</ele>
        <time>2011-09-01T16:26:11Z</time>
      </trkpt>
      <trkpt lat="47.43124" lon="-0.60493">
        <ele>5</ele>
        <time>2011-09-01T16:26:12Z</time>
      </trkpt>
      <trkpt lat="47.4312" lon="-0.60494">
        <ele>6</ele>
        <time>2011-09-01T16:26:13Z</time>
      </trkpt>
      <trkpt lat="47.43116" lon="-0.60494">
        <ele>6</ele>
        <time>2011-09-01T16:26:14Z</time>
      </trkpt>
      <trkpt lat="47.43112" lon="-0.60495">
        <ele>7</ele>
        <time>2011-09-01T16:26:15Z</time>
      </trkpt>
      <trkpt lat="47.43108" lon="-0.60496">
        <ele>7</ele>
        <time>2011-09-01T16:26:16Z</time>
      </trkpt>
      <trkpt lat="47.43105" lon="-0.60498">
        <ele>8</ele>
        <time>2011-09-01T16:26:17Z</time>
      </trkpt>
      <trkpt lat="47.43101" lon="-0.60498">
        <ele>8</ele>
        <time>2011-09-01T16:26:18Z</time>
      </trkpt>
      <trkpt lat="47.43097" lon="-0.605">
        <ele>9</ele>
        <time>2011-09-01T16:26:19Z</time>
      </trkpt>
      <trkpt lat="47.43092" lon="-0.605">
        <ele>9</ele>
        <time>2011-09-01T16:26:20Z</time>
      </trkpt>
      <trkpt lat="47.43087" lon="-0.60501">
        <ele>9</ele>
        <time>2011-09-01T16:26:21Z</time>
      </trkpt>
      <trkpt lat="47.43083" lon="-0.60501">
        <ele>9</ele>
        <time>2011-09-01T16:26:22Z</time>
      </trkpt>
      <trkpt lat="47.43079" lon="-0.60502">
        <ele>9</ele>
        <time>2011-09-01T16:26:23Z</time>
      </trkpt>
      <trkpt lat="47.43075" lon="-0.60503">
        <ele>9</ele>
        <time>2011-09-01T16:26:24Z</time>
      </trkpt>
      <trkpt lat="47.43072" lon="-0.60504">
        <ele>9</ele>
        <time>2011-09-01T16:26:25Z</time>
      </trkpt>
      <trkpt lat="47.43068" lon="-0.60506">
        <ele>9</ele>
        <time>2011-09-01T16:26:26Z</time>
      </trkpt>
      <trkpt lat="47.43065" lon="-0.60507">
        <ele>9</ele>
        <time>2011-09-01T16:26:27Z</time>
      </trkpt>
      <trkpt lat="47.43061" lon="-0.60508">
        <ele>9</ele>
        <time>2011-09-01T16:26:28Z</time>
      </trkpt>
      <trkpt lat="47.43057" lon="-0.60509">
        <ele>9</ele>
        <time>2011-09-01T16:26:29Z</time>
      </trkpt>
      <trkpt lat="47.43053" lon="-0.6051">
        <ele>9</ele>
        <time>2011-09-01T16:26:30Z</time>
      </trkpt>
      <trkpt lat="47.43049" lon="-0.60511">
        <ele>9</ele>
        <time>2011-09-01T16:26:31Z</time>
      </trkpt>
      <trkpt lat="47.43045" lon="-0.60512">
        <ele>9</ele>
        <time>2011-09-01T16:26:32Z</time>
      </trkpt>
      <trkpt lat="47.43041" lon="-0.60513">
        <ele>9</ele>
        <time>2011-09-01T16:26:33Z</time>
      </trkpt>
      <trkpt lat="47.43037" lon="-0.60514">
        <ele>9</ele>
        <time>2011-09-01T16:26:34Z</time>
      </trkpt>
      <trkpt lat="47.43032" lon="-0.60514">
        <ele>9</ele>
        <time>2011-09-01T16:26:35Z</time>
      </trkpt>
      <trkpt lat="47.43028" lon="-0.60515">
        <ele>9</ele>
        <time>2011-09-01T16:26:36Z</time>
      </trkpt>
      <trkpt lat="47.43023" lon="-0.60515">
        <ele>9</ele>
        <time>2011-09-01T16:26:37Z</time>
      </trkpt>
      <trkpt lat="47.43019" lon="-0.60515">
        <ele>9</ele>
        <time>2011-09-01T16:26:38Z</time>
      </trkpt>
      <trkpt lat="47.43015" lon="-0.60515">
        <ele>9</ele>
        <time>2011-09-01T16:26:39Z</time>
      </trkpt>
      <trkpt lat="47.4301" lon="-0.60515">
        <ele>9</ele>
        <time>2011-09-01T16:26:40Z</time>
      </trkpt>
      <trkpt lat="47.43006" lon="-0.60515">
        <ele>9</ele>
        <time>2011-09-01T16:26:41Z</time>
      </trkpt>
      <trkpt lat="47.43002" lon="-0.60515">
        <ele>9</ele>
        <time>2011-09-01T16:26:42Z</time>
      </trkpt>
      <trkpt lat="47.42998" lon="-0.60514">
        <ele>9</ele>
        <time>2011-09-01T16:26:43Z</time>
      </trkpt>
      <trkpt lat="47.42994" lon="-0.60514">
        <ele>9</ele>
        <time>2011-09-01T16:26:44Z</time>
      </trkpt>
      <trkpt lat="47.4299" lon="-0.60514">
        <ele>8</ele>
        <time>2011-09-01T16:26:45Z</time>
      </trkpt>
      <trkpt lat="47.42986" lon="-0.60514">
        <ele>8</ele>
        <time>2011-09-01T16:26:46Z</time>
      </trkpt>
      <trkpt lat="47.42982" lon="-0.60514">
        <ele>8</ele>
        <time>2011-09-01T16:26:47Z</time>
      </trkpt>
      <trkpt lat="47.42979" lon="-0.60514">
        <ele>8</ele>
        <time>2011-09-01T16:26:48Z</time>
      </trkpt>
      <trkpt lat="47.42974" lon="-0.60514">
        <ele>7</ele>
        <time>2011-09-01T16:26:49Z</time>
      </trkpt>
      <trkpt lat="47.4297" lon="-0.60513">
        <ele>6</ele>
        <time>2011-09-01T16:26:50Z</time>
      </trkpt>
      <trkpt lat="47.42966" lon="-0.60512">
        <ele>6</ele>
        <time>2011-09-01T16:26:51Z</time>
      </trkpt>
      <trkpt lat="47.42962" lon="-0.60512">
        <ele>6</ele>
        <time>2011-09-01T16:26:52Z</time>
      </trkpt>
      <trkpt lat="47.42958" lon="-0.60512">
        <ele>6</ele>
        <time>2011-09-01T16:26:53Z</time>
      </trkpt>
      <trkpt lat="47.42954" lon="-0.60512">
        <ele>5</ele>
        <time>2011-09-01T16:26:54Z</time>
      </trkpt>
      <trkpt lat="47.4295" lon="-0.6051">
        <ele>5</ele>
        <time>2011-09-01T16:26:55Z</time>
      </trkpt>
      <trkpt lat="47.42947" lon="-0.6051">
        <ele>5</ele>
        <time>2011-09-01T16:26:56Z</time>
      </trkpt>
      <trkpt lat="47.42943" lon="-0.60509">
        <ele>4</ele>
        <time>2011-09-01T16:26:57Z</time>
      </trkpt>
      <trkpt lat="47.42939" lon="-0.60509">
        <ele>3</ele>
        <time>2011-09-01T16:26:58Z</time>
      </trkpt>
      <trkpt lat="47.42936" lon="-0.60509">
        <ele>2</ele>
        <time>2011-09-01T16:26:59Z</time>
      </trkpt>
      <trkpt lat="47.42932" lon="-0.60508">
        <ele>1</ele>
        <time>2011-09-01T16:27:00Z</time>
      </trkpt>
      <trkpt lat="47.42929" lon="-0.60507">
        <ele>1</ele>
        <time>2011-09-01T16:27:01Z</time>
      </trkpt>
      <trkpt lat="47.42926" lon="-0.60506">
        <ele>16.6</ele>
        <time>2011-09-01T16:27:02Z</time>
      </trkpt>
      <trkpt lat="47.42922" lon="-0.60506">
        <ele>16.8</ele>
        <time>2011-09-01T16:27:03Z</time>
      </trkpt>
      <trkpt lat="47.42919" lon="-0.60505">
        <ele>16.7</ele>
        <time>2011-09-01T16:27:04Z</time>
      </trkpt>
      <trkpt lat="47.42915" lon="-0.60504">
        <ele>16.9</ele>
        <time>2011-09-01T16:27:05Z</time>
      </trkpt>
      <trkpt lat="47.42912" lon="-0.60504">
        <ele>17</ele>
        <time>2011-09-01T16:27:06Z</time>
      </trkpt>
      <trkpt lat="47.42908" lon="-0.60502">
        <ele>17</ele>
        <time>2011-09-01T16:27:07Z</time>
      </trkpt>
      <trkpt lat="47.42904" lon="-0.60498">
        <ele>16.2</ele>
        <time>2011-09-01T16:27:08Z</time>
      </trkpt>
      <trkpt lat="47.429" lon="-0.60496">
        <ele>16.2</ele>
        <time>2011-09-01T16:27:09Z</time>
      </trkpt>
      <trkpt lat="47.42897" lon="-0.60495">
        <ele>16.2</ele>
        <time>2011-09-01T16:27:10Z</time>
      </trkpt>
      <trkpt lat="47.42893" lon="-0.60494">
        <ele>16.2</ele>
        <time>2011-09-01T16:27:11Z</time>
      </trkpt>
      <trkpt lat="47.4289" lon="-0.60492">
        <ele>16.1</ele>
        <time>2011-09-01T16:27:12Z</time>
      </trkpt>
      <trkpt lat="47.42885" lon="-0.60489">
        <ele>16.2</ele>
        <time>2011-09-01T16:27:13Z</time>
      </trkpt>
      <trkpt lat="47.42881" lon="-0.60489">
        <ele>16.6</ele>
        <time>2011-09-01T16:27:14Z</time>
      </trkpt>
      <trkpt lat="47.42877" lon="-0.60487">
        <ele>16.7</ele>
        <time>2011-09-01T16:27:15Z</time>
      </trkpt>
      <trkpt lat="47.42873" lon="-0.60486">
        <ele>16.8</ele>
        <time>2011-09-01T16:27:16Z</time>
      </trkpt>
      <trkpt lat="47.4287" lon="-0.60484">
        <ele>16.9</ele>
        <time>2011-09-01T16:27:17Z</time>
      </trkpt>
      <trkpt lat="47.42866" lon="-0.60483">
        <ele>17</ele>
        <time>2011-09-01T16:27:18Z</time>
      </trkpt>
      <trkpt lat="47.42863" lon="-0.60482">
        <ele>17</ele>
        <time>2011-09-01T16:27:19Z</time>
      </trkpt>
      <trkpt lat="47.42859" lon="-0.60481">
        <ele>16.9</ele>
        <time>2011-09-01T16:27:20Z</time>
      </trkpt>
      <trkpt lat="47.42855" lon="-0.6048">
        <ele>16.9</ele>
        <time>2011-09-01T16:27:21Z</time>
      </trkpt>
      <trkpt lat="47.42852" lon="-0.6048">
        <ele>16.9</ele>
        <time>2011-09-01T16:27:22Z</time>
      </trkpt>
      <trkpt lat="47.42848" lon="-0.60479">
        <ele>17</ele>
        <time>2011-09-01T16:27:23Z</time>
      </trkpt>
      <trkpt lat="47.42844" lon="-0.60479">
        <ele>17</ele>
        <time>2011-09-01T16:27:24Z</time>
      </trkpt>
      <trkpt lat="47.4284" lon="-0.60478">
        <ele>17.1</ele>
        <time>2011-09-01T16:27:25Z</time>
      </trkpt>
      <trkpt lat="47.42836" lon="-0.60477">
        <ele>17.2</ele>
        <time>2011-09-01T16:27:26Z</time>
      </trkpt>
      <trkpt lat="47.42833" lon="-0.60476">
        <ele>17.3</ele>
        <time>2011-09-01T16:27:27Z</time>
      </trkpt>
      <trkpt lat="47.42829" lon="-0.60475">
        <ele>17.2</ele>
        <time>2011-09-01T16:27:28Z</time>
      </trkpt>
      <trkpt lat="47.42825" lon="-0.60474">
        <ele>17.1</ele>
        <time>2011-09-01T16:27:29Z</time>
      </trkpt>
      <trkpt lat="47.42821" lon="-0.6047">
        <ele>16.7</ele>
        <time>2011-09-01T16:27:30Z</time>
      </trkpt>
      <trkpt lat="47.42817" lon="-0.60469">
        <ele>16.6</ele>
        <time>2011-09-01T16:27:31Z</time>
      </trkpt>
      <trkpt lat="47.42812" lon="-0.60467">
        <ele>16.4</ele>
        <time>2011-09-01T16:27:32Z</time>
      </trkpt>
      <trkpt lat="47.42809" lon="-0.60465">
        <ele>16.2</ele>
        <time>2011-09-01T16:27:33Z</time>
      </trkpt>
      <trkpt lat="47.42805" lon="-0.60464">
        <ele>16.1</ele>
        <time>2011-09-01T16:27:34Z</time>
      </trkpt>
      <trkpt lat="47.42802" lon="-0.60462">
        <ele>16.3</ele>
        <time>2011-09-01T16:27:35Z</time>
      </trkpt>
      <trkpt lat="47.42798" lon="-0.60461">
        <ele>16.5</ele>
        <time>2011-09-01T16:27:36Z</time>
      </trkpt>
      <trkpt lat="47.42794" lon="-0.6046">
        <ele>16.8</ele>
        <time>2011-09-01T16:27:37Z</time>
      </trkpt>
      <trkpt lat="47.42791" lon="-0.6046">
        <ele>17.1</ele>
        <time>2011-09-01T16:27:38Z</time>
      </trkpt>
      <trkpt lat="47.42788" lon="-0.60461">
        <ele>17.5</ele>
        <time>2011-09-01T16:27:39Z</time>
      </trkpt>
      <trkpt lat="47.42785" lon="-0.60462">
        <ele>18</ele>
        <time>2011-09-01T16:27:40Z</time>
      </trkpt>
      <trkpt lat="47.42782" lon="-0.60464">
        <ele>18.7</ele>
        <time>2011-09-01T16:27:41Z</time>
      </trkpt>
      <trkpt lat="47.42778" lon="-0.60465">
        <ele>19.3</ele>
        <time>2011-09-01T16:27:42Z</time>
      </trkpt>
      <trkpt lat="47.42775" lon="-0.60465">
        <ele>19.1</ele>
        <time>2011-09-01T16:27:43Z</time>
      </trkpt>
      <trkpt lat="47.42772" lon="-0.60466">
        <ele>18.8</ele>
        <time>2011-09-01T16:27:44Z</time>
      </trkpt>
      <trkpt lat="47.42768" lon="-0.60466">
        <ele>18.5</ele>
        <time>2011-09-01T16:27:45Z</time>
      </trkpt>
      <trkpt lat="47.42765" lon="-0.60466">
        <ele>18.1</ele>
        <time>2011-09-01T16:27:46Z</time>
      </trkpt>
      <trkpt lat="47.42761" lon="-0.60466">
        <ele>17.6</ele>
        <time>2011-09-01T16:27:47Z</time>
      </trkpt>
      <trkpt lat="47.42757" lon="-0.60466">
        <ele>17.2</ele>
        <time>2011-09-01T16:27:48Z</time>
      </trkpt>
      <trkpt lat="47.42753" lon="-0.60467">
        <ele>16.8</ele>
        <time>2011-09-01T16:27:49Z</time>
      </trkpt>
      <trkpt lat="47.42749" lon="-0.60467">
        <ele>16.5</ele>
        <time>2011-09-01T16:27:50Z</time>
      </trkpt>
      <trkpt lat="47.42745" lon="-0.60468">
        <ele>16.7</ele>
        <time>2011-09-01T16:27:51Z</time>
      </trkpt>
      <trkpt lat="47.42741" lon="-0.60467">
        <ele>16.8</ele>
        <time>2011-09-01T16:27:52Z</time>
      </trkpt>
      <trkpt lat="47.42737" lon="-0.60467">
        <ele>16.8</ele>
        <time>2011-09-01T16:27:53Z</time>
      </trkpt>
      <trkpt lat="47.42732" lon="-0.60466">
        <ele>16.9</ele>
        <time>2011-09-01T16:27:54Z</time>
      </trkpt>
      <trkpt lat="47.42728" lon="-0.60467">
        <ele>17.1</ele>
        <time>2011-09-01T16:27:55Z</time>
      </trkpt>
      <trkpt lat="47.42724" lon="-0.60467">
        <ele>17.2</ele>
        <time>2011-09-01T16:27:56Z</time>
      </trkpt>
      <trkpt lat="47.4272" lon="-0.60467">
        <ele>17.3</ele>
        <time>2011-09-01T16:27:57Z</time>
      </trkpt>
      <trkpt lat="47.42715" lon="-0.60467">
        <ele>17.4</ele>
        <time>2011-09-01T16:27:58Z</time>
      </trkpt>
      <trkpt lat="47.42711" lon="-0.60467">
        <ele>17.6</ele>
        <time>2011-09-01T16:27:59Z</time>
      </trkpt>
      <trkpt lat="47.42707" lon="-0.60467">
        <ele>17.8</ele>
        <time>2011-09-01T16:28:00Z</time>
      </trkpt>
      <trkpt lat="47.42703" lon="-0.60467">
        <ele>17.9</ele>
        <time>2011-09-01T16:28:01Z</time>
      </trkpt>
      <trkpt lat="47.42699" lon="-0.60468">
        <ele>18.1</ele>
        <time>2011-09-01T16:28:02Z</time>
      </trkpt>
      <trkpt lat="47.42695" lon="-0.60467">
        <ele>18.1</ele>
        <time>2011-09-01T16:28:03Z</time>
      </trkpt>
      <trkpt lat="47.42691" lon="-0.60467">
        <ele>18.1</ele>
        <time>2011-09-01T16:28:04Z</time>
      </trkpt>
      <trkpt lat="47.42687" lon="-0.60467">
        <ele>18.1</ele>
        <time>2011-09-01T16:28:05Z</time>
      </trkpt>
      <trkpt lat="47.42683" lon="-0.60467">
        <ele>18.1</ele>
        <time>2011-09-01T16:28:06Z</time>
      </trkpt>
      <trkpt lat="47.42679" lon="-0.60467">
        <ele>18</ele>
        <time>2011-09-01T16:28:07Z</time>
      </trkpt>
      <trkpt lat="47.42673" lon="-0.60463">
        <ele>17.3</ele>
        <time>2011-09-01T16:28:08Z</time>
      </trkpt>
      <trkpt lat="47.4267" lon="-0.60463">
        <ele>17.4</ele>
        <time>2011-09-01T16:28:09Z</time>
      </trkpt>
      <trkpt lat="47.42665" lon="-0.60461">
        <ele>16.9</ele>
        <time>2011-09-01T16:28:10Z</time>
      </trkpt>
      <trkpt lat="47.4266" lon="-0.6046">
        <ele>16.6</ele>
        <time>2011-09-01T16:28:11Z</time>
      </trkpt>
      <trkpt lat="47.42656" lon="-0.6046">
        <ele>16.5</ele>
        <time>2011-09-01T16:28:12Z</time>
      </trkpt>
      <trkpt lat="47.42652" lon="-0.6046">
        <ele>1</ele>
        <time>2011-09-01T16:28:13Z</time>
      </trkpt>
      <trkpt lat="47.42648" lon="-0.60461">
        <ele>2</ele>
        <time>2011-09-01T16:28:14Z</time>
      </trkpt>
      <trkpt lat="47.42644" lon="-0.60462">
        <ele>3</ele>
        <time>2011-09-01T16:28:15Z</time>
      </trkpt>
      <trkpt lat="47.4264" lon="-0.60464">
        <ele>4</ele>
        <time>2011-09-01T16:28:16Z</time>
      </trkpt>
      <trkpt lat="47.42637" lon="-0.60465">
        <ele>5</ele>
        <time>2011-09-01T16:28:17Z</time>
      </trkpt>
      <trkpt lat="47.42633" lon="-0.60465">
        <ele>5</ele>
        <time>2011-09-01T16:28:18Z</time>
      </trkpt>
      <trkpt lat="47.42629" lon="-0.60465">
        <ele>5</ele>
        <time>2011-09-01T16:28:19Z</time>
      </trkpt>
      <trkpt lat="47.42625" lon="-0.60465">
        <ele>5</ele>
        <time>2011-09-01T16:28:20Z</time>
      </trkpt>
      <trkpt lat="47.42622" lon="-0.60465">
        <ele>5</ele>
        <time>2011-09-01T16:28:21Z</time>
      </trkpt>
      <trkpt lat="47.42618" lon="-0.60466">
        <ele>5</ele>
        <time>2011-09-01T16:28:22Z</time>
      </trkpt>
      <trkpt lat="47.42615" lon="-0.60466">
        <ele>5</ele>
        <time>2011-09-01T16:28:23Z</time>
      </trkpt>
      <trkpt lat="47.42612" lon="-0.60467">
        <ele>5</ele>
        <time>2011-09-01T16:28:24Z</time>
      </trkpt>
      <trkpt lat="47.42609" lon="-0.60467">
        <ele>5</ele>
        <time>2011-09-01T16:28:25Z</time>
      </trkpt>
      <trkpt lat="47.42605" lon="-0.60467">
        <ele>5</ele>
        <time>2011-09-01T16:28:26Z</time>
      </trkpt>
      <trkpt lat="47.42601" lon="-0.60466">
        <ele>5</ele>
        <time>2011-09-01T16:28:27Z</time>
      </trkpt>
      <trkpt lat="47.42598" lon="-0.60466">
        <ele>5</ele>
        <time>2011-09-01T16:28:28Z</time>
      </trkpt>
      <trkpt lat="47.42594" lon="-0.60467">
        <ele>5</ele>
        <time>2011-09-01T16:28:29Z</time>
      </trkpt>
      <trkpt lat="47.4259" lon="-0.60467">
        <ele>5</ele>
        <time>2011-09-01T16:28:30Z</time>
      </trkpt>
      <trkpt lat="47.42587" lon="-0.60466">
        <ele>5</ele>
        <time>2011-09-01T16:28:31Z</time>
      </trkpt>
      <trkpt lat="47.42583" lon="-0.60464">
        <ele>5</ele>
        <time>2011-09-01T16:28:32Z</time>
      </trkpt>
      <trkpt lat="47.4258" lon="-0.60463">
        <ele>5</ele>
        <time>2011-09-01T16:28:33Z</time>
      </trkpt>
      <trkpt lat="47.42576" lon="-0.60462">
        <ele>5</ele>
        <time>2011-09-01T16:28:34Z</time>
      </trkpt>
      <trkpt lat="47.42573" lon="-0.60463">
        <ele>5</ele>
        <time>2011-09-01T16:28:35Z</time>
      </trkpt>
      <trkpt lat="47.42569" lon="-0.60462">
        <ele>5</ele>
        <time>2011-09-01T16:28:36Z</time>
      </trkpt>
      <trkpt lat="47.42564" lon="-0.60461">
        <ele>5</ele>
        <time>2011-09-01T16:28:37Z</time>
      </trkpt>
      <trkpt lat="47.42561" lon="-0.60461">
        <ele>5</ele>
        <time>2011-09-01T16:28:38Z</time>
      </trkpt>
      <trkpt lat="47.42558" lon="-0.60462">
        <ele>5</ele>
        <time>2011-09-01T16:28:39Z</time>
      </trkpt>
      <trkpt lat="47.42555" lon="-0.60463">
        <ele>5</ele>
        <time>2011-09-01T16:28:40Z</time>
      </trkpt>
      <trkpt lat="47.42553" lon="-0.60464">
        <ele>5</ele>
        <time>2011-09-01T16:28:41Z</time>
      </trkpt>
      <trkpt lat="47.4255" lon="-0.60465">
        <ele>5</ele>
        <time>2011-09-01T16:28:42Z</time>
      </trkpt>
      <trkpt lat="47.42547" lon="-0.60467">
        <ele>5</ele>
        <time>2011-09-01T16:28:43Z</time>
      </trkpt>
      <trkpt lat="47.42545" lon="-0.60469">
        <ele>5</ele>
        <time>2011-09-01T16:28:44Z</time>
      </trkpt>
      <trkpt lat="47.42542" lon="-0.60471">
        <ele>6</ele>
        <time>2011-09-01T16:28:45Z</time>
      </trkpt>
      <trkpt lat="47.4254" lon="-0.60474">
        <ele>6</ele>
        <time>2011-09-01T16:28:46Z</time>
      </trkpt>
      <trkpt lat="47.42537" lon="-0.60477">
        <ele>6</ele>
        <time>2011-09-01T16:28:47Z</time>
      </trkpt>
      <trkpt lat="47.42534" lon="-0.60479">
        <ele>6</ele>
        <time>2011-09-01T16:28:48Z</time>
      </trkpt>
      <trkpt lat="47.42531" lon="-0.60482">
        <ele>7</ele>
        <time>2011-09-01T16:28:49Z</time>
      </trkpt>
      <trkpt lat="47.42529" lon="-0.60484">
        <ele>7</ele>
        <time>2011-09-01T16:28:50Z</time>
      </trkpt>
      <trkpt lat="47.42525" lon="-0.60486">
        <ele>7</ele>
        <time>2011-09-01T16:28:51Z</time>
      </trkpt>
      <trkpt lat="47.42522" lon="-0.60487">
        <ele>7</ele>
        <time>2011-09-01T16:28:52Z</time>
      </trkpt>
      <trkpt lat="47.42519" lon="-0.60489">
        <ele>7</ele>
        <time>2011-09-01T16:28:53Z</time>
      </trkpt>
      <trkpt lat="47.42516" lon="-0.60491">
        <ele>7</ele>
        <time>2011-09-01T16:28:54Z</time>
      </trkpt>
      <trkpt lat="47.42514" lon="-0.60492">
        <ele>7</ele>
        <time>2011-09-01T16:28:55Z</time>
      </trkpt>
      <trkpt lat="47.42511" lon="-0.60494">
        <ele>7</ele>
        <time>2011-09-01T16:28:56Z</time>
      </trkpt>
      <trkpt lat="47.42507" lon="-0.60496">
        <ele>7</ele>
        <time>2011-09-01T16:28:57Z</time>
      </trkpt>
      <trkpt lat="47.42504" lon="-0.60497">
        <ele>7</ele>
        <time>2011-09-01T16:28:58Z</time>
      </trkpt>
      <trkpt lat="47.42501" lon="-0.60499">
        <ele>7</ele>
        <time>2011-09-01T16:28:59Z</time>
      </trkpt>
      <trkpt lat="47.42498" lon="-0.605">
        <ele>7</ele>
        <time>2011-09-01T16:29:00Z</time>
      </trkpt>
      <trkpt lat="47.42494" lon="-0.60502">
        <ele>7</ele>
        <time>2011-09-01T16:29:01Z</time>
      </trkpt>
      <trkpt lat="47.42491" lon="-0.60504">
        <ele>7</ele>
        <time>2011-09-01T16:29:02Z</time>
      </trkpt>
      <trkpt lat="47.42487" lon="-0.60505">
        <ele>7</ele>
        <time>2011-09-01T16:29:03Z</time>
      </trkpt>
      <trkpt lat="47.42484" lon="-0.60506">
        <ele>7</ele>
        <time>2011-09-01T16:29:04Z</time>
      </trkpt>
      <trkpt lat="47.42481" lon="-0.60508">
        <ele>7</ele>
        <time>2011-09-01T16:29:05Z</time>
      </trkpt>
      <trkpt lat="47.42478" lon="-0.60509">
        <ele>7</ele>
        <time>2011-09-01T16:29:06Z</time>
      </trkpt>
      <trkpt lat="47.42475" lon="-0.6051">
        <ele>7</ele>
        <time>2011-09-01T16:29:07Z</time>
      </trkpt>
      <trkpt lat="47.42471" lon="-0.60512">
        <ele>7</ele>
        <time>2011-09-01T16:29:08Z</time>
      </trkpt>
      <trkpt lat="47.42468" lon="-0.60513">
        <ele>7</ele>
        <time>2011-09-01T16:29:09Z</time>
      </trkpt>
      <trkpt lat="47.42464" lon="-0.60515">
        <ele>7</ele>
        <time>2011-09-01T16:29:10Z</time>
      </trkpt>
      <trkpt lat="47.42461" lon="-0.60516">
        <ele>7</ele>
        <time>2011-09-01T16:29:11Z</time>
      </trkpt>
      <trkpt lat="47.42457" lon="-0.60518">
        <ele>7</ele>
        <time>2011-09-01T16:29:12Z</time>
      </trkpt>
      <trkpt lat="47.42454" lon="-0.60519">
        <ele>7</ele>
        <time>2011-09-01T16:29:13Z</time>
      </trkpt>
      <trkpt lat="47.4245" lon="-0.6052">
        <ele>7</ele>
        <time>2011-09-01T16:29:14Z</time>
      </trkpt>
      <trkpt lat="47.42447" lon="-0.60522">
        <ele>7</ele>
        <time>2011-09-01T16:29:15Z</time>
      </trkpt>
      <trkpt lat="47.42443" lon="-0.60523">
        <ele>7</ele>
        <time>2011-09-01T16:29:16Z</time>
      </trkpt>
      <trkpt lat="47.4244" lon="-0.60524">
        <ele>7</ele>
        <time>2011-09-01T16:29:17Z</time>
      </trkpt>
      <trkpt lat="47.42437" lon="-0.60526">
        <ele>7</ele>
        <time>2011-09-01T16:29:18Z</time>
      </trkpt>
      <trkpt lat="47.42434" lon="-0.60527">
        <ele>7</ele>
        <time>2011-09-01T16:29:19Z</time>
      </trkpt>
      <trkpt lat="47.4243" lon="-0.60529">
        <ele>7</ele>
        <time>2011-09-01T16:29:20Z</time>
      </trkpt>
      <trkpt lat="47.42427" lon="-0.6053">
        <ele>7</ele>
        <time>2011-09-01T16:29:21Z</time>
      </trkpt>
      <trkpt lat="47.42424" lon="-0.60532">
        <ele>7</ele>
        <time>2011-09-01T16:29:22Z</time>
      </trkpt>
      <trkpt lat="47.42421" lon="-0.60533">
        <ele>7</ele>
        <time>2011-09-01T16:29:23Z</time>
      </trkpt>
      <trkpt lat="47.42417" lon="-0.60534">
        <ele>7</ele>
        <time>2011-09-01T16:29:24Z</time>
      </trkpt>
      <trkpt lat="47.42413" lon="-0.60535">
        <ele>7</ele>
        <time>2011-09-01T16:29:25Z</time>
      </trkpt>
      <trkpt lat="47.4241" lon="-0.60536">
        <ele>7</ele>
        <time>2011-09-01T16:29:26Z</time>
      </trkpt>
      <trkpt lat="47.42406" lon="-0.60536">
        <ele>7</ele>
        <time>2011-09-01T16:29:27Z</time>
      </trkpt>
      <trkpt lat="47.42403" lon="-0.60537">
        <ele>7</ele>
        <time>2011-09-01T16:29:28Z</time>
      </trkpt>
      <trkpt lat="47.42399" lon="-0.60537">
        <ele>7</ele>
        <time>2011-09-01T16:29:29Z</time>
      </trkpt>
      <trkpt lat="47.42396" lon="-0.60538">
        <ele>7</ele>
        <time>2011-09-01T16:29:30Z</time>
      </trkpt>
      <trkpt lat="47.42393" lon="-0.60539">
        <ele>7</ele>
        <time>2011-09-01T16:29:31Z</time>
      </trkpt>
      <trkpt lat="47.42389" lon="-0.60539">
        <ele>7</ele>
        <time>2011-09-01T16:29:32Z</time>
      </trkpt>
      <trkpt lat="47.42386" lon="-0.6054">
        <ele>7</ele>
        <time>2011-09-01T16:29:33Z</time>
      </trkpt>
      <trkpt lat="47.42383" lon="-0.60542">
        <ele>7</ele>
        <time>2011-09-01T16:29:34Z</time>
      </trkpt>
      <trkpt lat="47.42379" lon="-0.60544">
        <ele>7</ele>
        <time>2011-09-01T16:29:35Z</time>
      </trkpt>
      <trkpt lat="47.42376" lon="-0.60545">
        <ele>7</ele>
        <time>2011-09-01T16:29:36Z</time>
      </trkpt>
      <trkpt lat="47.42373" lon="-0.60547">
        <ele>7</ele>
        <time>2011-09-01T16:29:37Z</time>
      </trkpt>
      <trkpt lat="47.4237" lon="-0.60549">
        <ele>7</ele>
        <time>2011-09-01T16:29:38Z</time>
      </trkpt>
      <trkpt lat="47.42367" lon="-0.60551">
        <ele>7</ele>
        <time>2011-09-01T16:29:39Z</time>
      </trkpt>
      <trkpt lat="47.42364" lon="-0.60553">
        <ele>7</ele>
        <time>2011-09-01T16:29:40Z</time>
      </trkpt>
      <trkpt lat="47.42361" lon="-0.60556">
        <ele>7</ele>
        <time>2011-09-01T16:29:41Z</time>
      </trkpt>
      <trkpt lat="47.42358" lon="-0.60558">
        <ele>7</ele>
        <time>2011-09-01T16:29:42Z</time>
      </trkpt>
      <trkpt lat="47.42354" lon="-0.6056">
        <ele>7</ele>
        <time>2011-09-01T16:29:43Z</time>
      </trkpt>
      <trkpt lat="47.42351" lon="-0.60562">
        <ele>7</ele>
        <time>2011-09-01T16:29:44Z</time>
      </trkpt>
      <trkpt lat="47.42348" lon="-0.60565">
        <ele>7</ele>
        <time>2011-09-01T16:29:45Z</time>
      </trkpt>
      <trkpt lat="47.42345" lon="-0.60567">
        <ele>7</ele>
        <time>2011-09-01T16:29:46Z</time>
      </trkpt>
      <trkpt lat="47.42342" lon="-0.60568">
        <ele>7</ele>
        <time>2011-09-01T16:29:47Z</time>
      </trkpt>
      <trkpt lat="47.42339" lon="-0.60571">
        <ele>7</ele>
        <time>2011-09-01T16:29:48Z</time>
      </trkpt>
      <trkpt lat="47.42337" lon="-0.60573">
        <ele>8</ele>
        <time>2011-09-01T16:29:49Z</time>
      </trkpt>
      <trkpt lat="47.42333" lon="-0.60575">
        <ele>8</ele>
        <time>2011-09-01T16:29:50Z</time>
      </trkpt>
      <trkpt lat="47.4233" lon="-0.60577">
        <ele>8</ele>
        <time>2011-09-01T16:29:51Z</time>
      </trkpt>
      <trkpt lat="47.42327" lon="-0.6058">
        <ele>8</ele>
        <time>2011-09-01T16:29:52Z</time>
      </trkpt>
      <trkpt lat="47.42324" lon="-0.60583">
        <ele>8</ele>
        <time>2011-09-01T16:29:53Z</time>
      </trkpt>
      <trkpt lat="47.42321" lon="-0.60586">
        <ele>8</ele>
        <time>2011-09-01T16:29:54Z</time>
      </trkpt>
      <trkpt lat="47.42318" lon="-0.6059">
        <ele>8</ele>
        <time>2011-09-01T16:29:55Z</time>
      </trkpt>
      <trkpt lat="47.42316" lon="-0.60593">
        <ele>8</ele>
        <time>2011-09-01T16:29:56Z</time>
      </trkpt>
      <trkpt lat="47.42313" lon="-0.60597">
        <ele>8</ele>
        <time>2011-09-01T16:29:57Z</time>
      </trkpt>
      <trkpt lat="47.42311" lon="-0.60601">
        <ele>8</ele>
        <time>2011-09-01T16:29:58Z</time>
      </trkpt>
      <trkpt lat="47.42308" lon="-0.60605">
        <ele>8</ele>
        <time>2011-09-01T16:29:59Z</time>
      </trkpt>
      <trkpt lat="47.42306" lon="-0.60609">
        <ele>8</ele>
        <time>2011-09-01T16:30:00Z</time>
      </trkpt>
      <trkpt lat="47.42303" lon="-0.60614">
        <ele>8</ele>
        <time>2011-09-01T16:30:01Z</time>
      </trkpt>
      <trkpt lat="47.42301" lon="-0.60617">
        <ele>8</ele>
        <time>2011-09-01T16:30:02Z</time>
      </trkpt>
      <trkpt lat="47.42299" lon="-0.60621">
        <ele>8</ele>
        <time>2011-09-01T16:30:03Z</time>
      </trkpt>
      <trkpt lat="47.42296" lon="-0.60625">
        <ele>8</ele>
        <time>2011-09-01T16:30:04Z</time>
      </trkpt>
      <trkpt lat="47.42294" lon="-0.60628">
        <ele>8</ele>
        <time>2011-09-01T16:30:05Z</time>
      </trkpt>
      <trkpt lat="47.42291" lon="-0.60631">
        <ele>8</ele>
        <time>2011-09-01T16:30:06Z</time>
      </trkpt>
      <trkpt lat="47.42289" lon="-0.60633">
        <ele>8</ele>
        <time>2011-09-01T16:30:07Z</time>
      </trkpt>
      <trkpt lat="47.42286" lon="-0.60635">
        <ele>8</ele>
        <time>2011-09-01T16:30:08Z</time>
      </trkpt>
      <trkpt lat="47.42282" lon="-0.60636">
        <ele>8</ele>
        <time>2011-09-01T16:30:09Z</time>
      </trkpt>
      <trkpt lat="47.4228" lon="-0.60638">
        <ele>8</ele>
        <time>2011-09-01T16:30:10Z</time>
      </trkpt>
      <trkpt lat="47.42278" lon="-0.60641">
        <ele>8</ele>
        <time>2011-09-01T16:30:11Z</time>
      </trkpt>
      <trkpt lat="47.42276" lon="-0.60644">
        <ele>8</ele>
        <time>2011-09-01T16:30:12Z</time>
      </trkpt>
      <trkpt lat="47.42274" lon="-0.60647">
        <ele>8</ele>
        <time>2011-09-01T16:30:13Z</time>
      </trkpt>
      <trkpt lat="47.42273" lon="-0.60651">
        <ele>8</ele>
        <time>2011-09-01T16:30:14Z</time>
      </trkpt>
      <trkpt lat="47.42271" lon="-0.60654">
        <ele>8</ele>
        <time>2011-09-01T16:30:15Z</time>
      </trkpt>
      <trkpt lat="47.4227" lon="-0.60659">
        <ele>8</ele>
        <time>2011-09-01T16:30:16Z</time>
      </trkpt>
      <trkpt lat="47.4227" lon="-0.60663">
        <ele>8</ele>
        <time>2011-09-01T16:30:17Z</time>
      </trkpt>
      <trkpt lat="47.42269" lon="-0.60667">
        <ele>8</ele>
        <time>2011-09-01T16:30:18Z</time>
      </trkpt>
      <trkpt lat="47.42268" lon="-0.60672">
        <ele>8</ele>
        <time>2011-09-01T16:30:19Z</time>
      </trkpt>
      <trkpt lat="47.42266" lon="-0.60676">
        <ele>8</ele>
        <time>2011-09-01T16:30:20Z</time>
      </trkpt>
      <trkpt lat="47.42264" lon="-0.6068">
        <ele>8</ele>
        <time>2011-09-01T16:30:21Z</time>
      </trkpt>
      <trkpt lat="47.42263" lon="-0.60685">
        <ele>8</ele>
        <time>2011-09-01T16:30:22Z</time>
      </trkpt>
      <trkpt lat="47.42261" lon="-0.60689">
        <ele>8</ele>
        <time>2011-09-01T16:30:23Z</time>
      </trkpt>
      <trkpt lat="47.4226" lon="-0.60692">
        <ele>8</ele>
        <time>2011-09-01T16:30:24Z</time>
      </trkpt>
      <trkpt lat="47.42259" lon="-0.60696">
        <ele>8</ele>
        <time>2011-09-01T16:30:25Z</time>
      </trkpt>
      <trkpt lat="47.42258" lon="-0.60699">
        <ele>8</ele>
        <time>2011-09-01T16:30:26Z</time>
      </trkpt>
      <trkpt lat="47.42258" lon="-0.60703">
        <ele>8</ele>
        <time>2011-09-01T16:30:27Z</time>
      </trkpt>
      <trkpt lat="47.42259" lon="-0.60706">
        <ele>8</ele>
        <time>2011-09-01T16:30:28Z</time>
      </trkpt>
      <trkpt lat="47.4226" lon="-0.60709">
        <ele>8</ele>
        <time>2011-09-01T16:30:29Z</time>
      </trkpt>
      <trkpt lat="47.4226" lon="-0.60712">
        <ele>9</ele>
        <time>2011-09-01T16:30:30Z</time>
      </trkpt>
      <trkpt lat="47.4226" lon="-0.60715">
        <ele>9</ele>
        <time>2011-09-01T16:30:31Z</time>
      </trkpt>
      <trkpt lat="47.42259" lon="-0.60718">
        <ele>9</ele>
        <time>2011-09-01T16:30:32Z</time>
      </trkpt>
      <trkpt lat="47.42257" lon="-0.6072">
        <ele>9</ele>
        <time>2011-09-01T16:30:33Z</time>
      </trkpt>
      <trkpt lat="47.42255" lon="-0.60722">
        <ele>9</ele>
        <time>2011-09-01T16:30:34Z</time>
      </trkpt>
      <trkpt lat="47.42252" lon="-0.60724">
        <ele>9</ele>
        <time>2011-09-01T16:30:35Z</time>
      </trkpt>
      <trkpt lat="47.4225" lon="-0.60726">
        <ele>9</ele>
        <time>2011-09-01T16:30:36Z</time>
      </trkpt>
      <trkpt lat="47.42248" lon="-0.60729">
        <ele>9</ele>
        <time>2011-09-01T16:30:37Z</time>
      </trkpt>
      <trkpt lat="47.42246" lon="-0.60732">
        <ele>9</ele>
        <time>2011-09-01T16:30:38Z</time>
      </trkpt>
      <trkpt lat="47.42243" lon="-0.60734">
        <ele>9</ele>
        <time>2011-09-01T16:30:39Z</time>
      </trkpt>
      <trkpt lat="47.42241" lon="-0.60737">
        <ele>9</ele>
        <time>2011-09-01T16:30:40Z</time>
      </trkpt>
      <trkpt lat="47.42239" lon="-0.60739">
        <ele>9</ele>
        <time>2011-09-01T16:30:41Z</time>
      </trkpt>
      <trkpt lat="47.42236" lon="-0.60741">
        <ele>9</ele>
        <time>2011-09-01T16:30:42Z</time>
      </trkpt>
      <trkpt lat="47.42234" lon="-0.60743">
        <ele>9</ele>
        <time>2011-09-01T16:30:43Z</time>
      </trkpt>
      <trkpt lat="47.42231" lon="-0.60745">
        <ele>9</ele>
        <time>2011-09-01T16:30:44Z</time>
      </trkpt>
      <trkpt lat="47.42229" lon="-0.60748">
        <ele>9</ele>
        <time>2011-09-01T16:30:45Z</time>
      </trkpt>
      <trkpt lat="47.42226" lon="-0.60751">
        <ele>9</ele>
        <time>2011-09-01T16:30:46Z</time>
      </trkpt>
      <trkpt lat="47.42223" lon="-0.60754">
        <ele>9</ele>
        <time>2011-09-01T16:30:47Z</time>
      </trkpt>
      <trkpt lat="47.42221" lon="-0.60757">
        <ele>9</ele>
        <time>2011-09-01T16:30:48Z</time>
      </trkpt>
      <trkpt lat="47.42218" lon="-0.60759">
        <ele>9</ele>
        <time>2011-09-01T16:30:49Z</time>
      </trkpt>
      <trkpt lat="47.42215" lon="-0.60762">
        <ele>9</ele>
        <time>2011-09-01T16:30:50Z</time>
      </trkpt>
      <trkpt lat="47.42212" lon="-0.60765">
        <ele>9</ele>
        <time>2011-09-01T16:30:51Z</time>
      </trkpt>
      <trkpt lat="47.4221" lon="-0.60768">
        <ele>9</ele>
        <time>2011-09-01T16:30:52Z</time>
      </trkpt>
      <trkpt lat="47.42207" lon="-0.60771">
        <ele>10</ele>
        <time>2011-09-01T16:30:53Z</time>
      </trkpt>
      <trkpt lat="47.42205" lon="-0.60774">
        <ele>10</ele>
        <time>2011-09-01T16:30:54Z</time>
      </trkpt>
      <trkpt lat="47.42202" lon="-0.60778">
        <ele>10</ele>
        <time>2011-09-01T16:30:55Z</time>
      </trkpt>
      <trkpt lat="47.422" lon="-0.60781">
        <ele>10</ele>
        <time>2011-09-01T16:30:56Z</time>
      </trkpt>
      <trkpt lat="47.42198" lon="-0.60785">
        <ele>10</ele>
        <time>2011-09-01T16:30:57Z</time>
      </trkpt>
      <trkpt lat="47.42196" lon="-0.60788">
        <ele>10</ele>
        <time>2011-09-01T16:30:58Z</time>
      </trkpt>
      <trkpt lat="47.42194" lon="-0.60792">
        <ele>10</ele>
        <time>2011-09-01T16:30:59Z</time>
      </trkpt>
      <trkpt lat="47.42192" lon="-0.60795">
        <ele>10</ele>
        <time>2011-09-01T16:31:00Z</time>
      </trkpt>
      <trkpt lat="47.42191" lon="-0.608">
        <ele>11</ele>
        <time>2011-09-01T16:31:01Z</time>
      </trkpt>
      <trkpt lat="47.42189" lon="-0.60804">
        <ele>11</ele>
        <time>2011-09-01T16:31:02Z</time>
      </trkpt>
      <trkpt lat="47.42188" lon="-0.60808">
        <ele>11</ele>
        <time>2011-09-01T16:31:03Z</time>
      </trkpt>
      <trkpt lat="47.42187" lon="-0.60812">
        <ele>11</ele>
        <time>2011-09-01T16:31:04Z</time>
      </trkpt>
      <trkpt lat="47.42186" lon="-0.60816">
        <ele>11</ele>
        <time>2011-09-01T16:31:05Z</time>
      </trkpt>
      <trkpt lat="47.42185" lon="-0.60819">
        <ele>11</ele>
        <time>2011-09-01T16:31:06Z</time>
      </trkpt>
      <trkpt lat="47.42184" lon="-0.60822">
        <ele>11</ele>
        <time>2011-09-01T16:31:07Z</time>
      </trkpt>
      <trkpt lat="47.42184" lon="-0.60825">
        <ele>11</ele>
        <time>2011-09-01T16:31:08Z</time>
      </trkpt>
      <trkpt lat="47.42183" lon="-0.60827">
        <ele>11</ele>
        <time>2011-09-01T16:31:09Z</time>
      </trkpt>
      <trkpt lat="47.42182" lon="-0.6083">
        <ele>12</ele>
        <time>2011-09-01T16:31:10Z</time>
      </trkpt>
      <trkpt lat="47.42182" lon="-0.60832">
        <ele>12</ele>
        <time>2011-09-01T16:31:11Z</time>
      </trkpt>
      <trkpt lat="47.42181" lon="-0.60834">
        <ele>13</ele>
        <time>2011-09-01T16:31:12Z</time>
      </trkpt>
      <trkpt lat="47.4218" lon="-0.60835">
        <ele>13</ele>
        <time>2011-09-01T16:31:13Z</time>
      </trkpt>
      <trkpt lat="47.42179" lon="-0.60837">
        <ele>13</ele>
        <time>2011-09-01T16:31:14Z</time>
      </trkpt>
      <trkpt lat="47.42179" lon="-0.60839">
        <ele>13</ele>
        <time>2011-09-01T16:31:15Z</time>
      </trkpt>
      <trkpt lat="47.42178" lon="-0.60842">
        <ele>14</ele>
        <time>2011-09-01T16:31:17Z</time>
      </trkpt>
      <trkpt lat="47.42177" lon="-0.60843">
        <ele>14</ele>
        <time>2011-09-01T16:31:20Z</time>
      </trkpt>
      <trkpt lat="47.42178" lon="-0.60845">
        <ele>14</ele>
        <time>2011-09-01T16:31:23Z</time>
      </trkpt>
      <trkpt lat="47.42177" lon="-0.60846">
        <ele>14</ele>
        <time>2011-09-01T16:31:29Z</time>
      </trkpt>
      <trkpt lat="47.42175" lon="-0.60845">
        <ele>14</ele>
        <time>2011-09-01T16:31:31Z</time>
      </trkpt>
      <trkpt lat="47.42173" lon="-0.60844">
        <ele>14</ele>
        <time>2011-09-01T16:31:32Z</time>
      </trkpt>
      <trkpt lat="47.42173" lon="-0.60843">
        <ele>14</ele>
        <time>2011-09-01T16:31:33Z</time>
      </trkpt>
      <trkpt lat="47.42173" lon="-0.6084">
        <ele>14</ele>
        <time>2011-09-01T16:31:34Z</time>
      </trkpt>
      <trkpt lat="47.42173" lon="-0.60839">
        <ele>14</ele>
        <time>2011-09-01T16:31:36Z</time>
      </trkpt>
      <trkpt lat="47.42172" lon="-0.60838">
        <ele>14</ele>
        <time>2011-09-01T16:31:43Z</time>
      </trkpt>
      <trkpt lat="47.42173" lon="-0.60838">
        <ele>14</ele>
        <time>2011-09-01T16:31:46Z</time>
      </trkpt>
      <trkpt lat="47.4217" lon="-0.60838">
        <ele>15</ele>
        <time>2011-09-01T16:31:53Z</time>
      </trkpt>
      <trkpt lat="47.42167" lon="-0.60837">
        <ele>15</ele>
        <time>2011-09-01T16:31:54Z</time>
      </trkpt>
      <trkpt lat="47.42163" lon="-0.60839">
        <ele>15</ele>
        <time>2011-09-01T16:31:55Z</time>
      </trkpt>
      <trkpt lat="47.4216" lon="-0.60842">
        <ele>15</ele>
        <time>2011-09-01T16:31:56Z</time>
      </trkpt>
      <trkpt lat="47.42157" lon="-0.60845">
        <ele>15</ele>
        <time>2011-09-01T16:31:57Z</time>
      </trkpt>
      <trkpt lat="47.42154" lon="-0.60848">
        <ele>15</ele>
        <time>2011-09-01T16:31:58Z</time>
      </trkpt>
      <trkpt lat="47.42152" lon="-0.60852">
        <ele>15</ele>
        <time>2011-09-01T16:31:59Z</time>
      </trkpt>
      <trkpt lat="47.42149" lon="-0.60855">
        <ele>15</ele>
        <time>2011-09-01T16:32:00Z</time>
      </trkpt>
      <trkpt lat="47.42147" lon="-0.60858">
        <ele>15</ele>
        <time>2011-09-01T16:32:01Z</time>
      </trkpt>
      <trkpt lat="47.42145" lon="-0.60861">
        <ele>15</ele>
        <time>2011-09-01T16:32:02Z</time>
      </trkpt>
      <trkpt lat="47.42143" lon="-0.60865">
        <ele>15</ele>
        <time>2011-09-01T16:32:03Z</time>
      </trkpt>
      <trkpt lat="47.42141" lon="-0.60868">
        <ele>15</ele>
        <time>2011-09-01T16:32:04Z</time>
      </trkpt>
      <trkpt lat="47.42139" lon="-0.60871">
        <ele>15</ele>
        <time>2011-09-01T16:32:05Z</time>
      </trkpt>
      <trkpt lat="47.42136" lon="-0.60874">
        <ele>15</ele>
        <time>2011-09-01T16:32:06Z</time>
      </trkpt>
      <trkpt lat="47.42134" lon="-0.60878">
        <ele>15</ele>
        <time>2011-09-01T16:32:07Z</time>
      </trkpt>
      <trkpt lat="47.42132" lon="-0.60881">
        <ele>15</ele>
        <time>2011-09-01T16:32:08Z</time>
      </trkpt>
      <trkpt lat="47.4213" lon="-0.60884">
        <ele>15</ele>
        <time>2011-09-01T16:32:09Z</time>
      </trkpt>
      <trkpt lat="47.42128" lon="-0.60887">
        <ele>15</ele>
        <time>2011-09-01T16:32:10Z</time>
      </trkpt>
      <trkpt lat="47.42126" lon="-0.6089">
        <ele>15</ele>
        <time>2011-09-01T16:32:11Z</time>
      </trkpt>
      <trkpt lat="47.42124" lon="-0.60894">
        <ele>15</ele>
        <time>2011-09-01T16:32:12Z</time>
      </trkpt>
      <trkpt lat="47.42122" lon="-0.60897">
        <ele>15</ele>
        <time>2011-09-01T16:32:13Z</time>
      </trkpt>
      <trkpt lat="47.42119" lon="-0.60901">
        <ele>15</ele>
        <time>2011-09-01T16:32:14Z</time>
      </trkpt>
      <trkpt lat="47.42117" lon="-0.60904">
        <ele>15</ele>
        <time>2011-09-01T16:32:15Z</time>
      </trkpt>
      <trkpt lat="47.42115" lon="-0.60907">
        <ele>15</ele>
        <time>2011-09-01T16:32:16Z</time>
      </trkpt>
      <trkpt lat="47.42113" lon="-0.6091">
        <ele>15</ele>
        <time>2011-09-01T16:32:17Z</time>
      </trkpt>
      <trkpt lat="47.42111" lon="-0.60913">
        <ele>15</ele>
        <time>2011-09-01T16:32:18Z</time>
      </trkpt>
      <trkpt lat="47.42109" lon="-0.60916">
        <ele>15</ele>
        <time>2011-09-01T16:32:19Z</time>
      </trkpt>
      <trkpt lat="47.42107" lon="-0.60918">
        <ele>15</ele>
        <time>2011-09-01T16:32:20Z</time>
      </trkpt>
      <trkpt lat="47.42104" lon="-0.60921">
        <ele>14</ele>
        <time>2011-09-01T16:32:21Z</time>
      </trkpt>
      <trkpt lat="47.421" lon="-0.60922">
        <ele>14</ele>
        <time>2011-09-01T16:32:22Z</time>
      </trkpt>
      <trkpt lat="47.42097" lon="-0.60924">
        <ele>14</ele>
        <time>2011-09-01T16:32:23Z</time>
      </trkpt>
      <trkpt lat="47.42093" lon="-0.60926">
        <ele>14</ele>
        <time>2011-09-01T16:32:24Z</time>
      </trkpt>
      <trkpt lat="47.4209" lon="-0.60927">
        <ele>13</ele>
        <time>2011-09-01T16:32:25Z</time>
      </trkpt>
      <trkpt lat="47.42087" lon="-0.60927">
        <ele>13</ele>
        <time>2011-09-01T16:32:26Z</time>
      </trkpt>
      <trkpt lat="47.42084" lon="-0.60928">
        <ele>13</ele>
        <time>2011-09-01T16:32:27Z</time>
      </trkpt>
      <trkpt lat="47.42081" lon="-0.60929">
        <ele>13</ele>
        <time>2011-09-01T16:32:28Z</time>
      </trkpt>
      <trkpt lat="47.42078" lon="-0.6093">
        <ele>13</ele>
        <time>2011-09-01T16:32:29Z</time>
      </trkpt>
      <trkpt lat="47.42075" lon="-0.60931">
        <ele>12</ele>
        <time>2011-09-01T16:32:30Z</time>
      </trkpt>
      <trkpt lat="47.42072" lon="-0.60932">
        <ele>12</ele>
        <time>2011-09-01T16:32:31Z</time>
      </trkpt>
      <trkpt lat="47.4207" lon="-0.60933">
        <ele>12</ele>
        <time>2011-09-01T16:32:32Z</time>
      </trkpt>
      <trkpt lat="47.42067" lon="-0.60934">
        <ele>12</ele>
        <time>2011-09-01T16:32:33Z</time>
      </trkpt>
      <trkpt lat="47.42064" lon="-0.60934">
        <ele>12</ele>
        <time>2011-09-01T16:32:34Z</time>
      </trkpt>
      <trkpt lat="47.42061" lon="-0.60936">
        <ele>12</ele>
        <time>2011-09-01T16:32:35Z</time>
      </trkpt>
      <trkpt lat="47.42059" lon="-0.60938">
        <ele>12</ele>
        <time>2011-09-01T16:32:36Z</time>
      </trkpt>
      <trkpt lat="47.42056" lon="-0.6094">
        <ele>12</ele>
        <time>2011-09-01T16:32:37Z</time>
      </trkpt>
      <trkpt lat="47.42054" lon="-0.60943">
        <ele>12</ele>
        <time>2011-09-01T16:32:38Z</time>
      </trkpt>
      <trkpt lat="47.42051" lon="-0.60945">
        <ele>12</ele>
        <time>2011-09-01T16:32:39Z</time>
      </trkpt>
      <trkpt lat="47.42048" lon="-0.60948">
        <ele>12</ele>
        <time>2011-09-01T16:32:40Z</time>
      </trkpt>
      <trkpt lat="47.42046" lon="-0.60951">
        <ele>12</ele>
        <time>2011-09-01T16:32:41Z</time>
      </trkpt>
      <trkpt lat="47.42043" lon="-0.60953">
        <ele>12</ele>
        <time>2011-09-01T16:32:42Z</time>
      </trkpt>
      <trkpt lat="47.4204" lon="-0.60954">
        <ele>12</ele>
        <time>2011-09-01T16:32:43Z</time>
      </trkpt>
      <trkpt lat="47.42038" lon="-0.60956">
        <ele>12</ele>
        <time>2011-09-01T16:32:44Z</time>
      </trkpt>
      <trkpt lat="47.42035" lon="-0.60957">
        <ele>12</ele>
        <time>2011-09-01T16:32:45Z</time>
      </trkpt>
      <trkpt lat="47.42032" lon="-0.60959">
        <ele>12</ele>
        <time>2011-09-01T16:32:46Z</time>
      </trkpt>
      <trkpt lat="47.42029" lon="-0.60961">
        <ele>12</ele>
        <time>2011-09-01T16:32:47Z</time>
      </trkpt>
      <trkpt lat="47.42027" lon="-0.60962">
        <ele>12</ele>
        <time>2011-09-01T16:32:48Z</time>
      </trkpt>
      <trkpt lat="47.42024" lon="-0.60964">
        <ele>12</ele>
        <time>2011-09-01T16:32:49Z</time>
      </trkpt>
      <trkpt lat="47.4202" lon="-0.60965">
        <ele>12</ele>
        <time>2011-09-01T16:32:50Z</time>
      </trkpt>
      <trkpt lat="47.42017" lon="-0.60967">
        <ele>12</ele>
        <time>2011-09-01T16:32:51Z</time>
      </trkpt>
      <trkpt lat="47.42014" lon="-0.60968">
        <ele>12</ele>
        <time>2011-09-01T16:32:52Z</time>
      </trkpt>
      <trkpt lat="47.42011" lon="-0.60969">
        <ele>12</ele>
        <time>2011-09-01T16:32:53Z</time>
      </trkpt>
      <trkpt lat="47.42008" lon="-0.60971">
        <ele>12</ele>
        <time>2011-09-01T16:32:54Z</time>
      </trkpt>
      <trkpt lat="47.42005" lon="-0.60972">
        <ele>12</ele>
        <time>2011-09-01T16:32:55Z</time>
      </trkpt>
      <trkpt lat="47.42002" lon="-0.60974">
        <ele>12</ele>
        <time>2011-09-01T16:32:56Z</time>
      </trkpt>
      <trkpt lat="47.41998" lon="-0.60975">
        <ele>12</ele>
        <time>2011-09-01T16:32:57Z</time>
      </trkpt>
      <trkpt lat="47.41995" lon="-0.60977">
        <ele>12</ele>
        <time>2011-09-01T16:32:58Z</time>
      </trkpt>
      <trkpt lat="47.41991" lon="-0.60979">
        <ele>12</ele>
        <time>2011-09-01T16:32:59Z</time>
      </trkpt>
      <trkpt lat="47.41988" lon="-0.60981">
        <ele>12</ele>
        <time>2011-09-01T16:33:00Z</time>
      </trkpt>
      <trkpt lat="47.41985" lon="-0.60983">
        <ele>12</ele>
        <time>2011-09-01T16:33:01Z</time>
      </trkpt>
      <trkpt lat="47.41982" lon="-0.60985">
        <ele>12</ele>
        <time>2011-09-01T16:33:02Z</time>
      </trkpt>
      <trkpt lat="47.41979" lon="-0.60987">
        <ele>12</ele>
        <time>2011-09-01T16:33:03Z</time>
      </trkpt>
      <trkpt lat="47.41976" lon="-0.60989">
        <ele>12</ele>
        <time>2011-09-01T16:33:04Z</time>
      </trkpt>
      <trkpt lat="47.41973" lon="-0.60991">
        <ele>12</ele>
        <time>2011-09-01T16:33:05Z</time>
      </trkpt>
      <trkpt lat="47.4197" lon="-0.60993">
        <ele>12</ele>
        <time>2011-09-01T16:33:06Z</time>
      </trkpt>
      <trkpt lat="47.41967" lon="-0.60995">
        <ele>12</ele>
        <time>2011-09-01T16:33:07Z</time>
      </trkpt>
      <trkpt lat="47.41964" lon="-0.60997">
        <ele>12</ele>
        <time>2011-09-01T16:33:08Z</time>
      </trkpt>
      <trkpt lat="47.41961" lon="-0.60998">
        <ele>12</ele>
        <time>2011-09-01T16:33:09Z</time>
      </trkpt>
      <trkpt lat="47.41957" lon="-0.61">
        <ele>12</ele>
        <time>2011-09-01T16:33:10Z</time>
      </trkpt>
      <trkpt lat="47.41954" lon="-0.61002">
        <ele>12</ele>
        <time>2011-09-01T16:33:11Z</time>
      </trkpt>
      <trkpt lat="47.41951" lon="-0.61004">
        <ele>12</ele>
        <time>2011-09-01T16:33:12Z</time>
      </trkpt>
      <trkpt lat="47.41948" lon="-0.61006">
        <ele>12</ele>
        <time>2011-09-01T16:33:13Z</time>
      </trkpt>
      <trkpt lat="47.41945" lon="-0.61008">
        <ele>12</ele>
        <time>2011-09-01T16:33:14Z</time>
      </trkpt>
      <trkpt lat="47.41942" lon="-0.6101">
        <ele>12</ele>
        <time>2011-09-01T16:33:15Z</time>
      </trkpt>
      <trkpt lat="47.41939" lon="-0.61012">
        <ele>11</ele>
        <time>2011-09-01T16:33:16Z</time>
      </trkpt>
      <trkpt lat="47.41936" lon="-0.61014">
        <ele>11</ele>
        <time>2011-09-01T16:33:17Z</time>
      </trkpt>
      <trkpt lat="47.41933" lon="-0.61016">
        <ele>11</ele>
        <time>2011-09-01T16:33:18Z</time>
      </trkpt>
      <trkpt lat="47.4193" lon="-0.61018">
        <ele>11</ele>
        <time>2011-09-01T16:33:19Z</time>
      </trkpt>
      <trkpt lat="47.41927" lon="-0.61019">
        <ele>11</ele>
        <time>2011-09-01T16:33:20Z</time>
      </trkpt>
      <trkpt lat="47.41924" lon="-0.61021">
        <ele>11</ele>
        <time>2011-09-01T16:33:21Z</time>
      </trkpt>
      <trkpt lat="47.41921" lon="-0.61023">
        <ele>11</ele>
        <time>2011-09-01T16:33:22Z</time>
      </trkpt>
      <trkpt lat="47.41918" lon="-0.61025">
        <ele>11</ele>
        <time>2011-09-01T16:33:23Z</time>
      </trkpt>
      <trkpt lat="47.41915" lon="-0.61026">
        <ele>11</ele>
        <time>2011-09-01T16:33:24Z</time>
      </trkpt>
      <trkpt lat="47.41912" lon="-0.61028">
        <ele>11</ele>
        <time>2011-09-01T16:33:25Z</time>
      </trkpt>
      <trkpt lat="47.41909" lon="-0.6103">
        <ele>11</ele>
        <time>2011-09-01T16:33:26Z</time>
      </trkpt>
      <trkpt lat="47.41906" lon="-0.61031">
        <ele>11</ele>
        <time>2011-09-01T16:33:27Z</time>
      </trkpt>
      <trkpt lat="47.41904" lon="-0.61033">
        <ele>11</ele>
        <time>2011-09-01T16:33:28Z</time>
      </trkpt>
      <trkpt lat="47.41901" lon="-0.61035">
        <ele>11</ele>
        <time>2011-09-01T16:33:29Z</time>
      </trkpt>
      <trkpt lat="47.41898" lon="-0.61037">
        <ele>11</ele>
        <time>2011-09-01T16:33:30Z</time>
      </trkpt>
      <trkpt lat="47.41895" lon="-0.61039">
        <ele>11</ele>
        <time>2011-09-01T16:33:31Z</time>
      </trkpt>
      <trkpt lat="47.41893" lon="-0.61041">
        <ele>11</ele>
        <time>2011-09-01T16:33:32Z</time>
      </trkpt>
      <trkpt lat="47.4189" lon="-0.61042">
        <ele>11</ele>
        <time>2011-09-01T16:33:33Z</time>
      </trkpt>
      <trkpt lat="47.41888" lon="-0.61044">
        <ele>11</ele>
        <time>2011-09-01T16:33:34Z</time>
      </trkpt>
      <trkpt lat="47.41885" lon="-0.61046">
        <ele>11</ele>
        <time>2011-09-01T16:33:35Z</time>
      </trkpt>
      <trkpt lat="47.41883" lon="-0.61049">
        <ele>11</ele>
        <time>2011-09-01T16:33:36Z</time>
      </trkpt>
      <trkpt lat="47.41881" lon="-0.6105">
        <ele>11</ele>
        <time>2011-09-01T16:33:37Z</time>
      </trkpt>
      <trkpt lat="47.41879" lon="-0.61053">
        <ele>11</ele>
        <time>2011-09-01T16:33:38Z</time>
      </trkpt>
      <trkpt lat="47.41876" lon="-0.61054">
        <ele>11</ele>
        <time>2011-09-01T16:33:39Z</time>
      </trkpt>
      <trkpt lat="47.41874" lon="-0.61057">
        <ele>11</ele>
        <time>2011-09-01T16:33:40Z</time>
      </trkpt>
      <trkpt lat="47.41872" lon="-0.61059">
        <ele>11</ele>
        <time>2011-09-01T16:33:41Z</time>
      </trkpt>
      <trkpt lat="47.4187" lon="-0.61062">
        <ele>11</ele>
        <time>2011-09-01T16:33:42Z</time>
      </trkpt>
      <trkpt lat="47.41869" lon="-0.61065">
        <ele>11</ele>
        <time>2011-09-01T16:33:43Z</time>
      </trkpt>
      <trkpt lat="47.41868" lon="-0.61068">
        <ele>11</ele>
        <time>2011-09-01T16:33:44Z</time>
      </trkpt>
      <trkpt lat="47.41867" lon="-0.61071">
        <ele>11</ele>
        <time>2011-09-01T16:33:45Z</time>
      </trkpt>
      <trkpt lat="47.41867" lon="-0.61073">
        <ele>11</ele>
        <time>2011-09-01T16:33:46Z</time>
      </trkpt>
      <trkpt lat="47.41866" lon="-0.61076">
        <ele>11</ele>
        <time>2011-09-01T16:33:47Z</time>
      </trkpt>
      <trkpt lat="47.41866" lon="-0.61078">
        <ele>11</ele>
        <time>2011-09-01T16:33:48Z</time>
      </trkpt>
      <trkpt lat="47.41867" lon="-0.6108">
        <ele>11</ele>
        <time>2011-09-01T16:33:49Z</time>
      </trkpt>
      <trkpt lat="47.41867" lon="-0.61082">
        <ele>11</ele>
        <time>2011-09-01T16:33:50Z</time>
      </trkpt>
      <trkpt lat="47.41867" lon="-0.61085">
        <ele>11</ele>
        <time>2011-09-01T16:33:51Z</time>
      </trkpt>
      <trkpt lat="47.41867" lon="-0.61088">
        <ele>11</ele>
        <time>2011-09-01T16:33:52Z</time>
      </trkpt>
      <trkpt lat="47.41867" lon="-0.6109">
        <ele>11</ele>
        <time>2011-09-01T16:33:53Z</time>
      </trkpt>
      <trkpt lat="47.41868" lon="-0.61093">
        <ele>11</ele>
        <time>2011-09-01T16:33:54Z</time>
      </trkpt>
      <trkpt lat="47.41868" lon="-0.61095">
        <ele>11</ele>
        <time>2011-09-01T16:33:55Z</time>
      </trkpt>
      <trkpt lat="47.41868" lon="-0.61097">
        <ele>11</ele>
        <time>2011-09-01T16:33:56Z</time>
      </trkpt>
      <trkpt lat="47.41867" lon="-0.61099">
        <ele>11</ele>
        <time>2011-09-01T16:33:57Z</time>
      </trkpt>
      <trkpt lat="47.41867" lon="-0.61101">
        <ele>11</ele>
        <time>2011-09-01T16:33:58Z</time>
      </trkpt>
      <trkpt lat="47.41867" lon="-0.61104">
        <ele>11</ele>
        <time>2011-09-01T16:33:59Z</time>
      </trkpt>
      <trkpt lat="47.41867" lon="-0.61106">
        <ele>11</ele>
        <time>2011-09-01T16:34:00Z</time>
      </trkpt>
      <trkpt lat="47.41867" lon="-0.61108">
        <ele>11</ele>
        <time>2011-09-01T16:34:01Z</time>
      </trkpt>
      <trkpt lat="47.41867" lon="-0.61111">
        <ele>11</ele>
        <time>2011-09-01T16:34:02Z</time>
      </trkpt>
      <trkpt lat="47.41867" lon="-0.61113">
        <ele>11</ele>
        <time>2011-09-01T16:34:03Z</time>
      </trkpt>
      <trkpt lat="47.41867" lon="-0.61115">
        <ele>11</ele>
        <time>2011-09-01T16:34:04Z</time>
      </trkpt>
      <trkpt lat="47.41867" lon="-0.61116">
        <ele>11</ele>
        <time>2011-09-01T16:34:05Z</time>
      </trkpt>
      <trkpt lat="47.41866" lon="-0.61118">
        <ele>11</ele>
        <time>2011-09-01T16:34:06Z</time>
      </trkpt>
      <trkpt lat="47.41866" lon="-0.6112">
        <ele>11</ele>
        <time>2011-09-01T16:34:07Z</time>
      </trkpt>
      <trkpt lat="47.41865" lon="-0.61122">
        <ele>11</ele>
        <time>2011-09-01T16:34:09Z</time>
      </trkpt>
      <trkpt lat="47.41864" lon="-0.61122">
        <ele>11</ele>
        <time>2011-09-01T16:34:12Z</time>
      </trkpt>
      <trkpt lat="47.41865" lon="-0.61122">
        <ele>11</ele>
        <time>2011-09-01T16:34:14Z</time>
      </trkpt>
      <trkpt lat="47.41865" lon="-0.6112">
        <ele>11</ele>
        <time>2011-09-01T16:34:36Z</time>
      </trkpt>
      <trkpt lat="47.41866" lon="-0.6112">
        <ele>11</ele>
        <time>2011-09-01T16:34:48Z</time>
      </trkpt>
    </trkseg>
  </trk>
</gpx>